<?xml version="1.0" encoding="UTF-8" standalone="no" ?>
<gpx xmlns="http://www.topografix.com/GPX/1/1" xmlns:xsi="http://www.w3.org/2001/XMLSchema-instance" xsi:schemaLocation="http://www.topografix.com/GPX/1/1 http://www.topografix.com/GPX/1/1/gpx.xsd" version="1.1" creator="VisuGPX - https://www.visugpx.com">
  <metadata>
    <name>OC GIF VTT - 25/06/2026 / Sarzeau - St Jacques - St Gildas - Kerjouanno - Crouesty - Botpenal - Kerollaire - St Colombier</name>
    <desc><![CDATA[Petite balade sur la presqu\'île avec mon fils et mon petit fils]]></desc>
  </metadata>
  <trk>
    <name><![CDATA[OC GIF VTT - 25/06/2026 / Sarzeau - St Jacques - St Gildas - Kerjouanno - Crouesty - Botpenal - Kerollaire - St Colombier_1]]></name>
    <trkseg>
      <trkpt lat="47.5656" lon="-2.72432">
        <ele>4.9</ele>
        <time>2026-08-25T11:51:53Z</time>
      </trkpt>
      <trkpt lat="47.5656" lon="-2.72432">
        <ele>4.9</ele>
        <time>2026-08-25T11:51:54Z</time>
      </trkpt>
      <trkpt lat="47.56563" lon="-2.72422">
        <ele>4.8</ele>
        <time>2026-08-25T11:52:28Z</time>
      </trkpt>
      <trkpt lat="47.56564" lon="-2.72422">
        <ele>4.8</ele>
        <time>2026-08-25T11:52:29Z</time>
      </trkpt>
      <trkpt lat="47.56565" lon="-2.72422">
        <ele>4.7</ele>
        <time>2026-08-25T11:52:30Z</time>
      </trkpt>
      <trkpt lat="47.56566" lon="-2.72424">
        <ele>4.7</ele>
        <time>2026-08-25T11:52:31Z</time>
      </trkpt>
      <trkpt lat="47.56567" lon="-2.72426">
        <ele>4.7</ele>
        <time>2026-08-25T11:52:32Z</time>
      </trkpt>
      <trkpt lat="47.56567" lon="-2.72428">
        <ele>4.8</ele>
        <time>2026-08-25T11:52:33Z</time>
      </trkpt>
      <trkpt lat="47.56568" lon="-2.72431">
        <ele>4.8</ele>
        <time>2026-08-25T11:52:34Z</time>
      </trkpt>
      <trkpt lat="47.56567" lon="-2.72433">
        <ele>4.8</ele>
        <time>2026-08-25T11:52:35Z</time>
      </trkpt>
      <trkpt lat="47.56567" lon="-2.72436">
        <ele>4.9</ele>
        <time>2026-08-25T11:52:36Z</time>
      </trkpt>
      <trkpt lat="47.56565" lon="-2.72438">
        <ele>4.9</ele>
        <time>2026-08-25T11:52:37Z</time>
      </trkpt>
      <trkpt lat="47.56565" lon="-2.72439">
        <ele>4.9</ele>
        <time>2026-08-25T11:52:38Z</time>
      </trkpt>
      <trkpt lat="47.56564" lon="-2.72441">
        <ele>5</ele>
        <time>2026-08-25T11:52:39Z</time>
      </trkpt>
      <trkpt lat="47.56564" lon="-2.72442">
        <ele>5</ele>
        <time>2026-08-25T11:52:40Z</time>
      </trkpt>
      <trkpt lat="47.56563" lon="-2.72443">
        <ele>5</ele>
        <time>2026-08-25T11:52:41Z</time>
      </trkpt>
      <trkpt lat="47.56558" lon="-2.72445">
        <ele>5</ele>
        <time>2026-08-25T11:52:45Z</time>
      </trkpt>
      <trkpt lat="47.56556" lon="-2.72445">
        <ele>5</ele>
        <time>2026-08-25T11:52:46Z</time>
      </trkpt>
      <trkpt lat="47.56555" lon="-2.72445">
        <ele>5</ele>
        <time>2026-08-25T11:52:47Z</time>
      </trkpt>
      <trkpt lat="47.56553" lon="-2.72444">
        <ele>5</ele>
        <time>2026-08-25T11:52:48Z</time>
      </trkpt>
      <trkpt lat="47.56551" lon="-2.72442">
        <ele>5</ele>
        <time>2026-08-25T11:52:49Z</time>
      </trkpt>
      <trkpt lat="47.5655" lon="-2.72441">
        <ele>5</ele>
        <time>2026-08-25T11:52:50Z</time>
      </trkpt>
      <trkpt lat="47.56548" lon="-2.72439">
        <ele>4.9</ele>
        <time>2026-08-25T11:52:51Z</time>
      </trkpt>
      <trkpt lat="47.56547" lon="-2.72439">
        <ele>4.9</ele>
        <time>2026-08-25T11:52:52Z</time>
      </trkpt>
      <trkpt lat="47.56545" lon="-2.72439">
        <ele>4.9</ele>
        <time>2026-08-25T11:52:53Z</time>
      </trkpt>
      <trkpt lat="47.56544" lon="-2.72439">
        <ele>4.9</ele>
        <time>2026-08-25T11:52:54Z</time>
      </trkpt>
      <trkpt lat="47.56542" lon="-2.7244">
        <ele>4.9</ele>
        <time>2026-08-25T11:52:55Z</time>
      </trkpt>
      <trkpt lat="47.56541" lon="-2.7244">
        <ele>4.9</ele>
        <time>2026-08-25T11:52:56Z</time>
      </trkpt>
      <trkpt lat="47.5654" lon="-2.72439">
        <ele>4.9</ele>
        <time>2026-08-25T11:52:57Z</time>
      </trkpt>
      <trkpt lat="47.5654" lon="-2.72438">
        <ele>4.9</ele>
        <time>2026-08-25T11:52:58Z</time>
      </trkpt>
      <trkpt lat="47.56542" lon="-2.72438">
        <ele>4.9</ele>
        <time>2026-08-25T11:52:59Z</time>
      </trkpt>
      <trkpt lat="47.56543" lon="-2.72439">
        <ele>4.9</ele>
        <time>2026-08-25T11:53:00Z</time>
      </trkpt>
      <trkpt lat="47.56544" lon="-2.7244">
        <ele>4.9</ele>
        <time>2026-08-25T11:53:01Z</time>
      </trkpt>
      <trkpt lat="47.56545" lon="-2.72442">
        <ele>5</ele>
        <time>2026-08-25T11:53:02Z</time>
      </trkpt>
      <trkpt lat="47.56546" lon="-2.72443">
        <ele>5</ele>
        <time>2026-08-25T11:53:03Z</time>
      </trkpt>
      <trkpt lat="47.56548" lon="-2.72443">
        <ele>5</ele>
        <time>2026-08-25T11:53:04Z</time>
      </trkpt>
      <trkpt lat="47.56549" lon="-2.72443">
        <ele>5</ele>
        <time>2026-08-25T11:53:05Z</time>
      </trkpt>
      <trkpt lat="47.56551" lon="-2.72444">
        <ele>5</ele>
        <time>2026-08-25T11:53:06Z</time>
      </trkpt>
      <trkpt lat="47.56553" lon="-2.72445">
        <ele>5</ele>
        <time>2026-08-25T11:53:07Z</time>
      </trkpt>
      <trkpt lat="47.56554" lon="-2.72446">
        <ele>5</ele>
        <time>2026-08-25T11:53:08Z</time>
      </trkpt>
      <trkpt lat="47.56554" lon="-2.72448">
        <ele>5</ele>
        <time>2026-08-25T11:53:09Z</time>
      </trkpt>
      <trkpt lat="47.56554" lon="-2.72451">
        <ele>5</ele>
        <time>2026-08-25T11:53:10Z</time>
      </trkpt>
      <trkpt lat="47.56553" lon="-2.72451">
        <ele>5</ele>
        <time>2026-08-25T11:53:11Z</time>
      </trkpt>
      <trkpt lat="47.56552" lon="-2.72451">
        <ele>5</ele>
        <time>2026-08-25T11:53:12Z</time>
      </trkpt>
      <trkpt lat="47.56551" lon="-2.7245">
        <ele>5</ele>
        <time>2026-08-25T11:53:13Z</time>
      </trkpt>
      <trkpt lat="47.5655" lon="-2.72449">
        <ele>5</ele>
        <time>2026-08-25T11:53:14Z</time>
      </trkpt>
      <trkpt lat="47.56549" lon="-2.72448">
        <ele>5</ele>
        <time>2026-08-25T11:53:15Z</time>
      </trkpt>
      <trkpt lat="47.56547" lon="-2.72447">
        <ele>5</ele>
        <time>2026-08-25T11:53:16Z</time>
      </trkpt>
      <trkpt lat="47.56546" lon="-2.72445">
        <ele>5</ele>
        <time>2026-08-25T11:53:17Z</time>
      </trkpt>
      <trkpt lat="47.56545" lon="-2.72443">
        <ele>5</ele>
        <time>2026-08-25T11:53:18Z</time>
      </trkpt>
      <trkpt lat="47.56544" lon="-2.72441">
        <ele>4.9</ele>
        <time>2026-08-25T11:53:19Z</time>
      </trkpt>
      <trkpt lat="47.56543" lon="-2.72438">
        <ele>4.9</ele>
        <time>2026-08-25T11:53:20Z</time>
      </trkpt>
      <trkpt lat="47.56542" lon="-2.72435">
        <ele>4.8</ele>
        <time>2026-08-25T11:53:21Z</time>
      </trkpt>
      <trkpt lat="47.56541" lon="-2.72431">
        <ele>4.7</ele>
        <time>2026-08-25T11:53:22Z</time>
      </trkpt>
      <trkpt lat="47.5654" lon="-2.72427">
        <ele>4.6</ele>
        <time>2026-08-25T11:53:23Z</time>
      </trkpt>
      <trkpt lat="47.56539" lon="-2.72423">
        <ele>4.5</ele>
        <time>2026-08-25T11:53:24Z</time>
      </trkpt>
      <trkpt lat="47.56539" lon="-2.72418">
        <ele>4.4</ele>
        <time>2026-08-25T11:53:25Z</time>
      </trkpt>
      <trkpt lat="47.56538" lon="-2.72413">
        <ele>4.3</ele>
        <time>2026-08-25T11:53:26Z</time>
      </trkpt>
      <trkpt lat="47.56538" lon="-2.72409">
        <ele>4.3</ele>
        <time>2026-08-25T11:53:27Z</time>
      </trkpt>
      <trkpt lat="47.56537" lon="-2.72403">
        <ele>4.2</ele>
        <time>2026-08-25T11:53:28Z</time>
      </trkpt>
      <trkpt lat="47.56537" lon="-2.72398">
        <ele>4.1</ele>
        <time>2026-08-25T11:53:29Z</time>
      </trkpt>
      <trkpt lat="47.56536" lon="-2.72392">
        <ele>4</ele>
        <time>2026-08-25T11:53:30Z</time>
      </trkpt>
      <trkpt lat="47.56536" lon="-2.72387">
        <ele>4</ele>
        <time>2026-08-25T11:53:31Z</time>
      </trkpt>
      <trkpt lat="47.56535" lon="-2.72382">
        <ele>4</ele>
        <time>2026-08-25T11:53:32Z</time>
      </trkpt>
      <trkpt lat="47.56534" lon="-2.72376">
        <ele>4</ele>
        <time>2026-08-25T11:53:33Z</time>
      </trkpt>
      <trkpt lat="47.56534" lon="-2.7237">
        <ele>4</ele>
        <time>2026-08-25T11:53:34Z</time>
      </trkpt>
      <trkpt lat="47.56533" lon="-2.72365">
        <ele>4</ele>
        <time>2026-08-25T11:53:35Z</time>
      </trkpt>
      <trkpt lat="47.56532" lon="-2.7236">
        <ele>4</ele>
        <time>2026-08-25T11:53:36Z</time>
      </trkpt>
      <trkpt lat="47.5653" lon="-2.72355">
        <ele>3.8</ele>
        <time>2026-08-25T11:53:37Z</time>
      </trkpt>
      <trkpt lat="47.56528" lon="-2.72351">
        <ele>3.6</ele>
        <time>2026-08-25T11:53:38Z</time>
      </trkpt>
      <trkpt lat="47.56525" lon="-2.72347">
        <ele>3.5</ele>
        <time>2026-08-25T11:53:39Z</time>
      </trkpt>
      <trkpt lat="47.56524" lon="-2.72344">
        <ele>3.4</ele>
        <time>2026-08-25T11:53:40Z</time>
      </trkpt>
      <trkpt lat="47.56522" lon="-2.72341">
        <ele>3.4</ele>
        <time>2026-08-25T11:53:41Z</time>
      </trkpt>
      <trkpt lat="47.56522" lon="-2.72338">
        <ele>3.3</ele>
        <time>2026-08-25T11:53:42Z</time>
      </trkpt>
      <trkpt lat="47.56521" lon="-2.72337">
        <ele>3.3</ele>
        <time>2026-08-25T11:53:43Z</time>
      </trkpt>
      <trkpt lat="47.56521" lon="-2.72336">
        <ele>3.3</ele>
        <time>2026-08-25T11:53:44Z</time>
      </trkpt>
      <trkpt lat="47.56521" lon="-2.72336">
        <ele>3.3</ele>
        <time>2026-08-25T11:53:45Z</time>
      </trkpt>
      <trkpt lat="47.56523" lon="-2.7233">
        <ele>3.3</ele>
        <time>2026-08-25T11:55:50Z</time>
      </trkpt>
      <trkpt lat="47.56522" lon="-2.72327">
        <ele>3.4</ele>
        <time>2026-08-25T11:55:51Z</time>
      </trkpt>
      <trkpt lat="47.56521" lon="-2.72324">
        <ele>3.5</ele>
        <time>2026-08-25T11:55:52Z</time>
      </trkpt>
      <trkpt lat="47.5652" lon="-2.72321">
        <ele>3.6</ele>
        <time>2026-08-25T11:55:53Z</time>
      </trkpt>
      <trkpt lat="47.56519" lon="-2.72316">
        <ele>3.7</ele>
        <time>2026-08-25T11:55:54Z</time>
      </trkpt>
      <trkpt lat="47.56518" lon="-2.72311">
        <ele>3.9</ele>
        <time>2026-08-25T11:55:55Z</time>
      </trkpt>
      <trkpt lat="47.56517" lon="-2.72306">
        <ele>4</ele>
        <time>2026-08-25T11:55:56Z</time>
      </trkpt>
      <trkpt lat="47.56516" lon="-2.72301">
        <ele>4</ele>
        <time>2026-08-25T11:55:57Z</time>
      </trkpt>
      <trkpt lat="47.56515" lon="-2.72295">
        <ele>4</ele>
        <time>2026-08-25T11:55:58Z</time>
      </trkpt>
      <trkpt lat="47.56515" lon="-2.72289">
        <ele>4</ele>
        <time>2026-08-25T11:55:59Z</time>
      </trkpt>
      <trkpt lat="47.56514" lon="-2.72284">
        <ele>4</ele>
        <time>2026-08-25T11:56:00Z</time>
      </trkpt>
      <trkpt lat="47.56514" lon="-2.72278">
        <ele>4</ele>
        <time>2026-08-25T11:56:01Z</time>
      </trkpt>
      <trkpt lat="47.56515" lon="-2.72272">
        <ele>4.2</ele>
        <time>2026-08-25T11:56:02Z</time>
      </trkpt>
      <trkpt lat="47.56515" lon="-2.72266">
        <ele>4.4</ele>
        <time>2026-08-25T11:56:03Z</time>
      </trkpt>
      <trkpt lat="47.56515" lon="-2.7226">
        <ele>4.6</ele>
        <time>2026-08-25T11:56:04Z</time>
      </trkpt>
      <trkpt lat="47.56516" lon="-2.72255">
        <ele>4.8</ele>
        <time>2026-08-25T11:56:05Z</time>
      </trkpt>
      <trkpt lat="47.56516" lon="-2.72249">
        <ele>5</ele>
        <time>2026-08-25T11:56:06Z</time>
      </trkpt>
      <trkpt lat="47.56517" lon="-2.72243">
        <ele>5</ele>
        <time>2026-08-25T11:56:07Z</time>
      </trkpt>
      <trkpt lat="47.56517" lon="-2.72237">
        <ele>5</ele>
        <time>2026-08-25T11:56:08Z</time>
      </trkpt>
      <trkpt lat="47.56517" lon="-2.72231">
        <ele>5</ele>
        <time>2026-08-25T11:56:09Z</time>
      </trkpt>
      <trkpt lat="47.56516" lon="-2.72225">
        <ele>5</ele>
        <time>2026-08-25T11:56:10Z</time>
      </trkpt>
      <trkpt lat="47.56516" lon="-2.72219">
        <ele>5.2</ele>
        <time>2026-08-25T11:56:11Z</time>
      </trkpt>
      <trkpt lat="47.56516" lon="-2.72214">
        <ele>5.5</ele>
        <time>2026-08-25T11:56:12Z</time>
      </trkpt>
      <trkpt lat="47.56516" lon="-2.72208">
        <ele>5.8</ele>
        <time>2026-08-25T11:56:13Z</time>
      </trkpt>
      <trkpt lat="47.56515" lon="-2.72202">
        <ele>6.1</ele>
        <time>2026-08-25T11:56:14Z</time>
      </trkpt>
      <trkpt lat="47.56515" lon="-2.72197">
        <ele>6.4</ele>
        <time>2026-08-25T11:56:15Z</time>
      </trkpt>
      <trkpt lat="47.56515" lon="-2.72191">
        <ele>6.5</ele>
        <time>2026-08-25T11:56:16Z</time>
      </trkpt>
      <trkpt lat="47.56515" lon="-2.72186">
        <ele>6.5</ele>
        <time>2026-08-25T11:56:17Z</time>
      </trkpt>
      <trkpt lat="47.56515" lon="-2.7218">
        <ele>6.5</ele>
        <time>2026-08-25T11:56:18Z</time>
      </trkpt>
      <trkpt lat="47.56515" lon="-2.72174">
        <ele>6.5</ele>
        <time>2026-08-25T11:56:19Z</time>
      </trkpt>
      <trkpt lat="47.56515" lon="-2.72169">
        <ele>6.5</ele>
        <time>2026-08-25T11:56:20Z</time>
      </trkpt>
      <trkpt lat="47.56515" lon="-2.72163">
        <ele>6.5</ele>
        <time>2026-08-25T11:56:21Z</time>
      </trkpt>
      <trkpt lat="47.56516" lon="-2.72156">
        <ele>6.4</ele>
        <time>2026-08-25T11:56:22Z</time>
      </trkpt>
      <trkpt lat="47.56517" lon="-2.7215">
        <ele>6.2</ele>
        <time>2026-08-25T11:56:23Z</time>
      </trkpt>
      <trkpt lat="47.56517" lon="-2.72144">
        <ele>6.1</ele>
        <time>2026-08-25T11:56:24Z</time>
      </trkpt>
      <trkpt lat="47.56518" lon="-2.72137">
        <ele>6</ele>
        <time>2026-08-25T11:56:25Z</time>
      </trkpt>
      <trkpt lat="47.56519" lon="-2.7213">
        <ele>5.8</ele>
        <time>2026-08-25T11:56:26Z</time>
      </trkpt>
      <trkpt lat="47.56519" lon="-2.72123">
        <ele>5.6</ele>
        <time>2026-08-25T11:56:27Z</time>
      </trkpt>
      <trkpt lat="47.56519" lon="-2.72116">
        <ele>5.4</ele>
        <time>2026-08-25T11:56:28Z</time>
      </trkpt>
      <trkpt lat="47.5652" lon="-2.72108">
        <ele>5.2</ele>
        <time>2026-08-25T11:56:29Z</time>
      </trkpt>
      <trkpt lat="47.5652" lon="-2.72101">
        <ele>5.2</ele>
        <time>2026-08-25T11:56:30Z</time>
      </trkpt>
      <trkpt lat="47.56519" lon="-2.72093">
        <ele>5.1</ele>
        <time>2026-08-25T11:56:31Z</time>
      </trkpt>
      <trkpt lat="47.56518" lon="-2.72085">
        <ele>5</ele>
        <time>2026-08-25T11:56:32Z</time>
      </trkpt>
      <trkpt lat="47.56517" lon="-2.72077">
        <ele>4.9</ele>
        <time>2026-08-25T11:56:33Z</time>
      </trkpt>
      <trkpt lat="47.56515" lon="-2.7207">
        <ele>4.7</ele>
        <time>2026-08-25T11:56:34Z</time>
      </trkpt>
      <trkpt lat="47.56513" lon="-2.72062">
        <ele>4.6</ele>
        <time>2026-08-25T11:56:35Z</time>
      </trkpt>
      <trkpt lat="47.56511" lon="-2.72055">
        <ele>4.6</ele>
        <time>2026-08-25T11:56:36Z</time>
      </trkpt>
      <trkpt lat="47.56509" lon="-2.72048">
        <ele>4.5</ele>
        <time>2026-08-25T11:56:37Z</time>
      </trkpt>
      <trkpt lat="47.56507" lon="-2.72041">
        <ele>4.4</ele>
        <time>2026-08-25T11:56:38Z</time>
      </trkpt>
      <trkpt lat="47.56505" lon="-2.72034">
        <ele>4.2</ele>
        <time>2026-08-25T11:56:39Z</time>
      </trkpt>
      <trkpt lat="47.56502" lon="-2.72028">
        <ele>4</ele>
        <time>2026-08-25T11:56:40Z</time>
      </trkpt>
      <trkpt lat="47.56498" lon="-2.72024">
        <ele>4</ele>
        <time>2026-08-25T11:56:41Z</time>
      </trkpt>
      <trkpt lat="47.56493" lon="-2.72021">
        <ele>4.1</ele>
        <time>2026-08-25T11:56:42Z</time>
      </trkpt>
      <trkpt lat="47.56489" lon="-2.7202">
        <ele>4.1</ele>
        <time>2026-08-25T11:56:43Z</time>
      </trkpt>
      <trkpt lat="47.56484" lon="-2.72021">
        <ele>4.1</ele>
        <time>2026-08-25T11:56:44Z</time>
      </trkpt>
      <trkpt lat="47.5648" lon="-2.72022">
        <ele>4.1</ele>
        <time>2026-08-25T11:56:45Z</time>
      </trkpt>
      <trkpt lat="47.56475" lon="-2.72024">
        <ele>4.1</ele>
        <time>2026-08-25T11:56:46Z</time>
      </trkpt>
      <trkpt lat="47.56471" lon="-2.72025">
        <ele>4.1</ele>
        <time>2026-08-25T11:56:47Z</time>
      </trkpt>
      <trkpt lat="47.56466" lon="-2.72026">
        <ele>4.3</ele>
        <time>2026-08-25T11:56:48Z</time>
      </trkpt>
      <trkpt lat="47.56462" lon="-2.72028">
        <ele>4.4</ele>
        <time>2026-08-25T11:56:49Z</time>
      </trkpt>
      <trkpt lat="47.56458" lon="-2.72029">
        <ele>4.5</ele>
        <time>2026-08-25T11:56:50Z</time>
      </trkpt>
      <trkpt lat="47.56454" lon="-2.7203">
        <ele>4.7</ele>
        <time>2026-08-25T11:56:51Z</time>
      </trkpt>
      <trkpt lat="47.5645" lon="-2.72031">
        <ele>4.8</ele>
        <time>2026-08-25T11:56:52Z</time>
      </trkpt>
      <trkpt lat="47.56446" lon="-2.72033">
        <ele>5</ele>
        <time>2026-08-25T11:56:53Z</time>
      </trkpt>
      <trkpt lat="47.56442" lon="-2.72034">
        <ele>5</ele>
        <time>2026-08-25T11:56:54Z</time>
      </trkpt>
      <trkpt lat="47.56437" lon="-2.72035">
        <ele>5</ele>
        <time>2026-08-25T11:56:55Z</time>
      </trkpt>
      <trkpt lat="47.56433" lon="-2.72036">
        <ele>5</ele>
        <time>2026-08-25T11:56:56Z</time>
      </trkpt>
      <trkpt lat="47.56429" lon="-2.72037">
        <ele>5</ele>
        <time>2026-08-25T11:56:57Z</time>
      </trkpt>
      <trkpt lat="47.56425" lon="-2.72038">
        <ele>5</ele>
        <time>2026-08-25T11:56:58Z</time>
      </trkpt>
      <trkpt lat="47.5642" lon="-2.72039">
        <ele>5</ele>
        <time>2026-08-25T11:56:59Z</time>
      </trkpt>
      <trkpt lat="47.56416" lon="-2.72041">
        <ele>5</ele>
        <time>2026-08-25T11:57:00Z</time>
      </trkpt>
      <trkpt lat="47.56412" lon="-2.72042">
        <ele>4.9</ele>
        <time>2026-08-25T11:57:01Z</time>
      </trkpt>
      <trkpt lat="47.56407" lon="-2.72043">
        <ele>4.8</ele>
        <time>2026-08-25T11:57:02Z</time>
      </trkpt>
      <trkpt lat="47.56403" lon="-2.72044">
        <ele>4.7</ele>
        <time>2026-08-25T11:57:03Z</time>
      </trkpt>
      <trkpt lat="47.56399" lon="-2.72045">
        <ele>4.6</ele>
        <time>2026-08-25T11:57:04Z</time>
      </trkpt>
      <trkpt lat="47.56394" lon="-2.72046">
        <ele>4.5</ele>
        <time>2026-08-25T11:57:05Z</time>
      </trkpt>
      <trkpt lat="47.5639" lon="-2.72048">
        <ele>4.3</ele>
        <time>2026-08-25T11:57:06Z</time>
      </trkpt>
      <trkpt lat="47.56386" lon="-2.72049">
        <ele>4.3</ele>
        <time>2026-08-25T11:57:07Z</time>
      </trkpt>
      <trkpt lat="47.56382" lon="-2.7205">
        <ele>4.4</ele>
        <time>2026-08-25T11:57:08Z</time>
      </trkpt>
      <trkpt lat="47.56378" lon="-2.72051">
        <ele>4.6</ele>
        <time>2026-08-25T11:57:09Z</time>
      </trkpt>
      <trkpt lat="47.56373" lon="-2.72053">
        <ele>4.7</ele>
        <time>2026-08-25T11:57:10Z</time>
      </trkpt>
      <trkpt lat="47.56369" lon="-2.72054">
        <ele>4.8</ele>
        <time>2026-08-25T11:57:11Z</time>
      </trkpt>
      <trkpt lat="47.56365" lon="-2.72055">
        <ele>4.9</ele>
        <time>2026-08-25T11:57:12Z</time>
      </trkpt>
      <trkpt lat="47.56361" lon="-2.72057">
        <ele>4.9</ele>
        <time>2026-08-25T11:57:13Z</time>
      </trkpt>
      <trkpt lat="47.56356" lon="-2.72058">
        <ele>4.9</ele>
        <time>2026-08-25T11:57:14Z</time>
      </trkpt>
      <trkpt lat="47.56352" lon="-2.72059">
        <ele>4.9</ele>
        <time>2026-08-25T11:57:15Z</time>
      </trkpt>
      <trkpt lat="47.56347" lon="-2.7206">
        <ele>4.8</ele>
        <time>2026-08-25T11:57:16Z</time>
      </trkpt>
      <trkpt lat="47.56343" lon="-2.72061">
        <ele>4.8</ele>
        <time>2026-08-25T11:57:17Z</time>
      </trkpt>
      <trkpt lat="47.56339" lon="-2.72063">
        <ele>4.7</ele>
        <time>2026-08-25T11:57:18Z</time>
      </trkpt>
      <trkpt lat="47.56335" lon="-2.72064">
        <ele>4.7</ele>
        <time>2026-08-25T11:57:19Z</time>
      </trkpt>
      <trkpt lat="47.5633" lon="-2.72065">
        <ele>4.7</ele>
        <time>2026-08-25T11:57:20Z</time>
      </trkpt>
      <trkpt lat="47.56326" lon="-2.72066">
        <ele>4.7</ele>
        <time>2026-08-25T11:57:21Z</time>
      </trkpt>
      <trkpt lat="47.56322" lon="-2.72067">
        <ele>4.8</ele>
        <time>2026-08-25T11:57:22Z</time>
      </trkpt>
      <trkpt lat="47.56317" lon="-2.72068">
        <ele>4.8</ele>
        <time>2026-08-25T11:57:23Z</time>
      </trkpt>
      <trkpt lat="47.56313" lon="-2.72069">
        <ele>4.9</ele>
        <time>2026-08-25T11:57:24Z</time>
      </trkpt>
      <trkpt lat="47.56309" lon="-2.72069">
        <ele>4.9</ele>
        <time>2026-08-25T11:57:25Z</time>
      </trkpt>
      <trkpt lat="47.56304" lon="-2.72069">
        <ele>5</ele>
        <time>2026-08-25T11:57:26Z</time>
      </trkpt>
      <trkpt lat="47.563" lon="-2.72069">
        <ele>5.1</ele>
        <time>2026-08-25T11:57:27Z</time>
      </trkpt>
      <trkpt lat="47.56296" lon="-2.72068">
        <ele>5.2</ele>
        <time>2026-08-25T11:57:28Z</time>
      </trkpt>
      <trkpt lat="47.56291" lon="-2.72068">
        <ele>5.3</ele>
        <time>2026-08-25T11:57:29Z</time>
      </trkpt>
      <trkpt lat="47.56287" lon="-2.72068">
        <ele>5.4</ele>
        <time>2026-08-25T11:57:30Z</time>
      </trkpt>
      <trkpt lat="47.56282" lon="-2.72068">
        <ele>5.5</ele>
        <time>2026-08-25T11:57:31Z</time>
      </trkpt>
      <trkpt lat="47.56278" lon="-2.72067">
        <ele>5.6</ele>
        <time>2026-08-25T11:57:32Z</time>
      </trkpt>
      <trkpt lat="47.56274" lon="-2.72067">
        <ele>5.6</ele>
        <time>2026-08-25T11:57:33Z</time>
      </trkpt>
      <trkpt lat="47.56269" lon="-2.72067">
        <ele>5.7</ele>
        <time>2026-08-25T11:57:34Z</time>
      </trkpt>
      <trkpt lat="47.56265" lon="-2.72067">
        <ele>5.8</ele>
        <time>2026-08-25T11:57:35Z</time>
      </trkpt>
      <trkpt lat="47.56261" lon="-2.72066">
        <ele>5.9</ele>
        <time>2026-08-25T11:57:36Z</time>
      </trkpt>
      <trkpt lat="47.56256" lon="-2.72066">
        <ele>5.9</ele>
        <time>2026-08-25T11:57:37Z</time>
      </trkpt>
      <trkpt lat="47.56252" lon="-2.72066">
        <ele>6</ele>
        <time>2026-08-25T11:57:38Z</time>
      </trkpt>
      <trkpt lat="47.56248" lon="-2.72066">
        <ele>6</ele>
        <time>2026-08-25T11:57:39Z</time>
      </trkpt>
      <trkpt lat="47.56243" lon="-2.72065">
        <ele>6</ele>
        <time>2026-08-25T11:57:40Z</time>
      </trkpt>
      <trkpt lat="47.56239" lon="-2.72065">
        <ele>6</ele>
        <time>2026-08-25T11:57:41Z</time>
      </trkpt>
      <trkpt lat="47.56235" lon="-2.72065">
        <ele>6</ele>
        <time>2026-08-25T11:57:42Z</time>
      </trkpt>
      <trkpt lat="47.5623" lon="-2.72065">
        <ele>6</ele>
        <time>2026-08-25T11:57:43Z</time>
      </trkpt>
      <trkpt lat="47.56226" lon="-2.72065">
        <ele>6</ele>
        <time>2026-08-25T11:57:44Z</time>
      </trkpt>
      <trkpt lat="47.56222" lon="-2.72064">
        <ele>6</ele>
        <time>2026-08-25T11:57:45Z</time>
      </trkpt>
      <trkpt lat="47.56218" lon="-2.72064">
        <ele>6</ele>
        <time>2026-08-25T11:57:46Z</time>
      </trkpt>
      <trkpt lat="47.56213" lon="-2.72064">
        <ele>6</ele>
        <time>2026-08-25T11:57:47Z</time>
      </trkpt>
      <trkpt lat="47.56209" lon="-2.72064">
        <ele>6</ele>
        <time>2026-08-25T11:57:48Z</time>
      </trkpt>
      <trkpt lat="47.56205" lon="-2.72064">
        <ele>6</ele>
        <time>2026-08-25T11:57:49Z</time>
      </trkpt>
      <trkpt lat="47.56201" lon="-2.72063">
        <ele>6</ele>
        <time>2026-08-25T11:57:50Z</time>
      </trkpt>
      <trkpt lat="47.56197" lon="-2.72063">
        <ele>6</ele>
        <time>2026-08-25T11:57:51Z</time>
      </trkpt>
      <trkpt lat="47.56193" lon="-2.72063">
        <ele>6.1</ele>
        <time>2026-08-25T11:57:52Z</time>
      </trkpt>
      <trkpt lat="47.56189" lon="-2.72063">
        <ele>6.2</ele>
        <time>2026-08-25T11:57:53Z</time>
      </trkpt>
      <trkpt lat="47.56185" lon="-2.72063">
        <ele>6.3</ele>
        <time>2026-08-25T11:57:54Z</time>
      </trkpt>
      <trkpt lat="47.5618" lon="-2.72062">
        <ele>6.5</ele>
        <time>2026-08-25T11:57:55Z</time>
      </trkpt>
      <trkpt lat="47.56176" lon="-2.72062">
        <ele>6.7</ele>
        <time>2026-08-25T11:57:56Z</time>
      </trkpt>
      <trkpt lat="47.56172" lon="-2.72062">
        <ele>6.8</ele>
        <time>2026-08-25T11:57:57Z</time>
      </trkpt>
      <trkpt lat="47.56168" lon="-2.72062">
        <ele>7</ele>
        <time>2026-08-25T11:57:58Z</time>
      </trkpt>
      <trkpt lat="47.56164" lon="-2.72063">
        <ele>7</ele>
        <time>2026-08-25T11:57:59Z</time>
      </trkpt>
      <trkpt lat="47.5616" lon="-2.72063">
        <ele>7</ele>
        <time>2026-08-25T11:58:00Z</time>
      </trkpt>
      <trkpt lat="47.56156" lon="-2.72063">
        <ele>7</ele>
        <time>2026-08-25T11:58:01Z</time>
      </trkpt>
      <trkpt lat="47.56152" lon="-2.72063">
        <ele>7</ele>
        <time>2026-08-25T11:58:02Z</time>
      </trkpt>
      <trkpt lat="47.56148" lon="-2.72063">
        <ele>7</ele>
        <time>2026-08-25T11:58:03Z</time>
      </trkpt>
      <trkpt lat="47.56144" lon="-2.72063">
        <ele>7</ele>
        <time>2026-08-25T11:58:04Z</time>
      </trkpt>
      <trkpt lat="47.5614" lon="-2.72063">
        <ele>7</ele>
        <time>2026-08-25T11:58:05Z</time>
      </trkpt>
      <trkpt lat="47.56135" lon="-2.72062">
        <ele>7.1</ele>
        <time>2026-08-25T11:58:06Z</time>
      </trkpt>
      <trkpt lat="47.56131" lon="-2.72062">
        <ele>7.2</ele>
        <time>2026-08-25T11:58:07Z</time>
      </trkpt>
      <trkpt lat="47.56127" lon="-2.72062">
        <ele>7.3</ele>
        <time>2026-08-25T11:58:08Z</time>
      </trkpt>
      <trkpt lat="47.56123" lon="-2.72062">
        <ele>7.4</ele>
        <time>2026-08-25T11:58:09Z</time>
      </trkpt>
      <trkpt lat="47.56119" lon="-2.72062">
        <ele>7.5</ele>
        <time>2026-08-25T11:58:10Z</time>
      </trkpt>
      <trkpt lat="47.56116" lon="-2.72062">
        <ele>7.6</ele>
        <time>2026-08-25T11:58:11Z</time>
      </trkpt>
      <trkpt lat="47.56111" lon="-2.72061">
        <ele>7.8</ele>
        <time>2026-08-25T11:58:12Z</time>
      </trkpt>
      <trkpt lat="47.56108" lon="-2.72061">
        <ele>7.9</ele>
        <time>2026-08-25T11:58:13Z</time>
      </trkpt>
      <trkpt lat="47.56104" lon="-2.72063">
        <ele>8</ele>
        <time>2026-08-25T11:58:14Z</time>
      </trkpt>
      <trkpt lat="47.561" lon="-2.72064">
        <ele>8.1</ele>
        <time>2026-08-25T11:58:15Z</time>
      </trkpt>
      <trkpt lat="47.56096" lon="-2.72063">
        <ele>8.3</ele>
        <time>2026-08-25T11:58:16Z</time>
      </trkpt>
      <trkpt lat="47.56092" lon="-2.72063">
        <ele>8.4</ele>
        <time>2026-08-25T11:58:17Z</time>
      </trkpt>
      <trkpt lat="47.56089" lon="-2.72063">
        <ele>8.5</ele>
        <time>2026-08-25T11:58:18Z</time>
      </trkpt>
      <trkpt lat="47.56085" lon="-2.72062">
        <ele>8.7</ele>
        <time>2026-08-25T11:58:19Z</time>
      </trkpt>
      <trkpt lat="47.56081" lon="-2.72061">
        <ele>9</ele>
        <time>2026-08-25T11:58:20Z</time>
      </trkpt>
      <trkpt lat="47.56077" lon="-2.72059">
        <ele>9.4</ele>
        <time>2026-08-25T11:58:21Z</time>
      </trkpt>
      <trkpt lat="47.56074" lon="-2.72058">
        <ele>9.6</ele>
        <time>2026-08-25T11:58:22Z</time>
      </trkpt>
      <trkpt lat="47.5607" lon="-2.72058">
        <ele>9.9</ele>
        <time>2026-08-25T11:58:23Z</time>
      </trkpt>
      <trkpt lat="47.56065" lon="-2.72057">
        <ele>10.3</ele>
        <time>2026-08-25T11:58:24Z</time>
      </trkpt>
      <trkpt lat="47.56061" lon="-2.72057">
        <ele>10.6</ele>
        <time>2026-08-25T11:58:25Z</time>
      </trkpt>
      <trkpt lat="47.56057" lon="-2.72057">
        <ele>10.9</ele>
        <time>2026-08-25T11:58:26Z</time>
      </trkpt>
      <trkpt lat="47.56053" lon="-2.72057">
        <ele>11</ele>
        <time>2026-08-25T11:58:27Z</time>
      </trkpt>
      <trkpt lat="47.5605" lon="-2.72057">
        <ele>11</ele>
        <time>2026-08-25T11:58:28Z</time>
      </trkpt>
      <trkpt lat="47.56046" lon="-2.72057">
        <ele>11</ele>
        <time>2026-08-25T11:58:29Z</time>
      </trkpt>
      <trkpt lat="47.56042" lon="-2.72056">
        <ele>11</ele>
        <time>2026-08-25T11:58:30Z</time>
      </trkpt>
      <trkpt lat="47.56038" lon="-2.72056">
        <ele>11</ele>
        <time>2026-08-25T11:58:31Z</time>
      </trkpt>
      <trkpt lat="47.56034" lon="-2.72055">
        <ele>11</ele>
        <time>2026-08-25T11:58:32Z</time>
      </trkpt>
      <trkpt lat="47.5603" lon="-2.72055">
        <ele>11</ele>
        <time>2026-08-25T11:58:33Z</time>
      </trkpt>
      <trkpt lat="47.56026" lon="-2.72055">
        <ele>11</ele>
        <time>2026-08-25T11:58:34Z</time>
      </trkpt>
      <trkpt lat="47.56023" lon="-2.72055">
        <ele>11</ele>
        <time>2026-08-25T11:58:35Z</time>
      </trkpt>
      <trkpt lat="47.56019" lon="-2.72055">
        <ele>11</ele>
        <time>2026-08-25T11:58:36Z</time>
      </trkpt>
      <trkpt lat="47.56015" lon="-2.72055">
        <ele>11</ele>
        <time>2026-08-25T11:58:37Z</time>
      </trkpt>
      <trkpt lat="47.56011" lon="-2.72054">
        <ele>11.1</ele>
        <time>2026-08-25T11:58:38Z</time>
      </trkpt>
      <trkpt lat="47.56007" lon="-2.72054">
        <ele>11.1</ele>
        <time>2026-08-25T11:58:39Z</time>
      </trkpt>
      <trkpt lat="47.56003" lon="-2.72054">
        <ele>11.1</ele>
        <time>2026-08-25T11:58:40Z</time>
      </trkpt>
      <trkpt lat="47.55998" lon="-2.72053">
        <ele>11.1</ele>
        <time>2026-08-25T11:58:41Z</time>
      </trkpt>
      <trkpt lat="47.55994" lon="-2.72053">
        <ele>11.1</ele>
        <time>2026-08-25T11:58:42Z</time>
      </trkpt>
      <trkpt lat="47.5599" lon="-2.72052">
        <ele>11.1</ele>
        <time>2026-08-25T11:58:43Z</time>
      </trkpt>
      <trkpt lat="47.55985" lon="-2.72052">
        <ele>11.1</ele>
        <time>2026-08-25T11:58:44Z</time>
      </trkpt>
      <trkpt lat="47.55981" lon="-2.72052">
        <ele>11</ele>
        <time>2026-08-25T11:58:45Z</time>
      </trkpt>
      <trkpt lat="47.55977" lon="-2.72052">
        <ele>11</ele>
        <time>2026-08-25T11:58:46Z</time>
      </trkpt>
      <trkpt lat="47.55972" lon="-2.72052">
        <ele>11</ele>
        <time>2026-08-25T11:58:47Z</time>
      </trkpt>
      <trkpt lat="47.55968" lon="-2.72051">
        <ele>10.9</ele>
        <time>2026-08-25T11:58:48Z</time>
      </trkpt>
      <trkpt lat="47.55963" lon="-2.72051">
        <ele>10.7</ele>
        <time>2026-08-25T11:58:49Z</time>
      </trkpt>
      <trkpt lat="47.55959" lon="-2.72051">
        <ele>10.6</ele>
        <time>2026-08-25T11:58:50Z</time>
      </trkpt>
      <trkpt lat="47.55954" lon="-2.72051">
        <ele>10.5</ele>
        <time>2026-08-25T11:58:51Z</time>
      </trkpt>
      <trkpt lat="47.55949" lon="-2.7205">
        <ele>10.3</ele>
        <time>2026-08-25T11:58:52Z</time>
      </trkpt>
      <trkpt lat="47.55944" lon="-2.7205">
        <ele>10.2</ele>
        <time>2026-08-25T11:58:53Z</time>
      </trkpt>
      <trkpt lat="47.55939" lon="-2.7205">
        <ele>10</ele>
        <time>2026-08-25T11:58:54Z</time>
      </trkpt>
      <trkpt lat="47.55934" lon="-2.72049">
        <ele>9.9</ele>
        <time>2026-08-25T11:58:55Z</time>
      </trkpt>
      <trkpt lat="47.55929" lon="-2.72049">
        <ele>9.8</ele>
        <time>2026-08-25T11:58:56Z</time>
      </trkpt>
      <trkpt lat="47.55924" lon="-2.72049">
        <ele>9.7</ele>
        <time>2026-08-25T11:58:57Z</time>
      </trkpt>
      <trkpt lat="47.55918" lon="-2.72048">
        <ele>9.6</ele>
        <time>2026-08-25T11:58:58Z</time>
      </trkpt>
      <trkpt lat="47.55914" lon="-2.72048">
        <ele>9.6</ele>
        <time>2026-08-25T11:58:59Z</time>
      </trkpt>
      <trkpt lat="47.55909" lon="-2.72048">
        <ele>9.7</ele>
        <time>2026-08-25T11:59:00Z</time>
      </trkpt>
      <trkpt lat="47.55904" lon="-2.72048">
        <ele>9.9</ele>
        <time>2026-08-25T11:59:01Z</time>
      </trkpt>
      <trkpt lat="47.55899" lon="-2.72047">
        <ele>10.1</ele>
        <time>2026-08-25T11:59:02Z</time>
      </trkpt>
      <trkpt lat="47.55894" lon="-2.72047">
        <ele>10.2</ele>
        <time>2026-08-25T11:59:03Z</time>
      </trkpt>
      <trkpt lat="47.5589" lon="-2.72047">
        <ele>10.3</ele>
        <time>2026-08-25T11:59:04Z</time>
      </trkpt>
      <trkpt lat="47.55885" lon="-2.72046">
        <ele>10.5</ele>
        <time>2026-08-25T11:59:05Z</time>
      </trkpt>
      <trkpt lat="47.5588" lon="-2.72046">
        <ele>10.7</ele>
        <time>2026-08-25T11:59:06Z</time>
      </trkpt>
      <trkpt lat="47.55876" lon="-2.72046">
        <ele>10.8</ele>
        <time>2026-08-25T11:59:07Z</time>
      </trkpt>
      <trkpt lat="47.55871" lon="-2.72046">
        <ele>11</ele>
        <time>2026-08-25T11:59:08Z</time>
      </trkpt>
      <trkpt lat="47.55866" lon="-2.72046">
        <ele>11.2</ele>
        <time>2026-08-25T11:59:09Z</time>
      </trkpt>
      <trkpt lat="47.55862" lon="-2.72045">
        <ele>11.3</ele>
        <time>2026-08-25T11:59:10Z</time>
      </trkpt>
      <trkpt lat="47.55858" lon="-2.72045">
        <ele>11.4</ele>
        <time>2026-08-25T11:59:11Z</time>
      </trkpt>
      <trkpt lat="47.55853" lon="-2.72045">
        <ele>11.4</ele>
        <time>2026-08-25T11:59:12Z</time>
      </trkpt>
      <trkpt lat="47.55849" lon="-2.72045">
        <ele>11.4</ele>
        <time>2026-08-25T11:59:13Z</time>
      </trkpt>
      <trkpt lat="47.55844" lon="-2.72044">
        <ele>11.4</ele>
        <time>2026-08-25T11:59:14Z</time>
      </trkpt>
      <trkpt lat="47.5584" lon="-2.72044">
        <ele>11.4</ele>
        <time>2026-08-25T11:59:15Z</time>
      </trkpt>
      <trkpt lat="47.55835" lon="-2.72044">
        <ele>11.4</ele>
        <time>2026-08-25T11:59:16Z</time>
      </trkpt>
      <trkpt lat="47.55831" lon="-2.72044">
        <ele>11.4</ele>
        <time>2026-08-25T11:59:17Z</time>
      </trkpt>
      <trkpt lat="47.55826" lon="-2.72043">
        <ele>11.5</ele>
        <time>2026-08-25T11:59:18Z</time>
      </trkpt>
      <trkpt lat="47.55821" lon="-2.72042">
        <ele>11.5</ele>
        <time>2026-08-25T11:59:19Z</time>
      </trkpt>
      <trkpt lat="47.55817" lon="-2.72042">
        <ele>11.5</ele>
        <time>2026-08-25T11:59:20Z</time>
      </trkpt>
      <trkpt lat="47.55812" lon="-2.72042">
        <ele>11.5</ele>
        <time>2026-08-25T11:59:21Z</time>
      </trkpt>
      <trkpt lat="47.55807" lon="-2.72042">
        <ele>11.5</ele>
        <time>2026-08-25T11:59:22Z</time>
      </trkpt>
      <trkpt lat="47.55803" lon="-2.72042">
        <ele>11.5</ele>
        <time>2026-08-25T11:59:23Z</time>
      </trkpt>
      <trkpt lat="47.55798" lon="-2.72042">
        <ele>11.5</ele>
        <time>2026-08-25T11:59:24Z</time>
      </trkpt>
      <trkpt lat="47.55793" lon="-2.72041">
        <ele>11.5</ele>
        <time>2026-08-25T11:59:25Z</time>
      </trkpt>
      <trkpt lat="47.55788" lon="-2.72041">
        <ele>11.5</ele>
        <time>2026-08-25T11:59:26Z</time>
      </trkpt>
      <trkpt lat="47.55784" lon="-2.7204">
        <ele>11.6</ele>
        <time>2026-08-25T11:59:27Z</time>
      </trkpt>
      <trkpt lat="47.55779" lon="-2.7204">
        <ele>11.6</ele>
        <time>2026-08-25T11:59:28Z</time>
      </trkpt>
      <trkpt lat="47.55775" lon="-2.7204">
        <ele>11.6</ele>
        <time>2026-08-25T11:59:29Z</time>
      </trkpt>
      <trkpt lat="47.5577" lon="-2.7204">
        <ele>11.6</ele>
        <time>2026-08-25T11:59:30Z</time>
      </trkpt>
      <trkpt lat="47.55766" lon="-2.7204">
        <ele>11.6</ele>
        <time>2026-08-25T11:59:31Z</time>
      </trkpt>
      <trkpt lat="47.55761" lon="-2.7204">
        <ele>11.6</ele>
        <time>2026-08-25T11:59:32Z</time>
      </trkpt>
      <trkpt lat="47.55756" lon="-2.7204">
        <ele>11.6</ele>
        <time>2026-08-25T11:59:33Z</time>
      </trkpt>
      <trkpt lat="47.55751" lon="-2.7204">
        <ele>11.6</ele>
        <time>2026-08-25T11:59:34Z</time>
      </trkpt>
      <trkpt lat="47.55747" lon="-2.7204">
        <ele>11.5</ele>
        <time>2026-08-25T11:59:35Z</time>
      </trkpt>
      <trkpt lat="47.55741" lon="-2.72039">
        <ele>11.3</ele>
        <time>2026-08-25T11:59:36Z</time>
      </trkpt>
      <trkpt lat="47.55736" lon="-2.72039">
        <ele>11.1</ele>
        <time>2026-08-25T11:59:37Z</time>
      </trkpt>
      <trkpt lat="47.55731" lon="-2.72039">
        <ele>10.9</ele>
        <time>2026-08-25T11:59:38Z</time>
      </trkpt>
      <trkpt lat="47.55726" lon="-2.72038">
        <ele>10.8</ele>
        <time>2026-08-25T11:59:39Z</time>
      </trkpt>
      <trkpt lat="47.55721" lon="-2.72038">
        <ele>10.6</ele>
        <time>2026-08-25T11:59:40Z</time>
      </trkpt>
      <trkpt lat="47.55715" lon="-2.72037">
        <ele>10.4</ele>
        <time>2026-08-25T11:59:41Z</time>
      </trkpt>
      <trkpt lat="47.55709" lon="-2.72037">
        <ele>10.2</ele>
        <time>2026-08-25T11:59:42Z</time>
      </trkpt>
      <trkpt lat="47.55703" lon="-2.72037">
        <ele>10</ele>
        <time>2026-08-25T11:59:43Z</time>
      </trkpt>
      <trkpt lat="47.55697" lon="-2.72037">
        <ele>9.8</ele>
        <time>2026-08-25T11:59:44Z</time>
      </trkpt>
      <trkpt lat="47.55691" lon="-2.72037">
        <ele>9.4</ele>
        <time>2026-08-25T11:59:45Z</time>
      </trkpt>
      <trkpt lat="47.55685" lon="-2.72036">
        <ele>9</ele>
        <time>2026-08-25T11:59:46Z</time>
      </trkpt>
      <trkpt lat="47.55678" lon="-2.72036">
        <ele>8.5</ele>
        <time>2026-08-25T11:59:47Z</time>
      </trkpt>
      <trkpt lat="47.55672" lon="-2.72035">
        <ele>8.1</ele>
        <time>2026-08-25T11:59:48Z</time>
      </trkpt>
      <trkpt lat="47.55665" lon="-2.72035">
        <ele>7.6</ele>
        <time>2026-08-25T11:59:49Z</time>
      </trkpt>
      <trkpt lat="47.55658" lon="-2.72035">
        <ele>7.2</ele>
        <time>2026-08-25T11:59:50Z</time>
      </trkpt>
      <trkpt lat="47.55651" lon="-2.72034">
        <ele>6.8</ele>
        <time>2026-08-25T11:59:51Z</time>
      </trkpt>
      <trkpt lat="47.55644" lon="-2.72033">
        <ele>6.3</ele>
        <time>2026-08-25T11:59:52Z</time>
      </trkpt>
      <trkpt lat="47.55636" lon="-2.72033">
        <ele>6</ele>
        <time>2026-08-25T11:59:53Z</time>
      </trkpt>
      <trkpt lat="47.55629" lon="-2.72032">
        <ele>5.9</ele>
        <time>2026-08-25T11:59:54Z</time>
      </trkpt>
      <trkpt lat="47.55622" lon="-2.72032">
        <ele>5.9</ele>
        <time>2026-08-25T11:59:55Z</time>
      </trkpt>
      <trkpt lat="47.55614" lon="-2.72033">
        <ele>5.8</ele>
        <time>2026-08-25T11:59:56Z</time>
      </trkpt>
      <trkpt lat="47.55607" lon="-2.72033">
        <ele>5.8</ele>
        <time>2026-08-25T11:59:57Z</time>
      </trkpt>
      <trkpt lat="47.556" lon="-2.72035">
        <ele>5.8</ele>
        <time>2026-08-25T11:59:58Z</time>
      </trkpt>
      <trkpt lat="47.55593" lon="-2.72038">
        <ele>5.9</ele>
        <time>2026-08-25T11:59:59Z</time>
      </trkpt>
      <trkpt lat="47.55587" lon="-2.72042">
        <ele>5.9</ele>
        <time>2026-08-25T12:00:00Z</time>
      </trkpt>
      <trkpt lat="47.55582" lon="-2.72046">
        <ele>6</ele>
        <time>2026-08-25T12:00:01Z</time>
      </trkpt>
      <trkpt lat="47.55577" lon="-2.72051">
        <ele>6</ele>
        <time>2026-08-25T12:00:02Z</time>
      </trkpt>
      <trkpt lat="47.55572" lon="-2.72055">
        <ele>6</ele>
        <time>2026-08-25T12:00:03Z</time>
      </trkpt>
      <trkpt lat="47.55567" lon="-2.72059">
        <ele>6.1</ele>
        <time>2026-08-25T12:00:04Z</time>
      </trkpt>
      <trkpt lat="47.55563" lon="-2.72062">
        <ele>6.2</ele>
        <time>2026-08-25T12:00:05Z</time>
      </trkpt>
      <trkpt lat="47.55559" lon="-2.72065">
        <ele>6.3</ele>
        <time>2026-08-25T12:00:06Z</time>
      </trkpt>
      <trkpt lat="47.55555" lon="-2.72067">
        <ele>6.4</ele>
        <time>2026-08-25T12:00:07Z</time>
      </trkpt>
      <trkpt lat="47.55551" lon="-2.7207">
        <ele>6.7</ele>
        <time>2026-08-25T12:00:08Z</time>
      </trkpt>
      <trkpt lat="47.55547" lon="-2.72072">
        <ele>6.8</ele>
        <time>2026-08-25T12:00:09Z</time>
      </trkpt>
      <trkpt lat="47.55543" lon="-2.72074">
        <ele>7</ele>
        <time>2026-08-25T12:00:10Z</time>
      </trkpt>
      <trkpt lat="47.55538" lon="-2.72076">
        <ele>7.1</ele>
        <time>2026-08-25T12:00:11Z</time>
      </trkpt>
      <trkpt lat="47.55533" lon="-2.72078">
        <ele>7.1</ele>
        <time>2026-08-25T12:00:12Z</time>
      </trkpt>
      <trkpt lat="47.55529" lon="-2.7208">
        <ele>7.1</ele>
        <time>2026-08-25T12:00:13Z</time>
      </trkpt>
      <trkpt lat="47.55524" lon="-2.72081">
        <ele>7.1</ele>
        <time>2026-08-25T12:00:14Z</time>
      </trkpt>
      <trkpt lat="47.55519" lon="-2.72082">
        <ele>7</ele>
        <time>2026-08-25T12:00:15Z</time>
      </trkpt>
      <trkpt lat="47.55515" lon="-2.72082">
        <ele>7</ele>
        <time>2026-08-25T12:00:16Z</time>
      </trkpt>
      <trkpt lat="47.5551" lon="-2.72083">
        <ele>7</ele>
        <time>2026-08-25T12:00:17Z</time>
      </trkpt>
      <trkpt lat="47.55505" lon="-2.72083">
        <ele>7</ele>
        <time>2026-08-25T12:00:18Z</time>
      </trkpt>
      <trkpt lat="47.55501" lon="-2.72083">
        <ele>7</ele>
        <time>2026-08-25T12:00:19Z</time>
      </trkpt>
      <trkpt lat="47.55495" lon="-2.72083">
        <ele>7</ele>
        <time>2026-08-25T12:00:20Z</time>
      </trkpt>
      <trkpt lat="47.5549" lon="-2.72082">
        <ele>7</ele>
        <time>2026-08-25T12:00:21Z</time>
      </trkpt>
      <trkpt lat="47.55485" lon="-2.72082">
        <ele>7</ele>
        <time>2026-08-25T12:00:22Z</time>
      </trkpt>
      <trkpt lat="47.5548" lon="-2.72081">
        <ele>7.1</ele>
        <time>2026-08-25T12:00:23Z</time>
      </trkpt>
      <trkpt lat="47.55475" lon="-2.7208">
        <ele>7.1</ele>
        <time>2026-08-25T12:00:24Z</time>
      </trkpt>
      <trkpt lat="47.5547" lon="-2.72079">
        <ele>7.2</ele>
        <time>2026-08-25T12:00:25Z</time>
      </trkpt>
      <trkpt lat="47.55465" lon="-2.72079">
        <ele>7.2</ele>
        <time>2026-08-25T12:00:26Z</time>
      </trkpt>
      <trkpt lat="47.5546" lon="-2.72078">
        <ele>7.2</ele>
        <time>2026-08-25T12:00:27Z</time>
      </trkpt>
      <trkpt lat="47.55455" lon="-2.72078">
        <ele>7.2</ele>
        <time>2026-08-25T12:00:28Z</time>
      </trkpt>
      <trkpt lat="47.5545" lon="-2.72077">
        <ele>7.2</ele>
        <time>2026-08-25T12:00:29Z</time>
      </trkpt>
      <trkpt lat="47.55445" lon="-2.72076">
        <ele>7.3</ele>
        <time>2026-08-25T12:00:30Z</time>
      </trkpt>
      <trkpt lat="47.5544" lon="-2.72075">
        <ele>7.4</ele>
        <time>2026-08-25T12:00:31Z</time>
      </trkpt>
      <trkpt lat="47.55435" lon="-2.72074">
        <ele>7.6</ele>
        <time>2026-08-25T12:00:32Z</time>
      </trkpt>
      <trkpt lat="47.5543" lon="-2.72074">
        <ele>7.7</ele>
        <time>2026-08-25T12:00:33Z</time>
      </trkpt>
      <trkpt lat="47.55426" lon="-2.72073">
        <ele>7.8</ele>
        <time>2026-08-25T12:00:34Z</time>
      </trkpt>
      <trkpt lat="47.55421" lon="-2.72072">
        <ele>7.9</ele>
        <time>2026-08-25T12:00:35Z</time>
      </trkpt>
      <trkpt lat="47.55416" lon="-2.72072">
        <ele>8</ele>
        <time>2026-08-25T12:00:36Z</time>
      </trkpt>
      <trkpt lat="47.55411" lon="-2.72071">
        <ele>8</ele>
        <time>2026-08-25T12:00:37Z</time>
      </trkpt>
      <trkpt lat="47.55406" lon="-2.72071">
        <ele>8</ele>
        <time>2026-08-25T12:00:38Z</time>
      </trkpt>
      <trkpt lat="47.55401" lon="-2.7207">
        <ele>8</ele>
        <time>2026-08-25T12:00:39Z</time>
      </trkpt>
      <trkpt lat="47.55396" lon="-2.72069">
        <ele>8</ele>
        <time>2026-08-25T12:00:40Z</time>
      </trkpt>
      <trkpt lat="47.55391" lon="-2.72068">
        <ele>8</ele>
        <time>2026-08-25T12:00:41Z</time>
      </trkpt>
      <trkpt lat="47.55386" lon="-2.72067">
        <ele>7.9</ele>
        <time>2026-08-25T12:00:42Z</time>
      </trkpt>
      <trkpt lat="47.55381" lon="-2.72066">
        <ele>7.8</ele>
        <time>2026-08-25T12:00:43Z</time>
      </trkpt>
      <trkpt lat="47.55376" lon="-2.72065">
        <ele>7.7</ele>
        <time>2026-08-25T12:00:44Z</time>
      </trkpt>
      <trkpt lat="47.55371" lon="-2.72064">
        <ele>7.6</ele>
        <time>2026-08-25T12:00:45Z</time>
      </trkpt>
      <trkpt lat="47.55366" lon="-2.72063">
        <ele>7.4</ele>
        <time>2026-08-25T12:00:46Z</time>
      </trkpt>
      <trkpt lat="47.55361" lon="-2.72062">
        <ele>7.2</ele>
        <time>2026-08-25T12:00:47Z</time>
      </trkpt>
      <trkpt lat="47.55355" lon="-2.7206">
        <ele>7</ele>
        <time>2026-08-25T12:00:48Z</time>
      </trkpt>
      <trkpt lat="47.55349" lon="-2.72059">
        <ele>6.7</ele>
        <time>2026-08-25T12:00:49Z</time>
      </trkpt>
      <trkpt lat="47.55344" lon="-2.72058">
        <ele>6.5</ele>
        <time>2026-08-25T12:00:50Z</time>
      </trkpt>
      <trkpt lat="47.55338" lon="-2.72056">
        <ele>6.2</ele>
        <time>2026-08-25T12:00:51Z</time>
      </trkpt>
      <trkpt lat="47.55332" lon="-2.72055">
        <ele>6</ele>
        <time>2026-08-25T12:00:52Z</time>
      </trkpt>
      <trkpt lat="47.55325" lon="-2.72053">
        <ele>5.7</ele>
        <time>2026-08-25T12:00:53Z</time>
      </trkpt>
      <trkpt lat="47.55319" lon="-2.72052">
        <ele>5.5</ele>
        <time>2026-08-25T12:00:54Z</time>
      </trkpt>
      <trkpt lat="47.55313" lon="-2.7205">
        <ele>5.3</ele>
        <time>2026-08-25T12:00:55Z</time>
      </trkpt>
      <trkpt lat="47.55307" lon="-2.72049">
        <ele>5.1</ele>
        <time>2026-08-25T12:00:56Z</time>
      </trkpt>
      <trkpt lat="47.55301" lon="-2.72047">
        <ele>4.9</ele>
        <time>2026-08-25T12:00:57Z</time>
      </trkpt>
      <trkpt lat="47.55295" lon="-2.72046">
        <ele>4.9</ele>
        <time>2026-08-25T12:00:58Z</time>
      </trkpt>
      <trkpt lat="47.55289" lon="-2.72044">
        <ele>4.8</ele>
        <time>2026-08-25T12:00:59Z</time>
      </trkpt>
      <trkpt lat="47.55283" lon="-2.72043">
        <ele>4.6</ele>
        <time>2026-08-25T12:01:00Z</time>
      </trkpt>
      <trkpt lat="47.55278" lon="-2.72041">
        <ele>4.5</ele>
        <time>2026-08-25T12:01:01Z</time>
      </trkpt>
      <trkpt lat="47.55272" lon="-2.7204">
        <ele>4.9</ele>
        <time>2026-08-25T12:01:02Z</time>
      </trkpt>
      <trkpt lat="47.55267" lon="-2.72039">
        <ele>5.3</ele>
        <time>2026-08-25T12:01:03Z</time>
      </trkpt>
      <trkpt lat="47.55262" lon="-2.72038">
        <ele>5.7</ele>
        <time>2026-08-25T12:01:04Z</time>
      </trkpt>
      <trkpt lat="47.55258" lon="-2.72037">
        <ele>6</ele>
        <time>2026-08-25T12:01:05Z</time>
      </trkpt>
      <trkpt lat="47.55253" lon="-2.72035">
        <ele>6.5</ele>
        <time>2026-08-25T12:01:06Z</time>
      </trkpt>
      <trkpt lat="47.55249" lon="-2.72033">
        <ele>6.9</ele>
        <time>2026-08-25T12:01:07Z</time>
      </trkpt>
      <trkpt lat="47.55245" lon="-2.72032">
        <ele>7.2</ele>
        <time>2026-08-25T12:01:08Z</time>
      </trkpt>
      <trkpt lat="47.5524" lon="-2.72031">
        <ele>7.6</ele>
        <time>2026-08-25T12:01:09Z</time>
      </trkpt>
      <trkpt lat="47.55236" lon="-2.7203">
        <ele>8</ele>
        <time>2026-08-25T12:01:10Z</time>
      </trkpt>
      <trkpt lat="47.55232" lon="-2.7203">
        <ele>8.3</ele>
        <time>2026-08-25T12:01:11Z</time>
      </trkpt>
      <trkpt lat="47.55227" lon="-2.7203">
        <ele>8.6</ele>
        <time>2026-08-25T12:01:12Z</time>
      </trkpt>
      <trkpt lat="47.55223" lon="-2.72031">
        <ele>8.9</ele>
        <time>2026-08-25T12:01:13Z</time>
      </trkpt>
      <trkpt lat="47.55219" lon="-2.72031">
        <ele>9.2</ele>
        <time>2026-08-25T12:01:14Z</time>
      </trkpt>
      <trkpt lat="47.55215" lon="-2.72032">
        <ele>9.5</ele>
        <time>2026-08-25T12:01:15Z</time>
      </trkpt>
      <trkpt lat="47.55211" lon="-2.72034">
        <ele>9.8</ele>
        <time>2026-08-25T12:01:16Z</time>
      </trkpt>
      <trkpt lat="47.55207" lon="-2.72035">
        <ele>10.1</ele>
        <time>2026-08-25T12:01:17Z</time>
      </trkpt>
      <trkpt lat="47.55203" lon="-2.72036">
        <ele>10.4</ele>
        <time>2026-08-25T12:01:18Z</time>
      </trkpt>
      <trkpt lat="47.55199" lon="-2.72037">
        <ele>10.7</ele>
        <time>2026-08-25T12:01:19Z</time>
      </trkpt>
      <trkpt lat="47.55195" lon="-2.72037">
        <ele>11</ele>
        <time>2026-08-25T12:01:20Z</time>
      </trkpt>
      <trkpt lat="47.55191" lon="-2.72036">
        <ele>11.1</ele>
        <time>2026-08-25T12:01:21Z</time>
      </trkpt>
      <trkpt lat="47.55188" lon="-2.72036">
        <ele>11.2</ele>
        <time>2026-08-25T12:01:22Z</time>
      </trkpt>
      <trkpt lat="47.55184" lon="-2.72036">
        <ele>11.4</ele>
        <time>2026-08-25T12:01:23Z</time>
      </trkpt>
      <trkpt lat="47.5518" lon="-2.72037">
        <ele>11.5</ele>
        <time>2026-08-25T12:01:24Z</time>
      </trkpt>
      <trkpt lat="47.55176" lon="-2.72038">
        <ele>11.7</ele>
        <time>2026-08-25T12:01:25Z</time>
      </trkpt>
      <trkpt lat="47.55172" lon="-2.72039">
        <ele>11.8</ele>
        <time>2026-08-25T12:01:26Z</time>
      </trkpt>
      <trkpt lat="47.55168" lon="-2.7204">
        <ele>12</ele>
        <time>2026-08-25T12:01:27Z</time>
      </trkpt>
      <trkpt lat="47.55164" lon="-2.72041">
        <ele>12</ele>
        <time>2026-08-25T12:01:28Z</time>
      </trkpt>
      <trkpt lat="47.55159" lon="-2.72042">
        <ele>12.1</ele>
        <time>2026-08-25T12:01:29Z</time>
      </trkpt>
      <trkpt lat="47.55155" lon="-2.72043">
        <ele>12.2</ele>
        <time>2026-08-25T12:01:30Z</time>
      </trkpt>
      <trkpt lat="47.55151" lon="-2.72044">
        <ele>12.3</ele>
        <time>2026-08-25T12:01:31Z</time>
      </trkpt>
      <trkpt lat="47.55147" lon="-2.72045">
        <ele>12.4</ele>
        <time>2026-08-25T12:01:32Z</time>
      </trkpt>
      <trkpt lat="47.55143" lon="-2.72046">
        <ele>12.6</ele>
        <time>2026-08-25T12:01:33Z</time>
      </trkpt>
      <trkpt lat="47.55138" lon="-2.72047">
        <ele>12.7</ele>
        <time>2026-08-25T12:01:34Z</time>
      </trkpt>
      <trkpt lat="47.55134" lon="-2.72048">
        <ele>12.8</ele>
        <time>2026-08-25T12:01:35Z</time>
      </trkpt>
      <trkpt lat="47.5513" lon="-2.72049">
        <ele>12.8</ele>
        <time>2026-08-25T12:01:36Z</time>
      </trkpt>
      <trkpt lat="47.55125" lon="-2.7205">
        <ele>12.9</ele>
        <time>2026-08-25T12:01:37Z</time>
      </trkpt>
      <trkpt lat="47.55121" lon="-2.7205">
        <ele>12.9</ele>
        <time>2026-08-25T12:01:38Z</time>
      </trkpt>
      <trkpt lat="47.55116" lon="-2.72051">
        <ele>13</ele>
        <time>2026-08-25T12:01:39Z</time>
      </trkpt>
      <trkpt lat="47.55112" lon="-2.72052">
        <ele>13</ele>
        <time>2026-08-25T12:01:40Z</time>
      </trkpt>
      <trkpt lat="47.55107" lon="-2.72053">
        <ele>12.9</ele>
        <time>2026-08-25T12:01:41Z</time>
      </trkpt>
      <trkpt lat="47.55103" lon="-2.72053">
        <ele>12.7</ele>
        <time>2026-08-25T12:01:42Z</time>
      </trkpt>
      <trkpt lat="47.55098" lon="-2.72054">
        <ele>12.6</ele>
        <time>2026-08-25T12:01:43Z</time>
      </trkpt>
      <trkpt lat="47.55093" lon="-2.72054">
        <ele>12.4</ele>
        <time>2026-08-25T12:01:44Z</time>
      </trkpt>
      <trkpt lat="47.55089" lon="-2.72054">
        <ele>12.2</ele>
        <time>2026-08-25T12:01:45Z</time>
      </trkpt>
      <trkpt lat="47.55084" lon="-2.72055">
        <ele>12</ele>
        <time>2026-08-25T12:01:46Z</time>
      </trkpt>
      <trkpt lat="47.55079" lon="-2.72055">
        <ele>12.2</ele>
        <time>2026-08-25T12:01:47Z</time>
      </trkpt>
      <trkpt lat="47.55074" lon="-2.72055">
        <ele>12.3</ele>
        <time>2026-08-25T12:01:48Z</time>
      </trkpt>
      <trkpt lat="47.55069" lon="-2.72056">
        <ele>12.5</ele>
        <time>2026-08-25T12:01:49Z</time>
      </trkpt>
      <trkpt lat="47.55064" lon="-2.72056">
        <ele>12.7</ele>
        <time>2026-08-25T12:01:50Z</time>
      </trkpt>
      <trkpt lat="47.5506" lon="-2.72057">
        <ele>12.8</ele>
        <time>2026-08-25T12:01:51Z</time>
      </trkpt>
      <trkpt lat="47.55055" lon="-2.72058">
        <ele>12.9</ele>
        <time>2026-08-25T12:01:52Z</time>
      </trkpt>
      <trkpt lat="47.5505" lon="-2.72059">
        <ele>12.7</ele>
        <time>2026-08-25T12:01:53Z</time>
      </trkpt>
      <trkpt lat="47.55045" lon="-2.72061">
        <ele>12.5</ele>
        <time>2026-08-25T12:01:54Z</time>
      </trkpt>
      <trkpt lat="47.55041" lon="-2.72062">
        <ele>12.4</ele>
        <time>2026-08-25T12:01:55Z</time>
      </trkpt>
      <trkpt lat="47.55036" lon="-2.72063">
        <ele>12.2</ele>
        <time>2026-08-25T12:01:56Z</time>
      </trkpt>
      <trkpt lat="47.55031" lon="-2.72064">
        <ele>12.1</ele>
        <time>2026-08-25T12:01:57Z</time>
      </trkpt>
      <trkpt lat="47.55027" lon="-2.72065">
        <ele>12</ele>
        <time>2026-08-25T12:01:58Z</time>
      </trkpt>
      <trkpt lat="47.55022" lon="-2.72067">
        <ele>12.1</ele>
        <time>2026-08-25T12:01:59Z</time>
      </trkpt>
      <trkpt lat="47.55017" lon="-2.72068">
        <ele>12.2</ele>
        <time>2026-08-25T12:02:00Z</time>
      </trkpt>
      <trkpt lat="47.55012" lon="-2.72069">
        <ele>12.3</ele>
        <time>2026-08-25T12:02:01Z</time>
      </trkpt>
      <trkpt lat="47.55008" lon="-2.72071">
        <ele>12.3</ele>
        <time>2026-08-25T12:02:02Z</time>
      </trkpt>
      <trkpt lat="47.55003" lon="-2.72073">
        <ele>12.3</ele>
        <time>2026-08-25T12:02:03Z</time>
      </trkpt>
      <trkpt lat="47.54998" lon="-2.72074">
        <ele>12.3</ele>
        <time>2026-08-25T12:02:04Z</time>
      </trkpt>
      <trkpt lat="47.54994" lon="-2.72076">
        <ele>12.3</ele>
        <time>2026-08-25T12:02:05Z</time>
      </trkpt>
      <trkpt lat="47.54989" lon="-2.72077">
        <ele>12.2</ele>
        <time>2026-08-25T12:02:06Z</time>
      </trkpt>
      <trkpt lat="47.54984" lon="-2.72078">
        <ele>12.2</ele>
        <time>2026-08-25T12:02:07Z</time>
      </trkpt>
      <trkpt lat="47.5498" lon="-2.72079">
        <ele>12.2</ele>
        <time>2026-08-25T12:02:08Z</time>
      </trkpt>
      <trkpt lat="47.54975" lon="-2.7208">
        <ele>12.1</ele>
        <time>2026-08-25T12:02:09Z</time>
      </trkpt>
      <trkpt lat="47.5497" lon="-2.7208">
        <ele>12</ele>
        <time>2026-08-25T12:02:10Z</time>
      </trkpt>
      <trkpt lat="47.54965" lon="-2.72081">
        <ele>11.8</ele>
        <time>2026-08-25T12:02:11Z</time>
      </trkpt>
      <trkpt lat="47.5496" lon="-2.72081">
        <ele>11.7</ele>
        <time>2026-08-25T12:02:12Z</time>
      </trkpt>
      <trkpt lat="47.54955" lon="-2.72081">
        <ele>11.5</ele>
        <time>2026-08-25T12:02:13Z</time>
      </trkpt>
      <trkpt lat="47.5495" lon="-2.7208">
        <ele>11.4</ele>
        <time>2026-08-25T12:02:14Z</time>
      </trkpt>
      <trkpt lat="47.54945" lon="-2.7208">
        <ele>11.3</ele>
        <time>2026-08-25T12:02:15Z</time>
      </trkpt>
      <trkpt lat="47.5494" lon="-2.72079">
        <ele>11.3</ele>
        <time>2026-08-25T12:02:16Z</time>
      </trkpt>
      <trkpt lat="47.54934" lon="-2.72078">
        <ele>11.3</ele>
        <time>2026-08-25T12:02:17Z</time>
      </trkpt>
      <trkpt lat="47.54929" lon="-2.72078">
        <ele>11.3</ele>
        <time>2026-08-25T12:02:18Z</time>
      </trkpt>
      <trkpt lat="47.54923" lon="-2.72077">
        <ele>11.3</ele>
        <time>2026-08-25T12:02:19Z</time>
      </trkpt>
      <trkpt lat="47.54918" lon="-2.72076">
        <ele>11.3</ele>
        <time>2026-08-25T12:02:20Z</time>
      </trkpt>
      <trkpt lat="47.54912" lon="-2.72076">
        <ele>11.2</ele>
        <time>2026-08-25T12:02:21Z</time>
      </trkpt>
      <trkpt lat="47.54907" lon="-2.72076">
        <ele>11.2</ele>
        <time>2026-08-25T12:02:22Z</time>
      </trkpt>
      <trkpt lat="47.54902" lon="-2.72075">
        <ele>11.1</ele>
        <time>2026-08-25T12:02:23Z</time>
      </trkpt>
      <trkpt lat="47.54897" lon="-2.72076">
        <ele>11.1</ele>
        <time>2026-08-25T12:02:24Z</time>
      </trkpt>
      <trkpt lat="47.54892" lon="-2.72076">
        <ele>11</ele>
        <time>2026-08-25T12:02:25Z</time>
      </trkpt>
      <trkpt lat="47.54887" lon="-2.72077">
        <ele>11.1</ele>
        <time>2026-08-25T12:02:26Z</time>
      </trkpt>
      <trkpt lat="47.54882" lon="-2.72079">
        <ele>11.2</ele>
        <time>2026-08-25T12:02:27Z</time>
      </trkpt>
      <trkpt lat="47.54877" lon="-2.7208">
        <ele>11.4</ele>
        <time>2026-08-25T12:02:28Z</time>
      </trkpt>
      <trkpt lat="47.54873" lon="-2.72082">
        <ele>11.5</ele>
        <time>2026-08-25T12:02:29Z</time>
      </trkpt>
      <trkpt lat="47.54868" lon="-2.72083">
        <ele>11.7</ele>
        <time>2026-08-25T12:02:30Z</time>
      </trkpt>
      <trkpt lat="47.54864" lon="-2.72085">
        <ele>11.8</ele>
        <time>2026-08-25T12:02:31Z</time>
      </trkpt>
      <trkpt lat="47.54859" lon="-2.72087">
        <ele>11.9</ele>
        <time>2026-08-25T12:02:32Z</time>
      </trkpt>
      <trkpt lat="47.54855" lon="-2.7209">
        <ele>12</ele>
        <time>2026-08-25T12:02:33Z</time>
      </trkpt>
      <trkpt lat="47.54851" lon="-2.72093">
        <ele>12</ele>
        <time>2026-08-25T12:02:34Z</time>
      </trkpt>
      <trkpt lat="47.54847" lon="-2.72097">
        <ele>12</ele>
        <time>2026-08-25T12:02:35Z</time>
      </trkpt>
      <trkpt lat="47.54843" lon="-2.72101">
        <ele>12</ele>
        <time>2026-08-25T12:02:36Z</time>
      </trkpt>
      <trkpt lat="47.54838" lon="-2.72105">
        <ele>12.1</ele>
        <time>2026-08-25T12:02:37Z</time>
      </trkpt>
      <trkpt lat="47.54834" lon="-2.72108">
        <ele>12.1</ele>
        <time>2026-08-25T12:02:38Z</time>
      </trkpt>
      <trkpt lat="47.5483" lon="-2.72111">
        <ele>12.1</ele>
        <time>2026-08-25T12:02:39Z</time>
      </trkpt>
      <trkpt lat="47.54825" lon="-2.72114">
        <ele>12.2</ele>
        <time>2026-08-25T12:02:40Z</time>
      </trkpt>
      <trkpt lat="47.54821" lon="-2.72117">
        <ele>12.2</ele>
        <time>2026-08-25T12:02:41Z</time>
      </trkpt>
      <trkpt lat="47.54816" lon="-2.7212">
        <ele>12.3</ele>
        <time>2026-08-25T12:02:42Z</time>
      </trkpt>
      <trkpt lat="47.54812" lon="-2.72124">
        <ele>12.3</ele>
        <time>2026-08-25T12:02:43Z</time>
      </trkpt>
      <trkpt lat="47.54808" lon="-2.72126">
        <ele>12.4</ele>
        <time>2026-08-25T12:02:44Z</time>
      </trkpt>
      <trkpt lat="47.54803" lon="-2.72129">
        <ele>12.5</ele>
        <time>2026-08-25T12:02:45Z</time>
      </trkpt>
      <trkpt lat="47.54799" lon="-2.72132">
        <ele>12.7</ele>
        <time>2026-08-25T12:02:46Z</time>
      </trkpt>
      <trkpt lat="47.54795" lon="-2.72135">
        <ele>12.8</ele>
        <time>2026-08-25T12:02:47Z</time>
      </trkpt>
      <trkpt lat="47.54791" lon="-2.72138">
        <ele>13.1</ele>
        <time>2026-08-25T12:02:48Z</time>
      </trkpt>
      <trkpt lat="47.54787" lon="-2.72141">
        <ele>13.3</ele>
        <time>2026-08-25T12:02:49Z</time>
      </trkpt>
      <trkpt lat="47.54783" lon="-2.72144">
        <ele>13.5</ele>
        <time>2026-08-25T12:02:50Z</time>
      </trkpt>
      <trkpt lat="47.5478" lon="-2.72146">
        <ele>13.6</ele>
        <time>2026-08-25T12:02:51Z</time>
      </trkpt>
      <trkpt lat="47.54776" lon="-2.72149">
        <ele>13.7</ele>
        <time>2026-08-25T12:02:52Z</time>
      </trkpt>
      <trkpt lat="47.54772" lon="-2.72151">
        <ele>13.9</ele>
        <time>2026-08-25T12:02:53Z</time>
      </trkpt>
      <trkpt lat="47.54769" lon="-2.72154">
        <ele>13.9</ele>
        <time>2026-08-25T12:02:54Z</time>
      </trkpt>
      <trkpt lat="47.54765" lon="-2.72157">
        <ele>14.1</ele>
        <time>2026-08-25T12:02:55Z</time>
      </trkpt>
      <trkpt lat="47.54762" lon="-2.7216">
        <ele>14.2</ele>
        <time>2026-08-25T12:02:56Z</time>
      </trkpt>
      <trkpt lat="47.54759" lon="-2.72163">
        <ele>14.4</ele>
        <time>2026-08-25T12:02:57Z</time>
      </trkpt>
      <trkpt lat="47.54756" lon="-2.72166">
        <ele>14.6</ele>
        <time>2026-08-25T12:02:58Z</time>
      </trkpt>
      <trkpt lat="47.54752" lon="-2.72168">
        <ele>14.9</ele>
        <time>2026-08-25T12:02:59Z</time>
      </trkpt>
      <trkpt lat="47.54749" lon="-2.72171">
        <ele>15</ele>
        <time>2026-08-25T12:03:00Z</time>
      </trkpt>
      <trkpt lat="47.54746" lon="-2.72174">
        <ele>15.1</ele>
        <time>2026-08-25T12:03:01Z</time>
      </trkpt>
      <trkpt lat="47.54742" lon="-2.72177">
        <ele>15.3</ele>
        <time>2026-08-25T12:03:02Z</time>
      </trkpt>
      <trkpt lat="47.54739" lon="-2.7218">
        <ele>15.4</ele>
        <time>2026-08-25T12:03:03Z</time>
      </trkpt>
      <trkpt lat="47.54735" lon="-2.72183">
        <ele>15.5</ele>
        <time>2026-08-25T12:03:04Z</time>
      </trkpt>
      <trkpt lat="47.54732" lon="-2.72186">
        <ele>15.6</ele>
        <time>2026-08-25T12:03:05Z</time>
      </trkpt>
      <trkpt lat="47.54729" lon="-2.72189">
        <ele>15.8</ele>
        <time>2026-08-25T12:03:06Z</time>
      </trkpt>
      <trkpt lat="47.54725" lon="-2.72192">
        <ele>15.9</ele>
        <time>2026-08-25T12:03:07Z</time>
      </trkpt>
      <trkpt lat="47.54722" lon="-2.72195">
        <ele>16</ele>
        <time>2026-08-25T12:03:08Z</time>
      </trkpt>
      <trkpt lat="47.54718" lon="-2.72199">
        <ele>16</ele>
        <time>2026-08-25T12:03:09Z</time>
      </trkpt>
      <trkpt lat="47.54715" lon="-2.72201">
        <ele>16</ele>
        <time>2026-08-25T12:03:10Z</time>
      </trkpt>
      <trkpt lat="47.54711" lon="-2.72204">
        <ele>16</ele>
        <time>2026-08-25T12:03:11Z</time>
      </trkpt>
      <trkpt lat="47.54708" lon="-2.72207">
        <ele>16</ele>
        <time>2026-08-25T12:03:12Z</time>
      </trkpt>
      <trkpt lat="47.54705" lon="-2.7221">
        <ele>16</ele>
        <time>2026-08-25T12:03:13Z</time>
      </trkpt>
      <trkpt lat="47.54702" lon="-2.72213">
        <ele>16</ele>
        <time>2026-08-25T12:03:14Z</time>
      </trkpt>
      <trkpt lat="47.54699" lon="-2.72217">
        <ele>16</ele>
        <time>2026-08-25T12:03:15Z</time>
      </trkpt>
      <trkpt lat="47.54695" lon="-2.7222">
        <ele>16</ele>
        <time>2026-08-25T12:03:16Z</time>
      </trkpt>
      <trkpt lat="47.54692" lon="-2.72224">
        <ele>16.1</ele>
        <time>2026-08-25T12:03:17Z</time>
      </trkpt>
      <trkpt lat="47.5469" lon="-2.72227">
        <ele>16.3</ele>
        <time>2026-08-25T12:03:18Z</time>
      </trkpt>
      <trkpt lat="47.54687" lon="-2.72231">
        <ele>16.5</ele>
        <time>2026-08-25T12:03:19Z</time>
      </trkpt>
      <trkpt lat="47.54684" lon="-2.72235">
        <ele>16.7</ele>
        <time>2026-08-25T12:03:20Z</time>
      </trkpt>
      <trkpt lat="47.54682" lon="-2.7224">
        <ele>16.8</ele>
        <time>2026-08-25T12:03:21Z</time>
      </trkpt>
      <trkpt lat="47.54679" lon="-2.72244">
        <ele>16.9</ele>
        <time>2026-08-25T12:03:22Z</time>
      </trkpt>
      <trkpt lat="47.54676" lon="-2.72247">
        <ele>17</ele>
        <time>2026-08-25T12:03:23Z</time>
      </trkpt>
      <trkpt lat="47.54674" lon="-2.72252">
        <ele>17.1</ele>
        <time>2026-08-25T12:03:24Z</time>
      </trkpt>
      <trkpt lat="47.54672" lon="-2.72256">
        <ele>17.2</ele>
        <time>2026-08-25T12:03:25Z</time>
      </trkpt>
      <trkpt lat="47.54669" lon="-2.72261">
        <ele>17.4</ele>
        <time>2026-08-25T12:03:26Z</time>
      </trkpt>
      <trkpt lat="47.54667" lon="-2.72266">
        <ele>17.6</ele>
        <time>2026-08-25T12:03:27Z</time>
      </trkpt>
      <trkpt lat="47.54665" lon="-2.72271">
        <ele>17.8</ele>
        <time>2026-08-25T12:03:28Z</time>
      </trkpt>
      <trkpt lat="47.54663" lon="-2.72276">
        <ele>17.9</ele>
        <time>2026-08-25T12:03:29Z</time>
      </trkpt>
      <trkpt lat="47.54661" lon="-2.72281">
        <ele>18</ele>
        <time>2026-08-25T12:03:30Z</time>
      </trkpt>
      <trkpt lat="47.54659" lon="-2.72287">
        <ele>18</ele>
        <time>2026-08-25T12:03:31Z</time>
      </trkpt>
      <trkpt lat="47.54658" lon="-2.72292">
        <ele>18</ele>
        <time>2026-08-25T12:03:32Z</time>
      </trkpt>
      <trkpt lat="47.54657" lon="-2.72297">
        <ele>18</ele>
        <time>2026-08-25T12:03:33Z</time>
      </trkpt>
      <trkpt lat="47.54657" lon="-2.72303">
        <ele>18</ele>
        <time>2026-08-25T12:03:34Z</time>
      </trkpt>
      <trkpt lat="47.54658" lon="-2.72308">
        <ele>18</ele>
        <time>2026-08-25T12:03:35Z</time>
      </trkpt>
      <trkpt lat="47.54659" lon="-2.72314">
        <ele>18.1</ele>
        <time>2026-08-25T12:03:36Z</time>
      </trkpt>
      <trkpt lat="47.54661" lon="-2.72319">
        <ele>18.1</ele>
        <time>2026-08-25T12:03:37Z</time>
      </trkpt>
      <trkpt lat="47.54663" lon="-2.72324">
        <ele>18.1</ele>
        <time>2026-08-25T12:03:38Z</time>
      </trkpt>
      <trkpt lat="47.54664" lon="-2.7233">
        <ele>18.1</ele>
        <time>2026-08-25T12:03:39Z</time>
      </trkpt>
      <trkpt lat="47.54665" lon="-2.72335">
        <ele>18.1</ele>
        <time>2026-08-25T12:03:40Z</time>
      </trkpt>
      <trkpt lat="47.54667" lon="-2.72341">
        <ele>18.3</ele>
        <time>2026-08-25T12:03:41Z</time>
      </trkpt>
      <trkpt lat="47.54668" lon="-2.72346">
        <ele>18.4</ele>
        <time>2026-08-25T12:03:42Z</time>
      </trkpt>
      <trkpt lat="47.54669" lon="-2.72352">
        <ele>18.6</ele>
        <time>2026-08-25T12:03:43Z</time>
      </trkpt>
      <trkpt lat="47.5467" lon="-2.72357">
        <ele>18.7</ele>
        <time>2026-08-25T12:03:44Z</time>
      </trkpt>
      <trkpt lat="47.54671" lon="-2.72363">
        <ele>18.8</ele>
        <time>2026-08-25T12:03:45Z</time>
      </trkpt>
      <trkpt lat="47.54673" lon="-2.72368">
        <ele>18.8</ele>
        <time>2026-08-25T12:03:46Z</time>
      </trkpt>
      <trkpt lat="47.54674" lon="-2.72373">
        <ele>18.7</ele>
        <time>2026-08-25T12:03:47Z</time>
      </trkpt>
      <trkpt lat="47.54676" lon="-2.72379">
        <ele>18.7</ele>
        <time>2026-08-25T12:03:48Z</time>
      </trkpt>
      <trkpt lat="47.54678" lon="-2.72384">
        <ele>18.6</ele>
        <time>2026-08-25T12:03:49Z</time>
      </trkpt>
      <trkpt lat="47.5468" lon="-2.72389">
        <ele>18.5</ele>
        <time>2026-08-25T12:03:50Z</time>
      </trkpt>
      <trkpt lat="47.54682" lon="-2.72395">
        <ele>18.6</ele>
        <time>2026-08-25T12:03:51Z</time>
      </trkpt>
      <trkpt lat="47.54684" lon="-2.724">
        <ele>18.6</ele>
        <time>2026-08-25T12:03:52Z</time>
      </trkpt>
      <trkpt lat="47.54686" lon="-2.72406">
        <ele>18.7</ele>
        <time>2026-08-25T12:03:53Z</time>
      </trkpt>
      <trkpt lat="47.54688" lon="-2.72411">
        <ele>18.8</ele>
        <time>2026-08-25T12:03:54Z</time>
      </trkpt>
      <trkpt lat="47.5469" lon="-2.72416">
        <ele>19</ele>
        <time>2026-08-25T12:03:55Z</time>
      </trkpt>
      <trkpt lat="47.54692" lon="-2.72422">
        <ele>19</ele>
        <time>2026-08-25T12:03:56Z</time>
      </trkpt>
      <trkpt lat="47.54694" lon="-2.72428">
        <ele>19</ele>
        <time>2026-08-25T12:03:57Z</time>
      </trkpt>
      <trkpt lat="47.54696" lon="-2.72434">
        <ele>18.9</ele>
        <time>2026-08-25T12:03:58Z</time>
      </trkpt>
      <trkpt lat="47.54697" lon="-2.72439">
        <ele>18.8</ele>
        <time>2026-08-25T12:03:59Z</time>
      </trkpt>
      <trkpt lat="47.54699" lon="-2.72446">
        <ele>18.6</ele>
        <time>2026-08-25T12:04:00Z</time>
      </trkpt>
      <trkpt lat="47.54699" lon="-2.72452">
        <ele>18.2</ele>
        <time>2026-08-25T12:04:01Z</time>
      </trkpt>
      <trkpt lat="47.54697" lon="-2.72457">
        <ele>18</ele>
        <time>2026-08-25T12:04:02Z</time>
      </trkpt>
      <trkpt lat="47.54694" lon="-2.72461">
        <ele>17.8</ele>
        <time>2026-08-25T12:04:03Z</time>
      </trkpt>
      <trkpt lat="47.5469" lon="-2.72464">
        <ele>18</ele>
        <time>2026-08-25T12:04:04Z</time>
      </trkpt>
      <trkpt lat="47.54686" lon="-2.72466">
        <ele>18.2</ele>
        <time>2026-08-25T12:04:05Z</time>
      </trkpt>
      <trkpt lat="47.54683" lon="-2.72469">
        <ele>18.4</ele>
        <time>2026-08-25T12:04:06Z</time>
      </trkpt>
      <trkpt lat="47.54679" lon="-2.72472">
        <ele>18.7</ele>
        <time>2026-08-25T12:04:07Z</time>
      </trkpt>
      <trkpt lat="47.54676" lon="-2.72475">
        <ele>19</ele>
        <time>2026-08-25T12:04:08Z</time>
      </trkpt>
      <trkpt lat="47.54673" lon="-2.72479">
        <ele>19.3</ele>
        <time>2026-08-25T12:04:09Z</time>
      </trkpt>
      <trkpt lat="47.5467" lon="-2.72483">
        <ele>19.6</ele>
        <time>2026-08-25T12:04:10Z</time>
      </trkpt>
      <trkpt lat="47.54667" lon="-2.72487">
        <ele>20</ele>
        <time>2026-08-25T12:04:11Z</time>
      </trkpt>
      <trkpt lat="47.54664" lon="-2.72491">
        <ele>20</ele>
        <time>2026-08-25T12:04:12Z</time>
      </trkpt>
      <trkpt lat="47.54661" lon="-2.72496">
        <ele>20</ele>
        <time>2026-08-25T12:04:13Z</time>
      </trkpt>
      <trkpt lat="47.54659" lon="-2.72501">
        <ele>20</ele>
        <time>2026-08-25T12:04:14Z</time>
      </trkpt>
      <trkpt lat="47.54657" lon="-2.72505">
        <ele>19.9</ele>
        <time>2026-08-25T12:04:15Z</time>
      </trkpt>
      <trkpt lat="47.54654" lon="-2.7251">
        <ele>19.8</ele>
        <time>2026-08-25T12:04:16Z</time>
      </trkpt>
      <trkpt lat="47.54651" lon="-2.72514">
        <ele>19.8</ele>
        <time>2026-08-25T12:04:17Z</time>
      </trkpt>
      <trkpt lat="47.54648" lon="-2.72519">
        <ele>19.8</ele>
        <time>2026-08-25T12:04:18Z</time>
      </trkpt>
      <trkpt lat="47.54645" lon="-2.72523">
        <ele>19.8</ele>
        <time>2026-08-25T12:04:19Z</time>
      </trkpt>
      <trkpt lat="47.54643" lon="-2.72528">
        <ele>19.8</ele>
        <time>2026-08-25T12:04:20Z</time>
      </trkpt>
      <trkpt lat="47.5464" lon="-2.72533">
        <ele>19.8</ele>
        <time>2026-08-25T12:04:21Z</time>
      </trkpt>
      <trkpt lat="47.54637" lon="-2.72537">
        <ele>19.7</ele>
        <time>2026-08-25T12:04:22Z</time>
      </trkpt>
      <trkpt lat="47.54633" lon="-2.7254">
        <ele>19.7</ele>
        <time>2026-08-25T12:04:23Z</time>
      </trkpt>
      <trkpt lat="47.54629" lon="-2.72543">
        <ele>19.6</ele>
        <time>2026-08-25T12:04:24Z</time>
      </trkpt>
      <trkpt lat="47.54626" lon="-2.72547">
        <ele>19.6</ele>
        <time>2026-08-25T12:04:25Z</time>
      </trkpt>
      <trkpt lat="47.54623" lon="-2.72551">
        <ele>19.6</ele>
        <time>2026-08-25T12:04:26Z</time>
      </trkpt>
      <trkpt lat="47.5462" lon="-2.72555">
        <ele>19.7</ele>
        <time>2026-08-25T12:04:27Z</time>
      </trkpt>
      <trkpt lat="47.54617" lon="-2.72561">
        <ele>19.6</ele>
        <time>2026-08-25T12:04:28Z</time>
      </trkpt>
      <trkpt lat="47.54614" lon="-2.72567">
        <ele>19.5</ele>
        <time>2026-08-25T12:04:29Z</time>
      </trkpt>
      <trkpt lat="47.54611" lon="-2.72572">
        <ele>19.4</ele>
        <time>2026-08-25T12:04:30Z</time>
      </trkpt>
      <trkpt lat="47.54608" lon="-2.72578">
        <ele>19.2</ele>
        <time>2026-08-25T12:04:31Z</time>
      </trkpt>
      <trkpt lat="47.54605" lon="-2.72584">
        <ele>19</ele>
        <time>2026-08-25T12:04:32Z</time>
      </trkpt>
      <trkpt lat="47.54601" lon="-2.72589">
        <ele>18.8</ele>
        <time>2026-08-25T12:04:33Z</time>
      </trkpt>
      <trkpt lat="47.54597" lon="-2.72594">
        <ele>18.6</ele>
        <time>2026-08-25T12:04:34Z</time>
      </trkpt>
      <trkpt lat="47.54593" lon="-2.72599">
        <ele>18.4</ele>
        <time>2026-08-25T12:04:35Z</time>
      </trkpt>
      <trkpt lat="47.54588" lon="-2.72604">
        <ele>18.3</ele>
        <time>2026-08-25T12:04:36Z</time>
      </trkpt>
      <trkpt lat="47.54585" lon="-2.72609">
        <ele>18.1</ele>
        <time>2026-08-25T12:04:37Z</time>
      </trkpt>
      <trkpt lat="47.54581" lon="-2.72615">
        <ele>17.8</ele>
        <time>2026-08-25T12:04:38Z</time>
      </trkpt>
      <trkpt lat="47.54577" lon="-2.7262">
        <ele>17.5</ele>
        <time>2026-08-25T12:04:39Z</time>
      </trkpt>
      <trkpt lat="47.54572" lon="-2.72624">
        <ele>17.1</ele>
        <time>2026-08-25T12:04:40Z</time>
      </trkpt>
      <trkpt lat="47.54567" lon="-2.72629">
        <ele>16.8</ele>
        <time>2026-08-25T12:04:41Z</time>
      </trkpt>
      <trkpt lat="47.54562" lon="-2.72633">
        <ele>16.4</ele>
        <time>2026-08-25T12:04:42Z</time>
      </trkpt>
      <trkpt lat="47.54556" lon="-2.72639">
        <ele>16</ele>
        <time>2026-08-25T12:04:43Z</time>
      </trkpt>
      <trkpt lat="47.5455" lon="-2.72644">
        <ele>15.7</ele>
        <time>2026-08-25T12:04:44Z</time>
      </trkpt>
      <trkpt lat="47.54544" lon="-2.7265">
        <ele>15.4</ele>
        <time>2026-08-25T12:04:45Z</time>
      </trkpt>
      <trkpt lat="47.54539" lon="-2.72656">
        <ele>15.2</ele>
        <time>2026-08-25T12:04:46Z</time>
      </trkpt>
      <trkpt lat="47.54533" lon="-2.72662">
        <ele>15</ele>
        <time>2026-08-25T12:04:47Z</time>
      </trkpt>
      <trkpt lat="47.54527" lon="-2.72667">
        <ele>15</ele>
        <time>2026-08-25T12:04:48Z</time>
      </trkpt>
      <trkpt lat="47.54521" lon="-2.72673">
        <ele>14.8</ele>
        <time>2026-08-25T12:04:49Z</time>
      </trkpt>
      <trkpt lat="47.54516" lon="-2.72679">
        <ele>14.7</ele>
        <time>2026-08-25T12:04:50Z</time>
      </trkpt>
      <trkpt lat="47.54511" lon="-2.72685">
        <ele>14.7</ele>
        <time>2026-08-25T12:04:51Z</time>
      </trkpt>
      <trkpt lat="47.54507" lon="-2.72691">
        <ele>14.8</ele>
        <time>2026-08-25T12:04:52Z</time>
      </trkpt>
      <trkpt lat="47.54503" lon="-2.72698">
        <ele>14.8</ele>
        <time>2026-08-25T12:04:53Z</time>
      </trkpt>
      <trkpt lat="47.54499" lon="-2.72704">
        <ele>14.7</ele>
        <time>2026-08-25T12:04:54Z</time>
      </trkpt>
      <trkpt lat="47.54496" lon="-2.72711">
        <ele>14.5</ele>
        <time>2026-08-25T12:04:55Z</time>
      </trkpt>
      <trkpt lat="47.54493" lon="-2.72718">
        <ele>14.4</ele>
        <time>2026-08-25T12:04:56Z</time>
      </trkpt>
      <trkpt lat="47.5449" lon="-2.72726">
        <ele>14.4</ele>
        <time>2026-08-25T12:04:57Z</time>
      </trkpt>
      <trkpt lat="47.54487" lon="-2.72733">
        <ele>14.5</ele>
        <time>2026-08-25T12:04:58Z</time>
      </trkpt>
      <trkpt lat="47.54485" lon="-2.72741">
        <ele>14.5</ele>
        <time>2026-08-25T12:04:59Z</time>
      </trkpt>
      <trkpt lat="47.54482" lon="-2.72748">
        <ele>14.6</ele>
        <time>2026-08-25T12:05:00Z</time>
      </trkpt>
      <trkpt lat="47.5448" lon="-2.72755">
        <ele>14.5</ele>
        <time>2026-08-25T12:05:01Z</time>
      </trkpt>
      <trkpt lat="47.54477" lon="-2.72762">
        <ele>14.4</ele>
        <time>2026-08-25T12:05:02Z</time>
      </trkpt>
      <trkpt lat="47.54474" lon="-2.7277">
        <ele>14.2</ele>
        <time>2026-08-25T12:05:03Z</time>
      </trkpt>
      <trkpt lat="47.54471" lon="-2.72776">
        <ele>14.1</ele>
        <time>2026-08-25T12:05:04Z</time>
      </trkpt>
      <trkpt lat="47.54468" lon="-2.72783">
        <ele>13.8</ele>
        <time>2026-08-25T12:05:05Z</time>
      </trkpt>
      <trkpt lat="47.54464" lon="-2.72789">
        <ele>13.6</ele>
        <time>2026-08-25T12:05:06Z</time>
      </trkpt>
      <trkpt lat="47.5446" lon="-2.72796">
        <ele>13.4</ele>
        <time>2026-08-25T12:05:07Z</time>
      </trkpt>
      <trkpt lat="47.54456" lon="-2.72801">
        <ele>13.4</ele>
        <time>2026-08-25T12:05:08Z</time>
      </trkpt>
      <trkpt lat="47.54452" lon="-2.72807">
        <ele>13.4</ele>
        <time>2026-08-25T12:05:09Z</time>
      </trkpt>
      <trkpt lat="47.54448" lon="-2.72813">
        <ele>13.2</ele>
        <time>2026-08-25T12:05:10Z</time>
      </trkpt>
      <trkpt lat="47.54444" lon="-2.72818">
        <ele>13.1</ele>
        <time>2026-08-25T12:05:11Z</time>
      </trkpt>
      <trkpt lat="47.5444" lon="-2.72824">
        <ele>12.9</ele>
        <time>2026-08-25T12:05:12Z</time>
      </trkpt>
      <trkpt lat="47.54435" lon="-2.72829">
        <ele>12.9</ele>
        <time>2026-08-25T12:05:13Z</time>
      </trkpt>
      <trkpt lat="47.54431" lon="-2.72834">
        <ele>12.9</ele>
        <time>2026-08-25T12:05:14Z</time>
      </trkpt>
      <trkpt lat="47.54426" lon="-2.72839">
        <ele>12.9</ele>
        <time>2026-08-25T12:05:15Z</time>
      </trkpt>
      <trkpt lat="47.54422" lon="-2.72845">
        <ele>12.8</ele>
        <time>2026-08-25T12:05:16Z</time>
      </trkpt>
      <trkpt lat="47.54417" lon="-2.7285">
        <ele>12.8</ele>
        <time>2026-08-25T12:05:17Z</time>
      </trkpt>
      <trkpt lat="47.54412" lon="-2.72856">
        <ele>12.5</ele>
        <time>2026-08-25T12:05:18Z</time>
      </trkpt>
      <trkpt lat="47.54407" lon="-2.72861">
        <ele>12.4</ele>
        <time>2026-08-25T12:05:19Z</time>
      </trkpt>
      <trkpt lat="47.54402" lon="-2.72867">
        <ele>12.2</ele>
        <time>2026-08-25T12:05:20Z</time>
      </trkpt>
      <trkpt lat="47.54397" lon="-2.72873">
        <ele>12</ele>
        <time>2026-08-25T12:05:21Z</time>
      </trkpt>
      <trkpt lat="47.54392" lon="-2.72879">
        <ele>11.7</ele>
        <time>2026-08-25T12:05:22Z</time>
      </trkpt>
      <trkpt lat="47.54387" lon="-2.72885">
        <ele>11.3</ele>
        <time>2026-08-25T12:05:23Z</time>
      </trkpt>
      <trkpt lat="47.54381" lon="-2.72892">
        <ele>10.9</ele>
        <time>2026-08-25T12:05:24Z</time>
      </trkpt>
      <trkpt lat="47.54376" lon="-2.72899">
        <ele>10.6</ele>
        <time>2026-08-25T12:05:25Z</time>
      </trkpt>
      <trkpt lat="47.54372" lon="-2.72907">
        <ele>10.3</ele>
        <time>2026-08-25T12:05:26Z</time>
      </trkpt>
      <trkpt lat="47.54367" lon="-2.72916">
        <ele>10</ele>
        <time>2026-08-25T12:05:27Z</time>
      </trkpt>
      <trkpt lat="47.54362" lon="-2.72925">
        <ele>9.4</ele>
        <time>2026-08-25T12:05:28Z</time>
      </trkpt>
      <trkpt lat="47.54358" lon="-2.72935">
        <ele>8.6</ele>
        <time>2026-08-25T12:05:29Z</time>
      </trkpt>
      <trkpt lat="47.54353" lon="-2.72945">
        <ele>8</ele>
        <time>2026-08-25T12:05:30Z</time>
      </trkpt>
      <trkpt lat="47.54349" lon="-2.72956">
        <ele>7.4</ele>
        <time>2026-08-25T12:05:31Z</time>
      </trkpt>
      <trkpt lat="47.54345" lon="-2.72967">
        <ele>6.7</ele>
        <time>2026-08-25T12:05:32Z</time>
      </trkpt>
      <trkpt lat="47.54341" lon="-2.72979">
        <ele>5.8</ele>
        <time>2026-08-25T12:05:33Z</time>
      </trkpt>
      <trkpt lat="47.54337" lon="-2.7299">
        <ele>5.2</ele>
        <time>2026-08-25T12:05:34Z</time>
      </trkpt>
      <trkpt lat="47.54331" lon="-2.73">
        <ele>4.9</ele>
        <time>2026-08-25T12:05:35Z</time>
      </trkpt>
      <trkpt lat="47.54323" lon="-2.73009">
        <ele>4.1</ele>
        <time>2026-08-25T12:05:36Z</time>
      </trkpt>
      <trkpt lat="47.54315" lon="-2.73015">
        <ele>3.6</ele>
        <time>2026-08-25T12:05:37Z</time>
      </trkpt>
      <trkpt lat="47.54305" lon="-2.73019">
        <ele>3.3</ele>
        <time>2026-08-25T12:05:38Z</time>
      </trkpt>
      <trkpt lat="47.54296" lon="-2.73021">
        <ele>2.6</ele>
        <time>2026-08-25T12:05:39Z</time>
      </trkpt>
      <trkpt lat="47.54287" lon="-2.7302">
        <ele>1.9</ele>
        <time>2026-08-25T12:05:40Z</time>
      </trkpt>
      <trkpt lat="47.54278" lon="-2.73017">
        <ele>1.4</ele>
        <time>2026-08-25T12:05:41Z</time>
      </trkpt>
      <trkpt lat="47.5427" lon="-2.73012">
        <ele>1.7</ele>
        <time>2026-08-25T12:05:42Z</time>
      </trkpt>
      <trkpt lat="47.54262" lon="-2.73007">
        <ele>1.9</ele>
        <time>2026-08-25T12:05:43Z</time>
      </trkpt>
      <trkpt lat="47.54256" lon="-2.73003">
        <ele>2</ele>
        <time>2026-08-25T12:05:44Z</time>
      </trkpt>
      <trkpt lat="47.54252" lon="-2.73001">
        <ele>2</ele>
        <time>2026-08-25T12:05:45Z</time>
      </trkpt>
      <trkpt lat="47.54249" lon="-2.73002">
        <ele>2</ele>
        <time>2026-08-25T12:05:46Z</time>
      </trkpt>
      <trkpt lat="47.54246" lon="-2.73003">
        <ele>2.1</ele>
        <time>2026-08-25T12:05:47Z</time>
      </trkpt>
      <trkpt lat="47.54243" lon="-2.73004">
        <ele>2.2</ele>
        <time>2026-08-25T12:05:48Z</time>
      </trkpt>
      <trkpt lat="47.5424" lon="-2.73003">
        <ele>2.3</ele>
        <time>2026-08-25T12:05:49Z</time>
      </trkpt>
      <trkpt lat="47.54237" lon="-2.73002">
        <ele>2.4</ele>
        <time>2026-08-25T12:05:50Z</time>
      </trkpt>
      <trkpt lat="47.54234" lon="-2.73001">
        <ele>2.6</ele>
        <time>2026-08-25T12:05:51Z</time>
      </trkpt>
      <trkpt lat="47.5423" lon="-2.73">
        <ele>2.7</ele>
        <time>2026-08-25T12:05:52Z</time>
      </trkpt>
      <trkpt lat="47.54227" lon="-2.73001">
        <ele>2.8</ele>
        <time>2026-08-25T12:05:53Z</time>
      </trkpt>
      <trkpt lat="47.54224" lon="-2.73003">
        <ele>2.8</ele>
        <time>2026-08-25T12:05:54Z</time>
      </trkpt>
      <trkpt lat="47.54221" lon="-2.73007">
        <ele>2.8</ele>
        <time>2026-08-25T12:05:55Z</time>
      </trkpt>
      <trkpt lat="47.54218" lon="-2.73011">
        <ele>2.8</ele>
        <time>2026-08-25T12:05:56Z</time>
      </trkpt>
      <trkpt lat="47.54215" lon="-2.73016">
        <ele>2.8</ele>
        <time>2026-08-25T12:05:57Z</time>
      </trkpt>
      <trkpt lat="47.54213" lon="-2.73021">
        <ele>2.8</ele>
        <time>2026-08-25T12:05:58Z</time>
      </trkpt>
      <trkpt lat="47.54211" lon="-2.73026">
        <ele>2.8</ele>
        <time>2026-08-25T12:05:59Z</time>
      </trkpt>
      <trkpt lat="47.54209" lon="-2.73032">
        <ele>2.9</ele>
        <time>2026-08-25T12:06:00Z</time>
      </trkpt>
      <trkpt lat="47.54207" lon="-2.73039">
        <ele>2.9</ele>
        <time>2026-08-25T12:06:01Z</time>
      </trkpt>
      <trkpt lat="47.54206" lon="-2.73045">
        <ele>2.8</ele>
        <time>2026-08-25T12:06:02Z</time>
      </trkpt>
      <trkpt lat="47.54204" lon="-2.7305">
        <ele>2.8</ele>
        <time>2026-08-25T12:06:03Z</time>
      </trkpt>
      <trkpt lat="47.54201" lon="-2.73055">
        <ele>2.8</ele>
        <time>2026-08-25T12:06:04Z</time>
      </trkpt>
      <trkpt lat="47.54199" lon="-2.7306">
        <ele>2.7</ele>
        <time>2026-08-25T12:06:05Z</time>
      </trkpt>
      <trkpt lat="47.54197" lon="-2.73066">
        <ele>2.6</ele>
        <time>2026-08-25T12:06:06Z</time>
      </trkpt>
      <trkpt lat="47.54195" lon="-2.73071">
        <ele>2.4</ele>
        <time>2026-08-25T12:06:07Z</time>
      </trkpt>
      <trkpt lat="47.54193" lon="-2.73077">
        <ele>2.3</ele>
        <time>2026-08-25T12:06:08Z</time>
      </trkpt>
      <trkpt lat="47.54191" lon="-2.73083">
        <ele>2.3</ele>
        <time>2026-08-25T12:06:09Z</time>
      </trkpt>
      <trkpt lat="47.54189" lon="-2.7309">
        <ele>2.4</ele>
        <time>2026-08-25T12:06:10Z</time>
      </trkpt>
      <trkpt lat="47.54188" lon="-2.73096">
        <ele>2.5</ele>
        <time>2026-08-25T12:06:11Z</time>
      </trkpt>
      <trkpt lat="47.54186" lon="-2.73103">
        <ele>2.6</ele>
        <time>2026-08-25T12:06:12Z</time>
      </trkpt>
      <trkpt lat="47.54185" lon="-2.7311">
        <ele>2.7</ele>
        <time>2026-08-25T12:06:13Z</time>
      </trkpt>
      <trkpt lat="47.54184" lon="-2.73117">
        <ele>2.7</ele>
        <time>2026-08-25T12:06:14Z</time>
      </trkpt>
      <trkpt lat="47.54183" lon="-2.73123">
        <ele>2.6</ele>
        <time>2026-08-25T12:06:15Z</time>
      </trkpt>
      <trkpt lat="47.54183" lon="-2.7313">
        <ele>2.5</ele>
        <time>2026-08-25T12:06:16Z</time>
      </trkpt>
      <trkpt lat="47.54181" lon="-2.73137">
        <ele>2.5</ele>
        <time>2026-08-25T12:06:17Z</time>
      </trkpt>
      <trkpt lat="47.5418" lon="-2.73144">
        <ele>2.4</ele>
        <time>2026-08-25T12:06:18Z</time>
      </trkpt>
      <trkpt lat="47.54178" lon="-2.7315">
        <ele>2.4</ele>
        <time>2026-08-25T12:06:19Z</time>
      </trkpt>
      <trkpt lat="47.54176" lon="-2.73157">
        <ele>2.2</ele>
        <time>2026-08-25T12:06:20Z</time>
      </trkpt>
      <trkpt lat="47.54174" lon="-2.73163">
        <ele>2.1</ele>
        <time>2026-08-25T12:06:21Z</time>
      </trkpt>
      <trkpt lat="47.54172" lon="-2.73169">
        <ele>2</ele>
        <time>2026-08-25T12:06:22Z</time>
      </trkpt>
      <trkpt lat="47.5417" lon="-2.73176">
        <ele>2</ele>
        <time>2026-08-25T12:06:23Z</time>
      </trkpt>
      <trkpt lat="47.54168" lon="-2.73182">
        <ele>2</ele>
        <time>2026-08-25T12:06:24Z</time>
      </trkpt>
      <trkpt lat="47.54166" lon="-2.73188">
        <ele>2</ele>
        <time>2026-08-25T12:06:25Z</time>
      </trkpt>
      <trkpt lat="47.54164" lon="-2.73195">
        <ele>2.2</ele>
        <time>2026-08-25T12:06:26Z</time>
      </trkpt>
      <trkpt lat="47.54162" lon="-2.73202">
        <ele>2.3</ele>
        <time>2026-08-25T12:06:27Z</time>
      </trkpt>
      <trkpt lat="47.5416" lon="-2.73208">
        <ele>2.4</ele>
        <time>2026-08-25T12:06:28Z</time>
      </trkpt>
      <trkpt lat="47.54157" lon="-2.73214">
        <ele>2.5</ele>
        <time>2026-08-25T12:06:29Z</time>
      </trkpt>
      <trkpt lat="47.54154" lon="-2.7322">
        <ele>2.5</ele>
        <time>2026-08-25T12:06:30Z</time>
      </trkpt>
      <trkpt lat="47.54151" lon="-2.73225">
        <ele>2.6</ele>
        <time>2026-08-25T12:06:31Z</time>
      </trkpt>
      <trkpt lat="47.54148" lon="-2.7323">
        <ele>2.7</ele>
        <time>2026-08-25T12:06:32Z</time>
      </trkpt>
      <trkpt lat="47.54145" lon="-2.73236">
        <ele>2.8</ele>
        <time>2026-08-25T12:06:33Z</time>
      </trkpt>
      <trkpt lat="47.54143" lon="-2.73242">
        <ele>2.9</ele>
        <time>2026-08-25T12:06:34Z</time>
      </trkpt>
      <trkpt lat="47.54141" lon="-2.73248">
        <ele>2.9</ele>
        <time>2026-08-25T12:06:35Z</time>
      </trkpt>
      <trkpt lat="47.54139" lon="-2.73255">
        <ele>3</ele>
        <time>2026-08-25T12:06:36Z</time>
      </trkpt>
      <trkpt lat="47.54137" lon="-2.73261">
        <ele>3</ele>
        <time>2026-08-25T12:06:37Z</time>
      </trkpt>
      <trkpt lat="47.54135" lon="-2.73268">
        <ele>3.1</ele>
        <time>2026-08-25T12:06:38Z</time>
      </trkpt>
      <trkpt lat="47.54134" lon="-2.73275">
        <ele>3.2</ele>
        <time>2026-08-25T12:06:39Z</time>
      </trkpt>
      <trkpt lat="47.54133" lon="-2.73281">
        <ele>3.2</ele>
        <time>2026-08-25T12:06:40Z</time>
      </trkpt>
      <trkpt lat="47.54131" lon="-2.73288">
        <ele>3.3</ele>
        <time>2026-08-25T12:06:41Z</time>
      </trkpt>
      <trkpt lat="47.5413" lon="-2.73295">
        <ele>3.3</ele>
        <time>2026-08-25T12:06:42Z</time>
      </trkpt>
      <trkpt lat="47.54129" lon="-2.73301">
        <ele>3.4</ele>
        <time>2026-08-25T12:06:43Z</time>
      </trkpt>
      <trkpt lat="47.54127" lon="-2.73308">
        <ele>3.4</ele>
        <time>2026-08-25T12:06:44Z</time>
      </trkpt>
      <trkpt lat="47.54126" lon="-2.73315">
        <ele>3.3</ele>
        <time>2026-08-25T12:06:45Z</time>
      </trkpt>
      <trkpt lat="47.54124" lon="-2.73322">
        <ele>3.2</ele>
        <time>2026-08-25T12:06:46Z</time>
      </trkpt>
      <trkpt lat="47.54122" lon="-2.73329">
        <ele>3.1</ele>
        <time>2026-08-25T12:06:47Z</time>
      </trkpt>
      <trkpt lat="47.5412" lon="-2.73335">
        <ele>3</ele>
        <time>2026-08-25T12:06:48Z</time>
      </trkpt>
      <trkpt lat="47.54118" lon="-2.73342">
        <ele>2.9</ele>
        <time>2026-08-25T12:06:49Z</time>
      </trkpt>
      <trkpt lat="47.54116" lon="-2.73349">
        <ele>2.9</ele>
        <time>2026-08-25T12:06:50Z</time>
      </trkpt>
      <trkpt lat="47.54113" lon="-2.73356">
        <ele>2.9</ele>
        <time>2026-08-25T12:06:51Z</time>
      </trkpt>
      <trkpt lat="47.5411" lon="-2.73362">
        <ele>3</ele>
        <time>2026-08-25T12:06:52Z</time>
      </trkpt>
      <trkpt lat="47.54107" lon="-2.73369">
        <ele>2.9</ele>
        <time>2026-08-25T12:06:53Z</time>
      </trkpt>
      <trkpt lat="47.54105" lon="-2.73376">
        <ele>2.8</ele>
        <time>2026-08-25T12:06:54Z</time>
      </trkpt>
      <trkpt lat="47.54103" lon="-2.73382">
        <ele>2.8</ele>
        <time>2026-08-25T12:06:55Z</time>
      </trkpt>
      <trkpt lat="47.54101" lon="-2.7339">
        <ele>2.7</ele>
        <time>2026-08-25T12:06:56Z</time>
      </trkpt>
      <trkpt lat="47.541" lon="-2.73397">
        <ele>2.7</ele>
        <time>2026-08-25T12:06:57Z</time>
      </trkpt>
      <trkpt lat="47.54098" lon="-2.73403">
        <ele>2.7</ele>
        <time>2026-08-25T12:06:58Z</time>
      </trkpt>
      <trkpt lat="47.54096" lon="-2.7341">
        <ele>2.7</ele>
        <time>2026-08-25T12:06:59Z</time>
      </trkpt>
      <trkpt lat="47.54094" lon="-2.73417">
        <ele>2.6</ele>
        <time>2026-08-25T12:07:00Z</time>
      </trkpt>
      <trkpt lat="47.54092" lon="-2.73424">
        <ele>2.7</ele>
        <time>2026-08-25T12:07:01Z</time>
      </trkpt>
      <trkpt lat="47.5409" lon="-2.7343">
        <ele>2.8</ele>
        <time>2026-08-25T12:07:02Z</time>
      </trkpt>
      <trkpt lat="47.54088" lon="-2.73437">
        <ele>2.8</ele>
        <time>2026-08-25T12:07:03Z</time>
      </trkpt>
      <trkpt lat="47.54086" lon="-2.73444">
        <ele>2.9</ele>
        <time>2026-08-25T12:07:04Z</time>
      </trkpt>
      <trkpt lat="47.54084" lon="-2.7345">
        <ele>2.8</ele>
        <time>2026-08-25T12:07:05Z</time>
      </trkpt>
      <trkpt lat="47.54082" lon="-2.73457">
        <ele>2.6</ele>
        <time>2026-08-25T12:07:06Z</time>
      </trkpt>
      <trkpt lat="47.5408" lon="-2.73463">
        <ele>2.5</ele>
        <time>2026-08-25T12:07:07Z</time>
      </trkpt>
      <trkpt lat="47.54079" lon="-2.7347">
        <ele>2.4</ele>
        <time>2026-08-25T12:07:08Z</time>
      </trkpt>
      <trkpt lat="47.54077" lon="-2.73477">
        <ele>2.4</ele>
        <time>2026-08-25T12:07:09Z</time>
      </trkpt>
      <trkpt lat="47.54075" lon="-2.73484">
        <ele>2.5</ele>
        <time>2026-08-25T12:07:10Z</time>
      </trkpt>
      <trkpt lat="47.54074" lon="-2.7349">
        <ele>2.5</ele>
        <time>2026-08-25T12:07:11Z</time>
      </trkpt>
      <trkpt lat="47.54072" lon="-2.73497">
        <ele>2.5</ele>
        <time>2026-08-25T12:07:12Z</time>
      </trkpt>
      <trkpt lat="47.5407" lon="-2.73504">
        <ele>2.5</ele>
        <time>2026-08-25T12:07:13Z</time>
      </trkpt>
      <trkpt lat="47.54068" lon="-2.73511">
        <ele>2.6</ele>
        <time>2026-08-25T12:07:14Z</time>
      </trkpt>
      <trkpt lat="47.54066" lon="-2.73517">
        <ele>2.6</ele>
        <time>2026-08-25T12:07:15Z</time>
      </trkpt>
      <trkpt lat="47.54065" lon="-2.73524">
        <ele>2.7</ele>
        <time>2026-08-25T12:07:16Z</time>
      </trkpt>
      <trkpt lat="47.54064" lon="-2.73531">
        <ele>2.7</ele>
        <time>2026-08-25T12:07:17Z</time>
      </trkpt>
      <trkpt lat="47.54062" lon="-2.73537">
        <ele>2.8</ele>
        <time>2026-08-25T12:07:18Z</time>
      </trkpt>
      <trkpt lat="47.54061" lon="-2.73544">
        <ele>2.8</ele>
        <time>2026-08-25T12:07:19Z</time>
      </trkpt>
      <trkpt lat="47.5406" lon="-2.73551">
        <ele>2.8</ele>
        <time>2026-08-25T12:07:20Z</time>
      </trkpt>
      <trkpt lat="47.54058" lon="-2.73557">
        <ele>2.9</ele>
        <time>2026-08-25T12:07:21Z</time>
      </trkpt>
      <trkpt lat="47.54057" lon="-2.73564">
        <ele>2.9</ele>
        <time>2026-08-25T12:07:22Z</time>
      </trkpt>
      <trkpt lat="47.54056" lon="-2.73571">
        <ele>3</ele>
        <time>2026-08-25T12:07:23Z</time>
      </trkpt>
      <trkpt lat="47.54055" lon="-2.73578">
        <ele>3</ele>
        <time>2026-08-25T12:07:24Z</time>
      </trkpt>
      <trkpt lat="47.54054" lon="-2.73585">
        <ele>3.1</ele>
        <time>2026-08-25T12:07:25Z</time>
      </trkpt>
      <trkpt lat="47.54053" lon="-2.73592">
        <ele>3.1</ele>
        <time>2026-08-25T12:07:26Z</time>
      </trkpt>
      <trkpt lat="47.54052" lon="-2.73598">
        <ele>3.1</ele>
        <time>2026-08-25T12:07:27Z</time>
      </trkpt>
      <trkpt lat="47.54051" lon="-2.73605">
        <ele>3</ele>
        <time>2026-08-25T12:07:28Z</time>
      </trkpt>
      <trkpt lat="47.5405" lon="-2.73612">
        <ele>3</ele>
        <time>2026-08-25T12:07:29Z</time>
      </trkpt>
      <trkpt lat="47.54049" lon="-2.73619">
        <ele>3</ele>
        <time>2026-08-25T12:07:30Z</time>
      </trkpt>
      <trkpt lat="47.54048" lon="-2.73626">
        <ele>3</ele>
        <time>2026-08-25T12:07:31Z</time>
      </trkpt>
      <trkpt lat="47.54047" lon="-2.73632">
        <ele>3</ele>
        <time>2026-08-25T12:07:32Z</time>
      </trkpt>
      <trkpt lat="47.54046" lon="-2.73639">
        <ele>3</ele>
        <time>2026-08-25T12:07:33Z</time>
      </trkpt>
      <trkpt lat="47.54045" lon="-2.73646">
        <ele>3</ele>
        <time>2026-08-25T12:07:34Z</time>
      </trkpt>
      <trkpt lat="47.54044" lon="-2.73653">
        <ele>3</ele>
        <time>2026-08-25T12:07:35Z</time>
      </trkpt>
      <trkpt lat="47.54044" lon="-2.73659">
        <ele>3</ele>
        <time>2026-08-25T12:07:36Z</time>
      </trkpt>
      <trkpt lat="47.54043" lon="-2.73666">
        <ele>3</ele>
        <time>2026-08-25T12:07:37Z</time>
      </trkpt>
      <trkpt lat="47.54042" lon="-2.73673">
        <ele>3</ele>
        <time>2026-08-25T12:07:38Z</time>
      </trkpt>
      <trkpt lat="47.54041" lon="-2.73679">
        <ele>3</ele>
        <time>2026-08-25T12:07:39Z</time>
      </trkpt>
      <trkpt lat="47.5404" lon="-2.73686">
        <ele>3</ele>
        <time>2026-08-25T12:07:40Z</time>
      </trkpt>
      <trkpt lat="47.54039" lon="-2.73693">
        <ele>3</ele>
        <time>2026-08-25T12:07:41Z</time>
      </trkpt>
      <trkpt lat="47.54038" lon="-2.73699">
        <ele>3</ele>
        <time>2026-08-25T12:07:42Z</time>
      </trkpt>
      <trkpt lat="47.54037" lon="-2.73705">
        <ele>3</ele>
        <time>2026-08-25T12:07:43Z</time>
      </trkpt>
      <trkpt lat="47.54036" lon="-2.73712">
        <ele>3</ele>
        <time>2026-08-25T12:07:44Z</time>
      </trkpt>
      <trkpt lat="47.54034" lon="-2.73718">
        <ele>3</ele>
        <time>2026-08-25T12:07:45Z</time>
      </trkpt>
      <trkpt lat="47.54032" lon="-2.73724">
        <ele>3</ele>
        <time>2026-08-25T12:07:46Z</time>
      </trkpt>
      <trkpt lat="47.5403" lon="-2.7373">
        <ele>3</ele>
        <time>2026-08-25T12:07:47Z</time>
      </trkpt>
      <trkpt lat="47.54027" lon="-2.73735">
        <ele>3</ele>
        <time>2026-08-25T12:07:48Z</time>
      </trkpt>
      <trkpt lat="47.54025" lon="-2.73741">
        <ele>3.1</ele>
        <time>2026-08-25T12:07:49Z</time>
      </trkpt>
      <trkpt lat="47.54023" lon="-2.73747">
        <ele>3.2</ele>
        <time>2026-08-25T12:07:50Z</time>
      </trkpt>
      <trkpt lat="47.54021" lon="-2.73752">
        <ele>3.2</ele>
        <time>2026-08-25T12:07:51Z</time>
      </trkpt>
      <trkpt lat="47.54019" lon="-2.73758">
        <ele>3.3</ele>
        <time>2026-08-25T12:07:52Z</time>
      </trkpt>
      <trkpt lat="47.54017" lon="-2.73764">
        <ele>3.4</ele>
        <time>2026-08-25T12:07:53Z</time>
      </trkpt>
      <trkpt lat="47.54016" lon="-2.7377">
        <ele>3.4</ele>
        <time>2026-08-25T12:07:54Z</time>
      </trkpt>
      <trkpt lat="47.54015" lon="-2.73776">
        <ele>3.5</ele>
        <time>2026-08-25T12:07:55Z</time>
      </trkpt>
      <trkpt lat="47.54014" lon="-2.73782">
        <ele>3.6</ele>
        <time>2026-08-25T12:07:56Z</time>
      </trkpt>
      <trkpt lat="47.54013" lon="-2.73788">
        <ele>3.7</ele>
        <time>2026-08-25T12:07:57Z</time>
      </trkpt>
      <trkpt lat="47.54011" lon="-2.73794">
        <ele>3.8</ele>
        <time>2026-08-25T12:07:58Z</time>
      </trkpt>
      <trkpt lat="47.54009" lon="-2.738">
        <ele>3.9</ele>
        <time>2026-08-25T12:07:59Z</time>
      </trkpt>
      <trkpt lat="47.54007" lon="-2.73806">
        <ele>4</ele>
        <time>2026-08-25T12:08:00Z</time>
      </trkpt>
      <trkpt lat="47.54005" lon="-2.73811">
        <ele>4</ele>
        <time>2026-08-25T12:08:01Z</time>
      </trkpt>
      <trkpt lat="47.54003" lon="-2.73817">
        <ele>4</ele>
        <time>2026-08-25T12:08:02Z</time>
      </trkpt>
      <trkpt lat="47.54" lon="-2.73823">
        <ele>4</ele>
        <time>2026-08-25T12:08:03Z</time>
      </trkpt>
      <trkpt lat="47.53998" lon="-2.73829">
        <ele>4.1</ele>
        <time>2026-08-25T12:08:04Z</time>
      </trkpt>
      <trkpt lat="47.53996" lon="-2.73834">
        <ele>4.1</ele>
        <time>2026-08-25T12:08:05Z</time>
      </trkpt>
      <trkpt lat="47.53994" lon="-2.7384">
        <ele>4.2</ele>
        <time>2026-08-25T12:08:06Z</time>
      </trkpt>
      <trkpt lat="47.53991" lon="-2.73845">
        <ele>4.3</ele>
        <time>2026-08-25T12:08:07Z</time>
      </trkpt>
      <trkpt lat="47.53988" lon="-2.7385">
        <ele>4.4</ele>
        <time>2026-08-25T12:08:08Z</time>
      </trkpt>
      <trkpt lat="47.53985" lon="-2.73856">
        <ele>4.5</ele>
        <time>2026-08-25T12:08:09Z</time>
      </trkpt>
      <trkpt lat="47.53982" lon="-2.7386">
        <ele>4.6</ele>
        <time>2026-08-25T12:08:10Z</time>
      </trkpt>
      <trkpt lat="47.53978" lon="-2.73865">
        <ele>4.8</ele>
        <time>2026-08-25T12:08:11Z</time>
      </trkpt>
      <trkpt lat="47.53975" lon="-2.73869">
        <ele>4.9</ele>
        <time>2026-08-25T12:08:12Z</time>
      </trkpt>
      <trkpt lat="47.53972" lon="-2.73874">
        <ele>5</ele>
        <time>2026-08-25T12:08:13Z</time>
      </trkpt>
      <trkpt lat="47.53969" lon="-2.73878">
        <ele>5.1</ele>
        <time>2026-08-25T12:08:14Z</time>
      </trkpt>
      <trkpt lat="47.53967" lon="-2.73882">
        <ele>5.2</ele>
        <time>2026-08-25T12:08:15Z</time>
      </trkpt>
      <trkpt lat="47.53964" lon="-2.73886">
        <ele>5.3</ele>
        <time>2026-08-25T12:08:16Z</time>
      </trkpt>
      <trkpt lat="47.53962" lon="-2.7389">
        <ele>5.4</ele>
        <time>2026-08-25T12:08:17Z</time>
      </trkpt>
      <trkpt lat="47.5396" lon="-2.73894">
        <ele>5.4</ele>
        <time>2026-08-25T12:08:18Z</time>
      </trkpt>
      <trkpt lat="47.53957" lon="-2.73897">
        <ele>5.5</ele>
        <time>2026-08-25T12:08:19Z</time>
      </trkpt>
      <trkpt lat="47.53955" lon="-2.73901">
        <ele>5.6</ele>
        <time>2026-08-25T12:08:20Z</time>
      </trkpt>
      <trkpt lat="47.53952" lon="-2.73905">
        <ele>5.7</ele>
        <time>2026-08-25T12:08:21Z</time>
      </trkpt>
      <trkpt lat="47.5395" lon="-2.73909">
        <ele>5.8</ele>
        <time>2026-08-25T12:08:22Z</time>
      </trkpt>
      <trkpt lat="47.53947" lon="-2.73912">
        <ele>5.9</ele>
        <time>2026-08-25T12:08:23Z</time>
      </trkpt>
      <trkpt lat="47.53945" lon="-2.73916">
        <ele>6</ele>
        <time>2026-08-25T12:08:24Z</time>
      </trkpt>
      <trkpt lat="47.53942" lon="-2.73919">
        <ele>6.1</ele>
        <time>2026-08-25T12:08:25Z</time>
      </trkpt>
      <trkpt lat="47.53939" lon="-2.73923">
        <ele>6.2</ele>
        <time>2026-08-25T12:08:26Z</time>
      </trkpt>
      <trkpt lat="47.53937" lon="-2.73926">
        <ele>6.3</ele>
        <time>2026-08-25T12:08:27Z</time>
      </trkpt>
      <trkpt lat="47.53934" lon="-2.73929">
        <ele>6.4</ele>
        <time>2026-08-25T12:08:28Z</time>
      </trkpt>
      <trkpt lat="47.53932" lon="-2.73933">
        <ele>6.4</ele>
        <time>2026-08-25T12:08:29Z</time>
      </trkpt>
      <trkpt lat="47.5393" lon="-2.73936">
        <ele>6.5</ele>
        <time>2026-08-25T12:08:30Z</time>
      </trkpt>
      <trkpt lat="47.53927" lon="-2.73939">
        <ele>6.6</ele>
        <time>2026-08-25T12:08:31Z</time>
      </trkpt>
      <trkpt lat="47.53925" lon="-2.73943">
        <ele>6.7</ele>
        <time>2026-08-25T12:08:32Z</time>
      </trkpt>
      <trkpt lat="47.53922" lon="-2.73948">
        <ele>6.8</ele>
        <time>2026-08-25T12:08:33Z</time>
      </trkpt>
      <trkpt lat="47.5392" lon="-2.73952">
        <ele>6.9</ele>
        <time>2026-08-25T12:08:34Z</time>
      </trkpt>
      <trkpt lat="47.53919" lon="-2.73958">
        <ele>6.9</ele>
        <time>2026-08-25T12:08:35Z</time>
      </trkpt>
      <trkpt lat="47.53918" lon="-2.73963">
        <ele>7</ele>
        <time>2026-08-25T12:08:36Z</time>
      </trkpt>
      <trkpt lat="47.53917" lon="-2.73968">
        <ele>7</ele>
        <time>2026-08-25T12:08:37Z</time>
      </trkpt>
      <trkpt lat="47.53916" lon="-2.73973">
        <ele>7</ele>
        <time>2026-08-25T12:08:38Z</time>
      </trkpt>
      <trkpt lat="47.53916" lon="-2.73978">
        <ele>6.8</ele>
        <time>2026-08-25T12:08:39Z</time>
      </trkpt>
      <trkpt lat="47.53916" lon="-2.73983">
        <ele>6.6</ele>
        <time>2026-08-25T12:08:40Z</time>
      </trkpt>
      <trkpt lat="47.53917" lon="-2.73987">
        <ele>6.5</ele>
        <time>2026-08-25T12:08:41Z</time>
      </trkpt>
      <trkpt lat="47.53919" lon="-2.73992">
        <ele>6.2</ele>
        <time>2026-08-25T12:08:42Z</time>
      </trkpt>
      <trkpt lat="47.5392" lon="-2.73998">
        <ele>6</ele>
        <time>2026-08-25T12:08:43Z</time>
      </trkpt>
      <trkpt lat="47.53921" lon="-2.74003">
        <ele>5.6</ele>
        <time>2026-08-25T12:08:44Z</time>
      </trkpt>
      <trkpt lat="47.53923" lon="-2.74008">
        <ele>5.3</ele>
        <time>2026-08-25T12:08:45Z</time>
      </trkpt>
      <trkpt lat="47.53925" lon="-2.74013">
        <ele>4.9</ele>
        <time>2026-08-25T12:08:46Z</time>
      </trkpt>
      <trkpt lat="47.53928" lon="-2.74017">
        <ele>4.6</ele>
        <time>2026-08-25T12:08:47Z</time>
      </trkpt>
      <trkpt lat="47.53931" lon="-2.74021">
        <ele>4.4</ele>
        <time>2026-08-25T12:08:48Z</time>
      </trkpt>
      <trkpt lat="47.53933" lon="-2.74025">
        <ele>4.1</ele>
        <time>2026-08-25T12:08:49Z</time>
      </trkpt>
      <trkpt lat="47.53934" lon="-2.74029">
        <ele>4</ele>
        <time>2026-08-25T12:08:50Z</time>
      </trkpt>
      <trkpt lat="47.53934" lon="-2.74033">
        <ele>3.9</ele>
        <time>2026-08-25T12:08:51Z</time>
      </trkpt>
      <trkpt lat="47.53933" lon="-2.74037">
        <ele>3.8</ele>
        <time>2026-08-25T12:08:52Z</time>
      </trkpt>
      <trkpt lat="47.53932" lon="-2.74041">
        <ele>3.7</ele>
        <time>2026-08-25T12:08:53Z</time>
      </trkpt>
      <trkpt lat="47.53932" lon="-2.74046">
        <ele>3.6</ele>
        <time>2026-08-25T12:08:54Z</time>
      </trkpt>
      <trkpt lat="47.53932" lon="-2.74051">
        <ele>3.5</ele>
        <time>2026-08-25T12:08:55Z</time>
      </trkpt>
      <trkpt lat="47.53934" lon="-2.74056">
        <ele>3.4</ele>
        <time>2026-08-25T12:08:56Z</time>
      </trkpt>
      <trkpt lat="47.53937" lon="-2.74061">
        <ele>3.3</ele>
        <time>2026-08-25T12:08:57Z</time>
      </trkpt>
      <trkpt lat="47.5394" lon="-2.74067">
        <ele>3.2</ele>
        <time>2026-08-25T12:08:58Z</time>
      </trkpt>
      <trkpt lat="47.53943" lon="-2.74074">
        <ele>3.1</ele>
        <time>2026-08-25T12:08:59Z</time>
      </trkpt>
      <trkpt lat="47.53945" lon="-2.7408">
        <ele>3</ele>
        <time>2026-08-25T12:09:00Z</time>
      </trkpt>
      <trkpt lat="47.53947" lon="-2.74087">
        <ele>3</ele>
        <time>2026-08-25T12:09:01Z</time>
      </trkpt>
      <trkpt lat="47.53948" lon="-2.74094">
        <ele>3</ele>
        <time>2026-08-25T12:09:02Z</time>
      </trkpt>
      <trkpt lat="47.5395" lon="-2.741">
        <ele>3</ele>
        <time>2026-08-25T12:09:03Z</time>
      </trkpt>
      <trkpt lat="47.53951" lon="-2.74107">
        <ele>3</ele>
        <time>2026-08-25T12:09:04Z</time>
      </trkpt>
      <trkpt lat="47.53953" lon="-2.74113">
        <ele>3.1</ele>
        <time>2026-08-25T12:09:05Z</time>
      </trkpt>
      <trkpt lat="47.53953" lon="-2.7412">
        <ele>3.3</ele>
        <time>2026-08-25T12:09:06Z</time>
      </trkpt>
      <trkpt lat="47.53954" lon="-2.74126">
        <ele>3.5</ele>
        <time>2026-08-25T12:09:07Z</time>
      </trkpt>
      <trkpt lat="47.53954" lon="-2.74133">
        <ele>3.8</ele>
        <time>2026-08-25T12:09:08Z</time>
      </trkpt>
      <trkpt lat="47.53955" lon="-2.74139">
        <ele>4</ele>
        <time>2026-08-25T12:09:09Z</time>
      </trkpt>
      <trkpt lat="47.53955" lon="-2.74146">
        <ele>4.2</ele>
        <time>2026-08-25T12:09:10Z</time>
      </trkpt>
      <trkpt lat="47.53955" lon="-2.74152">
        <ele>4.3</ele>
        <time>2026-08-25T12:09:11Z</time>
      </trkpt>
      <trkpt lat="47.53955" lon="-2.74158">
        <ele>4.4</ele>
        <time>2026-08-25T12:09:12Z</time>
      </trkpt>
      <trkpt lat="47.53955" lon="-2.74164">
        <ele>4.6</ele>
        <time>2026-08-25T12:09:13Z</time>
      </trkpt>
      <trkpt lat="47.53955" lon="-2.7417">
        <ele>4.7</ele>
        <time>2026-08-25T12:09:14Z</time>
      </trkpt>
      <trkpt lat="47.53955" lon="-2.74176">
        <ele>4.7</ele>
        <time>2026-08-25T12:09:15Z</time>
      </trkpt>
      <trkpt lat="47.53955" lon="-2.74183">
        <ele>4.8</ele>
        <time>2026-08-25T12:09:16Z</time>
      </trkpt>
      <trkpt lat="47.53954" lon="-2.74189">
        <ele>4.9</ele>
        <time>2026-08-25T12:09:17Z</time>
      </trkpt>
      <trkpt lat="47.53954" lon="-2.74195">
        <ele>5</ele>
        <time>2026-08-25T12:09:18Z</time>
      </trkpt>
      <trkpt lat="47.53953" lon="-2.74201">
        <ele>5</ele>
        <time>2026-08-25T12:09:19Z</time>
      </trkpt>
      <trkpt lat="47.53951" lon="-2.74207">
        <ele>5</ele>
        <time>2026-08-25T12:09:20Z</time>
      </trkpt>
      <trkpt lat="47.53949" lon="-2.74212">
        <ele>5</ele>
        <time>2026-08-25T12:09:21Z</time>
      </trkpt>
      <trkpt lat="47.53946" lon="-2.74216">
        <ele>5</ele>
        <time>2026-08-25T12:09:22Z</time>
      </trkpt>
      <trkpt lat="47.53943" lon="-2.74221">
        <ele>5</ele>
        <time>2026-08-25T12:09:23Z</time>
      </trkpt>
      <trkpt lat="47.53939" lon="-2.74225">
        <ele>5.2</ele>
        <time>2026-08-25T12:09:24Z</time>
      </trkpt>
      <trkpt lat="47.53936" lon="-2.74229">
        <ele>5.2</ele>
        <time>2026-08-25T12:09:25Z</time>
      </trkpt>
      <trkpt lat="47.53933" lon="-2.74233">
        <ele>5.3</ele>
        <time>2026-08-25T12:09:26Z</time>
      </trkpt>
      <trkpt lat="47.5393" lon="-2.74237">
        <ele>5.2</ele>
        <time>2026-08-25T12:09:27Z</time>
      </trkpt>
      <trkpt lat="47.53927" lon="-2.74241">
        <ele>5.2</ele>
        <time>2026-08-25T12:09:28Z</time>
      </trkpt>
      <trkpt lat="47.53924" lon="-2.74246">
        <ele>5.1</ele>
        <time>2026-08-25T12:09:29Z</time>
      </trkpt>
      <trkpt lat="47.53921" lon="-2.7425">
        <ele>5</ele>
        <time>2026-08-25T12:09:30Z</time>
      </trkpt>
      <trkpt lat="47.53918" lon="-2.74255">
        <ele>5.2</ele>
        <time>2026-08-25T12:09:31Z</time>
      </trkpt>
      <trkpt lat="47.53916" lon="-2.74259">
        <ele>5.4</ele>
        <time>2026-08-25T12:09:32Z</time>
      </trkpt>
      <trkpt lat="47.53913" lon="-2.74263">
        <ele>5.6</ele>
        <time>2026-08-25T12:09:33Z</time>
      </trkpt>
      <trkpt lat="47.53911" lon="-2.74268">
        <ele>5.8</ele>
        <time>2026-08-25T12:09:34Z</time>
      </trkpt>
      <trkpt lat="47.53908" lon="-2.74272">
        <ele>5.9</ele>
        <time>2026-08-25T12:09:35Z</time>
      </trkpt>
      <trkpt lat="47.53905" lon="-2.74275">
        <ele>6</ele>
        <time>2026-08-25T12:09:36Z</time>
      </trkpt>
      <trkpt lat="47.53901" lon="-2.74276">
        <ele>6</ele>
        <time>2026-08-25T12:09:37Z</time>
      </trkpt>
      <trkpt lat="47.53898" lon="-2.74277">
        <ele>6</ele>
        <time>2026-08-25T12:09:38Z</time>
      </trkpt>
      <trkpt lat="47.53894" lon="-2.74277">
        <ele>6</ele>
        <time>2026-08-25T12:09:39Z</time>
      </trkpt>
      <trkpt lat="47.5389" lon="-2.74277">
        <ele>6</ele>
        <time>2026-08-25T12:09:40Z</time>
      </trkpt>
      <trkpt lat="47.53887" lon="-2.74276">
        <ele>6.1</ele>
        <time>2026-08-25T12:09:41Z</time>
      </trkpt>
      <trkpt lat="47.53883" lon="-2.74275">
        <ele>6.3</ele>
        <time>2026-08-25T12:09:42Z</time>
      </trkpt>
      <trkpt lat="47.53879" lon="-2.74274">
        <ele>6.5</ele>
        <time>2026-08-25T12:09:43Z</time>
      </trkpt>
      <trkpt lat="47.53876" lon="-2.74274">
        <ele>6.6</ele>
        <time>2026-08-25T12:09:44Z</time>
      </trkpt>
      <trkpt lat="47.53872" lon="-2.74272">
        <ele>6.8</ele>
        <time>2026-08-25T12:09:45Z</time>
      </trkpt>
      <trkpt lat="47.53869" lon="-2.74271">
        <ele>7</ele>
        <time>2026-08-25T12:09:46Z</time>
      </trkpt>
      <trkpt lat="47.53865" lon="-2.7427">
        <ele>7.1</ele>
        <time>2026-08-25T12:09:47Z</time>
      </trkpt>
      <trkpt lat="47.53862" lon="-2.74269">
        <ele>7.3</ele>
        <time>2026-08-25T12:09:48Z</time>
      </trkpt>
      <trkpt lat="47.53858" lon="-2.74267">
        <ele>7.5</ele>
        <time>2026-08-25T12:09:49Z</time>
      </trkpt>
      <trkpt lat="47.53855" lon="-2.74266">
        <ele>7.7</ele>
        <time>2026-08-25T12:09:50Z</time>
      </trkpt>
      <trkpt lat="47.53851" lon="-2.74264">
        <ele>7.9</ele>
        <time>2026-08-25T12:09:51Z</time>
      </trkpt>
      <trkpt lat="47.53848" lon="-2.74263">
        <ele>8</ele>
        <time>2026-08-25T12:09:52Z</time>
      </trkpt>
      <trkpt lat="47.53845" lon="-2.74262">
        <ele>8.1</ele>
        <time>2026-08-25T12:09:53Z</time>
      </trkpt>
      <trkpt lat="47.53842" lon="-2.74261">
        <ele>8.1</ele>
        <time>2026-08-25T12:09:54Z</time>
      </trkpt>
      <trkpt lat="47.53839" lon="-2.74262">
        <ele>8.3</ele>
        <time>2026-08-25T12:09:55Z</time>
      </trkpt>
      <trkpt lat="47.53836" lon="-2.74264">
        <ele>8.4</ele>
        <time>2026-08-25T12:09:56Z</time>
      </trkpt>
      <trkpt lat="47.53835" lon="-2.74267">
        <ele>8.5</ele>
        <time>2026-08-25T12:09:57Z</time>
      </trkpt>
      <trkpt lat="47.53834" lon="-2.74271">
        <ele>8.7</ele>
        <time>2026-08-25T12:09:58Z</time>
      </trkpt>
      <trkpt lat="47.53834" lon="-2.74276">
        <ele>8.9</ele>
        <time>2026-08-25T12:09:59Z</time>
      </trkpt>
      <trkpt lat="47.53833" lon="-2.74282">
        <ele>9</ele>
        <time>2026-08-25T12:10:00Z</time>
      </trkpt>
      <trkpt lat="47.53833" lon="-2.74287">
        <ele>9</ele>
        <time>2026-08-25T12:10:01Z</time>
      </trkpt>
      <trkpt lat="47.53832" lon="-2.74292">
        <ele>9.1</ele>
        <time>2026-08-25T12:10:02Z</time>
      </trkpt>
      <trkpt lat="47.53832" lon="-2.74297">
        <ele>9.1</ele>
        <time>2026-08-25T12:10:03Z</time>
      </trkpt>
      <trkpt lat="47.53832" lon="-2.74302">
        <ele>9.1</ele>
        <time>2026-08-25T12:10:04Z</time>
      </trkpt>
      <trkpt lat="47.53831" lon="-2.74307">
        <ele>9.2</ele>
        <time>2026-08-25T12:10:05Z</time>
      </trkpt>
      <trkpt lat="47.53831" lon="-2.74313">
        <ele>9.2</ele>
        <time>2026-08-25T12:10:06Z</time>
      </trkpt>
      <trkpt lat="47.5383" lon="-2.74318">
        <ele>9.2</ele>
        <time>2026-08-25T12:10:07Z</time>
      </trkpt>
      <trkpt lat="47.53829" lon="-2.74323">
        <ele>9.3</ele>
        <time>2026-08-25T12:10:08Z</time>
      </trkpt>
      <trkpt lat="47.53827" lon="-2.74327">
        <ele>9.5</ele>
        <time>2026-08-25T12:10:09Z</time>
      </trkpt>
      <trkpt lat="47.53826" lon="-2.74332">
        <ele>9.5</ele>
        <time>2026-08-25T12:10:10Z</time>
      </trkpt>
      <trkpt lat="47.53825" lon="-2.74336">
        <ele>9.6</ele>
        <time>2026-08-25T12:10:11Z</time>
      </trkpt>
      <trkpt lat="47.53823" lon="-2.74341">
        <ele>9.7</ele>
        <time>2026-08-25T12:10:12Z</time>
      </trkpt>
      <trkpt lat="47.53822" lon="-2.74344">
        <ele>9.8</ele>
        <time>2026-08-25T12:10:13Z</time>
      </trkpt>
      <trkpt lat="47.5382" lon="-2.74348">
        <ele>10</ele>
        <time>2026-08-25T12:10:14Z</time>
      </trkpt>
      <trkpt lat="47.53817" lon="-2.74352">
        <ele>10.2</ele>
        <time>2026-08-25T12:10:15Z</time>
      </trkpt>
      <trkpt lat="47.53815" lon="-2.74355">
        <ele>10.3</ele>
        <time>2026-08-25T12:10:16Z</time>
      </trkpt>
      <trkpt lat="47.53813" lon="-2.74358">
        <ele>10.5</ele>
        <time>2026-08-25T12:10:17Z</time>
      </trkpt>
      <trkpt lat="47.53811" lon="-2.74362">
        <ele>10.6</ele>
        <time>2026-08-25T12:10:18Z</time>
      </trkpt>
      <trkpt lat="47.5381" lon="-2.74365">
        <ele>10.7</ele>
        <time>2026-08-25T12:10:19Z</time>
      </trkpt>
      <trkpt lat="47.53808" lon="-2.7437">
        <ele>10.8</ele>
        <time>2026-08-25T12:10:20Z</time>
      </trkpt>
      <trkpt lat="47.53807" lon="-2.74375">
        <ele>10.9</ele>
        <time>2026-08-25T12:10:21Z</time>
      </trkpt>
      <trkpt lat="47.53805" lon="-2.7438">
        <ele>11</ele>
        <time>2026-08-25T12:10:22Z</time>
      </trkpt>
      <trkpt lat="47.53803" lon="-2.74384">
        <ele>11.1</ele>
        <time>2026-08-25T12:10:23Z</time>
      </trkpt>
      <trkpt lat="47.53802" lon="-2.74388">
        <ele>11.1</ele>
        <time>2026-08-25T12:10:24Z</time>
      </trkpt>
      <trkpt lat="47.538" lon="-2.74392">
        <ele>11.1</ele>
        <time>2026-08-25T12:10:25Z</time>
      </trkpt>
      <trkpt lat="47.53799" lon="-2.74396">
        <ele>11</ele>
        <time>2026-08-25T12:10:26Z</time>
      </trkpt>
      <trkpt lat="47.53797" lon="-2.744">
        <ele>11</ele>
        <time>2026-08-25T12:10:27Z</time>
      </trkpt>
      <trkpt lat="47.53795" lon="-2.74405">
        <ele>11</ele>
        <time>2026-08-25T12:10:28Z</time>
      </trkpt>
      <trkpt lat="47.53793" lon="-2.74409">
        <ele>11.1</ele>
        <time>2026-08-25T12:10:29Z</time>
      </trkpt>
      <trkpt lat="47.53791" lon="-2.74414">
        <ele>11.1</ele>
        <time>2026-08-25T12:10:30Z</time>
      </trkpt>
      <trkpt lat="47.53789" lon="-2.74418">
        <ele>11.2</ele>
        <time>2026-08-25T12:10:31Z</time>
      </trkpt>
      <trkpt lat="47.53787" lon="-2.74422">
        <ele>11.2</ele>
        <time>2026-08-25T12:10:32Z</time>
      </trkpt>
      <trkpt lat="47.53786" lon="-2.74426">
        <ele>11.2</ele>
        <time>2026-08-25T12:10:33Z</time>
      </trkpt>
      <trkpt lat="47.53785" lon="-2.74431">
        <ele>11.1</ele>
        <time>2026-08-25T12:10:34Z</time>
      </trkpt>
      <trkpt lat="47.53784" lon="-2.74436">
        <ele>11</ele>
        <time>2026-08-25T12:10:35Z</time>
      </trkpt>
      <trkpt lat="47.53783" lon="-2.74442">
        <ele>10.9</ele>
        <time>2026-08-25T12:10:36Z</time>
      </trkpt>
      <trkpt lat="47.53783" lon="-2.74447">
        <ele>10.8</ele>
        <time>2026-08-25T12:10:37Z</time>
      </trkpt>
      <trkpt lat="47.53782" lon="-2.74452">
        <ele>10.8</ele>
        <time>2026-08-25T12:10:38Z</time>
      </trkpt>
      <trkpt lat="47.53782" lon="-2.74457">
        <ele>10.8</ele>
        <time>2026-08-25T12:10:39Z</time>
      </trkpt>
      <trkpt lat="47.53781" lon="-2.74462">
        <ele>10.8</ele>
        <time>2026-08-25T12:10:40Z</time>
      </trkpt>
      <trkpt lat="47.53781" lon="-2.74468">
        <ele>10.8</ele>
        <time>2026-08-25T12:10:41Z</time>
      </trkpt>
      <trkpt lat="47.5378" lon="-2.74474">
        <ele>10.8</ele>
        <time>2026-08-25T12:10:42Z</time>
      </trkpt>
      <trkpt lat="47.53779" lon="-2.7448">
        <ele>10.9</ele>
        <time>2026-08-25T12:10:43Z</time>
      </trkpt>
      <trkpt lat="47.53779" lon="-2.74486">
        <ele>10.9</ele>
        <time>2026-08-25T12:10:44Z</time>
      </trkpt>
      <trkpt lat="47.53778" lon="-2.74491">
        <ele>11</ele>
        <time>2026-08-25T12:10:45Z</time>
      </trkpt>
      <trkpt lat="47.53778" lon="-2.74496">
        <ele>11</ele>
        <time>2026-08-25T12:10:46Z</time>
      </trkpt>
      <trkpt lat="47.53777" lon="-2.74502">
        <ele>11</ele>
        <time>2026-08-25T12:10:47Z</time>
      </trkpt>
      <trkpt lat="47.53777" lon="-2.74507">
        <ele>11</ele>
        <time>2026-08-25T12:10:48Z</time>
      </trkpt>
      <trkpt lat="47.53777" lon="-2.74513">
        <ele>11</ele>
        <time>2026-08-25T12:10:49Z</time>
      </trkpt>
      <trkpt lat="47.53776" lon="-2.74519">
        <ele>11.1</ele>
        <time>2026-08-25T12:10:50Z</time>
      </trkpt>
      <trkpt lat="47.53776" lon="-2.74525">
        <ele>11.1</ele>
        <time>2026-08-25T12:10:51Z</time>
      </trkpt>
      <trkpt lat="47.53775" lon="-2.74531">
        <ele>11.1</ele>
        <time>2026-08-25T12:10:52Z</time>
      </trkpt>
      <trkpt lat="47.53775" lon="-2.74537">
        <ele>11.1</ele>
        <time>2026-08-25T12:10:53Z</time>
      </trkpt>
      <trkpt lat="47.53774" lon="-2.74543">
        <ele>11.1</ele>
        <time>2026-08-25T12:10:54Z</time>
      </trkpt>
      <trkpt lat="47.53774" lon="-2.74549">
        <ele>11.1</ele>
        <time>2026-08-25T12:10:55Z</time>
      </trkpt>
      <trkpt lat="47.53773" lon="-2.74555">
        <ele>11.2</ele>
        <time>2026-08-25T12:10:56Z</time>
      </trkpt>
      <trkpt lat="47.53773" lon="-2.7456">
        <ele>11.2</ele>
        <time>2026-08-25T12:10:57Z</time>
      </trkpt>
      <trkpt lat="47.53772" lon="-2.74566">
        <ele>11.3</ele>
        <time>2026-08-25T12:10:58Z</time>
      </trkpt>
      <trkpt lat="47.53772" lon="-2.74573">
        <ele>11.3</ele>
        <time>2026-08-25T12:10:59Z</time>
      </trkpt>
      <trkpt lat="47.53771" lon="-2.74578">
        <ele>11.4</ele>
        <time>2026-08-25T12:11:00Z</time>
      </trkpt>
      <trkpt lat="47.53771" lon="-2.74584">
        <ele>11.5</ele>
        <time>2026-08-25T12:11:01Z</time>
      </trkpt>
      <trkpt lat="47.53771" lon="-2.7459">
        <ele>11.5</ele>
        <time>2026-08-25T12:11:02Z</time>
      </trkpt>
      <trkpt lat="47.5377" lon="-2.74595">
        <ele>11.6</ele>
        <time>2026-08-25T12:11:03Z</time>
      </trkpt>
      <trkpt lat="47.53768" lon="-2.74599">
        <ele>11.7</ele>
        <time>2026-08-25T12:11:04Z</time>
      </trkpt>
      <trkpt lat="47.53766" lon="-2.74602">
        <ele>11.8</ele>
        <time>2026-08-25T12:11:05Z</time>
      </trkpt>
      <trkpt lat="47.53763" lon="-2.74603">
        <ele>12.1</ele>
        <time>2026-08-25T12:11:06Z</time>
      </trkpt>
      <trkpt lat="47.5376" lon="-2.74602">
        <ele>12.3</ele>
        <time>2026-08-25T12:11:07Z</time>
      </trkpt>
      <trkpt lat="47.53757" lon="-2.746">
        <ele>12.5</ele>
        <time>2026-08-25T12:11:08Z</time>
      </trkpt>
      <trkpt lat="47.53754" lon="-2.74598">
        <ele>12.7</ele>
        <time>2026-08-25T12:11:09Z</time>
      </trkpt>
      <trkpt lat="47.5375" lon="-2.74595">
        <ele>13</ele>
        <time>2026-08-25T12:11:10Z</time>
      </trkpt>
      <trkpt lat="47.53748" lon="-2.74593">
        <ele>13.1</ele>
        <time>2026-08-25T12:11:11Z</time>
      </trkpt>
      <trkpt lat="47.53745" lon="-2.74591">
        <ele>13.4</ele>
        <time>2026-08-25T12:11:12Z</time>
      </trkpt>
      <trkpt lat="47.53742" lon="-2.7459">
        <ele>13.6</ele>
        <time>2026-08-25T12:11:13Z</time>
      </trkpt>
      <trkpt lat="47.53739" lon="-2.74588">
        <ele>13.8</ele>
        <time>2026-08-25T12:11:14Z</time>
      </trkpt>
      <trkpt lat="47.53736" lon="-2.74586">
        <ele>14</ele>
        <time>2026-08-25T12:11:15Z</time>
      </trkpt>
      <trkpt lat="47.53733" lon="-2.74584">
        <ele>14.2</ele>
        <time>2026-08-25T12:11:16Z</time>
      </trkpt>
      <trkpt lat="47.5373" lon="-2.74582">
        <ele>14.4</ele>
        <time>2026-08-25T12:11:17Z</time>
      </trkpt>
      <trkpt lat="47.53727" lon="-2.7458">
        <ele>14.5</ele>
        <time>2026-08-25T12:11:18Z</time>
      </trkpt>
      <trkpt lat="47.53724" lon="-2.74577">
        <ele>14.6</ele>
        <time>2026-08-25T12:11:19Z</time>
      </trkpt>
      <trkpt lat="47.53721" lon="-2.74575">
        <ele>14.8</ele>
        <time>2026-08-25T12:11:20Z</time>
      </trkpt>
      <trkpt lat="47.53718" lon="-2.74573">
        <ele>14.9</ele>
        <time>2026-08-25T12:11:21Z</time>
      </trkpt>
      <trkpt lat="47.53715" lon="-2.74571">
        <ele>15.1</ele>
        <time>2026-08-25T12:11:22Z</time>
      </trkpt>
      <trkpt lat="47.53712" lon="-2.74569">
        <ele>15.2</ele>
        <time>2026-08-25T12:11:23Z</time>
      </trkpt>
      <trkpt lat="47.53709" lon="-2.74567">
        <ele>15.4</ele>
        <time>2026-08-25T12:11:24Z</time>
      </trkpt>
      <trkpt lat="47.53706" lon="-2.74565">
        <ele>15.5</ele>
        <time>2026-08-25T12:11:25Z</time>
      </trkpt>
      <trkpt lat="47.53703" lon="-2.74563">
        <ele>15.7</ele>
        <time>2026-08-25T12:11:26Z</time>
      </trkpt>
      <trkpt lat="47.53701" lon="-2.74561">
        <ele>15.7</ele>
        <time>2026-08-25T12:11:27Z</time>
      </trkpt>
      <trkpt lat="47.53698" lon="-2.74559">
        <ele>15.9</ele>
        <time>2026-08-25T12:11:28Z</time>
      </trkpt>
      <trkpt lat="47.53696" lon="-2.74557">
        <ele>15.9</ele>
        <time>2026-08-25T12:11:29Z</time>
      </trkpt>
      <trkpt lat="47.53693" lon="-2.74555">
        <ele>16.1</ele>
        <time>2026-08-25T12:11:30Z</time>
      </trkpt>
      <trkpt lat="47.5369" lon="-2.74553">
        <ele>16.4</ele>
        <time>2026-08-25T12:11:31Z</time>
      </trkpt>
      <trkpt lat="47.53687" lon="-2.74551">
        <ele>16.7</ele>
        <time>2026-08-25T12:11:32Z</time>
      </trkpt>
      <trkpt lat="47.53684" lon="-2.74549">
        <ele>16.9</ele>
        <time>2026-08-25T12:11:33Z</time>
      </trkpt>
      <trkpt lat="47.53681" lon="-2.74546">
        <ele>17.1</ele>
        <time>2026-08-25T12:11:34Z</time>
      </trkpt>
      <trkpt lat="47.53678" lon="-2.74545">
        <ele>17.3</ele>
        <time>2026-08-25T12:11:35Z</time>
      </trkpt>
      <trkpt lat="47.53675" lon="-2.74545">
        <ele>17.5</ele>
        <time>2026-08-25T12:11:36Z</time>
      </trkpt>
      <trkpt lat="47.53672" lon="-2.74545">
        <ele>17.7</ele>
        <time>2026-08-25T12:11:37Z</time>
      </trkpt>
      <trkpt lat="47.53669" lon="-2.74547">
        <ele>17.9</ele>
        <time>2026-08-25T12:11:38Z</time>
      </trkpt>
      <trkpt lat="47.53666" lon="-2.74549">
        <ele>18</ele>
        <time>2026-08-25T12:11:39Z</time>
      </trkpt>
      <trkpt lat="47.53663" lon="-2.74551">
        <ele>18</ele>
        <time>2026-08-25T12:11:40Z</time>
      </trkpt>
      <trkpt lat="47.53661" lon="-2.74554">
        <ele>18</ele>
        <time>2026-08-25T12:11:41Z</time>
      </trkpt>
      <trkpt lat="47.53659" lon="-2.74557">
        <ele>18</ele>
        <time>2026-08-25T12:11:42Z</time>
      </trkpt>
      <trkpt lat="47.53657" lon="-2.7456">
        <ele>18</ele>
        <time>2026-08-25T12:11:43Z</time>
      </trkpt>
      <trkpt lat="47.53655" lon="-2.74564">
        <ele>18</ele>
        <time>2026-08-25T12:11:44Z</time>
      </trkpt>
      <trkpt lat="47.53654" lon="-2.74569">
        <ele>18</ele>
        <time>2026-08-25T12:11:45Z</time>
      </trkpt>
      <trkpt lat="47.53654" lon="-2.74573">
        <ele>18</ele>
        <time>2026-08-25T12:11:46Z</time>
      </trkpt>
      <trkpt lat="47.53653" lon="-2.74578">
        <ele>18</ele>
        <time>2026-08-25T12:11:47Z</time>
      </trkpt>
      <trkpt lat="47.53653" lon="-2.74582">
        <ele>18</ele>
        <time>2026-08-25T12:11:48Z</time>
      </trkpt>
      <trkpt lat="47.53652" lon="-2.74587">
        <ele>18.1</ele>
        <time>2026-08-25T12:11:49Z</time>
      </trkpt>
      <trkpt lat="47.53651" lon="-2.74591">
        <ele>18.2</ele>
        <time>2026-08-25T12:11:50Z</time>
      </trkpt>
      <trkpt lat="47.53651" lon="-2.74596">
        <ele>18.3</ele>
        <time>2026-08-25T12:11:51Z</time>
      </trkpt>
      <trkpt lat="47.5365" lon="-2.74601">
        <ele>18.4</ele>
        <time>2026-08-25T12:11:52Z</time>
      </trkpt>
      <trkpt lat="47.5365" lon="-2.74606">
        <ele>18.5</ele>
        <time>2026-08-25T12:11:53Z</time>
      </trkpt>
      <trkpt lat="47.53649" lon="-2.74611">
        <ele>18.6</ele>
        <time>2026-08-25T12:11:54Z</time>
      </trkpt>
      <trkpt lat="47.53649" lon="-2.74615">
        <ele>18.7</ele>
        <time>2026-08-25T12:11:55Z</time>
      </trkpt>
      <trkpt lat="47.5365" lon="-2.74619">
        <ele>18.8</ele>
        <time>2026-08-25T12:11:56Z</time>
      </trkpt>
      <trkpt lat="47.53649" lon="-2.74624">
        <ele>18.9</ele>
        <time>2026-08-25T12:11:57Z</time>
      </trkpt>
      <trkpt lat="47.53649" lon="-2.74629">
        <ele>19</ele>
        <time>2026-08-25T12:11:58Z</time>
      </trkpt>
      <trkpt lat="47.53648" lon="-2.74634">
        <ele>19.2</ele>
        <time>2026-08-25T12:11:59Z</time>
      </trkpt>
      <trkpt lat="47.53647" lon="-2.74638">
        <ele>19.4</ele>
        <time>2026-08-25T12:12:00Z</time>
      </trkpt>
      <trkpt lat="47.53647" lon="-2.74643">
        <ele>19.4</ele>
        <time>2026-08-25T12:12:01Z</time>
      </trkpt>
      <trkpt lat="47.53646" lon="-2.74648">
        <ele>19.5</ele>
        <time>2026-08-25T12:12:02Z</time>
      </trkpt>
      <trkpt lat="47.53645" lon="-2.74652">
        <ele>19.6</ele>
        <time>2026-08-25T12:12:03Z</time>
      </trkpt>
      <trkpt lat="47.53644" lon="-2.74657">
        <ele>19.6</ele>
        <time>2026-08-25T12:12:04Z</time>
      </trkpt>
      <trkpt lat="47.53643" lon="-2.74662">
        <ele>19.7</ele>
        <time>2026-08-25T12:12:05Z</time>
      </trkpt>
      <trkpt lat="47.53642" lon="-2.74666">
        <ele>19.8</ele>
        <time>2026-08-25T12:12:06Z</time>
      </trkpt>
      <trkpt lat="47.53641" lon="-2.74671">
        <ele>19.8</ele>
        <time>2026-08-25T12:12:07Z</time>
      </trkpt>
      <trkpt lat="47.5364" lon="-2.74676">
        <ele>19.9</ele>
        <time>2026-08-25T12:12:08Z</time>
      </trkpt>
      <trkpt lat="47.53639" lon="-2.7468">
        <ele>20</ele>
        <time>2026-08-25T12:12:09Z</time>
      </trkpt>
      <trkpt lat="47.53639" lon="-2.74685">
        <ele>20</ele>
        <time>2026-08-25T12:12:10Z</time>
      </trkpt>
      <trkpt lat="47.5364" lon="-2.74689">
        <ele>19.9</ele>
        <time>2026-08-25T12:12:11Z</time>
      </trkpt>
      <trkpt lat="47.5364" lon="-2.74694">
        <ele>19.9</ele>
        <time>2026-08-25T12:12:12Z</time>
      </trkpt>
      <trkpt lat="47.53639" lon="-2.74698">
        <ele>20</ele>
        <time>2026-08-25T12:12:13Z</time>
      </trkpt>
      <trkpt lat="47.53638" lon="-2.747">
        <ele>20</ele>
        <time>2026-08-25T12:12:14Z</time>
      </trkpt>
      <trkpt lat="47.53636" lon="-2.74699">
        <ele>19.9</ele>
        <time>2026-08-25T12:12:15Z</time>
      </trkpt>
      <trkpt lat="47.53633" lon="-2.74697">
        <ele>19.8</ele>
        <time>2026-08-25T12:12:16Z</time>
      </trkpt>
      <trkpt lat="47.53631" lon="-2.74697">
        <ele>19.7</ele>
        <time>2026-08-25T12:12:17Z</time>
      </trkpt>
      <trkpt lat="47.53629" lon="-2.74697">
        <ele>19.7</ele>
        <time>2026-08-25T12:12:18Z</time>
      </trkpt>
      <trkpt lat="47.53626" lon="-2.74698">
        <ele>19.6</ele>
        <time>2026-08-25T12:12:19Z</time>
      </trkpt>
      <trkpt lat="47.53623" lon="-2.747">
        <ele>19.5</ele>
        <time>2026-08-25T12:12:20Z</time>
      </trkpt>
      <trkpt lat="47.5362" lon="-2.74703">
        <ele>19.5</ele>
        <time>2026-08-25T12:12:21Z</time>
      </trkpt>
      <trkpt lat="47.53618" lon="-2.74707">
        <ele>19.6</ele>
        <time>2026-08-25T12:12:22Z</time>
      </trkpt>
      <trkpt lat="47.53615" lon="-2.7471">
        <ele>19.6</ele>
        <time>2026-08-25T12:12:23Z</time>
      </trkpt>
      <trkpt lat="47.53612" lon="-2.74715">
        <ele>19.7</ele>
        <time>2026-08-25T12:12:24Z</time>
      </trkpt>
      <trkpt lat="47.5361" lon="-2.74719">
        <ele>19.8</ele>
        <time>2026-08-25T12:12:25Z</time>
      </trkpt>
      <trkpt lat="47.53608" lon="-2.74724">
        <ele>19.9</ele>
        <time>2026-08-25T12:12:26Z</time>
      </trkpt>
      <trkpt lat="47.53607" lon="-2.74729">
        <ele>19.9</ele>
        <time>2026-08-25T12:12:27Z</time>
      </trkpt>
      <trkpt lat="47.53605" lon="-2.74733">
        <ele>19.8</ele>
        <time>2026-08-25T12:12:28Z</time>
      </trkpt>
      <trkpt lat="47.53603" lon="-2.74738">
        <ele>19.7</ele>
        <time>2026-08-25T12:12:29Z</time>
      </trkpt>
      <trkpt lat="47.53601" lon="-2.74742">
        <ele>19.6</ele>
        <time>2026-08-25T12:12:30Z</time>
      </trkpt>
      <trkpt lat="47.53599" lon="-2.74747">
        <ele>19.6</ele>
        <time>2026-08-25T12:12:31Z</time>
      </trkpt>
      <trkpt lat="47.53598" lon="-2.74751">
        <ele>19.5</ele>
        <time>2026-08-25T12:12:32Z</time>
      </trkpt>
      <trkpt lat="47.53596" lon="-2.74756">
        <ele>19.6</ele>
        <time>2026-08-25T12:12:33Z</time>
      </trkpt>
      <trkpt lat="47.53594" lon="-2.7476">
        <ele>19.6</ele>
        <time>2026-08-25T12:12:34Z</time>
      </trkpt>
      <trkpt lat="47.53592" lon="-2.74765">
        <ele>19.7</ele>
        <time>2026-08-25T12:12:35Z</time>
      </trkpt>
      <trkpt lat="47.5359" lon="-2.74769">
        <ele>19.8</ele>
        <time>2026-08-25T12:12:36Z</time>
      </trkpt>
      <trkpt lat="47.53588" lon="-2.74774">
        <ele>19.9</ele>
        <time>2026-08-25T12:12:37Z</time>
      </trkpt>
      <trkpt lat="47.53587" lon="-2.74778">
        <ele>20</ele>
        <time>2026-08-25T12:12:38Z</time>
      </trkpt>
      <trkpt lat="47.53585" lon="-2.74783">
        <ele>20.2</ele>
        <time>2026-08-25T12:12:39Z</time>
      </trkpt>
      <trkpt lat="47.53584" lon="-2.74787">
        <ele>20.3</ele>
        <time>2026-08-25T12:12:40Z</time>
      </trkpt>
      <trkpt lat="47.53582" lon="-2.74791">
        <ele>20.4</ele>
        <time>2026-08-25T12:12:41Z</time>
      </trkpt>
      <trkpt lat="47.5358" lon="-2.74796">
        <ele>20.5</ele>
        <time>2026-08-25T12:12:42Z</time>
      </trkpt>
      <trkpt lat="47.53578" lon="-2.74801">
        <ele>20.6</ele>
        <time>2026-08-25T12:12:43Z</time>
      </trkpt>
      <trkpt lat="47.53577" lon="-2.74806">
        <ele>20.8</ele>
        <time>2026-08-25T12:12:44Z</time>
      </trkpt>
      <trkpt lat="47.53576" lon="-2.74811">
        <ele>20.7</ele>
        <time>2026-08-25T12:12:45Z</time>
      </trkpt>
      <trkpt lat="47.53574" lon="-2.74816">
        <ele>20.7</ele>
        <time>2026-08-25T12:12:46Z</time>
      </trkpt>
      <trkpt lat="47.53573" lon="-2.7482">
        <ele>20.6</ele>
        <time>2026-08-25T12:12:47Z</time>
      </trkpt>
      <trkpt lat="47.53571" lon="-2.74825">
        <ele>20.6</ele>
        <time>2026-08-25T12:12:48Z</time>
      </trkpt>
      <trkpt lat="47.53569" lon="-2.74831">
        <ele>20.5</ele>
        <time>2026-08-25T12:12:49Z</time>
      </trkpt>
      <trkpt lat="47.53567" lon="-2.74836">
        <ele>20.5</ele>
        <time>2026-08-25T12:12:50Z</time>
      </trkpt>
      <trkpt lat="47.53566" lon="-2.74841">
        <ele>20.7</ele>
        <time>2026-08-25T12:12:51Z</time>
      </trkpt>
      <trkpt lat="47.53565" lon="-2.74847">
        <ele>20.8</ele>
        <time>2026-08-25T12:12:52Z</time>
      </trkpt>
      <trkpt lat="47.53563" lon="-2.74852">
        <ele>20.9</ele>
        <time>2026-08-25T12:12:53Z</time>
      </trkpt>
      <trkpt lat="47.53561" lon="-2.74858">
        <ele>21.1</ele>
        <time>2026-08-25T12:12:54Z</time>
      </trkpt>
      <trkpt lat="47.5356" lon="-2.74863">
        <ele>21.2</ele>
        <time>2026-08-25T12:12:55Z</time>
      </trkpt>
      <trkpt lat="47.53558" lon="-2.74869">
        <ele>21.1</ele>
        <time>2026-08-25T12:12:56Z</time>
      </trkpt>
      <trkpt lat="47.53556" lon="-2.74875">
        <ele>21</ele>
        <time>2026-08-25T12:12:57Z</time>
      </trkpt>
      <trkpt lat="47.53554" lon="-2.7488">
        <ele>20.9</ele>
        <time>2026-08-25T12:12:58Z</time>
      </trkpt>
      <trkpt lat="47.53553" lon="-2.74886">
        <ele>20.9</ele>
        <time>2026-08-25T12:12:59Z</time>
      </trkpt>
      <trkpt lat="47.53552" lon="-2.74892">
        <ele>20.9</ele>
        <time>2026-08-25T12:13:00Z</time>
      </trkpt>
      <trkpt lat="47.5355" lon="-2.74898">
        <ele>20.8</ele>
        <time>2026-08-25T12:13:01Z</time>
      </trkpt>
      <trkpt lat="47.53549" lon="-2.74904">
        <ele>20.8</ele>
        <time>2026-08-25T12:13:02Z</time>
      </trkpt>
      <trkpt lat="47.53547" lon="-2.7491">
        <ele>20.7</ele>
        <time>2026-08-25T12:13:03Z</time>
      </trkpt>
      <trkpt lat="47.53546" lon="-2.74916">
        <ele>20.7</ele>
        <time>2026-08-25T12:13:04Z</time>
      </trkpt>
      <trkpt lat="47.53545" lon="-2.74922">
        <ele>20.6</ele>
        <time>2026-08-25T12:13:05Z</time>
      </trkpt>
      <trkpt lat="47.53543" lon="-2.74928">
        <ele>20.5</ele>
        <time>2026-08-25T12:13:06Z</time>
      </trkpt>
      <trkpt lat="47.53542" lon="-2.74934">
        <ele>20.5</ele>
        <time>2026-08-25T12:13:07Z</time>
      </trkpt>
      <trkpt lat="47.53541" lon="-2.7494">
        <ele>20.5</ele>
        <time>2026-08-25T12:13:08Z</time>
      </trkpt>
      <trkpt lat="47.5354" lon="-2.74946">
        <ele>20.4</ele>
        <time>2026-08-25T12:13:09Z</time>
      </trkpt>
      <trkpt lat="47.53538" lon="-2.74952">
        <ele>20.4</ele>
        <time>2026-08-25T12:13:10Z</time>
      </trkpt>
      <trkpt lat="47.53537" lon="-2.74958">
        <ele>20.3</ele>
        <time>2026-08-25T12:13:11Z</time>
      </trkpt>
      <trkpt lat="47.53536" lon="-2.74964">
        <ele>20.3</ele>
        <time>2026-08-25T12:13:12Z</time>
      </trkpt>
      <trkpt lat="47.53535" lon="-2.7497">
        <ele>20.3</ele>
        <time>2026-08-25T12:13:13Z</time>
      </trkpt>
      <trkpt lat="47.53534" lon="-2.74976">
        <ele>20.3</ele>
        <time>2026-08-25T12:13:14Z</time>
      </trkpt>
      <trkpt lat="47.53533" lon="-2.74982">
        <ele>20.4</ele>
        <time>2026-08-25T12:13:15Z</time>
      </trkpt>
      <trkpt lat="47.53532" lon="-2.74989">
        <ele>20.6</ele>
        <time>2026-08-25T12:13:16Z</time>
      </trkpt>
      <trkpt lat="47.53531" lon="-2.74995">
        <ele>20.7</ele>
        <time>2026-08-25T12:13:17Z</time>
      </trkpt>
      <trkpt lat="47.53529" lon="-2.75001">
        <ele>21</ele>
        <time>2026-08-25T12:13:18Z</time>
      </trkpt>
      <trkpt lat="47.53528" lon="-2.75007">
        <ele>21</ele>
        <time>2026-08-25T12:13:19Z</time>
      </trkpt>
      <trkpt lat="47.53527" lon="-2.75013">
        <ele>21</ele>
        <time>2026-08-25T12:13:20Z</time>
      </trkpt>
      <trkpt lat="47.53525" lon="-2.7502">
        <ele>20.9</ele>
        <time>2026-08-25T12:13:21Z</time>
      </trkpt>
      <trkpt lat="47.53523" lon="-2.75026">
        <ele>20.8</ele>
        <time>2026-08-25T12:13:22Z</time>
      </trkpt>
      <trkpt lat="47.53522" lon="-2.75032">
        <ele>20.8</ele>
        <time>2026-08-25T12:13:23Z</time>
      </trkpt>
      <trkpt lat="47.5352" lon="-2.75037">
        <ele>20.7</ele>
        <time>2026-08-25T12:13:24Z</time>
      </trkpt>
      <trkpt lat="47.53519" lon="-2.75044">
        <ele>20.7</ele>
        <time>2026-08-25T12:13:25Z</time>
      </trkpt>
      <trkpt lat="47.53518" lon="-2.7505">
        <ele>20.6</ele>
        <time>2026-08-25T12:13:26Z</time>
      </trkpt>
      <trkpt lat="47.53516" lon="-2.75056">
        <ele>20.6</ele>
        <time>2026-08-25T12:13:27Z</time>
      </trkpt>
      <trkpt lat="47.53515" lon="-2.75062">
        <ele>20.5</ele>
        <time>2026-08-25T12:13:28Z</time>
      </trkpt>
      <trkpt lat="47.53513" lon="-2.75068">
        <ele>20.5</ele>
        <time>2026-08-25T12:13:29Z</time>
      </trkpt>
      <trkpt lat="47.5351" lon="-2.75074">
        <ele>20.4</ele>
        <time>2026-08-25T12:13:30Z</time>
      </trkpt>
      <trkpt lat="47.53508" lon="-2.75079">
        <ele>20.3</ele>
        <time>2026-08-25T12:13:31Z</time>
      </trkpt>
      <trkpt lat="47.53505" lon="-2.75084">
        <ele>20.2</ele>
        <time>2026-08-25T12:13:32Z</time>
      </trkpt>
      <trkpt lat="47.53503" lon="-2.7509">
        <ele>20.3</ele>
        <time>2026-08-25T12:13:33Z</time>
      </trkpt>
      <trkpt lat="47.53501" lon="-2.75096">
        <ele>20.5</ele>
        <time>2026-08-25T12:13:34Z</time>
      </trkpt>
      <trkpt lat="47.53499" lon="-2.75102">
        <ele>20.6</ele>
        <time>2026-08-25T12:13:35Z</time>
      </trkpt>
      <trkpt lat="47.53497" lon="-2.75108">
        <ele>20.8</ele>
        <time>2026-08-25T12:13:36Z</time>
      </trkpt>
      <trkpt lat="47.53495" lon="-2.75114">
        <ele>20.8</ele>
        <time>2026-08-25T12:13:37Z</time>
      </trkpt>
      <trkpt lat="47.53493" lon="-2.7512">
        <ele>20.7</ele>
        <time>2026-08-25T12:13:38Z</time>
      </trkpt>
      <trkpt lat="47.53492" lon="-2.75126">
        <ele>20.7</ele>
        <time>2026-08-25T12:13:39Z</time>
      </trkpt>
      <trkpt lat="47.5349" lon="-2.75132">
        <ele>20.6</ele>
        <time>2026-08-25T12:13:40Z</time>
      </trkpt>
      <trkpt lat="47.53488" lon="-2.75138">
        <ele>20.6</ele>
        <time>2026-08-25T12:13:41Z</time>
      </trkpt>
      <trkpt lat="47.53486" lon="-2.75144">
        <ele>20.6</ele>
        <time>2026-08-25T12:13:42Z</time>
      </trkpt>
      <trkpt lat="47.53484" lon="-2.75149">
        <ele>20.6</ele>
        <time>2026-08-25T12:13:43Z</time>
      </trkpt>
      <trkpt lat="47.53482" lon="-2.75155">
        <ele>20.7</ele>
        <time>2026-08-25T12:13:44Z</time>
      </trkpt>
      <trkpt lat="47.5348" lon="-2.75161">
        <ele>20.9</ele>
        <time>2026-08-25T12:13:45Z</time>
      </trkpt>
      <trkpt lat="47.53478" lon="-2.75167">
        <ele>21</ele>
        <time>2026-08-25T12:13:46Z</time>
      </trkpt>
      <trkpt lat="47.53477" lon="-2.75174">
        <ele>21</ele>
        <time>2026-08-25T12:13:47Z</time>
      </trkpt>
      <trkpt lat="47.53474" lon="-2.7518">
        <ele>21</ele>
        <time>2026-08-25T12:13:48Z</time>
      </trkpt>
      <trkpt lat="47.53472" lon="-2.75186">
        <ele>21</ele>
        <time>2026-08-25T12:13:49Z</time>
      </trkpt>
      <trkpt lat="47.53469" lon="-2.75191">
        <ele>20.9</ele>
        <time>2026-08-25T12:13:50Z</time>
      </trkpt>
      <trkpt lat="47.53466" lon="-2.75197">
        <ele>20.7</ele>
        <time>2026-08-25T12:13:51Z</time>
      </trkpt>
      <trkpt lat="47.53464" lon="-2.75203">
        <ele>20.5</ele>
        <time>2026-08-25T12:13:52Z</time>
      </trkpt>
      <trkpt lat="47.53461" lon="-2.75208">
        <ele>20.3</ele>
        <time>2026-08-25T12:13:53Z</time>
      </trkpt>
      <trkpt lat="47.53458" lon="-2.75214">
        <ele>20.1</ele>
        <time>2026-08-25T12:13:54Z</time>
      </trkpt>
      <trkpt lat="47.53455" lon="-2.7522">
        <ele>20</ele>
        <time>2026-08-25T12:13:55Z</time>
      </trkpt>
      <trkpt lat="47.53452" lon="-2.75225">
        <ele>20</ele>
        <time>2026-08-25T12:13:56Z</time>
      </trkpt>
      <trkpt lat="47.53449" lon="-2.75231">
        <ele>20</ele>
        <time>2026-08-25T12:13:57Z</time>
      </trkpt>
      <trkpt lat="47.53446" lon="-2.75237">
        <ele>20</ele>
        <time>2026-08-25T12:13:58Z</time>
      </trkpt>
      <trkpt lat="47.53443" lon="-2.75243">
        <ele>20</ele>
        <time>2026-08-25T12:13:59Z</time>
      </trkpt>
      <trkpt lat="47.5344" lon="-2.75248">
        <ele>20</ele>
        <time>2026-08-25T12:14:00Z</time>
      </trkpt>
      <trkpt lat="47.53438" lon="-2.75254">
        <ele>20</ele>
        <time>2026-08-25T12:14:01Z</time>
      </trkpt>
      <trkpt lat="47.53435" lon="-2.75259">
        <ele>20</ele>
        <time>2026-08-25T12:14:02Z</time>
      </trkpt>
      <trkpt lat="47.53432" lon="-2.75265">
        <ele>20</ele>
        <time>2026-08-25T12:14:03Z</time>
      </trkpt>
      <trkpt lat="47.53429" lon="-2.7527">
        <ele>20</ele>
        <time>2026-08-25T12:14:04Z</time>
      </trkpt>
      <trkpt lat="47.53425" lon="-2.75276">
        <ele>20</ele>
        <time>2026-08-25T12:14:05Z</time>
      </trkpt>
      <trkpt lat="47.53422" lon="-2.75282">
        <ele>19.8</ele>
        <time>2026-08-25T12:14:06Z</time>
      </trkpt>
      <trkpt lat="47.53419" lon="-2.75288">
        <ele>19.6</ele>
        <time>2026-08-25T12:14:07Z</time>
      </trkpt>
      <trkpt lat="47.53416" lon="-2.75294">
        <ele>19.4</ele>
        <time>2026-08-25T12:14:08Z</time>
      </trkpt>
      <trkpt lat="47.53413" lon="-2.753">
        <ele>19.2</ele>
        <time>2026-08-25T12:14:09Z</time>
      </trkpt>
      <trkpt lat="47.53409" lon="-2.75306">
        <ele>19</ele>
        <time>2026-08-25T12:14:10Z</time>
      </trkpt>
      <trkpt lat="47.53406" lon="-2.75311">
        <ele>19</ele>
        <time>2026-08-25T12:14:11Z</time>
      </trkpt>
      <trkpt lat="47.53403" lon="-2.75317">
        <ele>19</ele>
        <time>2026-08-25T12:14:12Z</time>
      </trkpt>
      <trkpt lat="47.53399" lon="-2.75323">
        <ele>19</ele>
        <time>2026-08-25T12:14:13Z</time>
      </trkpt>
      <trkpt lat="47.53396" lon="-2.75329">
        <ele>19</ele>
        <time>2026-08-25T12:14:14Z</time>
      </trkpt>
      <trkpt lat="47.53392" lon="-2.75335">
        <ele>19</ele>
        <time>2026-08-25T12:14:15Z</time>
      </trkpt>
      <trkpt lat="47.53389" lon="-2.75341">
        <ele>19</ele>
        <time>2026-08-25T12:14:16Z</time>
      </trkpt>
      <trkpt lat="47.53385" lon="-2.75346">
        <ele>18.9</ele>
        <time>2026-08-25T12:14:17Z</time>
      </trkpt>
      <trkpt lat="47.53381" lon="-2.75352">
        <ele>18.8</ele>
        <time>2026-08-25T12:14:18Z</time>
      </trkpt>
      <trkpt lat="47.53377" lon="-2.75357">
        <ele>18.6</ele>
        <time>2026-08-25T12:14:19Z</time>
      </trkpt>
      <trkpt lat="47.53373" lon="-2.75362">
        <ele>18.4</ele>
        <time>2026-08-25T12:14:20Z</time>
      </trkpt>
      <trkpt lat="47.5337" lon="-2.75368">
        <ele>18.2</ele>
        <time>2026-08-25T12:14:21Z</time>
      </trkpt>
      <trkpt lat="47.53366" lon="-2.75373">
        <ele>18.1</ele>
        <time>2026-08-25T12:14:22Z</time>
      </trkpt>
      <trkpt lat="47.53362" lon="-2.75379">
        <ele>18</ele>
        <time>2026-08-25T12:14:23Z</time>
      </trkpt>
      <trkpt lat="47.53358" lon="-2.75385">
        <ele>18.1</ele>
        <time>2026-08-25T12:14:24Z</time>
      </trkpt>
      <trkpt lat="47.53355" lon="-2.7539">
        <ele>18.2</ele>
        <time>2026-08-25T12:14:25Z</time>
      </trkpt>
      <trkpt lat="47.53351" lon="-2.75396">
        <ele>18.3</ele>
        <time>2026-08-25T12:14:26Z</time>
      </trkpt>
      <trkpt lat="47.53347" lon="-2.75401">
        <ele>18.3</ele>
        <time>2026-08-25T12:14:27Z</time>
      </trkpt>
      <trkpt lat="47.53344" lon="-2.75407">
        <ele>18.2</ele>
        <time>2026-08-25T12:14:28Z</time>
      </trkpt>
      <trkpt lat="47.5334" lon="-2.75412">
        <ele>18.1</ele>
        <time>2026-08-25T12:14:29Z</time>
      </trkpt>
      <trkpt lat="47.53337" lon="-2.75418">
        <ele>18</ele>
        <time>2026-08-25T12:14:30Z</time>
      </trkpt>
      <trkpt lat="47.53334" lon="-2.75423">
        <ele>18</ele>
        <time>2026-08-25T12:14:31Z</time>
      </trkpt>
      <trkpt lat="47.53331" lon="-2.75429">
        <ele>18.1</ele>
        <time>2026-08-25T12:14:32Z</time>
      </trkpt>
      <trkpt lat="47.53328" lon="-2.75435">
        <ele>18.2</ele>
        <time>2026-08-25T12:14:33Z</time>
      </trkpt>
      <trkpt lat="47.53326" lon="-2.75441">
        <ele>18.3</ele>
        <time>2026-08-25T12:14:34Z</time>
      </trkpt>
      <trkpt lat="47.53323" lon="-2.75447">
        <ele>18.4</ele>
        <time>2026-08-25T12:14:35Z</time>
      </trkpt>
      <trkpt lat="47.5332" lon="-2.75453">
        <ele>18.5</ele>
        <time>2026-08-25T12:14:36Z</time>
      </trkpt>
      <trkpt lat="47.53318" lon="-2.75458">
        <ele>18.6</ele>
        <time>2026-08-25T12:14:37Z</time>
      </trkpt>
      <trkpt lat="47.53315" lon="-2.75463">
        <ele>18.7</ele>
        <time>2026-08-25T12:14:38Z</time>
      </trkpt>
      <trkpt lat="47.53313" lon="-2.75468">
        <ele>18.7</ele>
        <time>2026-08-25T12:14:39Z</time>
      </trkpt>
      <trkpt lat="47.53311" lon="-2.75474">
        <ele>18.8</ele>
        <time>2026-08-25T12:14:40Z</time>
      </trkpt>
      <trkpt lat="47.53309" lon="-2.75479">
        <ele>18.9</ele>
        <time>2026-08-25T12:14:41Z</time>
      </trkpt>
      <trkpt lat="47.53307" lon="-2.75484">
        <ele>19</ele>
        <time>2026-08-25T12:14:42Z</time>
      </trkpt>
      <trkpt lat="47.53304" lon="-2.75489">
        <ele>19.1</ele>
        <time>2026-08-25T12:14:43Z</time>
      </trkpt>
      <trkpt lat="47.53302" lon="-2.75494">
        <ele>19.1</ele>
        <time>2026-08-25T12:14:44Z</time>
      </trkpt>
      <trkpt lat="47.533" lon="-2.75498">
        <ele>19.2</ele>
        <time>2026-08-25T12:14:45Z</time>
      </trkpt>
      <trkpt lat="47.53298" lon="-2.75503">
        <ele>19.4</ele>
        <time>2026-08-25T12:14:46Z</time>
      </trkpt>
      <trkpt lat="47.53296" lon="-2.75508">
        <ele>19.6</ele>
        <time>2026-08-25T12:14:47Z</time>
      </trkpt>
      <trkpt lat="47.53294" lon="-2.75513">
        <ele>19.9</ele>
        <time>2026-08-25T12:14:48Z</time>
      </trkpt>
      <trkpt lat="47.53292" lon="-2.75518">
        <ele>20.1</ele>
        <time>2026-08-25T12:14:49Z</time>
      </trkpt>
      <trkpt lat="47.5329" lon="-2.75522">
        <ele>20.4</ele>
        <time>2026-08-25T12:14:50Z</time>
      </trkpt>
      <trkpt lat="47.53288" lon="-2.75527">
        <ele>20.6</ele>
        <time>2026-08-25T12:14:51Z</time>
      </trkpt>
      <trkpt lat="47.53286" lon="-2.75532">
        <ele>20.7</ele>
        <time>2026-08-25T12:14:52Z</time>
      </trkpt>
      <trkpt lat="47.53284" lon="-2.75536">
        <ele>20.8</ele>
        <time>2026-08-25T12:14:53Z</time>
      </trkpt>
      <trkpt lat="47.53282" lon="-2.75541">
        <ele>20.9</ele>
        <time>2026-08-25T12:14:54Z</time>
      </trkpt>
      <trkpt lat="47.5328" lon="-2.75545">
        <ele>21</ele>
        <time>2026-08-25T12:14:55Z</time>
      </trkpt>
      <trkpt lat="47.53278" lon="-2.75549">
        <ele>21</ele>
        <time>2026-08-25T12:14:56Z</time>
      </trkpt>
      <trkpt lat="47.53276" lon="-2.75554">
        <ele>21.1</ele>
        <time>2026-08-25T12:14:57Z</time>
      </trkpt>
      <trkpt lat="47.53274" lon="-2.75558">
        <ele>21.3</ele>
        <time>2026-08-25T12:14:58Z</time>
      </trkpt>
      <trkpt lat="47.53272" lon="-2.75562">
        <ele>21.6</ele>
        <time>2026-08-25T12:14:59Z</time>
      </trkpt>
      <trkpt lat="47.53269" lon="-2.75566">
        <ele>21.9</ele>
        <time>2026-08-25T12:15:00Z</time>
      </trkpt>
      <trkpt lat="47.53267" lon="-2.75571">
        <ele>22.1</ele>
        <time>2026-08-25T12:15:01Z</time>
      </trkpt>
      <trkpt lat="47.53265" lon="-2.75575">
        <ele>22.3</ele>
        <time>2026-08-25T12:15:02Z</time>
      </trkpt>
      <trkpt lat="47.53263" lon="-2.75579">
        <ele>22.5</ele>
        <time>2026-08-25T12:15:03Z</time>
      </trkpt>
      <trkpt lat="47.53262" lon="-2.75583">
        <ele>22.6</ele>
        <time>2026-08-25T12:15:04Z</time>
      </trkpt>
      <trkpt lat="47.53259" lon="-2.75587">
        <ele>22.7</ele>
        <time>2026-08-25T12:15:05Z</time>
      </trkpt>
      <trkpt lat="47.53257" lon="-2.75592">
        <ele>22.7</ele>
        <time>2026-08-25T12:15:06Z</time>
      </trkpt>
      <trkpt lat="47.53256" lon="-2.75596">
        <ele>22.8</ele>
        <time>2026-08-25T12:15:07Z</time>
      </trkpt>
      <trkpt lat="47.53254" lon="-2.756">
        <ele>22.9</ele>
        <time>2026-08-25T12:15:08Z</time>
      </trkpt>
      <trkpt lat="47.53252" lon="-2.75605">
        <ele>22.9</ele>
        <time>2026-08-25T12:15:09Z</time>
      </trkpt>
      <trkpt lat="47.5325" lon="-2.75609">
        <ele>23</ele>
        <time>2026-08-25T12:15:10Z</time>
      </trkpt>
      <trkpt lat="47.53248" lon="-2.75613">
        <ele>23.2</ele>
        <time>2026-08-25T12:15:11Z</time>
      </trkpt>
      <trkpt lat="47.53246" lon="-2.75617">
        <ele>23.5</ele>
        <time>2026-08-25T12:15:12Z</time>
      </trkpt>
      <trkpt lat="47.53244" lon="-2.75621">
        <ele>23.7</ele>
        <time>2026-08-25T12:15:13Z</time>
      </trkpt>
      <trkpt lat="47.53242" lon="-2.75626">
        <ele>24</ele>
        <time>2026-08-25T12:15:14Z</time>
      </trkpt>
      <trkpt lat="47.5324" lon="-2.7563">
        <ele>24.2</ele>
        <time>2026-08-25T12:15:15Z</time>
      </trkpt>
      <trkpt lat="47.53239" lon="-2.75634">
        <ele>24.3</ele>
        <time>2026-08-25T12:15:16Z</time>
      </trkpt>
      <trkpt lat="47.53237" lon="-2.75638">
        <ele>24.5</ele>
        <time>2026-08-25T12:15:17Z</time>
      </trkpt>
      <trkpt lat="47.53235" lon="-2.75642">
        <ele>24.6</ele>
        <time>2026-08-25T12:15:18Z</time>
      </trkpt>
      <trkpt lat="47.53234" lon="-2.75646">
        <ele>24.7</ele>
        <time>2026-08-25T12:15:19Z</time>
      </trkpt>
      <trkpt lat="47.53232" lon="-2.7565">
        <ele>24.8</ele>
        <time>2026-08-25T12:15:20Z</time>
      </trkpt>
      <trkpt lat="47.5323" lon="-2.75654">
        <ele>24.9</ele>
        <time>2026-08-25T12:15:21Z</time>
      </trkpt>
      <trkpt lat="47.53228" lon="-2.75658">
        <ele>24.9</ele>
        <time>2026-08-25T12:15:22Z</time>
      </trkpt>
      <trkpt lat="47.53226" lon="-2.75662">
        <ele>25</ele>
        <time>2026-08-25T12:15:23Z</time>
      </trkpt>
      <trkpt lat="47.53224" lon="-2.75667">
        <ele>25</ele>
        <time>2026-08-25T12:15:24Z</time>
      </trkpt>
      <trkpt lat="47.53223" lon="-2.75671">
        <ele>25</ele>
        <time>2026-08-25T12:15:25Z</time>
      </trkpt>
      <trkpt lat="47.53221" lon="-2.75676">
        <ele>25</ele>
        <time>2026-08-25T12:15:26Z</time>
      </trkpt>
      <trkpt lat="47.53218" lon="-2.75681">
        <ele>25.1</ele>
        <time>2026-08-25T12:15:27Z</time>
      </trkpt>
      <trkpt lat="47.53216" lon="-2.75686">
        <ele>25.1</ele>
        <time>2026-08-25T12:15:28Z</time>
      </trkpt>
      <trkpt lat="47.53214" lon="-2.7569">
        <ele>25</ele>
        <time>2026-08-25T12:15:29Z</time>
      </trkpt>
      <trkpt lat="47.53212" lon="-2.75695">
        <ele>25</ele>
        <time>2026-08-25T12:15:30Z</time>
      </trkpt>
      <trkpt lat="47.5321" lon="-2.75699">
        <ele>25</ele>
        <time>2026-08-25T12:15:31Z</time>
      </trkpt>
      <trkpt lat="47.53207" lon="-2.75704">
        <ele>25</ele>
        <time>2026-08-25T12:15:32Z</time>
      </trkpt>
      <trkpt lat="47.53205" lon="-2.75709">
        <ele>25</ele>
        <time>2026-08-25T12:15:33Z</time>
      </trkpt>
      <trkpt lat="47.53203" lon="-2.75714">
        <ele>25</ele>
        <time>2026-08-25T12:15:34Z</time>
      </trkpt>
      <trkpt lat="47.53201" lon="-2.75719">
        <ele>25</ele>
        <time>2026-08-25T12:15:35Z</time>
      </trkpt>
      <trkpt lat="47.53199" lon="-2.75724">
        <ele>25</ele>
        <time>2026-08-25T12:15:36Z</time>
      </trkpt>
      <trkpt lat="47.53197" lon="-2.75729">
        <ele>25</ele>
        <time>2026-08-25T12:15:37Z</time>
      </trkpt>
      <trkpt lat="47.53194" lon="-2.75734">
        <ele>25</ele>
        <time>2026-08-25T12:15:38Z</time>
      </trkpt>
      <trkpt lat="47.53192" lon="-2.75738">
        <ele>25</ele>
        <time>2026-08-25T12:15:39Z</time>
      </trkpt>
      <trkpt lat="47.5319" lon="-2.75744">
        <ele>24.9</ele>
        <time>2026-08-25T12:15:40Z</time>
      </trkpt>
      <trkpt lat="47.53187" lon="-2.75749">
        <ele>24.7</ele>
        <time>2026-08-25T12:15:41Z</time>
      </trkpt>
      <trkpt lat="47.53185" lon="-2.75755">
        <ele>24.7</ele>
        <time>2026-08-25T12:15:42Z</time>
      </trkpt>
      <trkpt lat="47.53183" lon="-2.75761">
        <ele>24.6</ele>
        <time>2026-08-25T12:15:43Z</time>
      </trkpt>
      <trkpt lat="47.5318" lon="-2.75767">
        <ele>24.5</ele>
        <time>2026-08-25T12:15:44Z</time>
      </trkpt>
      <trkpt lat="47.53178" lon="-2.75773">
        <ele>24.4</ele>
        <time>2026-08-25T12:15:45Z</time>
      </trkpt>
      <trkpt lat="47.53175" lon="-2.75779">
        <ele>24.3</ele>
        <time>2026-08-25T12:15:46Z</time>
      </trkpt>
      <trkpt lat="47.53173" lon="-2.75785">
        <ele>24.3</ele>
        <time>2026-08-25T12:15:47Z</time>
      </trkpt>
      <trkpt lat="47.5317" lon="-2.75791">
        <ele>24.2</ele>
        <time>2026-08-25T12:15:48Z</time>
      </trkpt>
      <trkpt lat="47.53167" lon="-2.75798">
        <ele>24</ele>
        <time>2026-08-25T12:15:49Z</time>
      </trkpt>
      <trkpt lat="47.53165" lon="-2.75804">
        <ele>23.9</ele>
        <time>2026-08-25T12:15:50Z</time>
      </trkpt>
      <trkpt lat="47.53162" lon="-2.75811">
        <ele>23.5</ele>
        <time>2026-08-25T12:15:51Z</time>
      </trkpt>
      <trkpt lat="47.5316" lon="-2.75818">
        <ele>23.2</ele>
        <time>2026-08-25T12:15:52Z</time>
      </trkpt>
      <trkpt lat="47.53159" lon="-2.75824">
        <ele>23</ele>
        <time>2026-08-25T12:15:53Z</time>
      </trkpt>
      <trkpt lat="47.53157" lon="-2.75831">
        <ele>22.7</ele>
        <time>2026-08-25T12:15:54Z</time>
      </trkpt>
      <trkpt lat="47.53155" lon="-2.75838">
        <ele>22.6</ele>
        <time>2026-08-25T12:15:55Z</time>
      </trkpt>
      <trkpt lat="47.53154" lon="-2.75845">
        <ele>22.5</ele>
        <time>2026-08-25T12:15:56Z</time>
      </trkpt>
      <trkpt lat="47.53155" lon="-2.75852">
        <ele>22.6</ele>
        <time>2026-08-25T12:15:57Z</time>
      </trkpt>
      <trkpt lat="47.53156" lon="-2.75858">
        <ele>22.6</ele>
        <time>2026-08-25T12:15:58Z</time>
      </trkpt>
      <trkpt lat="47.53155" lon="-2.75865">
        <ele>22.4</ele>
        <time>2026-08-25T12:15:59Z</time>
      </trkpt>
      <trkpt lat="47.53155" lon="-2.75872">
        <ele>22.2</ele>
        <time>2026-08-25T12:16:00Z</time>
      </trkpt>
      <trkpt lat="47.53154" lon="-2.75879">
        <ele>21.9</ele>
        <time>2026-08-25T12:16:01Z</time>
      </trkpt>
      <trkpt lat="47.53153" lon="-2.75887">
        <ele>21.6</ele>
        <time>2026-08-25T12:16:02Z</time>
      </trkpt>
      <trkpt lat="47.53153" lon="-2.75895">
        <ele>21.5</ele>
        <time>2026-08-25T12:16:03Z</time>
      </trkpt>
      <trkpt lat="47.53152" lon="-2.75903">
        <ele>21.5</ele>
        <time>2026-08-25T12:16:04Z</time>
      </trkpt>
      <trkpt lat="47.53151" lon="-2.75912">
        <ele>21.4</ele>
        <time>2026-08-25T12:16:05Z</time>
      </trkpt>
      <trkpt lat="47.5315" lon="-2.7592">
        <ele>21.4</ele>
        <time>2026-08-25T12:16:06Z</time>
      </trkpt>
      <trkpt lat="47.53149" lon="-2.75929">
        <ele>21.2</ele>
        <time>2026-08-25T12:16:07Z</time>
      </trkpt>
      <trkpt lat="47.53148" lon="-2.75937">
        <ele>21.1</ele>
        <time>2026-08-25T12:16:08Z</time>
      </trkpt>
      <trkpt lat="47.53148" lon="-2.75946">
        <ele>21</ele>
        <time>2026-08-25T12:16:09Z</time>
      </trkpt>
      <trkpt lat="47.53147" lon="-2.75954">
        <ele>20.9</ele>
        <time>2026-08-25T12:16:10Z</time>
      </trkpt>
      <trkpt lat="47.53146" lon="-2.75961">
        <ele>20.8</ele>
        <time>2026-08-25T12:16:11Z</time>
      </trkpt>
      <trkpt lat="47.53145" lon="-2.75969">
        <ele>20.8</ele>
        <time>2026-08-25T12:16:12Z</time>
      </trkpt>
      <trkpt lat="47.53144" lon="-2.75976">
        <ele>20.8</ele>
        <time>2026-08-25T12:16:13Z</time>
      </trkpt>
      <trkpt lat="47.53143" lon="-2.75983">
        <ele>20.8</ele>
        <time>2026-08-25T12:16:14Z</time>
      </trkpt>
      <trkpt lat="47.53143" lon="-2.7599">
        <ele>20.8</ele>
        <time>2026-08-25T12:16:15Z</time>
      </trkpt>
      <trkpt lat="47.53142" lon="-2.75997">
        <ele>20.8</ele>
        <time>2026-08-25T12:16:16Z</time>
      </trkpt>
      <trkpt lat="47.53141" lon="-2.76004">
        <ele>20.9</ele>
        <time>2026-08-25T12:16:17Z</time>
      </trkpt>
      <trkpt lat="47.5314" lon="-2.7601">
        <ele>20.9</ele>
        <time>2026-08-25T12:16:18Z</time>
      </trkpt>
      <trkpt lat="47.53139" lon="-2.76017">
        <ele>21</ele>
        <time>2026-08-25T12:16:19Z</time>
      </trkpt>
      <trkpt lat="47.53138" lon="-2.76023">
        <ele>21</ele>
        <time>2026-08-25T12:16:20Z</time>
      </trkpt>
      <trkpt lat="47.53137" lon="-2.7603">
        <ele>21.1</ele>
        <time>2026-08-25T12:16:21Z</time>
      </trkpt>
      <trkpt lat="47.53136" lon="-2.76036">
        <ele>21.1</ele>
        <time>2026-08-25T12:16:22Z</time>
      </trkpt>
      <trkpt lat="47.53135" lon="-2.76042">
        <ele>21.1</ele>
        <time>2026-08-25T12:16:23Z</time>
      </trkpt>
      <trkpt lat="47.53134" lon="-2.76048">
        <ele>21.2</ele>
        <time>2026-08-25T12:16:24Z</time>
      </trkpt>
      <trkpt lat="47.53133" lon="-2.76054">
        <ele>21.2</ele>
        <time>2026-08-25T12:16:25Z</time>
      </trkpt>
      <trkpt lat="47.53133" lon="-2.76061">
        <ele>21.4</ele>
        <time>2026-08-25T12:16:26Z</time>
      </trkpt>
      <trkpt lat="47.53132" lon="-2.76066">
        <ele>21.6</ele>
        <time>2026-08-25T12:16:27Z</time>
      </trkpt>
      <trkpt lat="47.53131" lon="-2.76072">
        <ele>21.9</ele>
        <time>2026-08-25T12:16:28Z</time>
      </trkpt>
      <trkpt lat="47.53129" lon="-2.76078">
        <ele>22.2</ele>
        <time>2026-08-25T12:16:29Z</time>
      </trkpt>
      <trkpt lat="47.53128" lon="-2.76083">
        <ele>22.4</ele>
        <time>2026-08-25T12:16:30Z</time>
      </trkpt>
      <trkpt lat="47.53126" lon="-2.76089">
        <ele>22.6</ele>
        <time>2026-08-25T12:16:31Z</time>
      </trkpt>
      <trkpt lat="47.53124" lon="-2.76094">
        <ele>22.7</ele>
        <time>2026-08-25T12:16:32Z</time>
      </trkpt>
      <trkpt lat="47.53123" lon="-2.761">
        <ele>22.8</ele>
        <time>2026-08-25T12:16:33Z</time>
      </trkpt>
      <trkpt lat="47.53122" lon="-2.76106">
        <ele>22.9</ele>
        <time>2026-08-25T12:16:34Z</time>
      </trkpt>
      <trkpt lat="47.5312" lon="-2.76111">
        <ele>23</ele>
        <time>2026-08-25T12:16:35Z</time>
      </trkpt>
      <trkpt lat="47.53118" lon="-2.76116">
        <ele>23</ele>
        <time>2026-08-25T12:16:36Z</time>
      </trkpt>
      <trkpt lat="47.53117" lon="-2.76121">
        <ele>23</ele>
        <time>2026-08-25T12:16:37Z</time>
      </trkpt>
      <trkpt lat="47.53115" lon="-2.76126">
        <ele>23</ele>
        <time>2026-08-25T12:16:38Z</time>
      </trkpt>
      <trkpt lat="47.53113" lon="-2.76131">
        <ele>23</ele>
        <time>2026-08-25T12:16:39Z</time>
      </trkpt>
      <trkpt lat="47.53111" lon="-2.76136">
        <ele>23</ele>
        <time>2026-08-25T12:16:40Z</time>
      </trkpt>
      <trkpt lat="47.5311" lon="-2.76141">
        <ele>23.1</ele>
        <time>2026-08-25T12:16:41Z</time>
      </trkpt>
      <trkpt lat="47.53108" lon="-2.76145">
        <ele>23.3</ele>
        <time>2026-08-25T12:16:42Z</time>
      </trkpt>
      <trkpt lat="47.53106" lon="-2.7615">
        <ele>23.5</ele>
        <time>2026-08-25T12:16:43Z</time>
      </trkpt>
      <trkpt lat="47.53105" lon="-2.76155">
        <ele>23.7</ele>
        <time>2026-08-25T12:16:44Z</time>
      </trkpt>
      <trkpt lat="47.53103" lon="-2.76159">
        <ele>23.8</ele>
        <time>2026-08-25T12:16:45Z</time>
      </trkpt>
      <trkpt lat="47.53102" lon="-2.76164">
        <ele>23.9</ele>
        <time>2026-08-25T12:16:46Z</time>
      </trkpt>
      <trkpt lat="47.531" lon="-2.76169">
        <ele>24.1</ele>
        <time>2026-08-25T12:16:47Z</time>
      </trkpt>
      <trkpt lat="47.53098" lon="-2.76174">
        <ele>24.1</ele>
        <time>2026-08-25T12:16:48Z</time>
      </trkpt>
      <trkpt lat="47.53096" lon="-2.76179">
        <ele>24.2</ele>
        <time>2026-08-25T12:16:49Z</time>
      </trkpt>
      <trkpt lat="47.53094" lon="-2.76184">
        <ele>24.2</ele>
        <time>2026-08-25T12:16:50Z</time>
      </trkpt>
      <trkpt lat="47.53092" lon="-2.76189">
        <ele>24.3</ele>
        <time>2026-08-25T12:16:51Z</time>
      </trkpt>
      <trkpt lat="47.53091" lon="-2.76194">
        <ele>24.3</ele>
        <time>2026-08-25T12:16:52Z</time>
      </trkpt>
      <trkpt lat="47.53089" lon="-2.76199">
        <ele>24.2</ele>
        <time>2026-08-25T12:16:53Z</time>
      </trkpt>
      <trkpt lat="47.53087" lon="-2.76204">
        <ele>24.1</ele>
        <time>2026-08-25T12:16:54Z</time>
      </trkpt>
      <trkpt lat="47.53085" lon="-2.76209">
        <ele>24.1</ele>
        <time>2026-08-25T12:16:55Z</time>
      </trkpt>
      <trkpt lat="47.53083" lon="-2.76214">
        <ele>24</ele>
        <time>2026-08-25T12:16:56Z</time>
      </trkpt>
      <trkpt lat="47.53081" lon="-2.76219">
        <ele>24</ele>
        <time>2026-08-25T12:16:57Z</time>
      </trkpt>
      <trkpt lat="47.53079" lon="-2.76224">
        <ele>24</ele>
        <time>2026-08-25T12:16:58Z</time>
      </trkpt>
      <trkpt lat="47.53077" lon="-2.76229">
        <ele>23.9</ele>
        <time>2026-08-25T12:16:59Z</time>
      </trkpt>
      <trkpt lat="47.53075" lon="-2.76235">
        <ele>23.9</ele>
        <time>2026-08-25T12:17:00Z</time>
      </trkpt>
      <trkpt lat="47.53073" lon="-2.7624">
        <ele>23.8</ele>
        <time>2026-08-25T12:17:01Z</time>
      </trkpt>
      <trkpt lat="47.5307" lon="-2.76246">
        <ele>23.6</ele>
        <time>2026-08-25T12:17:02Z</time>
      </trkpt>
      <trkpt lat="47.53068" lon="-2.76251">
        <ele>23.4</ele>
        <time>2026-08-25T12:17:03Z</time>
      </trkpt>
      <trkpt lat="47.53066" lon="-2.76257">
        <ele>23.4</ele>
        <time>2026-08-25T12:17:04Z</time>
      </trkpt>
      <trkpt lat="47.53064" lon="-2.76263">
        <ele>23.3</ele>
        <time>2026-08-25T12:17:05Z</time>
      </trkpt>
      <trkpt lat="47.53063" lon="-2.76268">
        <ele>23.3</ele>
        <time>2026-08-25T12:17:06Z</time>
      </trkpt>
      <trkpt lat="47.53061" lon="-2.76274">
        <ele>23.2</ele>
        <time>2026-08-25T12:17:07Z</time>
      </trkpt>
      <trkpt lat="47.53059" lon="-2.7628">
        <ele>23.1</ele>
        <time>2026-08-25T12:17:08Z</time>
      </trkpt>
      <trkpt lat="47.53057" lon="-2.76285">
        <ele>23.1</ele>
        <time>2026-08-25T12:17:09Z</time>
      </trkpt>
      <trkpt lat="47.53055" lon="-2.76291">
        <ele>23</ele>
        <time>2026-08-25T12:17:10Z</time>
      </trkpt>
      <trkpt lat="47.53053" lon="-2.76297">
        <ele>23</ele>
        <time>2026-08-25T12:17:11Z</time>
      </trkpt>
      <trkpt lat="47.53051" lon="-2.76303">
        <ele>23</ele>
        <time>2026-08-25T12:17:12Z</time>
      </trkpt>
      <trkpt lat="47.53049" lon="-2.76309">
        <ele>22.9</ele>
        <time>2026-08-25T12:17:13Z</time>
      </trkpt>
      <trkpt lat="47.53047" lon="-2.76315">
        <ele>22.8</ele>
        <time>2026-08-25T12:17:14Z</time>
      </trkpt>
      <trkpt lat="47.53045" lon="-2.76321">
        <ele>22.7</ele>
        <time>2026-08-25T12:17:15Z</time>
      </trkpt>
      <trkpt lat="47.53043" lon="-2.76327">
        <ele>22.6</ele>
        <time>2026-08-25T12:17:16Z</time>
      </trkpt>
      <trkpt lat="47.53042" lon="-2.76332">
        <ele>22.5</ele>
        <time>2026-08-25T12:17:17Z</time>
      </trkpt>
      <trkpt lat="47.5304" lon="-2.76338">
        <ele>22.6</ele>
        <time>2026-08-25T12:17:18Z</time>
      </trkpt>
      <trkpt lat="47.53038" lon="-2.76343">
        <ele>22.6</ele>
        <time>2026-08-25T12:17:19Z</time>
      </trkpt>
      <trkpt lat="47.53035" lon="-2.76347">
        <ele>22.7</ele>
        <time>2026-08-25T12:17:20Z</time>
      </trkpt>
      <trkpt lat="47.53032" lon="-2.7635">
        <ele>22.8</ele>
        <time>2026-08-25T12:17:21Z</time>
      </trkpt>
      <trkpt lat="47.53029" lon="-2.76352">
        <ele>23</ele>
        <time>2026-08-25T12:17:22Z</time>
      </trkpt>
      <trkpt lat="47.53025" lon="-2.76352">
        <ele>23.1</ele>
        <time>2026-08-25T12:17:23Z</time>
      </trkpt>
      <trkpt lat="47.53021" lon="-2.76351">
        <ele>23.2</ele>
        <time>2026-08-25T12:17:24Z</time>
      </trkpt>
      <trkpt lat="47.53017" lon="-2.76349">
        <ele>23.2</ele>
        <time>2026-08-25T12:17:25Z</time>
      </trkpt>
      <trkpt lat="47.53013" lon="-2.76346">
        <ele>23.2</ele>
        <time>2026-08-25T12:17:26Z</time>
      </trkpt>
      <trkpt lat="47.53009" lon="-2.76343">
        <ele>23.2</ele>
        <time>2026-08-25T12:17:27Z</time>
      </trkpt>
      <trkpt lat="47.53005" lon="-2.76341">
        <ele>23.2</ele>
        <time>2026-08-25T12:17:28Z</time>
      </trkpt>
      <trkpt lat="47.53002" lon="-2.76338">
        <ele>23.2</ele>
        <time>2026-08-25T12:17:29Z</time>
      </trkpt>
      <trkpt lat="47.52998" lon="-2.76335">
        <ele>23.1</ele>
        <time>2026-08-25T12:17:30Z</time>
      </trkpt>
      <trkpt lat="47.52994" lon="-2.76332">
        <ele>23</ele>
        <time>2026-08-25T12:17:31Z</time>
      </trkpt>
      <trkpt lat="47.5299" lon="-2.7633">
        <ele>23</ele>
        <time>2026-08-25T12:17:32Z</time>
      </trkpt>
      <trkpt lat="47.52986" lon="-2.76328">
        <ele>23</ele>
        <time>2026-08-25T12:17:33Z</time>
      </trkpt>
      <trkpt lat="47.52981" lon="-2.76328">
        <ele>23</ele>
        <time>2026-08-25T12:17:34Z</time>
      </trkpt>
      <trkpt lat="47.52977" lon="-2.76329">
        <ele>23</ele>
        <time>2026-08-25T12:17:35Z</time>
      </trkpt>
      <trkpt lat="47.52973" lon="-2.7633">
        <ele>23</ele>
        <time>2026-08-25T12:17:36Z</time>
      </trkpt>
      <trkpt lat="47.52969" lon="-2.76331">
        <ele>23</ele>
        <time>2026-08-25T12:17:37Z</time>
      </trkpt>
      <trkpt lat="47.52965" lon="-2.76332">
        <ele>23</ele>
        <time>2026-08-25T12:17:38Z</time>
      </trkpt>
      <trkpt lat="47.52961" lon="-2.76334">
        <ele>23</ele>
        <time>2026-08-25T12:17:39Z</time>
      </trkpt>
      <trkpt lat="47.52957" lon="-2.76335">
        <ele>23.1</ele>
        <time>2026-08-25T12:17:40Z</time>
      </trkpt>
      <trkpt lat="47.52953" lon="-2.76337">
        <ele>23.1</ele>
        <time>2026-08-25T12:17:41Z</time>
      </trkpt>
      <trkpt lat="47.52949" lon="-2.76338">
        <ele>23.2</ele>
        <time>2026-08-25T12:17:42Z</time>
      </trkpt>
      <trkpt lat="47.52945" lon="-2.76339">
        <ele>23.2</ele>
        <time>2026-08-25T12:17:43Z</time>
      </trkpt>
      <trkpt lat="47.52941" lon="-2.76341">
        <ele>23.3</ele>
        <time>2026-08-25T12:17:44Z</time>
      </trkpt>
      <trkpt lat="47.52937" lon="-2.76342">
        <ele>23.3</ele>
        <time>2026-08-25T12:17:45Z</time>
      </trkpt>
      <trkpt lat="47.52933" lon="-2.76343">
        <ele>23.3</ele>
        <time>2026-08-25T12:17:46Z</time>
      </trkpt>
      <trkpt lat="47.52929" lon="-2.76344">
        <ele>23.4</ele>
        <time>2026-08-25T12:17:47Z</time>
      </trkpt>
      <trkpt lat="47.52925" lon="-2.76346">
        <ele>23.5</ele>
        <time>2026-08-25T12:17:48Z</time>
      </trkpt>
      <trkpt lat="47.52922" lon="-2.76347">
        <ele>23.5</ele>
        <time>2026-08-25T12:17:49Z</time>
      </trkpt>
      <trkpt lat="47.52918" lon="-2.76349">
        <ele>23.6</ele>
        <time>2026-08-25T12:17:50Z</time>
      </trkpt>
      <trkpt lat="47.52914" lon="-2.7635">
        <ele>23.6</ele>
        <time>2026-08-25T12:17:51Z</time>
      </trkpt>
      <trkpt lat="47.5291" lon="-2.76351">
        <ele>23.7</ele>
        <time>2026-08-25T12:17:52Z</time>
      </trkpt>
      <trkpt lat="47.52907" lon="-2.76353">
        <ele>23.8</ele>
        <time>2026-08-25T12:17:53Z</time>
      </trkpt>
      <trkpt lat="47.52903" lon="-2.76354">
        <ele>23.9</ele>
        <time>2026-08-25T12:17:54Z</time>
      </trkpt>
      <trkpt lat="47.52899" lon="-2.76355">
        <ele>23.9</ele>
        <time>2026-08-25T12:17:55Z</time>
      </trkpt>
      <trkpt lat="47.52895" lon="-2.76356">
        <ele>24</ele>
        <time>2026-08-25T12:17:56Z</time>
      </trkpt>
      <trkpt lat="47.52892" lon="-2.76358">
        <ele>24</ele>
        <time>2026-08-25T12:17:57Z</time>
      </trkpt>
      <trkpt lat="47.52888" lon="-2.76359">
        <ele>24</ele>
        <time>2026-08-25T12:17:58Z</time>
      </trkpt>
      <trkpt lat="47.52884" lon="-2.7636">
        <ele>24.2</ele>
        <time>2026-08-25T12:17:59Z</time>
      </trkpt>
      <trkpt lat="47.52881" lon="-2.76361">
        <ele>24.3</ele>
        <time>2026-08-25T12:18:00Z</time>
      </trkpt>
      <trkpt lat="47.52877" lon="-2.76362">
        <ele>24.4</ele>
        <time>2026-08-25T12:18:01Z</time>
      </trkpt>
      <trkpt lat="47.52874" lon="-2.76364">
        <ele>24.6</ele>
        <time>2026-08-25T12:18:02Z</time>
      </trkpt>
      <trkpt lat="47.5287" lon="-2.76365">
        <ele>24.7</ele>
        <time>2026-08-25T12:18:03Z</time>
      </trkpt>
      <trkpt lat="47.52868" lon="-2.76368">
        <ele>24.8</ele>
        <time>2026-08-25T12:18:04Z</time>
      </trkpt>
      <trkpt lat="47.52866" lon="-2.76372">
        <ele>24.9</ele>
        <time>2026-08-25T12:18:05Z</time>
      </trkpt>
      <trkpt lat="47.52864" lon="-2.76376">
        <ele>25</ele>
        <time>2026-08-25T12:18:06Z</time>
      </trkpt>
      <trkpt lat="47.52862" lon="-2.7638">
        <ele>25</ele>
        <time>2026-08-25T12:18:07Z</time>
      </trkpt>
      <trkpt lat="47.52861" lon="-2.76384">
        <ele>25</ele>
        <time>2026-08-25T12:18:08Z</time>
      </trkpt>
      <trkpt lat="47.52859" lon="-2.76387">
        <ele>25.1</ele>
        <time>2026-08-25T12:18:09Z</time>
      </trkpt>
      <trkpt lat="47.52858" lon="-2.76391">
        <ele>25.2</ele>
        <time>2026-08-25T12:18:10Z</time>
      </trkpt>
      <trkpt lat="47.52857" lon="-2.76395">
        <ele>25.3</ele>
        <time>2026-08-25T12:18:11Z</time>
      </trkpt>
      <trkpt lat="47.52855" lon="-2.76398">
        <ele>25.5</ele>
        <time>2026-08-25T12:18:12Z</time>
      </trkpt>
      <trkpt lat="47.52853" lon="-2.76401">
        <ele>25.6</ele>
        <time>2026-08-25T12:18:13Z</time>
      </trkpt>
      <trkpt lat="47.52851" lon="-2.76405">
        <ele>25.7</ele>
        <time>2026-08-25T12:18:14Z</time>
      </trkpt>
      <trkpt lat="47.52848" lon="-2.76407">
        <ele>25.8</ele>
        <time>2026-08-25T12:18:15Z</time>
      </trkpt>
      <trkpt lat="47.52845" lon="-2.7641">
        <ele>25.9</ele>
        <time>2026-08-25T12:18:16Z</time>
      </trkpt>
      <trkpt lat="47.52841" lon="-2.76411">
        <ele>25.9</ele>
        <time>2026-08-25T12:18:17Z</time>
      </trkpt>
      <trkpt lat="47.52838" lon="-2.76412">
        <ele>26</ele>
        <time>2026-08-25T12:18:18Z</time>
      </trkpt>
      <trkpt lat="47.52835" lon="-2.76411">
        <ele>26</ele>
        <time>2026-08-25T12:18:19Z</time>
      </trkpt>
      <trkpt lat="47.52831" lon="-2.76409">
        <ele>26.1</ele>
        <time>2026-08-25T12:18:20Z</time>
      </trkpt>
      <trkpt lat="47.52828" lon="-2.76407">
        <ele>26.2</ele>
        <time>2026-08-25T12:18:21Z</time>
      </trkpt>
      <trkpt lat="47.52825" lon="-2.76405">
        <ele>26.3</ele>
        <time>2026-08-25T12:18:22Z</time>
      </trkpt>
      <trkpt lat="47.52821" lon="-2.76405">
        <ele>26.4</ele>
        <time>2026-08-25T12:18:23Z</time>
      </trkpt>
      <trkpt lat="47.52818" lon="-2.76406">
        <ele>26.6</ele>
        <time>2026-08-25T12:18:24Z</time>
      </trkpt>
      <trkpt lat="47.52815" lon="-2.76408">
        <ele>26.7</ele>
        <time>2026-08-25T12:18:25Z</time>
      </trkpt>
      <trkpt lat="47.52812" lon="-2.76411">
        <ele>26.8</ele>
        <time>2026-08-25T12:18:26Z</time>
      </trkpt>
      <trkpt lat="47.5281" lon="-2.76413">
        <ele>26.8</ele>
        <time>2026-08-25T12:18:27Z</time>
      </trkpt>
      <trkpt lat="47.52807" lon="-2.76416">
        <ele>26.9</ele>
        <time>2026-08-25T12:18:28Z</time>
      </trkpt>
      <trkpt lat="47.52804" lon="-2.76419">
        <ele>27.1</ele>
        <time>2026-08-25T12:18:29Z</time>
      </trkpt>
      <trkpt lat="47.52802" lon="-2.76423">
        <ele>27.1</ele>
        <time>2026-08-25T12:18:30Z</time>
      </trkpt>
      <trkpt lat="47.528" lon="-2.76428">
        <ele>27.1</ele>
        <time>2026-08-25T12:18:31Z</time>
      </trkpt>
      <trkpt lat="47.52799" lon="-2.76433">
        <ele>27.1</ele>
        <time>2026-08-25T12:18:32Z</time>
      </trkpt>
      <trkpt lat="47.52799" lon="-2.76439">
        <ele>27</ele>
        <time>2026-08-25T12:18:33Z</time>
      </trkpt>
      <trkpt lat="47.528" lon="-2.76444">
        <ele>27</ele>
        <time>2026-08-25T12:18:34Z</time>
      </trkpt>
      <trkpt lat="47.52801" lon="-2.76449">
        <ele>27</ele>
        <time>2026-08-25T12:18:35Z</time>
      </trkpt>
      <trkpt lat="47.52803" lon="-2.76454">
        <ele>27</ele>
        <time>2026-08-25T12:18:36Z</time>
      </trkpt>
      <trkpt lat="47.52805" lon="-2.76459">
        <ele>27</ele>
        <time>2026-08-25T12:18:37Z</time>
      </trkpt>
      <trkpt lat="47.52806" lon="-2.76465">
        <ele>27</ele>
        <time>2026-08-25T12:18:38Z</time>
      </trkpt>
      <trkpt lat="47.52806" lon="-2.76471">
        <ele>27</ele>
        <time>2026-08-25T12:18:39Z</time>
      </trkpt>
      <trkpt lat="47.52804" lon="-2.76476">
        <ele>27</ele>
        <time>2026-08-25T12:18:40Z</time>
      </trkpt>
      <trkpt lat="47.52802" lon="-2.7648">
        <ele>27.1</ele>
        <time>2026-08-25T12:18:41Z</time>
      </trkpt>
      <trkpt lat="47.52799" lon="-2.76485">
        <ele>27.1</ele>
        <time>2026-08-25T12:18:42Z</time>
      </trkpt>
      <trkpt lat="47.52796" lon="-2.76488">
        <ele>27.1</ele>
        <time>2026-08-25T12:18:43Z</time>
      </trkpt>
      <trkpt lat="47.52794" lon="-2.76492">
        <ele>27.1</ele>
        <time>2026-08-25T12:18:44Z</time>
      </trkpt>
      <trkpt lat="47.52791" lon="-2.76496">
        <ele>27.1</ele>
        <time>2026-08-25T12:18:45Z</time>
      </trkpt>
      <trkpt lat="47.52788" lon="-2.765">
        <ele>27</ele>
        <time>2026-08-25T12:18:46Z</time>
      </trkpt>
      <trkpt lat="47.52785" lon="-2.76504">
        <ele>27.1</ele>
        <time>2026-08-25T12:18:47Z</time>
      </trkpt>
      <trkpt lat="47.52783" lon="-2.76507">
        <ele>27.3</ele>
        <time>2026-08-25T12:18:48Z</time>
      </trkpt>
      <trkpt lat="47.5278" lon="-2.7651">
        <ele>27.4</ele>
        <time>2026-08-25T12:18:49Z</time>
      </trkpt>
      <trkpt lat="47.52777" lon="-2.76514">
        <ele>27.5</ele>
        <time>2026-08-25T12:18:50Z</time>
      </trkpt>
      <trkpt lat="47.52773" lon="-2.76516">
        <ele>27.6</ele>
        <time>2026-08-25T12:18:51Z</time>
      </trkpt>
      <trkpt lat="47.5277" lon="-2.76519">
        <ele>27.8</ele>
        <time>2026-08-25T12:18:52Z</time>
      </trkpt>
      <trkpt lat="47.52767" lon="-2.76522">
        <ele>27.9</ele>
        <time>2026-08-25T12:18:53Z</time>
      </trkpt>
      <trkpt lat="47.52764" lon="-2.76525">
        <ele>27.9</ele>
        <time>2026-08-25T12:18:54Z</time>
      </trkpt>
      <trkpt lat="47.52762" lon="-2.76528">
        <ele>28</ele>
        <time>2026-08-25T12:18:55Z</time>
      </trkpt>
      <trkpt lat="47.5276" lon="-2.76533">
        <ele>28</ele>
        <time>2026-08-25T12:18:56Z</time>
      </trkpt>
      <trkpt lat="47.52759" lon="-2.76538">
        <ele>28</ele>
        <time>2026-08-25T12:18:57Z</time>
      </trkpt>
      <trkpt lat="47.52758" lon="-2.76543">
        <ele>28</ele>
        <time>2026-08-25T12:18:58Z</time>
      </trkpt>
      <trkpt lat="47.52758" lon="-2.76548">
        <ele>28</ele>
        <time>2026-08-25T12:18:59Z</time>
      </trkpt>
      <trkpt lat="47.52758" lon="-2.76554">
        <ele>28</ele>
        <time>2026-08-25T12:19:00Z</time>
      </trkpt>
      <trkpt lat="47.52757" lon="-2.7656">
        <ele>28</ele>
        <time>2026-08-25T12:19:01Z</time>
      </trkpt>
      <trkpt lat="47.52757" lon="-2.76565">
        <ele>28.1</ele>
        <time>2026-08-25T12:19:02Z</time>
      </trkpt>
      <trkpt lat="47.52757" lon="-2.76572">
        <ele>28.1</ele>
        <time>2026-08-25T12:19:03Z</time>
      </trkpt>
      <trkpt lat="47.52757" lon="-2.76577">
        <ele>28.2</ele>
        <time>2026-08-25T12:19:04Z</time>
      </trkpt>
      <trkpt lat="47.52757" lon="-2.76583">
        <ele>28.2</ele>
        <time>2026-08-25T12:19:05Z</time>
      </trkpt>
      <trkpt lat="47.52758" lon="-2.76589">
        <ele>28.2</ele>
        <time>2026-08-25T12:19:06Z</time>
      </trkpt>
      <trkpt lat="47.52758" lon="-2.76595">
        <ele>28.2</ele>
        <time>2026-08-25T12:19:07Z</time>
      </trkpt>
      <trkpt lat="47.52759" lon="-2.76601">
        <ele>28.1</ele>
        <time>2026-08-25T12:19:08Z</time>
      </trkpt>
      <trkpt lat="47.5276" lon="-2.76607">
        <ele>28.1</ele>
        <time>2026-08-25T12:19:09Z</time>
      </trkpt>
      <trkpt lat="47.5276" lon="-2.76612">
        <ele>28</ele>
        <time>2026-08-25T12:19:10Z</time>
      </trkpt>
      <trkpt lat="47.52761" lon="-2.76618">
        <ele>28</ele>
        <time>2026-08-25T12:19:11Z</time>
      </trkpt>
      <trkpt lat="47.52762" lon="-2.76623">
        <ele>28</ele>
        <time>2026-08-25T12:19:12Z</time>
      </trkpt>
      <trkpt lat="47.52763" lon="-2.76629">
        <ele>28</ele>
        <time>2026-08-25T12:19:13Z</time>
      </trkpt>
      <trkpt lat="47.52764" lon="-2.76634">
        <ele>28</ele>
        <time>2026-08-25T12:19:14Z</time>
      </trkpt>
      <trkpt lat="47.52765" lon="-2.76639">
        <ele>28</ele>
        <time>2026-08-25T12:19:15Z</time>
      </trkpt>
      <trkpt lat="47.52766" lon="-2.76645">
        <ele>28.2</ele>
        <time>2026-08-25T12:19:16Z</time>
      </trkpt>
      <trkpt lat="47.52766" lon="-2.7665">
        <ele>28.4</ele>
        <time>2026-08-25T12:19:17Z</time>
      </trkpt>
      <trkpt lat="47.52767" lon="-2.76656">
        <ele>28.6</ele>
        <time>2026-08-25T12:19:18Z</time>
      </trkpt>
      <trkpt lat="47.52769" lon="-2.76661">
        <ele>28.8</ele>
        <time>2026-08-25T12:19:19Z</time>
      </trkpt>
      <trkpt lat="47.5277" lon="-2.76666">
        <ele>29</ele>
        <time>2026-08-25T12:19:20Z</time>
      </trkpt>
      <trkpt lat="47.52772" lon="-2.76671">
        <ele>29</ele>
        <time>2026-08-25T12:19:21Z</time>
      </trkpt>
      <trkpt lat="47.52773" lon="-2.76677">
        <ele>28.9</ele>
        <time>2026-08-25T12:19:22Z</time>
      </trkpt>
      <trkpt lat="47.52774" lon="-2.76682">
        <ele>28.9</ele>
        <time>2026-08-25T12:19:23Z</time>
      </trkpt>
      <trkpt lat="47.52774" lon="-2.76688">
        <ele>28.9</ele>
        <time>2026-08-25T12:19:24Z</time>
      </trkpt>
      <trkpt lat="47.52774" lon="-2.76694">
        <ele>28.9</ele>
        <time>2026-08-25T12:19:25Z</time>
      </trkpt>
      <trkpt lat="47.52774" lon="-2.767">
        <ele>28.9</ele>
        <time>2026-08-25T12:19:26Z</time>
      </trkpt>
      <trkpt lat="47.52775" lon="-2.76705">
        <ele>28.9</ele>
        <time>2026-08-25T12:19:27Z</time>
      </trkpt>
      <trkpt lat="47.52775" lon="-2.7671">
        <ele>29</ele>
        <time>2026-08-25T12:19:28Z</time>
      </trkpt>
      <trkpt lat="47.52774" lon="-2.76716">
        <ele>29</ele>
        <time>2026-08-25T12:19:29Z</time>
      </trkpt>
      <trkpt lat="47.52774" lon="-2.76721">
        <ele>29</ele>
        <time>2026-08-25T12:19:30Z</time>
      </trkpt>
      <trkpt lat="47.52774" lon="-2.76727">
        <ele>29.2</ele>
        <time>2026-08-25T12:19:31Z</time>
      </trkpt>
      <trkpt lat="47.52774" lon="-2.76733">
        <ele>29.4</ele>
        <time>2026-08-25T12:19:32Z</time>
      </trkpt>
      <trkpt lat="47.52775" lon="-2.76738">
        <ele>29.6</ele>
        <time>2026-08-25T12:19:33Z</time>
      </trkpt>
      <trkpt lat="47.52775" lon="-2.76744">
        <ele>29.8</ele>
        <time>2026-08-25T12:19:34Z</time>
      </trkpt>
      <trkpt lat="47.52775" lon="-2.7675">
        <ele>30</ele>
        <time>2026-08-25T12:19:35Z</time>
      </trkpt>
      <trkpt lat="47.52775" lon="-2.76755">
        <ele>30</ele>
        <time>2026-08-25T12:19:36Z</time>
      </trkpt>
      <trkpt lat="47.52776" lon="-2.7676">
        <ele>30</ele>
        <time>2026-08-25T12:19:37Z</time>
      </trkpt>
      <trkpt lat="47.52777" lon="-2.76765">
        <ele>30</ele>
        <time>2026-08-25T12:19:38Z</time>
      </trkpt>
      <trkpt lat="47.52777" lon="-2.7677">
        <ele>30</ele>
        <time>2026-08-25T12:19:39Z</time>
      </trkpt>
      <trkpt lat="47.52778" lon="-2.76775">
        <ele>30</ele>
        <time>2026-08-25T12:19:40Z</time>
      </trkpt>
      <trkpt lat="47.52779" lon="-2.7678">
        <ele>30</ele>
        <time>2026-08-25T12:19:41Z</time>
      </trkpt>
      <trkpt lat="47.52779" lon="-2.76784">
        <ele>30</ele>
        <time>2026-08-25T12:19:42Z</time>
      </trkpt>
      <trkpt lat="47.52781" lon="-2.76788">
        <ele>30.1</ele>
        <time>2026-08-25T12:19:43Z</time>
      </trkpt>
      <trkpt lat="47.52782" lon="-2.76792">
        <ele>30.2</ele>
        <time>2026-08-25T12:19:44Z</time>
      </trkpt>
      <trkpt lat="47.52783" lon="-2.76796">
        <ele>30.2</ele>
        <time>2026-08-25T12:19:45Z</time>
      </trkpt>
      <trkpt lat="47.52782" lon="-2.768">
        <ele>30.2</ele>
        <time>2026-08-25T12:19:46Z</time>
      </trkpt>
      <trkpt lat="47.5278" lon="-2.76804">
        <ele>30.1</ele>
        <time>2026-08-25T12:19:47Z</time>
      </trkpt>
      <trkpt lat="47.52778" lon="-2.76808">
        <ele>30.1</ele>
        <time>2026-08-25T12:19:48Z</time>
      </trkpt>
      <trkpt lat="47.52777" lon="-2.76812">
        <ele>30.3</ele>
        <time>2026-08-25T12:19:49Z</time>
      </trkpt>
      <trkpt lat="47.52775" lon="-2.76817">
        <ele>30.5</ele>
        <time>2026-08-25T12:19:50Z</time>
      </trkpt>
      <trkpt lat="47.52773" lon="-2.76821">
        <ele>30.6</ele>
        <time>2026-08-25T12:19:51Z</time>
      </trkpt>
      <trkpt lat="47.52771" lon="-2.76825">
        <ele>30.8</ele>
        <time>2026-08-25T12:19:52Z</time>
      </trkpt>
      <trkpt lat="47.52769" lon="-2.76829">
        <ele>30.9</ele>
        <time>2026-08-25T12:19:53Z</time>
      </trkpt>
      <trkpt lat="47.52767" lon="-2.76833">
        <ele>31</ele>
        <time>2026-08-25T12:19:54Z</time>
      </trkpt>
      <trkpt lat="47.52765" lon="-2.76838">
        <ele>31.1</ele>
        <time>2026-08-25T12:19:55Z</time>
      </trkpt>
      <trkpt lat="47.52763" lon="-2.76842">
        <ele>31.1</ele>
        <time>2026-08-25T12:19:56Z</time>
      </trkpt>
      <trkpt lat="47.52761" lon="-2.76846">
        <ele>31.2</ele>
        <time>2026-08-25T12:19:57Z</time>
      </trkpt>
      <trkpt lat="47.52759" lon="-2.7685">
        <ele>31.2</ele>
        <time>2026-08-25T12:19:58Z</time>
      </trkpt>
      <trkpt lat="47.52757" lon="-2.76854">
        <ele>31.2</ele>
        <time>2026-08-25T12:19:59Z</time>
      </trkpt>
      <trkpt lat="47.52755" lon="-2.76858">
        <ele>31.2</ele>
        <time>2026-08-25T12:20:00Z</time>
      </trkpt>
      <trkpt lat="47.52753" lon="-2.76862">
        <ele>31.1</ele>
        <time>2026-08-25T12:20:01Z</time>
      </trkpt>
      <trkpt lat="47.5275" lon="-2.76865">
        <ele>31</ele>
        <time>2026-08-25T12:20:02Z</time>
      </trkpt>
      <trkpt lat="47.52748" lon="-2.76869">
        <ele>31</ele>
        <time>2026-08-25T12:20:03Z</time>
      </trkpt>
      <trkpt lat="47.52745" lon="-2.76872">
        <ele>30.9</ele>
        <time>2026-08-25T12:20:04Z</time>
      </trkpt>
      <trkpt lat="47.52742" lon="-2.76876">
        <ele>30.8</ele>
        <time>2026-08-25T12:20:05Z</time>
      </trkpt>
      <trkpt lat="47.52739" lon="-2.76879">
        <ele>30.7</ele>
        <time>2026-08-25T12:20:06Z</time>
      </trkpt>
      <trkpt lat="47.52735" lon="-2.76882">
        <ele>30.6</ele>
        <time>2026-08-25T12:20:07Z</time>
      </trkpt>
      <trkpt lat="47.52732" lon="-2.76887">
        <ele>30.4</ele>
        <time>2026-08-25T12:20:08Z</time>
      </trkpt>
      <trkpt lat="47.5273" lon="-2.76892">
        <ele>30.3</ele>
        <time>2026-08-25T12:20:09Z</time>
      </trkpt>
      <trkpt lat="47.52728" lon="-2.76897">
        <ele>30.2</ele>
        <time>2026-08-25T12:20:10Z</time>
      </trkpt>
      <trkpt lat="47.52726" lon="-2.76903">
        <ele>30.1</ele>
        <time>2026-08-25T12:20:11Z</time>
      </trkpt>
      <trkpt lat="47.52724" lon="-2.76908">
        <ele>30.1</ele>
        <time>2026-08-25T12:20:12Z</time>
      </trkpt>
      <trkpt lat="47.52723" lon="-2.76911">
        <ele>30</ele>
        <time>2026-08-25T12:20:13Z</time>
      </trkpt>
      <trkpt lat="47.52722" lon="-2.76915">
        <ele>30</ele>
        <time>2026-08-25T12:20:14Z</time>
      </trkpt>
      <trkpt lat="47.52721" lon="-2.76919">
        <ele>30</ele>
        <time>2026-08-25T12:20:15Z</time>
      </trkpt>
      <trkpt lat="47.52719" lon="-2.76923">
        <ele>30</ele>
        <time>2026-08-25T12:20:16Z</time>
      </trkpt>
      <trkpt lat="47.52717" lon="-2.76927">
        <ele>30</ele>
        <time>2026-08-25T12:20:17Z</time>
      </trkpt>
      <trkpt lat="47.52714" lon="-2.76931">
        <ele>30</ele>
        <time>2026-08-25T12:20:18Z</time>
      </trkpt>
      <trkpt lat="47.52711" lon="-2.76934">
        <ele>30</ele>
        <time>2026-08-25T12:20:19Z</time>
      </trkpt>
      <trkpt lat="47.52708" lon="-2.76936">
        <ele>30</ele>
        <time>2026-08-25T12:20:20Z</time>
      </trkpt>
      <trkpt lat="47.52705" lon="-2.76937">
        <ele>30</ele>
        <time>2026-08-25T12:20:21Z</time>
      </trkpt>
      <trkpt lat="47.52703" lon="-2.76939">
        <ele>30</ele>
        <time>2026-08-25T12:20:22Z</time>
      </trkpt>
      <trkpt lat="47.52701" lon="-2.76941">
        <ele>30</ele>
        <time>2026-08-25T12:20:23Z</time>
      </trkpt>
      <trkpt lat="47.52699" lon="-2.76943">
        <ele>30</ele>
        <time>2026-08-25T12:20:24Z</time>
      </trkpt>
      <trkpt lat="47.52696" lon="-2.76945">
        <ele>30</ele>
        <time>2026-08-25T12:20:25Z</time>
      </trkpt>
      <trkpt lat="47.52693" lon="-2.76947">
        <ele>30</ele>
        <time>2026-08-25T12:20:26Z</time>
      </trkpt>
      <trkpt lat="47.5269" lon="-2.76949">
        <ele>30</ele>
        <time>2026-08-25T12:20:27Z</time>
      </trkpt>
      <trkpt lat="47.52687" lon="-2.76952">
        <ele>30</ele>
        <time>2026-08-25T12:20:28Z</time>
      </trkpt>
      <trkpt lat="47.52684" lon="-2.76954">
        <ele>30</ele>
        <time>2026-08-25T12:20:29Z</time>
      </trkpt>
      <trkpt lat="47.52681" lon="-2.76958">
        <ele>30</ele>
        <time>2026-08-25T12:20:30Z</time>
      </trkpt>
      <trkpt lat="47.52678" lon="-2.76961">
        <ele>30</ele>
        <time>2026-08-25T12:20:31Z</time>
      </trkpt>
      <trkpt lat="47.52676" lon="-2.76965">
        <ele>30</ele>
        <time>2026-08-25T12:20:32Z</time>
      </trkpt>
      <trkpt lat="47.52674" lon="-2.76969">
        <ele>30</ele>
        <time>2026-08-25T12:20:33Z</time>
      </trkpt>
      <trkpt lat="47.52672" lon="-2.76973">
        <ele>30</ele>
        <time>2026-08-25T12:20:34Z</time>
      </trkpt>
      <trkpt lat="47.5267" lon="-2.76976">
        <ele>30</ele>
        <time>2026-08-25T12:20:35Z</time>
      </trkpt>
      <trkpt lat="47.5267" lon="-2.76981">
        <ele>30</ele>
        <time>2026-08-25T12:20:36Z</time>
      </trkpt>
      <trkpt lat="47.52669" lon="-2.76986">
        <ele>30</ele>
        <time>2026-08-25T12:20:37Z</time>
      </trkpt>
      <trkpt lat="47.52669" lon="-2.76991">
        <ele>30</ele>
        <time>2026-08-25T12:20:38Z</time>
      </trkpt>
      <trkpt lat="47.52668" lon="-2.76996">
        <ele>30</ele>
        <time>2026-08-25T12:20:39Z</time>
      </trkpt>
      <trkpt lat="47.52668" lon="-2.77002">
        <ele>30</ele>
        <time>2026-08-25T12:20:40Z</time>
      </trkpt>
      <trkpt lat="47.52668" lon="-2.77007">
        <ele>30</ele>
        <time>2026-08-25T12:20:41Z</time>
      </trkpt>
      <trkpt lat="47.52667" lon="-2.77012">
        <ele>30</ele>
        <time>2026-08-25T12:20:42Z</time>
      </trkpt>
      <trkpt lat="47.52667" lon="-2.77017">
        <ele>30</ele>
        <time>2026-08-25T12:20:43Z</time>
      </trkpt>
      <trkpt lat="47.52666" lon="-2.77023">
        <ele>30</ele>
        <time>2026-08-25T12:20:44Z</time>
      </trkpt>
      <trkpt lat="47.52665" lon="-2.77029">
        <ele>30.1</ele>
        <time>2026-08-25T12:20:45Z</time>
      </trkpt>
      <trkpt lat="47.52665" lon="-2.77035">
        <ele>30.1</ele>
        <time>2026-08-25T12:20:46Z</time>
      </trkpt>
      <trkpt lat="47.52664" lon="-2.7704">
        <ele>30.1</ele>
        <time>2026-08-25T12:20:47Z</time>
      </trkpt>
      <trkpt lat="47.52663" lon="-2.77046">
        <ele>30.1</ele>
        <time>2026-08-25T12:20:48Z</time>
      </trkpt>
      <trkpt lat="47.52662" lon="-2.77052">
        <ele>30.2</ele>
        <time>2026-08-25T12:20:49Z</time>
      </trkpt>
      <trkpt lat="47.52661" lon="-2.77058">
        <ele>30.2</ele>
        <time>2026-08-25T12:20:50Z</time>
      </trkpt>
      <trkpt lat="47.5266" lon="-2.77064">
        <ele>30.2</ele>
        <time>2026-08-25T12:20:51Z</time>
      </trkpt>
      <trkpt lat="47.5266" lon="-2.77069">
        <ele>30.2</ele>
        <time>2026-08-25T12:20:52Z</time>
      </trkpt>
      <trkpt lat="47.52659" lon="-2.77075">
        <ele>30.3</ele>
        <time>2026-08-25T12:20:53Z</time>
      </trkpt>
      <trkpt lat="47.52658" lon="-2.77081">
        <ele>30.3</ele>
        <time>2026-08-25T12:20:54Z</time>
      </trkpt>
      <trkpt lat="47.52657" lon="-2.77087">
        <ele>30.3</ele>
        <time>2026-08-25T12:20:55Z</time>
      </trkpt>
      <trkpt lat="47.52656" lon="-2.77093">
        <ele>30.2</ele>
        <time>2026-08-25T12:20:56Z</time>
      </trkpt>
      <trkpt lat="47.52654" lon="-2.77099">
        <ele>30.1</ele>
        <time>2026-08-25T12:20:57Z</time>
      </trkpt>
      <trkpt lat="47.52653" lon="-2.77104">
        <ele>30.1</ele>
        <time>2026-08-25T12:20:58Z</time>
      </trkpt>
      <trkpt lat="47.52652" lon="-2.7711">
        <ele>30.1</ele>
        <time>2026-08-25T12:20:59Z</time>
      </trkpt>
      <trkpt lat="47.52651" lon="-2.77114">
        <ele>30.1</ele>
        <time>2026-08-25T12:21:00Z</time>
      </trkpt>
      <trkpt lat="47.5265" lon="-2.77118">
        <ele>30.1</ele>
        <time>2026-08-25T12:21:01Z</time>
      </trkpt>
      <trkpt lat="47.52649" lon="-2.77121">
        <ele>30</ele>
        <time>2026-08-25T12:21:02Z</time>
      </trkpt>
      <trkpt lat="47.52649" lon="-2.77124">
        <ele>30</ele>
        <time>2026-08-25T12:21:03Z</time>
      </trkpt>
      <trkpt lat="47.52648" lon="-2.77128">
        <ele>29.9</ele>
        <time>2026-08-25T12:21:04Z</time>
      </trkpt>
      <trkpt lat="47.52647" lon="-2.77132">
        <ele>29.9</ele>
        <time>2026-08-25T12:21:05Z</time>
      </trkpt>
      <trkpt lat="47.52646" lon="-2.77137">
        <ele>29.8</ele>
        <time>2026-08-25T12:21:06Z</time>
      </trkpt>
      <trkpt lat="47.52644" lon="-2.77142">
        <ele>29.8</ele>
        <time>2026-08-25T12:21:07Z</time>
      </trkpt>
      <trkpt lat="47.52643" lon="-2.77147">
        <ele>29.9</ele>
        <time>2026-08-25T12:21:08Z</time>
      </trkpt>
      <trkpt lat="47.52642" lon="-2.77153">
        <ele>29.9</ele>
        <time>2026-08-25T12:21:09Z</time>
      </trkpt>
      <trkpt lat="47.52641" lon="-2.77158">
        <ele>29.9</ele>
        <time>2026-08-25T12:21:10Z</time>
      </trkpt>
      <trkpt lat="47.5264" lon="-2.77164">
        <ele>30</ele>
        <time>2026-08-25T12:21:11Z</time>
      </trkpt>
      <trkpt lat="47.52639" lon="-2.77169">
        <ele>30.1</ele>
        <time>2026-08-25T12:21:12Z</time>
      </trkpt>
      <trkpt lat="47.52638" lon="-2.77175">
        <ele>30.3</ele>
        <time>2026-08-25T12:21:13Z</time>
      </trkpt>
      <trkpt lat="47.52637" lon="-2.7718">
        <ele>30.5</ele>
        <time>2026-08-25T12:21:14Z</time>
      </trkpt>
      <trkpt lat="47.52636" lon="-2.77185">
        <ele>30.7</ele>
        <time>2026-08-25T12:21:15Z</time>
      </trkpt>
      <trkpt lat="47.52635" lon="-2.77191">
        <ele>30.9</ele>
        <time>2026-08-25T12:21:16Z</time>
      </trkpt>
      <trkpt lat="47.52634" lon="-2.77196">
        <ele>31</ele>
        <time>2026-08-25T12:21:17Z</time>
      </trkpt>
      <trkpt lat="47.52632" lon="-2.77202">
        <ele>30.8</ele>
        <time>2026-08-25T12:21:18Z</time>
      </trkpt>
      <trkpt lat="47.5263" lon="-2.77207">
        <ele>30.7</ele>
        <time>2026-08-25T12:21:19Z</time>
      </trkpt>
      <trkpt lat="47.52629" lon="-2.77213">
        <ele>30.6</ele>
        <time>2026-08-25T12:21:20Z</time>
      </trkpt>
      <trkpt lat="47.52628" lon="-2.77218">
        <ele>30.5</ele>
        <time>2026-08-25T12:21:21Z</time>
      </trkpt>
      <trkpt lat="47.52627" lon="-2.77224">
        <ele>30.5</ele>
        <time>2026-08-25T12:21:22Z</time>
      </trkpt>
      <trkpt lat="47.52625" lon="-2.77229">
        <ele>30.6</ele>
        <time>2026-08-25T12:21:23Z</time>
      </trkpt>
      <trkpt lat="47.52624" lon="-2.77234">
        <ele>30.7</ele>
        <time>2026-08-25T12:21:24Z</time>
      </trkpt>
      <trkpt lat="47.52622" lon="-2.77239">
        <ele>30.8</ele>
        <time>2026-08-25T12:21:25Z</time>
      </trkpt>
      <trkpt lat="47.5262" lon="-2.77244">
        <ele>30.9</ele>
        <time>2026-08-25T12:21:26Z</time>
      </trkpt>
      <trkpt lat="47.52619" lon="-2.77249">
        <ele>31</ele>
        <time>2026-08-25T12:21:27Z</time>
      </trkpt>
      <trkpt lat="47.52617" lon="-2.77255">
        <ele>31</ele>
        <time>2026-08-25T12:21:28Z</time>
      </trkpt>
      <trkpt lat="47.52615" lon="-2.77259">
        <ele>31</ele>
        <time>2026-08-25T12:21:29Z</time>
      </trkpt>
      <trkpt lat="47.52614" lon="-2.77265">
        <ele>30.9</ele>
        <time>2026-08-25T12:21:30Z</time>
      </trkpt>
      <trkpt lat="47.52612" lon="-2.7727">
        <ele>31</ele>
        <time>2026-08-25T12:21:31Z</time>
      </trkpt>
      <trkpt lat="47.52611" lon="-2.77275">
        <ele>31</ele>
        <time>2026-08-25T12:21:32Z</time>
      </trkpt>
      <trkpt lat="47.52611" lon="-2.7728">
        <ele>31</ele>
        <time>2026-08-25T12:21:33Z</time>
      </trkpt>
      <trkpt lat="47.5261" lon="-2.77286">
        <ele>31</ele>
        <time>2026-08-25T12:21:34Z</time>
      </trkpt>
      <trkpt lat="47.5261" lon="-2.77291">
        <ele>31</ele>
        <time>2026-08-25T12:21:35Z</time>
      </trkpt>
      <trkpt lat="47.5261" lon="-2.77297">
        <ele>31</ele>
        <time>2026-08-25T12:21:36Z</time>
      </trkpt>
      <trkpt lat="47.52609" lon="-2.77303">
        <ele>31.1</ele>
        <time>2026-08-25T12:21:37Z</time>
      </trkpt>
      <trkpt lat="47.52608" lon="-2.77308">
        <ele>31.1</ele>
        <time>2026-08-25T12:21:38Z</time>
      </trkpt>
      <trkpt lat="47.52606" lon="-2.77313">
        <ele>31.2</ele>
        <time>2026-08-25T12:21:39Z</time>
      </trkpt>
      <trkpt lat="47.52605" lon="-2.77318">
        <ele>31.2</ele>
        <time>2026-08-25T12:21:40Z</time>
      </trkpt>
      <trkpt lat="47.52604" lon="-2.77324">
        <ele>31.3</ele>
        <time>2026-08-25T12:21:41Z</time>
      </trkpt>
      <trkpt lat="47.52604" lon="-2.77329">
        <ele>31.3</ele>
        <time>2026-08-25T12:21:42Z</time>
      </trkpt>
      <trkpt lat="47.52603" lon="-2.77335">
        <ele>31.3</ele>
        <time>2026-08-25T12:21:43Z</time>
      </trkpt>
      <trkpt lat="47.52602" lon="-2.7734">
        <ele>31.5</ele>
        <time>2026-08-25T12:21:44Z</time>
      </trkpt>
      <trkpt lat="47.52601" lon="-2.77345">
        <ele>31.6</ele>
        <time>2026-08-25T12:21:45Z</time>
      </trkpt>
      <trkpt lat="47.526" lon="-2.77351">
        <ele>31.8</ele>
        <time>2026-08-25T12:21:46Z</time>
      </trkpt>
      <trkpt lat="47.52599" lon="-2.77356">
        <ele>31.9</ele>
        <time>2026-08-25T12:21:47Z</time>
      </trkpt>
      <trkpt lat="47.52599" lon="-2.77362">
        <ele>32</ele>
        <time>2026-08-25T12:21:48Z</time>
      </trkpt>
      <trkpt lat="47.52598" lon="-2.77368">
        <ele>32</ele>
        <time>2026-08-25T12:21:49Z</time>
      </trkpt>
      <trkpt lat="47.52597" lon="-2.77373">
        <ele>32</ele>
        <time>2026-08-25T12:21:50Z</time>
      </trkpt>
      <trkpt lat="47.52597" lon="-2.77379">
        <ele>32</ele>
        <time>2026-08-25T12:21:51Z</time>
      </trkpt>
      <trkpt lat="47.52596" lon="-2.77384">
        <ele>32</ele>
        <time>2026-08-25T12:21:52Z</time>
      </trkpt>
      <trkpt lat="47.52595" lon="-2.7739">
        <ele>32</ele>
        <time>2026-08-25T12:21:53Z</time>
      </trkpt>
      <trkpt lat="47.52594" lon="-2.77395">
        <ele>32.1</ele>
        <time>2026-08-25T12:21:54Z</time>
      </trkpt>
      <trkpt lat="47.52593" lon="-2.77401">
        <ele>32.3</ele>
        <time>2026-08-25T12:21:55Z</time>
      </trkpt>
      <trkpt lat="47.52593" lon="-2.77406">
        <ele>32.4</ele>
        <time>2026-08-25T12:21:56Z</time>
      </trkpt>
      <trkpt lat="47.52592" lon="-2.77412">
        <ele>32.6</ele>
        <time>2026-08-25T12:21:57Z</time>
      </trkpt>
      <trkpt lat="47.52591" lon="-2.77417">
        <ele>32.7</ele>
        <time>2026-08-25T12:21:58Z</time>
      </trkpt>
      <trkpt lat="47.5259" lon="-2.77423">
        <ele>32.8</ele>
        <time>2026-08-25T12:21:59Z</time>
      </trkpt>
      <trkpt lat="47.52589" lon="-2.77428">
        <ele>32.9</ele>
        <time>2026-08-25T12:22:00Z</time>
      </trkpt>
      <trkpt lat="47.52588" lon="-2.77434">
        <ele>32.9</ele>
        <time>2026-08-25T12:22:01Z</time>
      </trkpt>
      <trkpt lat="47.52587" lon="-2.77439">
        <ele>33</ele>
        <time>2026-08-25T12:22:02Z</time>
      </trkpt>
      <trkpt lat="47.52587" lon="-2.77444">
        <ele>33</ele>
        <time>2026-08-25T12:22:03Z</time>
      </trkpt>
      <trkpt lat="47.52586" lon="-2.77449">
        <ele>33</ele>
        <time>2026-08-25T12:22:04Z</time>
      </trkpt>
      <trkpt lat="47.52585" lon="-2.77455">
        <ele>33</ele>
        <time>2026-08-25T12:22:05Z</time>
      </trkpt>
      <trkpt lat="47.52584" lon="-2.7746">
        <ele>33</ele>
        <time>2026-08-25T12:22:06Z</time>
      </trkpt>
      <trkpt lat="47.52583" lon="-2.77465">
        <ele>33</ele>
        <time>2026-08-25T12:22:07Z</time>
      </trkpt>
      <trkpt lat="47.52583" lon="-2.7747">
        <ele>33</ele>
        <time>2026-08-25T12:22:08Z</time>
      </trkpt>
      <trkpt lat="47.52582" lon="-2.77475">
        <ele>33.1</ele>
        <time>2026-08-25T12:22:09Z</time>
      </trkpt>
      <trkpt lat="47.52581" lon="-2.77481">
        <ele>33.4</ele>
        <time>2026-08-25T12:22:10Z</time>
      </trkpt>
      <trkpt lat="47.52581" lon="-2.77486">
        <ele>33.6</ele>
        <time>2026-08-25T12:22:11Z</time>
      </trkpt>
      <trkpt lat="47.5258" lon="-2.77491">
        <ele>33.8</ele>
        <time>2026-08-25T12:22:12Z</time>
      </trkpt>
      <trkpt lat="47.52579" lon="-2.77497">
        <ele>34</ele>
        <time>2026-08-25T12:22:13Z</time>
      </trkpt>
      <trkpt lat="47.52579" lon="-2.77502">
        <ele>34.2</ele>
        <time>2026-08-25T12:22:14Z</time>
      </trkpt>
      <trkpt lat="47.52578" lon="-2.77507">
        <ele>34.2</ele>
        <time>2026-08-25T12:22:15Z</time>
      </trkpt>
      <trkpt lat="47.52577" lon="-2.77512">
        <ele>34.2</ele>
        <time>2026-08-25T12:22:16Z</time>
      </trkpt>
      <trkpt lat="47.52577" lon="-2.77517">
        <ele>34.2</ele>
        <time>2026-08-25T12:22:17Z</time>
      </trkpt>
      <trkpt lat="47.52576" lon="-2.77522">
        <ele>34.3</ele>
        <time>2026-08-25T12:22:18Z</time>
      </trkpt>
      <trkpt lat="47.52575" lon="-2.77527">
        <ele>34.3</ele>
        <time>2026-08-25T12:22:19Z</time>
      </trkpt>
      <trkpt lat="47.52574" lon="-2.77532">
        <ele>34.4</ele>
        <time>2026-08-25T12:22:20Z</time>
      </trkpt>
      <trkpt lat="47.52573" lon="-2.77537">
        <ele>34.6</ele>
        <time>2026-08-25T12:22:21Z</time>
      </trkpt>
      <trkpt lat="47.52572" lon="-2.77542">
        <ele>34.7</ele>
        <time>2026-08-25T12:22:22Z</time>
      </trkpt>
      <trkpt lat="47.52572" lon="-2.77547">
        <ele>34.8</ele>
        <time>2026-08-25T12:22:23Z</time>
      </trkpt>
      <trkpt lat="47.52571" lon="-2.77552">
        <ele>34.9</ele>
        <time>2026-08-25T12:22:24Z</time>
      </trkpt>
      <trkpt lat="47.5257" lon="-2.77558">
        <ele>35</ele>
        <time>2026-08-25T12:22:25Z</time>
      </trkpt>
      <trkpt lat="47.5257" lon="-2.77563">
        <ele>35.1</ele>
        <time>2026-08-25T12:22:26Z</time>
      </trkpt>
      <trkpt lat="47.52569" lon="-2.77568">
        <ele>35.2</ele>
        <time>2026-08-25T12:22:27Z</time>
      </trkpt>
      <trkpt lat="47.52569" lon="-2.77573">
        <ele>35.3</ele>
        <time>2026-08-25T12:22:28Z</time>
      </trkpt>
      <trkpt lat="47.52568" lon="-2.77578">
        <ele>35.4</ele>
        <time>2026-08-25T12:22:29Z</time>
      </trkpt>
      <trkpt lat="47.52568" lon="-2.77583">
        <ele>35.5</ele>
        <time>2026-08-25T12:22:30Z</time>
      </trkpt>
      <trkpt lat="47.52567" lon="-2.77589">
        <ele>35.7</ele>
        <time>2026-08-25T12:22:31Z</time>
      </trkpt>
      <trkpt lat="47.52566" lon="-2.77594">
        <ele>35.8</ele>
        <time>2026-08-25T12:22:32Z</time>
      </trkpt>
      <trkpt lat="47.52565" lon="-2.77599">
        <ele>35.9</ele>
        <time>2026-08-25T12:22:33Z</time>
      </trkpt>
      <trkpt lat="47.52564" lon="-2.77604">
        <ele>35.9</ele>
        <time>2026-08-25T12:22:34Z</time>
      </trkpt>
      <trkpt lat="47.52564" lon="-2.77609">
        <ele>36</ele>
        <time>2026-08-25T12:22:35Z</time>
      </trkpt>
      <trkpt lat="47.52563" lon="-2.77614">
        <ele>36.1</ele>
        <time>2026-08-25T12:22:36Z</time>
      </trkpt>
      <trkpt lat="47.52562" lon="-2.77619">
        <ele>36.3</ele>
        <time>2026-08-25T12:22:37Z</time>
      </trkpt>
      <trkpt lat="47.52561" lon="-2.77624">
        <ele>36.5</ele>
        <time>2026-08-25T12:22:38Z</time>
      </trkpt>
      <trkpt lat="47.5256" lon="-2.77629">
        <ele>36.6</ele>
        <time>2026-08-25T12:22:39Z</time>
      </trkpt>
      <trkpt lat="47.52559" lon="-2.77634">
        <ele>36.8</ele>
        <time>2026-08-25T12:22:40Z</time>
      </trkpt>
      <trkpt lat="47.52559" lon="-2.77639">
        <ele>37</ele>
        <time>2026-08-25T12:22:41Z</time>
      </trkpt>
      <trkpt lat="47.52558" lon="-2.77644">
        <ele>37.2</ele>
        <time>2026-08-25T12:22:42Z</time>
      </trkpt>
      <trkpt lat="47.52557" lon="-2.77649">
        <ele>37.4</ele>
        <time>2026-08-25T12:22:43Z</time>
      </trkpt>
      <trkpt lat="47.52556" lon="-2.77654">
        <ele>37.5</ele>
        <time>2026-08-25T12:22:44Z</time>
      </trkpt>
      <trkpt lat="47.52556" lon="-2.77659">
        <ele>37.7</ele>
        <time>2026-08-25T12:22:45Z</time>
      </trkpt>
      <trkpt lat="47.52555" lon="-2.77663">
        <ele>37.9</ele>
        <time>2026-08-25T12:22:46Z</time>
      </trkpt>
      <trkpt lat="47.52555" lon="-2.77669">
        <ele>38</ele>
        <time>2026-08-25T12:22:47Z</time>
      </trkpt>
      <trkpt lat="47.52554" lon="-2.77673">
        <ele>38</ele>
        <time>2026-08-25T12:22:48Z</time>
      </trkpt>
      <trkpt lat="47.52553" lon="-2.77678">
        <ele>38</ele>
        <time>2026-08-25T12:22:49Z</time>
      </trkpt>
      <trkpt lat="47.52552" lon="-2.77683">
        <ele>38.1</ele>
        <time>2026-08-25T12:22:50Z</time>
      </trkpt>
      <trkpt lat="47.52551" lon="-2.77688">
        <ele>38.1</ele>
        <time>2026-08-25T12:22:51Z</time>
      </trkpt>
      <trkpt lat="47.52551" lon="-2.77693">
        <ele>38.2</ele>
        <time>2026-08-25T12:22:52Z</time>
      </trkpt>
      <trkpt lat="47.52549" lon="-2.77698">
        <ele>38.3</ele>
        <time>2026-08-25T12:22:53Z</time>
      </trkpt>
      <trkpt lat="47.52548" lon="-2.77703">
        <ele>38.5</ele>
        <time>2026-08-25T12:22:54Z</time>
      </trkpt>
      <trkpt lat="47.52548" lon="-2.77708">
        <ele>38.6</ele>
        <time>2026-08-25T12:22:55Z</time>
      </trkpt>
      <trkpt lat="47.52547" lon="-2.77713">
        <ele>38.8</ele>
        <time>2026-08-25T12:22:56Z</time>
      </trkpt>
      <trkpt lat="47.52547" lon="-2.77718">
        <ele>38.9</ele>
        <time>2026-08-25T12:22:57Z</time>
      </trkpt>
      <trkpt lat="47.52546" lon="-2.77723">
        <ele>39</ele>
        <time>2026-08-25T12:22:58Z</time>
      </trkpt>
      <trkpt lat="47.52544" lon="-2.77728">
        <ele>39.1</ele>
        <time>2026-08-25T12:22:59Z</time>
      </trkpt>
      <trkpt lat="47.52544" lon="-2.77733">
        <ele>39.2</ele>
        <time>2026-08-25T12:23:00Z</time>
      </trkpt>
      <trkpt lat="47.52543" lon="-2.77737">
        <ele>39.2</ele>
        <time>2026-08-25T12:23:01Z</time>
      </trkpt>
      <trkpt lat="47.52543" lon="-2.77742">
        <ele>39.3</ele>
        <time>2026-08-25T12:23:02Z</time>
      </trkpt>
      <trkpt lat="47.52542" lon="-2.77747">
        <ele>39.4</ele>
        <time>2026-08-25T12:23:03Z</time>
      </trkpt>
      <trkpt lat="47.52542" lon="-2.77752">
        <ele>39.5</ele>
        <time>2026-08-25T12:23:04Z</time>
      </trkpt>
      <trkpt lat="47.52542" lon="-2.77757">
        <ele>39.6</ele>
        <time>2026-08-25T12:23:05Z</time>
      </trkpt>
      <trkpt lat="47.52541" lon="-2.77763">
        <ele>39.7</ele>
        <time>2026-08-25T12:23:06Z</time>
      </trkpt>
      <trkpt lat="47.52541" lon="-2.77768">
        <ele>39.8</ele>
        <time>2026-08-25T12:23:07Z</time>
      </trkpt>
      <trkpt lat="47.52541" lon="-2.77773">
        <ele>39.9</ele>
        <time>2026-08-25T12:23:08Z</time>
      </trkpt>
      <trkpt lat="47.52541" lon="-2.77778">
        <ele>40</ele>
        <time>2026-08-25T12:23:09Z</time>
      </trkpt>
      <trkpt lat="47.52541" lon="-2.77783">
        <ele>40.1</ele>
        <time>2026-08-25T12:23:10Z</time>
      </trkpt>
      <trkpt lat="47.52541" lon="-2.77788">
        <ele>40.2</ele>
        <time>2026-08-25T12:23:11Z</time>
      </trkpt>
      <trkpt lat="47.52541" lon="-2.77793">
        <ele>40.3</ele>
        <time>2026-08-25T12:23:12Z</time>
      </trkpt>
      <trkpt lat="47.52541" lon="-2.77798">
        <ele>40.4</ele>
        <time>2026-08-25T12:23:13Z</time>
      </trkpt>
      <trkpt lat="47.52542" lon="-2.77803">
        <ele>40.4</ele>
        <time>2026-08-25T12:23:14Z</time>
      </trkpt>
      <trkpt lat="47.52542" lon="-2.77808">
        <ele>40.5</ele>
        <time>2026-08-25T12:23:15Z</time>
      </trkpt>
      <trkpt lat="47.52542" lon="-2.77813">
        <ele>40.5</ele>
        <time>2026-08-25T12:23:16Z</time>
      </trkpt>
      <trkpt lat="47.52542" lon="-2.77818">
        <ele>40.5</ele>
        <time>2026-08-25T12:23:17Z</time>
      </trkpt>
      <trkpt lat="47.52542" lon="-2.77823">
        <ele>40.5</ele>
        <time>2026-08-25T12:23:18Z</time>
      </trkpt>
      <trkpt lat="47.52542" lon="-2.77829">
        <ele>40.5</ele>
        <time>2026-08-25T12:23:19Z</time>
      </trkpt>
      <trkpt lat="47.52542" lon="-2.77834">
        <ele>40.5</ele>
        <time>2026-08-25T12:23:20Z</time>
      </trkpt>
      <trkpt lat="47.52542" lon="-2.77839">
        <ele>40.5</ele>
        <time>2026-08-25T12:23:21Z</time>
      </trkpt>
      <trkpt lat="47.52543" lon="-2.77845">
        <ele>40.5</ele>
        <time>2026-08-25T12:23:22Z</time>
      </trkpt>
      <trkpt lat="47.52543" lon="-2.7785">
        <ele>40.5</ele>
        <time>2026-08-25T12:23:23Z</time>
      </trkpt>
      <trkpt lat="47.52543" lon="-2.77856">
        <ele>40.5</ele>
        <time>2026-08-25T12:23:24Z</time>
      </trkpt>
      <trkpt lat="47.52544" lon="-2.77862">
        <ele>40.4</ele>
        <time>2026-08-25T12:23:25Z</time>
      </trkpt>
      <trkpt lat="47.52544" lon="-2.77867">
        <ele>40.5</ele>
        <time>2026-08-25T12:23:26Z</time>
      </trkpt>
      <trkpt lat="47.52544" lon="-2.77873">
        <ele>40.7</ele>
        <time>2026-08-25T12:23:27Z</time>
      </trkpt>
      <trkpt lat="47.52544" lon="-2.77879">
        <ele>40.8</ele>
        <time>2026-08-25T12:23:28Z</time>
      </trkpt>
      <trkpt lat="47.52544" lon="-2.77884">
        <ele>40.9</ele>
        <time>2026-08-25T12:23:29Z</time>
      </trkpt>
      <trkpt lat="47.52544" lon="-2.7789">
        <ele>41</ele>
        <time>2026-08-25T12:23:30Z</time>
      </trkpt>
      <trkpt lat="47.52544" lon="-2.77895">
        <ele>41</ele>
        <time>2026-08-25T12:23:31Z</time>
      </trkpt>
      <trkpt lat="47.52544" lon="-2.779">
        <ele>41</ele>
        <time>2026-08-25T12:23:32Z</time>
      </trkpt>
      <trkpt lat="47.52545" lon="-2.77906">
        <ele>41</ele>
        <time>2026-08-25T12:23:33Z</time>
      </trkpt>
      <trkpt lat="47.52545" lon="-2.77912">
        <ele>41</ele>
        <time>2026-08-25T12:23:34Z</time>
      </trkpt>
      <trkpt lat="47.52545" lon="-2.77918">
        <ele>41</ele>
        <time>2026-08-25T12:23:35Z</time>
      </trkpt>
      <trkpt lat="47.52546" lon="-2.77924">
        <ele>40.9</ele>
        <time>2026-08-25T12:23:36Z</time>
      </trkpt>
      <trkpt lat="47.52546" lon="-2.7793">
        <ele>40.8</ele>
        <time>2026-08-25T12:23:37Z</time>
      </trkpt>
      <trkpt lat="47.52546" lon="-2.77935">
        <ele>40.8</ele>
        <time>2026-08-25T12:23:38Z</time>
      </trkpt>
      <trkpt lat="47.52546" lon="-2.7794">
        <ele>40.7</ele>
        <time>2026-08-25T12:23:39Z</time>
      </trkpt>
      <trkpt lat="47.52546" lon="-2.77945">
        <ele>40.7</ele>
        <time>2026-08-25T12:23:40Z</time>
      </trkpt>
      <trkpt lat="47.52546" lon="-2.77951">
        <ele>40.7</ele>
        <time>2026-08-25T12:23:41Z</time>
      </trkpt>
      <trkpt lat="47.52546" lon="-2.77956">
        <ele>40.7</ele>
        <time>2026-08-25T12:23:42Z</time>
      </trkpt>
      <trkpt lat="47.52546" lon="-2.77962">
        <ele>40.7</ele>
        <time>2026-08-25T12:23:43Z</time>
      </trkpt>
      <trkpt lat="47.52547" lon="-2.77968">
        <ele>40.7</ele>
        <time>2026-08-25T12:23:44Z</time>
      </trkpt>
      <trkpt lat="47.52548" lon="-2.77974">
        <ele>40.7</ele>
        <time>2026-08-25T12:23:45Z</time>
      </trkpt>
      <trkpt lat="47.52548" lon="-2.77981">
        <ele>40.7</ele>
        <time>2026-08-25T12:23:46Z</time>
      </trkpt>
      <trkpt lat="47.52548" lon="-2.77987">
        <ele>40.7</ele>
        <time>2026-08-25T12:23:47Z</time>
      </trkpt>
      <trkpt lat="47.52548" lon="-2.77994">
        <ele>40.7</ele>
        <time>2026-08-25T12:23:48Z</time>
      </trkpt>
      <trkpt lat="47.52548" lon="-2.78">
        <ele>40.7</ele>
        <time>2026-08-25T12:23:49Z</time>
      </trkpt>
      <trkpt lat="47.52549" lon="-2.78006">
        <ele>40.6</ele>
        <time>2026-08-25T12:23:50Z</time>
      </trkpt>
      <trkpt lat="47.52549" lon="-2.78013">
        <ele>40.4</ele>
        <time>2026-08-25T12:23:51Z</time>
      </trkpt>
      <trkpt lat="47.52549" lon="-2.78019">
        <ele>40.2</ele>
        <time>2026-08-25T12:23:52Z</time>
      </trkpt>
      <trkpt lat="47.52549" lon="-2.78025">
        <ele>40.1</ele>
        <time>2026-08-25T12:23:53Z</time>
      </trkpt>
      <trkpt lat="47.52549" lon="-2.78032">
        <ele>40</ele>
        <time>2026-08-25T12:23:54Z</time>
      </trkpt>
      <trkpt lat="47.52549" lon="-2.78038">
        <ele>40</ele>
        <time>2026-08-25T12:23:55Z</time>
      </trkpt>
      <trkpt lat="47.52549" lon="-2.78045">
        <ele>40</ele>
        <time>2026-08-25T12:23:56Z</time>
      </trkpt>
      <trkpt lat="47.52549" lon="-2.78052">
        <ele>40</ele>
        <time>2026-08-25T12:23:57Z</time>
      </trkpt>
      <trkpt lat="47.5255" lon="-2.78058">
        <ele>40</ele>
        <time>2026-08-25T12:23:58Z</time>
      </trkpt>
      <trkpt lat="47.5255" lon="-2.78065">
        <ele>40</ele>
        <time>2026-08-25T12:23:59Z</time>
      </trkpt>
      <trkpt lat="47.5255" lon="-2.78072">
        <ele>40</ele>
        <time>2026-08-25T12:24:00Z</time>
      </trkpt>
      <trkpt lat="47.5255" lon="-2.78078">
        <ele>40</ele>
        <time>2026-08-25T12:24:01Z</time>
      </trkpt>
      <trkpt lat="47.5255" lon="-2.78085">
        <ele>40</ele>
        <time>2026-08-25T12:24:02Z</time>
      </trkpt>
      <trkpt lat="47.52551" lon="-2.78092">
        <ele>40</ele>
        <time>2026-08-25T12:24:03Z</time>
      </trkpt>
      <trkpt lat="47.52551" lon="-2.78099">
        <ele>40</ele>
        <time>2026-08-25T12:24:04Z</time>
      </trkpt>
      <trkpt lat="47.52551" lon="-2.78106">
        <ele>40</ele>
        <time>2026-08-25T12:24:05Z</time>
      </trkpt>
      <trkpt lat="47.52551" lon="-2.78112">
        <ele>40</ele>
        <time>2026-08-25T12:24:06Z</time>
      </trkpt>
      <trkpt lat="47.52551" lon="-2.78119">
        <ele>39.8</ele>
        <time>2026-08-25T12:24:07Z</time>
      </trkpt>
      <trkpt lat="47.52552" lon="-2.78125">
        <ele>39.6</ele>
        <time>2026-08-25T12:24:08Z</time>
      </trkpt>
      <trkpt lat="47.52552" lon="-2.78132">
        <ele>39.3</ele>
        <time>2026-08-25T12:24:09Z</time>
      </trkpt>
      <trkpt lat="47.52553" lon="-2.78138">
        <ele>39.1</ele>
        <time>2026-08-25T12:24:10Z</time>
      </trkpt>
      <trkpt lat="47.52553" lon="-2.78144">
        <ele>39.1</ele>
        <time>2026-08-25T12:24:11Z</time>
      </trkpt>
      <trkpt lat="47.52553" lon="-2.78151">
        <ele>39.1</ele>
        <time>2026-08-25T12:24:12Z</time>
      </trkpt>
      <trkpt lat="47.52553" lon="-2.78157">
        <ele>39</ele>
        <time>2026-08-25T12:24:13Z</time>
      </trkpt>
      <trkpt lat="47.52554" lon="-2.78164">
        <ele>39</ele>
        <time>2026-08-25T12:24:14Z</time>
      </trkpt>
      <trkpt lat="47.52554" lon="-2.78171">
        <ele>39</ele>
        <time>2026-08-25T12:24:15Z</time>
      </trkpt>
      <trkpt lat="47.52554" lon="-2.78178">
        <ele>39</ele>
        <time>2026-08-25T12:24:16Z</time>
      </trkpt>
      <trkpt lat="47.52555" lon="-2.78185">
        <ele>39</ele>
        <time>2026-08-25T12:24:17Z</time>
      </trkpt>
      <trkpt lat="47.52555" lon="-2.78192">
        <ele>39</ele>
        <time>2026-08-25T12:24:18Z</time>
      </trkpt>
      <trkpt lat="47.52555" lon="-2.78199">
        <ele>38.8</ele>
        <time>2026-08-25T12:24:19Z</time>
      </trkpt>
      <trkpt lat="47.52556" lon="-2.78206">
        <ele>38.6</ele>
        <time>2026-08-25T12:24:20Z</time>
      </trkpt>
      <trkpt lat="47.52556" lon="-2.78213">
        <ele>38.3</ele>
        <time>2026-08-25T12:24:21Z</time>
      </trkpt>
      <trkpt lat="47.52557" lon="-2.7822">
        <ele>38</ele>
        <time>2026-08-25T12:24:22Z</time>
      </trkpt>
      <trkpt lat="47.52557" lon="-2.78228">
        <ele>37.9</ele>
        <time>2026-08-25T12:24:23Z</time>
      </trkpt>
      <trkpt lat="47.52558" lon="-2.78235">
        <ele>37.9</ele>
        <time>2026-08-25T12:24:24Z</time>
      </trkpt>
      <trkpt lat="47.52558" lon="-2.78242">
        <ele>37.9</ele>
        <time>2026-08-25T12:24:25Z</time>
      </trkpt>
      <trkpt lat="47.52559" lon="-2.78249">
        <ele>37.9</ele>
        <time>2026-08-25T12:24:26Z</time>
      </trkpt>
      <trkpt lat="47.52559" lon="-2.78257">
        <ele>37.8</ele>
        <time>2026-08-25T12:24:27Z</time>
      </trkpt>
      <trkpt lat="47.5256" lon="-2.78264">
        <ele>37.8</ele>
        <time>2026-08-25T12:24:28Z</time>
      </trkpt>
      <trkpt lat="47.5256" lon="-2.78272">
        <ele>37.7</ele>
        <time>2026-08-25T12:24:29Z</time>
      </trkpt>
      <trkpt lat="47.52561" lon="-2.78279">
        <ele>37.6</ele>
        <time>2026-08-25T12:24:30Z</time>
      </trkpt>
      <trkpt lat="47.52561" lon="-2.78286">
        <ele>37.6</ele>
        <time>2026-08-25T12:24:31Z</time>
      </trkpt>
      <trkpt lat="47.52562" lon="-2.78293">
        <ele>37.5</ele>
        <time>2026-08-25T12:24:32Z</time>
      </trkpt>
      <trkpt lat="47.52562" lon="-2.783">
        <ele>37.5</ele>
        <time>2026-08-25T12:24:33Z</time>
      </trkpt>
      <trkpt lat="47.52562" lon="-2.78306">
        <ele>37.5</ele>
        <time>2026-08-25T12:24:34Z</time>
      </trkpt>
      <trkpt lat="47.52562" lon="-2.78312">
        <ele>37.5</ele>
        <time>2026-08-25T12:24:35Z</time>
      </trkpt>
      <trkpt lat="47.52562" lon="-2.78318">
        <ele>37.5</ele>
        <time>2026-08-25T12:24:36Z</time>
      </trkpt>
      <trkpt lat="47.52561" lon="-2.78324">
        <ele>37.6</ele>
        <time>2026-08-25T12:24:37Z</time>
      </trkpt>
      <trkpt lat="47.5256" lon="-2.7833">
        <ele>37.7</ele>
        <time>2026-08-25T12:24:38Z</time>
      </trkpt>
      <trkpt lat="47.52558" lon="-2.78335">
        <ele>37.8</ele>
        <time>2026-08-25T12:24:39Z</time>
      </trkpt>
      <trkpt lat="47.52557" lon="-2.7834">
        <ele>37.9</ele>
        <time>2026-08-25T12:24:40Z</time>
      </trkpt>
      <trkpt lat="47.52554" lon="-2.78346">
        <ele>38</ele>
        <time>2026-08-25T12:24:41Z</time>
      </trkpt>
      <trkpt lat="47.52552" lon="-2.78351">
        <ele>38</ele>
        <time>2026-08-25T12:24:42Z</time>
      </trkpt>
      <trkpt lat="47.5255" lon="-2.78356">
        <ele>38</ele>
        <time>2026-08-25T12:24:43Z</time>
      </trkpt>
      <trkpt lat="47.52547" lon="-2.78361">
        <ele>38</ele>
        <time>2026-08-25T12:24:44Z</time>
      </trkpt>
      <trkpt lat="47.52544" lon="-2.78365">
        <ele>38.1</ele>
        <time>2026-08-25T12:24:45Z</time>
      </trkpt>
      <trkpt lat="47.5254" lon="-2.7837">
        <ele>38.3</ele>
        <time>2026-08-25T12:24:46Z</time>
      </trkpt>
      <trkpt lat="47.52537" lon="-2.78374">
        <ele>38.5</ele>
        <time>2026-08-25T12:24:47Z</time>
      </trkpt>
      <trkpt lat="47.52534" lon="-2.78378">
        <ele>38.6</ele>
        <time>2026-08-25T12:24:48Z</time>
      </trkpt>
      <trkpt lat="47.52531" lon="-2.78383">
        <ele>38.8</ele>
        <time>2026-08-25T12:24:49Z</time>
      </trkpt>
      <trkpt lat="47.52528" lon="-2.78387">
        <ele>38.9</ele>
        <time>2026-08-25T12:24:50Z</time>
      </trkpt>
      <trkpt lat="47.52524" lon="-2.78391">
        <ele>38.9</ele>
        <time>2026-08-25T12:24:51Z</time>
      </trkpt>
      <trkpt lat="47.52521" lon="-2.78395">
        <ele>38.8</ele>
        <time>2026-08-25T12:24:52Z</time>
      </trkpt>
      <trkpt lat="47.52518" lon="-2.784">
        <ele>38.6</ele>
        <time>2026-08-25T12:24:53Z</time>
      </trkpt>
      <trkpt lat="47.52515" lon="-2.78404">
        <ele>38.5</ele>
        <time>2026-08-25T12:24:54Z</time>
      </trkpt>
      <trkpt lat="47.52511" lon="-2.78409">
        <ele>38.4</ele>
        <time>2026-08-25T12:24:55Z</time>
      </trkpt>
      <trkpt lat="47.52508" lon="-2.78413">
        <ele>38.3</ele>
        <time>2026-08-25T12:24:56Z</time>
      </trkpt>
      <trkpt lat="47.52505" lon="-2.78418">
        <ele>38.2</ele>
        <time>2026-08-25T12:24:57Z</time>
      </trkpt>
      <trkpt lat="47.52501" lon="-2.78423">
        <ele>38</ele>
        <time>2026-08-25T12:24:58Z</time>
      </trkpt>
      <trkpt lat="47.52498" lon="-2.78428">
        <ele>38</ele>
        <time>2026-08-25T12:24:59Z</time>
      </trkpt>
      <trkpt lat="47.52495" lon="-2.78434">
        <ele>38</ele>
        <time>2026-08-25T12:25:00Z</time>
      </trkpt>
      <trkpt lat="47.52492" lon="-2.78439">
        <ele>38</ele>
        <time>2026-08-25T12:25:01Z</time>
      </trkpt>
      <trkpt lat="47.52489" lon="-2.78444">
        <ele>38</ele>
        <time>2026-08-25T12:25:02Z</time>
      </trkpt>
      <trkpt lat="47.52487" lon="-2.7845">
        <ele>38</ele>
        <time>2026-08-25T12:25:03Z</time>
      </trkpt>
      <trkpt lat="47.52484" lon="-2.78455">
        <ele>38</ele>
        <time>2026-08-25T12:25:04Z</time>
      </trkpt>
      <trkpt lat="47.52482" lon="-2.78461">
        <ele>38</ele>
        <time>2026-08-25T12:25:05Z</time>
      </trkpt>
      <trkpt lat="47.5248" lon="-2.78468">
        <ele>38</ele>
        <time>2026-08-25T12:25:06Z</time>
      </trkpt>
      <trkpt lat="47.52478" lon="-2.78474">
        <ele>38</ele>
        <time>2026-08-25T12:25:07Z</time>
      </trkpt>
      <trkpt lat="47.52476" lon="-2.78481">
        <ele>38</ele>
        <time>2026-08-25T12:25:08Z</time>
      </trkpt>
      <trkpt lat="47.52475" lon="-2.78487">
        <ele>38</ele>
        <time>2026-08-25T12:25:09Z</time>
      </trkpt>
      <trkpt lat="47.52473" lon="-2.78494">
        <ele>38</ele>
        <time>2026-08-25T12:25:10Z</time>
      </trkpt>
      <trkpt lat="47.52471" lon="-2.785">
        <ele>38</ele>
        <time>2026-08-25T12:25:11Z</time>
      </trkpt>
      <trkpt lat="47.5247" lon="-2.78507">
        <ele>37.7</ele>
        <time>2026-08-25T12:25:12Z</time>
      </trkpt>
      <trkpt lat="47.52468" lon="-2.78513">
        <ele>37.5</ele>
        <time>2026-08-25T12:25:13Z</time>
      </trkpt>
      <trkpt lat="47.52467" lon="-2.78519">
        <ele>37.3</ele>
        <time>2026-08-25T12:25:14Z</time>
      </trkpt>
      <trkpt lat="47.52465" lon="-2.78526">
        <ele>37</ele>
        <time>2026-08-25T12:25:15Z</time>
      </trkpt>
      <trkpt lat="47.52464" lon="-2.78532">
        <ele>37</ele>
        <time>2026-08-25T12:25:16Z</time>
      </trkpt>
      <trkpt lat="47.52463" lon="-2.78539">
        <ele>37</ele>
        <time>2026-08-25T12:25:17Z</time>
      </trkpt>
      <trkpt lat="47.52462" lon="-2.78546">
        <ele>37</ele>
        <time>2026-08-25T12:25:18Z</time>
      </trkpt>
      <trkpt lat="47.52461" lon="-2.78552">
        <ele>37</ele>
        <time>2026-08-25T12:25:19Z</time>
      </trkpt>
      <trkpt lat="47.5246" lon="-2.78559">
        <ele>37</ele>
        <time>2026-08-25T12:25:20Z</time>
      </trkpt>
      <trkpt lat="47.52459" lon="-2.78566">
        <ele>37</ele>
        <time>2026-08-25T12:25:21Z</time>
      </trkpt>
      <trkpt lat="47.52458" lon="-2.78573">
        <ele>37</ele>
        <time>2026-08-25T12:25:22Z</time>
      </trkpt>
      <trkpt lat="47.52457" lon="-2.78579">
        <ele>37</ele>
        <time>2026-08-25T12:25:23Z</time>
      </trkpt>
      <trkpt lat="47.52457" lon="-2.78586">
        <ele>37</ele>
        <time>2026-08-25T12:25:24Z</time>
      </trkpt>
      <trkpt lat="47.52456" lon="-2.78593">
        <ele>37</ele>
        <time>2026-08-25T12:25:25Z</time>
      </trkpt>
      <trkpt lat="47.52455" lon="-2.786">
        <ele>37</ele>
        <time>2026-08-25T12:25:26Z</time>
      </trkpt>
      <trkpt lat="47.52455" lon="-2.78607">
        <ele>37</ele>
        <time>2026-08-25T12:25:27Z</time>
      </trkpt>
      <trkpt lat="47.52455" lon="-2.78614">
        <ele>36.9</ele>
        <time>2026-08-25T12:25:28Z</time>
      </trkpt>
      <trkpt lat="47.52454" lon="-2.78621">
        <ele>36.8</ele>
        <time>2026-08-25T12:25:29Z</time>
      </trkpt>
      <trkpt lat="47.52454" lon="-2.78628">
        <ele>36.6</ele>
        <time>2026-08-25T12:25:30Z</time>
      </trkpt>
      <trkpt lat="47.52453" lon="-2.78635">
        <ele>36.4</ele>
        <time>2026-08-25T12:25:31Z</time>
      </trkpt>
      <trkpt lat="47.52453" lon="-2.78642">
        <ele>36.3</ele>
        <time>2026-08-25T12:25:32Z</time>
      </trkpt>
      <trkpt lat="47.52452" lon="-2.78649">
        <ele>36.3</ele>
        <time>2026-08-25T12:25:33Z</time>
      </trkpt>
      <trkpt lat="47.52452" lon="-2.78656">
        <ele>36.3</ele>
        <time>2026-08-25T12:25:34Z</time>
      </trkpt>
      <trkpt lat="47.52451" lon="-2.78663">
        <ele>36.2</ele>
        <time>2026-08-25T12:25:35Z</time>
      </trkpt>
      <trkpt lat="47.52451" lon="-2.7867">
        <ele>36.2</ele>
        <time>2026-08-25T12:25:36Z</time>
      </trkpt>
      <trkpt lat="47.5245" lon="-2.78678">
        <ele>36.1</ele>
        <time>2026-08-25T12:25:37Z</time>
      </trkpt>
      <trkpt lat="47.5245" lon="-2.78685">
        <ele>36.1</ele>
        <time>2026-08-25T12:25:38Z</time>
      </trkpt>
      <trkpt lat="47.52449" lon="-2.78692">
        <ele>36</ele>
        <time>2026-08-25T12:25:39Z</time>
      </trkpt>
      <trkpt lat="47.52448" lon="-2.787">
        <ele>36</ele>
        <time>2026-08-25T12:25:40Z</time>
      </trkpt>
      <trkpt lat="47.52448" lon="-2.78707">
        <ele>36</ele>
        <time>2026-08-25T12:25:41Z</time>
      </trkpt>
      <trkpt lat="47.52447" lon="-2.78714">
        <ele>36</ele>
        <time>2026-08-25T12:25:42Z</time>
      </trkpt>
      <trkpt lat="47.52445" lon="-2.78721">
        <ele>36</ele>
        <time>2026-08-25T12:25:43Z</time>
      </trkpt>
      <trkpt lat="47.52442" lon="-2.78728">
        <ele>35.9</ele>
        <time>2026-08-25T12:25:44Z</time>
      </trkpt>
      <trkpt lat="47.52439" lon="-2.78736">
        <ele>35.8</ele>
        <time>2026-08-25T12:25:45Z</time>
      </trkpt>
      <trkpt lat="47.52437" lon="-2.78744">
        <ele>35.7</ele>
        <time>2026-08-25T12:25:46Z</time>
      </trkpt>
      <trkpt lat="47.52434" lon="-2.78753">
        <ele>35.6</ele>
        <time>2026-08-25T12:25:47Z</time>
      </trkpt>
      <trkpt lat="47.52431" lon="-2.78762">
        <ele>35.5</ele>
        <time>2026-08-25T12:25:48Z</time>
      </trkpt>
      <trkpt lat="47.52429" lon="-2.78773">
        <ele>35.4</ele>
        <time>2026-08-25T12:25:49Z</time>
      </trkpt>
      <trkpt lat="47.52427" lon="-2.78784">
        <ele>35.4</ele>
        <time>2026-08-25T12:25:50Z</time>
      </trkpt>
      <trkpt lat="47.52424" lon="-2.78794">
        <ele>35.3</ele>
        <time>2026-08-25T12:25:51Z</time>
      </trkpt>
      <trkpt lat="47.52422" lon="-2.78805">
        <ele>35.2</ele>
        <time>2026-08-25T12:25:52Z</time>
      </trkpt>
      <trkpt lat="47.52418" lon="-2.78815">
        <ele>34.4</ele>
        <time>2026-08-25T12:25:53Z</time>
      </trkpt>
      <trkpt lat="47.52413" lon="-2.78824">
        <ele>33.7</ele>
        <time>2026-08-25T12:25:54Z</time>
      </trkpt>
      <trkpt lat="47.52417" lon="-2.78835">
        <ele>33.1</ele>
        <time>2026-08-25T12:25:55Z</time>
      </trkpt>
      <trkpt lat="47.52418" lon="-2.78844">
        <ele>33.8</ele>
        <time>2026-08-25T12:25:56Z</time>
      </trkpt>
      <trkpt lat="47.52419" lon="-2.78852">
        <ele>34.5</ele>
        <time>2026-08-25T12:25:57Z</time>
      </trkpt>
      <trkpt lat="47.52419" lon="-2.7886">
        <ele>35</ele>
        <time>2026-08-25T12:25:58Z</time>
      </trkpt>
      <trkpt lat="47.52419" lon="-2.78868">
        <ele>35.1</ele>
        <time>2026-08-25T12:25:59Z</time>
      </trkpt>
      <trkpt lat="47.52418" lon="-2.78875">
        <ele>35</ele>
        <time>2026-08-25T12:26:00Z</time>
      </trkpt>
      <trkpt lat="47.52417" lon="-2.78881">
        <ele>35</ele>
        <time>2026-08-25T12:26:01Z</time>
      </trkpt>
      <trkpt lat="47.52415" lon="-2.78887">
        <ele>34.9</ele>
        <time>2026-08-25T12:26:02Z</time>
      </trkpt>
      <trkpt lat="47.52412" lon="-2.78892">
        <ele>34.8</ele>
        <time>2026-08-25T12:26:03Z</time>
      </trkpt>
      <trkpt lat="47.52409" lon="-2.78897">
        <ele>34.7</ele>
        <time>2026-08-25T12:26:04Z</time>
      </trkpt>
      <trkpt lat="47.52407" lon="-2.78901">
        <ele>34.7</ele>
        <time>2026-08-25T12:26:05Z</time>
      </trkpt>
      <trkpt lat="47.52404" lon="-2.78906">
        <ele>34.5</ele>
        <time>2026-08-25T12:26:06Z</time>
      </trkpt>
      <trkpt lat="47.52401" lon="-2.78911">
        <ele>34.4</ele>
        <time>2026-08-25T12:26:07Z</time>
      </trkpt>
      <trkpt lat="47.52398" lon="-2.78915">
        <ele>34.3</ele>
        <time>2026-08-25T12:26:08Z</time>
      </trkpt>
      <trkpt lat="47.52395" lon="-2.7892">
        <ele>34.2</ele>
        <time>2026-08-25T12:26:09Z</time>
      </trkpt>
      <trkpt lat="47.52391" lon="-2.78925">
        <ele>34.1</ele>
        <time>2026-08-25T12:26:10Z</time>
      </trkpt>
      <trkpt lat="47.52388" lon="-2.7893">
        <ele>34</ele>
        <time>2026-08-25T12:26:11Z</time>
      </trkpt>
      <trkpt lat="47.52385" lon="-2.78935">
        <ele>34</ele>
        <time>2026-08-25T12:26:12Z</time>
      </trkpt>
      <trkpt lat="47.52382" lon="-2.7894">
        <ele>34</ele>
        <time>2026-08-25T12:26:13Z</time>
      </trkpt>
      <trkpt lat="47.52379" lon="-2.78946">
        <ele>34</ele>
        <time>2026-08-25T12:26:14Z</time>
      </trkpt>
      <trkpt lat="47.52377" lon="-2.78951">
        <ele>34</ele>
        <time>2026-08-25T12:26:15Z</time>
      </trkpt>
      <trkpt lat="47.52375" lon="-2.78957">
        <ele>34</ele>
        <time>2026-08-25T12:26:16Z</time>
      </trkpt>
      <trkpt lat="47.52373" lon="-2.78963">
        <ele>34</ele>
        <time>2026-08-25T12:26:17Z</time>
      </trkpt>
      <trkpt lat="47.52371" lon="-2.78969">
        <ele>34</ele>
        <time>2026-08-25T12:26:18Z</time>
      </trkpt>
      <trkpt lat="47.5237" lon="-2.78974">
        <ele>34</ele>
        <time>2026-08-25T12:26:19Z</time>
      </trkpt>
      <trkpt lat="47.52369" lon="-2.78979">
        <ele>34</ele>
        <time>2026-08-25T12:26:20Z</time>
      </trkpt>
      <trkpt lat="47.52368" lon="-2.78984">
        <ele>34</ele>
        <time>2026-08-25T12:26:21Z</time>
      </trkpt>
      <trkpt lat="47.52367" lon="-2.78988">
        <ele>34</ele>
        <time>2026-08-25T12:26:22Z</time>
      </trkpt>
      <trkpt lat="47.52367" lon="-2.78993">
        <ele>34</ele>
        <time>2026-08-25T12:26:23Z</time>
      </trkpt>
      <trkpt lat="47.52366" lon="-2.78998">
        <ele>34</ele>
        <time>2026-08-25T12:26:24Z</time>
      </trkpt>
      <trkpt lat="47.52366" lon="-2.79003">
        <ele>34</ele>
        <time>2026-08-25T12:26:25Z</time>
      </trkpt>
      <trkpt lat="47.52367" lon="-2.79009">
        <ele>34</ele>
        <time>2026-08-25T12:26:26Z</time>
      </trkpt>
      <trkpt lat="47.52367" lon="-2.79015">
        <ele>34</ele>
        <time>2026-08-25T12:26:27Z</time>
      </trkpt>
      <trkpt lat="47.52367" lon="-2.79022">
        <ele>34</ele>
        <time>2026-08-25T12:26:28Z</time>
      </trkpt>
      <trkpt lat="47.52368" lon="-2.79029">
        <ele>34</ele>
        <time>2026-08-25T12:26:29Z</time>
      </trkpt>
      <trkpt lat="47.52369" lon="-2.79035">
        <ele>34</ele>
        <time>2026-08-25T12:26:30Z</time>
      </trkpt>
      <trkpt lat="47.5237" lon="-2.79042">
        <ele>34</ele>
        <time>2026-08-25T12:26:31Z</time>
      </trkpt>
      <trkpt lat="47.52371" lon="-2.79049">
        <ele>34</ele>
        <time>2026-08-25T12:26:32Z</time>
      </trkpt>
      <trkpt lat="47.52371" lon="-2.79056">
        <ele>34</ele>
        <time>2026-08-25T12:26:33Z</time>
      </trkpt>
      <trkpt lat="47.52372" lon="-2.79063">
        <ele>33.8</ele>
        <time>2026-08-25T12:26:34Z</time>
      </trkpt>
      <trkpt lat="47.52373" lon="-2.7907">
        <ele>33.7</ele>
        <time>2026-08-25T12:26:35Z</time>
      </trkpt>
      <trkpt lat="47.52374" lon="-2.79077">
        <ele>33.6</ele>
        <time>2026-08-25T12:26:36Z</time>
      </trkpt>
      <trkpt lat="47.52376" lon="-2.79084">
        <ele>33.5</ele>
        <time>2026-08-25T12:26:37Z</time>
      </trkpt>
      <trkpt lat="47.52377" lon="-2.79091">
        <ele>33.4</ele>
        <time>2026-08-25T12:26:38Z</time>
      </trkpt>
      <trkpt lat="47.52379" lon="-2.79098">
        <ele>33.3</ele>
        <time>2026-08-25T12:26:39Z</time>
      </trkpt>
      <trkpt lat="47.5238" lon="-2.79105">
        <ele>33.1</ele>
        <time>2026-08-25T12:26:40Z</time>
      </trkpt>
      <trkpt lat="47.52381" lon="-2.79113">
        <ele>33</ele>
        <time>2026-08-25T12:26:41Z</time>
      </trkpt>
      <trkpt lat="47.52383" lon="-2.7912">
        <ele>32.9</ele>
        <time>2026-08-25T12:26:42Z</time>
      </trkpt>
      <trkpt lat="47.52384" lon="-2.79128">
        <ele>32.9</ele>
        <time>2026-08-25T12:26:43Z</time>
      </trkpt>
      <trkpt lat="47.52385" lon="-2.79135">
        <ele>32.9</ele>
        <time>2026-08-25T12:26:44Z</time>
      </trkpt>
      <trkpt lat="47.52386" lon="-2.79143">
        <ele>32.9</ele>
        <time>2026-08-25T12:26:45Z</time>
      </trkpt>
      <trkpt lat="47.52387" lon="-2.79151">
        <ele>32.9</ele>
        <time>2026-08-25T12:26:46Z</time>
      </trkpt>
      <trkpt lat="47.52388" lon="-2.79158">
        <ele>33</ele>
        <time>2026-08-25T12:26:47Z</time>
      </trkpt>
      <trkpt lat="47.5239" lon="-2.79166">
        <ele>33</ele>
        <time>2026-08-25T12:26:48Z</time>
      </trkpt>
      <trkpt lat="47.52391" lon="-2.79174">
        <ele>32.7</ele>
        <time>2026-08-25T12:26:49Z</time>
      </trkpt>
      <trkpt lat="47.52392" lon="-2.79181">
        <ele>32.5</ele>
        <time>2026-08-25T12:26:50Z</time>
      </trkpt>
      <trkpt lat="47.52392" lon="-2.79189">
        <ele>32.2</ele>
        <time>2026-08-25T12:26:51Z</time>
      </trkpt>
      <trkpt lat="47.52393" lon="-2.79197">
        <ele>32</ele>
        <time>2026-08-25T12:26:52Z</time>
      </trkpt>
      <trkpt lat="47.52394" lon="-2.79205">
        <ele>32</ele>
        <time>2026-08-25T12:26:53Z</time>
      </trkpt>
      <trkpt lat="47.52394" lon="-2.79213">
        <ele>32</ele>
        <time>2026-08-25T12:26:54Z</time>
      </trkpt>
      <trkpt lat="47.52395" lon="-2.79221">
        <ele>32</ele>
        <time>2026-08-25T12:26:55Z</time>
      </trkpt>
      <trkpt lat="47.52396" lon="-2.79229">
        <ele>31.8</ele>
        <time>2026-08-25T12:26:56Z</time>
      </trkpt>
      <trkpt lat="47.52397" lon="-2.79237">
        <ele>31.5</ele>
        <time>2026-08-25T12:26:57Z</time>
      </trkpt>
      <trkpt lat="47.52398" lon="-2.79245">
        <ele>31.2</ele>
        <time>2026-08-25T12:26:58Z</time>
      </trkpt>
      <trkpt lat="47.524" lon="-2.79252">
        <ele>31</ele>
        <time>2026-08-25T12:26:59Z</time>
      </trkpt>
      <trkpt lat="47.52402" lon="-2.7926">
        <ele>30.8</ele>
        <time>2026-08-25T12:27:00Z</time>
      </trkpt>
      <trkpt lat="47.52404" lon="-2.79268">
        <ele>30.7</ele>
        <time>2026-08-25T12:27:01Z</time>
      </trkpt>
      <trkpt lat="47.52405" lon="-2.79276">
        <ele>30.6</ele>
        <time>2026-08-25T12:27:02Z</time>
      </trkpt>
      <trkpt lat="47.52407" lon="-2.79284">
        <ele>30.5</ele>
        <time>2026-08-25T12:27:03Z</time>
      </trkpt>
      <trkpt lat="47.52409" lon="-2.79291">
        <ele>30.4</ele>
        <time>2026-08-25T12:27:04Z</time>
      </trkpt>
      <trkpt lat="47.5241" lon="-2.79299">
        <ele>30.2</ele>
        <time>2026-08-25T12:27:05Z</time>
      </trkpt>
      <trkpt lat="47.52412" lon="-2.79306">
        <ele>30</ele>
        <time>2026-08-25T12:27:06Z</time>
      </trkpt>
      <trkpt lat="47.52414" lon="-2.79314">
        <ele>30</ele>
        <time>2026-08-25T12:27:07Z</time>
      </trkpt>
      <trkpt lat="47.52415" lon="-2.79322">
        <ele>30</ele>
        <time>2026-08-25T12:27:08Z</time>
      </trkpt>
      <trkpt lat="47.52416" lon="-2.79329">
        <ele>30</ele>
        <time>2026-08-25T12:27:09Z</time>
      </trkpt>
      <trkpt lat="47.52418" lon="-2.79337">
        <ele>29.9</ele>
        <time>2026-08-25T12:27:10Z</time>
      </trkpt>
      <trkpt lat="47.52419" lon="-2.79345">
        <ele>29.6</ele>
        <time>2026-08-25T12:27:11Z</time>
      </trkpt>
      <trkpt lat="47.5242" lon="-2.79353">
        <ele>29.3</ele>
        <time>2026-08-25T12:27:12Z</time>
      </trkpt>
      <trkpt lat="47.5242" lon="-2.79362">
        <ele>28.9</ele>
        <time>2026-08-25T12:27:13Z</time>
      </trkpt>
      <trkpt lat="47.52421" lon="-2.7937">
        <ele>28.4</ele>
        <time>2026-08-25T12:27:14Z</time>
      </trkpt>
      <trkpt lat="47.52422" lon="-2.79378">
        <ele>27.9</ele>
        <time>2026-08-25T12:27:15Z</time>
      </trkpt>
      <trkpt lat="47.52423" lon="-2.79386">
        <ele>27.4</ele>
        <time>2026-08-25T12:27:16Z</time>
      </trkpt>
      <trkpt lat="47.52422" lon="-2.79393">
        <ele>27.2</ele>
        <time>2026-08-25T12:27:17Z</time>
      </trkpt>
      <trkpt lat="47.52421" lon="-2.79399">
        <ele>27.2</ele>
        <time>2026-08-25T12:27:18Z</time>
      </trkpt>
      <trkpt lat="47.52419" lon="-2.79403">
        <ele>27.1</ele>
        <time>2026-08-25T12:27:19Z</time>
      </trkpt>
      <trkpt lat="47.52415" lon="-2.79406">
        <ele>27</ele>
        <time>2026-08-25T12:27:20Z</time>
      </trkpt>
      <trkpt lat="47.52411" lon="-2.79407">
        <ele>26.9</ele>
        <time>2026-08-25T12:27:21Z</time>
      </trkpt>
      <trkpt lat="47.52406" lon="-2.79408">
        <ele>26.7</ele>
        <time>2026-08-25T12:27:22Z</time>
      </trkpt>
      <trkpt lat="47.52401" lon="-2.79409">
        <ele>26.6</ele>
        <time>2026-08-25T12:27:23Z</time>
      </trkpt>
      <trkpt lat="47.52395" lon="-2.79411">
        <ele>26.4</ele>
        <time>2026-08-25T12:27:24Z</time>
      </trkpt>
      <trkpt lat="47.5239" lon="-2.79414">
        <ele>26.1</ele>
        <time>2026-08-25T12:27:25Z</time>
      </trkpt>
      <trkpt lat="47.52384" lon="-2.79417">
        <ele>25.7</ele>
        <time>2026-08-25T12:27:26Z</time>
      </trkpt>
      <trkpt lat="47.52378" lon="-2.79421">
        <ele>25.5</ele>
        <time>2026-08-25T12:27:27Z</time>
      </trkpt>
      <trkpt lat="47.52373" lon="-2.79425">
        <ele>25.3</ele>
        <time>2026-08-25T12:27:28Z</time>
      </trkpt>
      <trkpt lat="47.52368" lon="-2.7943">
        <ele>25.1</ele>
        <time>2026-08-25T12:27:29Z</time>
      </trkpt>
      <trkpt lat="47.52363" lon="-2.79436">
        <ele>24.9</ele>
        <time>2026-08-25T12:27:30Z</time>
      </trkpt>
      <trkpt lat="47.52359" lon="-2.79441">
        <ele>24.9</ele>
        <time>2026-08-25T12:27:31Z</time>
      </trkpt>
      <trkpt lat="47.52354" lon="-2.79446">
        <ele>24.9</ele>
        <time>2026-08-25T12:27:32Z</time>
      </trkpt>
      <trkpt lat="47.5235" lon="-2.79452">
        <ele>24.7</ele>
        <time>2026-08-25T12:27:33Z</time>
      </trkpt>
      <trkpt lat="47.52346" lon="-2.79457">
        <ele>24.6</ele>
        <time>2026-08-25T12:27:34Z</time>
      </trkpt>
      <trkpt lat="47.52343" lon="-2.79462">
        <ele>24.6</ele>
        <time>2026-08-25T12:27:35Z</time>
      </trkpt>
      <trkpt lat="47.52339" lon="-2.79467">
        <ele>24.7</ele>
        <time>2026-08-25T12:27:36Z</time>
      </trkpt>
      <trkpt lat="47.52336" lon="-2.79471">
        <ele>24.8</ele>
        <time>2026-08-25T12:27:37Z</time>
      </trkpt>
      <trkpt lat="47.52332" lon="-2.79475">
        <ele>25.2</ele>
        <time>2026-08-25T12:27:38Z</time>
      </trkpt>
      <trkpt lat="47.52329" lon="-2.7948">
        <ele>25.7</ele>
        <time>2026-08-25T12:27:39Z</time>
      </trkpt>
      <trkpt lat="47.52326" lon="-2.79484">
        <ele>26.1</ele>
        <time>2026-08-25T12:27:40Z</time>
      </trkpt>
      <trkpt lat="47.52323" lon="-2.79489">
        <ele>26.5</ele>
        <time>2026-08-25T12:27:41Z</time>
      </trkpt>
      <trkpt lat="47.5232" lon="-2.79493">
        <ele>26.8</ele>
        <time>2026-08-25T12:27:42Z</time>
      </trkpt>
      <trkpt lat="47.52317" lon="-2.79497">
        <ele>27.1</ele>
        <time>2026-08-25T12:27:43Z</time>
      </trkpt>
      <trkpt lat="47.52314" lon="-2.795">
        <ele>27.4</ele>
        <time>2026-08-25T12:27:44Z</time>
      </trkpt>
      <trkpt lat="47.52311" lon="-2.79504">
        <ele>27.6</ele>
        <time>2026-08-25T12:27:45Z</time>
      </trkpt>
      <trkpt lat="47.52308" lon="-2.79508">
        <ele>27.8</ele>
        <time>2026-08-25T12:27:46Z</time>
      </trkpt>
      <trkpt lat="47.52305" lon="-2.79511">
        <ele>28</ele>
        <time>2026-08-25T12:27:47Z</time>
      </trkpt>
      <trkpt lat="47.52302" lon="-2.79515">
        <ele>28.1</ele>
        <time>2026-08-25T12:27:48Z</time>
      </trkpt>
      <trkpt lat="47.523" lon="-2.79518">
        <ele>28.2</ele>
        <time>2026-08-25T12:27:49Z</time>
      </trkpt>
      <trkpt lat="47.52297" lon="-2.79522">
        <ele>28.3</ele>
        <time>2026-08-25T12:27:50Z</time>
      </trkpt>
      <trkpt lat="47.52294" lon="-2.79525">
        <ele>28.4</ele>
        <time>2026-08-25T12:27:51Z</time>
      </trkpt>
      <trkpt lat="47.52291" lon="-2.79529">
        <ele>28.6</ele>
        <time>2026-08-25T12:27:52Z</time>
      </trkpt>
      <trkpt lat="47.52288" lon="-2.79532">
        <ele>28.8</ele>
        <time>2026-08-25T12:27:53Z</time>
      </trkpt>
      <trkpt lat="47.52285" lon="-2.79536">
        <ele>29</ele>
        <time>2026-08-25T12:27:54Z</time>
      </trkpt>
      <trkpt lat="47.52283" lon="-2.79539">
        <ele>29.2</ele>
        <time>2026-08-25T12:27:55Z</time>
      </trkpt>
      <trkpt lat="47.5228" lon="-2.79543">
        <ele>29.5</ele>
        <time>2026-08-25T12:27:56Z</time>
      </trkpt>
      <trkpt lat="47.52277" lon="-2.79546">
        <ele>29.7</ele>
        <time>2026-08-25T12:27:57Z</time>
      </trkpt>
      <trkpt lat="47.52274" lon="-2.79549">
        <ele>29.9</ele>
        <time>2026-08-25T12:27:58Z</time>
      </trkpt>
      <trkpt lat="47.52271" lon="-2.79552">
        <ele>30.1</ele>
        <time>2026-08-25T12:27:59Z</time>
      </trkpt>
      <trkpt lat="47.52268" lon="-2.79555">
        <ele>30.3</ele>
        <time>2026-08-25T12:28:00Z</time>
      </trkpt>
      <trkpt lat="47.52265" lon="-2.79559">
        <ele>30.5</ele>
        <time>2026-08-25T12:28:01Z</time>
      </trkpt>
      <trkpt lat="47.52262" lon="-2.79562">
        <ele>30.6</ele>
        <time>2026-08-25T12:28:02Z</time>
      </trkpt>
      <trkpt lat="47.5226" lon="-2.79565">
        <ele>30.6</ele>
        <time>2026-08-25T12:28:03Z</time>
      </trkpt>
      <trkpt lat="47.52257" lon="-2.79568">
        <ele>30.7</ele>
        <time>2026-08-25T12:28:04Z</time>
      </trkpt>
      <trkpt lat="47.52254" lon="-2.79571">
        <ele>30.9</ele>
        <time>2026-08-25T12:28:05Z</time>
      </trkpt>
      <trkpt lat="47.52251" lon="-2.79574">
        <ele>31</ele>
        <time>2026-08-25T12:28:06Z</time>
      </trkpt>
      <trkpt lat="47.52248" lon="-2.79577">
        <ele>31</ele>
        <time>2026-08-25T12:28:07Z</time>
      </trkpt>
      <trkpt lat="47.52245" lon="-2.79581">
        <ele>31</ele>
        <time>2026-08-25T12:28:08Z</time>
      </trkpt>
      <trkpt lat="47.52242" lon="-2.79584">
        <ele>31</ele>
        <time>2026-08-25T12:28:09Z</time>
      </trkpt>
      <trkpt lat="47.52238" lon="-2.79587">
        <ele>31.1</ele>
        <time>2026-08-25T12:28:10Z</time>
      </trkpt>
      <trkpt lat="47.52235" lon="-2.7959">
        <ele>31.1</ele>
        <time>2026-08-25T12:28:11Z</time>
      </trkpt>
      <trkpt lat="47.52232" lon="-2.79593">
        <ele>31.2</ele>
        <time>2026-08-25T12:28:12Z</time>
      </trkpt>
      <trkpt lat="47.52229" lon="-2.79597">
        <ele>31.4</ele>
        <time>2026-08-25T12:28:13Z</time>
      </trkpt>
      <trkpt lat="47.52226" lon="-2.796">
        <ele>31.5</ele>
        <time>2026-08-25T12:28:14Z</time>
      </trkpt>
      <trkpt lat="47.52223" lon="-2.79603">
        <ele>31.7</ele>
        <time>2026-08-25T12:28:15Z</time>
      </trkpt>
      <trkpt lat="47.52221" lon="-2.79606">
        <ele>31.8</ele>
        <time>2026-08-25T12:28:16Z</time>
      </trkpt>
      <trkpt lat="47.52218" lon="-2.79609">
        <ele>31.9</ele>
        <time>2026-08-25T12:28:17Z</time>
      </trkpt>
      <trkpt lat="47.52215" lon="-2.79612">
        <ele>32</ele>
        <time>2026-08-25T12:28:18Z</time>
      </trkpt>
      <trkpt lat="47.52212" lon="-2.79616">
        <ele>32.1</ele>
        <time>2026-08-25T12:28:19Z</time>
      </trkpt>
      <trkpt lat="47.52209" lon="-2.79619">
        <ele>32.1</ele>
        <time>2026-08-25T12:28:20Z</time>
      </trkpt>
      <trkpt lat="47.52206" lon="-2.79622">
        <ele>32.2</ele>
        <time>2026-08-25T12:28:21Z</time>
      </trkpt>
      <trkpt lat="47.52203" lon="-2.79625">
        <ele>32.3</ele>
        <time>2026-08-25T12:28:22Z</time>
      </trkpt>
      <trkpt lat="47.52199" lon="-2.79628">
        <ele>32.5</ele>
        <time>2026-08-25T12:28:23Z</time>
      </trkpt>
      <trkpt lat="47.52196" lon="-2.79631">
        <ele>32.7</ele>
        <time>2026-08-25T12:28:24Z</time>
      </trkpt>
      <trkpt lat="47.52193" lon="-2.79634">
        <ele>32.8</ele>
        <time>2026-08-25T12:28:25Z</time>
      </trkpt>
      <trkpt lat="47.5219" lon="-2.79637">
        <ele>32.9</ele>
        <time>2026-08-25T12:28:26Z</time>
      </trkpt>
      <trkpt lat="47.52187" lon="-2.79639">
        <ele>33</ele>
        <time>2026-08-25T12:28:27Z</time>
      </trkpt>
      <trkpt lat="47.52183" lon="-2.79642">
        <ele>33</ele>
        <time>2026-08-25T12:28:28Z</time>
      </trkpt>
      <trkpt lat="47.5218" lon="-2.79645">
        <ele>33</ele>
        <time>2026-08-25T12:28:29Z</time>
      </trkpt>
      <trkpt lat="47.52177" lon="-2.79648">
        <ele>33</ele>
        <time>2026-08-25T12:28:30Z</time>
      </trkpt>
      <trkpt lat="47.52173" lon="-2.7965">
        <ele>33</ele>
        <time>2026-08-25T12:28:31Z</time>
      </trkpt>
      <trkpt lat="47.5217" lon="-2.79653">
        <ele>33</ele>
        <time>2026-08-25T12:28:32Z</time>
      </trkpt>
      <trkpt lat="47.52166" lon="-2.79655">
        <ele>33</ele>
        <time>2026-08-25T12:28:33Z</time>
      </trkpt>
      <trkpt lat="47.52163" lon="-2.79657">
        <ele>33</ele>
        <time>2026-08-25T12:28:34Z</time>
      </trkpt>
      <trkpt lat="47.5216" lon="-2.79659">
        <ele>33</ele>
        <time>2026-08-25T12:28:35Z</time>
      </trkpt>
      <trkpt lat="47.52156" lon="-2.79661">
        <ele>33</ele>
        <time>2026-08-25T12:28:36Z</time>
      </trkpt>
      <trkpt lat="47.52153" lon="-2.79664">
        <ele>33</ele>
        <time>2026-08-25T12:28:37Z</time>
      </trkpt>
      <trkpt lat="47.5215" lon="-2.79666">
        <ele>33</ele>
        <time>2026-08-25T12:28:38Z</time>
      </trkpt>
      <trkpt lat="47.52147" lon="-2.79669">
        <ele>33</ele>
        <time>2026-08-25T12:28:39Z</time>
      </trkpt>
      <trkpt lat="47.52143" lon="-2.79671">
        <ele>33</ele>
        <time>2026-08-25T12:28:40Z</time>
      </trkpt>
      <trkpt lat="47.5214" lon="-2.79673">
        <ele>33</ele>
        <time>2026-08-25T12:28:41Z</time>
      </trkpt>
      <trkpt lat="47.52137" lon="-2.79675">
        <ele>33.1</ele>
        <time>2026-08-25T12:28:42Z</time>
      </trkpt>
      <trkpt lat="47.52134" lon="-2.79677">
        <ele>33.2</ele>
        <time>2026-08-25T12:28:43Z</time>
      </trkpt>
      <trkpt lat="47.52131" lon="-2.7968">
        <ele>33.4</ele>
        <time>2026-08-25T12:28:44Z</time>
      </trkpt>
      <trkpt lat="47.52128" lon="-2.79682">
        <ele>33.6</ele>
        <time>2026-08-25T12:28:45Z</time>
      </trkpt>
      <trkpt lat="47.52125" lon="-2.79683">
        <ele>33.8</ele>
        <time>2026-08-25T12:28:46Z</time>
      </trkpt>
      <trkpt lat="47.52122" lon="-2.79685">
        <ele>34</ele>
        <time>2026-08-25T12:28:47Z</time>
      </trkpt>
      <trkpt lat="47.5212" lon="-2.79687">
        <ele>34.2</ele>
        <time>2026-08-25T12:28:48Z</time>
      </trkpt>
      <trkpt lat="47.52117" lon="-2.7969">
        <ele>34.4</ele>
        <time>2026-08-25T12:28:49Z</time>
      </trkpt>
      <trkpt lat="47.52114" lon="-2.79691">
        <ele>34.7</ele>
        <time>2026-08-25T12:28:50Z</time>
      </trkpt>
      <trkpt lat="47.52111" lon="-2.79693">
        <ele>35</ele>
        <time>2026-08-25T12:28:51Z</time>
      </trkpt>
      <trkpt lat="47.52108" lon="-2.79695">
        <ele>35.1</ele>
        <time>2026-08-25T12:28:52Z</time>
      </trkpt>
      <trkpt lat="47.52105" lon="-2.79697">
        <ele>35.2</ele>
        <time>2026-08-25T12:28:53Z</time>
      </trkpt>
      <trkpt lat="47.52102" lon="-2.79699">
        <ele>35.3</ele>
        <time>2026-08-25T12:28:54Z</time>
      </trkpt>
      <trkpt lat="47.52099" lon="-2.79701">
        <ele>35.4</ele>
        <time>2026-08-25T12:28:55Z</time>
      </trkpt>
      <trkpt lat="47.52096" lon="-2.79703">
        <ele>35.5</ele>
        <time>2026-08-25T12:28:56Z</time>
      </trkpt>
      <trkpt lat="47.52093" lon="-2.79705">
        <ele>35.7</ele>
        <time>2026-08-25T12:28:57Z</time>
      </trkpt>
      <trkpt lat="47.52091" lon="-2.79707">
        <ele>35.7</ele>
        <time>2026-08-25T12:28:58Z</time>
      </trkpt>
      <trkpt lat="47.52088" lon="-2.79709">
        <ele>35.8</ele>
        <time>2026-08-25T12:28:59Z</time>
      </trkpt>
      <trkpt lat="47.52085" lon="-2.79711">
        <ele>35.9</ele>
        <time>2026-08-25T12:29:00Z</time>
      </trkpt>
      <trkpt lat="47.52082" lon="-2.79713">
        <ele>36</ele>
        <time>2026-08-25T12:29:01Z</time>
      </trkpt>
      <trkpt lat="47.52079" lon="-2.79715">
        <ele>36.2</ele>
        <time>2026-08-25T12:29:02Z</time>
      </trkpt>
      <trkpt lat="47.52076" lon="-2.79717">
        <ele>36.3</ele>
        <time>2026-08-25T12:29:03Z</time>
      </trkpt>
      <trkpt lat="47.52073" lon="-2.79719">
        <ele>36.4</ele>
        <time>2026-08-25T12:29:04Z</time>
      </trkpt>
      <trkpt lat="47.5207" lon="-2.79721">
        <ele>36.5</ele>
        <time>2026-08-25T12:29:05Z</time>
      </trkpt>
      <trkpt lat="47.52067" lon="-2.79723">
        <ele>36.6</ele>
        <time>2026-08-25T12:29:06Z</time>
      </trkpt>
      <trkpt lat="47.52064" lon="-2.79725">
        <ele>36.7</ele>
        <time>2026-08-25T12:29:07Z</time>
      </trkpt>
      <trkpt lat="47.52061" lon="-2.79727">
        <ele>36.8</ele>
        <time>2026-08-25T12:29:08Z</time>
      </trkpt>
      <trkpt lat="47.52058" lon="-2.79729">
        <ele>36.9</ele>
        <time>2026-08-25T12:29:09Z</time>
      </trkpt>
      <trkpt lat="47.52055" lon="-2.7973">
        <ele>37</ele>
        <time>2026-08-25T12:29:10Z</time>
      </trkpt>
      <trkpt lat="47.52053" lon="-2.79733">
        <ele>37</ele>
        <time>2026-08-25T12:29:11Z</time>
      </trkpt>
      <trkpt lat="47.52049" lon="-2.79734">
        <ele>37</ele>
        <time>2026-08-25T12:29:12Z</time>
      </trkpt>
      <trkpt lat="47.52046" lon="-2.79736">
        <ele>37</ele>
        <time>2026-08-25T12:29:13Z</time>
      </trkpt>
      <trkpt lat="47.52043" lon="-2.79738">
        <ele>37</ele>
        <time>2026-08-25T12:29:14Z</time>
      </trkpt>
      <trkpt lat="47.5204" lon="-2.7974">
        <ele>37</ele>
        <time>2026-08-25T12:29:15Z</time>
      </trkpt>
      <trkpt lat="47.52037" lon="-2.79742">
        <ele>37</ele>
        <time>2026-08-25T12:29:16Z</time>
      </trkpt>
      <trkpt lat="47.52034" lon="-2.79744">
        <ele>37</ele>
        <time>2026-08-25T12:29:17Z</time>
      </trkpt>
      <trkpt lat="47.52031" lon="-2.79746">
        <ele>37</ele>
        <time>2026-08-25T12:29:18Z</time>
      </trkpt>
      <trkpt lat="47.52028" lon="-2.79749">
        <ele>37</ele>
        <time>2026-08-25T12:29:19Z</time>
      </trkpt>
      <trkpt lat="47.52025" lon="-2.79751">
        <ele>37.1</ele>
        <time>2026-08-25T12:29:20Z</time>
      </trkpt>
      <trkpt lat="47.52022" lon="-2.79753">
        <ele>37.3</ele>
        <time>2026-08-25T12:29:21Z</time>
      </trkpt>
      <trkpt lat="47.52019" lon="-2.79755">
        <ele>37.4</ele>
        <time>2026-08-25T12:29:22Z</time>
      </trkpt>
      <trkpt lat="47.52016" lon="-2.79757">
        <ele>37.5</ele>
        <time>2026-08-25T12:29:23Z</time>
      </trkpt>
      <trkpt lat="47.52012" lon="-2.79759">
        <ele>37.5</ele>
        <time>2026-08-25T12:29:24Z</time>
      </trkpt>
      <trkpt lat="47.52009" lon="-2.79761">
        <ele>37.5</ele>
        <time>2026-08-25T12:29:25Z</time>
      </trkpt>
      <trkpt lat="47.52006" lon="-2.79763">
        <ele>37.5</ele>
        <time>2026-08-25T12:29:26Z</time>
      </trkpt>
      <trkpt lat="47.52002" lon="-2.79766">
        <ele>37.4</ele>
        <time>2026-08-25T12:29:27Z</time>
      </trkpt>
      <trkpt lat="47.51999" lon="-2.79768">
        <ele>37.4</ele>
        <time>2026-08-25T12:29:28Z</time>
      </trkpt>
      <trkpt lat="47.51996" lon="-2.7977">
        <ele>37.3</ele>
        <time>2026-08-25T12:29:29Z</time>
      </trkpt>
      <trkpt lat="47.51992" lon="-2.79772">
        <ele>37.4</ele>
        <time>2026-08-25T12:29:30Z</time>
      </trkpt>
      <trkpt lat="47.51989" lon="-2.79775">
        <ele>37.4</ele>
        <time>2026-08-25T12:29:31Z</time>
      </trkpt>
      <trkpt lat="47.51986" lon="-2.79778">
        <ele>37.5</ele>
        <time>2026-08-25T12:29:32Z</time>
      </trkpt>
      <trkpt lat="47.51983" lon="-2.79781">
        <ele>37.7</ele>
        <time>2026-08-25T12:29:33Z</time>
      </trkpt>
      <trkpt lat="47.51981" lon="-2.79785">
        <ele>37.8</ele>
        <time>2026-08-25T12:29:34Z</time>
      </trkpt>
      <trkpt lat="47.51979" lon="-2.79789">
        <ele>37.9</ele>
        <time>2026-08-25T12:29:35Z</time>
      </trkpt>
      <trkpt lat="47.51977" lon="-2.79793">
        <ele>37.9</ele>
        <time>2026-08-25T12:29:36Z</time>
      </trkpt>
      <trkpt lat="47.51975" lon="-2.79798">
        <ele>38</ele>
        <time>2026-08-25T12:29:37Z</time>
      </trkpt>
      <trkpt lat="47.51974" lon="-2.79803">
        <ele>38</ele>
        <time>2026-08-25T12:29:38Z</time>
      </trkpt>
      <trkpt lat="47.51973" lon="-2.79808">
        <ele>38</ele>
        <time>2026-08-25T12:29:39Z</time>
      </trkpt>
      <trkpt lat="47.51972" lon="-2.79813">
        <ele>38</ele>
        <time>2026-08-25T12:29:40Z</time>
      </trkpt>
      <trkpt lat="47.51971" lon="-2.79819">
        <ele>38</ele>
        <time>2026-08-25T12:29:41Z</time>
      </trkpt>
      <trkpt lat="47.5197" lon="-2.79824">
        <ele>37.9</ele>
        <time>2026-08-25T12:29:42Z</time>
      </trkpt>
      <trkpt lat="47.5197" lon="-2.7983">
        <ele>37.9</ele>
        <time>2026-08-25T12:29:43Z</time>
      </trkpt>
      <trkpt lat="47.51969" lon="-2.79836">
        <ele>37.9</ele>
        <time>2026-08-25T12:29:44Z</time>
      </trkpt>
      <trkpt lat="47.51969" lon="-2.79842">
        <ele>37.9</ele>
        <time>2026-08-25T12:29:45Z</time>
      </trkpt>
      <trkpt lat="47.5197" lon="-2.79848">
        <ele>38</ele>
        <time>2026-08-25T12:29:46Z</time>
      </trkpt>
      <trkpt lat="47.5197" lon="-2.79853">
        <ele>38</ele>
        <time>2026-08-25T12:29:47Z</time>
      </trkpt>
      <trkpt lat="47.5197" lon="-2.79859">
        <ele>38</ele>
        <time>2026-08-25T12:29:48Z</time>
      </trkpt>
      <trkpt lat="47.51971" lon="-2.79865">
        <ele>38</ele>
        <time>2026-08-25T12:29:49Z</time>
      </trkpt>
      <trkpt lat="47.51971" lon="-2.79871">
        <ele>38</ele>
        <time>2026-08-25T12:29:50Z</time>
      </trkpt>
      <trkpt lat="47.51972" lon="-2.79877">
        <ele>38</ele>
        <time>2026-08-25T12:29:51Z</time>
      </trkpt>
      <trkpt lat="47.51972" lon="-2.79882">
        <ele>38</ele>
        <time>2026-08-25T12:29:52Z</time>
      </trkpt>
      <trkpt lat="47.51971" lon="-2.79888">
        <ele>38</ele>
        <time>2026-08-25T12:29:53Z</time>
      </trkpt>
      <trkpt lat="47.5197" lon="-2.79893">
        <ele>38</ele>
        <time>2026-08-25T12:29:54Z</time>
      </trkpt>
      <trkpt lat="47.51967" lon="-2.79897">
        <ele>38</ele>
        <time>2026-08-25T12:29:55Z</time>
      </trkpt>
      <trkpt lat="47.51964" lon="-2.79901">
        <ele>38</ele>
        <time>2026-08-25T12:29:56Z</time>
      </trkpt>
      <trkpt lat="47.5196" lon="-2.79903">
        <ele>38</ele>
        <time>2026-08-25T12:29:57Z</time>
      </trkpt>
      <trkpt lat="47.51956" lon="-2.79905">
        <ele>38</ele>
        <time>2026-08-25T12:29:58Z</time>
      </trkpt>
      <trkpt lat="47.51952" lon="-2.79906">
        <ele>38</ele>
        <time>2026-08-25T12:29:59Z</time>
      </trkpt>
      <trkpt lat="47.51948" lon="-2.79907">
        <ele>38</ele>
        <time>2026-08-25T12:30:00Z</time>
      </trkpt>
      <trkpt lat="47.51944" lon="-2.79907">
        <ele>38</ele>
        <time>2026-08-25T12:30:01Z</time>
      </trkpt>
      <trkpt lat="47.51941" lon="-2.79908">
        <ele>37.9</ele>
        <time>2026-08-25T12:30:02Z</time>
      </trkpt>
      <trkpt lat="47.51936" lon="-2.79908">
        <ele>37.7</ele>
        <time>2026-08-25T12:30:03Z</time>
      </trkpt>
      <trkpt lat="47.51932" lon="-2.79909">
        <ele>37.6</ele>
        <time>2026-08-25T12:30:04Z</time>
      </trkpt>
      <trkpt lat="47.51928" lon="-2.7991">
        <ele>37.4</ele>
        <time>2026-08-25T12:30:05Z</time>
      </trkpt>
      <trkpt lat="47.51923" lon="-2.79911">
        <ele>37.2</ele>
        <time>2026-08-25T12:30:06Z</time>
      </trkpt>
      <trkpt lat="47.51919" lon="-2.79912">
        <ele>37.1</ele>
        <time>2026-08-25T12:30:07Z</time>
      </trkpt>
      <trkpt lat="47.51914" lon="-2.79913">
        <ele>37</ele>
        <time>2026-08-25T12:30:08Z</time>
      </trkpt>
      <trkpt lat="47.5191" lon="-2.79915">
        <ele>37</ele>
        <time>2026-08-25T12:30:09Z</time>
      </trkpt>
      <trkpt lat="47.51905" lon="-2.79917">
        <ele>37</ele>
        <time>2026-08-25T12:30:10Z</time>
      </trkpt>
      <trkpt lat="47.51901" lon="-2.7992">
        <ele>37</ele>
        <time>2026-08-25T12:30:11Z</time>
      </trkpt>
      <trkpt lat="47.51896" lon="-2.79922">
        <ele>37</ele>
        <time>2026-08-25T12:30:12Z</time>
      </trkpt>
      <trkpt lat="47.51892" lon="-2.79925">
        <ele>37</ele>
        <time>2026-08-25T12:30:13Z</time>
      </trkpt>
      <trkpt lat="47.51887" lon="-2.79928">
        <ele>36.9</ele>
        <time>2026-08-25T12:30:14Z</time>
      </trkpt>
      <trkpt lat="47.51883" lon="-2.79932">
        <ele>36.7</ele>
        <time>2026-08-25T12:30:15Z</time>
      </trkpt>
      <trkpt lat="47.51878" lon="-2.79936">
        <ele>36.3</ele>
        <time>2026-08-25T12:30:16Z</time>
      </trkpt>
      <trkpt lat="47.51873" lon="-2.79939">
        <ele>36</ele>
        <time>2026-08-25T12:30:17Z</time>
      </trkpt>
      <trkpt lat="47.51868" lon="-2.79943">
        <ele>35.5</ele>
        <time>2026-08-25T12:30:18Z</time>
      </trkpt>
      <trkpt lat="47.51863" lon="-2.79948">
        <ele>35.1</ele>
        <time>2026-08-25T12:30:19Z</time>
      </trkpt>
      <trkpt lat="47.51858" lon="-2.79952">
        <ele>34.9</ele>
        <time>2026-08-25T12:30:20Z</time>
      </trkpt>
      <trkpt lat="47.51852" lon="-2.79956">
        <ele>34.8</ele>
        <time>2026-08-25T12:30:21Z</time>
      </trkpt>
      <trkpt lat="47.51847" lon="-2.79961">
        <ele>34.8</ele>
        <time>2026-08-25T12:30:22Z</time>
      </trkpt>
      <trkpt lat="47.51841" lon="-2.79965">
        <ele>34.8</ele>
        <time>2026-08-25T12:30:23Z</time>
      </trkpt>
      <trkpt lat="47.51836" lon="-2.79969">
        <ele>34.9</ele>
        <time>2026-08-25T12:30:24Z</time>
      </trkpt>
      <trkpt lat="47.51831" lon="-2.79973">
        <ele>35</ele>
        <time>2026-08-25T12:30:25Z</time>
      </trkpt>
      <trkpt lat="47.51825" lon="-2.79977">
        <ele>35</ele>
        <time>2026-08-25T12:30:26Z</time>
      </trkpt>
      <trkpt lat="47.5182" lon="-2.79979">
        <ele>35</ele>
        <time>2026-08-25T12:30:27Z</time>
      </trkpt>
      <trkpt lat="47.51814" lon="-2.79981">
        <ele>35</ele>
        <time>2026-08-25T12:30:28Z</time>
      </trkpt>
      <trkpt lat="47.51809" lon="-2.79983">
        <ele>35</ele>
        <time>2026-08-25T12:30:29Z</time>
      </trkpt>
      <trkpt lat="47.51804" lon="-2.79983">
        <ele>35</ele>
        <time>2026-08-25T12:30:30Z</time>
      </trkpt>
      <trkpt lat="47.51799" lon="-2.79983">
        <ele>34.9</ele>
        <time>2026-08-25T12:30:31Z</time>
      </trkpt>
      <trkpt lat="47.51793" lon="-2.79982">
        <ele>34.7</ele>
        <time>2026-08-25T12:30:32Z</time>
      </trkpt>
      <trkpt lat="47.51788" lon="-2.79982">
        <ele>34.6</ele>
        <time>2026-08-25T12:30:33Z</time>
      </trkpt>
      <trkpt lat="47.51783" lon="-2.79982">
        <ele>34.5</ele>
        <time>2026-08-25T12:30:34Z</time>
      </trkpt>
      <trkpt lat="47.51778" lon="-2.79982">
        <ele>34.4</ele>
        <time>2026-08-25T12:30:35Z</time>
      </trkpt>
      <trkpt lat="47.51773" lon="-2.79981">
        <ele>34.3</ele>
        <time>2026-08-25T12:30:36Z</time>
      </trkpt>
      <trkpt lat="47.51768" lon="-2.79981">
        <ele>34.3</ele>
        <time>2026-08-25T12:30:37Z</time>
      </trkpt>
      <trkpt lat="47.51763" lon="-2.7998">
        <ele>34.3</ele>
        <time>2026-08-25T12:30:38Z</time>
      </trkpt>
      <trkpt lat="47.51758" lon="-2.79979">
        <ele>34.2</ele>
        <time>2026-08-25T12:30:39Z</time>
      </trkpt>
      <trkpt lat="47.51753" lon="-2.79979">
        <ele>34.2</ele>
        <time>2026-08-25T12:30:40Z</time>
      </trkpt>
      <trkpt lat="47.51748" lon="-2.79978">
        <ele>34.3</ele>
        <time>2026-08-25T12:30:41Z</time>
      </trkpt>
      <trkpt lat="47.51743" lon="-2.79978">
        <ele>34.4</ele>
        <time>2026-08-25T12:30:42Z</time>
      </trkpt>
      <trkpt lat="47.51738" lon="-2.79977">
        <ele>34.5</ele>
        <time>2026-08-25T12:30:43Z</time>
      </trkpt>
      <trkpt lat="47.51733" lon="-2.79976">
        <ele>34.7</ele>
        <time>2026-08-25T12:30:44Z</time>
      </trkpt>
      <trkpt lat="47.51728" lon="-2.79976">
        <ele>34.8</ele>
        <time>2026-08-25T12:30:45Z</time>
      </trkpt>
      <trkpt lat="47.51723" lon="-2.79976">
        <ele>35</ele>
        <time>2026-08-25T12:30:46Z</time>
      </trkpt>
      <trkpt lat="47.51718" lon="-2.79976">
        <ele>35</ele>
        <time>2026-08-25T12:30:47Z</time>
      </trkpt>
      <trkpt lat="47.51714" lon="-2.79975">
        <ele>35</ele>
        <time>2026-08-25T12:30:48Z</time>
      </trkpt>
      <trkpt lat="47.5171" lon="-2.79976">
        <ele>35</ele>
        <time>2026-08-25T12:30:49Z</time>
      </trkpt>
      <trkpt lat="47.51705" lon="-2.79977">
        <ele>35</ele>
        <time>2026-08-25T12:30:50Z</time>
      </trkpt>
      <trkpt lat="47.51701" lon="-2.79979">
        <ele>35</ele>
        <time>2026-08-25T12:30:51Z</time>
      </trkpt>
      <trkpt lat="47.51697" lon="-2.79982">
        <ele>35</ele>
        <time>2026-08-25T12:30:52Z</time>
      </trkpt>
      <trkpt lat="47.51693" lon="-2.79986">
        <ele>35</ele>
        <time>2026-08-25T12:30:53Z</time>
      </trkpt>
      <trkpt lat="47.51689" lon="-2.79989">
        <ele>35</ele>
        <time>2026-08-25T12:30:54Z</time>
      </trkpt>
      <trkpt lat="47.51684" lon="-2.79992">
        <ele>35</ele>
        <time>2026-08-25T12:30:55Z</time>
      </trkpt>
      <trkpt lat="47.5168" lon="-2.79996">
        <ele>35</ele>
        <time>2026-08-25T12:30:56Z</time>
      </trkpt>
      <trkpt lat="47.51676" lon="-2.79999">
        <ele>35</ele>
        <time>2026-08-25T12:30:57Z</time>
      </trkpt>
      <trkpt lat="47.51671" lon="-2.80003">
        <ele>35.1</ele>
        <time>2026-08-25T12:30:58Z</time>
      </trkpt>
      <trkpt lat="47.51667" lon="-2.80006">
        <ele>35.2</ele>
        <time>2026-08-25T12:30:59Z</time>
      </trkpt>
      <trkpt lat="47.51663" lon="-2.8001">
        <ele>35.4</ele>
        <time>2026-08-25T12:31:00Z</time>
      </trkpt>
      <trkpt lat="47.51659" lon="-2.80013">
        <ele>35.5</ele>
        <time>2026-08-25T12:31:01Z</time>
      </trkpt>
      <trkpt lat="47.51654" lon="-2.80016">
        <ele>35.6</ele>
        <time>2026-08-25T12:31:02Z</time>
      </trkpt>
      <trkpt lat="47.5165" lon="-2.8002">
        <ele>35.7</ele>
        <time>2026-08-25T12:31:03Z</time>
      </trkpt>
      <trkpt lat="47.51646" lon="-2.80023">
        <ele>35.8</ele>
        <time>2026-08-25T12:31:04Z</time>
      </trkpt>
      <trkpt lat="47.51642" lon="-2.80026">
        <ele>35.9</ele>
        <time>2026-08-25T12:31:05Z</time>
      </trkpt>
      <trkpt lat="47.51638" lon="-2.80029">
        <ele>36</ele>
        <time>2026-08-25T12:31:06Z</time>
      </trkpt>
      <trkpt lat="47.51634" lon="-2.80033">
        <ele>36</ele>
        <time>2026-08-25T12:31:07Z</time>
      </trkpt>
      <trkpt lat="47.5163" lon="-2.80035">
        <ele>36.1</ele>
        <time>2026-08-25T12:31:08Z</time>
      </trkpt>
      <trkpt lat="47.51626" lon="-2.80038">
        <ele>36.2</ele>
        <time>2026-08-25T12:31:09Z</time>
      </trkpt>
      <trkpt lat="47.51622" lon="-2.8004">
        <ele>36.3</ele>
        <time>2026-08-25T12:31:10Z</time>
      </trkpt>
      <trkpt lat="47.51617" lon="-2.80042">
        <ele>36.4</ele>
        <time>2026-08-25T12:31:11Z</time>
      </trkpt>
      <trkpt lat="47.51613" lon="-2.80043">
        <ele>36.5</ele>
        <time>2026-08-25T12:31:12Z</time>
      </trkpt>
      <trkpt lat="47.51609" lon="-2.80044">
        <ele>36.6</ele>
        <time>2026-08-25T12:31:13Z</time>
      </trkpt>
      <trkpt lat="47.51605" lon="-2.80045">
        <ele>36.7</ele>
        <time>2026-08-25T12:31:14Z</time>
      </trkpt>
      <trkpt lat="47.51601" lon="-2.80044">
        <ele>36.7</ele>
        <time>2026-08-25T12:31:15Z</time>
      </trkpt>
      <trkpt lat="47.51597" lon="-2.80044">
        <ele>36.8</ele>
        <time>2026-08-25T12:31:16Z</time>
      </trkpt>
      <trkpt lat="47.51593" lon="-2.80042">
        <ele>36.8</ele>
        <time>2026-08-25T12:31:17Z</time>
      </trkpt>
      <trkpt lat="47.51588" lon="-2.80041">
        <ele>36.9</ele>
        <time>2026-08-25T12:31:18Z</time>
      </trkpt>
      <trkpt lat="47.51584" lon="-2.80038">
        <ele>37</ele>
        <time>2026-08-25T12:31:19Z</time>
      </trkpt>
      <trkpt lat="47.5158" lon="-2.80036">
        <ele>37.1</ele>
        <time>2026-08-25T12:31:20Z</time>
      </trkpt>
      <trkpt lat="47.51576" lon="-2.80034">
        <ele>37.3</ele>
        <time>2026-08-25T12:31:21Z</time>
      </trkpt>
      <trkpt lat="47.51572" lon="-2.80031">
        <ele>37.4</ele>
        <time>2026-08-25T12:31:22Z</time>
      </trkpt>
      <trkpt lat="47.51568" lon="-2.80029">
        <ele>37.6</ele>
        <time>2026-08-25T12:31:23Z</time>
      </trkpt>
      <trkpt lat="47.51564" lon="-2.80027">
        <ele>37.7</ele>
        <time>2026-08-25T12:31:24Z</time>
      </trkpt>
      <trkpt lat="47.51561" lon="-2.80024">
        <ele>37.7</ele>
        <time>2026-08-25T12:31:25Z</time>
      </trkpt>
      <trkpt lat="47.51557" lon="-2.80022">
        <ele>37.7</ele>
        <time>2026-08-25T12:31:26Z</time>
      </trkpt>
      <trkpt lat="47.51554" lon="-2.80019">
        <ele>37.7</ele>
        <time>2026-08-25T12:31:27Z</time>
      </trkpt>
      <trkpt lat="47.5155" lon="-2.80017">
        <ele>37.7</ele>
        <time>2026-08-25T12:31:28Z</time>
      </trkpt>
      <trkpt lat="47.51546" lon="-2.80015">
        <ele>37.7</ele>
        <time>2026-08-25T12:31:29Z</time>
      </trkpt>
      <trkpt lat="47.51543" lon="-2.80013">
        <ele>37.7</ele>
        <time>2026-08-25T12:31:30Z</time>
      </trkpt>
      <trkpt lat="47.51539" lon="-2.8001">
        <ele>37.7</ele>
        <time>2026-08-25T12:31:31Z</time>
      </trkpt>
      <trkpt lat="47.51536" lon="-2.80008">
        <ele>37.8</ele>
        <time>2026-08-25T12:31:32Z</time>
      </trkpt>
      <trkpt lat="47.51532" lon="-2.80005">
        <ele>37.9</ele>
        <time>2026-08-25T12:31:33Z</time>
      </trkpt>
      <trkpt lat="47.51528" lon="-2.80002">
        <ele>38</ele>
        <time>2026-08-25T12:31:34Z</time>
      </trkpt>
      <trkpt lat="47.51525" lon="-2.79999">
        <ele>38.1</ele>
        <time>2026-08-25T12:31:35Z</time>
      </trkpt>
      <trkpt lat="47.51521" lon="-2.79996">
        <ele>38.1</ele>
        <time>2026-08-25T12:31:36Z</time>
      </trkpt>
      <trkpt lat="47.51518" lon="-2.79993">
        <ele>38.2</ele>
        <time>2026-08-25T12:31:37Z</time>
      </trkpt>
      <trkpt lat="47.51515" lon="-2.7999">
        <ele>38.3</ele>
        <time>2026-08-25T12:31:38Z</time>
      </trkpt>
      <trkpt lat="47.51511" lon="-2.79987">
        <ele>38.4</ele>
        <time>2026-08-25T12:31:39Z</time>
      </trkpt>
      <trkpt lat="47.51507" lon="-2.79984">
        <ele>38.6</ele>
        <time>2026-08-25T12:31:40Z</time>
      </trkpt>
      <trkpt lat="47.51503" lon="-2.79981">
        <ele>38.8</ele>
        <time>2026-08-25T12:31:41Z</time>
      </trkpt>
      <trkpt lat="47.515" lon="-2.79978">
        <ele>39</ele>
        <time>2026-08-25T12:31:42Z</time>
      </trkpt>
      <trkpt lat="47.51497" lon="-2.79975">
        <ele>39.1</ele>
        <time>2026-08-25T12:31:43Z</time>
      </trkpt>
      <trkpt lat="47.51493" lon="-2.79972">
        <ele>39.3</ele>
        <time>2026-08-25T12:31:44Z</time>
      </trkpt>
      <trkpt lat="47.5149" lon="-2.7997">
        <ele>39.4</ele>
        <time>2026-08-25T12:31:45Z</time>
      </trkpt>
      <trkpt lat="47.51486" lon="-2.79968">
        <ele>39.5</ele>
        <time>2026-08-25T12:31:46Z</time>
      </trkpt>
      <trkpt lat="47.51482" lon="-2.79966">
        <ele>39.6</ele>
        <time>2026-08-25T12:31:47Z</time>
      </trkpt>
      <trkpt lat="47.51478" lon="-2.79964">
        <ele>39.8</ele>
        <time>2026-08-25T12:31:48Z</time>
      </trkpt>
      <trkpt lat="47.51474" lon="-2.79962">
        <ele>39.9</ele>
        <time>2026-08-25T12:31:49Z</time>
      </trkpt>
      <trkpt lat="47.5147" lon="-2.7996">
        <ele>40</ele>
        <time>2026-08-25T12:31:50Z</time>
      </trkpt>
      <trkpt lat="47.51466" lon="-2.79959">
        <ele>40.1</ele>
        <time>2026-08-25T12:31:51Z</time>
      </trkpt>
      <trkpt lat="47.51462" lon="-2.79957">
        <ele>40.2</ele>
        <time>2026-08-25T12:31:52Z</time>
      </trkpt>
      <trkpt lat="47.51458" lon="-2.79956">
        <ele>40.2</ele>
        <time>2026-08-25T12:31:53Z</time>
      </trkpt>
      <trkpt lat="47.51454" lon="-2.79955">
        <ele>40.2</ele>
        <time>2026-08-25T12:31:54Z</time>
      </trkpt>
      <trkpt lat="47.5145" lon="-2.79954">
        <ele>40.3</ele>
        <time>2026-08-25T12:31:55Z</time>
      </trkpt>
      <trkpt lat="47.51447" lon="-2.79953">
        <ele>40.3</ele>
        <time>2026-08-25T12:31:56Z</time>
      </trkpt>
      <trkpt lat="47.51443" lon="-2.79951">
        <ele>40.3</ele>
        <time>2026-08-25T12:31:57Z</time>
      </trkpt>
      <trkpt lat="47.51439" lon="-2.79949">
        <ele>40.3</ele>
        <time>2026-08-25T12:31:58Z</time>
      </trkpt>
      <trkpt lat="47.51435" lon="-2.79948">
        <ele>40.4</ele>
        <time>2026-08-25T12:31:59Z</time>
      </trkpt>
      <trkpt lat="47.51431" lon="-2.79947">
        <ele>40.5</ele>
        <time>2026-08-25T12:32:00Z</time>
      </trkpt>
      <trkpt lat="47.51427" lon="-2.79945">
        <ele>40.6</ele>
        <time>2026-08-25T12:32:01Z</time>
      </trkpt>
      <trkpt lat="47.51423" lon="-2.79944">
        <ele>40.8</ele>
        <time>2026-08-25T12:32:02Z</time>
      </trkpt>
      <trkpt lat="47.5142" lon="-2.79943">
        <ele>40.9</ele>
        <time>2026-08-25T12:32:03Z</time>
      </trkpt>
      <trkpt lat="47.51416" lon="-2.79941">
        <ele>41</ele>
        <time>2026-08-25T12:32:04Z</time>
      </trkpt>
      <trkpt lat="47.51412" lon="-2.7994">
        <ele>41</ele>
        <time>2026-08-25T12:32:05Z</time>
      </trkpt>
      <trkpt lat="47.51408" lon="-2.79939">
        <ele>41</ele>
        <time>2026-08-25T12:32:06Z</time>
      </trkpt>
      <trkpt lat="47.51405" lon="-2.79938">
        <ele>41</ele>
        <time>2026-08-25T12:32:07Z</time>
      </trkpt>
      <trkpt lat="47.51401" lon="-2.79937">
        <ele>41</ele>
        <time>2026-08-25T12:32:08Z</time>
      </trkpt>
      <trkpt lat="47.51397" lon="-2.79935">
        <ele>41</ele>
        <time>2026-08-25T12:32:09Z</time>
      </trkpt>
      <trkpt lat="47.51394" lon="-2.79934">
        <ele>41</ele>
        <time>2026-08-25T12:32:10Z</time>
      </trkpt>
      <trkpt lat="47.5139" lon="-2.79933">
        <ele>41</ele>
        <time>2026-08-25T12:32:11Z</time>
      </trkpt>
      <trkpt lat="47.51386" lon="-2.79932">
        <ele>41.1</ele>
        <time>2026-08-25T12:32:12Z</time>
      </trkpt>
      <trkpt lat="47.51383" lon="-2.79932">
        <ele>41.2</ele>
        <time>2026-08-25T12:32:13Z</time>
      </trkpt>
      <trkpt lat="47.51379" lon="-2.79932">
        <ele>41.4</ele>
        <time>2026-08-25T12:32:14Z</time>
      </trkpt>
      <trkpt lat="47.51376" lon="-2.79933">
        <ele>41.5</ele>
        <time>2026-08-25T12:32:15Z</time>
      </trkpt>
      <trkpt lat="47.51373" lon="-2.79934">
        <ele>41.6</ele>
        <time>2026-08-25T12:32:16Z</time>
      </trkpt>
      <trkpt lat="47.5137" lon="-2.79935">
        <ele>41.7</ele>
        <time>2026-08-25T12:32:17Z</time>
      </trkpt>
      <trkpt lat="47.51367" lon="-2.79938">
        <ele>41.8</ele>
        <time>2026-08-25T12:32:18Z</time>
      </trkpt>
      <trkpt lat="47.51365" lon="-2.7994">
        <ele>41.9</ele>
        <time>2026-08-25T12:32:19Z</time>
      </trkpt>
      <trkpt lat="47.51363" lon="-2.79944">
        <ele>41.9</ele>
        <time>2026-08-25T12:32:20Z</time>
      </trkpt>
      <trkpt lat="47.51361" lon="-2.79948">
        <ele>42</ele>
        <time>2026-08-25T12:32:21Z</time>
      </trkpt>
      <trkpt lat="47.51359" lon="-2.79951">
        <ele>42</ele>
        <time>2026-08-25T12:32:22Z</time>
      </trkpt>
      <trkpt lat="47.51357" lon="-2.79954">
        <ele>42</ele>
        <time>2026-08-25T12:32:23Z</time>
      </trkpt>
      <trkpt lat="47.51354" lon="-2.79953">
        <ele>42</ele>
        <time>2026-08-25T12:32:24Z</time>
      </trkpt>
      <trkpt lat="47.51351" lon="-2.79951">
        <ele>42</ele>
        <time>2026-08-25T12:32:25Z</time>
      </trkpt>
      <trkpt lat="47.51348" lon="-2.79948">
        <ele>42</ele>
        <time>2026-08-25T12:32:26Z</time>
      </trkpt>
      <trkpt lat="47.51345" lon="-2.79945">
        <ele>42</ele>
        <time>2026-08-25T12:32:27Z</time>
      </trkpt>
      <trkpt lat="47.51342" lon="-2.79942">
        <ele>41.9</ele>
        <time>2026-08-25T12:32:28Z</time>
      </trkpt>
      <trkpt lat="47.5134" lon="-2.79937">
        <ele>41.8</ele>
        <time>2026-08-25T12:32:29Z</time>
      </trkpt>
      <trkpt lat="47.51338" lon="-2.79932">
        <ele>41.6</ele>
        <time>2026-08-25T12:32:30Z</time>
      </trkpt>
      <trkpt lat="47.51337" lon="-2.79927">
        <ele>41.5</ele>
        <time>2026-08-25T12:32:31Z</time>
      </trkpt>
      <trkpt lat="47.51335" lon="-2.79921">
        <ele>41.2</ele>
        <time>2026-08-25T12:32:32Z</time>
      </trkpt>
      <trkpt lat="47.51332" lon="-2.79917">
        <ele>41.1</ele>
        <time>2026-08-25T12:32:33Z</time>
      </trkpt>
      <trkpt lat="47.51329" lon="-2.79913">
        <ele>41.2</ele>
        <time>2026-08-25T12:32:34Z</time>
      </trkpt>
      <trkpt lat="47.51324" lon="-2.79912">
        <ele>41.4</ele>
        <time>2026-08-25T12:32:35Z</time>
      </trkpt>
      <trkpt lat="47.5132" lon="-2.79911">
        <ele>41.5</ele>
        <time>2026-08-25T12:32:36Z</time>
      </trkpt>
      <trkpt lat="47.51316" lon="-2.79909">
        <ele>41.6</ele>
        <time>2026-08-25T12:32:37Z</time>
      </trkpt>
      <trkpt lat="47.51311" lon="-2.79907">
        <ele>41.6</ele>
        <time>2026-08-25T12:32:38Z</time>
      </trkpt>
      <trkpt lat="47.51307" lon="-2.79905">
        <ele>41.6</ele>
        <time>2026-08-25T12:32:39Z</time>
      </trkpt>
      <trkpt lat="47.51303" lon="-2.79904">
        <ele>41.5</ele>
        <time>2026-08-25T12:32:40Z</time>
      </trkpt>
      <trkpt lat="47.51299" lon="-2.79902">
        <ele>41.5</ele>
        <time>2026-08-25T12:32:41Z</time>
      </trkpt>
      <trkpt lat="47.51294" lon="-2.799">
        <ele>41.4</ele>
        <time>2026-08-25T12:32:42Z</time>
      </trkpt>
      <trkpt lat="47.5129" lon="-2.79899">
        <ele>41.4</ele>
        <time>2026-08-25T12:32:43Z</time>
      </trkpt>
      <trkpt lat="47.51285" lon="-2.79897">
        <ele>41.3</ele>
        <time>2026-08-25T12:32:44Z</time>
      </trkpt>
      <trkpt lat="47.51281" lon="-2.79896">
        <ele>41.3</ele>
        <time>2026-08-25T12:32:45Z</time>
      </trkpt>
      <trkpt lat="47.51276" lon="-2.79895">
        <ele>41.2</ele>
        <time>2026-08-25T12:32:46Z</time>
      </trkpt>
      <trkpt lat="47.51272" lon="-2.79894">
        <ele>41.2</ele>
        <time>2026-08-25T12:32:47Z</time>
      </trkpt>
      <trkpt lat="47.51267" lon="-2.79893">
        <ele>41.1</ele>
        <time>2026-08-25T12:32:48Z</time>
      </trkpt>
      <trkpt lat="47.51263" lon="-2.79892">
        <ele>41.1</ele>
        <time>2026-08-25T12:32:49Z</time>
      </trkpt>
      <trkpt lat="47.51258" lon="-2.79891">
        <ele>41.1</ele>
        <time>2026-08-25T12:32:50Z</time>
      </trkpt>
      <trkpt lat="47.51253" lon="-2.79891">
        <ele>41.1</ele>
        <time>2026-08-25T12:32:51Z</time>
      </trkpt>
      <trkpt lat="47.51249" lon="-2.79891">
        <ele>41.1</ele>
        <time>2026-08-25T12:32:52Z</time>
      </trkpt>
      <trkpt lat="47.51244" lon="-2.79892">
        <ele>41.1</ele>
        <time>2026-08-25T12:32:53Z</time>
      </trkpt>
      <trkpt lat="47.51239" lon="-2.79892">
        <ele>41.1</ele>
        <time>2026-08-25T12:32:54Z</time>
      </trkpt>
      <trkpt lat="47.51234" lon="-2.79893">
        <ele>41.1</ele>
        <time>2026-08-25T12:32:55Z</time>
      </trkpt>
      <trkpt lat="47.5123" lon="-2.79894">
        <ele>41.1</ele>
        <time>2026-08-25T12:32:56Z</time>
      </trkpt>
      <trkpt lat="47.51225" lon="-2.79895">
        <ele>41</ele>
        <time>2026-08-25T12:32:57Z</time>
      </trkpt>
      <trkpt lat="47.5122" lon="-2.79896">
        <ele>41</ele>
        <time>2026-08-25T12:32:58Z</time>
      </trkpt>
      <trkpt lat="47.51216" lon="-2.79897">
        <ele>41</ele>
        <time>2026-08-25T12:32:59Z</time>
      </trkpt>
      <trkpt lat="47.51211" lon="-2.79898">
        <ele>41</ele>
        <time>2026-08-25T12:33:00Z</time>
      </trkpt>
      <trkpt lat="47.51206" lon="-2.79899">
        <ele>41</ele>
        <time>2026-08-25T12:33:01Z</time>
      </trkpt>
      <trkpt lat="47.51201" lon="-2.799">
        <ele>41</ele>
        <time>2026-08-25T12:33:02Z</time>
      </trkpt>
      <trkpt lat="47.51197" lon="-2.79901">
        <ele>41</ele>
        <time>2026-08-25T12:33:03Z</time>
      </trkpt>
      <trkpt lat="47.51192" lon="-2.79901">
        <ele>41</ele>
        <time>2026-08-25T12:33:04Z</time>
      </trkpt>
      <trkpt lat="47.51187" lon="-2.79902">
        <ele>41</ele>
        <time>2026-08-25T12:33:05Z</time>
      </trkpt>
      <trkpt lat="47.51183" lon="-2.79903">
        <ele>41</ele>
        <time>2026-08-25T12:33:06Z</time>
      </trkpt>
      <trkpt lat="47.51178" lon="-2.79905">
        <ele>41</ele>
        <time>2026-08-25T12:33:07Z</time>
      </trkpt>
      <trkpt lat="47.51173" lon="-2.79906">
        <ele>41</ele>
        <time>2026-08-25T12:33:08Z</time>
      </trkpt>
      <trkpt lat="47.51169" lon="-2.79908">
        <ele>41</ele>
        <time>2026-08-25T12:33:09Z</time>
      </trkpt>
      <trkpt lat="47.51165" lon="-2.79911">
        <ele>41</ele>
        <time>2026-08-25T12:33:10Z</time>
      </trkpt>
      <trkpt lat="47.51161" lon="-2.79914">
        <ele>41</ele>
        <time>2026-08-25T12:33:11Z</time>
      </trkpt>
      <trkpt lat="47.51157" lon="-2.79917">
        <ele>41</ele>
        <time>2026-08-25T12:33:12Z</time>
      </trkpt>
      <trkpt lat="47.51153" lon="-2.79921">
        <ele>41</ele>
        <time>2026-08-25T12:33:13Z</time>
      </trkpt>
      <trkpt lat="47.51149" lon="-2.79925">
        <ele>41</ele>
        <time>2026-08-25T12:33:14Z</time>
      </trkpt>
      <trkpt lat="47.51145" lon="-2.79929">
        <ele>41</ele>
        <time>2026-08-25T12:33:15Z</time>
      </trkpt>
      <trkpt lat="47.51142" lon="-2.79933">
        <ele>41</ele>
        <time>2026-08-25T12:33:16Z</time>
      </trkpt>
      <trkpt lat="47.51138" lon="-2.79938">
        <ele>41</ele>
        <time>2026-08-25T12:33:17Z</time>
      </trkpt>
      <trkpt lat="47.51134" lon="-2.79942">
        <ele>41</ele>
        <time>2026-08-25T12:33:18Z</time>
      </trkpt>
      <trkpt lat="47.51131" lon="-2.79947">
        <ele>41</ele>
        <time>2026-08-25T12:33:19Z</time>
      </trkpt>
      <trkpt lat="47.51127" lon="-2.79951">
        <ele>41</ele>
        <time>2026-08-25T12:33:20Z</time>
      </trkpt>
      <trkpt lat="47.51123" lon="-2.79954">
        <ele>41</ele>
        <time>2026-08-25T12:33:21Z</time>
      </trkpt>
      <trkpt lat="47.51118" lon="-2.79957">
        <ele>41</ele>
        <time>2026-08-25T12:33:22Z</time>
      </trkpt>
      <trkpt lat="47.51114" lon="-2.7996">
        <ele>41</ele>
        <time>2026-08-25T12:33:23Z</time>
      </trkpt>
      <trkpt lat="47.5111" lon="-2.79963">
        <ele>41</ele>
        <time>2026-08-25T12:33:24Z</time>
      </trkpt>
      <trkpt lat="47.51105" lon="-2.79966">
        <ele>41</ele>
        <time>2026-08-25T12:33:25Z</time>
      </trkpt>
      <trkpt lat="47.51101" lon="-2.79969">
        <ele>41</ele>
        <time>2026-08-25T12:33:26Z</time>
      </trkpt>
      <trkpt lat="47.51097" lon="-2.79972">
        <ele>41</ele>
        <time>2026-08-25T12:33:27Z</time>
      </trkpt>
      <trkpt lat="47.51093" lon="-2.79974">
        <ele>41</ele>
        <time>2026-08-25T12:33:28Z</time>
      </trkpt>
      <trkpt lat="47.51089" lon="-2.79977">
        <ele>41</ele>
        <time>2026-08-25T12:33:29Z</time>
      </trkpt>
      <trkpt lat="47.51085" lon="-2.79979">
        <ele>41</ele>
        <time>2026-08-25T12:33:30Z</time>
      </trkpt>
      <trkpt lat="47.51081" lon="-2.79982">
        <ele>41</ele>
        <time>2026-08-25T12:33:31Z</time>
      </trkpt>
      <trkpt lat="47.51078" lon="-2.79985">
        <ele>41</ele>
        <time>2026-08-25T12:33:32Z</time>
      </trkpt>
      <trkpt lat="47.51074" lon="-2.79987">
        <ele>41</ele>
        <time>2026-08-25T12:33:33Z</time>
      </trkpt>
      <trkpt lat="47.51071" lon="-2.79988">
        <ele>41</ele>
        <time>2026-08-25T12:33:34Z</time>
      </trkpt>
      <trkpt lat="47.51068" lon="-2.79987">
        <ele>41</ele>
        <time>2026-08-25T12:33:35Z</time>
      </trkpt>
      <trkpt lat="47.51064" lon="-2.79985">
        <ele>41</ele>
        <time>2026-08-25T12:33:36Z</time>
      </trkpt>
      <trkpt lat="47.51061" lon="-2.79982">
        <ele>41</ele>
        <time>2026-08-25T12:33:37Z</time>
      </trkpt>
      <trkpt lat="47.51058" lon="-2.79978">
        <ele>41</ele>
        <time>2026-08-25T12:33:38Z</time>
      </trkpt>
      <trkpt lat="47.51055" lon="-2.79974">
        <ele>41</ele>
        <time>2026-08-25T12:33:39Z</time>
      </trkpt>
      <trkpt lat="47.51052" lon="-2.7997">
        <ele>41</ele>
        <time>2026-08-25T12:33:40Z</time>
      </trkpt>
      <trkpt lat="47.51049" lon="-2.79965">
        <ele>41</ele>
        <time>2026-08-25T12:33:41Z</time>
      </trkpt>
      <trkpt lat="47.51045" lon="-2.79961">
        <ele>41</ele>
        <time>2026-08-25T12:33:42Z</time>
      </trkpt>
      <trkpt lat="47.51042" lon="-2.79956">
        <ele>41</ele>
        <time>2026-08-25T12:33:43Z</time>
      </trkpt>
      <trkpt lat="47.51039" lon="-2.79951">
        <ele>41</ele>
        <time>2026-08-25T12:33:44Z</time>
      </trkpt>
      <trkpt lat="47.51036" lon="-2.79946">
        <ele>41</ele>
        <time>2026-08-25T12:33:45Z</time>
      </trkpt>
      <trkpt lat="47.51032" lon="-2.79941">
        <ele>41</ele>
        <time>2026-08-25T12:33:46Z</time>
      </trkpt>
      <trkpt lat="47.51029" lon="-2.79937">
        <ele>41</ele>
        <time>2026-08-25T12:33:47Z</time>
      </trkpt>
      <trkpt lat="47.51026" lon="-2.79932">
        <ele>41</ele>
        <time>2026-08-25T12:33:48Z</time>
      </trkpt>
      <trkpt lat="47.51023" lon="-2.79928">
        <ele>41</ele>
        <time>2026-08-25T12:33:49Z</time>
      </trkpt>
      <trkpt lat="47.51019" lon="-2.79924">
        <ele>41</ele>
        <time>2026-08-25T12:33:50Z</time>
      </trkpt>
      <trkpt lat="47.51015" lon="-2.79921">
        <ele>41</ele>
        <time>2026-08-25T12:33:51Z</time>
      </trkpt>
      <trkpt lat="47.51011" lon="-2.79918">
        <ele>41</ele>
        <time>2026-08-25T12:33:52Z</time>
      </trkpt>
      <trkpt lat="47.51007" lon="-2.79915">
        <ele>41</ele>
        <time>2026-08-25T12:33:53Z</time>
      </trkpt>
      <trkpt lat="47.51003" lon="-2.79913">
        <ele>41</ele>
        <time>2026-08-25T12:33:54Z</time>
      </trkpt>
      <trkpt lat="47.50999" lon="-2.79911">
        <ele>41</ele>
        <time>2026-08-25T12:33:55Z</time>
      </trkpt>
      <trkpt lat="47.50995" lon="-2.79908">
        <ele>41</ele>
        <time>2026-08-25T12:33:56Z</time>
      </trkpt>
      <trkpt lat="47.5099" lon="-2.79906">
        <ele>41</ele>
        <time>2026-08-25T12:33:57Z</time>
      </trkpt>
      <trkpt lat="47.50986" lon="-2.79904">
        <ele>41</ele>
        <time>2026-08-25T12:33:58Z</time>
      </trkpt>
      <trkpt lat="47.50981" lon="-2.79902">
        <ele>41</ele>
        <time>2026-08-25T12:33:59Z</time>
      </trkpt>
      <trkpt lat="47.50977" lon="-2.799">
        <ele>41</ele>
        <time>2026-08-25T12:34:00Z</time>
      </trkpt>
      <trkpt lat="47.50972" lon="-2.79899">
        <ele>41</ele>
        <time>2026-08-25T12:34:01Z</time>
      </trkpt>
      <trkpt lat="47.50968" lon="-2.79897">
        <ele>41.1</ele>
        <time>2026-08-25T12:34:02Z</time>
      </trkpt>
      <trkpt lat="47.50964" lon="-2.79895">
        <ele>41.2</ele>
        <time>2026-08-25T12:34:03Z</time>
      </trkpt>
      <trkpt lat="47.50959" lon="-2.79893">
        <ele>41.4</ele>
        <time>2026-08-25T12:34:04Z</time>
      </trkpt>
      <trkpt lat="47.50955" lon="-2.79891">
        <ele>41.6</ele>
        <time>2026-08-25T12:34:05Z</time>
      </trkpt>
      <trkpt lat="47.5095" lon="-2.79889">
        <ele>41.8</ele>
        <time>2026-08-25T12:34:06Z</time>
      </trkpt>
      <trkpt lat="47.50946" lon="-2.79887">
        <ele>41.9</ele>
        <time>2026-08-25T12:34:07Z</time>
      </trkpt>
      <trkpt lat="47.50941" lon="-2.79884">
        <ele>42</ele>
        <time>2026-08-25T12:34:08Z</time>
      </trkpt>
      <trkpt lat="47.50937" lon="-2.79882">
        <ele>42</ele>
        <time>2026-08-25T12:34:09Z</time>
      </trkpt>
      <trkpt lat="47.50932" lon="-2.79879">
        <ele>42</ele>
        <time>2026-08-25T12:34:10Z</time>
      </trkpt>
      <trkpt lat="47.50928" lon="-2.79876">
        <ele>42</ele>
        <time>2026-08-25T12:34:11Z</time>
      </trkpt>
      <trkpt lat="47.50923" lon="-2.79873">
        <ele>42</ele>
        <time>2026-08-25T12:34:12Z</time>
      </trkpt>
      <trkpt lat="47.50919" lon="-2.7987">
        <ele>42</ele>
        <time>2026-08-25T12:34:13Z</time>
      </trkpt>
      <trkpt lat="47.50915" lon="-2.79867">
        <ele>42</ele>
        <time>2026-08-25T12:34:14Z</time>
      </trkpt>
      <trkpt lat="47.5091" lon="-2.79864">
        <ele>41.8</ele>
        <time>2026-08-25T12:34:15Z</time>
      </trkpt>
      <trkpt lat="47.50906" lon="-2.79861">
        <ele>41.6</ele>
        <time>2026-08-25T12:34:16Z</time>
      </trkpt>
      <trkpt lat="47.50901" lon="-2.79857">
        <ele>41.4</ele>
        <time>2026-08-25T12:34:17Z</time>
      </trkpt>
      <trkpt lat="47.50897" lon="-2.79854">
        <ele>41.3</ele>
        <time>2026-08-25T12:34:18Z</time>
      </trkpt>
      <trkpt lat="47.50893" lon="-2.7985">
        <ele>41.1</ele>
        <time>2026-08-25T12:34:19Z</time>
      </trkpt>
      <trkpt lat="47.50889" lon="-2.79846">
        <ele>41</ele>
        <time>2026-08-25T12:34:20Z</time>
      </trkpt>
      <trkpt lat="47.50885" lon="-2.79842">
        <ele>41</ele>
        <time>2026-08-25T12:34:21Z</time>
      </trkpt>
      <trkpt lat="47.50881" lon="-2.79838">
        <ele>41</ele>
        <time>2026-08-25T12:34:22Z</time>
      </trkpt>
      <trkpt lat="47.50877" lon="-2.79834">
        <ele>41</ele>
        <time>2026-08-25T12:34:23Z</time>
      </trkpt>
      <trkpt lat="47.50873" lon="-2.7983">
        <ele>41</ele>
        <time>2026-08-25T12:34:24Z</time>
      </trkpt>
      <trkpt lat="47.50869" lon="-2.79826">
        <ele>41</ele>
        <time>2026-08-25T12:34:25Z</time>
      </trkpt>
      <trkpt lat="47.50865" lon="-2.79822">
        <ele>41</ele>
        <time>2026-08-25T12:34:26Z</time>
      </trkpt>
      <trkpt lat="47.50861" lon="-2.79818">
        <ele>41</ele>
        <time>2026-08-25T12:34:27Z</time>
      </trkpt>
      <trkpt lat="47.50857" lon="-2.79815">
        <ele>41</ele>
        <time>2026-08-25T12:34:28Z</time>
      </trkpt>
      <trkpt lat="47.50853" lon="-2.79811">
        <ele>41</ele>
        <time>2026-08-25T12:34:29Z</time>
      </trkpt>
      <trkpt lat="47.50849" lon="-2.79807">
        <ele>41</ele>
        <time>2026-08-25T12:34:30Z</time>
      </trkpt>
      <trkpt lat="47.50844" lon="-2.79804">
        <ele>41</ele>
        <time>2026-08-25T12:34:31Z</time>
      </trkpt>
      <trkpt lat="47.5084" lon="-2.798">
        <ele>41</ele>
        <time>2026-08-25T12:34:32Z</time>
      </trkpt>
      <trkpt lat="47.50836" lon="-2.79797">
        <ele>41</ele>
        <time>2026-08-25T12:34:33Z</time>
      </trkpt>
      <trkpt lat="47.50832" lon="-2.79793">
        <ele>41</ele>
        <time>2026-08-25T12:34:34Z</time>
      </trkpt>
      <trkpt lat="47.50827" lon="-2.7979">
        <ele>41</ele>
        <time>2026-08-25T12:34:35Z</time>
      </trkpt>
      <trkpt lat="47.50823" lon="-2.79786">
        <ele>41</ele>
        <time>2026-08-25T12:34:36Z</time>
      </trkpt>
      <trkpt lat="47.50819" lon="-2.79783">
        <ele>41</ele>
        <time>2026-08-25T12:34:37Z</time>
      </trkpt>
      <trkpt lat="47.50815" lon="-2.79779">
        <ele>41</ele>
        <time>2026-08-25T12:34:38Z</time>
      </trkpt>
      <trkpt lat="47.5081" lon="-2.79775">
        <ele>41</ele>
        <time>2026-08-25T12:34:39Z</time>
      </trkpt>
      <trkpt lat="47.50806" lon="-2.79772">
        <ele>41</ele>
        <time>2026-08-25T12:34:40Z</time>
      </trkpt>
      <trkpt lat="47.50801" lon="-2.79768">
        <ele>41</ele>
        <time>2026-08-25T12:34:41Z</time>
      </trkpt>
      <trkpt lat="47.50797" lon="-2.79764">
        <ele>41</ele>
        <time>2026-08-25T12:34:42Z</time>
      </trkpt>
      <trkpt lat="47.50792" lon="-2.79761">
        <ele>41</ele>
        <time>2026-08-25T12:34:43Z</time>
      </trkpt>
      <trkpt lat="47.50788" lon="-2.79757">
        <ele>41</ele>
        <time>2026-08-25T12:34:44Z</time>
      </trkpt>
      <trkpt lat="47.50783" lon="-2.79753">
        <ele>41</ele>
        <time>2026-08-25T12:34:45Z</time>
      </trkpt>
      <trkpt lat="47.50778" lon="-2.7975">
        <ele>41</ele>
        <time>2026-08-25T12:34:46Z</time>
      </trkpt>
      <trkpt lat="47.50773" lon="-2.79746">
        <ele>41</ele>
        <time>2026-08-25T12:34:47Z</time>
      </trkpt>
      <trkpt lat="47.50768" lon="-2.79743">
        <ele>41</ele>
        <time>2026-08-25T12:34:48Z</time>
      </trkpt>
      <trkpt lat="47.50763" lon="-2.7974">
        <ele>41</ele>
        <time>2026-08-25T12:34:49Z</time>
      </trkpt>
      <trkpt lat="47.50758" lon="-2.79736">
        <ele>41</ele>
        <time>2026-08-25T12:34:50Z</time>
      </trkpt>
      <trkpt lat="47.50754" lon="-2.79732">
        <ele>41</ele>
        <time>2026-08-25T12:34:51Z</time>
      </trkpt>
      <trkpt lat="47.50749" lon="-2.79729">
        <ele>41</ele>
        <time>2026-08-25T12:34:52Z</time>
      </trkpt>
      <trkpt lat="47.50744" lon="-2.79725">
        <ele>41</ele>
        <time>2026-08-25T12:34:53Z</time>
      </trkpt>
      <trkpt lat="47.50739" lon="-2.79721">
        <ele>41</ele>
        <time>2026-08-25T12:34:54Z</time>
      </trkpt>
      <trkpt lat="47.50735" lon="-2.79718">
        <ele>40.8</ele>
        <time>2026-08-25T12:34:55Z</time>
      </trkpt>
      <trkpt lat="47.5073" lon="-2.79714">
        <ele>40.7</ele>
        <time>2026-08-25T12:34:56Z</time>
      </trkpt>
      <trkpt lat="47.50725" lon="-2.7971">
        <ele>40.6</ele>
        <time>2026-08-25T12:34:57Z</time>
      </trkpt>
      <trkpt lat="47.5072" lon="-2.79705">
        <ele>40.3</ele>
        <time>2026-08-25T12:34:58Z</time>
      </trkpt>
      <trkpt lat="47.50716" lon="-2.79702">
        <ele>40.2</ele>
        <time>2026-08-25T12:34:59Z</time>
      </trkpt>
      <trkpt lat="47.50711" lon="-2.79698">
        <ele>40.1</ele>
        <time>2026-08-25T12:35:00Z</time>
      </trkpt>
      <trkpt lat="47.50707" lon="-2.79694">
        <ele>40</ele>
        <time>2026-08-25T12:35:01Z</time>
      </trkpt>
      <trkpt lat="47.50702" lon="-2.7969">
        <ele>40</ele>
        <time>2026-08-25T12:35:02Z</time>
      </trkpt>
      <trkpt lat="47.50698" lon="-2.79686">
        <ele>40</ele>
        <time>2026-08-25T12:35:03Z</time>
      </trkpt>
      <trkpt lat="47.50693" lon="-2.79682">
        <ele>40</ele>
        <time>2026-08-25T12:35:04Z</time>
      </trkpt>
      <trkpt lat="47.50688" lon="-2.79678">
        <ele>40</ele>
        <time>2026-08-25T12:35:05Z</time>
      </trkpt>
      <trkpt lat="47.50683" lon="-2.79674">
        <ele>40</ele>
        <time>2026-08-25T12:35:06Z</time>
      </trkpt>
      <trkpt lat="47.50679" lon="-2.79671">
        <ele>40</ele>
        <time>2026-08-25T12:35:07Z</time>
      </trkpt>
      <trkpt lat="47.50673" lon="-2.79668">
        <ele>40</ele>
        <time>2026-08-25T12:35:08Z</time>
      </trkpt>
      <trkpt lat="47.50668" lon="-2.79665">
        <ele>40</ele>
        <time>2026-08-25T12:35:09Z</time>
      </trkpt>
      <trkpt lat="47.50663" lon="-2.79664">
        <ele>40</ele>
        <time>2026-08-25T12:35:10Z</time>
      </trkpt>
      <trkpt lat="47.50657" lon="-2.79662">
        <ele>40</ele>
        <time>2026-08-25T12:35:11Z</time>
      </trkpt>
      <trkpt lat="47.50652" lon="-2.79662">
        <ele>40</ele>
        <time>2026-08-25T12:35:12Z</time>
      </trkpt>
      <trkpt lat="47.50646" lon="-2.79662">
        <ele>40</ele>
        <time>2026-08-25T12:35:13Z</time>
      </trkpt>
      <trkpt lat="47.50641" lon="-2.79663">
        <ele>40</ele>
        <time>2026-08-25T12:35:14Z</time>
      </trkpt>
      <trkpt lat="47.50636" lon="-2.79664">
        <ele>40.1</ele>
        <time>2026-08-25T12:35:15Z</time>
      </trkpt>
      <trkpt lat="47.50631" lon="-2.79666">
        <ele>40.3</ele>
        <time>2026-08-25T12:35:16Z</time>
      </trkpt>
      <trkpt lat="47.50626" lon="-2.79667">
        <ele>40.5</ele>
        <time>2026-08-25T12:35:17Z</time>
      </trkpt>
      <trkpt lat="47.50621" lon="-2.79669">
        <ele>40.6</ele>
        <time>2026-08-25T12:35:18Z</time>
      </trkpt>
      <trkpt lat="47.50616" lon="-2.7967">
        <ele>40.8</ele>
        <time>2026-08-25T12:35:19Z</time>
      </trkpt>
      <trkpt lat="47.50611" lon="-2.79671">
        <ele>41</ele>
        <time>2026-08-25T12:35:20Z</time>
      </trkpt>
      <trkpt lat="47.50605" lon="-2.79671">
        <ele>41</ele>
        <time>2026-08-25T12:35:21Z</time>
      </trkpt>
      <trkpt lat="47.506" lon="-2.79671">
        <ele>41</ele>
        <time>2026-08-25T12:35:22Z</time>
      </trkpt>
      <trkpt lat="47.50595" lon="-2.79671">
        <ele>41</ele>
        <time>2026-08-25T12:35:23Z</time>
      </trkpt>
      <trkpt lat="47.5059" lon="-2.79671">
        <ele>41</ele>
        <time>2026-08-25T12:35:24Z</time>
      </trkpt>
      <trkpt lat="47.50584" lon="-2.7967">
        <ele>41</ele>
        <time>2026-08-25T12:35:25Z</time>
      </trkpt>
      <trkpt lat="47.50579" lon="-2.79669">
        <ele>41</ele>
        <time>2026-08-25T12:35:26Z</time>
      </trkpt>
      <trkpt lat="47.50574" lon="-2.79668">
        <ele>41</ele>
        <time>2026-08-25T12:35:27Z</time>
      </trkpt>
      <trkpt lat="47.50569" lon="-2.79667">
        <ele>41</ele>
        <time>2026-08-25T12:35:28Z</time>
      </trkpt>
      <trkpt lat="47.50563" lon="-2.79667">
        <ele>41</ele>
        <time>2026-08-25T12:35:29Z</time>
      </trkpt>
      <trkpt lat="47.50558" lon="-2.79666">
        <ele>41</ele>
        <time>2026-08-25T12:35:30Z</time>
      </trkpt>
      <trkpt lat="47.50553" lon="-2.79665">
        <ele>40.9</ele>
        <time>2026-08-25T12:35:31Z</time>
      </trkpt>
      <trkpt lat="47.50548" lon="-2.79664">
        <ele>40.7</ele>
        <time>2026-08-25T12:35:32Z</time>
      </trkpt>
      <trkpt lat="47.50542" lon="-2.79664">
        <ele>40.5</ele>
        <time>2026-08-25T12:35:33Z</time>
      </trkpt>
      <trkpt lat="47.50537" lon="-2.79664">
        <ele>40.3</ele>
        <time>2026-08-25T12:35:34Z</time>
      </trkpt>
      <trkpt lat="47.50531" lon="-2.79664">
        <ele>40.1</ele>
        <time>2026-08-25T12:35:35Z</time>
      </trkpt>
      <trkpt lat="47.50526" lon="-2.79665">
        <ele>40</ele>
        <time>2026-08-25T12:35:36Z</time>
      </trkpt>
      <trkpt lat="47.50521" lon="-2.79666">
        <ele>40</ele>
        <time>2026-08-25T12:35:37Z</time>
      </trkpt>
      <trkpt lat="47.50517" lon="-2.79668">
        <ele>40</ele>
        <time>2026-08-25T12:35:38Z</time>
      </trkpt>
      <trkpt lat="47.50512" lon="-2.7967">
        <ele>40</ele>
        <time>2026-08-25T12:35:39Z</time>
      </trkpt>
      <trkpt lat="47.50507" lon="-2.79672">
        <ele>40</ele>
        <time>2026-08-25T12:35:40Z</time>
      </trkpt>
      <trkpt lat="47.50502" lon="-2.79674">
        <ele>40</ele>
        <time>2026-08-25T12:35:41Z</time>
      </trkpt>
      <trkpt lat="47.50497" lon="-2.79676">
        <ele>40</ele>
        <time>2026-08-25T12:35:42Z</time>
      </trkpt>
      <trkpt lat="47.50492" lon="-2.79678">
        <ele>40</ele>
        <time>2026-08-25T12:35:43Z</time>
      </trkpt>
      <trkpt lat="47.50487" lon="-2.7968">
        <ele>40</ele>
        <time>2026-08-25T12:35:44Z</time>
      </trkpt>
      <trkpt lat="47.50482" lon="-2.79683">
        <ele>40</ele>
        <time>2026-08-25T12:35:45Z</time>
      </trkpt>
      <trkpt lat="47.50477" lon="-2.79686">
        <ele>40</ele>
        <time>2026-08-25T12:35:46Z</time>
      </trkpt>
      <trkpt lat="47.50473" lon="-2.79688">
        <ele>40</ele>
        <time>2026-08-25T12:35:47Z</time>
      </trkpt>
      <trkpt lat="47.50468" lon="-2.7969">
        <ele>40</ele>
        <time>2026-08-25T12:35:48Z</time>
      </trkpt>
      <trkpt lat="47.50464" lon="-2.79691">
        <ele>40</ele>
        <time>2026-08-25T12:35:49Z</time>
      </trkpt>
      <trkpt lat="47.50459" lon="-2.79692">
        <ele>40</ele>
        <time>2026-08-25T12:35:50Z</time>
      </trkpt>
      <trkpt lat="47.50455" lon="-2.79693">
        <ele>40</ele>
        <time>2026-08-25T12:35:51Z</time>
      </trkpt>
      <trkpt lat="47.5045" lon="-2.79692">
        <ele>39.9</ele>
        <time>2026-08-25T12:35:52Z</time>
      </trkpt>
      <trkpt lat="47.50446" lon="-2.79691">
        <ele>39.9</ele>
        <time>2026-08-25T12:35:53Z</time>
      </trkpt>
      <trkpt lat="47.50441" lon="-2.79691">
        <ele>39.8</ele>
        <time>2026-08-25T12:35:54Z</time>
      </trkpt>
      <trkpt lat="47.50437" lon="-2.79691">
        <ele>39.6</ele>
        <time>2026-08-25T12:35:55Z</time>
      </trkpt>
      <trkpt lat="47.50432" lon="-2.79691">
        <ele>39.5</ele>
        <time>2026-08-25T12:35:56Z</time>
      </trkpt>
      <trkpt lat="47.50427" lon="-2.79691">
        <ele>39.3</ele>
        <time>2026-08-25T12:35:57Z</time>
      </trkpt>
      <trkpt lat="47.50423" lon="-2.79693">
        <ele>39.2</ele>
        <time>2026-08-25T12:35:58Z</time>
      </trkpt>
      <trkpt lat="47.5042" lon="-2.79696">
        <ele>39.1</ele>
        <time>2026-08-25T12:35:59Z</time>
      </trkpt>
      <trkpt lat="47.50418" lon="-2.79701">
        <ele>39</ele>
        <time>2026-08-25T12:36:00Z</time>
      </trkpt>
      <trkpt lat="47.50417" lon="-2.79707">
        <ele>39</ele>
        <time>2026-08-25T12:36:01Z</time>
      </trkpt>
      <trkpt lat="47.50416" lon="-2.79714">
        <ele>39</ele>
        <time>2026-08-25T12:36:02Z</time>
      </trkpt>
      <trkpt lat="47.50416" lon="-2.7972">
        <ele>39</ele>
        <time>2026-08-25T12:36:03Z</time>
      </trkpt>
      <trkpt lat="47.50416" lon="-2.79726">
        <ele>39</ele>
        <time>2026-08-25T12:36:04Z</time>
      </trkpt>
      <trkpt lat="47.50416" lon="-2.79733">
        <ele>39</ele>
        <time>2026-08-25T12:36:05Z</time>
      </trkpt>
      <trkpt lat="47.50416" lon="-2.79739">
        <ele>39</ele>
        <time>2026-08-25T12:36:06Z</time>
      </trkpt>
      <trkpt lat="47.50416" lon="-2.79746">
        <ele>39</ele>
        <time>2026-08-25T12:36:07Z</time>
      </trkpt>
      <trkpt lat="47.50416" lon="-2.79753">
        <ele>39</ele>
        <time>2026-08-25T12:36:08Z</time>
      </trkpt>
      <trkpt lat="47.50416" lon="-2.79759">
        <ele>39</ele>
        <time>2026-08-25T12:36:09Z</time>
      </trkpt>
      <trkpt lat="47.50416" lon="-2.79765">
        <ele>39</ele>
        <time>2026-08-25T12:36:10Z</time>
      </trkpt>
      <trkpt lat="47.50416" lon="-2.79771">
        <ele>39</ele>
        <time>2026-08-25T12:36:11Z</time>
      </trkpt>
      <trkpt lat="47.50416" lon="-2.79778">
        <ele>39</ele>
        <time>2026-08-25T12:36:12Z</time>
      </trkpt>
      <trkpt lat="47.50416" lon="-2.79784">
        <ele>39.2</ele>
        <time>2026-08-25T12:36:13Z</time>
      </trkpt>
      <trkpt lat="47.50416" lon="-2.7979">
        <ele>39.4</ele>
        <time>2026-08-25T12:36:14Z</time>
      </trkpt>
      <trkpt lat="47.50417" lon="-2.79796">
        <ele>39.7</ele>
        <time>2026-08-25T12:36:15Z</time>
      </trkpt>
      <trkpt lat="47.50417" lon="-2.79801">
        <ele>39.8</ele>
        <time>2026-08-25T12:36:16Z</time>
      </trkpt>
      <trkpt lat="47.50418" lon="-2.79806">
        <ele>40</ele>
        <time>2026-08-25T12:36:17Z</time>
      </trkpt>
      <trkpt lat="47.50419" lon="-2.79811">
        <ele>40.1</ele>
        <time>2026-08-25T12:36:18Z</time>
      </trkpt>
      <trkpt lat="47.5042" lon="-2.79815">
        <ele>40.1</ele>
        <time>2026-08-25T12:36:19Z</time>
      </trkpt>
      <trkpt lat="47.50421" lon="-2.7982">
        <ele>40.1</ele>
        <time>2026-08-25T12:36:20Z</time>
      </trkpt>
      <trkpt lat="47.50422" lon="-2.79825">
        <ele>40.1</ele>
        <time>2026-08-25T12:36:21Z</time>
      </trkpt>
      <trkpt lat="47.50423" lon="-2.79831">
        <ele>40</ele>
        <time>2026-08-25T12:36:22Z</time>
      </trkpt>
      <trkpt lat="47.50423" lon="-2.79836">
        <ele>40</ele>
        <time>2026-08-25T12:36:23Z</time>
      </trkpt>
      <trkpt lat="47.50422" lon="-2.79841">
        <ele>40</ele>
        <time>2026-08-25T12:36:24Z</time>
      </trkpt>
      <trkpt lat="47.5042" lon="-2.79846">
        <ele>40</ele>
        <time>2026-08-25T12:36:25Z</time>
      </trkpt>
      <trkpt lat="47.50417" lon="-2.7985">
        <ele>40</ele>
        <time>2026-08-25T12:36:26Z</time>
      </trkpt>
      <trkpt lat="47.50414" lon="-2.79852">
        <ele>40</ele>
        <time>2026-08-25T12:36:27Z</time>
      </trkpt>
      <trkpt lat="47.5041" lon="-2.79854">
        <ele>40</ele>
        <time>2026-08-25T12:36:28Z</time>
      </trkpt>
      <trkpt lat="47.50406" lon="-2.79855">
        <ele>40</ele>
        <time>2026-08-25T12:36:29Z</time>
      </trkpt>
      <trkpt lat="47.50402" lon="-2.79855">
        <ele>40</ele>
        <time>2026-08-25T12:36:30Z</time>
      </trkpt>
      <trkpt lat="47.50397" lon="-2.79856">
        <ele>40</ele>
        <time>2026-08-25T12:36:31Z</time>
      </trkpt>
      <trkpt lat="47.50393" lon="-2.79857">
        <ele>40</ele>
        <time>2026-08-25T12:36:32Z</time>
      </trkpt>
      <trkpt lat="47.50389" lon="-2.79858">
        <ele>40</ele>
        <time>2026-08-25T12:36:33Z</time>
      </trkpt>
      <trkpt lat="47.50385" lon="-2.79858">
        <ele>39.9</ele>
        <time>2026-08-25T12:36:34Z</time>
      </trkpt>
      <trkpt lat="47.5038" lon="-2.79859">
        <ele>39.7</ele>
        <time>2026-08-25T12:36:35Z</time>
      </trkpt>
      <trkpt lat="47.50376" lon="-2.7986">
        <ele>39.5</ele>
        <time>2026-08-25T12:36:36Z</time>
      </trkpt>
      <trkpt lat="47.50373" lon="-2.7986">
        <ele>39.4</ele>
        <time>2026-08-25T12:36:37Z</time>
      </trkpt>
      <trkpt lat="47.50368" lon="-2.79861">
        <ele>39.2</ele>
        <time>2026-08-25T12:36:38Z</time>
      </trkpt>
      <trkpt lat="47.50364" lon="-2.79861">
        <ele>39.1</ele>
        <time>2026-08-25T12:36:39Z</time>
      </trkpt>
      <trkpt lat="47.5036" lon="-2.7986">
        <ele>39</ele>
        <time>2026-08-25T12:36:40Z</time>
      </trkpt>
      <trkpt lat="47.50356" lon="-2.7986">
        <ele>39</ele>
        <time>2026-08-25T12:36:41Z</time>
      </trkpt>
      <trkpt lat="47.50351" lon="-2.79859">
        <ele>39</ele>
        <time>2026-08-25T12:36:42Z</time>
      </trkpt>
      <trkpt lat="47.50347" lon="-2.79858">
        <ele>39</ele>
        <time>2026-08-25T12:36:43Z</time>
      </trkpt>
      <trkpt lat="47.50343" lon="-2.79856">
        <ele>39</ele>
        <time>2026-08-25T12:36:44Z</time>
      </trkpt>
      <trkpt lat="47.50339" lon="-2.79854">
        <ele>39</ele>
        <time>2026-08-25T12:36:45Z</time>
      </trkpt>
      <trkpt lat="47.50334" lon="-2.79852">
        <ele>39</ele>
        <time>2026-08-25T12:36:46Z</time>
      </trkpt>
      <trkpt lat="47.5033" lon="-2.7985">
        <ele>38.9</ele>
        <time>2026-08-25T12:36:47Z</time>
      </trkpt>
      <trkpt lat="47.50325" lon="-2.79848">
        <ele>38.7</ele>
        <time>2026-08-25T12:36:48Z</time>
      </trkpt>
      <trkpt lat="47.5032" lon="-2.79846">
        <ele>38.5</ele>
        <time>2026-08-25T12:36:49Z</time>
      </trkpt>
      <trkpt lat="47.50315" lon="-2.79844">
        <ele>38.3</ele>
        <time>2026-08-25T12:36:50Z</time>
      </trkpt>
      <trkpt lat="47.5031" lon="-2.79842">
        <ele>38.2</ele>
        <time>2026-08-25T12:36:51Z</time>
      </trkpt>
      <trkpt lat="47.50305" lon="-2.79841">
        <ele>38</ele>
        <time>2026-08-25T12:36:52Z</time>
      </trkpt>
      <trkpt lat="47.503" lon="-2.79839">
        <ele>37.8</ele>
        <time>2026-08-25T12:36:53Z</time>
      </trkpt>
      <trkpt lat="47.50295" lon="-2.79837">
        <ele>37.7</ele>
        <time>2026-08-25T12:36:54Z</time>
      </trkpt>
      <trkpt lat="47.5029" lon="-2.79835">
        <ele>37.5</ele>
        <time>2026-08-25T12:36:55Z</time>
      </trkpt>
      <trkpt lat="47.50284" lon="-2.79834">
        <ele>37.2</ele>
        <time>2026-08-25T12:36:56Z</time>
      </trkpt>
      <trkpt lat="47.50279" lon="-2.79833">
        <ele>37</ele>
        <time>2026-08-25T12:36:57Z</time>
      </trkpt>
      <trkpt lat="47.50273" lon="-2.79833">
        <ele>37</ele>
        <time>2026-08-25T12:36:58Z</time>
      </trkpt>
      <trkpt lat="47.50267" lon="-2.79832">
        <ele>37</ele>
        <time>2026-08-25T12:36:59Z</time>
      </trkpt>
      <trkpt lat="47.50261" lon="-2.79832">
        <ele>37</ele>
        <time>2026-08-25T12:37:00Z</time>
      </trkpt>
      <trkpt lat="47.50255" lon="-2.79832">
        <ele>37</ele>
        <time>2026-08-25T12:37:01Z</time>
      </trkpt>
      <trkpt lat="47.5025" lon="-2.79832">
        <ele>37</ele>
        <time>2026-08-25T12:37:02Z</time>
      </trkpt>
      <trkpt lat="47.50244" lon="-2.79832">
        <ele>37</ele>
        <time>2026-08-25T12:37:03Z</time>
      </trkpt>
      <trkpt lat="47.50239" lon="-2.79831">
        <ele>36.9</ele>
        <time>2026-08-25T12:37:04Z</time>
      </trkpt>
      <trkpt lat="47.50234" lon="-2.79831">
        <ele>36.9</ele>
        <time>2026-08-25T12:37:05Z</time>
      </trkpt>
      <trkpt lat="47.50229" lon="-2.7983">
        <ele>36.9</ele>
        <time>2026-08-25T12:37:06Z</time>
      </trkpt>
      <trkpt lat="47.50225" lon="-2.79829">
        <ele>36.8</ele>
        <time>2026-08-25T12:37:07Z</time>
      </trkpt>
      <trkpt lat="47.5022" lon="-2.79828">
        <ele>36.8</ele>
        <time>2026-08-25T12:37:08Z</time>
      </trkpt>
      <trkpt lat="47.50216" lon="-2.79828">
        <ele>36.8</ele>
        <time>2026-08-25T12:37:09Z</time>
      </trkpt>
      <trkpt lat="47.50211" lon="-2.79827">
        <ele>36.8</ele>
        <time>2026-08-25T12:37:10Z</time>
      </trkpt>
      <trkpt lat="47.50206" lon="-2.79826">
        <ele>36.7</ele>
        <time>2026-08-25T12:37:11Z</time>
      </trkpt>
      <trkpt lat="47.502" lon="-2.79825">
        <ele>36.7</ele>
        <time>2026-08-25T12:37:12Z</time>
      </trkpt>
      <trkpt lat="47.50195" lon="-2.79825">
        <ele>36.7</ele>
        <time>2026-08-25T12:37:13Z</time>
      </trkpt>
      <trkpt lat="47.50189" lon="-2.79825">
        <ele>36.7</ele>
        <time>2026-08-25T12:37:14Z</time>
      </trkpt>
      <trkpt lat="47.50184" lon="-2.79825">
        <ele>36.7</ele>
        <time>2026-08-25T12:37:15Z</time>
      </trkpt>
      <trkpt lat="47.50178" lon="-2.79824">
        <ele>36.7</ele>
        <time>2026-08-25T12:37:16Z</time>
      </trkpt>
      <trkpt lat="47.50173" lon="-2.79824">
        <ele>36.7</ele>
        <time>2026-08-25T12:37:17Z</time>
      </trkpt>
      <trkpt lat="47.50167" lon="-2.79823">
        <ele>36.6</ele>
        <time>2026-08-25T12:37:18Z</time>
      </trkpt>
      <trkpt lat="47.50162" lon="-2.79823">
        <ele>36.6</ele>
        <time>2026-08-25T12:37:19Z</time>
      </trkpt>
      <trkpt lat="47.50156" lon="-2.79822">
        <ele>36.6</ele>
        <time>2026-08-25T12:37:20Z</time>
      </trkpt>
      <trkpt lat="47.50151" lon="-2.79822">
        <ele>36.6</ele>
        <time>2026-08-25T12:37:21Z</time>
      </trkpt>
      <trkpt lat="47.50146" lon="-2.79821">
        <ele>36.6</ele>
        <time>2026-08-25T12:37:22Z</time>
      </trkpt>
      <trkpt lat="47.5014" lon="-2.79821">
        <ele>36.6</ele>
        <time>2026-08-25T12:37:23Z</time>
      </trkpt>
      <trkpt lat="47.50135" lon="-2.7982">
        <ele>36.5</ele>
        <time>2026-08-25T12:37:24Z</time>
      </trkpt>
      <trkpt lat="47.50129" lon="-2.79819">
        <ele>36.5</ele>
        <time>2026-08-25T12:37:25Z</time>
      </trkpt>
      <trkpt lat="47.50124" lon="-2.79818">
        <ele>36.4</ele>
        <time>2026-08-25T12:37:26Z</time>
      </trkpt>
      <trkpt lat="47.50118" lon="-2.79817">
        <ele>36.4</ele>
        <time>2026-08-25T12:37:27Z</time>
      </trkpt>
      <trkpt lat="47.50113" lon="-2.79816">
        <ele>36.4</ele>
        <time>2026-08-25T12:37:28Z</time>
      </trkpt>
      <trkpt lat="47.50108" lon="-2.79814">
        <ele>36.3</ele>
        <time>2026-08-25T12:37:29Z</time>
      </trkpt>
      <trkpt lat="47.50103" lon="-2.79812">
        <ele>36.2</ele>
        <time>2026-08-25T12:37:30Z</time>
      </trkpt>
      <trkpt lat="47.50098" lon="-2.7981">
        <ele>36.2</ele>
        <time>2026-08-25T12:37:31Z</time>
      </trkpt>
      <trkpt lat="47.50094" lon="-2.79808">
        <ele>36.1</ele>
        <time>2026-08-25T12:37:32Z</time>
      </trkpt>
      <trkpt lat="47.50089" lon="-2.79806">
        <ele>36</ele>
        <time>2026-08-25T12:37:33Z</time>
      </trkpt>
      <trkpt lat="47.50084" lon="-2.79805">
        <ele>36</ele>
        <time>2026-08-25T12:37:34Z</time>
      </trkpt>
      <trkpt lat="47.50079" lon="-2.79802">
        <ele>36</ele>
        <time>2026-08-25T12:37:35Z</time>
      </trkpt>
      <trkpt lat="47.50074" lon="-2.798">
        <ele>36</ele>
        <time>2026-08-25T12:37:36Z</time>
      </trkpt>
      <trkpt lat="47.50069" lon="-2.79797">
        <ele>36</ele>
        <time>2026-08-25T12:37:37Z</time>
      </trkpt>
      <trkpt lat="47.50064" lon="-2.79794">
        <ele>36</ele>
        <time>2026-08-25T12:37:38Z</time>
      </trkpt>
      <trkpt lat="47.50059" lon="-2.79791">
        <ele>36</ele>
        <time>2026-08-25T12:37:39Z</time>
      </trkpt>
      <trkpt lat="47.50054" lon="-2.79788">
        <ele>36</ele>
        <time>2026-08-25T12:37:40Z</time>
      </trkpt>
      <trkpt lat="47.50049" lon="-2.79785">
        <ele>36</ele>
        <time>2026-08-25T12:37:41Z</time>
      </trkpt>
      <trkpt lat="47.50044" lon="-2.79781">
        <ele>36</ele>
        <time>2026-08-25T12:37:42Z</time>
      </trkpt>
      <trkpt lat="47.5004" lon="-2.79778">
        <ele>36</ele>
        <time>2026-08-25T12:37:43Z</time>
      </trkpt>
      <trkpt lat="47.50035" lon="-2.79774">
        <ele>35.9</ele>
        <time>2026-08-25T12:37:44Z</time>
      </trkpt>
      <trkpt lat="47.5003" lon="-2.79771">
        <ele>35.8</ele>
        <time>2026-08-25T12:37:45Z</time>
      </trkpt>
      <trkpt lat="47.50026" lon="-2.79768">
        <ele>35.6</ele>
        <time>2026-08-25T12:37:46Z</time>
      </trkpt>
      <trkpt lat="47.50021" lon="-2.79765">
        <ele>35.5</ele>
        <time>2026-08-25T12:37:47Z</time>
      </trkpt>
      <trkpt lat="47.50017" lon="-2.79761">
        <ele>35.4</ele>
        <time>2026-08-25T12:37:48Z</time>
      </trkpt>
      <trkpt lat="47.50012" lon="-2.79757">
        <ele>35.3</ele>
        <time>2026-08-25T12:37:49Z</time>
      </trkpt>
      <trkpt lat="47.50007" lon="-2.79752">
        <ele>35.1</ele>
        <time>2026-08-25T12:37:50Z</time>
      </trkpt>
      <trkpt lat="47.50002" lon="-2.79747">
        <ele>35</ele>
        <time>2026-08-25T12:37:51Z</time>
      </trkpt>
      <trkpt lat="47.49997" lon="-2.79742">
        <ele>35</ele>
        <time>2026-08-25T12:37:52Z</time>
      </trkpt>
      <trkpt lat="47.49993" lon="-2.79736">
        <ele>35</ele>
        <time>2026-08-25T12:37:53Z</time>
      </trkpt>
      <trkpt lat="47.49988" lon="-2.7973">
        <ele>35</ele>
        <time>2026-08-25T12:37:54Z</time>
      </trkpt>
      <trkpt lat="47.49983" lon="-2.79725">
        <ele>35</ele>
        <time>2026-08-25T12:37:55Z</time>
      </trkpt>
      <trkpt lat="47.49979" lon="-2.79721">
        <ele>35</ele>
        <time>2026-08-25T12:37:56Z</time>
      </trkpt>
      <trkpt lat="47.49974" lon="-2.79719">
        <ele>34.9</ele>
        <time>2026-08-25T12:37:57Z</time>
      </trkpt>
      <trkpt lat="47.49969" lon="-2.79718">
        <ele>34.8</ele>
        <time>2026-08-25T12:37:58Z</time>
      </trkpt>
      <trkpt lat="47.49965" lon="-2.79719">
        <ele>34.9</ele>
        <time>2026-08-25T12:37:59Z</time>
      </trkpt>
      <trkpt lat="47.4996" lon="-2.79719">
        <ele>34.9</ele>
        <time>2026-08-25T12:38:00Z</time>
      </trkpt>
      <trkpt lat="47.49955" lon="-2.7972">
        <ele>34.9</ele>
        <time>2026-08-25T12:38:01Z</time>
      </trkpt>
      <trkpt lat="47.4995" lon="-2.79721">
        <ele>35</ele>
        <time>2026-08-25T12:38:02Z</time>
      </trkpt>
      <trkpt lat="47.49946" lon="-2.79722">
        <ele>35</ele>
        <time>2026-08-25T12:38:03Z</time>
      </trkpt>
      <trkpt lat="47.49941" lon="-2.79723">
        <ele>35</ele>
        <time>2026-08-25T12:38:04Z</time>
      </trkpt>
      <trkpt lat="47.49936" lon="-2.79724">
        <ele>35</ele>
        <time>2026-08-25T12:38:05Z</time>
      </trkpt>
      <trkpt lat="47.49932" lon="-2.79726">
        <ele>35</ele>
        <time>2026-08-25T12:38:06Z</time>
      </trkpt>
      <trkpt lat="47.49926" lon="-2.79729">
        <ele>35</ele>
        <time>2026-08-25T12:38:07Z</time>
      </trkpt>
      <trkpt lat="47.49922" lon="-2.79732">
        <ele>35</ele>
        <time>2026-08-25T12:38:08Z</time>
      </trkpt>
      <trkpt lat="47.49917" lon="-2.79735">
        <ele>35</ele>
        <time>2026-08-25T12:38:09Z</time>
      </trkpt>
      <trkpt lat="47.49912" lon="-2.79737">
        <ele>35</ele>
        <time>2026-08-25T12:38:10Z</time>
      </trkpt>
      <trkpt lat="47.49907" lon="-2.7974">
        <ele>35</ele>
        <time>2026-08-25T12:38:11Z</time>
      </trkpt>
      <trkpt lat="47.49903" lon="-2.79744">
        <ele>35</ele>
        <time>2026-08-25T12:38:12Z</time>
      </trkpt>
      <trkpt lat="47.49898" lon="-2.79747">
        <ele>35</ele>
        <time>2026-08-25T12:38:13Z</time>
      </trkpt>
      <trkpt lat="47.49893" lon="-2.79751">
        <ele>35</ele>
        <time>2026-08-25T12:38:14Z</time>
      </trkpt>
      <trkpt lat="47.49888" lon="-2.79754">
        <ele>35</ele>
        <time>2026-08-25T12:38:15Z</time>
      </trkpt>
      <trkpt lat="47.49883" lon="-2.79757">
        <ele>35</ele>
        <time>2026-08-25T12:38:16Z</time>
      </trkpt>
      <trkpt lat="47.49879" lon="-2.7976">
        <ele>35</ele>
        <time>2026-08-25T12:38:17Z</time>
      </trkpt>
      <trkpt lat="47.49874" lon="-2.79762">
        <ele>35</ele>
        <time>2026-08-25T12:38:18Z</time>
      </trkpt>
      <trkpt lat="47.4987" lon="-2.79764">
        <ele>35</ele>
        <time>2026-08-25T12:38:19Z</time>
      </trkpt>
      <trkpt lat="47.49866" lon="-2.79766">
        <ele>35</ele>
        <time>2026-08-25T12:38:20Z</time>
      </trkpt>
      <trkpt lat="47.49861" lon="-2.79768">
        <ele>35</ele>
        <time>2026-08-25T12:38:21Z</time>
      </trkpt>
      <trkpt lat="47.49856" lon="-2.79769">
        <ele>34.9</ele>
        <time>2026-08-25T12:38:22Z</time>
      </trkpt>
      <trkpt lat="47.49851" lon="-2.79771">
        <ele>34.9</ele>
        <time>2026-08-25T12:38:23Z</time>
      </trkpt>
      <trkpt lat="47.49846" lon="-2.79772">
        <ele>34.9</ele>
        <time>2026-08-25T12:38:24Z</time>
      </trkpt>
      <trkpt lat="47.49841" lon="-2.79774">
        <ele>34.9</ele>
        <time>2026-08-25T12:38:25Z</time>
      </trkpt>
      <trkpt lat="47.49836" lon="-2.79775">
        <ele>34.9</ele>
        <time>2026-08-25T12:38:26Z</time>
      </trkpt>
      <trkpt lat="47.4983" lon="-2.79777">
        <ele>34.9</ele>
        <time>2026-08-25T12:38:27Z</time>
      </trkpt>
      <trkpt lat="47.49825" lon="-2.79778">
        <ele>34.7</ele>
        <time>2026-08-25T12:38:28Z</time>
      </trkpt>
      <trkpt lat="47.4982" lon="-2.79779">
        <ele>34.5</ele>
        <time>2026-08-25T12:38:29Z</time>
      </trkpt>
      <trkpt lat="47.49815" lon="-2.7978">
        <ele>34.3</ele>
        <time>2026-08-25T12:38:30Z</time>
      </trkpt>
      <trkpt lat="47.49811" lon="-2.79781">
        <ele>34.2</ele>
        <time>2026-08-25T12:38:31Z</time>
      </trkpt>
      <trkpt lat="47.49806" lon="-2.79782">
        <ele>34</ele>
        <time>2026-08-25T12:38:32Z</time>
      </trkpt>
      <trkpt lat="47.49801" lon="-2.79783">
        <ele>34</ele>
        <time>2026-08-25T12:38:33Z</time>
      </trkpt>
      <trkpt lat="47.49796" lon="-2.79785">
        <ele>34</ele>
        <time>2026-08-25T12:38:34Z</time>
      </trkpt>
      <trkpt lat="47.49791" lon="-2.79786">
        <ele>34</ele>
        <time>2026-08-25T12:38:35Z</time>
      </trkpt>
      <trkpt lat="47.49787" lon="-2.79789">
        <ele>34</ele>
        <time>2026-08-25T12:38:36Z</time>
      </trkpt>
      <trkpt lat="47.49782" lon="-2.79791">
        <ele>34</ele>
        <time>2026-08-25T12:38:37Z</time>
      </trkpt>
      <trkpt lat="47.49778" lon="-2.79795">
        <ele>34</ele>
        <time>2026-08-25T12:38:38Z</time>
      </trkpt>
      <trkpt lat="47.49775" lon="-2.79798">
        <ele>34</ele>
        <time>2026-08-25T12:38:39Z</time>
      </trkpt>
      <trkpt lat="47.49771" lon="-2.79801">
        <ele>34</ele>
        <time>2026-08-25T12:38:40Z</time>
      </trkpt>
      <trkpt lat="47.49769" lon="-2.79804">
        <ele>34</ele>
        <time>2026-08-25T12:38:41Z</time>
      </trkpt>
      <trkpt lat="47.49767" lon="-2.79806">
        <ele>34</ele>
        <time>2026-08-25T12:38:42Z</time>
      </trkpt>
      <trkpt lat="47.49767" lon="-2.79809">
        <ele>34</ele>
        <time>2026-08-25T12:38:43Z</time>
      </trkpt>
      <trkpt lat="47.49767" lon="-2.79812">
        <ele>33.9</ele>
        <time>2026-08-25T12:38:44Z</time>
      </trkpt>
      <trkpt lat="47.49768" lon="-2.79815">
        <ele>33.9</ele>
        <time>2026-08-25T12:38:45Z</time>
      </trkpt>
      <trkpt lat="47.49769" lon="-2.79819">
        <ele>33.8</ele>
        <time>2026-08-25T12:38:46Z</time>
      </trkpt>
      <trkpt lat="47.4977" lon="-2.79823">
        <ele>33.8</ele>
        <time>2026-08-25T12:38:47Z</time>
      </trkpt>
      <trkpt lat="47.49771" lon="-2.79827">
        <ele>33.8</ele>
        <time>2026-08-25T12:38:48Z</time>
      </trkpt>
      <trkpt lat="47.49772" lon="-2.7983">
        <ele>33.8</ele>
        <time>2026-08-25T12:38:49Z</time>
      </trkpt>
      <trkpt lat="47.49773" lon="-2.79833">
        <ele>33.8</ele>
        <time>2026-08-25T12:38:50Z</time>
      </trkpt>
      <trkpt lat="47.49775" lon="-2.79837">
        <ele>33.9</ele>
        <time>2026-08-25T12:38:51Z</time>
      </trkpt>
      <trkpt lat="47.49776" lon="-2.7984">
        <ele>34</ele>
        <time>2026-08-25T12:38:52Z</time>
      </trkpt>
      <trkpt lat="47.49777" lon="-2.79844">
        <ele>34</ele>
        <time>2026-08-25T12:38:53Z</time>
      </trkpt>
      <trkpt lat="47.49778" lon="-2.79849">
        <ele>34</ele>
        <time>2026-08-25T12:38:54Z</time>
      </trkpt>
      <trkpt lat="47.4978" lon="-2.79853">
        <ele>34</ele>
        <time>2026-08-25T12:38:55Z</time>
      </trkpt>
      <trkpt lat="47.49782" lon="-2.79857">
        <ele>34</ele>
        <time>2026-08-25T12:38:56Z</time>
      </trkpt>
      <trkpt lat="47.49783" lon="-2.79861">
        <ele>34</ele>
        <time>2026-08-25T12:38:57Z</time>
      </trkpt>
      <trkpt lat="47.49785" lon="-2.79865">
        <ele>34</ele>
        <time>2026-08-25T12:38:58Z</time>
      </trkpt>
      <trkpt lat="47.49786" lon="-2.79869">
        <ele>34</ele>
        <time>2026-08-25T12:38:59Z</time>
      </trkpt>
      <trkpt lat="47.49788" lon="-2.79873">
        <ele>34</ele>
        <time>2026-08-25T12:39:00Z</time>
      </trkpt>
      <trkpt lat="47.49789" lon="-2.79877">
        <ele>34</ele>
        <time>2026-08-25T12:39:01Z</time>
      </trkpt>
      <trkpt lat="47.4979" lon="-2.79881">
        <ele>34</ele>
        <time>2026-08-25T12:39:02Z</time>
      </trkpt>
      <trkpt lat="47.49791" lon="-2.79885">
        <ele>34</ele>
        <time>2026-08-25T12:39:03Z</time>
      </trkpt>
      <trkpt lat="47.49793" lon="-2.79889">
        <ele>34</ele>
        <time>2026-08-25T12:39:04Z</time>
      </trkpt>
      <trkpt lat="47.49794" lon="-2.79894">
        <ele>33.9</ele>
        <time>2026-08-25T12:39:05Z</time>
      </trkpt>
      <trkpt lat="47.49796" lon="-2.79899">
        <ele>33.9</ele>
        <time>2026-08-25T12:39:06Z</time>
      </trkpt>
      <trkpt lat="47.49797" lon="-2.79905">
        <ele>33.8</ele>
        <time>2026-08-25T12:39:07Z</time>
      </trkpt>
      <trkpt lat="47.49798" lon="-2.79911">
        <ele>33.8</ele>
        <time>2026-08-25T12:39:08Z</time>
      </trkpt>
      <trkpt lat="47.49799" lon="-2.79916">
        <ele>33.8</ele>
        <time>2026-08-25T12:39:09Z</time>
      </trkpt>
      <trkpt lat="47.498" lon="-2.79922">
        <ele>33.6</ele>
        <time>2026-08-25T12:39:10Z</time>
      </trkpt>
      <trkpt lat="47.49802" lon="-2.79928">
        <ele>33.5</ele>
        <time>2026-08-25T12:39:11Z</time>
      </trkpt>
      <trkpt lat="47.49803" lon="-2.79934">
        <ele>33.3</ele>
        <time>2026-08-25T12:39:12Z</time>
      </trkpt>
      <trkpt lat="47.49805" lon="-2.79941">
        <ele>33.1</ele>
        <time>2026-08-25T12:39:13Z</time>
      </trkpt>
      <trkpt lat="47.49807" lon="-2.79949">
        <ele>33.1</ele>
        <time>2026-08-25T12:39:14Z</time>
      </trkpt>
      <trkpt lat="47.49808" lon="-2.79956">
        <ele>33.1</ele>
        <time>2026-08-25T12:39:15Z</time>
      </trkpt>
      <trkpt lat="47.4981" lon="-2.79963">
        <ele>33.2</ele>
        <time>2026-08-25T12:39:16Z</time>
      </trkpt>
      <trkpt lat="47.49812" lon="-2.7997">
        <ele>33.2</ele>
        <time>2026-08-25T12:39:17Z</time>
      </trkpt>
      <trkpt lat="47.49813" lon="-2.79978">
        <ele>33.1</ele>
        <time>2026-08-25T12:39:18Z</time>
      </trkpt>
      <trkpt lat="47.49815" lon="-2.79984">
        <ele>32.9</ele>
        <time>2026-08-25T12:39:19Z</time>
      </trkpt>
      <trkpt lat="47.49816" lon="-2.79991">
        <ele>32.7</ele>
        <time>2026-08-25T12:39:20Z</time>
      </trkpt>
      <trkpt lat="47.49818" lon="-2.79997">
        <ele>32.6</ele>
        <time>2026-08-25T12:39:21Z</time>
      </trkpt>
      <trkpt lat="47.49819" lon="-2.80004">
        <ele>32.4</ele>
        <time>2026-08-25T12:39:22Z</time>
      </trkpt>
      <trkpt lat="47.4982" lon="-2.8001">
        <ele>32.3</ele>
        <time>2026-08-25T12:39:23Z</time>
      </trkpt>
      <trkpt lat="47.49822" lon="-2.80016">
        <ele>32.4</ele>
        <time>2026-08-25T12:39:24Z</time>
      </trkpt>
      <trkpt lat="47.49823" lon="-2.80023">
        <ele>32.3</ele>
        <time>2026-08-25T12:39:25Z</time>
      </trkpt>
      <trkpt lat="47.49825" lon="-2.80029">
        <ele>32.4</ele>
        <time>2026-08-25T12:39:26Z</time>
      </trkpt>
      <trkpt lat="47.49826" lon="-2.80035">
        <ele>32.2</ele>
        <time>2026-08-25T12:39:27Z</time>
      </trkpt>
      <trkpt lat="47.49828" lon="-2.8004">
        <ele>32.2</ele>
        <time>2026-08-25T12:39:28Z</time>
      </trkpt>
      <trkpt lat="47.4983" lon="-2.80045">
        <ele>32.1</ele>
        <time>2026-08-25T12:39:29Z</time>
      </trkpt>
      <trkpt lat="47.49832" lon="-2.80051">
        <ele>32.1</ele>
        <time>2026-08-25T12:39:30Z</time>
      </trkpt>
      <trkpt lat="47.49834" lon="-2.80057">
        <ele>32</ele>
        <time>2026-08-25T12:39:31Z</time>
      </trkpt>
      <trkpt lat="47.49835" lon="-2.80064">
        <ele>31.8</ele>
        <time>2026-08-25T12:39:32Z</time>
      </trkpt>
      <trkpt lat="47.49837" lon="-2.8007">
        <ele>31.7</ele>
        <time>2026-08-25T12:39:33Z</time>
      </trkpt>
      <trkpt lat="47.49839" lon="-2.80076">
        <ele>31.6</ele>
        <time>2026-08-25T12:39:34Z</time>
      </trkpt>
      <trkpt lat="47.49841" lon="-2.80083">
        <ele>31.6</ele>
        <time>2026-08-25T12:39:35Z</time>
      </trkpt>
      <trkpt lat="47.49842" lon="-2.80089">
        <ele>31.6</ele>
        <time>2026-08-25T12:39:36Z</time>
      </trkpt>
      <trkpt lat="47.49844" lon="-2.80095">
        <ele>31.8</ele>
        <time>2026-08-25T12:39:37Z</time>
      </trkpt>
      <trkpt lat="47.49845" lon="-2.80101">
        <ele>31.8</ele>
        <time>2026-08-25T12:39:38Z</time>
      </trkpt>
      <trkpt lat="47.49847" lon="-2.80107">
        <ele>32</ele>
        <time>2026-08-25T12:39:39Z</time>
      </trkpt>
      <trkpt lat="47.49848" lon="-2.80112">
        <ele>32.1</ele>
        <time>2026-08-25T12:39:40Z</time>
      </trkpt>
      <trkpt lat="47.4985" lon="-2.80118">
        <ele>32.2</ele>
        <time>2026-08-25T12:39:41Z</time>
      </trkpt>
      <trkpt lat="47.49851" lon="-2.80124">
        <ele>32.3</ele>
        <time>2026-08-25T12:39:42Z</time>
      </trkpt>
      <trkpt lat="47.49853" lon="-2.80129">
        <ele>32.4</ele>
        <time>2026-08-25T12:39:43Z</time>
      </trkpt>
      <trkpt lat="47.49854" lon="-2.80135">
        <ele>32.5</ele>
        <time>2026-08-25T12:39:44Z</time>
      </trkpt>
      <trkpt lat="47.49856" lon="-2.80141">
        <ele>32.6</ele>
        <time>2026-08-25T12:39:45Z</time>
      </trkpt>
      <trkpt lat="47.49857" lon="-2.80148">
        <ele>32.4</ele>
        <time>2026-08-25T12:39:46Z</time>
      </trkpt>
      <trkpt lat="47.49858" lon="-2.80154">
        <ele>32.3</ele>
        <time>2026-08-25T12:39:47Z</time>
      </trkpt>
      <trkpt lat="47.49859" lon="-2.8016">
        <ele>32.1</ele>
        <time>2026-08-25T12:39:48Z</time>
      </trkpt>
      <trkpt lat="47.4986" lon="-2.80166">
        <ele>32</ele>
        <time>2026-08-25T12:39:49Z</time>
      </trkpt>
      <trkpt lat="47.49861" lon="-2.80173">
        <ele>32</ele>
        <time>2026-08-25T12:39:50Z</time>
      </trkpt>
      <trkpt lat="47.49862" lon="-2.8018">
        <ele>32</ele>
        <time>2026-08-25T12:39:51Z</time>
      </trkpt>
      <trkpt lat="47.49864" lon="-2.80187">
        <ele>32</ele>
        <time>2026-08-25T12:39:52Z</time>
      </trkpt>
      <trkpt lat="47.49865" lon="-2.80193">
        <ele>32</ele>
        <time>2026-08-25T12:39:53Z</time>
      </trkpt>
      <trkpt lat="47.49867" lon="-2.802">
        <ele>31.8</ele>
        <time>2026-08-25T12:39:54Z</time>
      </trkpt>
      <trkpt lat="47.49868" lon="-2.80206">
        <ele>31.7</ele>
        <time>2026-08-25T12:39:55Z</time>
      </trkpt>
      <trkpt lat="47.49869" lon="-2.80212">
        <ele>31.5</ele>
        <time>2026-08-25T12:39:56Z</time>
      </trkpt>
      <trkpt lat="47.4987" lon="-2.80218">
        <ele>31.4</ele>
        <time>2026-08-25T12:39:57Z</time>
      </trkpt>
      <trkpt lat="47.49871" lon="-2.80223">
        <ele>31.3</ele>
        <time>2026-08-25T12:39:58Z</time>
      </trkpt>
      <trkpt lat="47.49871" lon="-2.80229">
        <ele>31.3</ele>
        <time>2026-08-25T12:39:59Z</time>
      </trkpt>
      <trkpt lat="47.49872" lon="-2.80236">
        <ele>31.2</ele>
        <time>2026-08-25T12:40:00Z</time>
      </trkpt>
      <trkpt lat="47.49872" lon="-2.80242">
        <ele>31.1</ele>
        <time>2026-08-25T12:40:01Z</time>
      </trkpt>
      <trkpt lat="47.49873" lon="-2.80248">
        <ele>31</ele>
        <time>2026-08-25T12:40:02Z</time>
      </trkpt>
      <trkpt lat="47.49873" lon="-2.80255">
        <ele>30.8</ele>
        <time>2026-08-25T12:40:03Z</time>
      </trkpt>
      <trkpt lat="47.49873" lon="-2.8026">
        <ele>30.6</ele>
        <time>2026-08-25T12:40:04Z</time>
      </trkpt>
      <trkpt lat="47.49872" lon="-2.80265">
        <ele>30.5</ele>
        <time>2026-08-25T12:40:05Z</time>
      </trkpt>
      <trkpt lat="47.49872" lon="-2.80271">
        <ele>30.2</ele>
        <time>2026-08-25T12:40:06Z</time>
      </trkpt>
      <trkpt lat="47.49872" lon="-2.80278">
        <ele>30</ele>
        <time>2026-08-25T12:40:07Z</time>
      </trkpt>
      <trkpt lat="47.49871" lon="-2.80285">
        <ele>29.7</ele>
        <time>2026-08-25T12:40:08Z</time>
      </trkpt>
      <trkpt lat="47.49871" lon="-2.80292">
        <ele>29.5</ele>
        <time>2026-08-25T12:40:09Z</time>
      </trkpt>
      <trkpt lat="47.4987" lon="-2.80299">
        <ele>29.2</ele>
        <time>2026-08-25T12:40:10Z</time>
      </trkpt>
      <trkpt lat="47.4987" lon="-2.80307">
        <ele>28.9</ele>
        <time>2026-08-25T12:40:11Z</time>
      </trkpt>
      <trkpt lat="47.49869" lon="-2.80314">
        <ele>28.5</ele>
        <time>2026-08-25T12:40:12Z</time>
      </trkpt>
      <trkpt lat="47.49869" lon="-2.80319">
        <ele>28.2</ele>
        <time>2026-08-25T12:40:13Z</time>
      </trkpt>
      <trkpt lat="47.49869" lon="-2.80323">
        <ele>27.9</ele>
        <time>2026-08-25T12:40:14Z</time>
      </trkpt>
      <trkpt lat="47.49869" lon="-2.80328">
        <ele>27.6</ele>
        <time>2026-08-25T12:40:15Z</time>
      </trkpt>
      <trkpt lat="47.49868" lon="-2.80332">
        <ele>27.3</ele>
        <time>2026-08-25T12:40:16Z</time>
      </trkpt>
      <trkpt lat="47.49869" lon="-2.80337">
        <ele>27</ele>
        <time>2026-08-25T12:40:17Z</time>
      </trkpt>
      <trkpt lat="47.49869" lon="-2.80342">
        <ele>26.7</ele>
        <time>2026-08-25T12:40:18Z</time>
      </trkpt>
      <trkpt lat="47.49869" lon="-2.80348">
        <ele>26.2</ele>
        <time>2026-08-25T12:40:19Z</time>
      </trkpt>
      <trkpt lat="47.49868" lon="-2.80354">
        <ele>25.8</ele>
        <time>2026-08-25T12:40:20Z</time>
      </trkpt>
      <trkpt lat="47.49868" lon="-2.8036">
        <ele>25.3</ele>
        <time>2026-08-25T12:40:21Z</time>
      </trkpt>
      <trkpt lat="47.49868" lon="-2.80366">
        <ele>24.7</ele>
        <time>2026-08-25T12:40:22Z</time>
      </trkpt>
      <trkpt lat="47.49869" lon="-2.8037">
        <ele>24.2</ele>
        <time>2026-08-25T12:40:23Z</time>
      </trkpt>
      <trkpt lat="47.49869" lon="-2.80375">
        <ele>23.6</ele>
        <time>2026-08-25T12:40:24Z</time>
      </trkpt>
      <trkpt lat="47.49869" lon="-2.8038">
        <ele>23.1</ele>
        <time>2026-08-25T12:40:25Z</time>
      </trkpt>
      <trkpt lat="47.49867" lon="-2.80386">
        <ele>22.3</ele>
        <time>2026-08-25T12:40:26Z</time>
      </trkpt>
      <trkpt lat="47.49866" lon="-2.80392">
        <ele>21.8</ele>
        <time>2026-08-25T12:40:27Z</time>
      </trkpt>
      <trkpt lat="47.49864" lon="-2.80398">
        <ele>21.3</ele>
        <time>2026-08-25T12:40:28Z</time>
      </trkpt>
      <trkpt lat="47.49862" lon="-2.80405">
        <ele>20.8</ele>
        <time>2026-08-25T12:40:29Z</time>
      </trkpt>
      <trkpt lat="47.49861" lon="-2.8041">
        <ele>20.5</ele>
        <time>2026-08-25T12:40:30Z</time>
      </trkpt>
      <trkpt lat="47.4986" lon="-2.80414">
        <ele>20.2</ele>
        <time>2026-08-25T12:40:31Z</time>
      </trkpt>
      <trkpt lat="47.49859" lon="-2.80419">
        <ele>19.8</ele>
        <time>2026-08-25T12:40:32Z</time>
      </trkpt>
      <trkpt lat="47.49858" lon="-2.80424">
        <ele>19.6</ele>
        <time>2026-08-25T12:40:33Z</time>
      </trkpt>
      <trkpt lat="47.49858" lon="-2.80428">
        <ele>19.5</ele>
        <time>2026-08-25T12:40:34Z</time>
      </trkpt>
      <trkpt lat="47.49858" lon="-2.80432">
        <ele>19.3</ele>
        <time>2026-08-25T12:40:35Z</time>
      </trkpt>
      <trkpt lat="47.49858" lon="-2.80436">
        <ele>19.2</ele>
        <time>2026-08-25T12:40:36Z</time>
      </trkpt>
      <trkpt lat="47.49859" lon="-2.8044">
        <ele>19.1</ele>
        <time>2026-08-25T12:40:37Z</time>
      </trkpt>
      <trkpt lat="47.4986" lon="-2.80443">
        <ele>19</ele>
        <time>2026-08-25T12:40:38Z</time>
      </trkpt>
      <trkpt lat="47.4986" lon="-2.80447">
        <ele>19.1</ele>
        <time>2026-08-25T12:40:39Z</time>
      </trkpt>
      <trkpt lat="47.49861" lon="-2.80449">
        <ele>19.2</ele>
        <time>2026-08-25T12:40:40Z</time>
      </trkpt>
      <trkpt lat="47.49861" lon="-2.8045">
        <ele>19.2</ele>
        <time>2026-08-25T12:40:41Z</time>
      </trkpt>
      <trkpt lat="47.49861" lon="-2.8045">
        <ele>19.2</ele>
        <time>2026-08-25T12:40:42Z</time>
      </trkpt>
      <trkpt lat="47.49861" lon="-2.8045">
        <ele>19.2</ele>
        <time>2026-08-25T12:40:43Z</time>
      </trkpt>
      <trkpt lat="47.49864" lon="-2.8046">
        <ele>19.6</ele>
        <time>2026-08-25T12:40:52Z</time>
      </trkpt>
      <trkpt lat="47.49865" lon="-2.80463">
        <ele>19.8</ele>
        <time>2026-08-25T12:40:53Z</time>
      </trkpt>
      <trkpt lat="47.49865" lon="-2.80466">
        <ele>19.9</ele>
        <time>2026-08-25T12:40:54Z</time>
      </trkpt>
      <trkpt lat="47.49866" lon="-2.80468">
        <ele>20</ele>
        <time>2026-08-25T12:40:55Z</time>
      </trkpt>
      <trkpt lat="47.49867" lon="-2.80471">
        <ele>20.2</ele>
        <time>2026-08-25T12:40:56Z</time>
      </trkpt>
      <trkpt lat="47.49868" lon="-2.80474">
        <ele>20.4</ele>
        <time>2026-08-25T12:40:57Z</time>
      </trkpt>
      <trkpt lat="47.4987" lon="-2.80476">
        <ele>20.6</ele>
        <time>2026-08-25T12:40:58Z</time>
      </trkpt>
      <trkpt lat="47.49872" lon="-2.80478">
        <ele>20.8</ele>
        <time>2026-08-25T12:40:59Z</time>
      </trkpt>
      <trkpt lat="47.49873" lon="-2.80481">
        <ele>21.1</ele>
        <time>2026-08-25T12:41:00Z</time>
      </trkpt>
      <trkpt lat="47.49874" lon="-2.80485">
        <ele>21.4</ele>
        <time>2026-08-25T12:41:01Z</time>
      </trkpt>
      <trkpt lat="47.49875" lon="-2.80488">
        <ele>21.6</ele>
        <time>2026-08-25T12:41:02Z</time>
      </trkpt>
      <trkpt lat="47.49875" lon="-2.80492">
        <ele>21.9</ele>
        <time>2026-08-25T12:41:03Z</time>
      </trkpt>
      <trkpt lat="47.49876" lon="-2.80495">
        <ele>22.2</ele>
        <time>2026-08-25T12:41:04Z</time>
      </trkpt>
      <trkpt lat="47.49876" lon="-2.80498">
        <ele>22.4</ele>
        <time>2026-08-25T12:41:05Z</time>
      </trkpt>
      <trkpt lat="47.49876" lon="-2.80501">
        <ele>22.6</ele>
        <time>2026-08-25T12:41:06Z</time>
      </trkpt>
      <trkpt lat="47.49877" lon="-2.80503">
        <ele>22.8</ele>
        <time>2026-08-25T12:41:07Z</time>
      </trkpt>
      <trkpt lat="47.49877" lon="-2.80506">
        <ele>23</ele>
        <time>2026-08-25T12:41:08Z</time>
      </trkpt>
      <trkpt lat="47.49877" lon="-2.80509">
        <ele>23.2</ele>
        <time>2026-08-25T12:41:09Z</time>
      </trkpt>
      <trkpt lat="47.49877" lon="-2.80511">
        <ele>23.4</ele>
        <time>2026-08-25T12:41:10Z</time>
      </trkpt>
      <trkpt lat="47.49877" lon="-2.80514">
        <ele>23.6</ele>
        <time>2026-08-25T12:41:11Z</time>
      </trkpt>
      <trkpt lat="47.49878" lon="-2.80517">
        <ele>23.8</ele>
        <time>2026-08-25T12:41:12Z</time>
      </trkpt>
      <trkpt lat="47.49878" lon="-2.8052">
        <ele>24</ele>
        <time>2026-08-25T12:41:13Z</time>
      </trkpt>
      <trkpt lat="47.49879" lon="-2.80523">
        <ele>24.3</ele>
        <time>2026-08-25T12:41:14Z</time>
      </trkpt>
      <trkpt lat="47.49879" lon="-2.80526">
        <ele>24.5</ele>
        <time>2026-08-25T12:41:15Z</time>
      </trkpt>
      <trkpt lat="47.49879" lon="-2.80529">
        <ele>24.7</ele>
        <time>2026-08-25T12:41:16Z</time>
      </trkpt>
      <trkpt lat="47.4988" lon="-2.80532">
        <ele>24.7</ele>
        <time>2026-08-25T12:41:17Z</time>
      </trkpt>
      <trkpt lat="47.4988" lon="-2.80535">
        <ele>24.8</ele>
        <time>2026-08-25T12:41:18Z</time>
      </trkpt>
      <trkpt lat="47.49881" lon="-2.80538">
        <ele>24.8</ele>
        <time>2026-08-25T12:41:19Z</time>
      </trkpt>
      <trkpt lat="47.49881" lon="-2.8054">
        <ele>24.8</ele>
        <time>2026-08-25T12:41:20Z</time>
      </trkpt>
      <trkpt lat="47.49882" lon="-2.80543">
        <ele>24.9</ele>
        <time>2026-08-25T12:41:21Z</time>
      </trkpt>
      <trkpt lat="47.49882" lon="-2.80545">
        <ele>24.9</ele>
        <time>2026-08-25T12:41:22Z</time>
      </trkpt>
      <trkpt lat="47.49882" lon="-2.80547">
        <ele>24.9</ele>
        <time>2026-08-25T12:41:23Z</time>
      </trkpt>
      <trkpt lat="47.49883" lon="-2.8055">
        <ele>25</ele>
        <time>2026-08-25T12:41:24Z</time>
      </trkpt>
      <trkpt lat="47.49883" lon="-2.80552">
        <ele>25</ele>
        <time>2026-08-25T12:41:25Z</time>
      </trkpt>
      <trkpt lat="47.49883" lon="-2.80554">
        <ele>25</ele>
        <time>2026-08-25T12:41:26Z</time>
      </trkpt>
      <trkpt lat="47.49883" lon="-2.80556">
        <ele>25</ele>
        <time>2026-08-25T12:41:27Z</time>
      </trkpt>
      <trkpt lat="47.49883" lon="-2.80559">
        <ele>25.2</ele>
        <time>2026-08-25T12:41:28Z</time>
      </trkpt>
      <trkpt lat="47.49883" lon="-2.80561">
        <ele>25.4</ele>
        <time>2026-08-25T12:41:29Z</time>
      </trkpt>
      <trkpt lat="47.49883" lon="-2.80564">
        <ele>25.6</ele>
        <time>2026-08-25T12:41:30Z</time>
      </trkpt>
      <trkpt lat="47.49883" lon="-2.80566">
        <ele>25.8</ele>
        <time>2026-08-25T12:41:31Z</time>
      </trkpt>
      <trkpt lat="47.49884" lon="-2.80569">
        <ele>26</ele>
        <time>2026-08-25T12:41:32Z</time>
      </trkpt>
      <trkpt lat="47.49884" lon="-2.80571">
        <ele>26.1</ele>
        <time>2026-08-25T12:41:33Z</time>
      </trkpt>
      <trkpt lat="47.49884" lon="-2.80573">
        <ele>26.3</ele>
        <time>2026-08-25T12:41:34Z</time>
      </trkpt>
      <trkpt lat="47.49884" lon="-2.80576">
        <ele>26.5</ele>
        <time>2026-08-25T12:41:35Z</time>
      </trkpt>
      <trkpt lat="47.49884" lon="-2.80579">
        <ele>26.7</ele>
        <time>2026-08-25T12:41:36Z</time>
      </trkpt>
      <trkpt lat="47.49885" lon="-2.80582">
        <ele>26.9</ele>
        <time>2026-08-25T12:41:37Z</time>
      </trkpt>
      <trkpt lat="47.49885" lon="-2.80584">
        <ele>27</ele>
        <time>2026-08-25T12:41:38Z</time>
      </trkpt>
      <trkpt lat="47.49885" lon="-2.80586">
        <ele>27.1</ele>
        <time>2026-08-25T12:41:39Z</time>
      </trkpt>
      <trkpt lat="47.49885" lon="-2.80588">
        <ele>27.2</ele>
        <time>2026-08-25T12:41:40Z</time>
      </trkpt>
      <trkpt lat="47.49885" lon="-2.80591">
        <ele>27.3</ele>
        <time>2026-08-25T12:41:41Z</time>
      </trkpt>
      <trkpt lat="47.49885" lon="-2.80593">
        <ele>27.3</ele>
        <time>2026-08-25T12:41:42Z</time>
      </trkpt>
      <trkpt lat="47.49885" lon="-2.80595">
        <ele>27.4</ele>
        <time>2026-08-25T12:41:43Z</time>
      </trkpt>
      <trkpt lat="47.49885" lon="-2.80597">
        <ele>27.5</ele>
        <time>2026-08-25T12:41:44Z</time>
      </trkpt>
      <trkpt lat="47.49886" lon="-2.806">
        <ele>27.6</ele>
        <time>2026-08-25T12:41:45Z</time>
      </trkpt>
      <trkpt lat="47.49886" lon="-2.80602">
        <ele>27.7</ele>
        <time>2026-08-25T12:41:46Z</time>
      </trkpt>
      <trkpt lat="47.49886" lon="-2.80604">
        <ele>27.7</ele>
        <time>2026-08-25T12:41:47Z</time>
      </trkpt>
      <trkpt lat="47.49886" lon="-2.80607">
        <ele>27.9</ele>
        <time>2026-08-25T12:41:48Z</time>
      </trkpt>
      <trkpt lat="47.49886" lon="-2.8061">
        <ele>28</ele>
        <time>2026-08-25T12:41:49Z</time>
      </trkpt>
      <trkpt lat="47.49886" lon="-2.80613">
        <ele>28.1</ele>
        <time>2026-08-25T12:41:50Z</time>
      </trkpt>
      <trkpt lat="47.49887" lon="-2.80616">
        <ele>28.3</ele>
        <time>2026-08-25T12:41:51Z</time>
      </trkpt>
      <trkpt lat="47.49887" lon="-2.80619">
        <ele>28.5</ele>
        <time>2026-08-25T12:41:52Z</time>
      </trkpt>
      <trkpt lat="47.49887" lon="-2.80622">
        <ele>28.8</ele>
        <time>2026-08-25T12:41:53Z</time>
      </trkpt>
      <trkpt lat="47.49887" lon="-2.80625">
        <ele>29</ele>
        <time>2026-08-25T12:41:54Z</time>
      </trkpt>
      <trkpt lat="47.49887" lon="-2.80628">
        <ele>29.2</ele>
        <time>2026-08-25T12:41:55Z</time>
      </trkpt>
      <trkpt lat="47.49887" lon="-2.80631">
        <ele>29.4</ele>
        <time>2026-08-25T12:41:56Z</time>
      </trkpt>
      <trkpt lat="47.49886" lon="-2.80633">
        <ele>29.5</ele>
        <time>2026-08-25T12:41:57Z</time>
      </trkpt>
      <trkpt lat="47.49886" lon="-2.80635">
        <ele>29.6</ele>
        <time>2026-08-25T12:41:58Z</time>
      </trkpt>
      <trkpt lat="47.49885" lon="-2.80637">
        <ele>29.7</ele>
        <time>2026-08-25T12:41:59Z</time>
      </trkpt>
      <trkpt lat="47.49885" lon="-2.8064">
        <ele>29.9</ele>
        <time>2026-08-25T12:42:00Z</time>
      </trkpt>
      <trkpt lat="47.49884" lon="-2.80642">
        <ele>29.9</ele>
        <time>2026-08-25T12:42:01Z</time>
      </trkpt>
      <trkpt lat="47.49884" lon="-2.80644">
        <ele>30</ele>
        <time>2026-08-25T12:42:02Z</time>
      </trkpt>
      <trkpt lat="47.49884" lon="-2.80646">
        <ele>30.1</ele>
        <time>2026-08-25T12:42:03Z</time>
      </trkpt>
      <trkpt lat="47.49883" lon="-2.80647">
        <ele>30.1</ele>
        <time>2026-08-25T12:42:04Z</time>
      </trkpt>
      <trkpt lat="47.49883" lon="-2.80649">
        <ele>30.2</ele>
        <time>2026-08-25T12:42:05Z</time>
      </trkpt>
      <trkpt lat="47.49883" lon="-2.8065">
        <ele>30.2</ele>
        <time>2026-08-25T12:42:06Z</time>
      </trkpt>
      <trkpt lat="47.49883" lon="-2.80652">
        <ele>30.3</ele>
        <time>2026-08-25T12:42:07Z</time>
      </trkpt>
      <trkpt lat="47.49883" lon="-2.80654">
        <ele>30.3</ele>
        <time>2026-08-25T12:42:08Z</time>
      </trkpt>
      <trkpt lat="47.49883" lon="-2.80655">
        <ele>30.4</ele>
        <time>2026-08-25T12:42:09Z</time>
      </trkpt>
      <trkpt lat="47.49883" lon="-2.80655">
        <ele>30.4</ele>
        <time>2026-08-25T12:42:10Z</time>
      </trkpt>
      <trkpt lat="47.49883" lon="-2.80657">
        <ele>30.4</ele>
        <time>2026-08-25T12:42:11Z</time>
      </trkpt>
      <trkpt lat="47.49884" lon="-2.80658">
        <ele>30.5</ele>
        <time>2026-08-25T12:42:12Z</time>
      </trkpt>
      <trkpt lat="47.49884" lon="-2.8066">
        <ele>30.6</ele>
        <time>2026-08-25T12:42:13Z</time>
      </trkpt>
      <trkpt lat="47.49884" lon="-2.80662">
        <ele>30.7</ele>
        <time>2026-08-25T12:42:14Z</time>
      </trkpt>
      <trkpt lat="47.49883" lon="-2.80664">
        <ele>30.7</ele>
        <time>2026-08-25T12:42:15Z</time>
      </trkpt>
      <trkpt lat="47.49882" lon="-2.80665">
        <ele>30.7</ele>
        <time>2026-08-25T12:42:16Z</time>
      </trkpt>
      <trkpt lat="47.49882" lon="-2.80667">
        <ele>30.8</ele>
        <time>2026-08-25T12:42:17Z</time>
      </trkpt>
      <trkpt lat="47.49881" lon="-2.80669">
        <ele>30.7</ele>
        <time>2026-08-25T12:42:18Z</time>
      </trkpt>
      <trkpt lat="47.49881" lon="-2.8067">
        <ele>30.7</ele>
        <time>2026-08-25T12:42:19Z</time>
      </trkpt>
      <trkpt lat="47.4988" lon="-2.80671">
        <ele>30.7</ele>
        <time>2026-08-25T12:42:20Z</time>
      </trkpt>
      <trkpt lat="47.49879" lon="-2.80673">
        <ele>30.6</ele>
        <time>2026-08-25T12:42:21Z</time>
      </trkpt>
      <trkpt lat="47.49878" lon="-2.80674">
        <ele>30.6</ele>
        <time>2026-08-25T12:42:22Z</time>
      </trkpt>
      <trkpt lat="47.49877" lon="-2.80675">
        <ele>30.6</ele>
        <time>2026-08-25T12:42:23Z</time>
      </trkpt>
      <trkpt lat="47.49876" lon="-2.80676">
        <ele>30.5</ele>
        <time>2026-08-25T12:42:24Z</time>
      </trkpt>
      <trkpt lat="47.49875" lon="-2.80678">
        <ele>30.5</ele>
        <time>2026-08-25T12:42:25Z</time>
      </trkpt>
      <trkpt lat="47.49874" lon="-2.80679">
        <ele>30.5</ele>
        <time>2026-08-25T12:42:26Z</time>
      </trkpt>
      <trkpt lat="47.49873" lon="-2.80681">
        <ele>30.4</ele>
        <time>2026-08-25T12:42:27Z</time>
      </trkpt>
      <trkpt lat="47.49873" lon="-2.80682">
        <ele>30.4</ele>
        <time>2026-08-25T12:42:28Z</time>
      </trkpt>
      <trkpt lat="47.49873" lon="-2.80682">
        <ele>30.4</ele>
        <time>2026-08-25T12:42:29Z</time>
      </trkpt>
      <trkpt lat="47.49873" lon="-2.80682">
        <ele>30.4</ele>
        <time>2026-08-25T12:42:30Z</time>
      </trkpt>
      <trkpt lat="47.4987" lon="-2.80701">
        <ele>30.6</ele>
        <time>2026-08-25T12:45:36Z</time>
      </trkpt>
      <trkpt lat="47.4987" lon="-2.80704">
        <ele>30.7</ele>
        <time>2026-08-25T12:45:37Z</time>
      </trkpt>
      <trkpt lat="47.4987" lon="-2.80708">
        <ele>30.8</ele>
        <time>2026-08-25T12:45:38Z</time>
      </trkpt>
      <trkpt lat="47.4987" lon="-2.80712">
        <ele>31</ele>
        <time>2026-08-25T12:45:39Z</time>
      </trkpt>
      <trkpt lat="47.4987" lon="-2.80715">
        <ele>31.1</ele>
        <time>2026-08-25T12:45:40Z</time>
      </trkpt>
      <trkpt lat="47.4987" lon="-2.80718">
        <ele>31.2</ele>
        <time>2026-08-25T12:45:41Z</time>
      </trkpt>
      <trkpt lat="47.4987" lon="-2.80722">
        <ele>31.3</ele>
        <time>2026-08-25T12:45:42Z</time>
      </trkpt>
      <trkpt lat="47.4987" lon="-2.80725">
        <ele>31.3</ele>
        <time>2026-08-25T12:45:43Z</time>
      </trkpt>
      <trkpt lat="47.4987" lon="-2.80729">
        <ele>31.3</ele>
        <time>2026-08-25T12:45:44Z</time>
      </trkpt>
      <trkpt lat="47.4987" lon="-2.80732">
        <ele>31.3</ele>
        <time>2026-08-25T12:45:45Z</time>
      </trkpt>
      <trkpt lat="47.4987" lon="-2.80735">
        <ele>31.3</ele>
        <time>2026-08-25T12:45:46Z</time>
      </trkpt>
      <trkpt lat="47.49871" lon="-2.8074">
        <ele>31.4</ele>
        <time>2026-08-25T12:45:47Z</time>
      </trkpt>
      <trkpt lat="47.49871" lon="-2.80744">
        <ele>31.4</ele>
        <time>2026-08-25T12:45:48Z</time>
      </trkpt>
      <trkpt lat="47.49871" lon="-2.80748">
        <ele>31.4</ele>
        <time>2026-08-25T12:45:49Z</time>
      </trkpt>
      <trkpt lat="47.49872" lon="-2.80752">
        <ele>31.4</ele>
        <time>2026-08-25T12:45:50Z</time>
      </trkpt>
      <trkpt lat="47.49872" lon="-2.80756">
        <ele>31.4</ele>
        <time>2026-08-25T12:45:51Z</time>
      </trkpt>
      <trkpt lat="47.49873" lon="-2.8076">
        <ele>31.4</ele>
        <time>2026-08-25T12:45:52Z</time>
      </trkpt>
      <trkpt lat="47.49873" lon="-2.80765">
        <ele>31.4</ele>
        <time>2026-08-25T12:45:53Z</time>
      </trkpt>
      <trkpt lat="47.49874" lon="-2.80769">
        <ele>31.5</ele>
        <time>2026-08-25T12:45:54Z</time>
      </trkpt>
      <trkpt lat="47.49874" lon="-2.80772">
        <ele>31.5</ele>
        <time>2026-08-25T12:45:55Z</time>
      </trkpt>
      <trkpt lat="47.49874" lon="-2.80775">
        <ele>31.5</ele>
        <time>2026-08-25T12:45:56Z</time>
      </trkpt>
      <trkpt lat="47.49875" lon="-2.80779">
        <ele>31.5</ele>
        <time>2026-08-25T12:45:57Z</time>
      </trkpt>
      <trkpt lat="47.49875" lon="-2.80783">
        <ele>31.5</ele>
        <time>2026-08-25T12:45:58Z</time>
      </trkpt>
      <trkpt lat="47.49875" lon="-2.80788">
        <ele>31.5</ele>
        <time>2026-08-25T12:45:59Z</time>
      </trkpt>
      <trkpt lat="47.49875" lon="-2.80793">
        <ele>31.5</ele>
        <time>2026-08-25T12:46:00Z</time>
      </trkpt>
      <trkpt lat="47.49875" lon="-2.80798">
        <ele>31.5</ele>
        <time>2026-08-25T12:46:01Z</time>
      </trkpt>
      <trkpt lat="47.49874" lon="-2.80803">
        <ele>31.5</ele>
        <time>2026-08-25T12:46:02Z</time>
      </trkpt>
      <trkpt lat="47.49874" lon="-2.80807">
        <ele>31.5</ele>
        <time>2026-08-25T12:46:03Z</time>
      </trkpt>
      <trkpt lat="47.49873" lon="-2.80812">
        <ele>31.4</ele>
        <time>2026-08-25T12:46:04Z</time>
      </trkpt>
      <trkpt lat="47.49873" lon="-2.80817">
        <ele>31.4</ele>
        <time>2026-08-25T12:46:05Z</time>
      </trkpt>
      <trkpt lat="47.49873" lon="-2.80822">
        <ele>31.4</ele>
        <time>2026-08-25T12:46:06Z</time>
      </trkpt>
      <trkpt lat="47.49873" lon="-2.80827">
        <ele>31.4</ele>
        <time>2026-08-25T12:46:07Z</time>
      </trkpt>
      <trkpt lat="47.49873" lon="-2.80831">
        <ele>31.4</ele>
        <time>2026-08-25T12:46:08Z</time>
      </trkpt>
      <trkpt lat="47.49872" lon="-2.80836">
        <ele>31.4</ele>
        <time>2026-08-25T12:46:09Z</time>
      </trkpt>
      <trkpt lat="47.49872" lon="-2.80841">
        <ele>31.4</ele>
        <time>2026-08-25T12:46:10Z</time>
      </trkpt>
      <trkpt lat="47.49872" lon="-2.80846">
        <ele>31.4</ele>
        <time>2026-08-25T12:46:11Z</time>
      </trkpt>
      <trkpt lat="47.49873" lon="-2.80851">
        <ele>31.4</ele>
        <time>2026-08-25T12:46:12Z</time>
      </trkpt>
      <trkpt lat="47.49873" lon="-2.80856">
        <ele>31.4</ele>
        <time>2026-08-25T12:46:13Z</time>
      </trkpt>
      <trkpt lat="47.49874" lon="-2.80861">
        <ele>31.5</ele>
        <time>2026-08-25T12:46:14Z</time>
      </trkpt>
      <trkpt lat="47.49875" lon="-2.80866">
        <ele>31.3</ele>
        <time>2026-08-25T12:46:15Z</time>
      </trkpt>
      <trkpt lat="47.49877" lon="-2.80871">
        <ele>31.2</ele>
        <time>2026-08-25T12:46:16Z</time>
      </trkpt>
      <trkpt lat="47.49879" lon="-2.80875">
        <ele>31.1</ele>
        <time>2026-08-25T12:46:17Z</time>
      </trkpt>
      <trkpt lat="47.4988" lon="-2.80879">
        <ele>31</ele>
        <time>2026-08-25T12:46:18Z</time>
      </trkpt>
      <trkpt lat="47.49882" lon="-2.80884">
        <ele>30.9</ele>
        <time>2026-08-25T12:46:19Z</time>
      </trkpt>
      <trkpt lat="47.49884" lon="-2.80888">
        <ele>30.9</ele>
        <time>2026-08-25T12:46:20Z</time>
      </trkpt>
      <trkpt lat="47.49885" lon="-2.80893">
        <ele>30.7</ele>
        <time>2026-08-25T12:46:21Z</time>
      </trkpt>
      <trkpt lat="47.49887" lon="-2.80897">
        <ele>30.7</ele>
        <time>2026-08-25T12:46:22Z</time>
      </trkpt>
      <trkpt lat="47.4989" lon="-2.80901">
        <ele>30.6</ele>
        <time>2026-08-25T12:46:23Z</time>
      </trkpt>
      <trkpt lat="47.49892" lon="-2.80904">
        <ele>30.5</ele>
        <time>2026-08-25T12:46:24Z</time>
      </trkpt>
      <trkpt lat="47.49894" lon="-2.80908">
        <ele>30.4</ele>
        <time>2026-08-25T12:46:25Z</time>
      </trkpt>
      <trkpt lat="47.49897" lon="-2.80912">
        <ele>30.4</ele>
        <time>2026-08-25T12:46:26Z</time>
      </trkpt>
      <trkpt lat="47.499" lon="-2.80915">
        <ele>30.4</ele>
        <time>2026-08-25T12:46:27Z</time>
      </trkpt>
      <trkpt lat="47.49902" lon="-2.80919">
        <ele>30.4</ele>
        <time>2026-08-25T12:46:28Z</time>
      </trkpt>
      <trkpt lat="47.49905" lon="-2.80921">
        <ele>30.5</ele>
        <time>2026-08-25T12:46:29Z</time>
      </trkpt>
      <trkpt lat="47.49908" lon="-2.80923">
        <ele>30.5</ele>
        <time>2026-08-25T12:46:30Z</time>
      </trkpt>
      <trkpt lat="47.4991" lon="-2.80926">
        <ele>30.5</ele>
        <time>2026-08-25T12:46:31Z</time>
      </trkpt>
      <trkpt lat="47.49912" lon="-2.80929">
        <ele>30.5</ele>
        <time>2026-08-25T12:46:32Z</time>
      </trkpt>
      <trkpt lat="47.49914" lon="-2.80932">
        <ele>30.4</ele>
        <time>2026-08-25T12:46:33Z</time>
      </trkpt>
      <trkpt lat="47.49916" lon="-2.80935">
        <ele>30.3</ele>
        <time>2026-08-25T12:46:34Z</time>
      </trkpt>
      <trkpt lat="47.49916" lon="-2.80938">
        <ele>30.2</ele>
        <time>2026-08-25T12:46:35Z</time>
      </trkpt>
      <trkpt lat="47.49916" lon="-2.8094">
        <ele>30.2</ele>
        <time>2026-08-25T12:46:36Z</time>
      </trkpt>
      <trkpt lat="47.49915" lon="-2.80942">
        <ele>30.1</ele>
        <time>2026-08-25T12:46:37Z</time>
      </trkpt>
      <trkpt lat="47.49914" lon="-2.80944">
        <ele>30</ele>
        <time>2026-08-25T12:46:38Z</time>
      </trkpt>
      <trkpt lat="47.49913" lon="-2.80947">
        <ele>30.1</ele>
        <time>2026-08-25T12:46:39Z</time>
      </trkpt>
      <trkpt lat="47.49912" lon="-2.8095">
        <ele>30.2</ele>
        <time>2026-08-25T12:46:40Z</time>
      </trkpt>
      <trkpt lat="47.4991" lon="-2.80954">
        <ele>30.3</ele>
        <time>2026-08-25T12:46:41Z</time>
      </trkpt>
      <trkpt lat="47.49909" lon="-2.80958">
        <ele>30.5</ele>
        <time>2026-08-25T12:46:42Z</time>
      </trkpt>
      <trkpt lat="47.49908" lon="-2.80962">
        <ele>30.6</ele>
        <time>2026-08-25T12:46:43Z</time>
      </trkpt>
      <trkpt lat="47.49906" lon="-2.80967">
        <ele>30.8</ele>
        <time>2026-08-25T12:46:44Z</time>
      </trkpt>
      <trkpt lat="47.49905" lon="-2.80972">
        <ele>31</ele>
        <time>2026-08-25T12:46:45Z</time>
      </trkpt>
      <trkpt lat="47.49904" lon="-2.80977">
        <ele>31</ele>
        <time>2026-08-25T12:46:46Z</time>
      </trkpt>
      <trkpt lat="47.49903" lon="-2.80983">
        <ele>31</ele>
        <time>2026-08-25T12:46:47Z</time>
      </trkpt>
      <trkpt lat="47.49902" lon="-2.80988">
        <ele>31</ele>
        <time>2026-08-25T12:46:48Z</time>
      </trkpt>
      <trkpt lat="47.49902" lon="-2.80994">
        <ele>31</ele>
        <time>2026-08-25T12:46:49Z</time>
      </trkpt>
      <trkpt lat="47.49901" lon="-2.80999">
        <ele>31</ele>
        <time>2026-08-25T12:46:50Z</time>
      </trkpt>
      <trkpt lat="47.499" lon="-2.81004">
        <ele>31.1</ele>
        <time>2026-08-25T12:46:51Z</time>
      </trkpt>
      <trkpt lat="47.49899" lon="-2.81009">
        <ele>31.3</ele>
        <time>2026-08-25T12:46:52Z</time>
      </trkpt>
      <trkpt lat="47.49899" lon="-2.81014">
        <ele>31.5</ele>
        <time>2026-08-25T12:46:53Z</time>
      </trkpt>
      <trkpt lat="47.49899" lon="-2.81019">
        <ele>31.7</ele>
        <time>2026-08-25T12:46:54Z</time>
      </trkpt>
      <trkpt lat="47.49899" lon="-2.81024">
        <ele>31.9</ele>
        <time>2026-08-25T12:46:55Z</time>
      </trkpt>
      <trkpt lat="47.49898" lon="-2.81029">
        <ele>32</ele>
        <time>2026-08-25T12:46:56Z</time>
      </trkpt>
      <trkpt lat="47.49898" lon="-2.81034">
        <ele>32.2</ele>
        <time>2026-08-25T12:46:57Z</time>
      </trkpt>
      <trkpt lat="47.49898" lon="-2.81038">
        <ele>32.4</ele>
        <time>2026-08-25T12:46:58Z</time>
      </trkpt>
      <trkpt lat="47.49898" lon="-2.81043">
        <ele>32.5</ele>
        <time>2026-08-25T12:46:59Z</time>
      </trkpt>
      <trkpt lat="47.49897" lon="-2.81048">
        <ele>32.7</ele>
        <time>2026-08-25T12:47:00Z</time>
      </trkpt>
      <trkpt lat="47.49896" lon="-2.81053">
        <ele>32.9</ele>
        <time>2026-08-25T12:47:01Z</time>
      </trkpt>
      <trkpt lat="47.49895" lon="-2.81057">
        <ele>33</ele>
        <time>2026-08-25T12:47:02Z</time>
      </trkpt>
      <trkpt lat="47.49894" lon="-2.81062">
        <ele>33.2</ele>
        <time>2026-08-25T12:47:03Z</time>
      </trkpt>
      <trkpt lat="47.49892" lon="-2.81066">
        <ele>33.3</ele>
        <time>2026-08-25T12:47:04Z</time>
      </trkpt>
      <trkpt lat="47.4989" lon="-2.8107">
        <ele>33.5</ele>
        <time>2026-08-25T12:47:05Z</time>
      </trkpt>
      <trkpt lat="47.49888" lon="-2.81075">
        <ele>33.7</ele>
        <time>2026-08-25T12:47:06Z</time>
      </trkpt>
      <trkpt lat="47.49887" lon="-2.81079">
        <ele>33.8</ele>
        <time>2026-08-25T12:47:07Z</time>
      </trkpt>
      <trkpt lat="47.49885" lon="-2.81084">
        <ele>34</ele>
        <time>2026-08-25T12:47:08Z</time>
      </trkpt>
      <trkpt lat="47.49883" lon="-2.81088">
        <ele>34</ele>
        <time>2026-08-25T12:47:09Z</time>
      </trkpt>
      <trkpt lat="47.49881" lon="-2.81092">
        <ele>34</ele>
        <time>2026-08-25T12:47:10Z</time>
      </trkpt>
      <trkpt lat="47.4988" lon="-2.81096">
        <ele>34</ele>
        <time>2026-08-25T12:47:11Z</time>
      </trkpt>
      <trkpt lat="47.49878" lon="-2.811">
        <ele>34</ele>
        <time>2026-08-25T12:47:12Z</time>
      </trkpt>
      <trkpt lat="47.49876" lon="-2.81105">
        <ele>34</ele>
        <time>2026-08-25T12:47:13Z</time>
      </trkpt>
      <trkpt lat="47.49874" lon="-2.81109">
        <ele>34</ele>
        <time>2026-08-25T12:47:14Z</time>
      </trkpt>
      <trkpt lat="47.49872" lon="-2.81113">
        <ele>34</ele>
        <time>2026-08-25T12:47:15Z</time>
      </trkpt>
      <trkpt lat="47.4987" lon="-2.81117">
        <ele>34.1</ele>
        <time>2026-08-25T12:47:16Z</time>
      </trkpt>
      <trkpt lat="47.49869" lon="-2.81122">
        <ele>34.3</ele>
        <time>2026-08-25T12:47:17Z</time>
      </trkpt>
      <trkpt lat="47.49867" lon="-2.81126">
        <ele>34.4</ele>
        <time>2026-08-25T12:47:18Z</time>
      </trkpt>
      <trkpt lat="47.49866" lon="-2.8113">
        <ele>34.6</ele>
        <time>2026-08-25T12:47:19Z</time>
      </trkpt>
      <trkpt lat="47.49864" lon="-2.81134">
        <ele>34.7</ele>
        <time>2026-08-25T12:47:20Z</time>
      </trkpt>
      <trkpt lat="47.49863" lon="-2.81138">
        <ele>34.9</ele>
        <time>2026-08-25T12:47:21Z</time>
      </trkpt>
      <trkpt lat="47.49862" lon="-2.81142">
        <ele>35</ele>
        <time>2026-08-25T12:47:22Z</time>
      </trkpt>
      <trkpt lat="47.4986" lon="-2.81146">
        <ele>35</ele>
        <time>2026-08-25T12:47:23Z</time>
      </trkpt>
      <trkpt lat="47.49859" lon="-2.8115">
        <ele>35</ele>
        <time>2026-08-25T12:47:24Z</time>
      </trkpt>
      <trkpt lat="47.49858" lon="-2.81154">
        <ele>34.9</ele>
        <time>2026-08-25T12:47:25Z</time>
      </trkpt>
      <trkpt lat="47.49856" lon="-2.81158">
        <ele>34.9</ele>
        <time>2026-08-25T12:47:26Z</time>
      </trkpt>
      <trkpt lat="47.49854" lon="-2.81163">
        <ele>35</ele>
        <time>2026-08-25T12:47:27Z</time>
      </trkpt>
      <trkpt lat="47.49853" lon="-2.81167">
        <ele>35</ele>
        <time>2026-08-25T12:47:28Z</time>
      </trkpt>
      <trkpt lat="47.49851" lon="-2.81172">
        <ele>35</ele>
        <time>2026-08-25T12:47:29Z</time>
      </trkpt>
      <trkpt lat="47.49849" lon="-2.81176">
        <ele>35</ele>
        <time>2026-08-25T12:47:30Z</time>
      </trkpt>
      <trkpt lat="47.49848" lon="-2.81181">
        <ele>35</ele>
        <time>2026-08-25T12:47:31Z</time>
      </trkpt>
      <trkpt lat="47.49847" lon="-2.81186">
        <ele>35</ele>
        <time>2026-08-25T12:47:32Z</time>
      </trkpt>
      <trkpt lat="47.49846" lon="-2.8119">
        <ele>35</ele>
        <time>2026-08-25T12:47:33Z</time>
      </trkpt>
      <trkpt lat="47.49844" lon="-2.81194">
        <ele>35</ele>
        <time>2026-08-25T12:47:34Z</time>
      </trkpt>
      <trkpt lat="47.49843" lon="-2.81198">
        <ele>35</ele>
        <time>2026-08-25T12:47:35Z</time>
      </trkpt>
      <trkpt lat="47.49841" lon="-2.81201">
        <ele>35</ele>
        <time>2026-08-25T12:47:36Z</time>
      </trkpt>
      <trkpt lat="47.49839" lon="-2.81204">
        <ele>35</ele>
        <time>2026-08-25T12:47:37Z</time>
      </trkpt>
      <trkpt lat="47.49837" lon="-2.81208">
        <ele>35</ele>
        <time>2026-08-25T12:47:38Z</time>
      </trkpt>
      <trkpt lat="47.49835" lon="-2.81213">
        <ele>35</ele>
        <time>2026-08-25T12:47:39Z</time>
      </trkpt>
      <trkpt lat="47.49833" lon="-2.81216">
        <ele>35</ele>
        <time>2026-08-25T12:47:40Z</time>
      </trkpt>
      <trkpt lat="47.49831" lon="-2.81219">
        <ele>35</ele>
        <time>2026-08-25T12:47:41Z</time>
      </trkpt>
      <trkpt lat="47.4983" lon="-2.81223">
        <ele>35</ele>
        <time>2026-08-25T12:47:42Z</time>
      </trkpt>
      <trkpt lat="47.49829" lon="-2.81226">
        <ele>35</ele>
        <time>2026-08-25T12:47:43Z</time>
      </trkpt>
      <trkpt lat="47.49828" lon="-2.81229">
        <ele>35</ele>
        <time>2026-08-25T12:47:44Z</time>
      </trkpt>
      <trkpt lat="47.49828" lon="-2.81231">
        <ele>35</ele>
        <time>2026-08-25T12:47:45Z</time>
      </trkpt>
      <trkpt lat="47.49826" lon="-2.81234">
        <ele>35</ele>
        <time>2026-08-25T12:47:46Z</time>
      </trkpt>
      <trkpt lat="47.49825" lon="-2.81237">
        <ele>35</ele>
        <time>2026-08-25T12:47:47Z</time>
      </trkpt>
      <trkpt lat="47.49825" lon="-2.81239">
        <ele>35</ele>
        <time>2026-08-25T12:47:48Z</time>
      </trkpt>
      <trkpt lat="47.49824" lon="-2.81243">
        <ele>35</ele>
        <time>2026-08-25T12:47:49Z</time>
      </trkpt>
      <trkpt lat="47.49824" lon="-2.81247">
        <ele>35</ele>
        <time>2026-08-25T12:47:50Z</time>
      </trkpt>
      <trkpt lat="47.49824" lon="-2.81251">
        <ele>35</ele>
        <time>2026-08-25T12:47:51Z</time>
      </trkpt>
      <trkpt lat="47.49823" lon="-2.81257">
        <ele>35</ele>
        <time>2026-08-25T12:47:52Z</time>
      </trkpt>
      <trkpt lat="47.49822" lon="-2.81262">
        <ele>35</ele>
        <time>2026-08-25T12:47:53Z</time>
      </trkpt>
      <trkpt lat="47.49821" lon="-2.81268">
        <ele>35</ele>
        <time>2026-08-25T12:47:54Z</time>
      </trkpt>
      <trkpt lat="47.4982" lon="-2.81274">
        <ele>35</ele>
        <time>2026-08-25T12:47:55Z</time>
      </trkpt>
      <trkpt lat="47.49819" lon="-2.8128">
        <ele>35</ele>
        <time>2026-08-25T12:47:56Z</time>
      </trkpt>
      <trkpt lat="47.49818" lon="-2.81287">
        <ele>35</ele>
        <time>2026-08-25T12:47:57Z</time>
      </trkpt>
      <trkpt lat="47.49818" lon="-2.81293">
        <ele>35</ele>
        <time>2026-08-25T12:47:58Z</time>
      </trkpt>
      <trkpt lat="47.49818" lon="-2.81299">
        <ele>35</ele>
        <time>2026-08-25T12:47:59Z</time>
      </trkpt>
      <trkpt lat="47.49817" lon="-2.81305">
        <ele>35</ele>
        <time>2026-08-25T12:48:00Z</time>
      </trkpt>
      <trkpt lat="47.49816" lon="-2.8131">
        <ele>34.8</ele>
        <time>2026-08-25T12:48:01Z</time>
      </trkpt>
      <trkpt lat="47.49815" lon="-2.81316">
        <ele>34.6</ele>
        <time>2026-08-25T12:48:02Z</time>
      </trkpt>
      <trkpt lat="47.49814" lon="-2.81321">
        <ele>34.4</ele>
        <time>2026-08-25T12:48:03Z</time>
      </trkpt>
      <trkpt lat="47.49812" lon="-2.81328">
        <ele>34.2</ele>
        <time>2026-08-25T12:48:04Z</time>
      </trkpt>
      <trkpt lat="47.49811" lon="-2.81334">
        <ele>34</ele>
        <time>2026-08-25T12:48:05Z</time>
      </trkpt>
      <trkpt lat="47.4981" lon="-2.81339">
        <ele>34</ele>
        <time>2026-08-25T12:48:06Z</time>
      </trkpt>
      <trkpt lat="47.49808" lon="-2.81344">
        <ele>34</ele>
        <time>2026-08-25T12:48:07Z</time>
      </trkpt>
      <trkpt lat="47.49806" lon="-2.81351">
        <ele>34</ele>
        <time>2026-08-25T12:48:08Z</time>
      </trkpt>
      <trkpt lat="47.49804" lon="-2.81358">
        <ele>34</ele>
        <time>2026-08-25T12:48:09Z</time>
      </trkpt>
      <trkpt lat="47.49801" lon="-2.81366">
        <ele>33.7</ele>
        <time>2026-08-25T12:48:10Z</time>
      </trkpt>
      <trkpt lat="47.49799" lon="-2.81374">
        <ele>33.4</ele>
        <time>2026-08-25T12:48:11Z</time>
      </trkpt>
      <trkpt lat="47.49796" lon="-2.81382">
        <ele>33.2</ele>
        <time>2026-08-25T12:48:12Z</time>
      </trkpt>
      <trkpt lat="47.49794" lon="-2.81389">
        <ele>33</ele>
        <time>2026-08-25T12:48:13Z</time>
      </trkpt>
      <trkpt lat="47.49792" lon="-2.81396">
        <ele>33</ele>
        <time>2026-08-25T12:48:14Z</time>
      </trkpt>
      <trkpt lat="47.49789" lon="-2.81403">
        <ele>33</ele>
        <time>2026-08-25T12:48:15Z</time>
      </trkpt>
      <trkpt lat="47.49788" lon="-2.81411">
        <ele>33</ele>
        <time>2026-08-25T12:48:16Z</time>
      </trkpt>
      <trkpt lat="47.49786" lon="-2.81418">
        <ele>33</ele>
        <time>2026-08-25T12:48:17Z</time>
      </trkpt>
      <trkpt lat="47.49785" lon="-2.81427">
        <ele>32.7</ele>
        <time>2026-08-25T12:48:18Z</time>
      </trkpt>
      <trkpt lat="47.49784" lon="-2.81435">
        <ele>32.5</ele>
        <time>2026-08-25T12:48:19Z</time>
      </trkpt>
      <trkpt lat="47.49784" lon="-2.81442">
        <ele>32.3</ele>
        <time>2026-08-25T12:48:20Z</time>
      </trkpt>
      <trkpt lat="47.49783" lon="-2.81449">
        <ele>32.2</ele>
        <time>2026-08-25T12:48:21Z</time>
      </trkpt>
      <trkpt lat="47.49783" lon="-2.81457">
        <ele>32.2</ele>
        <time>2026-08-25T12:48:22Z</time>
      </trkpt>
      <trkpt lat="47.49783" lon="-2.81465">
        <ele>32.2</ele>
        <time>2026-08-25T12:48:23Z</time>
      </trkpt>
      <trkpt lat="47.49782" lon="-2.81473">
        <ele>32.2</ele>
        <time>2026-08-25T12:48:24Z</time>
      </trkpt>
      <trkpt lat="47.49782" lon="-2.8148">
        <ele>32.4</ele>
        <time>2026-08-25T12:48:25Z</time>
      </trkpt>
      <trkpt lat="47.49781" lon="-2.81486">
        <ele>32.6</ele>
        <time>2026-08-25T12:48:26Z</time>
      </trkpt>
      <trkpt lat="47.49781" lon="-2.81493">
        <ele>32.8</ele>
        <time>2026-08-25T12:48:27Z</time>
      </trkpt>
      <trkpt lat="47.4978" lon="-2.81499">
        <ele>33</ele>
        <time>2026-08-25T12:48:28Z</time>
      </trkpt>
      <trkpt lat="47.4978" lon="-2.81506">
        <ele>33</ele>
        <time>2026-08-25T12:48:29Z</time>
      </trkpt>
      <trkpt lat="47.49779" lon="-2.81511">
        <ele>33</ele>
        <time>2026-08-25T12:48:30Z</time>
      </trkpt>
      <trkpt lat="47.49778" lon="-2.81517">
        <ele>33</ele>
        <time>2026-08-25T12:48:31Z</time>
      </trkpt>
      <trkpt lat="47.49778" lon="-2.81523">
        <ele>33</ele>
        <time>2026-08-25T12:48:32Z</time>
      </trkpt>
      <trkpt lat="47.49777" lon="-2.81528">
        <ele>33</ele>
        <time>2026-08-25T12:48:33Z</time>
      </trkpt>
      <trkpt lat="47.49777" lon="-2.81534">
        <ele>33</ele>
        <time>2026-08-25T12:48:34Z</time>
      </trkpt>
      <trkpt lat="47.49776" lon="-2.8154">
        <ele>32.9</ele>
        <time>2026-08-25T12:48:35Z</time>
      </trkpt>
      <trkpt lat="47.49776" lon="-2.81546">
        <ele>32.9</ele>
        <time>2026-08-25T12:48:36Z</time>
      </trkpt>
      <trkpt lat="47.49775" lon="-2.81551">
        <ele>32.9</ele>
        <time>2026-08-25T12:48:37Z</time>
      </trkpt>
      <trkpt lat="47.49774" lon="-2.81557">
        <ele>32.9</ele>
        <time>2026-08-25T12:48:38Z</time>
      </trkpt>
      <trkpt lat="47.49773" lon="-2.81563">
        <ele>32.8</ele>
        <time>2026-08-25T12:48:39Z</time>
      </trkpt>
      <trkpt lat="47.49772" lon="-2.81568">
        <ele>32.8</ele>
        <time>2026-08-25T12:48:40Z</time>
      </trkpt>
      <trkpt lat="47.49771" lon="-2.81574">
        <ele>32.8</ele>
        <time>2026-08-25T12:48:41Z</time>
      </trkpt>
      <trkpt lat="47.4977" lon="-2.8158">
        <ele>32.7</ele>
        <time>2026-08-25T12:48:42Z</time>
      </trkpt>
      <trkpt lat="47.49769" lon="-2.81585">
        <ele>32.7</ele>
        <time>2026-08-25T12:48:43Z</time>
      </trkpt>
      <trkpt lat="47.49768" lon="-2.81591">
        <ele>32.7</ele>
        <time>2026-08-25T12:48:44Z</time>
      </trkpt>
      <trkpt lat="47.49767" lon="-2.81597">
        <ele>32.8</ele>
        <time>2026-08-25T12:48:45Z</time>
      </trkpt>
      <trkpt lat="47.49767" lon="-2.81603">
        <ele>32.9</ele>
        <time>2026-08-25T12:48:46Z</time>
      </trkpt>
      <trkpt lat="47.49766" lon="-2.81609">
        <ele>33</ele>
        <time>2026-08-25T12:48:47Z</time>
      </trkpt>
      <trkpt lat="47.49766" lon="-2.81615">
        <ele>33.1</ele>
        <time>2026-08-25T12:48:48Z</time>
      </trkpt>
      <trkpt lat="47.49765" lon="-2.81621">
        <ele>33.2</ele>
        <time>2026-08-25T12:48:49Z</time>
      </trkpt>
      <trkpt lat="47.49765" lon="-2.81627">
        <ele>33.3</ele>
        <time>2026-08-25T12:48:50Z</time>
      </trkpt>
      <trkpt lat="47.49765" lon="-2.81633">
        <ele>33.4</ele>
        <time>2026-08-25T12:48:51Z</time>
      </trkpt>
      <trkpt lat="47.49765" lon="-2.81639">
        <ele>33.5</ele>
        <time>2026-08-25T12:48:52Z</time>
      </trkpt>
      <trkpt lat="47.49765" lon="-2.81645">
        <ele>33.4</ele>
        <time>2026-08-25T12:48:53Z</time>
      </trkpt>
      <trkpt lat="47.49765" lon="-2.81651">
        <ele>33.3</ele>
        <time>2026-08-25T12:48:54Z</time>
      </trkpt>
      <trkpt lat="47.49766" lon="-2.81658">
        <ele>33.2</ele>
        <time>2026-08-25T12:48:55Z</time>
      </trkpt>
      <trkpt lat="47.49766" lon="-2.81664">
        <ele>33.1</ele>
        <time>2026-08-25T12:48:56Z</time>
      </trkpt>
      <trkpt lat="47.49765" lon="-2.8167">
        <ele>33</ele>
        <time>2026-08-25T12:48:57Z</time>
      </trkpt>
      <trkpt lat="47.49765" lon="-2.81676">
        <ele>33</ele>
        <time>2026-08-25T12:48:58Z</time>
      </trkpt>
      <trkpt lat="47.49765" lon="-2.81683">
        <ele>33</ele>
        <time>2026-08-25T12:48:59Z</time>
      </trkpt>
      <trkpt lat="47.49765" lon="-2.81689">
        <ele>33</ele>
        <time>2026-08-25T12:49:00Z</time>
      </trkpt>
      <trkpt lat="47.49765" lon="-2.81694">
        <ele>33</ele>
        <time>2026-08-25T12:49:01Z</time>
      </trkpt>
      <trkpt lat="47.49765" lon="-2.817">
        <ele>32.9</ele>
        <time>2026-08-25T12:49:02Z</time>
      </trkpt>
      <trkpt lat="47.49765" lon="-2.81706">
        <ele>32.8</ele>
        <time>2026-08-25T12:49:03Z</time>
      </trkpt>
      <trkpt lat="47.49764" lon="-2.81711">
        <ele>32.7</ele>
        <time>2026-08-25T12:49:04Z</time>
      </trkpt>
      <trkpt lat="47.49764" lon="-2.81716">
        <ele>32.6</ele>
        <time>2026-08-25T12:49:05Z</time>
      </trkpt>
      <trkpt lat="47.49764" lon="-2.81722">
        <ele>32.5</ele>
        <time>2026-08-25T12:49:06Z</time>
      </trkpt>
      <trkpt lat="47.49764" lon="-2.81728">
        <ele>32.4</ele>
        <time>2026-08-25T12:49:07Z</time>
      </trkpt>
      <trkpt lat="47.49763" lon="-2.81733">
        <ele>32.3</ele>
        <time>2026-08-25T12:49:08Z</time>
      </trkpt>
      <trkpt lat="47.49763" lon="-2.81738">
        <ele>32.2</ele>
        <time>2026-08-25T12:49:09Z</time>
      </trkpt>
      <trkpt lat="47.49763" lon="-2.81742">
        <ele>32.1</ele>
        <time>2026-08-25T12:49:10Z</time>
      </trkpt>
      <trkpt lat="47.49763" lon="-2.81746">
        <ele>32.1</ele>
        <time>2026-08-25T12:49:11Z</time>
      </trkpt>
      <trkpt lat="47.49763" lon="-2.8175">
        <ele>32</ele>
        <time>2026-08-25T12:49:12Z</time>
      </trkpt>
      <trkpt lat="47.49762" lon="-2.81753">
        <ele>32.1</ele>
        <time>2026-08-25T12:49:13Z</time>
      </trkpt>
      <trkpt lat="47.49762" lon="-2.81756">
        <ele>32.2</ele>
        <time>2026-08-25T12:49:14Z</time>
      </trkpt>
      <trkpt lat="47.49762" lon="-2.81758">
        <ele>32.2</ele>
        <time>2026-08-25T12:49:15Z</time>
      </trkpt>
      <trkpt lat="47.49763" lon="-2.8176">
        <ele>32.3</ele>
        <time>2026-08-25T12:49:16Z</time>
      </trkpt>
      <trkpt lat="47.49764" lon="-2.81761">
        <ele>32.4</ele>
        <time>2026-08-25T12:49:17Z</time>
      </trkpt>
      <trkpt lat="47.49765" lon="-2.81762">
        <ele>32.5</ele>
        <time>2026-08-25T12:49:18Z</time>
      </trkpt>
      <trkpt lat="47.49765" lon="-2.81764">
        <ele>32.5</ele>
        <time>2026-08-25T12:49:19Z</time>
      </trkpt>
      <trkpt lat="47.49766" lon="-2.81767">
        <ele>32.7</ele>
        <time>2026-08-25T12:49:20Z</time>
      </trkpt>
      <trkpt lat="47.49765" lon="-2.81771">
        <ele>32.8</ele>
        <time>2026-08-25T12:49:21Z</time>
      </trkpt>
      <trkpt lat="47.49765" lon="-2.81775">
        <ele>33</ele>
        <time>2026-08-25T12:49:22Z</time>
      </trkpt>
      <trkpt lat="47.49765" lon="-2.8178">
        <ele>33.1</ele>
        <time>2026-08-25T12:49:23Z</time>
      </trkpt>
      <trkpt lat="47.49766" lon="-2.81786">
        <ele>33.1</ele>
        <time>2026-08-25T12:49:24Z</time>
      </trkpt>
      <trkpt lat="47.49767" lon="-2.81791">
        <ele>33.1</ele>
        <time>2026-08-25T12:49:25Z</time>
      </trkpt>
      <trkpt lat="47.49768" lon="-2.81796">
        <ele>33.1</ele>
        <time>2026-08-25T12:49:26Z</time>
      </trkpt>
      <trkpt lat="47.49769" lon="-2.81801">
        <ele>33.1</ele>
        <time>2026-08-25T12:49:27Z</time>
      </trkpt>
      <trkpt lat="47.4977" lon="-2.81807">
        <ele>33</ele>
        <time>2026-08-25T12:49:28Z</time>
      </trkpt>
      <trkpt lat="47.49771" lon="-2.81813">
        <ele>33.2</ele>
        <time>2026-08-25T12:49:29Z</time>
      </trkpt>
      <trkpt lat="47.49772" lon="-2.81819">
        <ele>33.4</ele>
        <time>2026-08-25T12:49:30Z</time>
      </trkpt>
      <trkpt lat="47.49772" lon="-2.81825">
        <ele>33.6</ele>
        <time>2026-08-25T12:49:31Z</time>
      </trkpt>
      <trkpt lat="47.49773" lon="-2.81831">
        <ele>33.8</ele>
        <time>2026-08-25T12:49:32Z</time>
      </trkpt>
      <trkpt lat="47.49774" lon="-2.81837">
        <ele>33.9</ele>
        <time>2026-08-25T12:49:33Z</time>
      </trkpt>
      <trkpt lat="47.49774" lon="-2.81842">
        <ele>33.9</ele>
        <time>2026-08-25T12:49:34Z</time>
      </trkpt>
      <trkpt lat="47.49775" lon="-2.81848">
        <ele>33.9</ele>
        <time>2026-08-25T12:49:35Z</time>
      </trkpt>
      <trkpt lat="47.49776" lon="-2.81854">
        <ele>33.9</ele>
        <time>2026-08-25T12:49:36Z</time>
      </trkpt>
      <trkpt lat="47.49777" lon="-2.8186">
        <ele>34</ele>
        <time>2026-08-25T12:49:37Z</time>
      </trkpt>
      <trkpt lat="47.49778" lon="-2.81865">
        <ele>34</ele>
        <time>2026-08-25T12:49:38Z</time>
      </trkpt>
      <trkpt lat="47.49779" lon="-2.81871">
        <ele>34</ele>
        <time>2026-08-25T12:49:39Z</time>
      </trkpt>
      <trkpt lat="47.4978" lon="-2.81876">
        <ele>34</ele>
        <time>2026-08-25T12:49:40Z</time>
      </trkpt>
      <trkpt lat="47.49782" lon="-2.81882">
        <ele>34.1</ele>
        <time>2026-08-25T12:49:41Z</time>
      </trkpt>
      <trkpt lat="47.49784" lon="-2.81887">
        <ele>34.2</ele>
        <time>2026-08-25T12:49:42Z</time>
      </trkpt>
      <trkpt lat="47.49786" lon="-2.81892">
        <ele>34.3</ele>
        <time>2026-08-25T12:49:43Z</time>
      </trkpt>
      <trkpt lat="47.49788" lon="-2.81897">
        <ele>34.3</ele>
        <time>2026-08-25T12:49:44Z</time>
      </trkpt>
      <trkpt lat="47.4979" lon="-2.81902">
        <ele>34.2</ele>
        <time>2026-08-25T12:49:45Z</time>
      </trkpt>
      <trkpt lat="47.49792" lon="-2.81907">
        <ele>34.2</ele>
        <time>2026-08-25T12:49:46Z</time>
      </trkpt>
      <trkpt lat="47.49794" lon="-2.81912">
        <ele>34.1</ele>
        <time>2026-08-25T12:49:47Z</time>
      </trkpt>
      <trkpt lat="47.49797" lon="-2.81917">
        <ele>34</ele>
        <time>2026-08-25T12:49:48Z</time>
      </trkpt>
      <trkpt lat="47.49799" lon="-2.81922">
        <ele>34</ele>
        <time>2026-08-25T12:49:49Z</time>
      </trkpt>
      <trkpt lat="47.49801" lon="-2.81927">
        <ele>34</ele>
        <time>2026-08-25T12:49:50Z</time>
      </trkpt>
      <trkpt lat="47.49804" lon="-2.81932">
        <ele>34</ele>
        <time>2026-08-25T12:49:51Z</time>
      </trkpt>
      <trkpt lat="47.49805" lon="-2.81938">
        <ele>34</ele>
        <time>2026-08-25T12:49:52Z</time>
      </trkpt>
      <trkpt lat="47.49806" lon="-2.81944">
        <ele>34</ele>
        <time>2026-08-25T12:49:53Z</time>
      </trkpt>
      <trkpt lat="47.49807" lon="-2.8195">
        <ele>34.1</ele>
        <time>2026-08-25T12:49:54Z</time>
      </trkpt>
      <trkpt lat="47.49807" lon="-2.81956">
        <ele>34.1</ele>
        <time>2026-08-25T12:49:55Z</time>
      </trkpt>
      <trkpt lat="47.49808" lon="-2.81962">
        <ele>34.1</ele>
        <time>2026-08-25T12:49:56Z</time>
      </trkpt>
      <trkpt lat="47.49808" lon="-2.81968">
        <ele>34.1</ele>
        <time>2026-08-25T12:49:57Z</time>
      </trkpt>
      <trkpt lat="47.49809" lon="-2.81974">
        <ele>34.1</ele>
        <time>2026-08-25T12:49:58Z</time>
      </trkpt>
      <trkpt lat="47.4981" lon="-2.8198">
        <ele>34.2</ele>
        <time>2026-08-25T12:49:59Z</time>
      </trkpt>
      <trkpt lat="47.49811" lon="-2.81985">
        <ele>34.2</ele>
        <time>2026-08-25T12:50:00Z</time>
      </trkpt>
      <trkpt lat="47.49813" lon="-2.81991">
        <ele>34.3</ele>
        <time>2026-08-25T12:50:01Z</time>
      </trkpt>
      <trkpt lat="47.49814" lon="-2.81997">
        <ele>34.3</ele>
        <time>2026-08-25T12:50:02Z</time>
      </trkpt>
      <trkpt lat="47.49815" lon="-2.82002">
        <ele>34.3</ele>
        <time>2026-08-25T12:50:03Z</time>
      </trkpt>
      <trkpt lat="47.49817" lon="-2.82008">
        <ele>34.4</ele>
        <time>2026-08-25T12:50:04Z</time>
      </trkpt>
      <trkpt lat="47.49819" lon="-2.82013">
        <ele>34.5</ele>
        <time>2026-08-25T12:50:05Z</time>
      </trkpt>
      <trkpt lat="47.49821" lon="-2.82019">
        <ele>34.6</ele>
        <time>2026-08-25T12:50:06Z</time>
      </trkpt>
      <trkpt lat="47.49823" lon="-2.82024">
        <ele>34.6</ele>
        <time>2026-08-25T12:50:07Z</time>
      </trkpt>
      <trkpt lat="47.49824" lon="-2.8203">
        <ele>34.7</ele>
        <time>2026-08-25T12:50:08Z</time>
      </trkpt>
      <trkpt lat="47.49826" lon="-2.82035">
        <ele>34.7</ele>
        <time>2026-08-25T12:50:09Z</time>
      </trkpt>
      <trkpt lat="47.49828" lon="-2.8204">
        <ele>34.8</ele>
        <time>2026-08-25T12:50:10Z</time>
      </trkpt>
      <trkpt lat="47.4983" lon="-2.82045">
        <ele>34.9</ele>
        <time>2026-08-25T12:50:11Z</time>
      </trkpt>
      <trkpt lat="47.49832" lon="-2.82051">
        <ele>35</ele>
        <time>2026-08-25T12:50:12Z</time>
      </trkpt>
      <trkpt lat="47.49834" lon="-2.82056">
        <ele>35</ele>
        <time>2026-08-25T12:50:13Z</time>
      </trkpt>
      <trkpt lat="47.49836" lon="-2.82061">
        <ele>34.8</ele>
        <time>2026-08-25T12:50:14Z</time>
      </trkpt>
      <trkpt lat="47.49838" lon="-2.82066">
        <ele>34.7</ele>
        <time>2026-08-25T12:50:15Z</time>
      </trkpt>
      <trkpt lat="47.4984" lon="-2.82071">
        <ele>34.6</ele>
        <time>2026-08-25T12:50:16Z</time>
      </trkpt>
      <trkpt lat="47.49843" lon="-2.82076">
        <ele>34.5</ele>
        <time>2026-08-25T12:50:17Z</time>
      </trkpt>
      <trkpt lat="47.49846" lon="-2.82081">
        <ele>34.5</ele>
        <time>2026-08-25T12:50:18Z</time>
      </trkpt>
      <trkpt lat="47.49848" lon="-2.82086">
        <ele>34.5</ele>
        <time>2026-08-25T12:50:19Z</time>
      </trkpt>
      <trkpt lat="47.49851" lon="-2.82091">
        <ele>34.6</ele>
        <time>2026-08-25T12:50:20Z</time>
      </trkpt>
      <trkpt lat="47.49854" lon="-2.82096">
        <ele>34.7</ele>
        <time>2026-08-25T12:50:21Z</time>
      </trkpt>
      <trkpt lat="47.49857" lon="-2.82101">
        <ele>34.9</ele>
        <time>2026-08-25T12:50:22Z</time>
      </trkpt>
      <trkpt lat="47.4986" lon="-2.82106">
        <ele>35</ele>
        <time>2026-08-25T12:50:23Z</time>
      </trkpt>
      <trkpt lat="47.49862" lon="-2.82111">
        <ele>35</ele>
        <time>2026-08-25T12:50:24Z</time>
      </trkpt>
      <trkpt lat="47.49865" lon="-2.82116">
        <ele>34.8</ele>
        <time>2026-08-25T12:50:25Z</time>
      </trkpt>
      <trkpt lat="47.49868" lon="-2.82121">
        <ele>34.7</ele>
        <time>2026-08-25T12:50:26Z</time>
      </trkpt>
      <trkpt lat="47.49871" lon="-2.82126">
        <ele>34.7</ele>
        <time>2026-08-25T12:50:27Z</time>
      </trkpt>
      <trkpt lat="47.49874" lon="-2.82131">
        <ele>34.6</ele>
        <time>2026-08-25T12:50:28Z</time>
      </trkpt>
      <trkpt lat="47.49877" lon="-2.82136">
        <ele>34.6</ele>
        <time>2026-08-25T12:50:29Z</time>
      </trkpt>
      <trkpt lat="47.49879" lon="-2.82141">
        <ele>34.6</ele>
        <time>2026-08-25T12:50:30Z</time>
      </trkpt>
      <trkpt lat="47.49882" lon="-2.82147">
        <ele>34.8</ele>
        <time>2026-08-25T12:50:31Z</time>
      </trkpt>
      <trkpt lat="47.49884" lon="-2.82152">
        <ele>34.8</ele>
        <time>2026-08-25T12:50:32Z</time>
      </trkpt>
      <trkpt lat="47.49887" lon="-2.82157">
        <ele>34.9</ele>
        <time>2026-08-25T12:50:33Z</time>
      </trkpt>
      <trkpt lat="47.49889" lon="-2.82163">
        <ele>35</ele>
        <time>2026-08-25T12:50:34Z</time>
      </trkpt>
      <trkpt lat="47.49892" lon="-2.82168">
        <ele>35</ele>
        <time>2026-08-25T12:50:35Z</time>
      </trkpt>
      <trkpt lat="47.49895" lon="-2.82173">
        <ele>34.8</ele>
        <time>2026-08-25T12:50:36Z</time>
      </trkpt>
      <trkpt lat="47.49897" lon="-2.82178">
        <ele>34.7</ele>
        <time>2026-08-25T12:50:37Z</time>
      </trkpt>
      <trkpt lat="47.499" lon="-2.82183">
        <ele>34.6</ele>
        <time>2026-08-25T12:50:38Z</time>
      </trkpt>
      <trkpt lat="47.49903" lon="-2.82188">
        <ele>34.6</ele>
        <time>2026-08-25T12:50:39Z</time>
      </trkpt>
      <trkpt lat="47.49906" lon="-2.82194">
        <ele>34.6</ele>
        <time>2026-08-25T12:50:40Z</time>
      </trkpt>
      <trkpt lat="47.49908" lon="-2.82199">
        <ele>34.7</ele>
        <time>2026-08-25T12:50:41Z</time>
      </trkpt>
      <trkpt lat="47.49911" lon="-2.82205">
        <ele>34.8</ele>
        <time>2026-08-25T12:50:42Z</time>
      </trkpt>
      <trkpt lat="47.49913" lon="-2.82212">
        <ele>34.9</ele>
        <time>2026-08-25T12:50:43Z</time>
      </trkpt>
      <trkpt lat="47.49915" lon="-2.82218">
        <ele>34.9</ele>
        <time>2026-08-25T12:50:44Z</time>
      </trkpt>
      <trkpt lat="47.49917" lon="-2.82225">
        <ele>34.9</ele>
        <time>2026-08-25T12:50:45Z</time>
      </trkpt>
      <trkpt lat="47.49919" lon="-2.82231">
        <ele>34.7</ele>
        <time>2026-08-25T12:50:46Z</time>
      </trkpt>
      <trkpt lat="47.49921" lon="-2.82238">
        <ele>34.4</ele>
        <time>2026-08-25T12:50:47Z</time>
      </trkpt>
      <trkpt lat="47.49923" lon="-2.82245">
        <ele>34.2</ele>
        <time>2026-08-25T12:50:48Z</time>
      </trkpt>
      <trkpt lat="47.49926" lon="-2.82251">
        <ele>34</ele>
        <time>2026-08-25T12:50:49Z</time>
      </trkpt>
      <trkpt lat="47.49929" lon="-2.82257">
        <ele>33.7</ele>
        <time>2026-08-25T12:50:50Z</time>
      </trkpt>
      <trkpt lat="47.49932" lon="-2.82263">
        <ele>33.5</ele>
        <time>2026-08-25T12:50:51Z</time>
      </trkpt>
      <trkpt lat="47.49936" lon="-2.82269">
        <ele>33.3</ele>
        <time>2026-08-25T12:50:52Z</time>
      </trkpt>
      <trkpt lat="47.4994" lon="-2.82274">
        <ele>33.1</ele>
        <time>2026-08-25T12:50:53Z</time>
      </trkpt>
      <trkpt lat="47.49945" lon="-2.8228">
        <ele>32.9</ele>
        <time>2026-08-25T12:50:54Z</time>
      </trkpt>
      <trkpt lat="47.4995" lon="-2.82285">
        <ele>32.7</ele>
        <time>2026-08-25T12:50:55Z</time>
      </trkpt>
      <trkpt lat="47.49954" lon="-2.8229">
        <ele>32.6</ele>
        <time>2026-08-25T12:50:56Z</time>
      </trkpt>
      <trkpt lat="47.49959" lon="-2.82295">
        <ele>32.4</ele>
        <time>2026-08-25T12:50:57Z</time>
      </trkpt>
      <trkpt lat="47.49964" lon="-2.823">
        <ele>32.2</ele>
        <time>2026-08-25T12:50:58Z</time>
      </trkpt>
      <trkpt lat="47.49968" lon="-2.82306">
        <ele>32</ele>
        <time>2026-08-25T12:50:59Z</time>
      </trkpt>
      <trkpt lat="47.49972" lon="-2.82312">
        <ele>32</ele>
        <time>2026-08-25T12:51:00Z</time>
      </trkpt>
      <trkpt lat="47.49975" lon="-2.82318">
        <ele>32</ele>
        <time>2026-08-25T12:51:01Z</time>
      </trkpt>
      <trkpt lat="47.49977" lon="-2.82325">
        <ele>32</ele>
        <time>2026-08-25T12:51:02Z</time>
      </trkpt>
      <trkpt lat="47.49978" lon="-2.82333">
        <ele>32</ele>
        <time>2026-08-25T12:51:03Z</time>
      </trkpt>
      <trkpt lat="47.49979" lon="-2.8234">
        <ele>32</ele>
        <time>2026-08-25T12:51:04Z</time>
      </trkpt>
      <trkpt lat="47.4998" lon="-2.82348">
        <ele>32</ele>
        <time>2026-08-25T12:51:05Z</time>
      </trkpt>
      <trkpt lat="47.49979" lon="-2.82355">
        <ele>32</ele>
        <time>2026-08-25T12:51:06Z</time>
      </trkpt>
      <trkpt lat="47.49978" lon="-2.82363">
        <ele>32</ele>
        <time>2026-08-25T12:51:07Z</time>
      </trkpt>
      <trkpt lat="47.49979" lon="-2.8237">
        <ele>32</ele>
        <time>2026-08-25T12:51:08Z</time>
      </trkpt>
      <trkpt lat="47.49979" lon="-2.82377">
        <ele>32</ele>
        <time>2026-08-25T12:51:09Z</time>
      </trkpt>
      <trkpt lat="47.49978" lon="-2.82384">
        <ele>32</ele>
        <time>2026-08-25T12:51:10Z</time>
      </trkpt>
      <trkpt lat="47.49978" lon="-2.82391">
        <ele>32</ele>
        <time>2026-08-25T12:51:11Z</time>
      </trkpt>
      <trkpt lat="47.49977" lon="-2.82398">
        <ele>32</ele>
        <time>2026-08-25T12:51:12Z</time>
      </trkpt>
      <trkpt lat="47.49977" lon="-2.82405">
        <ele>32</ele>
        <time>2026-08-25T12:51:13Z</time>
      </trkpt>
      <trkpt lat="47.49977" lon="-2.82411">
        <ele>32</ele>
        <time>2026-08-25T12:51:14Z</time>
      </trkpt>
      <trkpt lat="47.49976" lon="-2.82417">
        <ele>32</ele>
        <time>2026-08-25T12:51:15Z</time>
      </trkpt>
      <trkpt lat="47.49976" lon="-2.82424">
        <ele>32</ele>
        <time>2026-08-25T12:51:16Z</time>
      </trkpt>
      <trkpt lat="47.49976" lon="-2.82431">
        <ele>32.1</ele>
        <time>2026-08-25T12:51:17Z</time>
      </trkpt>
      <trkpt lat="47.49976" lon="-2.82438">
        <ele>32.1</ele>
        <time>2026-08-25T12:51:18Z</time>
      </trkpt>
      <trkpt lat="47.49977" lon="-2.82445">
        <ele>32.2</ele>
        <time>2026-08-25T12:51:19Z</time>
      </trkpt>
      <trkpt lat="47.49978" lon="-2.82451">
        <ele>32.4</ele>
        <time>2026-08-25T12:51:20Z</time>
      </trkpt>
      <trkpt lat="47.49979" lon="-2.82458">
        <ele>32.7</ele>
        <time>2026-08-25T12:51:21Z</time>
      </trkpt>
      <trkpt lat="47.4998" lon="-2.82464">
        <ele>33</ele>
        <time>2026-08-25T12:51:22Z</time>
      </trkpt>
      <trkpt lat="47.4998" lon="-2.82471">
        <ele>33.2</ele>
        <time>2026-08-25T12:51:23Z</time>
      </trkpt>
      <trkpt lat="47.4998" lon="-2.82477">
        <ele>33.5</ele>
        <time>2026-08-25T12:51:24Z</time>
      </trkpt>
      <trkpt lat="47.49981" lon="-2.82483">
        <ele>33.7</ele>
        <time>2026-08-25T12:51:25Z</time>
      </trkpt>
      <trkpt lat="47.49982" lon="-2.8249">
        <ele>34</ele>
        <time>2026-08-25T12:51:26Z</time>
      </trkpt>
      <trkpt lat="47.49983" lon="-2.82496">
        <ele>34.2</ele>
        <time>2026-08-25T12:51:27Z</time>
      </trkpt>
      <trkpt lat="47.49984" lon="-2.82501">
        <ele>34.4</ele>
        <time>2026-08-25T12:51:28Z</time>
      </trkpt>
      <trkpt lat="47.49985" lon="-2.82507">
        <ele>34.5</ele>
        <time>2026-08-25T12:51:29Z</time>
      </trkpt>
      <trkpt lat="47.49986" lon="-2.82512">
        <ele>34.5</ele>
        <time>2026-08-25T12:51:30Z</time>
      </trkpt>
      <trkpt lat="47.49987" lon="-2.82517">
        <ele>34.5</ele>
        <time>2026-08-25T12:51:31Z</time>
      </trkpt>
      <trkpt lat="47.49987" lon="-2.82523">
        <ele>34.5</ele>
        <time>2026-08-25T12:51:32Z</time>
      </trkpt>
      <trkpt lat="47.49988" lon="-2.82528">
        <ele>34.6</ele>
        <time>2026-08-25T12:51:33Z</time>
      </trkpt>
      <trkpt lat="47.4999" lon="-2.82534">
        <ele>34.9</ele>
        <time>2026-08-25T12:51:34Z</time>
      </trkpt>
      <trkpt lat="47.49991" lon="-2.82539">
        <ele>35.1</ele>
        <time>2026-08-25T12:51:35Z</time>
      </trkpt>
      <trkpt lat="47.49992" lon="-2.82545">
        <ele>35.3</ele>
        <time>2026-08-25T12:51:36Z</time>
      </trkpt>
      <trkpt lat="47.49994" lon="-2.8255">
        <ele>35.6</ele>
        <time>2026-08-25T12:51:37Z</time>
      </trkpt>
      <trkpt lat="47.49995" lon="-2.82555">
        <ele>35.8</ele>
        <time>2026-08-25T12:51:38Z</time>
      </trkpt>
      <trkpt lat="47.49996" lon="-2.8256">
        <ele>35.9</ele>
        <time>2026-08-25T12:51:39Z</time>
      </trkpt>
      <trkpt lat="47.49997" lon="-2.82566">
        <ele>35.9</ele>
        <time>2026-08-25T12:51:40Z</time>
      </trkpt>
      <trkpt lat="47.49999" lon="-2.82571">
        <ele>36</ele>
        <time>2026-08-25T12:51:41Z</time>
      </trkpt>
      <trkpt lat="47.5" lon="-2.82577">
        <ele>36</ele>
        <time>2026-08-25T12:51:42Z</time>
      </trkpt>
      <trkpt lat="47.50001" lon="-2.82582">
        <ele>36</ele>
        <time>2026-08-25T12:51:43Z</time>
      </trkpt>
      <trkpt lat="47.50003" lon="-2.82587">
        <ele>36</ele>
        <time>2026-08-25T12:51:44Z</time>
      </trkpt>
      <trkpt lat="47.50004" lon="-2.82593">
        <ele>36</ele>
        <time>2026-08-25T12:51:45Z</time>
      </trkpt>
      <trkpt lat="47.50006" lon="-2.82599">
        <ele>36</ele>
        <time>2026-08-25T12:51:46Z</time>
      </trkpt>
      <trkpt lat="47.50007" lon="-2.82604">
        <ele>36</ele>
        <time>2026-08-25T12:51:47Z</time>
      </trkpt>
      <trkpt lat="47.50009" lon="-2.82609">
        <ele>36</ele>
        <time>2026-08-25T12:51:48Z</time>
      </trkpt>
      <trkpt lat="47.5001" lon="-2.82614">
        <ele>36</ele>
        <time>2026-08-25T12:51:49Z</time>
      </trkpt>
      <trkpt lat="47.50011" lon="-2.8262">
        <ele>36</ele>
        <time>2026-08-25T12:51:50Z</time>
      </trkpt>
      <trkpt lat="47.50013" lon="-2.82625">
        <ele>36</ele>
        <time>2026-08-25T12:51:51Z</time>
      </trkpt>
      <trkpt lat="47.50014" lon="-2.8263">
        <ele>36</ele>
        <time>2026-08-25T12:51:52Z</time>
      </trkpt>
      <trkpt lat="47.50016" lon="-2.82635">
        <ele>36</ele>
        <time>2026-08-25T12:51:53Z</time>
      </trkpt>
      <trkpt lat="47.50018" lon="-2.8264">
        <ele>36</ele>
        <time>2026-08-25T12:51:54Z</time>
      </trkpt>
      <trkpt lat="47.5002" lon="-2.82645">
        <ele>36.2</ele>
        <time>2026-08-25T12:51:55Z</time>
      </trkpt>
      <trkpt lat="47.50021" lon="-2.8265">
        <ele>36.3</ele>
        <time>2026-08-25T12:51:56Z</time>
      </trkpt>
      <trkpt lat="47.50023" lon="-2.82655">
        <ele>36.5</ele>
        <time>2026-08-25T12:51:57Z</time>
      </trkpt>
      <trkpt lat="47.50025" lon="-2.8266">
        <ele>36.7</ele>
        <time>2026-08-25T12:51:58Z</time>
      </trkpt>
      <trkpt lat="47.50026" lon="-2.82665">
        <ele>36.9</ele>
        <time>2026-08-25T12:51:59Z</time>
      </trkpt>
      <trkpt lat="47.50028" lon="-2.8267">
        <ele>37</ele>
        <time>2026-08-25T12:52:00Z</time>
      </trkpt>
      <trkpt lat="47.50029" lon="-2.82675">
        <ele>37</ele>
        <time>2026-08-25T12:52:01Z</time>
      </trkpt>
      <trkpt lat="47.50031" lon="-2.82681">
        <ele>37</ele>
        <time>2026-08-25T12:52:02Z</time>
      </trkpt>
      <trkpt lat="47.50032" lon="-2.82686">
        <ele>37</ele>
        <time>2026-08-25T12:52:03Z</time>
      </trkpt>
      <trkpt lat="47.50034" lon="-2.82691">
        <ele>37</ele>
        <time>2026-08-25T12:52:04Z</time>
      </trkpt>
      <trkpt lat="47.50035" lon="-2.82697">
        <ele>37</ele>
        <time>2026-08-25T12:52:05Z</time>
      </trkpt>
      <trkpt lat="47.50037" lon="-2.82702">
        <ele>37</ele>
        <time>2026-08-25T12:52:06Z</time>
      </trkpt>
      <trkpt lat="47.50038" lon="-2.82708">
        <ele>37</ele>
        <time>2026-08-25T12:52:07Z</time>
      </trkpt>
      <trkpt lat="47.50039" lon="-2.82713">
        <ele>37</ele>
        <time>2026-08-25T12:52:08Z</time>
      </trkpt>
      <trkpt lat="47.5004" lon="-2.82719">
        <ele>37</ele>
        <time>2026-08-25T12:52:09Z</time>
      </trkpt>
      <trkpt lat="47.50042" lon="-2.82725">
        <ele>37</ele>
        <time>2026-08-25T12:52:10Z</time>
      </trkpt>
      <trkpt lat="47.50043" lon="-2.8273">
        <ele>36.9</ele>
        <time>2026-08-25T12:52:11Z</time>
      </trkpt>
      <trkpt lat="47.50044" lon="-2.82736">
        <ele>36.8</ele>
        <time>2026-08-25T12:52:12Z</time>
      </trkpt>
      <trkpt lat="47.50045" lon="-2.82741">
        <ele>36.7</ele>
        <time>2026-08-25T12:52:13Z</time>
      </trkpt>
      <trkpt lat="47.50046" lon="-2.82746">
        <ele>36.7</ele>
        <time>2026-08-25T12:52:14Z</time>
      </trkpt>
      <trkpt lat="47.50047" lon="-2.82751">
        <ele>36.7</ele>
        <time>2026-08-25T12:52:15Z</time>
      </trkpt>
      <trkpt lat="47.50049" lon="-2.82756">
        <ele>36.8</ele>
        <time>2026-08-25T12:52:16Z</time>
      </trkpt>
      <trkpt lat="47.5005" lon="-2.82761">
        <ele>36.8</ele>
        <time>2026-08-25T12:52:17Z</time>
      </trkpt>
      <trkpt lat="47.50051" lon="-2.82766">
        <ele>36.8</ele>
        <time>2026-08-25T12:52:18Z</time>
      </trkpt>
      <trkpt lat="47.50052" lon="-2.82771">
        <ele>36.9</ele>
        <time>2026-08-25T12:52:19Z</time>
      </trkpt>
      <trkpt lat="47.50053" lon="-2.82777">
        <ele>36.9</ele>
        <time>2026-08-25T12:52:20Z</time>
      </trkpt>
      <trkpt lat="47.50054" lon="-2.82782">
        <ele>37</ele>
        <time>2026-08-25T12:52:21Z</time>
      </trkpt>
      <trkpt lat="47.50055" lon="-2.82788">
        <ele>37</ele>
        <time>2026-08-25T12:52:22Z</time>
      </trkpt>
      <trkpt lat="47.50056" lon="-2.82794">
        <ele>37</ele>
        <time>2026-08-25T12:52:23Z</time>
      </trkpt>
      <trkpt lat="47.50057" lon="-2.828">
        <ele>37</ele>
        <time>2026-08-25T12:52:24Z</time>
      </trkpt>
      <trkpt lat="47.50058" lon="-2.82805">
        <ele>37</ele>
        <time>2026-08-25T12:52:25Z</time>
      </trkpt>
      <trkpt lat="47.50059" lon="-2.82811">
        <ele>37</ele>
        <time>2026-08-25T12:52:26Z</time>
      </trkpt>
      <trkpt lat="47.5006" lon="-2.82817">
        <ele>37</ele>
        <time>2026-08-25T12:52:27Z</time>
      </trkpt>
      <trkpt lat="47.5006" lon="-2.82823">
        <ele>37</ele>
        <time>2026-08-25T12:52:28Z</time>
      </trkpt>
      <trkpt lat="47.5006" lon="-2.82829">
        <ele>37</ele>
        <time>2026-08-25T12:52:29Z</time>
      </trkpt>
      <trkpt lat="47.5006" lon="-2.82835">
        <ele>37</ele>
        <time>2026-08-25T12:52:30Z</time>
      </trkpt>
      <trkpt lat="47.50061" lon="-2.82841">
        <ele>37</ele>
        <time>2026-08-25T12:52:31Z</time>
      </trkpt>
      <trkpt lat="47.50061" lon="-2.82848">
        <ele>37</ele>
        <time>2026-08-25T12:52:32Z</time>
      </trkpt>
      <trkpt lat="47.50061" lon="-2.82854">
        <ele>37</ele>
        <time>2026-08-25T12:52:33Z</time>
      </trkpt>
      <trkpt lat="47.5006" lon="-2.82861">
        <ele>37</ele>
        <time>2026-08-25T12:52:34Z</time>
      </trkpt>
      <trkpt lat="47.50061" lon="-2.82867">
        <ele>37</ele>
        <time>2026-08-25T12:52:35Z</time>
      </trkpt>
      <trkpt lat="47.50061" lon="-2.82873">
        <ele>37</ele>
        <time>2026-08-25T12:52:36Z</time>
      </trkpt>
      <trkpt lat="47.50061" lon="-2.82879">
        <ele>37</ele>
        <time>2026-08-25T12:52:37Z</time>
      </trkpt>
      <trkpt lat="47.50062" lon="-2.82885">
        <ele>37</ele>
        <time>2026-08-25T12:52:38Z</time>
      </trkpt>
      <trkpt lat="47.50063" lon="-2.82891">
        <ele>37</ele>
        <time>2026-08-25T12:52:39Z</time>
      </trkpt>
      <trkpt lat="47.50063" lon="-2.82898">
        <ele>37</ele>
        <time>2026-08-25T12:52:40Z</time>
      </trkpt>
      <trkpt lat="47.50063" lon="-2.82904">
        <ele>37</ele>
        <time>2026-08-25T12:52:41Z</time>
      </trkpt>
      <trkpt lat="47.50064" lon="-2.8291">
        <ele>37</ele>
        <time>2026-08-25T12:52:42Z</time>
      </trkpt>
      <trkpt lat="47.50064" lon="-2.82916">
        <ele>37</ele>
        <time>2026-08-25T12:52:43Z</time>
      </trkpt>
      <trkpt lat="47.50065" lon="-2.82922">
        <ele>37</ele>
        <time>2026-08-25T12:52:44Z</time>
      </trkpt>
      <trkpt lat="47.50065" lon="-2.82928">
        <ele>37</ele>
        <time>2026-08-25T12:52:45Z</time>
      </trkpt>
      <trkpt lat="47.50065" lon="-2.82934">
        <ele>37</ele>
        <time>2026-08-25T12:52:46Z</time>
      </trkpt>
      <trkpt lat="47.50066" lon="-2.8294">
        <ele>37</ele>
        <time>2026-08-25T12:52:47Z</time>
      </trkpt>
      <trkpt lat="47.50066" lon="-2.82947">
        <ele>37</ele>
        <time>2026-08-25T12:52:48Z</time>
      </trkpt>
      <trkpt lat="47.50066" lon="-2.82953">
        <ele>37</ele>
        <time>2026-08-25T12:52:49Z</time>
      </trkpt>
      <trkpt lat="47.50066" lon="-2.82959">
        <ele>37</ele>
        <time>2026-08-25T12:52:50Z</time>
      </trkpt>
      <trkpt lat="47.50067" lon="-2.82965">
        <ele>37</ele>
        <time>2026-08-25T12:52:51Z</time>
      </trkpt>
      <trkpt lat="47.50067" lon="-2.82971">
        <ele>37</ele>
        <time>2026-08-25T12:52:52Z</time>
      </trkpt>
      <trkpt lat="47.50066" lon="-2.82978">
        <ele>36.8</ele>
        <time>2026-08-25T12:52:53Z</time>
      </trkpt>
      <trkpt lat="47.50066" lon="-2.82984">
        <ele>36.6</ele>
        <time>2026-08-25T12:52:54Z</time>
      </trkpt>
      <trkpt lat="47.50065" lon="-2.8299">
        <ele>36.4</ele>
        <time>2026-08-25T12:52:55Z</time>
      </trkpt>
      <trkpt lat="47.50065" lon="-2.82997">
        <ele>36.1</ele>
        <time>2026-08-25T12:52:56Z</time>
      </trkpt>
      <trkpt lat="47.50064" lon="-2.83004">
        <ele>36</ele>
        <time>2026-08-25T12:52:57Z</time>
      </trkpt>
      <trkpt lat="47.50064" lon="-2.83011">
        <ele>36</ele>
        <time>2026-08-25T12:52:58Z</time>
      </trkpt>
      <trkpt lat="47.50063" lon="-2.83017">
        <ele>36</ele>
        <time>2026-08-25T12:52:59Z</time>
      </trkpt>
      <trkpt lat="47.50062" lon="-2.83024">
        <ele>36</ele>
        <time>2026-08-25T12:53:00Z</time>
      </trkpt>
      <trkpt lat="47.50061" lon="-2.83031">
        <ele>36</ele>
        <time>2026-08-25T12:53:01Z</time>
      </trkpt>
      <trkpt lat="47.5006" lon="-2.83038">
        <ele>35.9</ele>
        <time>2026-08-25T12:53:02Z</time>
      </trkpt>
      <trkpt lat="47.50059" lon="-2.83045">
        <ele>35.9</ele>
        <time>2026-08-25T12:53:03Z</time>
      </trkpt>
      <trkpt lat="47.50058" lon="-2.83052">
        <ele>35.9</ele>
        <time>2026-08-25T12:53:04Z</time>
      </trkpt>
      <trkpt lat="47.50058" lon="-2.83059">
        <ele>35.8</ele>
        <time>2026-08-25T12:53:05Z</time>
      </trkpt>
      <trkpt lat="47.50056" lon="-2.83066">
        <ele>35.6</ele>
        <time>2026-08-25T12:53:06Z</time>
      </trkpt>
      <trkpt lat="47.50055" lon="-2.83073">
        <ele>35.4</ele>
        <time>2026-08-25T12:53:07Z</time>
      </trkpt>
      <trkpt lat="47.50054" lon="-2.8308">
        <ele>35.1</ele>
        <time>2026-08-25T12:53:08Z</time>
      </trkpt>
      <trkpt lat="47.50053" lon="-2.83088">
        <ele>35</ele>
        <time>2026-08-25T12:53:09Z</time>
      </trkpt>
      <trkpt lat="47.50052" lon="-2.83095">
        <ele>35</ele>
        <time>2026-08-25T12:53:10Z</time>
      </trkpt>
      <trkpt lat="47.50051" lon="-2.83102">
        <ele>35</ele>
        <time>2026-08-25T12:53:11Z</time>
      </trkpt>
      <trkpt lat="47.50049" lon="-2.83109">
        <ele>35</ele>
        <time>2026-08-25T12:53:12Z</time>
      </trkpt>
      <trkpt lat="47.50048" lon="-2.83117">
        <ele>34.8</ele>
        <time>2026-08-25T12:53:13Z</time>
      </trkpt>
      <trkpt lat="47.50047" lon="-2.83124">
        <ele>34.7</ele>
        <time>2026-08-25T12:53:14Z</time>
      </trkpt>
      <trkpt lat="47.50046" lon="-2.83131">
        <ele>34.5</ele>
        <time>2026-08-25T12:53:15Z</time>
      </trkpt>
      <trkpt lat="47.50044" lon="-2.83138">
        <ele>34.4</ele>
        <time>2026-08-25T12:53:16Z</time>
      </trkpt>
      <trkpt lat="47.50042" lon="-2.83145">
        <ele>34.4</ele>
        <time>2026-08-25T12:53:17Z</time>
      </trkpt>
      <trkpt lat="47.5004" lon="-2.83151">
        <ele>34.3</ele>
        <time>2026-08-25T12:53:18Z</time>
      </trkpt>
      <trkpt lat="47.50038" lon="-2.83156">
        <ele>34.2</ele>
        <time>2026-08-25T12:53:19Z</time>
      </trkpt>
      <trkpt lat="47.50036" lon="-2.83162">
        <ele>34.1</ele>
        <time>2026-08-25T12:53:20Z</time>
      </trkpt>
      <trkpt lat="47.50034" lon="-2.83167">
        <ele>34</ele>
        <time>2026-08-25T12:53:21Z</time>
      </trkpt>
      <trkpt lat="47.50032" lon="-2.83173">
        <ele>33.8</ele>
        <time>2026-08-25T12:53:22Z</time>
      </trkpt>
      <trkpt lat="47.50029" lon="-2.83179">
        <ele>33.6</ele>
        <time>2026-08-25T12:53:23Z</time>
      </trkpt>
      <trkpt lat="47.50028" lon="-2.83186">
        <ele>33.3</ele>
        <time>2026-08-25T12:53:24Z</time>
      </trkpt>
      <trkpt lat="47.50027" lon="-2.83192">
        <ele>33.1</ele>
        <time>2026-08-25T12:53:25Z</time>
      </trkpt>
      <trkpt lat="47.50026" lon="-2.83199">
        <ele>33</ele>
        <time>2026-08-25T12:53:26Z</time>
      </trkpt>
      <trkpt lat="47.50024" lon="-2.83206">
        <ele>33</ele>
        <time>2026-08-25T12:53:27Z</time>
      </trkpt>
      <trkpt lat="47.50023" lon="-2.83213">
        <ele>33</ele>
        <time>2026-08-25T12:53:28Z</time>
      </trkpt>
      <trkpt lat="47.50022" lon="-2.83221">
        <ele>33</ele>
        <time>2026-08-25T12:53:29Z</time>
      </trkpt>
      <trkpt lat="47.50021" lon="-2.83229">
        <ele>32.8</ele>
        <time>2026-08-25T12:53:30Z</time>
      </trkpt>
      <trkpt lat="47.5002" lon="-2.83236">
        <ele>32.5</ele>
        <time>2026-08-25T12:53:31Z</time>
      </trkpt>
      <trkpt lat="47.50019" lon="-2.83244">
        <ele>32.2</ele>
        <time>2026-08-25T12:53:32Z</time>
      </trkpt>
      <trkpt lat="47.50018" lon="-2.83252">
        <ele>32</ele>
        <time>2026-08-25T12:53:33Z</time>
      </trkpt>
      <trkpt lat="47.50017" lon="-2.83261">
        <ele>31.8</ele>
        <time>2026-08-25T12:53:34Z</time>
      </trkpt>
      <trkpt lat="47.50016" lon="-2.83269">
        <ele>31.6</ele>
        <time>2026-08-25T12:53:35Z</time>
      </trkpt>
      <trkpt lat="47.50014" lon="-2.83277">
        <ele>31.5</ele>
        <time>2026-08-25T12:53:36Z</time>
      </trkpt>
      <trkpt lat="47.50013" lon="-2.83286">
        <ele>31.4</ele>
        <time>2026-08-25T12:53:37Z</time>
      </trkpt>
      <trkpt lat="47.50012" lon="-2.83294">
        <ele>31.2</ele>
        <time>2026-08-25T12:53:38Z</time>
      </trkpt>
      <trkpt lat="47.5001" lon="-2.83302">
        <ele>31.1</ele>
        <time>2026-08-25T12:53:39Z</time>
      </trkpt>
      <trkpt lat="47.50008" lon="-2.8331">
        <ele>30.7</ele>
        <time>2026-08-25T12:53:40Z</time>
      </trkpt>
      <trkpt lat="47.50006" lon="-2.83316">
        <ele>30.2</ele>
        <time>2026-08-25T12:53:41Z</time>
      </trkpt>
      <trkpt lat="47.50005" lon="-2.83323">
        <ele>29.7</ele>
        <time>2026-08-25T12:53:42Z</time>
      </trkpt>
      <trkpt lat="47.50003" lon="-2.8333">
        <ele>29.2</ele>
        <time>2026-08-25T12:53:43Z</time>
      </trkpt>
      <trkpt lat="47.50001" lon="-2.83336">
        <ele>28.9</ele>
        <time>2026-08-25T12:53:44Z</time>
      </trkpt>
      <trkpt lat="47.49999" lon="-2.83342">
        <ele>28.7</ele>
        <time>2026-08-25T12:53:45Z</time>
      </trkpt>
      <trkpt lat="47.49997" lon="-2.83347">
        <ele>28.4</ele>
        <time>2026-08-25T12:53:46Z</time>
      </trkpt>
      <trkpt lat="47.49996" lon="-2.83351">
        <ele>28.2</ele>
        <time>2026-08-25T12:53:47Z</time>
      </trkpt>
      <trkpt lat="47.49995" lon="-2.83354">
        <ele>28.1</ele>
        <time>2026-08-25T12:53:48Z</time>
      </trkpt>
      <trkpt lat="47.49995" lon="-2.83356">
        <ele>28</ele>
        <time>2026-08-25T12:53:49Z</time>
      </trkpt>
      <trkpt lat="47.49995" lon="-2.83358">
        <ele>27.9</ele>
        <time>2026-08-25T12:53:50Z</time>
      </trkpt>
      <trkpt lat="47.49993" lon="-2.8336">
        <ele>27.8</ele>
        <time>2026-08-25T12:53:51Z</time>
      </trkpt>
      <trkpt lat="47.49992" lon="-2.83363">
        <ele>27.7</ele>
        <time>2026-08-25T12:53:52Z</time>
      </trkpt>
      <trkpt lat="47.4999" lon="-2.83366">
        <ele>27.5</ele>
        <time>2026-08-25T12:53:53Z</time>
      </trkpt>
      <trkpt lat="47.49988" lon="-2.83368">
        <ele>27.4</ele>
        <time>2026-08-25T12:53:54Z</time>
      </trkpt>
      <trkpt lat="47.49985" lon="-2.83371">
        <ele>27.3</ele>
        <time>2026-08-25T12:53:55Z</time>
      </trkpt>
      <trkpt lat="47.49983" lon="-2.83375">
        <ele>27.2</ele>
        <time>2026-08-25T12:53:56Z</time>
      </trkpt>
      <trkpt lat="47.49982" lon="-2.8338">
        <ele>27.1</ele>
        <time>2026-08-25T12:53:57Z</time>
      </trkpt>
      <trkpt lat="47.49981" lon="-2.83385">
        <ele>27</ele>
        <time>2026-08-25T12:53:58Z</time>
      </trkpt>
      <trkpt lat="47.4998" lon="-2.83391">
        <ele>27</ele>
        <time>2026-08-25T12:53:59Z</time>
      </trkpt>
      <trkpt lat="47.49978" lon="-2.83397">
        <ele>27</ele>
        <time>2026-08-25T12:54:00Z</time>
      </trkpt>
      <trkpt lat="47.49977" lon="-2.83403">
        <ele>27</ele>
        <time>2026-08-25T12:54:01Z</time>
      </trkpt>
      <trkpt lat="47.49976" lon="-2.83409">
        <ele>27</ele>
        <time>2026-08-25T12:54:02Z</time>
      </trkpt>
      <trkpt lat="47.49975" lon="-2.83415">
        <ele>27</ele>
        <time>2026-08-25T12:54:03Z</time>
      </trkpt>
      <trkpt lat="47.49974" lon="-2.83421">
        <ele>27</ele>
        <time>2026-08-25T12:54:04Z</time>
      </trkpt>
      <trkpt lat="47.49973" lon="-2.83428">
        <ele>27</ele>
        <time>2026-08-25T12:54:05Z</time>
      </trkpt>
      <trkpt lat="47.49972" lon="-2.83434">
        <ele>27</ele>
        <time>2026-08-25T12:54:06Z</time>
      </trkpt>
      <trkpt lat="47.49971" lon="-2.83441">
        <ele>27</ele>
        <time>2026-08-25T12:54:07Z</time>
      </trkpt>
      <trkpt lat="47.4997" lon="-2.83447">
        <ele>27</ele>
        <time>2026-08-25T12:54:08Z</time>
      </trkpt>
      <trkpt lat="47.49969" lon="-2.83454">
        <ele>27</ele>
        <time>2026-08-25T12:54:09Z</time>
      </trkpt>
      <trkpt lat="47.49968" lon="-2.8346">
        <ele>27</ele>
        <time>2026-08-25T12:54:10Z</time>
      </trkpt>
      <trkpt lat="47.49966" lon="-2.83467">
        <ele>27</ele>
        <time>2026-08-25T12:54:11Z</time>
      </trkpt>
      <trkpt lat="47.49965" lon="-2.83473">
        <ele>27</ele>
        <time>2026-08-25T12:54:12Z</time>
      </trkpt>
      <trkpt lat="47.49964" lon="-2.83479">
        <ele>27.3</ele>
        <time>2026-08-25T12:54:13Z</time>
      </trkpt>
      <trkpt lat="47.49963" lon="-2.83485">
        <ele>27.6</ele>
        <time>2026-08-25T12:54:14Z</time>
      </trkpt>
      <trkpt lat="47.49963" lon="-2.83492">
        <ele>27.9</ele>
        <time>2026-08-25T12:54:15Z</time>
      </trkpt>
      <trkpt lat="47.49962" lon="-2.83498">
        <ele>28.3</ele>
        <time>2026-08-25T12:54:16Z</time>
      </trkpt>
      <trkpt lat="47.49962" lon="-2.83504">
        <ele>28.5</ele>
        <time>2026-08-25T12:54:17Z</time>
      </trkpt>
      <trkpt lat="47.49961" lon="-2.8351">
        <ele>28.6</ele>
        <time>2026-08-25T12:54:18Z</time>
      </trkpt>
      <trkpt lat="47.49961" lon="-2.83516">
        <ele>28.7</ele>
        <time>2026-08-25T12:54:19Z</time>
      </trkpt>
      <trkpt lat="47.49961" lon="-2.83522">
        <ele>28.9</ele>
        <time>2026-08-25T12:54:20Z</time>
      </trkpt>
      <trkpt lat="47.49962" lon="-2.83528">
        <ele>29</ele>
        <time>2026-08-25T12:54:21Z</time>
      </trkpt>
      <trkpt lat="47.49962" lon="-2.83534">
        <ele>29.2</ele>
        <time>2026-08-25T12:54:22Z</time>
      </trkpt>
      <trkpt lat="47.49963" lon="-2.83539">
        <ele>29.4</ele>
        <time>2026-08-25T12:54:23Z</time>
      </trkpt>
      <trkpt lat="47.49964" lon="-2.83544">
        <ele>29.6</ele>
        <time>2026-08-25T12:54:24Z</time>
      </trkpt>
      <trkpt lat="47.49966" lon="-2.83548">
        <ele>29.7</ele>
        <time>2026-08-25T12:54:25Z</time>
      </trkpt>
      <trkpt lat="47.49969" lon="-2.83552">
        <ele>29.9</ele>
        <time>2026-08-25T12:54:26Z</time>
      </trkpt>
      <trkpt lat="47.49972" lon="-2.83555">
        <ele>30</ele>
        <time>2026-08-25T12:54:27Z</time>
      </trkpt>
      <trkpt lat="47.49975" lon="-2.83559">
        <ele>30.1</ele>
        <time>2026-08-25T12:54:28Z</time>
      </trkpt>
      <trkpt lat="47.49978" lon="-2.83562">
        <ele>30.2</ele>
        <time>2026-08-25T12:54:29Z</time>
      </trkpt>
      <trkpt lat="47.49981" lon="-2.83564">
        <ele>30.3</ele>
        <time>2026-08-25T12:54:30Z</time>
      </trkpt>
      <trkpt lat="47.49983" lon="-2.83567">
        <ele>30.4</ele>
        <time>2026-08-25T12:54:31Z</time>
      </trkpt>
      <trkpt lat="47.49986" lon="-2.8357">
        <ele>30.5</ele>
        <time>2026-08-25T12:54:32Z</time>
      </trkpt>
      <trkpt lat="47.49989" lon="-2.83574">
        <ele>30.7</ele>
        <time>2026-08-25T12:54:33Z</time>
      </trkpt>
      <trkpt lat="47.49991" lon="-2.83578">
        <ele>30.8</ele>
        <time>2026-08-25T12:54:34Z</time>
      </trkpt>
      <trkpt lat="47.49992" lon="-2.83583">
        <ele>31</ele>
        <time>2026-08-25T12:54:35Z</time>
      </trkpt>
      <trkpt lat="47.49994" lon="-2.83588">
        <ele>31</ele>
        <time>2026-08-25T12:54:36Z</time>
      </trkpt>
      <trkpt lat="47.49995" lon="-2.83593">
        <ele>31.1</ele>
        <time>2026-08-25T12:54:37Z</time>
      </trkpt>
      <trkpt lat="47.49995" lon="-2.83598">
        <ele>31.1</ele>
        <time>2026-08-25T12:54:38Z</time>
      </trkpt>
      <trkpt lat="47.49996" lon="-2.83603">
        <ele>31.1</ele>
        <time>2026-08-25T12:54:39Z</time>
      </trkpt>
      <trkpt lat="47.49997" lon="-2.83608">
        <ele>31.1</ele>
        <time>2026-08-25T12:54:40Z</time>
      </trkpt>
      <trkpt lat="47.49997" lon="-2.83613">
        <ele>31.2</ele>
        <time>2026-08-25T12:54:41Z</time>
      </trkpt>
      <trkpt lat="47.49998" lon="-2.83618">
        <ele>31.3</ele>
        <time>2026-08-25T12:54:42Z</time>
      </trkpt>
      <trkpt lat="47.49999" lon="-2.83624">
        <ele>31.5</ele>
        <time>2026-08-25T12:54:43Z</time>
      </trkpt>
      <trkpt lat="47.5" lon="-2.83628">
        <ele>31.6</ele>
        <time>2026-08-25T12:54:44Z</time>
      </trkpt>
      <trkpt lat="47.50001" lon="-2.83632">
        <ele>31.7</ele>
        <time>2026-08-25T12:54:45Z</time>
      </trkpt>
      <trkpt lat="47.50004" lon="-2.83635">
        <ele>31.8</ele>
        <time>2026-08-25T12:54:46Z</time>
      </trkpt>
      <trkpt lat="47.50006" lon="-2.83637">
        <ele>31.9</ele>
        <time>2026-08-25T12:54:47Z</time>
      </trkpt>
      <trkpt lat="47.50009" lon="-2.83637">
        <ele>31.9</ele>
        <time>2026-08-25T12:54:48Z</time>
      </trkpt>
      <trkpt lat="47.50013" lon="-2.83636">
        <ele>31.8</ele>
        <time>2026-08-25T12:54:49Z</time>
      </trkpt>
      <trkpt lat="47.50016" lon="-2.83636">
        <ele>31.8</ele>
        <time>2026-08-25T12:54:50Z</time>
      </trkpt>
      <trkpt lat="47.5002" lon="-2.83637">
        <ele>31.9</ele>
        <time>2026-08-25T12:54:51Z</time>
      </trkpt>
      <trkpt lat="47.50024" lon="-2.8364">
        <ele>32</ele>
        <time>2026-08-25T12:54:52Z</time>
      </trkpt>
      <trkpt lat="47.50027" lon="-2.83643">
        <ele>32.1</ele>
        <time>2026-08-25T12:54:53Z</time>
      </trkpt>
      <trkpt lat="47.50029" lon="-2.83647">
        <ele>32.3</ele>
        <time>2026-08-25T12:54:54Z</time>
      </trkpt>
      <trkpt lat="47.5003" lon="-2.83651">
        <ele>32.4</ele>
        <time>2026-08-25T12:54:55Z</time>
      </trkpt>
      <trkpt lat="47.50032" lon="-2.83655">
        <ele>32.6</ele>
        <time>2026-08-25T12:54:56Z</time>
      </trkpt>
      <trkpt lat="47.50033" lon="-2.8366">
        <ele>32.8</ele>
        <time>2026-08-25T12:54:57Z</time>
      </trkpt>
      <trkpt lat="47.50035" lon="-2.83664">
        <ele>32.9</ele>
        <time>2026-08-25T12:54:58Z</time>
      </trkpt>
      <trkpt lat="47.50036" lon="-2.83668">
        <ele>33</ele>
        <time>2026-08-25T12:54:59Z</time>
      </trkpt>
      <trkpt lat="47.50037" lon="-2.83673">
        <ele>33.2</ele>
        <time>2026-08-25T12:55:00Z</time>
      </trkpt>
      <trkpt lat="47.50039" lon="-2.83677">
        <ele>33.4</ele>
        <time>2026-08-25T12:55:01Z</time>
      </trkpt>
      <trkpt lat="47.50041" lon="-2.83681">
        <ele>33.5</ele>
        <time>2026-08-25T12:55:02Z</time>
      </trkpt>
      <trkpt lat="47.50043" lon="-2.83685">
        <ele>33.7</ele>
        <time>2026-08-25T12:55:03Z</time>
      </trkpt>
      <trkpt lat="47.50045" lon="-2.8369">
        <ele>33.8</ele>
        <time>2026-08-25T12:55:04Z</time>
      </trkpt>
      <trkpt lat="47.50046" lon="-2.83694">
        <ele>34</ele>
        <time>2026-08-25T12:55:05Z</time>
      </trkpt>
      <trkpt lat="47.50048" lon="-2.83698">
        <ele>34</ele>
        <time>2026-08-25T12:55:06Z</time>
      </trkpt>
      <trkpt lat="47.5005" lon="-2.83702">
        <ele>34</ele>
        <time>2026-08-25T12:55:07Z</time>
      </trkpt>
      <trkpt lat="47.50052" lon="-2.83707">
        <ele>34</ele>
        <time>2026-08-25T12:55:08Z</time>
      </trkpt>
      <trkpt lat="47.50053" lon="-2.83711">
        <ele>34</ele>
        <time>2026-08-25T12:55:09Z</time>
      </trkpt>
      <trkpt lat="47.50055" lon="-2.83715">
        <ele>34</ele>
        <time>2026-08-25T12:55:10Z</time>
      </trkpt>
      <trkpt lat="47.50057" lon="-2.8372">
        <ele>34</ele>
        <time>2026-08-25T12:55:11Z</time>
      </trkpt>
      <trkpt lat="47.50058" lon="-2.83725">
        <ele>34</ele>
        <time>2026-08-25T12:55:12Z</time>
      </trkpt>
      <trkpt lat="47.5006" lon="-2.83729">
        <ele>34</ele>
        <time>2026-08-25T12:55:13Z</time>
      </trkpt>
      <trkpt lat="47.50062" lon="-2.83734">
        <ele>34</ele>
        <time>2026-08-25T12:55:14Z</time>
      </trkpt>
      <trkpt lat="47.50064" lon="-2.83738">
        <ele>34</ele>
        <time>2026-08-25T12:55:15Z</time>
      </trkpt>
      <trkpt lat="47.50065" lon="-2.83743">
        <ele>34</ele>
        <time>2026-08-25T12:55:16Z</time>
      </trkpt>
      <trkpt lat="47.50067" lon="-2.83747">
        <ele>34</ele>
        <time>2026-08-25T12:55:17Z</time>
      </trkpt>
      <trkpt lat="47.50069" lon="-2.83752">
        <ele>34</ele>
        <time>2026-08-25T12:55:18Z</time>
      </trkpt>
      <trkpt lat="47.5007" lon="-2.83756">
        <ele>34.1</ele>
        <time>2026-08-25T12:55:19Z</time>
      </trkpt>
      <trkpt lat="47.50072" lon="-2.83761">
        <ele>34.2</ele>
        <time>2026-08-25T12:55:20Z</time>
      </trkpt>
      <trkpt lat="47.50074" lon="-2.83765">
        <ele>34.2</ele>
        <time>2026-08-25T12:55:21Z</time>
      </trkpt>
      <trkpt lat="47.50075" lon="-2.8377">
        <ele>34.2</ele>
        <time>2026-08-25T12:55:22Z</time>
      </trkpt>
      <trkpt lat="47.50077" lon="-2.83775">
        <ele>34.2</ele>
        <time>2026-08-25T12:55:23Z</time>
      </trkpt>
      <trkpt lat="47.50078" lon="-2.83779">
        <ele>34.2</ele>
        <time>2026-08-25T12:55:24Z</time>
      </trkpt>
      <trkpt lat="47.5008" lon="-2.83784">
        <ele>34.3</ele>
        <time>2026-08-25T12:55:25Z</time>
      </trkpt>
      <trkpt lat="47.50081" lon="-2.83789">
        <ele>34.5</ele>
        <time>2026-08-25T12:55:26Z</time>
      </trkpt>
      <trkpt lat="47.50082" lon="-2.83794">
        <ele>34.6</ele>
        <time>2026-08-25T12:55:27Z</time>
      </trkpt>
      <trkpt lat="47.50084" lon="-2.83799">
        <ele>34.7</ele>
        <time>2026-08-25T12:55:28Z</time>
      </trkpt>
      <trkpt lat="47.50085" lon="-2.83803">
        <ele>34.9</ele>
        <time>2026-08-25T12:55:29Z</time>
      </trkpt>
      <trkpt lat="47.50087" lon="-2.83808">
        <ele>34.9</ele>
        <time>2026-08-25T12:55:30Z</time>
      </trkpt>
      <trkpt lat="47.50088" lon="-2.83813">
        <ele>34.8</ele>
        <time>2026-08-25T12:55:31Z</time>
      </trkpt>
      <trkpt lat="47.50089" lon="-2.83818">
        <ele>34.8</ele>
        <time>2026-08-25T12:55:32Z</time>
      </trkpt>
      <trkpt lat="47.5009" lon="-2.83823">
        <ele>34.8</ele>
        <time>2026-08-25T12:55:33Z</time>
      </trkpt>
      <trkpt lat="47.50091" lon="-2.83828">
        <ele>34.7</ele>
        <time>2026-08-25T12:55:34Z</time>
      </trkpt>
      <trkpt lat="47.50092" lon="-2.83833">
        <ele>34.7</ele>
        <time>2026-08-25T12:55:35Z</time>
      </trkpt>
      <trkpt lat="47.50093" lon="-2.83838">
        <ele>34.8</ele>
        <time>2026-08-25T12:55:36Z</time>
      </trkpt>
      <trkpt lat="47.50094" lon="-2.83842">
        <ele>34.9</ele>
        <time>2026-08-25T12:55:37Z</time>
      </trkpt>
      <trkpt lat="47.50095" lon="-2.83847">
        <ele>35.1</ele>
        <time>2026-08-25T12:55:38Z</time>
      </trkpt>
      <trkpt lat="47.50096" lon="-2.83852">
        <ele>35.2</ele>
        <time>2026-08-25T12:55:39Z</time>
      </trkpt>
      <trkpt lat="47.50097" lon="-2.83857">
        <ele>35.4</ele>
        <time>2026-08-25T12:55:40Z</time>
      </trkpt>
      <trkpt lat="47.50099" lon="-2.83862">
        <ele>35.4</ele>
        <time>2026-08-25T12:55:41Z</time>
      </trkpt>
      <trkpt lat="47.50101" lon="-2.83866">
        <ele>35.4</ele>
        <time>2026-08-25T12:55:42Z</time>
      </trkpt>
      <trkpt lat="47.50103" lon="-2.83871">
        <ele>35.3</ele>
        <time>2026-08-25T12:55:43Z</time>
      </trkpt>
      <trkpt lat="47.50105" lon="-2.83875">
        <ele>35.2</ele>
        <time>2026-08-25T12:55:44Z</time>
      </trkpt>
      <trkpt lat="47.50107" lon="-2.8388">
        <ele>35.1</ele>
        <time>2026-08-25T12:55:45Z</time>
      </trkpt>
      <trkpt lat="47.5011" lon="-2.83884">
        <ele>35</ele>
        <time>2026-08-25T12:55:46Z</time>
      </trkpt>
      <trkpt lat="47.50112" lon="-2.83888">
        <ele>35</ele>
        <time>2026-08-25T12:55:47Z</time>
      </trkpt>
      <trkpt lat="47.50115" lon="-2.83892">
        <ele>35.1</ele>
        <time>2026-08-25T12:55:48Z</time>
      </trkpt>
      <trkpt lat="47.50118" lon="-2.83896">
        <ele>35.2</ele>
        <time>2026-08-25T12:55:49Z</time>
      </trkpt>
      <trkpt lat="47.5012" lon="-2.839">
        <ele>35.3</ele>
        <time>2026-08-25T12:55:50Z</time>
      </trkpt>
      <trkpt lat="47.50123" lon="-2.83903">
        <ele>35.3</ele>
        <time>2026-08-25T12:55:51Z</time>
      </trkpt>
      <trkpt lat="47.50126" lon="-2.83907">
        <ele>35.3</ele>
        <time>2026-08-25T12:55:52Z</time>
      </trkpt>
      <trkpt lat="47.50128" lon="-2.83911">
        <ele>35.3</ele>
        <time>2026-08-25T12:55:53Z</time>
      </trkpt>
      <trkpt lat="47.50131" lon="-2.83915">
        <ele>35.3</ele>
        <time>2026-08-25T12:55:54Z</time>
      </trkpt>
      <trkpt lat="47.50134" lon="-2.83919">
        <ele>35.2</ele>
        <time>2026-08-25T12:55:55Z</time>
      </trkpt>
      <trkpt lat="47.50136" lon="-2.83922">
        <ele>35.3</ele>
        <time>2026-08-25T12:55:56Z</time>
      </trkpt>
      <trkpt lat="47.50139" lon="-2.83926">
        <ele>35.3</ele>
        <time>2026-08-25T12:55:57Z</time>
      </trkpt>
      <trkpt lat="47.50141" lon="-2.8393">
        <ele>35.5</ele>
        <time>2026-08-25T12:55:58Z</time>
      </trkpt>
      <trkpt lat="47.50143" lon="-2.83933">
        <ele>35.6</ele>
        <time>2026-08-25T12:55:59Z</time>
      </trkpt>
      <trkpt lat="47.50145" lon="-2.83937">
        <ele>35.7</ele>
        <time>2026-08-25T12:56:00Z</time>
      </trkpt>
      <trkpt lat="47.50148" lon="-2.8394">
        <ele>35.8</ele>
        <time>2026-08-25T12:56:01Z</time>
      </trkpt>
      <trkpt lat="47.50149" lon="-2.83943">
        <ele>35.9</ele>
        <time>2026-08-25T12:56:02Z</time>
      </trkpt>
      <trkpt lat="47.50151" lon="-2.83946">
        <ele>36</ele>
        <time>2026-08-25T12:56:03Z</time>
      </trkpt>
      <trkpt lat="47.50152" lon="-2.8395">
        <ele>36</ele>
        <time>2026-08-25T12:56:04Z</time>
      </trkpt>
      <trkpt lat="47.50151" lon="-2.83954">
        <ele>36</ele>
        <time>2026-08-25T12:56:05Z</time>
      </trkpt>
      <trkpt lat="47.5015" lon="-2.83958">
        <ele>36</ele>
        <time>2026-08-25T12:56:06Z</time>
      </trkpt>
      <trkpt lat="47.50148" lon="-2.83961">
        <ele>36</ele>
        <time>2026-08-25T12:56:07Z</time>
      </trkpt>
      <trkpt lat="47.50145" lon="-2.83964">
        <ele>36</ele>
        <time>2026-08-25T12:56:08Z</time>
      </trkpt>
      <trkpt lat="47.50142" lon="-2.83966">
        <ele>36</ele>
        <time>2026-08-25T12:56:09Z</time>
      </trkpt>
      <trkpt lat="47.50139" lon="-2.83969">
        <ele>36</ele>
        <time>2026-08-25T12:56:10Z</time>
      </trkpt>
      <trkpt lat="47.50136" lon="-2.83971">
        <ele>36</ele>
        <time>2026-08-25T12:56:11Z</time>
      </trkpt>
      <trkpt lat="47.50134" lon="-2.83975">
        <ele>36</ele>
        <time>2026-08-25T12:56:12Z</time>
      </trkpt>
      <trkpt lat="47.50133" lon="-2.83979">
        <ele>36</ele>
        <time>2026-08-25T12:56:13Z</time>
      </trkpt>
      <trkpt lat="47.50134" lon="-2.83984">
        <ele>36</ele>
        <time>2026-08-25T12:56:14Z</time>
      </trkpt>
      <trkpt lat="47.50136" lon="-2.83988">
        <ele>36</ele>
        <time>2026-08-25T12:56:15Z</time>
      </trkpt>
      <trkpt lat="47.50138" lon="-2.83992">
        <ele>36</ele>
        <time>2026-08-25T12:56:16Z</time>
      </trkpt>
      <trkpt lat="47.50141" lon="-2.83995">
        <ele>36</ele>
        <time>2026-08-25T12:56:17Z</time>
      </trkpt>
      <trkpt lat="47.50144" lon="-2.83999">
        <ele>36</ele>
        <time>2026-08-25T12:56:18Z</time>
      </trkpt>
      <trkpt lat="47.50147" lon="-2.84002">
        <ele>36</ele>
        <time>2026-08-25T12:56:19Z</time>
      </trkpt>
      <trkpt lat="47.5015" lon="-2.84006">
        <ele>36</ele>
        <time>2026-08-25T12:56:20Z</time>
      </trkpt>
      <trkpt lat="47.50152" lon="-2.8401">
        <ele>36</ele>
        <time>2026-08-25T12:56:21Z</time>
      </trkpt>
      <trkpt lat="47.50155" lon="-2.84014">
        <ele>36</ele>
        <time>2026-08-25T12:56:22Z</time>
      </trkpt>
      <trkpt lat="47.50158" lon="-2.84019">
        <ele>36</ele>
        <time>2026-08-25T12:56:23Z</time>
      </trkpt>
      <trkpt lat="47.5016" lon="-2.84024">
        <ele>36</ele>
        <time>2026-08-25T12:56:24Z</time>
      </trkpt>
      <trkpt lat="47.50162" lon="-2.84029">
        <ele>36</ele>
        <time>2026-08-25T12:56:25Z</time>
      </trkpt>
      <trkpt lat="47.50164" lon="-2.84034">
        <ele>36</ele>
        <time>2026-08-25T12:56:26Z</time>
      </trkpt>
      <trkpt lat="47.50166" lon="-2.8404">
        <ele>36</ele>
        <time>2026-08-25T12:56:27Z</time>
      </trkpt>
      <trkpt lat="47.50167" lon="-2.84045">
        <ele>36</ele>
        <time>2026-08-25T12:56:28Z</time>
      </trkpt>
      <trkpt lat="47.50167" lon="-2.84051">
        <ele>36</ele>
        <time>2026-08-25T12:56:29Z</time>
      </trkpt>
      <trkpt lat="47.50167" lon="-2.84057">
        <ele>36</ele>
        <time>2026-08-25T12:56:30Z</time>
      </trkpt>
      <trkpt lat="47.50168" lon="-2.84063">
        <ele>36</ele>
        <time>2026-08-25T12:56:31Z</time>
      </trkpt>
      <trkpt lat="47.50168" lon="-2.84069">
        <ele>36</ele>
        <time>2026-08-25T12:56:32Z</time>
      </trkpt>
      <trkpt lat="47.50168" lon="-2.84075">
        <ele>36</ele>
        <time>2026-08-25T12:56:33Z</time>
      </trkpt>
      <trkpt lat="47.50167" lon="-2.84081">
        <ele>36</ele>
        <time>2026-08-25T12:56:34Z</time>
      </trkpt>
      <trkpt lat="47.50168" lon="-2.84087">
        <ele>36</ele>
        <time>2026-08-25T12:56:35Z</time>
      </trkpt>
      <trkpt lat="47.50169" lon="-2.84093">
        <ele>36</ele>
        <time>2026-08-25T12:56:36Z</time>
      </trkpt>
      <trkpt lat="47.50169" lon="-2.84098">
        <ele>36</ele>
        <time>2026-08-25T12:56:37Z</time>
      </trkpt>
      <trkpt lat="47.5017" lon="-2.84104">
        <ele>36</ele>
        <time>2026-08-25T12:56:38Z</time>
      </trkpt>
      <trkpt lat="47.50171" lon="-2.84111">
        <ele>36</ele>
        <time>2026-08-25T12:56:39Z</time>
      </trkpt>
      <trkpt lat="47.50172" lon="-2.84116">
        <ele>36</ele>
        <time>2026-08-25T12:56:40Z</time>
      </trkpt>
      <trkpt lat="47.50173" lon="-2.84122">
        <ele>36.1</ele>
        <time>2026-08-25T12:56:41Z</time>
      </trkpt>
      <trkpt lat="47.50174" lon="-2.84128">
        <ele>36.2</ele>
        <time>2026-08-25T12:56:42Z</time>
      </trkpt>
      <trkpt lat="47.50174" lon="-2.84134">
        <ele>36.2</ele>
        <time>2026-08-25T12:56:43Z</time>
      </trkpt>
      <trkpt lat="47.50175" lon="-2.8414">
        <ele>36.3</ele>
        <time>2026-08-25T12:56:44Z</time>
      </trkpt>
      <trkpt lat="47.50176" lon="-2.84147">
        <ele>36.3</ele>
        <time>2026-08-25T12:56:45Z</time>
      </trkpt>
      <trkpt lat="47.50177" lon="-2.84153">
        <ele>36.4</ele>
        <time>2026-08-25T12:56:46Z</time>
      </trkpt>
      <trkpt lat="47.50178" lon="-2.84159">
        <ele>36.4</ele>
        <time>2026-08-25T12:56:47Z</time>
      </trkpt>
      <trkpt lat="47.50178" lon="-2.84165">
        <ele>36.4</ele>
        <time>2026-08-25T12:56:48Z</time>
      </trkpt>
      <trkpt lat="47.50179" lon="-2.84172">
        <ele>36.6</ele>
        <time>2026-08-25T12:56:49Z</time>
      </trkpt>
      <trkpt lat="47.5018" lon="-2.84178">
        <ele>36.7</ele>
        <time>2026-08-25T12:56:50Z</time>
      </trkpt>
      <trkpt lat="47.5018" lon="-2.84183">
        <ele>36.8</ele>
        <time>2026-08-25T12:56:51Z</time>
      </trkpt>
      <trkpt lat="47.50181" lon="-2.84189">
        <ele>36.9</ele>
        <time>2026-08-25T12:56:52Z</time>
      </trkpt>
      <trkpt lat="47.50181" lon="-2.84195">
        <ele>37</ele>
        <time>2026-08-25T12:56:53Z</time>
      </trkpt>
      <trkpt lat="47.50182" lon="-2.84201">
        <ele>37</ele>
        <time>2026-08-25T12:56:54Z</time>
      </trkpt>
      <trkpt lat="47.50182" lon="-2.84206">
        <ele>37</ele>
        <time>2026-08-25T12:56:55Z</time>
      </trkpt>
      <trkpt lat="47.50181" lon="-2.84212">
        <ele>37</ele>
        <time>2026-08-25T12:56:56Z</time>
      </trkpt>
      <trkpt lat="47.50181" lon="-2.84218">
        <ele>37</ele>
        <time>2026-08-25T12:56:57Z</time>
      </trkpt>
      <trkpt lat="47.50181" lon="-2.84224">
        <ele>37</ele>
        <time>2026-08-25T12:56:58Z</time>
      </trkpt>
      <trkpt lat="47.5018" lon="-2.8423">
        <ele>37</ele>
        <time>2026-08-25T12:56:59Z</time>
      </trkpt>
      <trkpt lat="47.50179" lon="-2.84236">
        <ele>37</ele>
        <time>2026-08-25T12:57:00Z</time>
      </trkpt>
      <trkpt lat="47.50178" lon="-2.84242">
        <ele>37</ele>
        <time>2026-08-25T12:57:01Z</time>
      </trkpt>
      <trkpt lat="47.50177" lon="-2.84248">
        <ele>37</ele>
        <time>2026-08-25T12:57:02Z</time>
      </trkpt>
      <trkpt lat="47.50175" lon="-2.84254">
        <ele>37</ele>
        <time>2026-08-25T12:57:03Z</time>
      </trkpt>
      <trkpt lat="47.50174" lon="-2.84259">
        <ele>37</ele>
        <time>2026-08-25T12:57:04Z</time>
      </trkpt>
      <trkpt lat="47.50173" lon="-2.84265">
        <ele>37</ele>
        <time>2026-08-25T12:57:05Z</time>
      </trkpt>
      <trkpt lat="47.50171" lon="-2.8427">
        <ele>37</ele>
        <time>2026-08-25T12:57:06Z</time>
      </trkpt>
      <trkpt lat="47.5017" lon="-2.84275">
        <ele>37</ele>
        <time>2026-08-25T12:57:07Z</time>
      </trkpt>
      <trkpt lat="47.50168" lon="-2.8428">
        <ele>37</ele>
        <time>2026-08-25T12:57:08Z</time>
      </trkpt>
      <trkpt lat="47.50167" lon="-2.84285">
        <ele>37</ele>
        <time>2026-08-25T12:57:09Z</time>
      </trkpt>
      <trkpt lat="47.50165" lon="-2.8429">
        <ele>37</ele>
        <time>2026-08-25T12:57:10Z</time>
      </trkpt>
      <trkpt lat="47.50163" lon="-2.84296">
        <ele>37</ele>
        <time>2026-08-25T12:57:11Z</time>
      </trkpt>
      <trkpt lat="47.50161" lon="-2.84302">
        <ele>37</ele>
        <time>2026-08-25T12:57:12Z</time>
      </trkpt>
      <trkpt lat="47.5016" lon="-2.84308">
        <ele>37</ele>
        <time>2026-08-25T12:57:13Z</time>
      </trkpt>
      <trkpt lat="47.50158" lon="-2.84314">
        <ele>37</ele>
        <time>2026-08-25T12:57:14Z</time>
      </trkpt>
      <trkpt lat="47.50157" lon="-2.8432">
        <ele>37</ele>
        <time>2026-08-25T12:57:15Z</time>
      </trkpt>
      <trkpt lat="47.50156" lon="-2.84326">
        <ele>37</ele>
        <time>2026-08-25T12:57:16Z</time>
      </trkpt>
      <trkpt lat="47.50155" lon="-2.84333">
        <ele>37</ele>
        <time>2026-08-25T12:57:17Z</time>
      </trkpt>
      <trkpt lat="47.50154" lon="-2.84339">
        <ele>37</ele>
        <time>2026-08-25T12:57:18Z</time>
      </trkpt>
      <trkpt lat="47.50153" lon="-2.84345">
        <ele>37</ele>
        <time>2026-08-25T12:57:19Z</time>
      </trkpt>
      <trkpt lat="47.50153" lon="-2.84351">
        <ele>37</ele>
        <time>2026-08-25T12:57:20Z</time>
      </trkpt>
      <trkpt lat="47.50152" lon="-2.84357">
        <ele>37</ele>
        <time>2026-08-25T12:57:21Z</time>
      </trkpt>
      <trkpt lat="47.50152" lon="-2.84363">
        <ele>37</ele>
        <time>2026-08-25T12:57:22Z</time>
      </trkpt>
      <trkpt lat="47.50152" lon="-2.84369">
        <ele>37</ele>
        <time>2026-08-25T12:57:23Z</time>
      </trkpt>
      <trkpt lat="47.50153" lon="-2.84375">
        <ele>37</ele>
        <time>2026-08-25T12:57:24Z</time>
      </trkpt>
      <trkpt lat="47.50155" lon="-2.8438">
        <ele>37</ele>
        <time>2026-08-25T12:57:25Z</time>
      </trkpt>
      <trkpt lat="47.50157" lon="-2.84386">
        <ele>37</ele>
        <time>2026-08-25T12:57:26Z</time>
      </trkpt>
      <trkpt lat="47.50159" lon="-2.84391">
        <ele>37</ele>
        <time>2026-08-25T12:57:27Z</time>
      </trkpt>
      <trkpt lat="47.50162" lon="-2.84396">
        <ele>37</ele>
        <time>2026-08-25T12:57:28Z</time>
      </trkpt>
      <trkpt lat="47.50165" lon="-2.84401">
        <ele>37</ele>
        <time>2026-08-25T12:57:29Z</time>
      </trkpt>
      <trkpt lat="47.50169" lon="-2.84404">
        <ele>37</ele>
        <time>2026-08-25T12:57:30Z</time>
      </trkpt>
      <trkpt lat="47.50173" lon="-2.84407">
        <ele>37</ele>
        <time>2026-08-25T12:57:31Z</time>
      </trkpt>
      <trkpt lat="47.50177" lon="-2.84409">
        <ele>37</ele>
        <time>2026-08-25T12:57:32Z</time>
      </trkpt>
      <trkpt lat="47.50181" lon="-2.84411">
        <ele>37</ele>
        <time>2026-08-25T12:57:33Z</time>
      </trkpt>
      <trkpt lat="47.50185" lon="-2.84414">
        <ele>37</ele>
        <time>2026-08-25T12:57:34Z</time>
      </trkpt>
      <trkpt lat="47.50189" lon="-2.84416">
        <ele>37</ele>
        <time>2026-08-25T12:57:35Z</time>
      </trkpt>
      <trkpt lat="47.50193" lon="-2.84419">
        <ele>37</ele>
        <time>2026-08-25T12:57:36Z</time>
      </trkpt>
      <trkpt lat="47.50196" lon="-2.84422">
        <ele>37</ele>
        <time>2026-08-25T12:57:37Z</time>
      </trkpt>
      <trkpt lat="47.502" lon="-2.84424">
        <ele>37</ele>
        <time>2026-08-25T12:57:38Z</time>
      </trkpt>
      <trkpt lat="47.50204" lon="-2.84426">
        <ele>37</ele>
        <time>2026-08-25T12:57:39Z</time>
      </trkpt>
      <trkpt lat="47.50208" lon="-2.84428">
        <ele>37</ele>
        <time>2026-08-25T12:57:40Z</time>
      </trkpt>
      <trkpt lat="47.50212" lon="-2.84431">
        <ele>37</ele>
        <time>2026-08-25T12:57:41Z</time>
      </trkpt>
      <trkpt lat="47.50215" lon="-2.84435">
        <ele>37</ele>
        <time>2026-08-25T12:57:42Z</time>
      </trkpt>
      <trkpt lat="47.50219" lon="-2.84439">
        <ele>37</ele>
        <time>2026-08-25T12:57:43Z</time>
      </trkpt>
      <trkpt lat="47.50223" lon="-2.84443">
        <ele>37</ele>
        <time>2026-08-25T12:57:44Z</time>
      </trkpt>
      <trkpt lat="47.50226" lon="-2.84448">
        <ele>37</ele>
        <time>2026-08-25T12:57:45Z</time>
      </trkpt>
      <trkpt lat="47.50229" lon="-2.84454">
        <ele>37</ele>
        <time>2026-08-25T12:57:46Z</time>
      </trkpt>
      <trkpt lat="47.50231" lon="-2.84459">
        <ele>37</ele>
        <time>2026-08-25T12:57:47Z</time>
      </trkpt>
      <trkpt lat="47.50234" lon="-2.84465">
        <ele>37</ele>
        <time>2026-08-25T12:57:48Z</time>
      </trkpt>
      <trkpt lat="47.50236" lon="-2.84471">
        <ele>37</ele>
        <time>2026-08-25T12:57:49Z</time>
      </trkpt>
      <trkpt lat="47.50239" lon="-2.84477">
        <ele>37.1</ele>
        <time>2026-08-25T12:57:50Z</time>
      </trkpt>
      <trkpt lat="47.50242" lon="-2.84483">
        <ele>37.1</ele>
        <time>2026-08-25T12:57:51Z</time>
      </trkpt>
      <trkpt lat="47.50244" lon="-2.84488">
        <ele>37.1</ele>
        <time>2026-08-25T12:57:52Z</time>
      </trkpt>
      <trkpt lat="47.50247" lon="-2.84493">
        <ele>37.1</ele>
        <time>2026-08-25T12:57:53Z</time>
      </trkpt>
      <trkpt lat="47.5025" lon="-2.84498">
        <ele>37</ele>
        <time>2026-08-25T12:57:54Z</time>
      </trkpt>
      <trkpt lat="47.50253" lon="-2.84503">
        <ele>37</ele>
        <time>2026-08-25T12:57:55Z</time>
      </trkpt>
      <trkpt lat="47.50257" lon="-2.84508">
        <ele>37</ele>
        <time>2026-08-25T12:57:56Z</time>
      </trkpt>
      <trkpt lat="47.5026" lon="-2.84513">
        <ele>37</ele>
        <time>2026-08-25T12:57:57Z</time>
      </trkpt>
      <trkpt lat="47.50263" lon="-2.84518">
        <ele>37</ele>
        <time>2026-08-25T12:57:58Z</time>
      </trkpt>
      <trkpt lat="47.50266" lon="-2.84523">
        <ele>37</ele>
        <time>2026-08-25T12:57:59Z</time>
      </trkpt>
      <trkpt lat="47.5027" lon="-2.84528">
        <ele>37</ele>
        <time>2026-08-25T12:58:00Z</time>
      </trkpt>
      <trkpt lat="47.50274" lon="-2.84533">
        <ele>37</ele>
        <time>2026-08-25T12:58:01Z</time>
      </trkpt>
      <trkpt lat="47.50277" lon="-2.84537">
        <ele>37</ele>
        <time>2026-08-25T12:58:02Z</time>
      </trkpt>
      <trkpt lat="47.50281" lon="-2.84542">
        <ele>37</ele>
        <time>2026-08-25T12:58:03Z</time>
      </trkpt>
      <trkpt lat="47.50285" lon="-2.84546">
        <ele>37</ele>
        <time>2026-08-25T12:58:04Z</time>
      </trkpt>
      <trkpt lat="47.50288" lon="-2.84551">
        <ele>37</ele>
        <time>2026-08-25T12:58:05Z</time>
      </trkpt>
      <trkpt lat="47.50292" lon="-2.84555">
        <ele>37</ele>
        <time>2026-08-25T12:58:06Z</time>
      </trkpt>
      <trkpt lat="47.50296" lon="-2.8456">
        <ele>37</ele>
        <time>2026-08-25T12:58:07Z</time>
      </trkpt>
      <trkpt lat="47.50299" lon="-2.84564">
        <ele>37</ele>
        <time>2026-08-25T12:58:08Z</time>
      </trkpt>
      <trkpt lat="47.50303" lon="-2.84568">
        <ele>37</ele>
        <time>2026-08-25T12:58:09Z</time>
      </trkpt>
      <trkpt lat="47.50307" lon="-2.84572">
        <ele>36.9</ele>
        <time>2026-08-25T12:58:10Z</time>
      </trkpt>
      <trkpt lat="47.5031" lon="-2.84576">
        <ele>36.8</ele>
        <time>2026-08-25T12:58:11Z</time>
      </trkpt>
      <trkpt lat="47.50313" lon="-2.8458">
        <ele>36.7</ele>
        <time>2026-08-25T12:58:12Z</time>
      </trkpt>
      <trkpt lat="47.50317" lon="-2.84583">
        <ele>36.6</ele>
        <time>2026-08-25T12:58:13Z</time>
      </trkpt>
      <trkpt lat="47.5032" lon="-2.84587">
        <ele>36.5</ele>
        <time>2026-08-25T12:58:14Z</time>
      </trkpt>
      <trkpt lat="47.50323" lon="-2.84591">
        <ele>36.5</ele>
        <time>2026-08-25T12:58:15Z</time>
      </trkpt>
      <trkpt lat="47.50325" lon="-2.84595">
        <ele>36.6</ele>
        <time>2026-08-25T12:58:16Z</time>
      </trkpt>
      <trkpt lat="47.50328" lon="-2.84599">
        <ele>36.6</ele>
        <time>2026-08-25T12:58:17Z</time>
      </trkpt>
      <trkpt lat="47.50331" lon="-2.84603">
        <ele>36.7</ele>
        <time>2026-08-25T12:58:18Z</time>
      </trkpt>
      <trkpt lat="47.50333" lon="-2.84608">
        <ele>36.9</ele>
        <time>2026-08-25T12:58:19Z</time>
      </trkpt>
      <trkpt lat="47.50336" lon="-2.84613">
        <ele>36.9</ele>
        <time>2026-08-25T12:58:20Z</time>
      </trkpt>
      <trkpt lat="47.50339" lon="-2.84618">
        <ele>36.8</ele>
        <time>2026-08-25T12:58:21Z</time>
      </trkpt>
      <trkpt lat="47.50342" lon="-2.84624">
        <ele>36.7</ele>
        <time>2026-08-25T12:58:22Z</time>
      </trkpt>
      <trkpt lat="47.50344" lon="-2.8463">
        <ele>36.6</ele>
        <time>2026-08-25T12:58:23Z</time>
      </trkpt>
      <trkpt lat="47.50347" lon="-2.84636">
        <ele>36.5</ele>
        <time>2026-08-25T12:58:24Z</time>
      </trkpt>
      <trkpt lat="47.50349" lon="-2.84642">
        <ele>36.4</ele>
        <time>2026-08-25T12:58:25Z</time>
      </trkpt>
      <trkpt lat="47.50351" lon="-2.84648">
        <ele>36.4</ele>
        <time>2026-08-25T12:58:26Z</time>
      </trkpt>
      <trkpt lat="47.50353" lon="-2.84653">
        <ele>36.3</ele>
        <time>2026-08-25T12:58:27Z</time>
      </trkpt>
      <trkpt lat="47.50355" lon="-2.84659">
        <ele>36.2</ele>
        <time>2026-08-25T12:58:28Z</time>
      </trkpt>
      <trkpt lat="47.50357" lon="-2.84664">
        <ele>36.1</ele>
        <time>2026-08-25T12:58:29Z</time>
      </trkpt>
      <trkpt lat="47.50358" lon="-2.8467">
        <ele>36</ele>
        <time>2026-08-25T12:58:30Z</time>
      </trkpt>
      <trkpt lat="47.50359" lon="-2.84675">
        <ele>35.8</ele>
        <time>2026-08-25T12:58:31Z</time>
      </trkpt>
      <trkpt lat="47.5036" lon="-2.84681">
        <ele>35.5</ele>
        <time>2026-08-25T12:58:32Z</time>
      </trkpt>
      <trkpt lat="47.50361" lon="-2.84688">
        <ele>35.2</ele>
        <time>2026-08-25T12:58:33Z</time>
      </trkpt>
      <trkpt lat="47.50362" lon="-2.84695">
        <ele>35</ele>
        <time>2026-08-25T12:58:34Z</time>
      </trkpt>
      <trkpt lat="47.50362" lon="-2.84702">
        <ele>35</ele>
        <time>2026-08-25T12:58:35Z</time>
      </trkpt>
      <trkpt lat="47.50363" lon="-2.84709">
        <ele>35</ele>
        <time>2026-08-25T12:58:36Z</time>
      </trkpt>
      <trkpt lat="47.50363" lon="-2.84716">
        <ele>35</ele>
        <time>2026-08-25T12:58:37Z</time>
      </trkpt>
      <trkpt lat="47.50364" lon="-2.84723">
        <ele>35</ele>
        <time>2026-08-25T12:58:38Z</time>
      </trkpt>
      <trkpt lat="47.50364" lon="-2.8473">
        <ele>34.7</ele>
        <time>2026-08-25T12:58:39Z</time>
      </trkpt>
      <trkpt lat="47.50366" lon="-2.84737">
        <ele>34.5</ele>
        <time>2026-08-25T12:58:40Z</time>
      </trkpt>
      <trkpt lat="47.50367" lon="-2.84745">
        <ele>34.2</ele>
        <time>2026-08-25T12:58:41Z</time>
      </trkpt>
      <trkpt lat="47.50367" lon="-2.84753">
        <ele>33.9</ele>
        <time>2026-08-25T12:58:42Z</time>
      </trkpt>
      <trkpt lat="47.50369" lon="-2.8476">
        <ele>33.6</ele>
        <time>2026-08-25T12:58:43Z</time>
      </trkpt>
      <trkpt lat="47.50371" lon="-2.84767">
        <ele>33.4</ele>
        <time>2026-08-25T12:58:44Z</time>
      </trkpt>
      <trkpt lat="47.50374" lon="-2.84774">
        <ele>33.1</ele>
        <time>2026-08-25T12:58:45Z</time>
      </trkpt>
      <trkpt lat="47.50378" lon="-2.8478">
        <ele>32.9</ele>
        <time>2026-08-25T12:58:46Z</time>
      </trkpt>
      <trkpt lat="47.50383" lon="-2.84785">
        <ele>32.5</ele>
        <time>2026-08-25T12:58:47Z</time>
      </trkpt>
      <trkpt lat="47.50388" lon="-2.8479">
        <ele>32.1</ele>
        <time>2026-08-25T12:58:48Z</time>
      </trkpt>
      <trkpt lat="47.50394" lon="-2.84795">
        <ele>31.7</ele>
        <time>2026-08-25T12:58:49Z</time>
      </trkpt>
      <trkpt lat="47.504" lon="-2.84799">
        <ele>31.4</ele>
        <time>2026-08-25T12:58:50Z</time>
      </trkpt>
      <trkpt lat="47.50405" lon="-2.84802">
        <ele>31.2</ele>
        <time>2026-08-25T12:58:51Z</time>
      </trkpt>
      <trkpt lat="47.50411" lon="-2.84805">
        <ele>31</ele>
        <time>2026-08-25T12:58:52Z</time>
      </trkpt>
      <trkpt lat="47.50416" lon="-2.84807">
        <ele>30.9</ele>
        <time>2026-08-25T12:58:53Z</time>
      </trkpt>
      <trkpt lat="47.50421" lon="-2.84808">
        <ele>30.8</ele>
        <time>2026-08-25T12:58:54Z</time>
      </trkpt>
      <trkpt lat="47.50425" lon="-2.8481">
        <ele>30.7</ele>
        <time>2026-08-25T12:58:55Z</time>
      </trkpt>
      <trkpt lat="47.5043" lon="-2.84811">
        <ele>30.6</ele>
        <time>2026-08-25T12:58:56Z</time>
      </trkpt>
      <trkpt lat="47.50435" lon="-2.84812">
        <ele>30.5</ele>
        <time>2026-08-25T12:58:57Z</time>
      </trkpt>
      <trkpt lat="47.50439" lon="-2.84814">
        <ele>30.4</ele>
        <time>2026-08-25T12:58:58Z</time>
      </trkpt>
      <trkpt lat="47.50443" lon="-2.84815">
        <ele>30.3</ele>
        <time>2026-08-25T12:58:59Z</time>
      </trkpt>
      <trkpt lat="47.50448" lon="-2.84817">
        <ele>30</ele>
        <time>2026-08-25T12:59:00Z</time>
      </trkpt>
      <trkpt lat="47.50452" lon="-2.84818">
        <ele>29.7</ele>
        <time>2026-08-25T12:59:01Z</time>
      </trkpt>
      <trkpt lat="47.50456" lon="-2.84819">
        <ele>29.4</ele>
        <time>2026-08-25T12:59:02Z</time>
      </trkpt>
      <trkpt lat="47.5046" lon="-2.8482">
        <ele>29.1</ele>
        <time>2026-08-25T12:59:03Z</time>
      </trkpt>
      <trkpt lat="47.50462" lon="-2.8482">
        <ele>29</ele>
        <time>2026-08-25T12:59:04Z</time>
      </trkpt>
      <trkpt lat="47.50464" lon="-2.84821">
        <ele>28.8</ele>
        <time>2026-08-25T12:59:05Z</time>
      </trkpt>
      <trkpt lat="47.50465" lon="-2.84821">
        <ele>28.7</ele>
        <time>2026-08-25T12:59:06Z</time>
      </trkpt>
      <trkpt lat="47.50465" lon="-2.84821">
        <ele>28.7</ele>
        <time>2026-08-25T12:59:07Z</time>
      </trkpt>
      <trkpt lat="47.50465" lon="-2.84821">
        <ele>28.7</ele>
        <time>2026-08-25T12:59:08Z</time>
      </trkpt>
      <trkpt lat="47.50474" lon="-2.84823">
        <ele>28.1</ele>
        <time>2026-08-25T13:01:07Z</time>
      </trkpt>
      <trkpt lat="47.50477" lon="-2.84823">
        <ele>28.1</ele>
        <time>2026-08-25T13:01:08Z</time>
      </trkpt>
      <trkpt lat="47.50479" lon="-2.84823">
        <ele>28</ele>
        <time>2026-08-25T13:01:09Z</time>
      </trkpt>
      <trkpt lat="47.50481" lon="-2.84823">
        <ele>28</ele>
        <time>2026-08-25T13:01:10Z</time>
      </trkpt>
      <trkpt lat="47.50484" lon="-2.84822">
        <ele>28.1</ele>
        <time>2026-08-25T13:01:11Z</time>
      </trkpt>
      <trkpt lat="47.50487" lon="-2.84822">
        <ele>28</ele>
        <time>2026-08-25T13:01:12Z</time>
      </trkpt>
      <trkpt lat="47.50491" lon="-2.84822">
        <ele>27.9</ele>
        <time>2026-08-25T13:01:13Z</time>
      </trkpt>
      <trkpt lat="47.50494" lon="-2.84822">
        <ele>27.9</ele>
        <time>2026-08-25T13:01:14Z</time>
      </trkpt>
      <trkpt lat="47.50498" lon="-2.84821">
        <ele>27.9</ele>
        <time>2026-08-25T13:01:15Z</time>
      </trkpt>
      <trkpt lat="47.50501" lon="-2.84821">
        <ele>27.9</ele>
        <time>2026-08-25T13:01:16Z</time>
      </trkpt>
      <trkpt lat="47.50505" lon="-2.8482">
        <ele>28.1</ele>
        <time>2026-08-25T13:01:17Z</time>
      </trkpt>
      <trkpt lat="47.50509" lon="-2.8482">
        <ele>28.3</ele>
        <time>2026-08-25T13:01:18Z</time>
      </trkpt>
      <trkpt lat="47.50513" lon="-2.8482">
        <ele>28.4</ele>
        <time>2026-08-25T13:01:19Z</time>
      </trkpt>
      <trkpt lat="47.50517" lon="-2.84819">
        <ele>28.6</ele>
        <time>2026-08-25T13:01:20Z</time>
      </trkpt>
      <trkpt lat="47.50521" lon="-2.84818">
        <ele>28.9</ele>
        <time>2026-08-25T13:01:21Z</time>
      </trkpt>
      <trkpt lat="47.50525" lon="-2.84818">
        <ele>29</ele>
        <time>2026-08-25T13:01:22Z</time>
      </trkpt>
      <trkpt lat="47.50529" lon="-2.84817">
        <ele>29.2</ele>
        <time>2026-08-25T13:01:23Z</time>
      </trkpt>
      <trkpt lat="47.50533" lon="-2.84815">
        <ele>29.2</ele>
        <time>2026-08-25T13:01:24Z</time>
      </trkpt>
      <trkpt lat="47.50537" lon="-2.84814">
        <ele>29.2</ele>
        <time>2026-08-25T13:01:25Z</time>
      </trkpt>
      <trkpt lat="47.50541" lon="-2.84812">
        <ele>29.2</ele>
        <time>2026-08-25T13:01:26Z</time>
      </trkpt>
      <trkpt lat="47.50545" lon="-2.8481">
        <ele>29.2</ele>
        <time>2026-08-25T13:01:27Z</time>
      </trkpt>
      <trkpt lat="47.50549" lon="-2.84809">
        <ele>29.1</ele>
        <time>2026-08-25T13:01:28Z</time>
      </trkpt>
      <trkpt lat="47.50553" lon="-2.84807">
        <ele>29</ele>
        <time>2026-08-25T13:01:29Z</time>
      </trkpt>
      <trkpt lat="47.50557" lon="-2.84806">
        <ele>29</ele>
        <time>2026-08-25T13:01:30Z</time>
      </trkpt>
      <trkpt lat="47.50561" lon="-2.84804">
        <ele>29</ele>
        <time>2026-08-25T13:01:31Z</time>
      </trkpt>
      <trkpt lat="47.50565" lon="-2.84802">
        <ele>29.1</ele>
        <time>2026-08-25T13:01:32Z</time>
      </trkpt>
      <trkpt lat="47.50569" lon="-2.848">
        <ele>29.1</ele>
        <time>2026-08-25T13:01:33Z</time>
      </trkpt>
      <trkpt lat="47.50573" lon="-2.84797">
        <ele>29.1</ele>
        <time>2026-08-25T13:01:34Z</time>
      </trkpt>
      <trkpt lat="47.50577" lon="-2.84794">
        <ele>29.1</ele>
        <time>2026-08-25T13:01:35Z</time>
      </trkpt>
      <trkpt lat="47.50581" lon="-2.84792">
        <ele>29</ele>
        <time>2026-08-25T13:01:36Z</time>
      </trkpt>
      <trkpt lat="47.50586" lon="-2.84791">
        <ele>29</ele>
        <time>2026-08-25T13:01:37Z</time>
      </trkpt>
      <trkpt lat="47.5059" lon="-2.8479">
        <ele>28.9</ele>
        <time>2026-08-25T13:01:38Z</time>
      </trkpt>
      <trkpt lat="47.50594" lon="-2.84788">
        <ele>28.9</ele>
        <time>2026-08-25T13:01:39Z</time>
      </trkpt>
      <trkpt lat="47.50598" lon="-2.84787">
        <ele>28.8</ele>
        <time>2026-08-25T13:01:40Z</time>
      </trkpt>
      <trkpt lat="47.50602" lon="-2.84784">
        <ele>28.8</ele>
        <time>2026-08-25T13:01:41Z</time>
      </trkpt>
      <trkpt lat="47.50606" lon="-2.84782">
        <ele>28.9</ele>
        <time>2026-08-25T13:01:42Z</time>
      </trkpt>
      <trkpt lat="47.50611" lon="-2.84779">
        <ele>29</ele>
        <time>2026-08-25T13:01:43Z</time>
      </trkpt>
      <trkpt lat="47.50615" lon="-2.84777">
        <ele>28.8</ele>
        <time>2026-08-25T13:01:44Z</time>
      </trkpt>
      <trkpt lat="47.50619" lon="-2.84774">
        <ele>28.6</ele>
        <time>2026-08-25T13:01:45Z</time>
      </trkpt>
      <trkpt lat="47.50623" lon="-2.84772">
        <ele>28.4</ele>
        <time>2026-08-25T13:01:46Z</time>
      </trkpt>
      <trkpt lat="47.50627" lon="-2.8477">
        <ele>28.1</ele>
        <time>2026-08-25T13:01:47Z</time>
      </trkpt>
      <trkpt lat="47.50631" lon="-2.84768">
        <ele>27.9</ele>
        <time>2026-08-25T13:01:48Z</time>
      </trkpt>
      <trkpt lat="47.50635" lon="-2.84766">
        <ele>27.7</ele>
        <time>2026-08-25T13:01:49Z</time>
      </trkpt>
      <trkpt lat="47.50639" lon="-2.84763">
        <ele>27.5</ele>
        <time>2026-08-25T13:01:50Z</time>
      </trkpt>
      <trkpt lat="47.50643" lon="-2.8476">
        <ele>27.2</ele>
        <time>2026-08-25T13:01:51Z</time>
      </trkpt>
      <trkpt lat="47.50646" lon="-2.84756">
        <ele>26.9</ele>
        <time>2026-08-25T13:01:52Z</time>
      </trkpt>
      <trkpt lat="47.50648" lon="-2.84751">
        <ele>26.7</ele>
        <time>2026-08-25T13:01:53Z</time>
      </trkpt>
      <trkpt lat="47.50648" lon="-2.84746">
        <ele>26.2</ele>
        <time>2026-08-25T13:01:54Z</time>
      </trkpt>
      <trkpt lat="47.50646" lon="-2.84741">
        <ele>25.8</ele>
        <time>2026-08-25T13:01:55Z</time>
      </trkpt>
      <trkpt lat="47.50644" lon="-2.84738">
        <ele>25.6</ele>
        <time>2026-08-25T13:01:56Z</time>
      </trkpt>
      <trkpt lat="47.50641" lon="-2.84735">
        <ele>25.7</ele>
        <time>2026-08-25T13:01:57Z</time>
      </trkpt>
      <trkpt lat="47.50637" lon="-2.84732">
        <ele>25.9</ele>
        <time>2026-08-25T13:01:58Z</time>
      </trkpt>
      <trkpt lat="47.50633" lon="-2.84729">
        <ele>26</ele>
        <time>2026-08-25T13:01:59Z</time>
      </trkpt>
      <trkpt lat="47.50629" lon="-2.84726">
        <ele>26.2</ele>
        <time>2026-08-25T13:02:00Z</time>
      </trkpt>
      <trkpt lat="47.50625" lon="-2.84723">
        <ele>26.5</ele>
        <time>2026-08-25T13:02:01Z</time>
      </trkpt>
      <trkpt lat="47.50622" lon="-2.84721">
        <ele>26.7</ele>
        <time>2026-08-25T13:02:02Z</time>
      </trkpt>
      <trkpt lat="47.50618" lon="-2.84717">
        <ele>26.7</ele>
        <time>2026-08-25T13:02:03Z</time>
      </trkpt>
      <trkpt lat="47.50615" lon="-2.84714">
        <ele>26.7</ele>
        <time>2026-08-25T13:02:04Z</time>
      </trkpt>
      <trkpt lat="47.50612" lon="-2.8471">
        <ele>26.6</ele>
        <time>2026-08-25T13:02:05Z</time>
      </trkpt>
      <trkpt lat="47.50609" lon="-2.84707">
        <ele>26.5</ele>
        <time>2026-08-25T13:02:06Z</time>
      </trkpt>
      <trkpt lat="47.50607" lon="-2.84702">
        <ele>26.1</ele>
        <time>2026-08-25T13:02:07Z</time>
      </trkpt>
      <trkpt lat="47.50607" lon="-2.84698">
        <ele>25.7</ele>
        <time>2026-08-25T13:02:08Z</time>
      </trkpt>
      <trkpt lat="47.50609" lon="-2.84694">
        <ele>25.1</ele>
        <time>2026-08-25T13:02:09Z</time>
      </trkpt>
      <trkpt lat="47.50614" lon="-2.84692">
        <ele>24.6</ele>
        <time>2026-08-25T13:02:10Z</time>
      </trkpt>
      <trkpt lat="47.50618" lon="-2.84689">
        <ele>24.2</ele>
        <time>2026-08-25T13:02:11Z</time>
      </trkpt>
      <trkpt lat="47.50624" lon="-2.84686">
        <ele>23.7</ele>
        <time>2026-08-25T13:02:12Z</time>
      </trkpt>
      <trkpt lat="47.50629" lon="-2.84683">
        <ele>23.5</ele>
        <time>2026-08-25T13:02:13Z</time>
      </trkpt>
      <trkpt lat="47.50634" lon="-2.84681">
        <ele>23.2</ele>
        <time>2026-08-25T13:02:14Z</time>
      </trkpt>
      <trkpt lat="47.50638" lon="-2.84678">
        <ele>23.2</ele>
        <time>2026-08-25T13:02:15Z</time>
      </trkpt>
      <trkpt lat="47.50642" lon="-2.84676">
        <ele>23.3</ele>
        <time>2026-08-25T13:02:16Z</time>
      </trkpt>
      <trkpt lat="47.50646" lon="-2.84674">
        <ele>23.5</ele>
        <time>2026-08-25T13:02:17Z</time>
      </trkpt>
      <trkpt lat="47.5065" lon="-2.84672">
        <ele>23.8</ele>
        <time>2026-08-25T13:02:18Z</time>
      </trkpt>
      <trkpt lat="47.50654" lon="-2.84669">
        <ele>24.2</ele>
        <time>2026-08-25T13:02:19Z</time>
      </trkpt>
      <trkpt lat="47.50658" lon="-2.84666">
        <ele>24.8</ele>
        <time>2026-08-25T13:02:20Z</time>
      </trkpt>
      <trkpt lat="47.50661" lon="-2.84664">
        <ele>25.1</ele>
        <time>2026-08-25T13:02:21Z</time>
      </trkpt>
      <trkpt lat="47.50665" lon="-2.84662">
        <ele>25.4</ele>
        <time>2026-08-25T13:02:22Z</time>
      </trkpt>
      <trkpt lat="47.50668" lon="-2.84661">
        <ele>25.6</ele>
        <time>2026-08-25T13:02:23Z</time>
      </trkpt>
      <trkpt lat="47.50672" lon="-2.8466">
        <ele>25.7</ele>
        <time>2026-08-25T13:02:24Z</time>
      </trkpt>
      <trkpt lat="47.50675" lon="-2.84659">
        <ele>25.8</ele>
        <time>2026-08-25T13:02:25Z</time>
      </trkpt>
      <trkpt lat="47.50679" lon="-2.84658">
        <ele>25.9</ele>
        <time>2026-08-25T13:02:26Z</time>
      </trkpt>
      <trkpt lat="47.50683" lon="-2.84657">
        <ele>26</ele>
        <time>2026-08-25T13:02:27Z</time>
      </trkpt>
      <trkpt lat="47.50687" lon="-2.84656">
        <ele>26.2</ele>
        <time>2026-08-25T13:02:28Z</time>
      </trkpt>
      <trkpt lat="47.50691" lon="-2.84654">
        <ele>26.4</ele>
        <time>2026-08-25T13:02:29Z</time>
      </trkpt>
      <trkpt lat="47.50695" lon="-2.84653">
        <ele>26.5</ele>
        <time>2026-08-25T13:02:30Z</time>
      </trkpt>
      <trkpt lat="47.50698" lon="-2.84651">
        <ele>26.7</ele>
        <time>2026-08-25T13:02:31Z</time>
      </trkpt>
      <trkpt lat="47.50702" lon="-2.8465">
        <ele>26.9</ele>
        <time>2026-08-25T13:02:32Z</time>
      </trkpt>
      <trkpt lat="47.50706" lon="-2.84648">
        <ele>27.2</ele>
        <time>2026-08-25T13:02:33Z</time>
      </trkpt>
      <trkpt lat="47.50709" lon="-2.84647">
        <ele>27.3</ele>
        <time>2026-08-25T13:02:34Z</time>
      </trkpt>
      <trkpt lat="47.50712" lon="-2.84646">
        <ele>27.4</ele>
        <time>2026-08-25T13:02:35Z</time>
      </trkpt>
      <trkpt lat="47.50716" lon="-2.84644">
        <ele>27.6</ele>
        <time>2026-08-25T13:02:36Z</time>
      </trkpt>
      <trkpt lat="47.50719" lon="-2.84643">
        <ele>27.7</ele>
        <time>2026-08-25T13:02:37Z</time>
      </trkpt>
      <trkpt lat="47.50722" lon="-2.84641">
        <ele>27.8</ele>
        <time>2026-08-25T13:02:38Z</time>
      </trkpt>
      <trkpt lat="47.50725" lon="-2.8464">
        <ele>27.9</ele>
        <time>2026-08-25T13:02:39Z</time>
      </trkpt>
      <trkpt lat="47.50728" lon="-2.84639">
        <ele>28</ele>
        <time>2026-08-25T13:02:40Z</time>
      </trkpt>
      <trkpt lat="47.50731" lon="-2.84638">
        <ele>28</ele>
        <time>2026-08-25T13:02:41Z</time>
      </trkpt>
      <trkpt lat="47.50735" lon="-2.84637">
        <ele>28.1</ele>
        <time>2026-08-25T13:02:42Z</time>
      </trkpt>
      <trkpt lat="47.50738" lon="-2.84636">
        <ele>28.1</ele>
        <time>2026-08-25T13:02:43Z</time>
      </trkpt>
      <trkpt lat="47.50742" lon="-2.84634">
        <ele>28.2</ele>
        <time>2026-08-25T13:02:44Z</time>
      </trkpt>
      <trkpt lat="47.50746" lon="-2.84633">
        <ele>28.2</ele>
        <time>2026-08-25T13:02:45Z</time>
      </trkpt>
      <trkpt lat="47.5075" lon="-2.84632">
        <ele>28.2</ele>
        <time>2026-08-25T13:02:46Z</time>
      </trkpt>
      <trkpt lat="47.50753" lon="-2.84631">
        <ele>28.3</ele>
        <time>2026-08-25T13:02:47Z</time>
      </trkpt>
      <trkpt lat="47.50757" lon="-2.8463">
        <ele>28.3</ele>
        <time>2026-08-25T13:02:48Z</time>
      </trkpt>
      <trkpt lat="47.5076" lon="-2.84628">
        <ele>28.4</ele>
        <time>2026-08-25T13:02:49Z</time>
      </trkpt>
      <trkpt lat="47.50764" lon="-2.84627">
        <ele>28.4</ele>
        <time>2026-08-25T13:02:50Z</time>
      </trkpt>
      <trkpt lat="47.50768" lon="-2.84626">
        <ele>28.5</ele>
        <time>2026-08-25T13:02:51Z</time>
      </trkpt>
      <trkpt lat="47.50771" lon="-2.84624">
        <ele>28.5</ele>
        <time>2026-08-25T13:02:52Z</time>
      </trkpt>
      <trkpt lat="47.50775" lon="-2.84623">
        <ele>28.6</ele>
        <time>2026-08-25T13:02:53Z</time>
      </trkpt>
      <trkpt lat="47.50779" lon="-2.84621">
        <ele>28.6</ele>
        <time>2026-08-25T13:02:54Z</time>
      </trkpt>
      <trkpt lat="47.50783" lon="-2.8462">
        <ele>28.7</ele>
        <time>2026-08-25T13:02:55Z</time>
      </trkpt>
      <trkpt lat="47.50787" lon="-2.84619">
        <ele>28.7</ele>
        <time>2026-08-25T13:02:56Z</time>
      </trkpt>
      <trkpt lat="47.50791" lon="-2.84619">
        <ele>28.7</ele>
        <time>2026-08-25T13:02:57Z</time>
      </trkpt>
      <trkpt lat="47.50795" lon="-2.8462">
        <ele>28.7</ele>
        <time>2026-08-25T13:02:58Z</time>
      </trkpt>
      <trkpt lat="47.50799" lon="-2.84621">
        <ele>28.6</ele>
        <time>2026-08-25T13:02:59Z</time>
      </trkpt>
      <trkpt lat="47.50803" lon="-2.84623">
        <ele>28.6</ele>
        <time>2026-08-25T13:03:00Z</time>
      </trkpt>
      <trkpt lat="47.50807" lon="-2.84624">
        <ele>28.5</ele>
        <time>2026-08-25T13:03:01Z</time>
      </trkpt>
      <trkpt lat="47.50811" lon="-2.84626">
        <ele>28.3</ele>
        <time>2026-08-25T13:03:02Z</time>
      </trkpt>
      <trkpt lat="47.50815" lon="-2.84628">
        <ele>28.1</ele>
        <time>2026-08-25T13:03:03Z</time>
      </trkpt>
      <trkpt lat="47.5082" lon="-2.8463">
        <ele>27.8</ele>
        <time>2026-08-25T13:03:04Z</time>
      </trkpt>
      <trkpt lat="47.50824" lon="-2.84632">
        <ele>27.6</ele>
        <time>2026-08-25T13:03:05Z</time>
      </trkpt>
      <trkpt lat="47.50829" lon="-2.84633">
        <ele>27.4</ele>
        <time>2026-08-25T13:03:06Z</time>
      </trkpt>
      <trkpt lat="47.50834" lon="-2.84633">
        <ele>27.2</ele>
        <time>2026-08-25T13:03:07Z</time>
      </trkpt>
      <trkpt lat="47.50838" lon="-2.84633">
        <ele>27.2</ele>
        <time>2026-08-25T13:03:08Z</time>
      </trkpt>
      <trkpt lat="47.50843" lon="-2.84633">
        <ele>27.1</ele>
        <time>2026-08-25T13:03:09Z</time>
      </trkpt>
      <trkpt lat="47.50848" lon="-2.84632">
        <ele>27.1</ele>
        <time>2026-08-25T13:03:10Z</time>
      </trkpt>
      <trkpt lat="47.50853" lon="-2.84631">
        <ele>27.1</ele>
        <time>2026-08-25T13:03:11Z</time>
      </trkpt>
      <trkpt lat="47.50859" lon="-2.8463">
        <ele>27</ele>
        <time>2026-08-25T13:03:12Z</time>
      </trkpt>
      <trkpt lat="47.50864" lon="-2.84628">
        <ele>26.8</ele>
        <time>2026-08-25T13:03:13Z</time>
      </trkpt>
      <trkpt lat="47.50869" lon="-2.84626">
        <ele>26.6</ele>
        <time>2026-08-25T13:03:14Z</time>
      </trkpt>
      <trkpt lat="47.50874" lon="-2.84625">
        <ele>26.3</ele>
        <time>2026-08-25T13:03:15Z</time>
      </trkpt>
      <trkpt lat="47.50879" lon="-2.84623">
        <ele>26.1</ele>
        <time>2026-08-25T13:03:16Z</time>
      </trkpt>
      <trkpt lat="47.50884" lon="-2.84621">
        <ele>25.9</ele>
        <time>2026-08-25T13:03:17Z</time>
      </trkpt>
      <trkpt lat="47.5089" lon="-2.84619">
        <ele>25.6</ele>
        <time>2026-08-25T13:03:18Z</time>
      </trkpt>
      <trkpt lat="47.50896" lon="-2.84618">
        <ele>25.2</ele>
        <time>2026-08-25T13:03:19Z</time>
      </trkpt>
      <trkpt lat="47.50903" lon="-2.84616">
        <ele>24.8</ele>
        <time>2026-08-25T13:03:20Z</time>
      </trkpt>
      <trkpt lat="47.50909" lon="-2.84614">
        <ele>24.4</ele>
        <time>2026-08-25T13:03:21Z</time>
      </trkpt>
      <trkpt lat="47.50917" lon="-2.84612">
        <ele>23.9</ele>
        <time>2026-08-25T13:03:22Z</time>
      </trkpt>
      <trkpt lat="47.50924" lon="-2.8461">
        <ele>23.5</ele>
        <time>2026-08-25T13:03:23Z</time>
      </trkpt>
      <trkpt lat="47.50932" lon="-2.84608">
        <ele>23</ele>
        <time>2026-08-25T13:03:24Z</time>
      </trkpt>
      <trkpt lat="47.5094" lon="-2.84606">
        <ele>22.5</ele>
        <time>2026-08-25T13:03:25Z</time>
      </trkpt>
      <trkpt lat="47.50948" lon="-2.84604">
        <ele>22</ele>
        <time>2026-08-25T13:03:26Z</time>
      </trkpt>
      <trkpt lat="47.50956" lon="-2.84602">
        <ele>21.5</ele>
        <time>2026-08-25T13:03:27Z</time>
      </trkpt>
      <trkpt lat="47.50965" lon="-2.846">
        <ele>20.9</ele>
        <time>2026-08-25T13:03:28Z</time>
      </trkpt>
      <trkpt lat="47.50974" lon="-2.84599">
        <ele>20.4</ele>
        <time>2026-08-25T13:03:29Z</time>
      </trkpt>
      <trkpt lat="47.50983" lon="-2.84599">
        <ele>20</ele>
        <time>2026-08-25T13:03:30Z</time>
      </trkpt>
      <trkpt lat="47.50991" lon="-2.846">
        <ele>19.7</ele>
        <time>2026-08-25T13:03:31Z</time>
      </trkpt>
      <trkpt lat="47.51" lon="-2.84601">
        <ele>19.4</ele>
        <time>2026-08-25T13:03:32Z</time>
      </trkpt>
      <trkpt lat="47.51009" lon="-2.84602">
        <ele>18.9</ele>
        <time>2026-08-25T13:03:33Z</time>
      </trkpt>
      <trkpt lat="47.51017" lon="-2.84603">
        <ele>18.5</ele>
        <time>2026-08-25T13:03:34Z</time>
      </trkpt>
      <trkpt lat="47.51026" lon="-2.84604">
        <ele>18.1</ele>
        <time>2026-08-25T13:03:35Z</time>
      </trkpt>
      <trkpt lat="47.51034" lon="-2.84604">
        <ele>17.8</ele>
        <time>2026-08-25T13:03:36Z</time>
      </trkpt>
      <trkpt lat="47.51043" lon="-2.84605">
        <ele>17.5</ele>
        <time>2026-08-25T13:03:37Z</time>
      </trkpt>
      <trkpt lat="47.51051" lon="-2.84606">
        <ele>17.2</ele>
        <time>2026-08-25T13:03:38Z</time>
      </trkpt>
      <trkpt lat="47.51059" lon="-2.84607">
        <ele>17</ele>
        <time>2026-08-25T13:03:39Z</time>
      </trkpt>
      <trkpt lat="47.51066" lon="-2.84607">
        <ele>16.9</ele>
        <time>2026-08-25T13:03:40Z</time>
      </trkpt>
      <trkpt lat="47.51073" lon="-2.84608">
        <ele>16.9</ele>
        <time>2026-08-25T13:03:41Z</time>
      </trkpt>
      <trkpt lat="47.51081" lon="-2.84609">
        <ele>16.9</ele>
        <time>2026-08-25T13:03:42Z</time>
      </trkpt>
      <trkpt lat="47.51089" lon="-2.8461">
        <ele>16.8</ele>
        <time>2026-08-25T13:03:43Z</time>
      </trkpt>
      <trkpt lat="47.51098" lon="-2.84611">
        <ele>16.5</ele>
        <time>2026-08-25T13:03:44Z</time>
      </trkpt>
      <trkpt lat="47.51106" lon="-2.8461">
        <ele>16.1</ele>
        <time>2026-08-25T13:03:45Z</time>
      </trkpt>
      <trkpt lat="47.51114" lon="-2.84609">
        <ele>15.8</ele>
        <time>2026-08-25T13:03:46Z</time>
      </trkpt>
      <trkpt lat="47.51122" lon="-2.84607">
        <ele>15.5</ele>
        <time>2026-08-25T13:03:47Z</time>
      </trkpt>
      <trkpt lat="47.5113" lon="-2.84603">
        <ele>15</ele>
        <time>2026-08-25T13:03:48Z</time>
      </trkpt>
      <trkpt lat="47.51138" lon="-2.84599">
        <ele>14.6</ele>
        <time>2026-08-25T13:03:49Z</time>
      </trkpt>
      <trkpt lat="47.51146" lon="-2.84595">
        <ele>14</ele>
        <time>2026-08-25T13:03:50Z</time>
      </trkpt>
      <trkpt lat="47.51154" lon="-2.8459">
        <ele>13.3</ele>
        <time>2026-08-25T13:03:51Z</time>
      </trkpt>
      <trkpt lat="47.51161" lon="-2.84585">
        <ele>12.5</ele>
        <time>2026-08-25T13:03:52Z</time>
      </trkpt>
      <trkpt lat="47.51168" lon="-2.8458">
        <ele>12</ele>
        <time>2026-08-25T13:03:53Z</time>
      </trkpt>
      <trkpt lat="47.51175" lon="-2.84575">
        <ele>11.8</ele>
        <time>2026-08-25T13:03:54Z</time>
      </trkpt>
      <trkpt lat="47.5118" lon="-2.84571">
        <ele>11.6</ele>
        <time>2026-08-25T13:03:55Z</time>
      </trkpt>
      <trkpt lat="47.51185" lon="-2.84567">
        <ele>11.2</ele>
        <time>2026-08-25T13:03:56Z</time>
      </trkpt>
      <trkpt lat="47.51188" lon="-2.84562">
        <ele>10.8</ele>
        <time>2026-08-25T13:03:57Z</time>
      </trkpt>
      <trkpt lat="47.51191" lon="-2.84558">
        <ele>10.4</ele>
        <time>2026-08-25T13:03:58Z</time>
      </trkpt>
      <trkpt lat="47.51194" lon="-2.84555">
        <ele>10.1</ele>
        <time>2026-08-25T13:03:59Z</time>
      </trkpt>
      <trkpt lat="47.51197" lon="-2.84555">
        <ele>9.9</ele>
        <time>2026-08-25T13:04:00Z</time>
      </trkpt>
      <trkpt lat="47.51201" lon="-2.84555">
        <ele>9.8</ele>
        <time>2026-08-25T13:04:01Z</time>
      </trkpt>
      <trkpt lat="47.51204" lon="-2.84556">
        <ele>9.7</ele>
        <time>2026-08-25T13:04:02Z</time>
      </trkpt>
      <trkpt lat="47.51208" lon="-2.84556">
        <ele>9.5</ele>
        <time>2026-08-25T13:04:03Z</time>
      </trkpt>
      <trkpt lat="47.51211" lon="-2.84558">
        <ele>9.4</ele>
        <time>2026-08-25T13:04:04Z</time>
      </trkpt>
      <trkpt lat="47.51215" lon="-2.8456">
        <ele>9.2</ele>
        <time>2026-08-25T13:04:05Z</time>
      </trkpt>
      <trkpt lat="47.51219" lon="-2.84562">
        <ele>9</ele>
        <time>2026-08-25T13:04:06Z</time>
      </trkpt>
      <trkpt lat="47.51223" lon="-2.84563">
        <ele>8.7</ele>
        <time>2026-08-25T13:04:07Z</time>
      </trkpt>
      <trkpt lat="47.51228" lon="-2.84563">
        <ele>8.5</ele>
        <time>2026-08-25T13:04:08Z</time>
      </trkpt>
      <trkpt lat="47.51232" lon="-2.84559">
        <ele>8.5</ele>
        <time>2026-08-25T13:04:09Z</time>
      </trkpt>
      <trkpt lat="47.51236" lon="-2.84555">
        <ele>8.5</ele>
        <time>2026-08-25T13:04:10Z</time>
      </trkpt>
      <trkpt lat="47.51239" lon="-2.84551">
        <ele>8.7</ele>
        <time>2026-08-25T13:04:11Z</time>
      </trkpt>
      <trkpt lat="47.51243" lon="-2.84548">
        <ele>8.7</ele>
        <time>2026-08-25T13:04:12Z</time>
      </trkpt>
      <trkpt lat="47.51247" lon="-2.84548">
        <ele>8.6</ele>
        <time>2026-08-25T13:04:13Z</time>
      </trkpt>
      <trkpt lat="47.51252" lon="-2.84548">
        <ele>8.7</ele>
        <time>2026-08-25T13:04:14Z</time>
      </trkpt>
      <trkpt lat="47.51256" lon="-2.8455">
        <ele>8.8</ele>
        <time>2026-08-25T13:04:15Z</time>
      </trkpt>
      <trkpt lat="47.5126" lon="-2.84551">
        <ele>9</ele>
        <time>2026-08-25T13:04:16Z</time>
      </trkpt>
      <trkpt lat="47.51264" lon="-2.84553">
        <ele>9.2</ele>
        <time>2026-08-25T13:04:17Z</time>
      </trkpt>
      <trkpt lat="47.51268" lon="-2.84555">
        <ele>9.3</ele>
        <time>2026-08-25T13:04:18Z</time>
      </trkpt>
      <trkpt lat="47.51273" lon="-2.84557">
        <ele>9.5</ele>
        <time>2026-08-25T13:04:19Z</time>
      </trkpt>
      <trkpt lat="47.51277" lon="-2.84559">
        <ele>9.6</ele>
        <time>2026-08-25T13:04:20Z</time>
      </trkpt>
      <trkpt lat="47.51281" lon="-2.84561">
        <ele>9.4</ele>
        <time>2026-08-25T13:04:21Z</time>
      </trkpt>
      <trkpt lat="47.51286" lon="-2.84563">
        <ele>9.3</ele>
        <time>2026-08-25T13:04:22Z</time>
      </trkpt>
      <trkpt lat="47.5129" lon="-2.84565">
        <ele>9.1</ele>
        <time>2026-08-25T13:04:23Z</time>
      </trkpt>
      <trkpt lat="47.51295" lon="-2.84568">
        <ele>8.9</ele>
        <time>2026-08-25T13:04:24Z</time>
      </trkpt>
      <trkpt lat="47.513" lon="-2.8457">
        <ele>8.9</ele>
        <time>2026-08-25T13:04:25Z</time>
      </trkpt>
      <trkpt lat="47.51304" lon="-2.84573">
        <ele>8.7</ele>
        <time>2026-08-25T13:04:26Z</time>
      </trkpt>
      <trkpt lat="47.51309" lon="-2.84575">
        <ele>8.8</ele>
        <time>2026-08-25T13:04:27Z</time>
      </trkpt>
      <trkpt lat="47.51314" lon="-2.84577">
        <ele>8.8</ele>
        <time>2026-08-25T13:04:28Z</time>
      </trkpt>
      <trkpt lat="47.51318" lon="-2.8458">
        <ele>8.7</ele>
        <time>2026-08-25T13:04:29Z</time>
      </trkpt>
      <trkpt lat="47.51323" lon="-2.84583">
        <ele>8.7</ele>
        <time>2026-08-25T13:04:30Z</time>
      </trkpt>
      <trkpt lat="47.51327" lon="-2.84585">
        <ele>8.7</ele>
        <time>2026-08-25T13:04:31Z</time>
      </trkpt>
      <trkpt lat="47.51332" lon="-2.84588">
        <ele>8.8</ele>
        <time>2026-08-25T13:04:32Z</time>
      </trkpt>
      <trkpt lat="47.51337" lon="-2.8459">
        <ele>8.8</ele>
        <time>2026-08-25T13:04:33Z</time>
      </trkpt>
      <trkpt lat="47.51342" lon="-2.84592">
        <ele>8.7</ele>
        <time>2026-08-25T13:04:34Z</time>
      </trkpt>
      <trkpt lat="47.51347" lon="-2.84595">
        <ele>8.6</ele>
        <time>2026-08-25T13:04:35Z</time>
      </trkpt>
      <trkpt lat="47.51351" lon="-2.84597">
        <ele>8.5</ele>
        <time>2026-08-25T13:04:36Z</time>
      </trkpt>
      <trkpt lat="47.51356" lon="-2.846">
        <ele>8.4</ele>
        <time>2026-08-25T13:04:37Z</time>
      </trkpt>
      <trkpt lat="47.51361" lon="-2.84603">
        <ele>8.3</ele>
        <time>2026-08-25T13:04:38Z</time>
      </trkpt>
      <trkpt lat="47.51366" lon="-2.84607">
        <ele>8.2</ele>
        <time>2026-08-25T13:04:39Z</time>
      </trkpt>
      <trkpt lat="47.51371" lon="-2.8461">
        <ele>8.1</ele>
        <time>2026-08-25T13:04:40Z</time>
      </trkpt>
      <trkpt lat="47.51375" lon="-2.84612">
        <ele>8</ele>
        <time>2026-08-25T13:04:41Z</time>
      </trkpt>
      <trkpt lat="47.5138" lon="-2.84614">
        <ele>7.9</ele>
        <time>2026-08-25T13:04:42Z</time>
      </trkpt>
      <trkpt lat="47.51385" lon="-2.84615">
        <ele>7.9</ele>
        <time>2026-08-25T13:04:43Z</time>
      </trkpt>
      <trkpt lat="47.5139" lon="-2.84618">
        <ele>7.8</ele>
        <time>2026-08-25T13:04:44Z</time>
      </trkpt>
      <trkpt lat="47.51395" lon="-2.8462">
        <ele>7.8</ele>
        <time>2026-08-25T13:04:45Z</time>
      </trkpt>
      <trkpt lat="47.51399" lon="-2.84623">
        <ele>7.8</ele>
        <time>2026-08-25T13:04:46Z</time>
      </trkpt>
      <trkpt lat="47.51404" lon="-2.84625">
        <ele>7.8</ele>
        <time>2026-08-25T13:04:47Z</time>
      </trkpt>
      <trkpt lat="47.51408" lon="-2.84627">
        <ele>7.7</ele>
        <time>2026-08-25T13:04:48Z</time>
      </trkpt>
      <trkpt lat="47.51412" lon="-2.8463">
        <ele>7.6</ele>
        <time>2026-08-25T13:04:49Z</time>
      </trkpt>
      <trkpt lat="47.51416" lon="-2.84632">
        <ele>7.5</ele>
        <time>2026-08-25T13:04:50Z</time>
      </trkpt>
      <trkpt lat="47.51421" lon="-2.84635">
        <ele>7.3</ele>
        <time>2026-08-25T13:04:51Z</time>
      </trkpt>
      <trkpt lat="47.51425" lon="-2.84637">
        <ele>7.2</ele>
        <time>2026-08-25T13:04:52Z</time>
      </trkpt>
      <trkpt lat="47.51429" lon="-2.84639">
        <ele>7</ele>
        <time>2026-08-25T13:04:53Z</time>
      </trkpt>
      <trkpt lat="47.51433" lon="-2.84641">
        <ele>6.9</ele>
        <time>2026-08-25T13:04:54Z</time>
      </trkpt>
      <trkpt lat="47.51438" lon="-2.84643">
        <ele>6.9</ele>
        <time>2026-08-25T13:04:55Z</time>
      </trkpt>
      <trkpt lat="47.51442" lon="-2.84646">
        <ele>6.7</ele>
        <time>2026-08-25T13:04:56Z</time>
      </trkpt>
      <trkpt lat="47.51447" lon="-2.84649">
        <ele>6.6</ele>
        <time>2026-08-25T13:04:57Z</time>
      </trkpt>
      <trkpt lat="47.51451" lon="-2.84651">
        <ele>6.6</ele>
        <time>2026-08-25T13:04:58Z</time>
      </trkpt>
      <trkpt lat="47.51456" lon="-2.84654">
        <ele>6.5</ele>
        <time>2026-08-25T13:04:59Z</time>
      </trkpt>
      <trkpt lat="47.51461" lon="-2.84656">
        <ele>6.4</ele>
        <time>2026-08-25T13:05:00Z</time>
      </trkpt>
      <trkpt lat="47.51465" lon="-2.84658">
        <ele>6.3</ele>
        <time>2026-08-25T13:05:01Z</time>
      </trkpt>
      <trkpt lat="47.5147" lon="-2.8466">
        <ele>6.2</ele>
        <time>2026-08-25T13:05:02Z</time>
      </trkpt>
      <trkpt lat="47.51474" lon="-2.84662">
        <ele>6.2</ele>
        <time>2026-08-25T13:05:03Z</time>
      </trkpt>
      <trkpt lat="47.51479" lon="-2.84664">
        <ele>6.1</ele>
        <time>2026-08-25T13:05:04Z</time>
      </trkpt>
      <trkpt lat="47.51484" lon="-2.84665">
        <ele>6.1</ele>
        <time>2026-08-25T13:05:05Z</time>
      </trkpt>
      <trkpt lat="47.51488" lon="-2.84667">
        <ele>6</ele>
        <time>2026-08-25T13:05:06Z</time>
      </trkpt>
      <trkpt lat="47.51493" lon="-2.84668">
        <ele>6</ele>
        <time>2026-08-25T13:05:07Z</time>
      </trkpt>
      <trkpt lat="47.51498" lon="-2.84669">
        <ele>5.9</ele>
        <time>2026-08-25T13:05:08Z</time>
      </trkpt>
      <trkpt lat="47.51503" lon="-2.8467">
        <ele>5.9</ele>
        <time>2026-08-25T13:05:09Z</time>
      </trkpt>
      <trkpt lat="47.51507" lon="-2.84671">
        <ele>5.8</ele>
        <time>2026-08-25T13:05:10Z</time>
      </trkpt>
      <trkpt lat="47.51512" lon="-2.84672">
        <ele>5.8</ele>
        <time>2026-08-25T13:05:11Z</time>
      </trkpt>
      <trkpt lat="47.51517" lon="-2.84673">
        <ele>5.8</ele>
        <time>2026-08-25T13:05:12Z</time>
      </trkpt>
      <trkpt lat="47.51522" lon="-2.84673">
        <ele>5.8</ele>
        <time>2026-08-25T13:05:13Z</time>
      </trkpt>
      <trkpt lat="47.51527" lon="-2.84673">
        <ele>5.8</ele>
        <time>2026-08-25T13:05:14Z</time>
      </trkpt>
      <trkpt lat="47.51532" lon="-2.84673">
        <ele>5.8</ele>
        <time>2026-08-25T13:05:15Z</time>
      </trkpt>
      <trkpt lat="47.51538" lon="-2.84673">
        <ele>5.9</ele>
        <time>2026-08-25T13:05:16Z</time>
      </trkpt>
      <trkpt lat="47.51543" lon="-2.84672">
        <ele>5.9</ele>
        <time>2026-08-25T13:05:17Z</time>
      </trkpt>
      <trkpt lat="47.51548" lon="-2.84672">
        <ele>5.9</ele>
        <time>2026-08-25T13:05:18Z</time>
      </trkpt>
      <trkpt lat="47.51553" lon="-2.84672">
        <ele>6</ele>
        <time>2026-08-25T13:05:19Z</time>
      </trkpt>
      <trkpt lat="47.51559" lon="-2.84672">
        <ele>6</ele>
        <time>2026-08-25T13:05:20Z</time>
      </trkpt>
      <trkpt lat="47.51564" lon="-2.84672">
        <ele>5.9</ele>
        <time>2026-08-25T13:05:21Z</time>
      </trkpt>
      <trkpt lat="47.51569" lon="-2.84672">
        <ele>5.9</ele>
        <time>2026-08-25T13:05:22Z</time>
      </trkpt>
      <trkpt lat="47.51575" lon="-2.84671">
        <ele>5.9</ele>
        <time>2026-08-25T13:05:23Z</time>
      </trkpt>
      <trkpt lat="47.5158" lon="-2.84671">
        <ele>5.9</ele>
        <time>2026-08-25T13:05:24Z</time>
      </trkpt>
      <trkpt lat="47.51585" lon="-2.84671">
        <ele>5.8</ele>
        <time>2026-08-25T13:05:25Z</time>
      </trkpt>
      <trkpt lat="47.51591" lon="-2.84671">
        <ele>5.6</ele>
        <time>2026-08-25T13:05:26Z</time>
      </trkpt>
      <trkpt lat="47.51596" lon="-2.84671">
        <ele>5.5</ele>
        <time>2026-08-25T13:05:27Z</time>
      </trkpt>
      <trkpt lat="47.51602" lon="-2.84671">
        <ele>5.3</ele>
        <time>2026-08-25T13:05:28Z</time>
      </trkpt>
      <trkpt lat="47.51607" lon="-2.84671">
        <ele>5.1</ele>
        <time>2026-08-25T13:05:29Z</time>
      </trkpt>
      <trkpt lat="47.51612" lon="-2.84671">
        <ele>5</ele>
        <time>2026-08-25T13:05:30Z</time>
      </trkpt>
      <trkpt lat="47.51618" lon="-2.84671">
        <ele>5</ele>
        <time>2026-08-25T13:05:31Z</time>
      </trkpt>
      <trkpt lat="47.51623" lon="-2.84672">
        <ele>5</ele>
        <time>2026-08-25T13:05:32Z</time>
      </trkpt>
      <trkpt lat="47.51629" lon="-2.84672">
        <ele>5</ele>
        <time>2026-08-25T13:05:33Z</time>
      </trkpt>
      <trkpt lat="47.51634" lon="-2.84673">
        <ele>5</ele>
        <time>2026-08-25T13:05:34Z</time>
      </trkpt>
      <trkpt lat="47.5164" lon="-2.84673">
        <ele>5</ele>
        <time>2026-08-25T13:05:35Z</time>
      </trkpt>
      <trkpt lat="47.51645" lon="-2.84673">
        <ele>5.2</ele>
        <time>2026-08-25T13:05:36Z</time>
      </trkpt>
      <trkpt lat="47.5165" lon="-2.84674">
        <ele>5.3</ele>
        <time>2026-08-25T13:05:37Z</time>
      </trkpt>
      <trkpt lat="47.51656" lon="-2.84674">
        <ele>5.5</ele>
        <time>2026-08-25T13:05:38Z</time>
      </trkpt>
      <trkpt lat="47.51661" lon="-2.84675">
        <ele>5.6</ele>
        <time>2026-08-25T13:05:39Z</time>
      </trkpt>
      <trkpt lat="47.51666" lon="-2.84675">
        <ele>5.7</ele>
        <time>2026-08-25T13:05:40Z</time>
      </trkpt>
      <trkpt lat="47.51671" lon="-2.84676">
        <ele>5.9</ele>
        <time>2026-08-25T13:05:41Z</time>
      </trkpt>
      <trkpt lat="47.51676" lon="-2.84676">
        <ele>6.1</ele>
        <time>2026-08-25T13:05:42Z</time>
      </trkpt>
      <trkpt lat="47.5168" lon="-2.84676">
        <ele>6.3</ele>
        <time>2026-08-25T13:05:43Z</time>
      </trkpt>
      <trkpt lat="47.51685" lon="-2.84676">
        <ele>6.5</ele>
        <time>2026-08-25T13:05:44Z</time>
      </trkpt>
      <trkpt lat="47.5169" lon="-2.84677">
        <ele>6.8</ele>
        <time>2026-08-25T13:05:45Z</time>
      </trkpt>
      <trkpt lat="47.51695" lon="-2.84677">
        <ele>7</ele>
        <time>2026-08-25T13:05:46Z</time>
      </trkpt>
      <trkpt lat="47.51699" lon="-2.84678">
        <ele>7.3</ele>
        <time>2026-08-25T13:05:47Z</time>
      </trkpt>
      <trkpt lat="47.51704" lon="-2.84678">
        <ele>7.5</ele>
        <time>2026-08-25T13:05:48Z</time>
      </trkpt>
      <trkpt lat="47.51709" lon="-2.84679">
        <ele>7.8</ele>
        <time>2026-08-25T13:05:49Z</time>
      </trkpt>
      <trkpt lat="47.51713" lon="-2.84679">
        <ele>8</ele>
        <time>2026-08-25T13:05:50Z</time>
      </trkpt>
      <trkpt lat="47.51718" lon="-2.84679">
        <ele>8.3</ele>
        <time>2026-08-25T13:05:51Z</time>
      </trkpt>
      <trkpt lat="47.51723" lon="-2.84679">
        <ele>8.6</ele>
        <time>2026-08-25T13:05:52Z</time>
      </trkpt>
      <trkpt lat="47.51728" lon="-2.8468">
        <ele>8.7</ele>
        <time>2026-08-25T13:05:53Z</time>
      </trkpt>
      <trkpt lat="47.51733" lon="-2.8468">
        <ele>8.9</ele>
        <time>2026-08-25T13:05:54Z</time>
      </trkpt>
      <trkpt lat="47.51737" lon="-2.8468">
        <ele>9.1</ele>
        <time>2026-08-25T13:05:55Z</time>
      </trkpt>
      <trkpt lat="47.51742" lon="-2.84681">
        <ele>9.2</ele>
        <time>2026-08-25T13:05:56Z</time>
      </trkpt>
      <trkpt lat="47.51747" lon="-2.84681">
        <ele>9.4</ele>
        <time>2026-08-25T13:05:57Z</time>
      </trkpt>
      <trkpt lat="47.51751" lon="-2.84682">
        <ele>9.5</ele>
        <time>2026-08-25T13:05:58Z</time>
      </trkpt>
      <trkpt lat="47.51756" lon="-2.84682">
        <ele>9.6</ele>
        <time>2026-08-25T13:05:59Z</time>
      </trkpt>
      <trkpt lat="47.51761" lon="-2.84682">
        <ele>9.7</ele>
        <time>2026-08-25T13:06:00Z</time>
      </trkpt>
      <trkpt lat="47.51765" lon="-2.84682">
        <ele>9.7</ele>
        <time>2026-08-25T13:06:01Z</time>
      </trkpt>
      <trkpt lat="47.5177" lon="-2.84683">
        <ele>9.8</ele>
        <time>2026-08-25T13:06:02Z</time>
      </trkpt>
      <trkpt lat="47.51774" lon="-2.84683">
        <ele>9.9</ele>
        <time>2026-08-25T13:06:03Z</time>
      </trkpt>
      <trkpt lat="47.51778" lon="-2.84684">
        <ele>10</ele>
        <time>2026-08-25T13:06:04Z</time>
      </trkpt>
      <trkpt lat="47.51782" lon="-2.84684">
        <ele>10.1</ele>
        <time>2026-08-25T13:06:05Z</time>
      </trkpt>
      <trkpt lat="47.51786" lon="-2.84684">
        <ele>10.1</ele>
        <time>2026-08-25T13:06:06Z</time>
      </trkpt>
      <trkpt lat="47.5179" lon="-2.84684">
        <ele>10.2</ele>
        <time>2026-08-25T13:06:07Z</time>
      </trkpt>
      <trkpt lat="47.51795" lon="-2.84685">
        <ele>10.2</ele>
        <time>2026-08-25T13:06:08Z</time>
      </trkpt>
      <trkpt lat="47.51799" lon="-2.84685">
        <ele>10.3</ele>
        <time>2026-08-25T13:06:09Z</time>
      </trkpt>
      <trkpt lat="47.51803" lon="-2.84685">
        <ele>10.3</ele>
        <time>2026-08-25T13:06:10Z</time>
      </trkpt>
      <trkpt lat="47.51807" lon="-2.84685">
        <ele>10.3</ele>
        <time>2026-08-25T13:06:11Z</time>
      </trkpt>
      <trkpt lat="47.51811" lon="-2.84686">
        <ele>10.2</ele>
        <time>2026-08-25T13:06:12Z</time>
      </trkpt>
      <trkpt lat="47.51815" lon="-2.84686">
        <ele>10.2</ele>
        <time>2026-08-25T13:06:13Z</time>
      </trkpt>
      <trkpt lat="47.51819" lon="-2.84686">
        <ele>10.2</ele>
        <time>2026-08-25T13:06:14Z</time>
      </trkpt>
      <trkpt lat="47.51823" lon="-2.84686">
        <ele>10.1</ele>
        <time>2026-08-25T13:06:15Z</time>
      </trkpt>
      <trkpt lat="47.51827" lon="-2.84686">
        <ele>10.1</ele>
        <time>2026-08-25T13:06:16Z</time>
      </trkpt>
      <trkpt lat="47.51831" lon="-2.84686">
        <ele>10</ele>
        <time>2026-08-25T13:06:17Z</time>
      </trkpt>
      <trkpt lat="47.51836" lon="-2.84685">
        <ele>9.8</ele>
        <time>2026-08-25T13:06:18Z</time>
      </trkpt>
      <trkpt lat="47.5184" lon="-2.84685">
        <ele>9.5</ele>
        <time>2026-08-25T13:06:19Z</time>
      </trkpt>
      <trkpt lat="47.51845" lon="-2.84685">
        <ele>9.2</ele>
        <time>2026-08-25T13:06:20Z</time>
      </trkpt>
      <trkpt lat="47.5185" lon="-2.84685">
        <ele>8.8</ele>
        <time>2026-08-25T13:06:21Z</time>
      </trkpt>
      <trkpt lat="47.51856" lon="-2.84685">
        <ele>8.4</ele>
        <time>2026-08-25T13:06:22Z</time>
      </trkpt>
      <trkpt lat="47.51862" lon="-2.84687">
        <ele>7.9</ele>
        <time>2026-08-25T13:06:23Z</time>
      </trkpt>
      <trkpt lat="47.51868" lon="-2.84689">
        <ele>7.5</ele>
        <time>2026-08-25T13:06:24Z</time>
      </trkpt>
      <trkpt lat="47.51874" lon="-2.84692">
        <ele>7.1</ele>
        <time>2026-08-25T13:06:25Z</time>
      </trkpt>
      <trkpt lat="47.51881" lon="-2.84696">
        <ele>6.6</ele>
        <time>2026-08-25T13:06:26Z</time>
      </trkpt>
      <trkpt lat="47.51888" lon="-2.847">
        <ele>6.1</ele>
        <time>2026-08-25T13:06:27Z</time>
      </trkpt>
      <trkpt lat="47.51895" lon="-2.84704">
        <ele>5.6</ele>
        <time>2026-08-25T13:06:28Z</time>
      </trkpt>
      <trkpt lat="47.51903" lon="-2.84707">
        <ele>5</ele>
        <time>2026-08-25T13:06:29Z</time>
      </trkpt>
      <trkpt lat="47.51911" lon="-2.84709">
        <ele>4.4</ele>
        <time>2026-08-25T13:06:30Z</time>
      </trkpt>
      <trkpt lat="47.51918" lon="-2.84711">
        <ele>4</ele>
        <time>2026-08-25T13:06:31Z</time>
      </trkpt>
      <trkpt lat="47.51925" lon="-2.84712">
        <ele>4.3</ele>
        <time>2026-08-25T13:06:32Z</time>
      </trkpt>
      <trkpt lat="47.51932" lon="-2.84712">
        <ele>4.6</ele>
        <time>2026-08-25T13:06:33Z</time>
      </trkpt>
      <trkpt lat="47.51939" lon="-2.84713">
        <ele>4.8</ele>
        <time>2026-08-25T13:06:34Z</time>
      </trkpt>
      <trkpt lat="47.51945" lon="-2.84713">
        <ele>5</ele>
        <time>2026-08-25T13:06:35Z</time>
      </trkpt>
      <trkpt lat="47.51951" lon="-2.84714">
        <ele>5.2</ele>
        <time>2026-08-25T13:06:36Z</time>
      </trkpt>
      <trkpt lat="47.51957" lon="-2.84716">
        <ele>5.5</ele>
        <time>2026-08-25T13:06:37Z</time>
      </trkpt>
      <trkpt lat="47.51961" lon="-2.8472">
        <ele>5.6</ele>
        <time>2026-08-25T13:06:38Z</time>
      </trkpt>
      <trkpt lat="47.51964" lon="-2.84725">
        <ele>5.7</ele>
        <time>2026-08-25T13:06:39Z</time>
      </trkpt>
      <trkpt lat="47.51966" lon="-2.84732">
        <ele>6</ele>
        <time>2026-08-25T13:06:40Z</time>
      </trkpt>
      <trkpt lat="47.51966" lon="-2.84738">
        <ele>6.1</ele>
        <time>2026-08-25T13:06:41Z</time>
      </trkpt>
      <trkpt lat="47.51966" lon="-2.84745">
        <ele>6.2</ele>
        <time>2026-08-25T13:06:42Z</time>
      </trkpt>
      <trkpt lat="47.51966" lon="-2.84752">
        <ele>6.3</ele>
        <time>2026-08-25T13:06:43Z</time>
      </trkpt>
      <trkpt lat="47.51966" lon="-2.84759">
        <ele>6.2</ele>
        <time>2026-08-25T13:06:44Z</time>
      </trkpt>
      <trkpt lat="47.51966" lon="-2.84766">
        <ele>6.1</ele>
        <time>2026-08-25T13:06:45Z</time>
      </trkpt>
      <trkpt lat="47.51966" lon="-2.84773">
        <ele>6</ele>
        <time>2026-08-25T13:06:46Z</time>
      </trkpt>
      <trkpt lat="47.51967" lon="-2.8478">
        <ele>6</ele>
        <time>2026-08-25T13:06:47Z</time>
      </trkpt>
      <trkpt lat="47.51967" lon="-2.84787">
        <ele>5.8</ele>
        <time>2026-08-25T13:06:48Z</time>
      </trkpt>
      <trkpt lat="47.51968" lon="-2.84794">
        <ele>5.7</ele>
        <time>2026-08-25T13:06:49Z</time>
      </trkpt>
      <trkpt lat="47.5197" lon="-2.84801">
        <ele>5.8</ele>
        <time>2026-08-25T13:06:50Z</time>
      </trkpt>
      <trkpt lat="47.51971" lon="-2.84808">
        <ele>5.7</ele>
        <time>2026-08-25T13:06:51Z</time>
      </trkpt>
      <trkpt lat="47.51973" lon="-2.84816">
        <ele>5.3</ele>
        <time>2026-08-25T13:06:52Z</time>
      </trkpt>
      <trkpt lat="47.51974" lon="-2.84824">
        <ele>4.9</ele>
        <time>2026-08-25T13:06:53Z</time>
      </trkpt>
      <trkpt lat="47.51975" lon="-2.84832">
        <ele>4.4</ele>
        <time>2026-08-25T13:06:54Z</time>
      </trkpt>
      <trkpt lat="47.51976" lon="-2.8484">
        <ele>4.3</ele>
        <time>2026-08-25T13:06:55Z</time>
      </trkpt>
      <trkpt lat="47.51977" lon="-2.84848">
        <ele>4.3</ele>
        <time>2026-08-25T13:06:56Z</time>
      </trkpt>
      <trkpt lat="47.51977" lon="-2.84856">
        <ele>4.2</ele>
        <time>2026-08-25T13:06:57Z</time>
      </trkpt>
      <trkpt lat="47.51976" lon="-2.84865">
        <ele>4.1</ele>
        <time>2026-08-25T13:06:58Z</time>
      </trkpt>
      <trkpt lat="47.51975" lon="-2.84873">
        <ele>4.1</ele>
        <time>2026-08-25T13:06:59Z</time>
      </trkpt>
      <trkpt lat="47.51974" lon="-2.84881">
        <ele>4.1</ele>
        <time>2026-08-25T13:07:00Z</time>
      </trkpt>
      <trkpt lat="47.51972" lon="-2.84888">
        <ele>4</ele>
        <time>2026-08-25T13:07:01Z</time>
      </trkpt>
      <trkpt lat="47.5197" lon="-2.84895">
        <ele>4.5</ele>
        <time>2026-08-25T13:07:02Z</time>
      </trkpt>
      <trkpt lat="47.51967" lon="-2.84902">
        <ele>4.9</ele>
        <time>2026-08-25T13:07:03Z</time>
      </trkpt>
      <trkpt lat="47.51965" lon="-2.84908">
        <ele>5.2</ele>
        <time>2026-08-25T13:07:04Z</time>
      </trkpt>
      <trkpt lat="47.51962" lon="-2.84914">
        <ele>5.3</ele>
        <time>2026-08-25T13:07:05Z</time>
      </trkpt>
      <trkpt lat="47.5196" lon="-2.84921">
        <ele>5.6</ele>
        <time>2026-08-25T13:07:06Z</time>
      </trkpt>
      <trkpt lat="47.51957" lon="-2.84926">
        <ele>5.5</ele>
        <time>2026-08-25T13:07:07Z</time>
      </trkpt>
      <trkpt lat="47.51955" lon="-2.84932">
        <ele>5.6</ele>
        <time>2026-08-25T13:07:08Z</time>
      </trkpt>
      <trkpt lat="47.51953" lon="-2.84937">
        <ele>5.7</ele>
        <time>2026-08-25T13:07:09Z</time>
      </trkpt>
      <trkpt lat="47.51951" lon="-2.84943">
        <ele>5.8</ele>
        <time>2026-08-25T13:07:10Z</time>
      </trkpt>
      <trkpt lat="47.5195" lon="-2.84948">
        <ele>5.8</ele>
        <time>2026-08-25T13:07:11Z</time>
      </trkpt>
      <trkpt lat="47.51948" lon="-2.84954">
        <ele>5.5</ele>
        <time>2026-08-25T13:07:12Z</time>
      </trkpt>
      <trkpt lat="47.51947" lon="-2.8496">
        <ele>5.3</ele>
        <time>2026-08-25T13:07:13Z</time>
      </trkpt>
      <trkpt lat="47.51946" lon="-2.84966">
        <ele>5.2</ele>
        <time>2026-08-25T13:07:14Z</time>
      </trkpt>
      <trkpt lat="47.51946" lon="-2.84972">
        <ele>5.2</ele>
        <time>2026-08-25T13:07:15Z</time>
      </trkpt>
      <trkpt lat="47.51945" lon="-2.84979">
        <ele>5.1</ele>
        <time>2026-08-25T13:07:16Z</time>
      </trkpt>
      <trkpt lat="47.51945" lon="-2.84985">
        <ele>5.1</ele>
        <time>2026-08-25T13:07:17Z</time>
      </trkpt>
      <trkpt lat="47.51945" lon="-2.84991">
        <ele>5.1</ele>
        <time>2026-08-25T13:07:18Z</time>
      </trkpt>
      <trkpt lat="47.51945" lon="-2.84998">
        <ele>5.1</ele>
        <time>2026-08-25T13:07:19Z</time>
      </trkpt>
      <trkpt lat="47.51946" lon="-2.85005">
        <ele>5.2</ele>
        <time>2026-08-25T13:07:20Z</time>
      </trkpt>
      <trkpt lat="47.51946" lon="-2.85012">
        <ele>5.1</ele>
        <time>2026-08-25T13:07:21Z</time>
      </trkpt>
      <trkpt lat="47.51946" lon="-2.85019">
        <ele>5.1</ele>
        <time>2026-08-25T13:07:22Z</time>
      </trkpt>
      <trkpt lat="47.51946" lon="-2.85026">
        <ele>5.1</ele>
        <time>2026-08-25T13:07:23Z</time>
      </trkpt>
      <trkpt lat="47.51946" lon="-2.85033">
        <ele>5.1</ele>
        <time>2026-08-25T13:07:24Z</time>
      </trkpt>
      <trkpt lat="47.51946" lon="-2.8504">
        <ele>5.1</ele>
        <time>2026-08-25T13:07:25Z</time>
      </trkpt>
      <trkpt lat="47.51946" lon="-2.85047">
        <ele>5.1</ele>
        <time>2026-08-25T13:07:26Z</time>
      </trkpt>
      <trkpt lat="47.51946" lon="-2.85054">
        <ele>5.1</ele>
        <time>2026-08-25T13:07:27Z</time>
      </trkpt>
      <trkpt lat="47.51946" lon="-2.85061">
        <ele>5.1</ele>
        <time>2026-08-25T13:07:28Z</time>
      </trkpt>
      <trkpt lat="47.51946" lon="-2.85068">
        <ele>5.2</ele>
        <time>2026-08-25T13:07:29Z</time>
      </trkpt>
      <trkpt lat="47.51945" lon="-2.85075">
        <ele>5.1</ele>
        <time>2026-08-25T13:07:30Z</time>
      </trkpt>
      <trkpt lat="47.51945" lon="-2.85081">
        <ele>5.1</ele>
        <time>2026-08-25T13:07:31Z</time>
      </trkpt>
      <trkpt lat="47.51944" lon="-2.85087">
        <ele>5.2</ele>
        <time>2026-08-25T13:07:32Z</time>
      </trkpt>
      <trkpt lat="47.51943" lon="-2.85093">
        <ele>5.6</ele>
        <time>2026-08-25T13:07:33Z</time>
      </trkpt>
      <trkpt lat="47.51942" lon="-2.85099">
        <ele>5.9</ele>
        <time>2026-08-25T13:07:34Z</time>
      </trkpt>
      <trkpt lat="47.51941" lon="-2.85105">
        <ele>6.1</ele>
        <time>2026-08-25T13:07:35Z</time>
      </trkpt>
      <trkpt lat="47.5194" lon="-2.85111">
        <ele>6.4</ele>
        <time>2026-08-25T13:07:36Z</time>
      </trkpt>
      <trkpt lat="47.51939" lon="-2.85116">
        <ele>6.5</ele>
        <time>2026-08-25T13:07:37Z</time>
      </trkpt>
      <trkpt lat="47.51938" lon="-2.85122">
        <ele>6.8</ele>
        <time>2026-08-25T13:07:38Z</time>
      </trkpt>
      <trkpt lat="47.51937" lon="-2.85127">
        <ele>6.9</ele>
        <time>2026-08-25T13:07:39Z</time>
      </trkpt>
      <trkpt lat="47.51935" lon="-2.85133">
        <ele>6.9</ele>
        <time>2026-08-25T13:07:40Z</time>
      </trkpt>
      <trkpt lat="47.51934" lon="-2.85138">
        <ele>7.1</ele>
        <time>2026-08-25T13:07:41Z</time>
      </trkpt>
      <trkpt lat="47.51933" lon="-2.85144">
        <ele>6.9</ele>
        <time>2026-08-25T13:07:42Z</time>
      </trkpt>
      <trkpt lat="47.51932" lon="-2.85149">
        <ele>6.8</ele>
        <time>2026-08-25T13:07:43Z</time>
      </trkpt>
      <trkpt lat="47.5193" lon="-2.85155">
        <ele>6.4</ele>
        <time>2026-08-25T13:07:44Z</time>
      </trkpt>
      <trkpt lat="47.51929" lon="-2.8516">
        <ele>6.2</ele>
        <time>2026-08-25T13:07:45Z</time>
      </trkpt>
      <trkpt lat="47.51928" lon="-2.85166">
        <ele>6</ele>
        <time>2026-08-25T13:07:46Z</time>
      </trkpt>
      <trkpt lat="47.51928" lon="-2.85172">
        <ele>6</ele>
        <time>2026-08-25T13:07:47Z</time>
      </trkpt>
      <trkpt lat="47.51927" lon="-2.85178">
        <ele>5.9</ele>
        <time>2026-08-25T13:07:48Z</time>
      </trkpt>
      <trkpt lat="47.51927" lon="-2.85184">
        <ele>5.9</ele>
        <time>2026-08-25T13:07:49Z</time>
      </trkpt>
      <trkpt lat="47.51927" lon="-2.8519">
        <ele>5.9</ele>
        <time>2026-08-25T13:07:50Z</time>
      </trkpt>
      <trkpt lat="47.51927" lon="-2.85196">
        <ele>5.9</ele>
        <time>2026-08-25T13:07:51Z</time>
      </trkpt>
      <trkpt lat="47.51927" lon="-2.85203">
        <ele>6</ele>
        <time>2026-08-25T13:07:52Z</time>
      </trkpt>
      <trkpt lat="47.51927" lon="-2.85209">
        <ele>6.1</ele>
        <time>2026-08-25T13:07:53Z</time>
      </trkpt>
      <trkpt lat="47.51927" lon="-2.85215">
        <ele>6.1</ele>
        <time>2026-08-25T13:07:54Z</time>
      </trkpt>
      <trkpt lat="47.51928" lon="-2.85221">
        <ele>6.4</ele>
        <time>2026-08-25T13:07:55Z</time>
      </trkpt>
      <trkpt lat="47.51928" lon="-2.85228">
        <ele>6.3</ele>
        <time>2026-08-25T13:07:56Z</time>
      </trkpt>
      <trkpt lat="47.51928" lon="-2.85234">
        <ele>6.2</ele>
        <time>2026-08-25T13:07:57Z</time>
      </trkpt>
      <trkpt lat="47.51927" lon="-2.85241">
        <ele>5.8</ele>
        <time>2026-08-25T13:07:58Z</time>
      </trkpt>
      <trkpt lat="47.51927" lon="-2.85249">
        <ele>5.6</ele>
        <time>2026-08-25T13:07:59Z</time>
      </trkpt>
      <trkpt lat="47.51926" lon="-2.85256">
        <ele>5.6</ele>
        <time>2026-08-25T13:08:00Z</time>
      </trkpt>
      <trkpt lat="47.51925" lon="-2.85263">
        <ele>5.6</ele>
        <time>2026-08-25T13:08:01Z</time>
      </trkpt>
      <trkpt lat="47.51924" lon="-2.8527">
        <ele>5.6</ele>
        <time>2026-08-25T13:08:02Z</time>
      </trkpt>
      <trkpt lat="47.51922" lon="-2.85277">
        <ele>5.3</ele>
        <time>2026-08-25T13:08:03Z</time>
      </trkpt>
      <trkpt lat="47.51921" lon="-2.85284">
        <ele>5.5</ele>
        <time>2026-08-25T13:08:04Z</time>
      </trkpt>
      <trkpt lat="47.51919" lon="-2.85291">
        <ele>5.5</ele>
        <time>2026-08-25T13:08:05Z</time>
      </trkpt>
      <trkpt lat="47.51918" lon="-2.85298">
        <ele>5.7</ele>
        <time>2026-08-25T13:08:06Z</time>
      </trkpt>
      <trkpt lat="47.51916" lon="-2.85305">
        <ele>5.9</ele>
        <time>2026-08-25T13:08:07Z</time>
      </trkpt>
      <trkpt lat="47.51915" lon="-2.85311">
        <ele>5.8</ele>
        <time>2026-08-25T13:08:08Z</time>
      </trkpt>
      <trkpt lat="47.51913" lon="-2.85318">
        <ele>5.6</ele>
        <time>2026-08-25T13:08:09Z</time>
      </trkpt>
      <trkpt lat="47.51911" lon="-2.85324">
        <ele>5.4</ele>
        <time>2026-08-25T13:08:10Z</time>
      </trkpt>
      <trkpt lat="47.51909" lon="-2.8533">
        <ele>5.2</ele>
        <time>2026-08-25T13:08:11Z</time>
      </trkpt>
      <trkpt lat="47.51907" lon="-2.85337">
        <ele>4.8</ele>
        <time>2026-08-25T13:08:12Z</time>
      </trkpt>
      <trkpt lat="47.51905" lon="-2.85344">
        <ele>4.5</ele>
        <time>2026-08-25T13:08:13Z</time>
      </trkpt>
      <trkpt lat="47.51903" lon="-2.8535">
        <ele>4.2</ele>
        <time>2026-08-25T13:08:14Z</time>
      </trkpt>
      <trkpt lat="47.51901" lon="-2.85357">
        <ele>4</ele>
        <time>2026-08-25T13:08:15Z</time>
      </trkpt>
      <trkpt lat="47.519" lon="-2.85364">
        <ele>4</ele>
        <time>2026-08-25T13:08:16Z</time>
      </trkpt>
      <trkpt lat="47.51899" lon="-2.85371">
        <ele>4</ele>
        <time>2026-08-25T13:08:17Z</time>
      </trkpt>
      <trkpt lat="47.51898" lon="-2.85377">
        <ele>4</ele>
        <time>2026-08-25T13:08:18Z</time>
      </trkpt>
      <trkpt lat="47.51898" lon="-2.85384">
        <ele>4</ele>
        <time>2026-08-25T13:08:19Z</time>
      </trkpt>
      <trkpt lat="47.51898" lon="-2.85391">
        <ele>4</ele>
        <time>2026-08-25T13:08:20Z</time>
      </trkpt>
      <trkpt lat="47.51898" lon="-2.85398">
        <ele>4</ele>
        <time>2026-08-25T13:08:21Z</time>
      </trkpt>
      <trkpt lat="47.51899" lon="-2.85404">
        <ele>4</ele>
        <time>2026-08-25T13:08:22Z</time>
      </trkpt>
      <trkpt lat="47.519" lon="-2.8541">
        <ele>4</ele>
        <time>2026-08-25T13:08:23Z</time>
      </trkpt>
      <trkpt lat="47.519" lon="-2.85416">
        <ele>4</ele>
        <time>2026-08-25T13:08:24Z</time>
      </trkpt>
      <trkpt lat="47.51901" lon="-2.85422">
        <ele>4.1</ele>
        <time>2026-08-25T13:08:25Z</time>
      </trkpt>
      <trkpt lat="47.51902" lon="-2.85428">
        <ele>4.2</ele>
        <time>2026-08-25T13:08:26Z</time>
      </trkpt>
      <trkpt lat="47.51903" lon="-2.85434">
        <ele>4.3</ele>
        <time>2026-08-25T13:08:27Z</time>
      </trkpt>
      <trkpt lat="47.51903" lon="-2.8544">
        <ele>4.4</ele>
        <time>2026-08-25T13:08:28Z</time>
      </trkpt>
      <trkpt lat="47.51904" lon="-2.85446">
        <ele>4.5</ele>
        <time>2026-08-25T13:08:29Z</time>
      </trkpt>
      <trkpt lat="47.51905" lon="-2.85452">
        <ele>4.4</ele>
        <time>2026-08-25T13:08:30Z</time>
      </trkpt>
      <trkpt lat="47.51906" lon="-2.85458">
        <ele>4.3</ele>
        <time>2026-08-25T13:08:31Z</time>
      </trkpt>
      <trkpt lat="47.51907" lon="-2.85464">
        <ele>4.2</ele>
        <time>2026-08-25T13:08:32Z</time>
      </trkpt>
      <trkpt lat="47.51908" lon="-2.8547">
        <ele>4.1</ele>
        <time>2026-08-25T13:08:33Z</time>
      </trkpt>
      <trkpt lat="47.51909" lon="-2.85476">
        <ele>4</ele>
        <time>2026-08-25T13:08:34Z</time>
      </trkpt>
      <trkpt lat="47.51909" lon="-2.85482">
        <ele>4.1</ele>
        <time>2026-08-25T13:08:35Z</time>
      </trkpt>
      <trkpt lat="47.5191" lon="-2.85488">
        <ele>4.1</ele>
        <time>2026-08-25T13:08:36Z</time>
      </trkpt>
      <trkpt lat="47.5191" lon="-2.85494">
        <ele>4.2</ele>
        <time>2026-08-25T13:08:37Z</time>
      </trkpt>
      <trkpt lat="47.5191" lon="-2.85499">
        <ele>4.2</ele>
        <time>2026-08-25T13:08:38Z</time>
      </trkpt>
      <trkpt lat="47.51911" lon="-2.85505">
        <ele>4.2</ele>
        <time>2026-08-25T13:08:39Z</time>
      </trkpt>
      <trkpt lat="47.51911" lon="-2.85511">
        <ele>4.2</ele>
        <time>2026-08-25T13:08:40Z</time>
      </trkpt>
      <trkpt lat="47.51912" lon="-2.85518">
        <ele>4.2</ele>
        <time>2026-08-25T13:08:41Z</time>
      </trkpt>
      <trkpt lat="47.51912" lon="-2.85524">
        <ele>4.2</ele>
        <time>2026-08-25T13:08:42Z</time>
      </trkpt>
      <trkpt lat="47.51913" lon="-2.8553">
        <ele>4.2</ele>
        <time>2026-08-25T13:08:43Z</time>
      </trkpt>
      <trkpt lat="47.51913" lon="-2.85537">
        <ele>4.4</ele>
        <time>2026-08-25T13:08:44Z</time>
      </trkpt>
      <trkpt lat="47.51913" lon="-2.85543">
        <ele>4.6</ele>
        <time>2026-08-25T13:08:45Z</time>
      </trkpt>
      <trkpt lat="47.51914" lon="-2.85549">
        <ele>4.8</ele>
        <time>2026-08-25T13:08:46Z</time>
      </trkpt>
      <trkpt lat="47.51914" lon="-2.85555">
        <ele>5</ele>
        <time>2026-08-25T13:08:47Z</time>
      </trkpt>
      <trkpt lat="47.51914" lon="-2.85561">
        <ele>5</ele>
        <time>2026-08-25T13:08:48Z</time>
      </trkpt>
      <trkpt lat="47.51915" lon="-2.85566">
        <ele>5</ele>
        <time>2026-08-25T13:08:49Z</time>
      </trkpt>
      <trkpt lat="47.51915" lon="-2.85572">
        <ele>5</ele>
        <time>2026-08-25T13:08:50Z</time>
      </trkpt>
      <trkpt lat="47.51915" lon="-2.85579">
        <ele>5</ele>
        <time>2026-08-25T13:08:51Z</time>
      </trkpt>
      <trkpt lat="47.51914" lon="-2.85584">
        <ele>5</ele>
        <time>2026-08-25T13:08:52Z</time>
      </trkpt>
      <trkpt lat="47.51914" lon="-2.8559">
        <ele>5</ele>
        <time>2026-08-25T13:08:53Z</time>
      </trkpt>
      <trkpt lat="47.51914" lon="-2.85596">
        <ele>5</ele>
        <time>2026-08-25T13:08:54Z</time>
      </trkpt>
      <trkpt lat="47.51915" lon="-2.85602">
        <ele>5</ele>
        <time>2026-08-25T13:08:55Z</time>
      </trkpt>
      <trkpt lat="47.51915" lon="-2.85607">
        <ele>5</ele>
        <time>2026-08-25T13:08:56Z</time>
      </trkpt>
      <trkpt lat="47.51915" lon="-2.85614">
        <ele>5</ele>
        <time>2026-08-25T13:08:57Z</time>
      </trkpt>
      <trkpt lat="47.51915" lon="-2.8562">
        <ele>5</ele>
        <time>2026-08-25T13:08:58Z</time>
      </trkpt>
      <trkpt lat="47.51915" lon="-2.85626">
        <ele>5</ele>
        <time>2026-08-25T13:08:59Z</time>
      </trkpt>
      <trkpt lat="47.51915" lon="-2.85633">
        <ele>5</ele>
        <time>2026-08-25T13:09:00Z</time>
      </trkpt>
      <trkpt lat="47.51915" lon="-2.85639">
        <ele>5</ele>
        <time>2026-08-25T13:09:01Z</time>
      </trkpt>
      <trkpt lat="47.51915" lon="-2.85645">
        <ele>5</ele>
        <time>2026-08-25T13:09:02Z</time>
      </trkpt>
      <trkpt lat="47.51915" lon="-2.85651">
        <ele>5</ele>
        <time>2026-08-25T13:09:03Z</time>
      </trkpt>
      <trkpt lat="47.51915" lon="-2.85657">
        <ele>5</ele>
        <time>2026-08-25T13:09:04Z</time>
      </trkpt>
      <trkpt lat="47.51915" lon="-2.85663">
        <ele>5</ele>
        <time>2026-08-25T13:09:05Z</time>
      </trkpt>
      <trkpt lat="47.51914" lon="-2.85669">
        <ele>5</ele>
        <time>2026-08-25T13:09:06Z</time>
      </trkpt>
      <trkpt lat="47.51914" lon="-2.85675">
        <ele>5</ele>
        <time>2026-08-25T13:09:07Z</time>
      </trkpt>
      <trkpt lat="47.51914" lon="-2.85681">
        <ele>5</ele>
        <time>2026-08-25T13:09:08Z</time>
      </trkpt>
      <trkpt lat="47.51914" lon="-2.85688">
        <ele>4.9</ele>
        <time>2026-08-25T13:09:09Z</time>
      </trkpt>
      <trkpt lat="47.51914" lon="-2.85694">
        <ele>4.9</ele>
        <time>2026-08-25T13:09:10Z</time>
      </trkpt>
      <trkpt lat="47.51914" lon="-2.857">
        <ele>4.9</ele>
        <time>2026-08-25T13:09:11Z</time>
      </trkpt>
      <trkpt lat="47.51914" lon="-2.85707">
        <ele>4.9</ele>
        <time>2026-08-25T13:09:12Z</time>
      </trkpt>
      <trkpt lat="47.51914" lon="-2.85713">
        <ele>4.8</ele>
        <time>2026-08-25T13:09:13Z</time>
      </trkpt>
      <trkpt lat="47.51914" lon="-2.85719">
        <ele>4.8</ele>
        <time>2026-08-25T13:09:14Z</time>
      </trkpt>
      <trkpt lat="47.51914" lon="-2.85725">
        <ele>4.9</ele>
        <time>2026-08-25T13:09:15Z</time>
      </trkpt>
      <trkpt lat="47.51913" lon="-2.85732">
        <ele>5</ele>
        <time>2026-08-25T13:09:16Z</time>
      </trkpt>
      <trkpt lat="47.51914" lon="-2.85738">
        <ele>5.3</ele>
        <time>2026-08-25T13:09:17Z</time>
      </trkpt>
      <trkpt lat="47.51914" lon="-2.85744">
        <ele>5.5</ele>
        <time>2026-08-25T13:09:18Z</time>
      </trkpt>
      <trkpt lat="47.51914" lon="-2.8575">
        <ele>5.7</ele>
        <time>2026-08-25T13:09:19Z</time>
      </trkpt>
      <trkpt lat="47.51914" lon="-2.85756">
        <ele>6</ele>
        <time>2026-08-25T13:09:20Z</time>
      </trkpt>
      <trkpt lat="47.51914" lon="-2.85761">
        <ele>6.2</ele>
        <time>2026-08-25T13:09:21Z</time>
      </trkpt>
      <trkpt lat="47.51914" lon="-2.85767">
        <ele>6.4</ele>
        <time>2026-08-25T13:09:22Z</time>
      </trkpt>
      <trkpt lat="47.51915" lon="-2.85771">
        <ele>6.7</ele>
        <time>2026-08-25T13:09:23Z</time>
      </trkpt>
      <trkpt lat="47.51915" lon="-2.85776">
        <ele>6.9</ele>
        <time>2026-08-25T13:09:24Z</time>
      </trkpt>
      <trkpt lat="47.51917" lon="-2.8578">
        <ele>7.1</ele>
        <time>2026-08-25T13:09:25Z</time>
      </trkpt>
      <trkpt lat="47.51918" lon="-2.85784">
        <ele>7.3</ele>
        <time>2026-08-25T13:09:26Z</time>
      </trkpt>
      <trkpt lat="47.5192" lon="-2.85788">
        <ele>7.4</ele>
        <time>2026-08-25T13:09:27Z</time>
      </trkpt>
      <trkpt lat="47.51922" lon="-2.85792">
        <ele>7.6</ele>
        <time>2026-08-25T13:09:28Z</time>
      </trkpt>
      <trkpt lat="47.51924" lon="-2.85796">
        <ele>7.7</ele>
        <time>2026-08-25T13:09:29Z</time>
      </trkpt>
      <trkpt lat="47.51927" lon="-2.85799">
        <ele>7.9</ele>
        <time>2026-08-25T13:09:30Z</time>
      </trkpt>
      <trkpt lat="47.51929" lon="-2.85802">
        <ele>7.9</ele>
        <time>2026-08-25T13:09:31Z</time>
      </trkpt>
      <trkpt lat="47.51931" lon="-2.85805">
        <ele>8</ele>
        <time>2026-08-25T13:09:32Z</time>
      </trkpt>
      <trkpt lat="47.51934" lon="-2.85808">
        <ele>7.9</ele>
        <time>2026-08-25T13:09:33Z</time>
      </trkpt>
      <trkpt lat="47.51936" lon="-2.8581">
        <ele>7.9</ele>
        <time>2026-08-25T13:09:34Z</time>
      </trkpt>
      <trkpt lat="47.51938" lon="-2.85812">
        <ele>8</ele>
        <time>2026-08-25T13:09:35Z</time>
      </trkpt>
      <trkpt lat="47.5194" lon="-2.85814">
        <ele>8.1</ele>
        <time>2026-08-25T13:09:36Z</time>
      </trkpt>
      <trkpt lat="47.51943" lon="-2.85815">
        <ele>8.3</ele>
        <time>2026-08-25T13:09:37Z</time>
      </trkpt>
      <trkpt lat="47.51945" lon="-2.85817">
        <ele>8.4</ele>
        <time>2026-08-25T13:09:38Z</time>
      </trkpt>
      <trkpt lat="47.51948" lon="-2.85819">
        <ele>8.6</ele>
        <time>2026-08-25T13:09:39Z</time>
      </trkpt>
      <trkpt lat="47.51951" lon="-2.85821">
        <ele>8.7</ele>
        <time>2026-08-25T13:09:40Z</time>
      </trkpt>
      <trkpt lat="47.51954" lon="-2.85822">
        <ele>8.7</ele>
        <time>2026-08-25T13:09:41Z</time>
      </trkpt>
      <trkpt lat="47.51957" lon="-2.85823">
        <ele>8.8</ele>
        <time>2026-08-25T13:09:42Z</time>
      </trkpt>
      <trkpt lat="47.5196" lon="-2.85824">
        <ele>8.9</ele>
        <time>2026-08-25T13:09:43Z</time>
      </trkpt>
      <trkpt lat="47.51963" lon="-2.85825">
        <ele>8.9</ele>
        <time>2026-08-25T13:09:44Z</time>
      </trkpt>
      <trkpt lat="47.51967" lon="-2.85825">
        <ele>8.9</ele>
        <time>2026-08-25T13:09:45Z</time>
      </trkpt>
      <trkpt lat="47.5197" lon="-2.85826">
        <ele>9</ele>
        <time>2026-08-25T13:09:46Z</time>
      </trkpt>
      <trkpt lat="47.51973" lon="-2.85825">
        <ele>9</ele>
        <time>2026-08-25T13:09:47Z</time>
      </trkpt>
      <trkpt lat="47.51976" lon="-2.85825">
        <ele>9.1</ele>
        <time>2026-08-25T13:09:48Z</time>
      </trkpt>
      <trkpt lat="47.5198" lon="-2.85825">
        <ele>9.2</ele>
        <time>2026-08-25T13:09:49Z</time>
      </trkpt>
      <trkpt lat="47.51983" lon="-2.85825">
        <ele>9.3</ele>
        <time>2026-08-25T13:09:50Z</time>
      </trkpt>
      <trkpt lat="47.51986" lon="-2.85825">
        <ele>9.3</ele>
        <time>2026-08-25T13:09:51Z</time>
      </trkpt>
      <trkpt lat="47.5199" lon="-2.85825">
        <ele>9.4</ele>
        <time>2026-08-25T13:09:52Z</time>
      </trkpt>
      <trkpt lat="47.51994" lon="-2.85824">
        <ele>9.5</ele>
        <time>2026-08-25T13:09:53Z</time>
      </trkpt>
      <trkpt lat="47.51997" lon="-2.85824">
        <ele>9.6</ele>
        <time>2026-08-25T13:09:54Z</time>
      </trkpt>
      <trkpt lat="47.52001" lon="-2.85824">
        <ele>9.7</ele>
        <time>2026-08-25T13:09:55Z</time>
      </trkpt>
      <trkpt lat="47.52005" lon="-2.85823">
        <ele>9.7</ele>
        <time>2026-08-25T13:09:56Z</time>
      </trkpt>
      <trkpt lat="47.52009" lon="-2.85824">
        <ele>9.8</ele>
        <time>2026-08-25T13:09:57Z</time>
      </trkpt>
      <trkpt lat="47.52013" lon="-2.85824">
        <ele>9.8</ele>
        <time>2026-08-25T13:09:58Z</time>
      </trkpt>
      <trkpt lat="47.52016" lon="-2.85824">
        <ele>9.9</ele>
        <time>2026-08-25T13:09:59Z</time>
      </trkpt>
      <trkpt lat="47.5202" lon="-2.85825">
        <ele>9.9</ele>
        <time>2026-08-25T13:10:00Z</time>
      </trkpt>
      <trkpt lat="47.52024" lon="-2.85826">
        <ele>10</ele>
        <time>2026-08-25T13:10:01Z</time>
      </trkpt>
      <trkpt lat="47.52027" lon="-2.85826">
        <ele>10</ele>
        <time>2026-08-25T13:10:02Z</time>
      </trkpt>
      <trkpt lat="47.52031" lon="-2.85826">
        <ele>10</ele>
        <time>2026-08-25T13:10:03Z</time>
      </trkpt>
      <trkpt lat="47.52035" lon="-2.85827">
        <ele>10</ele>
        <time>2026-08-25T13:10:04Z</time>
      </trkpt>
      <trkpt lat="47.52039" lon="-2.85828">
        <ele>10</ele>
        <time>2026-08-25T13:10:05Z</time>
      </trkpt>
      <trkpt lat="47.52042" lon="-2.85828">
        <ele>10</ele>
        <time>2026-08-25T13:10:06Z</time>
      </trkpt>
      <trkpt lat="47.52046" lon="-2.85829">
        <ele>10</ele>
        <time>2026-08-25T13:10:07Z</time>
      </trkpt>
      <trkpt lat="47.5205" lon="-2.85829">
        <ele>10</ele>
        <time>2026-08-25T13:10:08Z</time>
      </trkpt>
      <trkpt lat="47.52054" lon="-2.85829">
        <ele>10</ele>
        <time>2026-08-25T13:10:09Z</time>
      </trkpt>
      <trkpt lat="47.52058" lon="-2.8583">
        <ele>10</ele>
        <time>2026-08-25T13:10:10Z</time>
      </trkpt>
      <trkpt lat="47.52061" lon="-2.85829">
        <ele>10</ele>
        <time>2026-08-25T13:10:11Z</time>
      </trkpt>
      <trkpt lat="47.52065" lon="-2.85829">
        <ele>10.1</ele>
        <time>2026-08-25T13:10:12Z</time>
      </trkpt>
      <trkpt lat="47.52069" lon="-2.85829">
        <ele>10.1</ele>
        <time>2026-08-25T13:10:13Z</time>
      </trkpt>
      <trkpt lat="47.52073" lon="-2.8583">
        <ele>10.1</ele>
        <time>2026-08-25T13:10:14Z</time>
      </trkpt>
      <trkpt lat="47.52077" lon="-2.8583">
        <ele>10.1</ele>
        <time>2026-08-25T13:10:15Z</time>
      </trkpt>
      <trkpt lat="47.5208" lon="-2.85831">
        <ele>10.1</ele>
        <time>2026-08-25T13:10:16Z</time>
      </trkpt>
      <trkpt lat="47.52084" lon="-2.85832">
        <ele>10</ele>
        <time>2026-08-25T13:10:17Z</time>
      </trkpt>
      <trkpt lat="47.52088" lon="-2.85833">
        <ele>10</ele>
        <time>2026-08-25T13:10:18Z</time>
      </trkpt>
      <trkpt lat="47.52092" lon="-2.85835">
        <ele>10</ele>
        <time>2026-08-25T13:10:19Z</time>
      </trkpt>
      <trkpt lat="47.52096" lon="-2.85836">
        <ele>10.1</ele>
        <time>2026-08-25T13:10:20Z</time>
      </trkpt>
      <trkpt lat="47.521" lon="-2.85838">
        <ele>10.1</ele>
        <time>2026-08-25T13:10:21Z</time>
      </trkpt>
      <trkpt lat="47.52104" lon="-2.85839">
        <ele>10.1</ele>
        <time>2026-08-25T13:10:22Z</time>
      </trkpt>
      <trkpt lat="47.52108" lon="-2.85841">
        <ele>10</ele>
        <time>2026-08-25T13:10:23Z</time>
      </trkpt>
      <trkpt lat="47.52112" lon="-2.85842">
        <ele>10</ele>
        <time>2026-08-25T13:10:24Z</time>
      </trkpt>
      <trkpt lat="47.52117" lon="-2.85843">
        <ele>10</ele>
        <time>2026-08-25T13:10:25Z</time>
      </trkpt>
      <trkpt lat="47.52121" lon="-2.85843">
        <ele>10</ele>
        <time>2026-08-25T13:10:26Z</time>
      </trkpt>
      <trkpt lat="47.52125" lon="-2.85844">
        <ele>10</ele>
        <time>2026-08-25T13:10:27Z</time>
      </trkpt>
      <trkpt lat="47.5213" lon="-2.85843">
        <ele>10</ele>
        <time>2026-08-25T13:10:28Z</time>
      </trkpt>
      <trkpt lat="47.52134" lon="-2.85842">
        <ele>10</ele>
        <time>2026-08-25T13:10:29Z</time>
      </trkpt>
      <trkpt lat="47.52138" lon="-2.85841">
        <ele>10</ele>
        <time>2026-08-25T13:10:30Z</time>
      </trkpt>
      <trkpt lat="47.52142" lon="-2.85839">
        <ele>10</ele>
        <time>2026-08-25T13:10:31Z</time>
      </trkpt>
      <trkpt lat="47.52146" lon="-2.85837">
        <ele>10</ele>
        <time>2026-08-25T13:10:32Z</time>
      </trkpt>
      <trkpt lat="47.5215" lon="-2.85835">
        <ele>10</ele>
        <time>2026-08-25T13:10:33Z</time>
      </trkpt>
      <trkpt lat="47.52154" lon="-2.85832">
        <ele>10</ele>
        <time>2026-08-25T13:10:34Z</time>
      </trkpt>
      <trkpt lat="47.52157" lon="-2.85829">
        <ele>10.1</ele>
        <time>2026-08-25T13:10:35Z</time>
      </trkpt>
      <trkpt lat="47.52161" lon="-2.85826">
        <ele>10.2</ele>
        <time>2026-08-25T13:10:36Z</time>
      </trkpt>
      <trkpt lat="47.52165" lon="-2.85824">
        <ele>10.3</ele>
        <time>2026-08-25T13:10:37Z</time>
      </trkpt>
      <trkpt lat="47.52168" lon="-2.85822">
        <ele>10.4</ele>
        <time>2026-08-25T13:10:38Z</time>
      </trkpt>
      <trkpt lat="47.52172" lon="-2.8582">
        <ele>10.5</ele>
        <time>2026-08-25T13:10:39Z</time>
      </trkpt>
      <trkpt lat="47.52176" lon="-2.85819">
        <ele>10.5</ele>
        <time>2026-08-25T13:10:40Z</time>
      </trkpt>
      <trkpt lat="47.5218" lon="-2.85818">
        <ele>10.6</ele>
        <time>2026-08-25T13:10:41Z</time>
      </trkpt>
      <trkpt lat="47.52184" lon="-2.85817">
        <ele>10.6</ele>
        <time>2026-08-25T13:10:42Z</time>
      </trkpt>
      <trkpt lat="47.52188" lon="-2.85816">
        <ele>10.6</ele>
        <time>2026-08-25T13:10:43Z</time>
      </trkpt>
      <trkpt lat="47.52192" lon="-2.85816">
        <ele>10.6</ele>
        <time>2026-08-25T13:10:44Z</time>
      </trkpt>
      <trkpt lat="47.52195" lon="-2.85815">
        <ele>10.6</ele>
        <time>2026-08-25T13:10:45Z</time>
      </trkpt>
      <trkpt lat="47.52199" lon="-2.85815">
        <ele>10.5</ele>
        <time>2026-08-25T13:10:46Z</time>
      </trkpt>
      <trkpt lat="47.52203" lon="-2.85815">
        <ele>10.4</ele>
        <time>2026-08-25T13:10:47Z</time>
      </trkpt>
      <trkpt lat="47.52207" lon="-2.85816">
        <ele>10.2</ele>
        <time>2026-08-25T13:10:48Z</time>
      </trkpt>
      <trkpt lat="47.52211" lon="-2.85816">
        <ele>10</ele>
        <time>2026-08-25T13:10:49Z</time>
      </trkpt>
      <trkpt lat="47.52215" lon="-2.85817">
        <ele>9.8</ele>
        <time>2026-08-25T13:10:50Z</time>
      </trkpt>
      <trkpt lat="47.52219" lon="-2.85819">
        <ele>9.6</ele>
        <time>2026-08-25T13:10:51Z</time>
      </trkpt>
      <trkpt lat="47.52223" lon="-2.8582">
        <ele>9.5</ele>
        <time>2026-08-25T13:10:52Z</time>
      </trkpt>
      <trkpt lat="47.52227" lon="-2.85822">
        <ele>9.3</ele>
        <time>2026-08-25T13:10:53Z</time>
      </trkpt>
      <trkpt lat="47.52231" lon="-2.85824">
        <ele>9.2</ele>
        <time>2026-08-25T13:10:54Z</time>
      </trkpt>
      <trkpt lat="47.52236" lon="-2.85826">
        <ele>9.1</ele>
        <time>2026-08-25T13:10:55Z</time>
      </trkpt>
      <trkpt lat="47.5224" lon="-2.85828">
        <ele>9.1</ele>
        <time>2026-08-25T13:10:56Z</time>
      </trkpt>
      <trkpt lat="47.52244" lon="-2.85831">
        <ele>9</ele>
        <time>2026-08-25T13:10:57Z</time>
      </trkpt>
      <trkpt lat="47.52249" lon="-2.85833">
        <ele>9</ele>
        <time>2026-08-25T13:10:58Z</time>
      </trkpt>
      <trkpt lat="47.52254" lon="-2.85835">
        <ele>8.9</ele>
        <time>2026-08-25T13:10:59Z</time>
      </trkpt>
      <trkpt lat="47.52259" lon="-2.85836">
        <ele>8.7</ele>
        <time>2026-08-25T13:11:00Z</time>
      </trkpt>
      <trkpt lat="47.52264" lon="-2.85836">
        <ele>8.5</ele>
        <time>2026-08-25T13:11:01Z</time>
      </trkpt>
      <trkpt lat="47.5227" lon="-2.85833">
        <ele>8.3</ele>
        <time>2026-08-25T13:11:02Z</time>
      </trkpt>
      <trkpt lat="47.52274" lon="-2.85829">
        <ele>8.3</ele>
        <time>2026-08-25T13:11:03Z</time>
      </trkpt>
      <trkpt lat="47.52277" lon="-2.85823">
        <ele>8.4</ele>
        <time>2026-08-25T13:11:04Z</time>
      </trkpt>
      <trkpt lat="47.52279" lon="-2.85817">
        <ele>8.5</ele>
        <time>2026-08-25T13:11:05Z</time>
      </trkpt>
      <trkpt lat="47.52281" lon="-2.8581">
        <ele>8.6</ele>
        <time>2026-08-25T13:11:06Z</time>
      </trkpt>
      <trkpt lat="47.52282" lon="-2.85804">
        <ele>8.7</ele>
        <time>2026-08-25T13:11:07Z</time>
      </trkpt>
      <trkpt lat="47.52283" lon="-2.85797">
        <ele>8.7</ele>
        <time>2026-08-25T13:11:08Z</time>
      </trkpt>
      <trkpt lat="47.52284" lon="-2.85792">
        <ele>8.7</ele>
        <time>2026-08-25T13:11:09Z</time>
      </trkpt>
      <trkpt lat="47.52286" lon="-2.85786">
        <ele>8.6</ele>
        <time>2026-08-25T13:11:10Z</time>
      </trkpt>
      <trkpt lat="47.52287" lon="-2.85781">
        <ele>8.6</ele>
        <time>2026-08-25T13:11:11Z</time>
      </trkpt>
      <trkpt lat="47.52289" lon="-2.85775">
        <ele>8.6</ele>
        <time>2026-08-25T13:11:12Z</time>
      </trkpt>
      <trkpt lat="47.5229" lon="-2.8577">
        <ele>8.7</ele>
        <time>2026-08-25T13:11:13Z</time>
      </trkpt>
      <trkpt lat="47.52292" lon="-2.85765">
        <ele>8.7</ele>
        <time>2026-08-25T13:11:14Z</time>
      </trkpt>
      <trkpt lat="47.52294" lon="-2.8576">
        <ele>8.8</ele>
        <time>2026-08-25T13:11:15Z</time>
      </trkpt>
      <trkpt lat="47.52295" lon="-2.85755">
        <ele>8.9</ele>
        <time>2026-08-25T13:11:16Z</time>
      </trkpt>
      <trkpt lat="47.52297" lon="-2.8575">
        <ele>9</ele>
        <time>2026-08-25T13:11:17Z</time>
      </trkpt>
      <trkpt lat="47.52299" lon="-2.85746">
        <ele>9</ele>
        <time>2026-08-25T13:11:18Z</time>
      </trkpt>
      <trkpt lat="47.523" lon="-2.85741">
        <ele>9</ele>
        <time>2026-08-25T13:11:19Z</time>
      </trkpt>
      <trkpt lat="47.52301" lon="-2.85737">
        <ele>9</ele>
        <time>2026-08-25T13:11:20Z</time>
      </trkpt>
      <trkpt lat="47.52302" lon="-2.85733">
        <ele>9</ele>
        <time>2026-08-25T13:11:21Z</time>
      </trkpt>
      <trkpt lat="47.52303" lon="-2.8573">
        <ele>9</ele>
        <time>2026-08-25T13:11:22Z</time>
      </trkpt>
      <trkpt lat="47.52305" lon="-2.85726">
        <ele>9</ele>
        <time>2026-08-25T13:11:23Z</time>
      </trkpt>
      <trkpt lat="47.52306" lon="-2.85722">
        <ele>9</ele>
        <time>2026-08-25T13:11:24Z</time>
      </trkpt>
      <trkpt lat="47.52308" lon="-2.85719">
        <ele>9</ele>
        <time>2026-08-25T13:11:25Z</time>
      </trkpt>
      <trkpt lat="47.52309" lon="-2.85715">
        <ele>9</ele>
        <time>2026-08-25T13:11:26Z</time>
      </trkpt>
      <trkpt lat="47.52311" lon="-2.85713">
        <ele>9</ele>
        <time>2026-08-25T13:11:27Z</time>
      </trkpt>
      <trkpt lat="47.52314" lon="-2.85711">
        <ele>9</ele>
        <time>2026-08-25T13:11:28Z</time>
      </trkpt>
      <trkpt lat="47.52316" lon="-2.85711">
        <ele>9</ele>
        <time>2026-08-25T13:11:29Z</time>
      </trkpt>
      <trkpt lat="47.52319" lon="-2.85712">
        <ele>9</ele>
        <time>2026-08-25T13:11:30Z</time>
      </trkpt>
      <trkpt lat="47.52322" lon="-2.85714">
        <ele>9</ele>
        <time>2026-08-25T13:11:31Z</time>
      </trkpt>
      <trkpt lat="47.52325" lon="-2.85717">
        <ele>9</ele>
        <time>2026-08-25T13:11:32Z</time>
      </trkpt>
      <trkpt lat="47.52329" lon="-2.85719">
        <ele>9</ele>
        <time>2026-08-25T13:11:33Z</time>
      </trkpt>
      <trkpt lat="47.52332" lon="-2.85722">
        <ele>9</ele>
        <time>2026-08-25T13:11:34Z</time>
      </trkpt>
      <trkpt lat="47.52337" lon="-2.85725">
        <ele>8.9</ele>
        <time>2026-08-25T13:11:35Z</time>
      </trkpt>
      <trkpt lat="47.52341" lon="-2.85728">
        <ele>8.8</ele>
        <time>2026-08-25T13:11:36Z</time>
      </trkpt>
      <trkpt lat="47.52346" lon="-2.85731">
        <ele>8.7</ele>
        <time>2026-08-25T13:11:37Z</time>
      </trkpt>
      <trkpt lat="47.5235" lon="-2.85734">
        <ele>8.6</ele>
        <time>2026-08-25T13:11:38Z</time>
      </trkpt>
      <trkpt lat="47.52355" lon="-2.85737">
        <ele>8.5</ele>
        <time>2026-08-25T13:11:39Z</time>
      </trkpt>
      <trkpt lat="47.5236" lon="-2.8574">
        <ele>8.4</ele>
        <time>2026-08-25T13:11:40Z</time>
      </trkpt>
      <trkpt lat="47.52365" lon="-2.85743">
        <ele>8.3</ele>
        <time>2026-08-25T13:11:41Z</time>
      </trkpt>
      <trkpt lat="47.5237" lon="-2.85747">
        <ele>8.1</ele>
        <time>2026-08-25T13:11:42Z</time>
      </trkpt>
      <trkpt lat="47.52375" lon="-2.8575">
        <ele>8</ele>
        <time>2026-08-25T13:11:43Z</time>
      </trkpt>
      <trkpt lat="47.5238" lon="-2.85754">
        <ele>7.9</ele>
        <time>2026-08-25T13:11:44Z</time>
      </trkpt>
      <trkpt lat="47.52385" lon="-2.85757">
        <ele>7.7</ele>
        <time>2026-08-25T13:11:45Z</time>
      </trkpt>
      <trkpt lat="47.5239" lon="-2.8576">
        <ele>7.6</ele>
        <time>2026-08-25T13:11:46Z</time>
      </trkpt>
      <trkpt lat="47.52395" lon="-2.85764">
        <ele>7.4</ele>
        <time>2026-08-25T13:11:47Z</time>
      </trkpt>
      <trkpt lat="47.524" lon="-2.85768">
        <ele>7.1</ele>
        <time>2026-08-25T13:11:48Z</time>
      </trkpt>
      <trkpt lat="47.52405" lon="-2.85773">
        <ele>6.7</ele>
        <time>2026-08-25T13:11:49Z</time>
      </trkpt>
      <trkpt lat="47.5241" lon="-2.85777">
        <ele>6.3</ele>
        <time>2026-08-25T13:11:50Z</time>
      </trkpt>
      <trkpt lat="47.52415" lon="-2.85781">
        <ele>6.1</ele>
        <time>2026-08-25T13:11:51Z</time>
      </trkpt>
      <trkpt lat="47.52421" lon="-2.85786">
        <ele>6</ele>
        <time>2026-08-25T13:11:52Z</time>
      </trkpt>
      <trkpt lat="47.52426" lon="-2.85791">
        <ele>6</ele>
        <time>2026-08-25T13:11:53Z</time>
      </trkpt>
      <trkpt lat="47.52431" lon="-2.85796">
        <ele>6</ele>
        <time>2026-08-25T13:11:54Z</time>
      </trkpt>
      <trkpt lat="47.52436" lon="-2.85801">
        <ele>6</ele>
        <time>2026-08-25T13:11:55Z</time>
      </trkpt>
      <trkpt lat="47.52442" lon="-2.85806">
        <ele>6</ele>
        <time>2026-08-25T13:11:56Z</time>
      </trkpt>
      <trkpt lat="47.52447" lon="-2.8581">
        <ele>5.9</ele>
        <time>2026-08-25T13:11:57Z</time>
      </trkpt>
      <trkpt lat="47.52452" lon="-2.85815">
        <ele>5.7</ele>
        <time>2026-08-25T13:11:58Z</time>
      </trkpt>
      <trkpt lat="47.52457" lon="-2.85819">
        <ele>5.5</ele>
        <time>2026-08-25T13:11:59Z</time>
      </trkpt>
      <trkpt lat="47.52462" lon="-2.85823">
        <ele>5.4</ele>
        <time>2026-08-25T13:12:00Z</time>
      </trkpt>
      <trkpt lat="47.52467" lon="-2.85827">
        <ele>5.2</ele>
        <time>2026-08-25T13:12:01Z</time>
      </trkpt>
      <trkpt lat="47.52472" lon="-2.8583">
        <ele>5</ele>
        <time>2026-08-25T13:12:02Z</time>
      </trkpt>
      <trkpt lat="47.52478" lon="-2.85832">
        <ele>5</ele>
        <time>2026-08-25T13:12:03Z</time>
      </trkpt>
      <trkpt lat="47.52483" lon="-2.85835">
        <ele>5</ele>
        <time>2026-08-25T13:12:04Z</time>
      </trkpt>
      <trkpt lat="47.52488" lon="-2.85837">
        <ele>5.1</ele>
        <time>2026-08-25T13:12:05Z</time>
      </trkpt>
      <trkpt lat="47.52492" lon="-2.85839">
        <ele>5.1</ele>
        <time>2026-08-25T13:12:06Z</time>
      </trkpt>
      <trkpt lat="47.52497" lon="-2.85842">
        <ele>5</ele>
        <time>2026-08-25T13:12:07Z</time>
      </trkpt>
      <trkpt lat="47.52502" lon="-2.85846">
        <ele>5</ele>
        <time>2026-08-25T13:12:08Z</time>
      </trkpt>
      <trkpt lat="47.52507" lon="-2.85849">
        <ele>4.9</ele>
        <time>2026-08-25T13:12:09Z</time>
      </trkpt>
      <trkpt lat="47.52512" lon="-2.85853">
        <ele>4.9</ele>
        <time>2026-08-25T13:12:10Z</time>
      </trkpt>
      <trkpt lat="47.52517" lon="-2.85858">
        <ele>4.9</ele>
        <time>2026-08-25T13:12:11Z</time>
      </trkpt>
      <trkpt lat="47.52521" lon="-2.85862">
        <ele>5</ele>
        <time>2026-08-25T13:12:12Z</time>
      </trkpt>
      <trkpt lat="47.52526" lon="-2.85867">
        <ele>5.2</ele>
        <time>2026-08-25T13:12:13Z</time>
      </trkpt>
      <trkpt lat="47.52531" lon="-2.85871">
        <ele>5.2</ele>
        <time>2026-08-25T13:12:14Z</time>
      </trkpt>
      <trkpt lat="47.52536" lon="-2.85876">
        <ele>5.2</ele>
        <time>2026-08-25T13:12:15Z</time>
      </trkpt>
      <trkpt lat="47.52541" lon="-2.8588">
        <ele>5.2</ele>
        <time>2026-08-25T13:12:16Z</time>
      </trkpt>
      <trkpt lat="47.52546" lon="-2.85885">
        <ele>5.2</ele>
        <time>2026-08-25T13:12:17Z</time>
      </trkpt>
      <trkpt lat="47.52551" lon="-2.8589">
        <ele>5.2</ele>
        <time>2026-08-25T13:12:18Z</time>
      </trkpt>
      <trkpt lat="47.52556" lon="-2.85895">
        <ele>5.2</ele>
        <time>2026-08-25T13:12:19Z</time>
      </trkpt>
      <trkpt lat="47.52561" lon="-2.85899">
        <ele>5.1</ele>
        <time>2026-08-25T13:12:20Z</time>
      </trkpt>
      <trkpt lat="47.52566" lon="-2.85904">
        <ele>5</ele>
        <time>2026-08-25T13:12:21Z</time>
      </trkpt>
      <trkpt lat="47.52571" lon="-2.85908">
        <ele>4.7</ele>
        <time>2026-08-25T13:12:22Z</time>
      </trkpt>
      <trkpt lat="47.52576" lon="-2.85912">
        <ele>4.5</ele>
        <time>2026-08-25T13:12:23Z</time>
      </trkpt>
      <trkpt lat="47.52581" lon="-2.85916">
        <ele>4.2</ele>
        <time>2026-08-25T13:12:24Z</time>
      </trkpt>
      <trkpt lat="47.52587" lon="-2.8592">
        <ele>4.1</ele>
        <time>2026-08-25T13:12:25Z</time>
      </trkpt>
      <trkpt lat="47.52593" lon="-2.85923">
        <ele>4.1</ele>
        <time>2026-08-25T13:12:26Z</time>
      </trkpt>
      <trkpt lat="47.52599" lon="-2.85924">
        <ele>4.1</ele>
        <time>2026-08-25T13:12:27Z</time>
      </trkpt>
      <trkpt lat="47.52605" lon="-2.85925">
        <ele>4.1</ele>
        <time>2026-08-25T13:12:28Z</time>
      </trkpt>
      <trkpt lat="47.5261" lon="-2.85927">
        <ele>4</ele>
        <time>2026-08-25T13:12:29Z</time>
      </trkpt>
      <trkpt lat="47.52616" lon="-2.85927">
        <ele>4</ele>
        <time>2026-08-25T13:12:30Z</time>
      </trkpt>
      <trkpt lat="47.52621" lon="-2.85927">
        <ele>4</ele>
        <time>2026-08-25T13:12:31Z</time>
      </trkpt>
      <trkpt lat="47.52627" lon="-2.85927">
        <ele>4</ele>
        <time>2026-08-25T13:12:32Z</time>
      </trkpt>
      <trkpt lat="47.52633" lon="-2.85927">
        <ele>4</ele>
        <time>2026-08-25T13:12:33Z</time>
      </trkpt>
      <trkpt lat="47.52639" lon="-2.85927">
        <ele>4</ele>
        <time>2026-08-25T13:12:34Z</time>
      </trkpt>
      <trkpt lat="47.52645" lon="-2.85927">
        <ele>4</ele>
        <time>2026-08-25T13:12:35Z</time>
      </trkpt>
      <trkpt lat="47.52651" lon="-2.85926">
        <ele>4</ele>
        <time>2026-08-25T13:12:36Z</time>
      </trkpt>
      <trkpt lat="47.52657" lon="-2.85925">
        <ele>4</ele>
        <time>2026-08-25T13:12:37Z</time>
      </trkpt>
      <trkpt lat="47.52664" lon="-2.85924">
        <ele>4</ele>
        <time>2026-08-25T13:12:38Z</time>
      </trkpt>
      <trkpt lat="47.5267" lon="-2.85923">
        <ele>4</ele>
        <time>2026-08-25T13:12:39Z</time>
      </trkpt>
      <trkpt lat="47.52676" lon="-2.85921">
        <ele>4</ele>
        <time>2026-08-25T13:12:40Z</time>
      </trkpt>
      <trkpt lat="47.52682" lon="-2.8592">
        <ele>4</ele>
        <time>2026-08-25T13:12:41Z</time>
      </trkpt>
      <trkpt lat="47.52687" lon="-2.85918">
        <ele>4</ele>
        <time>2026-08-25T13:12:42Z</time>
      </trkpt>
      <trkpt lat="47.52692" lon="-2.85915">
        <ele>4</ele>
        <time>2026-08-25T13:12:43Z</time>
      </trkpt>
      <trkpt lat="47.52697" lon="-2.85912">
        <ele>4</ele>
        <time>2026-08-25T13:12:44Z</time>
      </trkpt>
      <trkpt lat="47.52702" lon="-2.85907">
        <ele>4</ele>
        <time>2026-08-25T13:12:45Z</time>
      </trkpt>
      <trkpt lat="47.52706" lon="-2.85901">
        <ele>4</ele>
        <time>2026-08-25T13:12:46Z</time>
      </trkpt>
      <trkpt lat="47.5271" lon="-2.85896">
        <ele>4</ele>
        <time>2026-08-25T13:12:47Z</time>
      </trkpt>
      <trkpt lat="47.52713" lon="-2.8589">
        <ele>4</ele>
        <time>2026-08-25T13:12:48Z</time>
      </trkpt>
      <trkpt lat="47.52717" lon="-2.85883">
        <ele>4</ele>
        <time>2026-08-25T13:12:49Z</time>
      </trkpt>
      <trkpt lat="47.5272" lon="-2.85876">
        <ele>4</ele>
        <time>2026-08-25T13:12:50Z</time>
      </trkpt>
      <trkpt lat="47.52723" lon="-2.85869">
        <ele>4</ele>
        <time>2026-08-25T13:12:51Z</time>
      </trkpt>
      <trkpt lat="47.52725" lon="-2.85861">
        <ele>4</ele>
        <time>2026-08-25T13:12:52Z</time>
      </trkpt>
      <trkpt lat="47.52727" lon="-2.85854">
        <ele>4</ele>
        <time>2026-08-25T13:12:53Z</time>
      </trkpt>
      <trkpt lat="47.52729" lon="-2.85846">
        <ele>4</ele>
        <time>2026-08-25T13:12:54Z</time>
      </trkpt>
      <trkpt lat="47.52731" lon="-2.85839">
        <ele>4</ele>
        <time>2026-08-25T13:12:55Z</time>
      </trkpt>
      <trkpt lat="47.52733" lon="-2.85831">
        <ele>4</ele>
        <time>2026-08-25T13:12:56Z</time>
      </trkpt>
      <trkpt lat="47.52735" lon="-2.85824">
        <ele>4</ele>
        <time>2026-08-25T13:12:57Z</time>
      </trkpt>
      <trkpt lat="47.52738" lon="-2.85817">
        <ele>4</ele>
        <time>2026-08-25T13:12:58Z</time>
      </trkpt>
      <trkpt lat="47.5274" lon="-2.8581">
        <ele>4</ele>
        <time>2026-08-25T13:12:59Z</time>
      </trkpt>
      <trkpt lat="47.52743" lon="-2.85803">
        <ele>4</ele>
        <time>2026-08-25T13:13:00Z</time>
      </trkpt>
      <trkpt lat="47.52745" lon="-2.85796">
        <ele>4.1</ele>
        <time>2026-08-25T13:13:01Z</time>
      </trkpt>
      <trkpt lat="47.52748" lon="-2.85789">
        <ele>4</ele>
        <time>2026-08-25T13:13:02Z</time>
      </trkpt>
      <trkpt lat="47.5275" lon="-2.85783">
        <ele>4</ele>
        <time>2026-08-25T13:13:03Z</time>
      </trkpt>
      <trkpt lat="47.52753" lon="-2.85776">
        <ele>3.9</ele>
        <time>2026-08-25T13:13:04Z</time>
      </trkpt>
      <trkpt lat="47.52756" lon="-2.8577">
        <ele>3.8</ele>
        <time>2026-08-25T13:13:05Z</time>
      </trkpt>
      <trkpt lat="47.52759" lon="-2.85764">
        <ele>3.7</ele>
        <time>2026-08-25T13:13:06Z</time>
      </trkpt>
      <trkpt lat="47.52762" lon="-2.85758">
        <ele>3.6</ele>
        <time>2026-08-25T13:13:07Z</time>
      </trkpt>
      <trkpt lat="47.52765" lon="-2.85752">
        <ele>3.5</ele>
        <time>2026-08-25T13:13:08Z</time>
      </trkpt>
      <trkpt lat="47.52768" lon="-2.85746">
        <ele>3.4</ele>
        <time>2026-08-25T13:13:09Z</time>
      </trkpt>
      <trkpt lat="47.52771" lon="-2.85741">
        <ele>3.2</ele>
        <time>2026-08-25T13:13:10Z</time>
      </trkpt>
      <trkpt lat="47.52775" lon="-2.85735">
        <ele>3.1</ele>
        <time>2026-08-25T13:13:11Z</time>
      </trkpt>
      <trkpt lat="47.52778" lon="-2.85729">
        <ele>3</ele>
        <time>2026-08-25T13:13:12Z</time>
      </trkpt>
      <trkpt lat="47.52781" lon="-2.85722">
        <ele>2.9</ele>
        <time>2026-08-25T13:13:13Z</time>
      </trkpt>
      <trkpt lat="47.52785" lon="-2.85716">
        <ele>2.6</ele>
        <time>2026-08-25T13:13:14Z</time>
      </trkpt>
      <trkpt lat="47.52788" lon="-2.85711">
        <ele>2.4</ele>
        <time>2026-08-25T13:13:15Z</time>
      </trkpt>
      <trkpt lat="47.52792" lon="-2.85706">
        <ele>2.2</ele>
        <time>2026-08-25T13:13:16Z</time>
      </trkpt>
      <trkpt lat="47.52796" lon="-2.85701">
        <ele>2.1</ele>
        <time>2026-08-25T13:13:17Z</time>
      </trkpt>
      <trkpt lat="47.528" lon="-2.85697">
        <ele>2</ele>
        <time>2026-08-25T13:13:18Z</time>
      </trkpt>
      <trkpt lat="47.52805" lon="-2.85693">
        <ele>2</ele>
        <time>2026-08-25T13:13:19Z</time>
      </trkpt>
      <trkpt lat="47.5281" lon="-2.85689">
        <ele>2</ele>
        <time>2026-08-25T13:13:20Z</time>
      </trkpt>
      <trkpt lat="47.52815" lon="-2.85685">
        <ele>2</ele>
        <time>2026-08-25T13:13:21Z</time>
      </trkpt>
      <trkpt lat="47.5282" lon="-2.85681">
        <ele>2</ele>
        <time>2026-08-25T13:13:22Z</time>
      </trkpt>
      <trkpt lat="47.52825" lon="-2.85678">
        <ele>2</ele>
        <time>2026-08-25T13:13:23Z</time>
      </trkpt>
      <trkpt lat="47.5283" lon="-2.85675">
        <ele>2</ele>
        <time>2026-08-25T13:13:24Z</time>
      </trkpt>
      <trkpt lat="47.52835" lon="-2.85672">
        <ele>2</ele>
        <time>2026-08-25T13:13:25Z</time>
      </trkpt>
      <trkpt lat="47.5284" lon="-2.85669">
        <ele>2</ele>
        <time>2026-08-25T13:13:26Z</time>
      </trkpt>
      <trkpt lat="47.52845" lon="-2.85666">
        <ele>2</ele>
        <time>2026-08-25T13:13:27Z</time>
      </trkpt>
      <trkpt lat="47.5285" lon="-2.85663">
        <ele>2</ele>
        <time>2026-08-25T13:13:28Z</time>
      </trkpt>
      <trkpt lat="47.52855" lon="-2.85659">
        <ele>2</ele>
        <time>2026-08-25T13:13:29Z</time>
      </trkpt>
      <trkpt lat="47.5286" lon="-2.85656">
        <ele>2</ele>
        <time>2026-08-25T13:13:30Z</time>
      </trkpt>
      <trkpt lat="47.52865" lon="-2.85652">
        <ele>2</ele>
        <time>2026-08-25T13:13:31Z</time>
      </trkpt>
      <trkpt lat="47.5287" lon="-2.85649">
        <ele>2</ele>
        <time>2026-08-25T13:13:32Z</time>
      </trkpt>
      <trkpt lat="47.52875" lon="-2.85647">
        <ele>2</ele>
        <time>2026-08-25T13:13:33Z</time>
      </trkpt>
      <trkpt lat="47.5288" lon="-2.85643">
        <ele>2</ele>
        <time>2026-08-25T13:13:34Z</time>
      </trkpt>
      <trkpt lat="47.52885" lon="-2.8564">
        <ele>2</ele>
        <time>2026-08-25T13:13:35Z</time>
      </trkpt>
      <trkpt lat="47.5289" lon="-2.85636">
        <ele>2</ele>
        <time>2026-08-25T13:13:36Z</time>
      </trkpt>
      <trkpt lat="47.52895" lon="-2.85633">
        <ele>2</ele>
        <time>2026-08-25T13:13:37Z</time>
      </trkpt>
      <trkpt lat="47.52901" lon="-2.8563">
        <ele>2</ele>
        <time>2026-08-25T13:13:38Z</time>
      </trkpt>
      <trkpt lat="47.52906" lon="-2.85627">
        <ele>2</ele>
        <time>2026-08-25T13:13:39Z</time>
      </trkpt>
      <trkpt lat="47.52911" lon="-2.85624">
        <ele>2</ele>
        <time>2026-08-25T13:13:40Z</time>
      </trkpt>
      <trkpt lat="47.52916" lon="-2.85621">
        <ele>2</ele>
        <time>2026-08-25T13:13:41Z</time>
      </trkpt>
      <trkpt lat="47.52921" lon="-2.85618">
        <ele>2</ele>
        <time>2026-08-25T13:13:42Z</time>
      </trkpt>
      <trkpt lat="47.52927" lon="-2.85614">
        <ele>2</ele>
        <time>2026-08-25T13:13:43Z</time>
      </trkpt>
      <trkpt lat="47.52932" lon="-2.85611">
        <ele>2</ele>
        <time>2026-08-25T13:13:44Z</time>
      </trkpt>
      <trkpt lat="47.52937" lon="-2.85608">
        <ele>1.9</ele>
        <time>2026-08-25T13:13:45Z</time>
      </trkpt>
      <trkpt lat="47.52942" lon="-2.85605">
        <ele>1.8</ele>
        <time>2026-08-25T13:13:46Z</time>
      </trkpt>
      <trkpt lat="47.52948" lon="-2.85602">
        <ele>1.7</ele>
        <time>2026-08-25T13:13:47Z</time>
      </trkpt>
      <trkpt lat="47.52953" lon="-2.85598">
        <ele>1.7</ele>
        <time>2026-08-25T13:13:48Z</time>
      </trkpt>
      <trkpt lat="47.52958" lon="-2.85595">
        <ele>1.7</ele>
        <time>2026-08-25T13:13:49Z</time>
      </trkpt>
      <trkpt lat="47.52963" lon="-2.85592">
        <ele>1.8</ele>
        <time>2026-08-25T13:13:50Z</time>
      </trkpt>
      <trkpt lat="47.52968" lon="-2.85589">
        <ele>1.9</ele>
        <time>2026-08-25T13:13:51Z</time>
      </trkpt>
      <trkpt lat="47.52974" lon="-2.85585">
        <ele>2</ele>
        <time>2026-08-25T13:13:52Z</time>
      </trkpt>
      <trkpt lat="47.52979" lon="-2.85582">
        <ele>2</ele>
        <time>2026-08-25T13:13:53Z</time>
      </trkpt>
      <trkpt lat="47.52984" lon="-2.85578">
        <ele>2</ele>
        <time>2026-08-25T13:13:54Z</time>
      </trkpt>
      <trkpt lat="47.52989" lon="-2.85575">
        <ele>2</ele>
        <time>2026-08-25T13:13:55Z</time>
      </trkpt>
      <trkpt lat="47.52994" lon="-2.85572">
        <ele>2</ele>
        <time>2026-08-25T13:13:56Z</time>
      </trkpt>
      <trkpt lat="47.52998" lon="-2.85569">
        <ele>2</ele>
        <time>2026-08-25T13:13:57Z</time>
      </trkpt>
      <trkpt lat="47.53003" lon="-2.85566">
        <ele>2</ele>
        <time>2026-08-25T13:13:58Z</time>
      </trkpt>
      <trkpt lat="47.53008" lon="-2.85563">
        <ele>2</ele>
        <time>2026-08-25T13:13:59Z</time>
      </trkpt>
      <trkpt lat="47.53013" lon="-2.8556">
        <ele>2</ele>
        <time>2026-08-25T13:14:00Z</time>
      </trkpt>
      <trkpt lat="47.53018" lon="-2.85557">
        <ele>2</ele>
        <time>2026-08-25T13:14:01Z</time>
      </trkpt>
      <trkpt lat="47.53023" lon="-2.85554">
        <ele>2</ele>
        <time>2026-08-25T13:14:02Z</time>
      </trkpt>
      <trkpt lat="47.53028" lon="-2.85551">
        <ele>2</ele>
        <time>2026-08-25T13:14:03Z</time>
      </trkpt>
      <trkpt lat="47.53033" lon="-2.85548">
        <ele>1.9</ele>
        <time>2026-08-25T13:14:04Z</time>
      </trkpt>
      <trkpt lat="47.53038" lon="-2.85544">
        <ele>1.8</ele>
        <time>2026-08-25T13:14:05Z</time>
      </trkpt>
      <trkpt lat="47.53043" lon="-2.85541">
        <ele>1.7</ele>
        <time>2026-08-25T13:14:06Z</time>
      </trkpt>
      <trkpt lat="47.53048" lon="-2.85538">
        <ele>1.7</ele>
        <time>2026-08-25T13:14:07Z</time>
      </trkpt>
      <trkpt lat="47.53053" lon="-2.85535">
        <ele>1.8</ele>
        <time>2026-08-25T13:14:08Z</time>
      </trkpt>
      <trkpt lat="47.53057" lon="-2.85532">
        <ele>1.9</ele>
        <time>2026-08-25T13:14:09Z</time>
      </trkpt>
      <trkpt lat="47.53062" lon="-2.85529">
        <ele>2</ele>
        <time>2026-08-25T13:14:10Z</time>
      </trkpt>
      <trkpt lat="47.53067" lon="-2.85526">
        <ele>2</ele>
        <time>2026-08-25T13:14:11Z</time>
      </trkpt>
      <trkpt lat="47.53071" lon="-2.85523">
        <ele>2</ele>
        <time>2026-08-25T13:14:12Z</time>
      </trkpt>
      <trkpt lat="47.53076" lon="-2.8552">
        <ele>2</ele>
        <time>2026-08-25T13:14:13Z</time>
      </trkpt>
      <trkpt lat="47.5308" lon="-2.85517">
        <ele>2</ele>
        <time>2026-08-25T13:14:14Z</time>
      </trkpt>
      <trkpt lat="47.53085" lon="-2.85514">
        <ele>2</ele>
        <time>2026-08-25T13:14:15Z</time>
      </trkpt>
      <trkpt lat="47.5309" lon="-2.85511">
        <ele>2</ele>
        <time>2026-08-25T13:14:16Z</time>
      </trkpt>
      <trkpt lat="47.53095" lon="-2.85508">
        <ele>2</ele>
        <time>2026-08-25T13:14:17Z</time>
      </trkpt>
      <trkpt lat="47.531" lon="-2.85505">
        <ele>2</ele>
        <time>2026-08-25T13:14:18Z</time>
      </trkpt>
      <trkpt lat="47.53105" lon="-2.85502">
        <ele>2</ele>
        <time>2026-08-25T13:14:19Z</time>
      </trkpt>
      <trkpt lat="47.53109" lon="-2.85498">
        <ele>2</ele>
        <time>2026-08-25T13:14:20Z</time>
      </trkpt>
      <trkpt lat="47.53114" lon="-2.85495">
        <ele>2</ele>
        <time>2026-08-25T13:14:21Z</time>
      </trkpt>
      <trkpt lat="47.5312" lon="-2.85492">
        <ele>2</ele>
        <time>2026-08-25T13:14:22Z</time>
      </trkpt>
      <trkpt lat="47.53125" lon="-2.85489">
        <ele>2</ele>
        <time>2026-08-25T13:14:23Z</time>
      </trkpt>
      <trkpt lat="47.5313" lon="-2.85486">
        <ele>2</ele>
        <time>2026-08-25T13:14:24Z</time>
      </trkpt>
      <trkpt lat="47.53135" lon="-2.85482">
        <ele>2</ele>
        <time>2026-08-25T13:14:25Z</time>
      </trkpt>
      <trkpt lat="47.5314" lon="-2.85479">
        <ele>2</ele>
        <time>2026-08-25T13:14:26Z</time>
      </trkpt>
      <trkpt lat="47.53146" lon="-2.85476">
        <ele>2</ele>
        <time>2026-08-25T13:14:27Z</time>
      </trkpt>
      <trkpt lat="47.53151" lon="-2.85473">
        <ele>2</ele>
        <time>2026-08-25T13:14:28Z</time>
      </trkpt>
      <trkpt lat="47.53156" lon="-2.8547">
        <ele>2</ele>
        <time>2026-08-25T13:14:29Z</time>
      </trkpt>
      <trkpt lat="47.53161" lon="-2.85466">
        <ele>2</ele>
        <time>2026-08-25T13:14:30Z</time>
      </trkpt>
      <trkpt lat="47.53166" lon="-2.85463">
        <ele>2</ele>
        <time>2026-08-25T13:14:31Z</time>
      </trkpt>
      <trkpt lat="47.53171" lon="-2.8546">
        <ele>2</ele>
        <time>2026-08-25T13:14:32Z</time>
      </trkpt>
      <trkpt lat="47.53176" lon="-2.85457">
        <ele>2</ele>
        <time>2026-08-25T13:14:33Z</time>
      </trkpt>
      <trkpt lat="47.53181" lon="-2.85454">
        <ele>2</ele>
        <time>2026-08-25T13:14:34Z</time>
      </trkpt>
      <trkpt lat="47.53186" lon="-2.85451">
        <ele>2</ele>
        <time>2026-08-25T13:14:35Z</time>
      </trkpt>
      <trkpt lat="47.53191" lon="-2.85448">
        <ele>2</ele>
        <time>2026-08-25T13:14:36Z</time>
      </trkpt>
      <trkpt lat="47.53196" lon="-2.85445">
        <ele>2</ele>
        <time>2026-08-25T13:14:37Z</time>
      </trkpt>
      <trkpt lat="47.53201" lon="-2.85441">
        <ele>2</ele>
        <time>2026-08-25T13:14:38Z</time>
      </trkpt>
      <trkpt lat="47.53206" lon="-2.85438">
        <ele>2</ele>
        <time>2026-08-25T13:14:39Z</time>
      </trkpt>
      <trkpt lat="47.53211" lon="-2.85435">
        <ele>2</ele>
        <time>2026-08-25T13:14:40Z</time>
      </trkpt>
      <trkpt lat="47.53216" lon="-2.85432">
        <ele>2</ele>
        <time>2026-08-25T13:14:41Z</time>
      </trkpt>
      <trkpt lat="47.53221" lon="-2.85429">
        <ele>2</ele>
        <time>2026-08-25T13:14:42Z</time>
      </trkpt>
      <trkpt lat="47.53226" lon="-2.85426">
        <ele>2</ele>
        <time>2026-08-25T13:14:43Z</time>
      </trkpt>
      <trkpt lat="47.53231" lon="-2.85423">
        <ele>2</ele>
        <time>2026-08-25T13:14:44Z</time>
      </trkpt>
      <trkpt lat="47.53235" lon="-2.8542">
        <ele>2</ele>
        <time>2026-08-25T13:14:45Z</time>
      </trkpt>
      <trkpt lat="47.5324" lon="-2.85417">
        <ele>2</ele>
        <time>2026-08-25T13:14:46Z</time>
      </trkpt>
      <trkpt lat="47.53245" lon="-2.85414">
        <ele>2</ele>
        <time>2026-08-25T13:14:47Z</time>
      </trkpt>
      <trkpt lat="47.5325" lon="-2.85412">
        <ele>2</ele>
        <time>2026-08-25T13:14:48Z</time>
      </trkpt>
      <trkpt lat="47.53254" lon="-2.85409">
        <ele>2</ele>
        <time>2026-08-25T13:14:49Z</time>
      </trkpt>
      <trkpt lat="47.53259" lon="-2.85406">
        <ele>2.1</ele>
        <time>2026-08-25T13:14:50Z</time>
      </trkpt>
      <trkpt lat="47.53263" lon="-2.85404">
        <ele>2.2</ele>
        <time>2026-08-25T13:14:51Z</time>
      </trkpt>
      <trkpt lat="47.53267" lon="-2.85401">
        <ele>2.3</ele>
        <time>2026-08-25T13:14:52Z</time>
      </trkpt>
      <trkpt lat="47.53271" lon="-2.85398">
        <ele>2.5</ele>
        <time>2026-08-25T13:14:53Z</time>
      </trkpt>
      <trkpt lat="47.53276" lon="-2.85395">
        <ele>2.7</ele>
        <time>2026-08-25T13:14:54Z</time>
      </trkpt>
      <trkpt lat="47.5328" lon="-2.85392">
        <ele>2.8</ele>
        <time>2026-08-25T13:14:55Z</time>
      </trkpt>
      <trkpt lat="47.53284" lon="-2.85391">
        <ele>2.7</ele>
        <time>2026-08-25T13:14:56Z</time>
      </trkpt>
      <trkpt lat="47.53288" lon="-2.8539">
        <ele>2.6</ele>
        <time>2026-08-25T13:14:57Z</time>
      </trkpt>
      <trkpt lat="47.53292" lon="-2.85388">
        <ele>2.5</ele>
        <time>2026-08-25T13:14:58Z</time>
      </trkpt>
      <trkpt lat="47.53295" lon="-2.85386">
        <ele>2.4</ele>
        <time>2026-08-25T13:14:59Z</time>
      </trkpt>
      <trkpt lat="47.53298" lon="-2.85383">
        <ele>2.4</ele>
        <time>2026-08-25T13:15:00Z</time>
      </trkpt>
      <trkpt lat="47.533" lon="-2.8538">
        <ele>2.5</ele>
        <time>2026-08-25T13:15:01Z</time>
      </trkpt>
      <trkpt lat="47.53304" lon="-2.85378">
        <ele>2.4</ele>
        <time>2026-08-25T13:15:02Z</time>
      </trkpt>
      <trkpt lat="47.53307" lon="-2.85374">
        <ele>2.6</ele>
        <time>2026-08-25T13:15:03Z</time>
      </trkpt>
      <trkpt lat="47.53311" lon="-2.85372">
        <ele>2.8</ele>
        <time>2026-08-25T13:15:04Z</time>
      </trkpt>
      <trkpt lat="47.53315" lon="-2.85369">
        <ele>2.9</ele>
        <time>2026-08-25T13:15:05Z</time>
      </trkpt>
      <trkpt lat="47.5332" lon="-2.85366">
        <ele>3</ele>
        <time>2026-08-25T13:15:06Z</time>
      </trkpt>
      <trkpt lat="47.53324" lon="-2.85364">
        <ele>3</ele>
        <time>2026-08-25T13:15:07Z</time>
      </trkpt>
      <trkpt lat="47.53328" lon="-2.85361">
        <ele>3</ele>
        <time>2026-08-25T13:15:08Z</time>
      </trkpt>
      <trkpt lat="47.53332" lon="-2.85359">
        <ele>3</ele>
        <time>2026-08-25T13:15:09Z</time>
      </trkpt>
      <trkpt lat="47.53336" lon="-2.85357">
        <ele>3.1</ele>
        <time>2026-08-25T13:15:10Z</time>
      </trkpt>
      <trkpt lat="47.5334" lon="-2.85356">
        <ele>3.2</ele>
        <time>2026-08-25T13:15:11Z</time>
      </trkpt>
      <trkpt lat="47.53344" lon="-2.85356">
        <ele>3.4</ele>
        <time>2026-08-25T13:15:12Z</time>
      </trkpt>
      <trkpt lat="47.53347" lon="-2.85359">
        <ele>3.5</ele>
        <time>2026-08-25T13:15:13Z</time>
      </trkpt>
      <trkpt lat="47.53349" lon="-2.85362">
        <ele>3.6</ele>
        <time>2026-08-25T13:15:14Z</time>
      </trkpt>
      <trkpt lat="47.5335" lon="-2.85366">
        <ele>3.6</ele>
        <time>2026-08-25T13:15:15Z</time>
      </trkpt>
      <trkpt lat="47.53352" lon="-2.8537">
        <ele>3.6</ele>
        <time>2026-08-25T13:15:16Z</time>
      </trkpt>
      <trkpt lat="47.53354" lon="-2.85374">
        <ele>3.5</ele>
        <time>2026-08-25T13:15:17Z</time>
      </trkpt>
      <trkpt lat="47.53356" lon="-2.85376">
        <ele>3.5</ele>
        <time>2026-08-25T13:15:18Z</time>
      </trkpt>
      <trkpt lat="47.53358" lon="-2.85379">
        <ele>3.4</ele>
        <time>2026-08-25T13:15:19Z</time>
      </trkpt>
      <trkpt lat="47.5336" lon="-2.85384">
        <ele>3.2</ele>
        <time>2026-08-25T13:15:20Z</time>
      </trkpt>
      <trkpt lat="47.53362" lon="-2.85388">
        <ele>3.1</ele>
        <time>2026-08-25T13:15:21Z</time>
      </trkpt>
      <trkpt lat="47.53364" lon="-2.85393">
        <ele>3.1</ele>
        <time>2026-08-25T13:15:22Z</time>
      </trkpt>
      <trkpt lat="47.53365" lon="-2.85398">
        <ele>3.1</ele>
        <time>2026-08-25T13:15:23Z</time>
      </trkpt>
      <trkpt lat="47.53367" lon="-2.85404">
        <ele>3.2</ele>
        <time>2026-08-25T13:15:24Z</time>
      </trkpt>
      <trkpt lat="47.53368" lon="-2.8541">
        <ele>3.2</ele>
        <time>2026-08-25T13:15:25Z</time>
      </trkpt>
      <trkpt lat="47.5337" lon="-2.85416">
        <ele>3.3</ele>
        <time>2026-08-25T13:15:26Z</time>
      </trkpt>
      <trkpt lat="47.53371" lon="-2.85423">
        <ele>3.4</ele>
        <time>2026-08-25T13:15:27Z</time>
      </trkpt>
      <trkpt lat="47.53372" lon="-2.85429">
        <ele>3.4</ele>
        <time>2026-08-25T13:15:28Z</time>
      </trkpt>
      <trkpt lat="47.53372" lon="-2.85434">
        <ele>3.4</ele>
        <time>2026-08-25T13:15:29Z</time>
      </trkpt>
      <trkpt lat="47.5337" lon="-2.85438">
        <ele>3.3</ele>
        <time>2026-08-25T13:15:30Z</time>
      </trkpt>
      <trkpt lat="47.53368" lon="-2.85442">
        <ele>3.2</ele>
        <time>2026-08-25T13:15:31Z</time>
      </trkpt>
      <trkpt lat="47.53365" lon="-2.85446">
        <ele>3.1</ele>
        <time>2026-08-25T13:15:32Z</time>
      </trkpt>
      <trkpt lat="47.53362" lon="-2.8545">
        <ele>3</ele>
        <time>2026-08-25T13:15:33Z</time>
      </trkpt>
      <trkpt lat="47.53359" lon="-2.85453">
        <ele>2.9</ele>
        <time>2026-08-25T13:15:34Z</time>
      </trkpt>
      <trkpt lat="47.53355" lon="-2.85457">
        <ele>2.9</ele>
        <time>2026-08-25T13:15:35Z</time>
      </trkpt>
      <trkpt lat="47.53352" lon="-2.85461">
        <ele>2.9</ele>
        <time>2026-08-25T13:15:36Z</time>
      </trkpt>
      <trkpt lat="47.53348" lon="-2.85466">
        <ele>2.9</ele>
        <time>2026-08-25T13:15:37Z</time>
      </trkpt>
      <trkpt lat="47.53344" lon="-2.85471">
        <ele>3</ele>
        <time>2026-08-25T13:15:38Z</time>
      </trkpt>
      <trkpt lat="47.5334" lon="-2.85475">
        <ele>3</ele>
        <time>2026-08-25T13:15:39Z</time>
      </trkpt>
      <trkpt lat="47.53336" lon="-2.8548">
        <ele>3</ele>
        <time>2026-08-25T13:15:40Z</time>
      </trkpt>
      <trkpt lat="47.53331" lon="-2.85484">
        <ele>3</ele>
        <time>2026-08-25T13:15:41Z</time>
      </trkpt>
      <trkpt lat="47.53327" lon="-2.85488">
        <ele>2.9</ele>
        <time>2026-08-25T13:15:42Z</time>
      </trkpt>
      <trkpt lat="47.53323" lon="-2.85493">
        <ele>2.9</ele>
        <time>2026-08-25T13:15:43Z</time>
      </trkpt>
      <trkpt lat="47.53319" lon="-2.85498">
        <ele>3</ele>
        <time>2026-08-25T13:15:44Z</time>
      </trkpt>
      <trkpt lat="47.53315" lon="-2.85502">
        <ele>3</ele>
        <time>2026-08-25T13:15:45Z</time>
      </trkpt>
      <trkpt lat="47.5331" lon="-2.85507">
        <ele>3</ele>
        <time>2026-08-25T13:15:46Z</time>
      </trkpt>
      <trkpt lat="47.53306" lon="-2.85511">
        <ele>3</ele>
        <time>2026-08-25T13:15:47Z</time>
      </trkpt>
      <trkpt lat="47.53303" lon="-2.85516">
        <ele>2.9</ele>
        <time>2026-08-25T13:15:48Z</time>
      </trkpt>
      <trkpt lat="47.533" lon="-2.85521">
        <ele>2.8</ele>
        <time>2026-08-25T13:15:49Z</time>
      </trkpt>
      <trkpt lat="47.53296" lon="-2.85527">
        <ele>2.7</ele>
        <time>2026-08-25T13:15:50Z</time>
      </trkpt>
      <trkpt lat="47.53293" lon="-2.85532">
        <ele>2.6</ele>
        <time>2026-08-25T13:15:51Z</time>
      </trkpt>
      <trkpt lat="47.5329" lon="-2.85538">
        <ele>2.6</ele>
        <time>2026-08-25T13:15:52Z</time>
      </trkpt>
      <trkpt lat="47.53287" lon="-2.85543">
        <ele>2.7</ele>
        <time>2026-08-25T13:15:53Z</time>
      </trkpt>
      <trkpt lat="47.53285" lon="-2.8555">
        <ele>2.9</ele>
        <time>2026-08-25T13:15:54Z</time>
      </trkpt>
      <trkpt lat="47.53283" lon="-2.85556">
        <ele>3</ele>
        <time>2026-08-25T13:15:55Z</time>
      </trkpt>
      <trkpt lat="47.53282" lon="-2.85563">
        <ele>3</ele>
        <time>2026-08-25T13:15:56Z</time>
      </trkpt>
      <trkpt lat="47.5328" lon="-2.8557">
        <ele>3</ele>
        <time>2026-08-25T13:15:57Z</time>
      </trkpt>
      <trkpt lat="47.53278" lon="-2.85576">
        <ele>3</ele>
        <time>2026-08-25T13:15:58Z</time>
      </trkpt>
      <trkpt lat="47.53276" lon="-2.85583">
        <ele>3</ele>
        <time>2026-08-25T13:15:59Z</time>
      </trkpt>
      <trkpt lat="47.53274" lon="-2.8559">
        <ele>3</ele>
        <time>2026-08-25T13:16:00Z</time>
      </trkpt>
      <trkpt lat="47.53272" lon="-2.85597">
        <ele>3</ele>
        <time>2026-08-25T13:16:01Z</time>
      </trkpt>
      <trkpt lat="47.53269" lon="-2.85604">
        <ele>3</ele>
        <time>2026-08-25T13:16:02Z</time>
      </trkpt>
      <trkpt lat="47.53267" lon="-2.85611">
        <ele>3</ele>
        <time>2026-08-25T13:16:03Z</time>
      </trkpt>
      <trkpt lat="47.53264" lon="-2.85617">
        <ele>3.1</ele>
        <time>2026-08-25T13:16:04Z</time>
      </trkpt>
      <trkpt lat="47.53261" lon="-2.85623">
        <ele>3.2</ele>
        <time>2026-08-25T13:16:05Z</time>
      </trkpt>
      <trkpt lat="47.53258" lon="-2.85629">
        <ele>3.2</ele>
        <time>2026-08-25T13:16:06Z</time>
      </trkpt>
      <trkpt lat="47.53255" lon="-2.85634">
        <ele>3.1</ele>
        <time>2026-08-25T13:16:07Z</time>
      </trkpt>
      <trkpt lat="47.53252" lon="-2.8564">
        <ele>3.1</ele>
        <time>2026-08-25T13:16:08Z</time>
      </trkpt>
      <trkpt lat="47.53249" lon="-2.85646">
        <ele>3</ele>
        <time>2026-08-25T13:16:09Z</time>
      </trkpt>
      <trkpt lat="47.53246" lon="-2.85652">
        <ele>3</ele>
        <time>2026-08-25T13:16:10Z</time>
      </trkpt>
      <trkpt lat="47.53244" lon="-2.85659">
        <ele>3</ele>
        <time>2026-08-25T13:16:11Z</time>
      </trkpt>
      <trkpt lat="47.53242" lon="-2.85666">
        <ele>3</ele>
        <time>2026-08-25T13:16:12Z</time>
      </trkpt>
      <trkpt lat="47.5324" lon="-2.85673">
        <ele>3.1</ele>
        <time>2026-08-25T13:16:13Z</time>
      </trkpt>
      <trkpt lat="47.53238" lon="-2.8568">
        <ele>3.3</ele>
        <time>2026-08-25T13:16:14Z</time>
      </trkpt>
      <trkpt lat="47.53236" lon="-2.85686">
        <ele>3.3</ele>
        <time>2026-08-25T13:16:15Z</time>
      </trkpt>
      <trkpt lat="47.53234" lon="-2.85692">
        <ele>3.4</ele>
        <time>2026-08-25T13:16:16Z</time>
      </trkpt>
      <trkpt lat="47.53231" lon="-2.85698">
        <ele>3.3</ele>
        <time>2026-08-25T13:16:17Z</time>
      </trkpt>
      <trkpt lat="47.53228" lon="-2.85704">
        <ele>3.2</ele>
        <time>2026-08-25T13:16:18Z</time>
      </trkpt>
      <trkpt lat="47.53225" lon="-2.85709">
        <ele>3.1</ele>
        <time>2026-08-25T13:16:19Z</time>
      </trkpt>
      <trkpt lat="47.53222" lon="-2.85715">
        <ele>3</ele>
        <time>2026-08-25T13:16:20Z</time>
      </trkpt>
      <trkpt lat="47.53218" lon="-2.8572">
        <ele>2.8</ele>
        <time>2026-08-25T13:16:21Z</time>
      </trkpt>
      <trkpt lat="47.53214" lon="-2.85725">
        <ele>2.8</ele>
        <time>2026-08-25T13:16:22Z</time>
      </trkpt>
      <trkpt lat="47.5321" lon="-2.85729">
        <ele>2.8</ele>
        <time>2026-08-25T13:16:23Z</time>
      </trkpt>
      <trkpt lat="47.53206" lon="-2.85733">
        <ele>2.8</ele>
        <time>2026-08-25T13:16:24Z</time>
      </trkpt>
      <trkpt lat="47.53202" lon="-2.85736">
        <ele>2.8</ele>
        <time>2026-08-25T13:16:25Z</time>
      </trkpt>
      <trkpt lat="47.53198" lon="-2.85739">
        <ele>2.7</ele>
        <time>2026-08-25T13:16:26Z</time>
      </trkpt>
      <trkpt lat="47.53193" lon="-2.85741">
        <ele>2.6</ele>
        <time>2026-08-25T13:16:27Z</time>
      </trkpt>
      <trkpt lat="47.53189" lon="-2.85744">
        <ele>2.6</ele>
        <time>2026-08-25T13:16:28Z</time>
      </trkpt>
      <trkpt lat="47.53185" lon="-2.85746">
        <ele>2.6</ele>
        <time>2026-08-25T13:16:29Z</time>
      </trkpt>
      <trkpt lat="47.53181" lon="-2.85749">
        <ele>2.5</ele>
        <time>2026-08-25T13:16:30Z</time>
      </trkpt>
      <trkpt lat="47.53176" lon="-2.85751">
        <ele>2.4</ele>
        <time>2026-08-25T13:16:31Z</time>
      </trkpt>
      <trkpt lat="47.53172" lon="-2.85754">
        <ele>2.3</ele>
        <time>2026-08-25T13:16:32Z</time>
      </trkpt>
      <trkpt lat="47.53167" lon="-2.85756">
        <ele>2.2</ele>
        <time>2026-08-25T13:16:33Z</time>
      </trkpt>
      <trkpt lat="47.53162" lon="-2.85759">
        <ele>2.3</ele>
        <time>2026-08-25T13:16:34Z</time>
      </trkpt>
      <trkpt lat="47.53158" lon="-2.85762">
        <ele>2.4</ele>
        <time>2026-08-25T13:16:35Z</time>
      </trkpt>
      <trkpt lat="47.53154" lon="-2.85766">
        <ele>2.6</ele>
        <time>2026-08-25T13:16:36Z</time>
      </trkpt>
      <trkpt lat="47.5315" lon="-2.85769">
        <ele>2.7</ele>
        <time>2026-08-25T13:16:37Z</time>
      </trkpt>
      <trkpt lat="47.53146" lon="-2.85773">
        <ele>2.8</ele>
        <time>2026-08-25T13:16:38Z</time>
      </trkpt>
      <trkpt lat="47.53142" lon="-2.85776">
        <ele>2.9</ele>
        <time>2026-08-25T13:16:39Z</time>
      </trkpt>
      <trkpt lat="47.53138" lon="-2.8578">
        <ele>3</ele>
        <time>2026-08-25T13:16:40Z</time>
      </trkpt>
      <trkpt lat="47.53134" lon="-2.85784">
        <ele>2.8</ele>
        <time>2026-08-25T13:16:41Z</time>
      </trkpt>
      <trkpt lat="47.53131" lon="-2.8579">
        <ele>2.7</ele>
        <time>2026-08-25T13:16:42Z</time>
      </trkpt>
      <trkpt lat="47.53128" lon="-2.85795">
        <ele>2.6</ele>
        <time>2026-08-25T13:16:43Z</time>
      </trkpt>
      <trkpt lat="47.53125" lon="-2.85801">
        <ele>2.5</ele>
        <time>2026-08-25T13:16:44Z</time>
      </trkpt>
      <trkpt lat="47.53123" lon="-2.85807">
        <ele>2.5</ele>
        <time>2026-08-25T13:16:45Z</time>
      </trkpt>
      <trkpt lat="47.5312" lon="-2.85813">
        <ele>2.6</ele>
        <time>2026-08-25T13:16:46Z</time>
      </trkpt>
      <trkpt lat="47.53118" lon="-2.85819">
        <ele>2.7</ele>
        <time>2026-08-25T13:16:47Z</time>
      </trkpt>
      <trkpt lat="47.53116" lon="-2.85825">
        <ele>2.9</ele>
        <time>2026-08-25T13:16:48Z</time>
      </trkpt>
      <trkpt lat="47.53114" lon="-2.85831">
        <ele>3</ele>
        <time>2026-08-25T13:16:49Z</time>
      </trkpt>
      <trkpt lat="47.53112" lon="-2.85837">
        <ele>3</ele>
        <time>2026-08-25T13:16:50Z</time>
      </trkpt>
      <trkpt lat="47.53109" lon="-2.85842">
        <ele>2.8</ele>
        <time>2026-08-25T13:16:51Z</time>
      </trkpt>
      <trkpt lat="47.53107" lon="-2.85848">
        <ele>2.7</ele>
        <time>2026-08-25T13:16:52Z</time>
      </trkpt>
      <trkpt lat="47.53104" lon="-2.85854">
        <ele>2.5</ele>
        <time>2026-08-25T13:16:53Z</time>
      </trkpt>
      <trkpt lat="47.53101" lon="-2.8586">
        <ele>2.3</ele>
        <time>2026-08-25T13:16:54Z</time>
      </trkpt>
      <trkpt lat="47.53098" lon="-2.85866">
        <ele>2.2</ele>
        <time>2026-08-25T13:16:55Z</time>
      </trkpt>
      <trkpt lat="47.53096" lon="-2.85872">
        <ele>2.3</ele>
        <time>2026-08-25T13:16:56Z</time>
      </trkpt>
      <trkpt lat="47.53094" lon="-2.85879">
        <ele>2.4</ele>
        <time>2026-08-25T13:16:57Z</time>
      </trkpt>
      <trkpt lat="47.53093" lon="-2.85886">
        <ele>2.6</ele>
        <time>2026-08-25T13:16:58Z</time>
      </trkpt>
      <trkpt lat="47.53093" lon="-2.85893">
        <ele>2.7</ele>
        <time>2026-08-25T13:16:59Z</time>
      </trkpt>
      <trkpt lat="47.53094" lon="-2.85899">
        <ele>2.8</ele>
        <time>2026-08-25T13:17:00Z</time>
      </trkpt>
      <trkpt lat="47.53094" lon="-2.85906">
        <ele>2.8</ele>
        <time>2026-08-25T13:17:01Z</time>
      </trkpt>
      <trkpt lat="47.53094" lon="-2.85913">
        <ele>2.8</ele>
        <time>2026-08-25T13:17:02Z</time>
      </trkpt>
      <trkpt lat="47.53094" lon="-2.85921">
        <ele>2.8</ele>
        <time>2026-08-25T13:17:03Z</time>
      </trkpt>
      <trkpt lat="47.53092" lon="-2.85928">
        <ele>2.8</ele>
        <time>2026-08-25T13:17:04Z</time>
      </trkpt>
      <trkpt lat="47.53091" lon="-2.85935">
        <ele>2.7</ele>
        <time>2026-08-25T13:17:05Z</time>
      </trkpt>
      <trkpt lat="47.5309" lon="-2.85942">
        <ele>2.7</ele>
        <time>2026-08-25T13:17:06Z</time>
      </trkpt>
      <trkpt lat="47.53088" lon="-2.85949">
        <ele>2.5</ele>
        <time>2026-08-25T13:17:07Z</time>
      </trkpt>
      <trkpt lat="47.53087" lon="-2.85956">
        <ele>2.4</ele>
        <time>2026-08-25T13:17:08Z</time>
      </trkpt>
      <trkpt lat="47.53087" lon="-2.85964">
        <ele>2.4</ele>
        <time>2026-08-25T13:17:09Z</time>
      </trkpt>
      <trkpt lat="47.53086" lon="-2.85971">
        <ele>2.3</ele>
        <time>2026-08-25T13:17:10Z</time>
      </trkpt>
      <trkpt lat="47.53085" lon="-2.85978">
        <ele>2.2</ele>
        <time>2026-08-25T13:17:11Z</time>
      </trkpt>
      <trkpt lat="47.53085" lon="-2.85985">
        <ele>2.2</ele>
        <time>2026-08-25T13:17:12Z</time>
      </trkpt>
      <trkpt lat="47.53085" lon="-2.85992">
        <ele>2.2</ele>
        <time>2026-08-25T13:17:13Z</time>
      </trkpt>
      <trkpt lat="47.53085" lon="-2.85999">
        <ele>2.2</ele>
        <time>2026-08-25T13:17:14Z</time>
      </trkpt>
      <trkpt lat="47.53085" lon="-2.86006">
        <ele>2</ele>
        <time>2026-08-25T13:17:15Z</time>
      </trkpt>
      <trkpt lat="47.53087" lon="-2.86013">
        <ele>1.9</ele>
        <time>2026-08-25T13:17:16Z</time>
      </trkpt>
      <trkpt lat="47.53089" lon="-2.86019">
        <ele>1.9</ele>
        <time>2026-08-25T13:17:17Z</time>
      </trkpt>
      <trkpt lat="47.53092" lon="-2.86024">
        <ele>2.1</ele>
        <time>2026-08-25T13:17:18Z</time>
      </trkpt>
      <trkpt lat="47.53095" lon="-2.8603">
        <ele>2.3</ele>
        <time>2026-08-25T13:17:19Z</time>
      </trkpt>
      <trkpt lat="47.53098" lon="-2.86035">
        <ele>2.6</ele>
        <time>2026-08-25T13:17:20Z</time>
      </trkpt>
      <trkpt lat="47.53101" lon="-2.86041">
        <ele>2.8</ele>
        <time>2026-08-25T13:17:21Z</time>
      </trkpt>
      <trkpt lat="47.53104" lon="-2.86046">
        <ele>2.9</ele>
        <time>2026-08-25T13:17:22Z</time>
      </trkpt>
      <trkpt lat="47.53107" lon="-2.86052">
        <ele>2.9</ele>
        <time>2026-08-25T13:17:23Z</time>
      </trkpt>
      <trkpt lat="47.5311" lon="-2.86057">
        <ele>2.9</ele>
        <time>2026-08-25T13:17:24Z</time>
      </trkpt>
      <trkpt lat="47.53113" lon="-2.86063">
        <ele>2.9</ele>
        <time>2026-08-25T13:17:25Z</time>
      </trkpt>
      <trkpt lat="47.53116" lon="-2.86068">
        <ele>2.9</ele>
        <time>2026-08-25T13:17:26Z</time>
      </trkpt>
      <trkpt lat="47.53119" lon="-2.86074">
        <ele>2.9</ele>
        <time>2026-08-25T13:17:27Z</time>
      </trkpt>
      <trkpt lat="47.53122" lon="-2.86079">
        <ele>2.9</ele>
        <time>2026-08-25T13:17:28Z</time>
      </trkpt>
      <trkpt lat="47.53125" lon="-2.86084">
        <ele>3</ele>
        <time>2026-08-25T13:17:29Z</time>
      </trkpt>
      <trkpt lat="47.53129" lon="-2.86088">
        <ele>3.2</ele>
        <time>2026-08-25T13:17:30Z</time>
      </trkpt>
      <trkpt lat="47.53132" lon="-2.86093">
        <ele>3.2</ele>
        <time>2026-08-25T13:17:31Z</time>
      </trkpt>
      <trkpt lat="47.53136" lon="-2.86097">
        <ele>3.4</ele>
        <time>2026-08-25T13:17:32Z</time>
      </trkpt>
      <trkpt lat="47.53139" lon="-2.86101">
        <ele>3.4</ele>
        <time>2026-08-25T13:17:33Z</time>
      </trkpt>
      <trkpt lat="47.53143" lon="-2.86105">
        <ele>3.4</ele>
        <time>2026-08-25T13:17:34Z</time>
      </trkpt>
      <trkpt lat="47.53146" lon="-2.86109">
        <ele>3.3</ele>
        <time>2026-08-25T13:17:35Z</time>
      </trkpt>
      <trkpt lat="47.5315" lon="-2.86113">
        <ele>3.3</ele>
        <time>2026-08-25T13:17:36Z</time>
      </trkpt>
      <trkpt lat="47.53154" lon="-2.86116">
        <ele>3.4</ele>
        <time>2026-08-25T13:17:37Z</time>
      </trkpt>
      <trkpt lat="47.53158" lon="-2.8612">
        <ele>3.4</ele>
        <time>2026-08-25T13:17:38Z</time>
      </trkpt>
      <trkpt lat="47.53162" lon="-2.86122">
        <ele>3.4</ele>
        <time>2026-08-25T13:17:39Z</time>
      </trkpt>
      <trkpt lat="47.53167" lon="-2.86125">
        <ele>3.5</ele>
        <time>2026-08-25T13:17:40Z</time>
      </trkpt>
      <trkpt lat="47.53171" lon="-2.86127">
        <ele>3.4</ele>
        <time>2026-08-25T13:17:41Z</time>
      </trkpt>
      <trkpt lat="47.53176" lon="-2.86129">
        <ele>3.4</ele>
        <time>2026-08-25T13:17:42Z</time>
      </trkpt>
      <trkpt lat="47.53181" lon="-2.86131">
        <ele>3.3</ele>
        <time>2026-08-25T13:17:43Z</time>
      </trkpt>
      <trkpt lat="47.53186" lon="-2.86133">
        <ele>3.2</ele>
        <time>2026-08-25T13:17:44Z</time>
      </trkpt>
      <trkpt lat="47.5319" lon="-2.86134">
        <ele>3.2</ele>
        <time>2026-08-25T13:17:45Z</time>
      </trkpt>
      <trkpt lat="47.53195" lon="-2.86136">
        <ele>3.1</ele>
        <time>2026-08-25T13:17:46Z</time>
      </trkpt>
      <trkpt lat="47.532" lon="-2.86138">
        <ele>3.2</ele>
        <time>2026-08-25T13:17:47Z</time>
      </trkpt>
      <trkpt lat="47.53204" lon="-2.86139">
        <ele>3.3</ele>
        <time>2026-08-25T13:17:48Z</time>
      </trkpt>
      <trkpt lat="47.53209" lon="-2.8614">
        <ele>3.5</ele>
        <time>2026-08-25T13:17:49Z</time>
      </trkpt>
      <trkpt lat="47.53214" lon="-2.86142">
        <ele>3.6</ele>
        <time>2026-08-25T13:17:50Z</time>
      </trkpt>
      <trkpt lat="47.53219" lon="-2.86144">
        <ele>3.7</ele>
        <time>2026-08-25T13:17:51Z</time>
      </trkpt>
      <trkpt lat="47.53224" lon="-2.86145">
        <ele>3.8</ele>
        <time>2026-08-25T13:17:52Z</time>
      </trkpt>
      <trkpt lat="47.53229" lon="-2.86146">
        <ele>3.7</ele>
        <time>2026-08-25T13:17:53Z</time>
      </trkpt>
      <trkpt lat="47.53233" lon="-2.86147">
        <ele>3.6</ele>
        <time>2026-08-25T13:17:54Z</time>
      </trkpt>
      <trkpt lat="47.53238" lon="-2.86148">
        <ele>3.5</ele>
        <time>2026-08-25T13:17:55Z</time>
      </trkpt>
      <trkpt lat="47.53243" lon="-2.86148">
        <ele>3.4</ele>
        <time>2026-08-25T13:17:56Z</time>
      </trkpt>
      <trkpt lat="47.53248" lon="-2.86147">
        <ele>3.4</ele>
        <time>2026-08-25T13:17:57Z</time>
      </trkpt>
      <trkpt lat="47.53252" lon="-2.86147">
        <ele>3.4</ele>
        <time>2026-08-25T13:17:58Z</time>
      </trkpt>
      <trkpt lat="47.53257" lon="-2.86147">
        <ele>3.5</ele>
        <time>2026-08-25T13:17:59Z</time>
      </trkpt>
      <trkpt lat="47.53262" lon="-2.86147">
        <ele>3.5</ele>
        <time>2026-08-25T13:18:00Z</time>
      </trkpt>
      <trkpt lat="47.53267" lon="-2.86148">
        <ele>3.5</ele>
        <time>2026-08-25T13:18:01Z</time>
      </trkpt>
      <trkpt lat="47.53272" lon="-2.86149">
        <ele>3.6</ele>
        <time>2026-08-25T13:18:02Z</time>
      </trkpt>
      <trkpt lat="47.53277" lon="-2.86151">
        <ele>3.6</ele>
        <time>2026-08-25T13:18:03Z</time>
      </trkpt>
      <trkpt lat="47.53282" lon="-2.86154">
        <ele>3.5</ele>
        <time>2026-08-25T13:18:04Z</time>
      </trkpt>
      <trkpt lat="47.53287" lon="-2.86157">
        <ele>3.3</ele>
        <time>2026-08-25T13:18:05Z</time>
      </trkpt>
      <trkpt lat="47.53292" lon="-2.8616">
        <ele>3.2</ele>
        <time>2026-08-25T13:18:06Z</time>
      </trkpt>
      <trkpt lat="47.53296" lon="-2.86163">
        <ele>3.1</ele>
        <time>2026-08-25T13:18:07Z</time>
      </trkpt>
      <trkpt lat="47.53301" lon="-2.86165">
        <ele>3.1</ele>
        <time>2026-08-25T13:18:08Z</time>
      </trkpt>
      <trkpt lat="47.53306" lon="-2.86167">
        <ele>3</ele>
        <time>2026-08-25T13:18:09Z</time>
      </trkpt>
      <trkpt lat="47.5331" lon="-2.86168">
        <ele>3.1</ele>
        <time>2026-08-25T13:18:10Z</time>
      </trkpt>
      <trkpt lat="47.53315" lon="-2.86169">
        <ele>3.2</ele>
        <time>2026-08-25T13:18:11Z</time>
      </trkpt>
      <trkpt lat="47.53319" lon="-2.86171">
        <ele>3.3</ele>
        <time>2026-08-25T13:18:12Z</time>
      </trkpt>
      <trkpt lat="47.53323" lon="-2.86174">
        <ele>3.2</ele>
        <time>2026-08-25T13:18:13Z</time>
      </trkpt>
      <trkpt lat="47.53327" lon="-2.86178">
        <ele>3</ele>
        <time>2026-08-25T13:18:14Z</time>
      </trkpt>
      <trkpt lat="47.53332" lon="-2.86181">
        <ele>2.9</ele>
        <time>2026-08-25T13:18:15Z</time>
      </trkpt>
      <trkpt lat="47.53336" lon="-2.86185">
        <ele>2.8</ele>
        <time>2026-08-25T13:18:16Z</time>
      </trkpt>
      <trkpt lat="47.5334" lon="-2.86189">
        <ele>2.8</ele>
        <time>2026-08-25T13:18:17Z</time>
      </trkpt>
      <trkpt lat="47.53345" lon="-2.86192">
        <ele>3</ele>
        <time>2026-08-25T13:18:18Z</time>
      </trkpt>
      <trkpt lat="47.53349" lon="-2.86195">
        <ele>3.1</ele>
        <time>2026-08-25T13:18:19Z</time>
      </trkpt>
      <trkpt lat="47.53354" lon="-2.86197">
        <ele>3.4</ele>
        <time>2026-08-25T13:18:20Z</time>
      </trkpt>
      <trkpt lat="47.53358" lon="-2.86199">
        <ele>3.5</ele>
        <time>2026-08-25T13:18:21Z</time>
      </trkpt>
      <trkpt lat="47.53363" lon="-2.86201">
        <ele>3.6</ele>
        <time>2026-08-25T13:18:22Z</time>
      </trkpt>
      <trkpt lat="47.53367" lon="-2.86204">
        <ele>3.7</ele>
        <time>2026-08-25T13:18:23Z</time>
      </trkpt>
      <trkpt lat="47.53372" lon="-2.86206">
        <ele>3.8</ele>
        <time>2026-08-25T13:18:24Z</time>
      </trkpt>
      <trkpt lat="47.53376" lon="-2.86209">
        <ele>3.7</ele>
        <time>2026-08-25T13:18:25Z</time>
      </trkpt>
      <trkpt lat="47.53381" lon="-2.86212">
        <ele>3.7</ele>
        <time>2026-08-25T13:18:26Z</time>
      </trkpt>
      <trkpt lat="47.53385" lon="-2.86214">
        <ele>3.7</ele>
        <time>2026-08-25T13:18:27Z</time>
      </trkpt>
      <trkpt lat="47.53389" lon="-2.86217">
        <ele>3.6</ele>
        <time>2026-08-25T13:18:28Z</time>
      </trkpt>
      <trkpt lat="47.53393" lon="-2.8622">
        <ele>3.7</ele>
        <time>2026-08-25T13:18:29Z</time>
      </trkpt>
      <trkpt lat="47.53398" lon="-2.86224">
        <ele>3.9</ele>
        <time>2026-08-25T13:18:30Z</time>
      </trkpt>
      <trkpt lat="47.53402" lon="-2.86227">
        <ele>4.1</ele>
        <time>2026-08-25T13:18:31Z</time>
      </trkpt>
      <trkpt lat="47.53406" lon="-2.8623">
        <ele>4.2</ele>
        <time>2026-08-25T13:18:32Z</time>
      </trkpt>
      <trkpt lat="47.5341" lon="-2.86233">
        <ele>4.3</ele>
        <time>2026-08-25T13:18:33Z</time>
      </trkpt>
      <trkpt lat="47.53415" lon="-2.86237">
        <ele>4.3</ele>
        <time>2026-08-25T13:18:34Z</time>
      </trkpt>
      <trkpt lat="47.53419" lon="-2.8624">
        <ele>4.2</ele>
        <time>2026-08-25T13:18:35Z</time>
      </trkpt>
      <trkpt lat="47.53423" lon="-2.86243">
        <ele>4.1</ele>
        <time>2026-08-25T13:18:36Z</time>
      </trkpt>
      <trkpt lat="47.53427" lon="-2.86246">
        <ele>4.1</ele>
        <time>2026-08-25T13:18:37Z</time>
      </trkpt>
      <trkpt lat="47.53431" lon="-2.86249">
        <ele>4.1</ele>
        <time>2026-08-25T13:18:38Z</time>
      </trkpt>
      <trkpt lat="47.53435" lon="-2.86252">
        <ele>4.2</ele>
        <time>2026-08-25T13:18:39Z</time>
      </trkpt>
      <trkpt lat="47.53439" lon="-2.86255">
        <ele>4.3</ele>
        <time>2026-08-25T13:18:40Z</time>
      </trkpt>
      <trkpt lat="47.53443" lon="-2.86259">
        <ele>4.3</ele>
        <time>2026-08-25T13:18:41Z</time>
      </trkpt>
      <trkpt lat="47.53447" lon="-2.86263">
        <ele>4.2</ele>
        <time>2026-08-25T13:18:42Z</time>
      </trkpt>
      <trkpt lat="47.53451" lon="-2.86267">
        <ele>4</ele>
        <time>2026-08-25T13:18:43Z</time>
      </trkpt>
      <trkpt lat="47.53455" lon="-2.86272">
        <ele>3.8</ele>
        <time>2026-08-25T13:18:44Z</time>
      </trkpt>
      <trkpt lat="47.53458" lon="-2.86276">
        <ele>3.6</ele>
        <time>2026-08-25T13:18:45Z</time>
      </trkpt>
      <trkpt lat="47.53462" lon="-2.86281">
        <ele>3.5</ele>
        <time>2026-08-25T13:18:46Z</time>
      </trkpt>
      <trkpt lat="47.53466" lon="-2.86285">
        <ele>3.5</ele>
        <time>2026-08-25T13:18:47Z</time>
      </trkpt>
      <trkpt lat="47.5347" lon="-2.8629">
        <ele>3.5</ele>
        <time>2026-08-25T13:18:48Z</time>
      </trkpt>
      <trkpt lat="47.53474" lon="-2.86294">
        <ele>3.5</ele>
        <time>2026-08-25T13:18:49Z</time>
      </trkpt>
      <trkpt lat="47.53478" lon="-2.86299">
        <ele>3.4</ele>
        <time>2026-08-25T13:18:50Z</time>
      </trkpt>
      <trkpt lat="47.53482" lon="-2.86304">
        <ele>3.4</ele>
        <time>2026-08-25T13:18:51Z</time>
      </trkpt>
      <trkpt lat="47.53485" lon="-2.86309">
        <ele>3.4</ele>
        <time>2026-08-25T13:18:52Z</time>
      </trkpt>
      <trkpt lat="47.53489" lon="-2.86313">
        <ele>3.4</ele>
        <time>2026-08-25T13:18:53Z</time>
      </trkpt>
      <trkpt lat="47.53492" lon="-2.86318">
        <ele>3.4</ele>
        <time>2026-08-25T13:18:54Z</time>
      </trkpt>
      <trkpt lat="47.53496" lon="-2.86323">
        <ele>3.3</ele>
        <time>2026-08-25T13:18:55Z</time>
      </trkpt>
      <trkpt lat="47.535" lon="-2.86327">
        <ele>3.2</ele>
        <time>2026-08-25T13:18:56Z</time>
      </trkpt>
      <trkpt lat="47.53504" lon="-2.86331">
        <ele>3.1</ele>
        <time>2026-08-25T13:18:57Z</time>
      </trkpt>
      <trkpt lat="47.53508" lon="-2.86335">
        <ele>3</ele>
        <time>2026-08-25T13:18:58Z</time>
      </trkpt>
      <trkpt lat="47.53512" lon="-2.86339">
        <ele>3</ele>
        <time>2026-08-25T13:18:59Z</time>
      </trkpt>
      <trkpt lat="47.53516" lon="-2.86342">
        <ele>3</ele>
        <time>2026-08-25T13:19:00Z</time>
      </trkpt>
      <trkpt lat="47.5352" lon="-2.86346">
        <ele>3</ele>
        <time>2026-08-25T13:19:01Z</time>
      </trkpt>
      <trkpt lat="47.53524" lon="-2.86349">
        <ele>3</ele>
        <time>2026-08-25T13:19:02Z</time>
      </trkpt>
      <trkpt lat="47.53528" lon="-2.86353">
        <ele>3</ele>
        <time>2026-08-25T13:19:03Z</time>
      </trkpt>
      <trkpt lat="47.53531" lon="-2.86357">
        <ele>3.1</ele>
        <time>2026-08-25T13:19:04Z</time>
      </trkpt>
      <trkpt lat="47.53534" lon="-2.86362">
        <ele>3.2</ele>
        <time>2026-08-25T13:19:05Z</time>
      </trkpt>
      <trkpt lat="47.53535" lon="-2.86368">
        <ele>3.3</ele>
        <time>2026-08-25T13:19:06Z</time>
      </trkpt>
      <trkpt lat="47.53536" lon="-2.86375">
        <ele>3.3</ele>
        <time>2026-08-25T13:19:07Z</time>
      </trkpt>
      <trkpt lat="47.53537" lon="-2.86381">
        <ele>3.3</ele>
        <time>2026-08-25T13:19:08Z</time>
      </trkpt>
      <trkpt lat="47.53538" lon="-2.86388">
        <ele>3.4</ele>
        <time>2026-08-25T13:19:09Z</time>
      </trkpt>
      <trkpt lat="47.5354" lon="-2.86394">
        <ele>3.3</ele>
        <time>2026-08-25T13:19:10Z</time>
      </trkpt>
      <trkpt lat="47.53542" lon="-2.86401">
        <ele>3.3</ele>
        <time>2026-08-25T13:19:11Z</time>
      </trkpt>
      <trkpt lat="47.53543" lon="-2.86408">
        <ele>3.2</ele>
        <time>2026-08-25T13:19:12Z</time>
      </trkpt>
      <trkpt lat="47.53545" lon="-2.86415">
        <ele>3.3</ele>
        <time>2026-08-25T13:19:13Z</time>
      </trkpt>
      <trkpt lat="47.53546" lon="-2.86422">
        <ele>3.5</ele>
        <time>2026-08-25T13:19:14Z</time>
      </trkpt>
      <trkpt lat="47.53546" lon="-2.86429">
        <ele>3.8</ele>
        <time>2026-08-25T13:19:15Z</time>
      </trkpt>
      <trkpt lat="47.53545" lon="-2.86436">
        <ele>3.9</ele>
        <time>2026-08-25T13:19:16Z</time>
      </trkpt>
      <trkpt lat="47.53543" lon="-2.86442">
        <ele>4</ele>
        <time>2026-08-25T13:19:17Z</time>
      </trkpt>
      <trkpt lat="47.5354" lon="-2.86447">
        <ele>3.9</ele>
        <time>2026-08-25T13:19:18Z</time>
      </trkpt>
      <trkpt lat="47.53537" lon="-2.86453">
        <ele>3.8</ele>
        <time>2026-08-25T13:19:19Z</time>
      </trkpt>
      <trkpt lat="47.53534" lon="-2.86458">
        <ele>3.6</ele>
        <time>2026-08-25T13:19:20Z</time>
      </trkpt>
      <trkpt lat="47.53531" lon="-2.86464">
        <ele>3.3</ele>
        <time>2026-08-25T13:19:21Z</time>
      </trkpt>
      <trkpt lat="47.53529" lon="-2.8647">
        <ele>3.1</ele>
        <time>2026-08-25T13:19:22Z</time>
      </trkpt>
      <trkpt lat="47.53526" lon="-2.86477">
        <ele>3.1</ele>
        <time>2026-08-25T13:19:23Z</time>
      </trkpt>
      <trkpt lat="47.53523" lon="-2.86483">
        <ele>3.1</ele>
        <time>2026-08-25T13:19:24Z</time>
      </trkpt>
      <trkpt lat="47.53521" lon="-2.8649">
        <ele>3.2</ele>
        <time>2026-08-25T13:19:25Z</time>
      </trkpt>
      <trkpt lat="47.53519" lon="-2.86496">
        <ele>3.3</ele>
        <time>2026-08-25T13:19:26Z</time>
      </trkpt>
      <trkpt lat="47.53517" lon="-2.86503">
        <ele>3.2</ele>
        <time>2026-08-25T13:19:27Z</time>
      </trkpt>
      <trkpt lat="47.53516" lon="-2.86509">
        <ele>3.2</ele>
        <time>2026-08-25T13:19:28Z</time>
      </trkpt>
      <trkpt lat="47.53516" lon="-2.86516">
        <ele>3.2</ele>
        <time>2026-08-25T13:19:29Z</time>
      </trkpt>
      <trkpt lat="47.53516" lon="-2.86523">
        <ele>3.2</ele>
        <time>2026-08-25T13:19:30Z</time>
      </trkpt>
      <trkpt lat="47.53516" lon="-2.8653">
        <ele>3.2</ele>
        <time>2026-08-25T13:19:31Z</time>
      </trkpt>
      <trkpt lat="47.53516" lon="-2.86537">
        <ele>3.3</ele>
        <time>2026-08-25T13:19:32Z</time>
      </trkpt>
      <trkpt lat="47.53515" lon="-2.86543">
        <ele>3.4</ele>
        <time>2026-08-25T13:19:33Z</time>
      </trkpt>
      <trkpt lat="47.53515" lon="-2.8655">
        <ele>3.5</ele>
        <time>2026-08-25T13:19:34Z</time>
      </trkpt>
      <trkpt lat="47.53514" lon="-2.86557">
        <ele>3.5</ele>
        <time>2026-08-25T13:19:35Z</time>
      </trkpt>
      <trkpt lat="47.53514" lon="-2.86563">
        <ele>3.5</ele>
        <time>2026-08-25T13:19:36Z</time>
      </trkpt>
      <trkpt lat="47.53513" lon="-2.8657">
        <ele>3.4</ele>
        <time>2026-08-25T13:19:37Z</time>
      </trkpt>
      <trkpt lat="47.53512" lon="-2.86577">
        <ele>3.3</ele>
        <time>2026-08-25T13:19:38Z</time>
      </trkpt>
      <trkpt lat="47.53511" lon="-2.86583">
        <ele>3.2</ele>
        <time>2026-08-25T13:19:39Z</time>
      </trkpt>
      <trkpt lat="47.53511" lon="-2.8659">
        <ele>3.2</ele>
        <time>2026-08-25T13:19:40Z</time>
      </trkpt>
      <trkpt lat="47.5351" lon="-2.86596">
        <ele>3.1</ele>
        <time>2026-08-25T13:19:41Z</time>
      </trkpt>
      <trkpt lat="47.5351" lon="-2.86602">
        <ele>3.1</ele>
        <time>2026-08-25T13:19:42Z</time>
      </trkpt>
      <trkpt lat="47.5351" lon="-2.86609">
        <ele>3.1</ele>
        <time>2026-08-25T13:19:43Z</time>
      </trkpt>
      <trkpt lat="47.53509" lon="-2.86615">
        <ele>3.1</ele>
        <time>2026-08-25T13:19:44Z</time>
      </trkpt>
      <trkpt lat="47.53508" lon="-2.86622">
        <ele>3.1</ele>
        <time>2026-08-25T13:19:45Z</time>
      </trkpt>
      <trkpt lat="47.53507" lon="-2.86628">
        <ele>3.2</ele>
        <time>2026-08-25T13:19:46Z</time>
      </trkpt>
      <trkpt lat="47.53507" lon="-2.86635">
        <ele>3.4</ele>
        <time>2026-08-25T13:19:47Z</time>
      </trkpt>
      <trkpt lat="47.53507" lon="-2.86642">
        <ele>3.5</ele>
        <time>2026-08-25T13:19:48Z</time>
      </trkpt>
      <trkpt lat="47.53507" lon="-2.86649">
        <ele>3.4</ele>
        <time>2026-08-25T13:19:49Z</time>
      </trkpt>
      <trkpt lat="47.53507" lon="-2.86655">
        <ele>3.4</ele>
        <time>2026-08-25T13:19:50Z</time>
      </trkpt>
      <trkpt lat="47.53506" lon="-2.86662">
        <ele>3.3</ele>
        <time>2026-08-25T13:19:51Z</time>
      </trkpt>
      <trkpt lat="47.53506" lon="-2.86668">
        <ele>3.2</ele>
        <time>2026-08-25T13:19:52Z</time>
      </trkpt>
      <trkpt lat="47.53506" lon="-2.86675">
        <ele>3.2</ele>
        <time>2026-08-25T13:19:53Z</time>
      </trkpt>
      <trkpt lat="47.53505" lon="-2.86681">
        <ele>3.2</ele>
        <time>2026-08-25T13:19:54Z</time>
      </trkpt>
      <trkpt lat="47.53505" lon="-2.86688">
        <ele>3.2</ele>
        <time>2026-08-25T13:19:55Z</time>
      </trkpt>
      <trkpt lat="47.53505" lon="-2.86695">
        <ele>3.2</ele>
        <time>2026-08-25T13:19:56Z</time>
      </trkpt>
      <trkpt lat="47.53505" lon="-2.86701">
        <ele>3.2</ele>
        <time>2026-08-25T13:19:57Z</time>
      </trkpt>
      <trkpt lat="47.53505" lon="-2.86707">
        <ele>3.2</ele>
        <time>2026-08-25T13:19:58Z</time>
      </trkpt>
      <trkpt lat="47.53506" lon="-2.86714">
        <ele>3.2</ele>
        <time>2026-08-25T13:19:59Z</time>
      </trkpt>
      <trkpt lat="47.53506" lon="-2.8672">
        <ele>3.2</ele>
        <time>2026-08-25T13:20:00Z</time>
      </trkpt>
      <trkpt lat="47.53507" lon="-2.86727">
        <ele>3.1</ele>
        <time>2026-08-25T13:20:01Z</time>
      </trkpt>
      <trkpt lat="47.53508" lon="-2.86734">
        <ele>3</ele>
        <time>2026-08-25T13:20:02Z</time>
      </trkpt>
      <trkpt lat="47.53509" lon="-2.8674">
        <ele>2.9</ele>
        <time>2026-08-25T13:20:03Z</time>
      </trkpt>
      <trkpt lat="47.53509" lon="-2.86747">
        <ele>2.7</ele>
        <time>2026-08-25T13:20:04Z</time>
      </trkpt>
      <trkpt lat="47.53509" lon="-2.86754">
        <ele>2.7</ele>
        <time>2026-08-25T13:20:05Z</time>
      </trkpt>
      <trkpt lat="47.5351" lon="-2.86761">
        <ele>3</ele>
        <time>2026-08-25T13:20:06Z</time>
      </trkpt>
      <trkpt lat="47.5351" lon="-2.86767">
        <ele>3.1</ele>
        <time>2026-08-25T13:20:07Z</time>
      </trkpt>
      <trkpt lat="47.53511" lon="-2.86773">
        <ele>3.3</ele>
        <time>2026-08-25T13:20:08Z</time>
      </trkpt>
      <trkpt lat="47.53511" lon="-2.86779">
        <ele>3.4</ele>
        <time>2026-08-25T13:20:09Z</time>
      </trkpt>
      <trkpt lat="47.53511" lon="-2.86786">
        <ele>3.2</ele>
        <time>2026-08-25T13:20:10Z</time>
      </trkpt>
      <trkpt lat="47.53512" lon="-2.86792">
        <ele>3.1</ele>
        <time>2026-08-25T13:20:11Z</time>
      </trkpt>
      <trkpt lat="47.53512" lon="-2.86798">
        <ele>3</ele>
        <time>2026-08-25T13:20:12Z</time>
      </trkpt>
      <trkpt lat="47.53513" lon="-2.86804">
        <ele>3</ele>
        <time>2026-08-25T13:20:13Z</time>
      </trkpt>
      <trkpt lat="47.53513" lon="-2.8681">
        <ele>2.9</ele>
        <time>2026-08-25T13:20:14Z</time>
      </trkpt>
      <trkpt lat="47.53513" lon="-2.86816">
        <ele>2.9</ele>
        <time>2026-08-25T13:20:15Z</time>
      </trkpt>
      <trkpt lat="47.53514" lon="-2.86822">
        <ele>3</ele>
        <time>2026-08-25T13:20:16Z</time>
      </trkpt>
      <trkpt lat="47.53514" lon="-2.86828">
        <ele>3</ele>
        <time>2026-08-25T13:20:17Z</time>
      </trkpt>
      <trkpt lat="47.53514" lon="-2.86835">
        <ele>3</ele>
        <time>2026-08-25T13:20:18Z</time>
      </trkpt>
      <trkpt lat="47.53514" lon="-2.86841">
        <ele>3.1</ele>
        <time>2026-08-25T13:20:19Z</time>
      </trkpt>
      <trkpt lat="47.53515" lon="-2.86848">
        <ele>3.4</ele>
        <time>2026-08-25T13:20:20Z</time>
      </trkpt>
      <trkpt lat="47.53515" lon="-2.86854">
        <ele>3.5</ele>
        <time>2026-08-25T13:20:21Z</time>
      </trkpt>
      <trkpt lat="47.53516" lon="-2.86861">
        <ele>3.7</ele>
        <time>2026-08-25T13:20:22Z</time>
      </trkpt>
      <trkpt lat="47.53516" lon="-2.86867">
        <ele>3.7</ele>
        <time>2026-08-25T13:20:23Z</time>
      </trkpt>
      <trkpt lat="47.53516" lon="-2.86874">
        <ele>3.7</ele>
        <time>2026-08-25T13:20:24Z</time>
      </trkpt>
      <trkpt lat="47.53517" lon="-2.8688">
        <ele>3.7</ele>
        <time>2026-08-25T13:20:25Z</time>
      </trkpt>
      <trkpt lat="47.53517" lon="-2.86887">
        <ele>3.6</ele>
        <time>2026-08-25T13:20:26Z</time>
      </trkpt>
      <trkpt lat="47.53517" lon="-2.86893">
        <ele>3.6</ele>
        <time>2026-08-25T13:20:27Z</time>
      </trkpt>
      <trkpt lat="47.53517" lon="-2.86899">
        <ele>3.6</ele>
        <time>2026-08-25T13:20:28Z</time>
      </trkpt>
      <trkpt lat="47.53517" lon="-2.86905">
        <ele>3.6</ele>
        <time>2026-08-25T13:20:29Z</time>
      </trkpt>
      <trkpt lat="47.53516" lon="-2.86912">
        <ele>3.6</ele>
        <time>2026-08-25T13:20:30Z</time>
      </trkpt>
      <trkpt lat="47.53516" lon="-2.86918">
        <ele>3.6</ele>
        <time>2026-08-25T13:20:31Z</time>
      </trkpt>
      <trkpt lat="47.53515" lon="-2.86924">
        <ele>3.5</ele>
        <time>2026-08-25T13:20:32Z</time>
      </trkpt>
      <trkpt lat="47.53515" lon="-2.8693">
        <ele>3.5</ele>
        <time>2026-08-25T13:20:33Z</time>
      </trkpt>
      <trkpt lat="47.53514" lon="-2.86935">
        <ele>3.5</ele>
        <time>2026-08-25T13:20:34Z</time>
      </trkpt>
      <trkpt lat="47.53514" lon="-2.86941">
        <ele>3.5</ele>
        <time>2026-08-25T13:20:35Z</time>
      </trkpt>
      <trkpt lat="47.53513" lon="-2.86947">
        <ele>3.5</ele>
        <time>2026-08-25T13:20:36Z</time>
      </trkpt>
      <trkpt lat="47.53512" lon="-2.86952">
        <ele>3.4</ele>
        <time>2026-08-25T13:20:37Z</time>
      </trkpt>
      <trkpt lat="47.53511" lon="-2.86957">
        <ele>3.4</ele>
        <time>2026-08-25T13:20:38Z</time>
      </trkpt>
      <trkpt lat="47.53511" lon="-2.86961">
        <ele>3.4</ele>
        <time>2026-08-25T13:20:39Z</time>
      </trkpt>
      <trkpt lat="47.5351" lon="-2.86965">
        <ele>3.4</ele>
        <time>2026-08-25T13:20:40Z</time>
      </trkpt>
      <trkpt lat="47.53509" lon="-2.86969">
        <ele>3.3</ele>
        <time>2026-08-25T13:20:41Z</time>
      </trkpt>
      <trkpt lat="47.53507" lon="-2.86973">
        <ele>3.3</ele>
        <time>2026-08-25T13:20:42Z</time>
      </trkpt>
      <trkpt lat="47.53505" lon="-2.86977">
        <ele>3.3</ele>
        <time>2026-08-25T13:20:43Z</time>
      </trkpt>
      <trkpt lat="47.53503" lon="-2.8698">
        <ele>3.4</ele>
        <time>2026-08-25T13:20:44Z</time>
      </trkpt>
      <trkpt lat="47.53502" lon="-2.86984">
        <ele>3.5</ele>
        <time>2026-08-25T13:20:45Z</time>
      </trkpt>
      <trkpt lat="47.53501" lon="-2.86987">
        <ele>3.5</ele>
        <time>2026-08-25T13:20:46Z</time>
      </trkpt>
      <trkpt lat="47.535" lon="-2.8699">
        <ele>3.6</ele>
        <time>2026-08-25T13:20:47Z</time>
      </trkpt>
      <trkpt lat="47.53499" lon="-2.86994">
        <ele>3.8</ele>
        <time>2026-08-25T13:20:48Z</time>
      </trkpt>
      <trkpt lat="47.53497" lon="-2.87001">
        <ele>3.9</ele>
        <time>2026-08-25T13:20:49Z</time>
      </trkpt>
      <trkpt lat="47.53497" lon="-2.87007">
        <ele>3.9</ele>
        <time>2026-08-25T13:20:50Z</time>
      </trkpt>
      <trkpt lat="47.53497" lon="-2.87013">
        <ele>3.9</ele>
        <time>2026-08-25T13:20:51Z</time>
      </trkpt>
      <trkpt lat="47.53498" lon="-2.87018">
        <ele>3.9</ele>
        <time>2026-08-25T13:20:52Z</time>
      </trkpt>
      <trkpt lat="47.53499" lon="-2.87024">
        <ele>4</ele>
        <time>2026-08-25T13:20:53Z</time>
      </trkpt>
      <trkpt lat="47.53498" lon="-2.87031">
        <ele>3.9</ele>
        <time>2026-08-25T13:20:54Z</time>
      </trkpt>
      <trkpt lat="47.53497" lon="-2.87039">
        <ele>3.9</ele>
        <time>2026-08-25T13:20:55Z</time>
      </trkpt>
      <trkpt lat="47.53497" lon="-2.87045">
        <ele>3.9</ele>
        <time>2026-08-25T13:20:56Z</time>
      </trkpt>
      <trkpt lat="47.53497" lon="-2.87051">
        <ele>3.9</ele>
        <time>2026-08-25T13:20:57Z</time>
      </trkpt>
      <trkpt lat="47.53497" lon="-2.87057">
        <ele>3.9</ele>
        <time>2026-08-25T13:20:58Z</time>
      </trkpt>
      <trkpt lat="47.53498" lon="-2.87063">
        <ele>3.9</ele>
        <time>2026-08-25T13:20:59Z</time>
      </trkpt>
      <trkpt lat="47.53498" lon="-2.87069">
        <ele>3.9</ele>
        <time>2026-08-25T13:21:00Z</time>
      </trkpt>
      <trkpt lat="47.53498" lon="-2.87075">
        <ele>3.9</ele>
        <time>2026-08-25T13:21:01Z</time>
      </trkpt>
      <trkpt lat="47.53498" lon="-2.87082">
        <ele>3.9</ele>
        <time>2026-08-25T13:21:02Z</time>
      </trkpt>
      <trkpt lat="47.53498" lon="-2.87089">
        <ele>3.9</ele>
        <time>2026-08-25T13:21:03Z</time>
      </trkpt>
      <trkpt lat="47.53499" lon="-2.87096">
        <ele>4</ele>
        <time>2026-08-25T13:21:04Z</time>
      </trkpt>
      <trkpt lat="47.53499" lon="-2.87102">
        <ele>4</ele>
        <time>2026-08-25T13:21:05Z</time>
      </trkpt>
      <trkpt lat="47.53499" lon="-2.87109">
        <ele>4</ele>
        <time>2026-08-25T13:21:06Z</time>
      </trkpt>
      <trkpt lat="47.53499" lon="-2.87115">
        <ele>4</ele>
        <time>2026-08-25T13:21:07Z</time>
      </trkpt>
      <trkpt lat="47.53499" lon="-2.87122">
        <ele>4</ele>
        <time>2026-08-25T13:21:08Z</time>
      </trkpt>
      <trkpt lat="47.535" lon="-2.8713">
        <ele>4</ele>
        <time>2026-08-25T13:21:09Z</time>
      </trkpt>
      <trkpt lat="47.53501" lon="-2.87137">
        <ele>4</ele>
        <time>2026-08-25T13:21:10Z</time>
      </trkpt>
      <trkpt lat="47.53501" lon="-2.87143">
        <ele>3.9</ele>
        <time>2026-08-25T13:21:11Z</time>
      </trkpt>
      <trkpt lat="47.53501" lon="-2.87148">
        <ele>3.7</ele>
        <time>2026-08-25T13:21:12Z</time>
      </trkpt>
      <trkpt lat="47.53501" lon="-2.87153">
        <ele>3.5</ele>
        <time>2026-08-25T13:21:13Z</time>
      </trkpt>
      <trkpt lat="47.53501" lon="-2.87159">
        <ele>3.3</ele>
        <time>2026-08-25T13:21:14Z</time>
      </trkpt>
      <trkpt lat="47.53501" lon="-2.87164">
        <ele>3.1</ele>
        <time>2026-08-25T13:21:15Z</time>
      </trkpt>
      <trkpt lat="47.53501" lon="-2.87169">
        <ele>3</ele>
        <time>2026-08-25T13:21:16Z</time>
      </trkpt>
      <trkpt lat="47.53499" lon="-2.87175">
        <ele>3</ele>
        <time>2026-08-25T13:21:17Z</time>
      </trkpt>
      <trkpt lat="47.53499" lon="-2.87181">
        <ele>3</ele>
        <time>2026-08-25T13:21:18Z</time>
      </trkpt>
      <trkpt lat="47.535" lon="-2.87186">
        <ele>3</ele>
        <time>2026-08-25T13:21:19Z</time>
      </trkpt>
      <trkpt lat="47.53502" lon="-2.87191">
        <ele>3</ele>
        <time>2026-08-25T13:21:20Z</time>
      </trkpt>
      <trkpt lat="47.53503" lon="-2.87196">
        <ele>3</ele>
        <time>2026-08-25T13:21:21Z</time>
      </trkpt>
      <trkpt lat="47.53505" lon="-2.87202">
        <ele>2.8</ele>
        <time>2026-08-25T13:21:22Z</time>
      </trkpt>
      <trkpt lat="47.53506" lon="-2.87207">
        <ele>2.6</ele>
        <time>2026-08-25T13:21:23Z</time>
      </trkpt>
      <trkpt lat="47.53508" lon="-2.87212">
        <ele>2.6</ele>
        <time>2026-08-25T13:21:24Z</time>
      </trkpt>
      <trkpt lat="47.53509" lon="-2.87218">
        <ele>2.4</ele>
        <time>2026-08-25T13:21:25Z</time>
      </trkpt>
      <trkpt lat="47.5351" lon="-2.87225">
        <ele>2.3</ele>
        <time>2026-08-25T13:21:26Z</time>
      </trkpt>
      <trkpt lat="47.53512" lon="-2.8723">
        <ele>2.3</ele>
        <time>2026-08-25T13:21:27Z</time>
      </trkpt>
      <trkpt lat="47.53514" lon="-2.87235">
        <ele>2.3</ele>
        <time>2026-08-25T13:21:28Z</time>
      </trkpt>
      <trkpt lat="47.53517" lon="-2.87238">
        <ele>2.4</ele>
        <time>2026-08-25T13:21:29Z</time>
      </trkpt>
      <trkpt lat="47.5352" lon="-2.87242">
        <ele>2.5</ele>
        <time>2026-08-25T13:21:30Z</time>
      </trkpt>
      <trkpt lat="47.53522" lon="-2.87246">
        <ele>2.6</ele>
        <time>2026-08-25T13:21:31Z</time>
      </trkpt>
      <trkpt lat="47.53523" lon="-2.8725">
        <ele>2.7</ele>
        <time>2026-08-25T13:21:32Z</time>
      </trkpt>
      <trkpt lat="47.53524" lon="-2.87254">
        <ele>2.7</ele>
        <time>2026-08-25T13:21:33Z</time>
      </trkpt>
      <trkpt lat="47.53525" lon="-2.87258">
        <ele>2.8</ele>
        <time>2026-08-25T13:21:34Z</time>
      </trkpt>
      <trkpt lat="47.53526" lon="-2.87263">
        <ele>2.9</ele>
        <time>2026-08-25T13:21:35Z</time>
      </trkpt>
      <trkpt lat="47.53527" lon="-2.87267">
        <ele>2.9</ele>
        <time>2026-08-25T13:21:36Z</time>
      </trkpt>
      <trkpt lat="47.53529" lon="-2.87271">
        <ele>3.1</ele>
        <time>2026-08-25T13:21:37Z</time>
      </trkpt>
      <trkpt lat="47.53529" lon="-2.87275">
        <ele>3.1</ele>
        <time>2026-08-25T13:21:38Z</time>
      </trkpt>
      <trkpt lat="47.5353" lon="-2.8728">
        <ele>3.1</ele>
        <time>2026-08-25T13:21:39Z</time>
      </trkpt>
      <trkpt lat="47.53531" lon="-2.87286">
        <ele>3</ele>
        <time>2026-08-25T13:21:40Z</time>
      </trkpt>
      <trkpt lat="47.53531" lon="-2.87292">
        <ele>2.8</ele>
        <time>2026-08-25T13:21:41Z</time>
      </trkpt>
      <trkpt lat="47.53532" lon="-2.87297">
        <ele>2.7</ele>
        <time>2026-08-25T13:21:42Z</time>
      </trkpt>
      <trkpt lat="47.53534" lon="-2.87301">
        <ele>2.8</ele>
        <time>2026-08-25T13:21:43Z</time>
      </trkpt>
      <trkpt lat="47.53535" lon="-2.87305">
        <ele>2.8</ele>
        <time>2026-08-25T13:21:44Z</time>
      </trkpt>
      <trkpt lat="47.53537" lon="-2.87309">
        <ele>2.9</ele>
        <time>2026-08-25T13:21:45Z</time>
      </trkpt>
      <trkpt lat="47.53538" lon="-2.87313">
        <ele>2.9</ele>
        <time>2026-08-25T13:21:46Z</time>
      </trkpt>
      <trkpt lat="47.53539" lon="-2.87317">
        <ele>3</ele>
        <time>2026-08-25T13:21:47Z</time>
      </trkpt>
      <trkpt lat="47.5354" lon="-2.87321">
        <ele>3</ele>
        <time>2026-08-25T13:21:48Z</time>
      </trkpt>
      <trkpt lat="47.5354" lon="-2.87325">
        <ele>2.9</ele>
        <time>2026-08-25T13:21:49Z</time>
      </trkpt>
      <trkpt lat="47.5354" lon="-2.87329">
        <ele>2.8</ele>
        <time>2026-08-25T13:21:50Z</time>
      </trkpt>
      <trkpt lat="47.5354" lon="-2.87333">
        <ele>2.8</ele>
        <time>2026-08-25T13:21:51Z</time>
      </trkpt>
      <trkpt lat="47.5354" lon="-2.87338">
        <ele>2.8</ele>
        <time>2026-08-25T13:21:52Z</time>
      </trkpt>
      <trkpt lat="47.5354" lon="-2.87342">
        <ele>2.8</ele>
        <time>2026-08-25T13:21:53Z</time>
      </trkpt>
      <trkpt lat="47.53541" lon="-2.87347">
        <ele>2.9</ele>
        <time>2026-08-25T13:21:54Z</time>
      </trkpt>
      <trkpt lat="47.53541" lon="-2.87353">
        <ele>2.9</ele>
        <time>2026-08-25T13:21:55Z</time>
      </trkpt>
      <trkpt lat="47.53541" lon="-2.87359">
        <ele>2.9</ele>
        <time>2026-08-25T13:21:56Z</time>
      </trkpt>
      <trkpt lat="47.53541" lon="-2.87365">
        <ele>2.9</ele>
        <time>2026-08-25T13:21:57Z</time>
      </trkpt>
      <trkpt lat="47.53543" lon="-2.8737">
        <ele>3.2</ele>
        <time>2026-08-25T13:21:58Z</time>
      </trkpt>
      <trkpt lat="47.53545" lon="-2.87373">
        <ele>3.5</ele>
        <time>2026-08-25T13:21:59Z</time>
      </trkpt>
      <trkpt lat="47.53546" lon="-2.87377">
        <ele>3.6</ele>
        <time>2026-08-25T13:22:00Z</time>
      </trkpt>
      <trkpt lat="47.53548" lon="-2.87381">
        <ele>3.9</ele>
        <time>2026-08-25T13:22:01Z</time>
      </trkpt>
      <trkpt lat="47.53548" lon="-2.87384">
        <ele>3.9</ele>
        <time>2026-08-25T13:22:02Z</time>
      </trkpt>
      <trkpt lat="47.53549" lon="-2.87388">
        <ele>4.1</ele>
        <time>2026-08-25T13:22:03Z</time>
      </trkpt>
      <trkpt lat="47.5355" lon="-2.87393">
        <ele>4.2</ele>
        <time>2026-08-25T13:22:04Z</time>
      </trkpt>
      <trkpt lat="47.53551" lon="-2.87398">
        <ele>4.3</ele>
        <time>2026-08-25T13:22:05Z</time>
      </trkpt>
      <trkpt lat="47.53551" lon="-2.87403">
        <ele>4.3</ele>
        <time>2026-08-25T13:22:06Z</time>
      </trkpt>
      <trkpt lat="47.53551" lon="-2.87409">
        <ele>4.3</ele>
        <time>2026-08-25T13:22:07Z</time>
      </trkpt>
      <trkpt lat="47.53552" lon="-2.87414">
        <ele>4.5</ele>
        <time>2026-08-25T13:22:08Z</time>
      </trkpt>
      <trkpt lat="47.53554" lon="-2.87421">
        <ele>4.5</ele>
        <time>2026-08-25T13:22:09Z</time>
      </trkpt>
      <trkpt lat="47.53556" lon="-2.87427">
        <ele>4.3</ele>
        <time>2026-08-25T13:22:10Z</time>
      </trkpt>
      <trkpt lat="47.53558" lon="-2.87431">
        <ele>4.1</ele>
        <time>2026-08-25T13:22:11Z</time>
      </trkpt>
      <trkpt lat="47.53558" lon="-2.87434">
        <ele>3.9</ele>
        <time>2026-08-25T13:22:12Z</time>
      </trkpt>
      <trkpt lat="47.5356" lon="-2.87435">
        <ele>4</ele>
        <time>2026-08-25T13:22:13Z</time>
      </trkpt>
      <trkpt lat="47.53561" lon="-2.87436">
        <ele>4</ele>
        <time>2026-08-25T13:22:14Z</time>
      </trkpt>
      <trkpt lat="47.53564" lon="-2.87435">
        <ele>4.3</ele>
        <time>2026-08-25T13:22:15Z</time>
      </trkpt>
      <trkpt lat="47.53565" lon="-2.87435">
        <ele>4.4</ele>
        <time>2026-08-25T13:22:16Z</time>
      </trkpt>
      <trkpt lat="47.53567" lon="-2.87434">
        <ele>4.6</ele>
        <time>2026-08-25T13:22:17Z</time>
      </trkpt>
      <trkpt lat="47.53568" lon="-2.87434">
        <ele>4.6</ele>
        <time>2026-08-25T13:22:18Z</time>
      </trkpt>
      <trkpt lat="47.5357" lon="-2.87434">
        <ele>4.8</ele>
        <time>2026-08-25T13:22:19Z</time>
      </trkpt>
      <trkpt lat="47.53572" lon="-2.87433">
        <ele>5</ele>
        <time>2026-08-25T13:22:20Z</time>
      </trkpt>
      <trkpt lat="47.53574" lon="-2.87432">
        <ele>5.2</ele>
        <time>2026-08-25T13:22:21Z</time>
      </trkpt>
      <trkpt lat="47.53576" lon="-2.87431">
        <ele>5.4</ele>
        <time>2026-08-25T13:22:22Z</time>
      </trkpt>
      <trkpt lat="47.53577" lon="-2.8743">
        <ele>5.6</ele>
        <time>2026-08-25T13:22:23Z</time>
      </trkpt>
      <trkpt lat="47.53578" lon="-2.8743">
        <ele>5.7</ele>
        <time>2026-08-25T13:22:24Z</time>
      </trkpt>
      <trkpt lat="47.53579" lon="-2.8743">
        <ele>5.7</ele>
        <time>2026-08-25T13:22:25Z</time>
      </trkpt>
      <trkpt lat="47.53579" lon="-2.8743">
        <ele>5.7</ele>
        <time>2026-08-25T13:22:26Z</time>
      </trkpt>
      <trkpt lat="47.53584" lon="-2.87428">
        <ele>6.2</ele>
        <time>2026-08-25T13:22:49Z</time>
      </trkpt>
      <trkpt lat="47.53586" lon="-2.87428">
        <ele>6.4</ele>
        <time>2026-08-25T13:22:50Z</time>
      </trkpt>
      <trkpt lat="47.53588" lon="-2.87427">
        <ele>6.6</ele>
        <time>2026-08-25T13:22:51Z</time>
      </trkpt>
      <trkpt lat="47.5359" lon="-2.87427">
        <ele>6.7</ele>
        <time>2026-08-25T13:22:52Z</time>
      </trkpt>
      <trkpt lat="47.53591" lon="-2.87425">
        <ele>7</ele>
        <time>2026-08-25T13:22:53Z</time>
      </trkpt>
      <trkpt lat="47.53593" lon="-2.87424">
        <ele>7.2</ele>
        <time>2026-08-25T13:22:54Z</time>
      </trkpt>
      <trkpt lat="47.53594" lon="-2.87423">
        <ele>7.3</ele>
        <time>2026-08-25T13:22:55Z</time>
      </trkpt>
      <trkpt lat="47.53597" lon="-2.87422">
        <ele>7.6</ele>
        <time>2026-08-25T13:22:56Z</time>
      </trkpt>
      <trkpt lat="47.53599" lon="-2.8742">
        <ele>7.9</ele>
        <time>2026-08-25T13:22:57Z</time>
      </trkpt>
      <trkpt lat="47.53601" lon="-2.87419">
        <ele>8.1</ele>
        <time>2026-08-25T13:22:58Z</time>
      </trkpt>
      <trkpt lat="47.53603" lon="-2.87418">
        <ele>8.3</ele>
        <time>2026-08-25T13:22:59Z</time>
      </trkpt>
      <trkpt lat="47.53606" lon="-2.87416">
        <ele>8.6</ele>
        <time>2026-08-25T13:23:00Z</time>
      </trkpt>
      <trkpt lat="47.53608" lon="-2.87414">
        <ele>8.8</ele>
        <time>2026-08-25T13:23:01Z</time>
      </trkpt>
      <trkpt lat="47.53609" lon="-2.87411">
        <ele>8.8</ele>
        <time>2026-08-25T13:23:02Z</time>
      </trkpt>
      <trkpt lat="47.5361" lon="-2.87408">
        <ele>8.9</ele>
        <time>2026-08-25T13:23:03Z</time>
      </trkpt>
      <trkpt lat="47.53612" lon="-2.87405">
        <ele>9</ele>
        <time>2026-08-25T13:23:04Z</time>
      </trkpt>
      <trkpt lat="47.53613" lon="-2.87402">
        <ele>9.1</ele>
        <time>2026-08-25T13:23:05Z</time>
      </trkpt>
      <trkpt lat="47.53614" lon="-2.87398">
        <ele>9.1</ele>
        <time>2026-08-25T13:23:06Z</time>
      </trkpt>
      <trkpt lat="47.53615" lon="-2.87394">
        <ele>9.1</ele>
        <time>2026-08-25T13:23:07Z</time>
      </trkpt>
      <trkpt lat="47.53616" lon="-2.87391">
        <ele>9.2</ele>
        <time>2026-08-25T13:23:08Z</time>
      </trkpt>
      <trkpt lat="47.53617" lon="-2.87387">
        <ele>9.2</ele>
        <time>2026-08-25T13:23:09Z</time>
      </trkpt>
      <trkpt lat="47.53618" lon="-2.87384">
        <ele>9.3</ele>
        <time>2026-08-25T13:23:10Z</time>
      </trkpt>
      <trkpt lat="47.53618" lon="-2.87381">
        <ele>9.3</ele>
        <time>2026-08-25T13:23:11Z</time>
      </trkpt>
      <trkpt lat="47.53619" lon="-2.87377">
        <ele>9.4</ele>
        <time>2026-08-25T13:23:12Z</time>
      </trkpt>
      <trkpt lat="47.53619" lon="-2.87374">
        <ele>9.4</ele>
        <time>2026-08-25T13:23:13Z</time>
      </trkpt>
      <trkpt lat="47.5362" lon="-2.8737">
        <ele>9.5</ele>
        <time>2026-08-25T13:23:14Z</time>
      </trkpt>
      <trkpt lat="47.53621" lon="-2.87367">
        <ele>9.6</ele>
        <time>2026-08-25T13:23:15Z</time>
      </trkpt>
      <trkpt lat="47.53621" lon="-2.87363">
        <ele>9.7</ele>
        <time>2026-08-25T13:23:16Z</time>
      </trkpt>
      <trkpt lat="47.53622" lon="-2.8736">
        <ele>9.8</ele>
        <time>2026-08-25T13:23:17Z</time>
      </trkpt>
      <trkpt lat="47.53623" lon="-2.87357">
        <ele>9.8</ele>
        <time>2026-08-25T13:23:18Z</time>
      </trkpt>
      <trkpt lat="47.53624" lon="-2.87354">
        <ele>9.8</ele>
        <time>2026-08-25T13:23:19Z</time>
      </trkpt>
      <trkpt lat="47.53624" lon="-2.87353">
        <ele>9.8</ele>
        <time>2026-08-25T13:23:20Z</time>
      </trkpt>
      <trkpt lat="47.53625" lon="-2.87351">
        <ele>9.8</ele>
        <time>2026-08-25T13:23:21Z</time>
      </trkpt>
      <trkpt lat="47.53625" lon="-2.87348">
        <ele>9.8</ele>
        <time>2026-08-25T13:23:22Z</time>
      </trkpt>
      <trkpt lat="47.53626" lon="-2.87345">
        <ele>9.8</ele>
        <time>2026-08-25T13:23:23Z</time>
      </trkpt>
      <trkpt lat="47.53628" lon="-2.87343">
        <ele>9.8</ele>
        <time>2026-08-25T13:23:24Z</time>
      </trkpt>
      <trkpt lat="47.5363" lon="-2.87341">
        <ele>9.9</ele>
        <time>2026-08-25T13:23:25Z</time>
      </trkpt>
      <trkpt lat="47.53633" lon="-2.87339">
        <ele>9.9</ele>
        <time>2026-08-25T13:23:26Z</time>
      </trkpt>
      <trkpt lat="47.53636" lon="-2.87337">
        <ele>10</ele>
        <time>2026-08-25T13:23:27Z</time>
      </trkpt>
      <trkpt lat="47.53639" lon="-2.87335">
        <ele>10.1</ele>
        <time>2026-08-25T13:23:28Z</time>
      </trkpt>
      <trkpt lat="47.53642" lon="-2.87333">
        <ele>10.1</ele>
        <time>2026-08-25T13:23:29Z</time>
      </trkpt>
      <trkpt lat="47.53645" lon="-2.87332">
        <ele>10.2</ele>
        <time>2026-08-25T13:23:30Z</time>
      </trkpt>
      <trkpt lat="47.53648" lon="-2.8733">
        <ele>10.4</ele>
        <time>2026-08-25T13:23:31Z</time>
      </trkpt>
      <trkpt lat="47.5365" lon="-2.87329">
        <ele>10.5</ele>
        <time>2026-08-25T13:23:32Z</time>
      </trkpt>
      <trkpt lat="47.53653" lon="-2.87327">
        <ele>10.6</ele>
        <time>2026-08-25T13:23:33Z</time>
      </trkpt>
      <trkpt lat="47.53656" lon="-2.87325">
        <ele>10.8</ele>
        <time>2026-08-25T13:23:34Z</time>
      </trkpt>
      <trkpt lat="47.53659" lon="-2.87323">
        <ele>11</ele>
        <time>2026-08-25T13:23:35Z</time>
      </trkpt>
      <trkpt lat="47.53662" lon="-2.87321">
        <ele>11.2</ele>
        <time>2026-08-25T13:23:36Z</time>
      </trkpt>
      <trkpt lat="47.53665" lon="-2.87319">
        <ele>11.4</ele>
        <time>2026-08-25T13:23:37Z</time>
      </trkpt>
      <trkpt lat="47.53668" lon="-2.87318">
        <ele>11.6</ele>
        <time>2026-08-25T13:23:38Z</time>
      </trkpt>
      <trkpt lat="47.53671" lon="-2.87316">
        <ele>11.8</ele>
        <time>2026-08-25T13:23:39Z</time>
      </trkpt>
      <trkpt lat="47.53674" lon="-2.87315">
        <ele>11.9</ele>
        <time>2026-08-25T13:23:40Z</time>
      </trkpt>
      <trkpt lat="47.53677" lon="-2.87315">
        <ele>12</ele>
        <time>2026-08-25T13:23:41Z</time>
      </trkpt>
      <trkpt lat="47.53681" lon="-2.87314">
        <ele>12.2</ele>
        <time>2026-08-25T13:23:42Z</time>
      </trkpt>
      <trkpt lat="47.53685" lon="-2.87314">
        <ele>12.4</ele>
        <time>2026-08-25T13:23:43Z</time>
      </trkpt>
      <trkpt lat="47.53689" lon="-2.87313">
        <ele>12.5</ele>
        <time>2026-08-25T13:23:44Z</time>
      </trkpt>
      <trkpt lat="47.53692" lon="-2.87312">
        <ele>12.7</ele>
        <time>2026-08-25T13:23:45Z</time>
      </trkpt>
      <trkpt lat="47.53696" lon="-2.87312">
        <ele>12.8</ele>
        <time>2026-08-25T13:23:46Z</time>
      </trkpt>
      <trkpt lat="47.537" lon="-2.87311">
        <ele>12.8</ele>
        <time>2026-08-25T13:23:47Z</time>
      </trkpt>
      <trkpt lat="47.53703" lon="-2.87311">
        <ele>12.8</ele>
        <time>2026-08-25T13:23:48Z</time>
      </trkpt>
      <trkpt lat="47.53707" lon="-2.8731">
        <ele>12.8</ele>
        <time>2026-08-25T13:23:49Z</time>
      </trkpt>
      <trkpt lat="47.53711" lon="-2.8731">
        <ele>12.8</ele>
        <time>2026-08-25T13:23:50Z</time>
      </trkpt>
      <trkpt lat="47.53715" lon="-2.8731">
        <ele>12.8</ele>
        <time>2026-08-25T13:23:51Z</time>
      </trkpt>
      <trkpt lat="47.53719" lon="-2.87311">
        <ele>12.8</ele>
        <time>2026-08-25T13:23:52Z</time>
      </trkpt>
      <trkpt lat="47.53722" lon="-2.87313">
        <ele>12.7</ele>
        <time>2026-08-25T13:23:53Z</time>
      </trkpt>
      <trkpt lat="47.53726" lon="-2.87314">
        <ele>12.8</ele>
        <time>2026-08-25T13:23:54Z</time>
      </trkpt>
      <trkpt lat="47.53729" lon="-2.87315">
        <ele>12.9</ele>
        <time>2026-08-25T13:23:55Z</time>
      </trkpt>
      <trkpt lat="47.53733" lon="-2.87315">
        <ele>13</ele>
        <time>2026-08-25T13:23:56Z</time>
      </trkpt>
      <trkpt lat="47.53736" lon="-2.87313">
        <ele>13.2</ele>
        <time>2026-08-25T13:23:57Z</time>
      </trkpt>
      <trkpt lat="47.53739" lon="-2.87309">
        <ele>13.5</ele>
        <time>2026-08-25T13:23:58Z</time>
      </trkpt>
      <trkpt lat="47.5374" lon="-2.87304">
        <ele>13.7</ele>
        <time>2026-08-25T13:23:59Z</time>
      </trkpt>
      <trkpt lat="47.53741" lon="-2.87299">
        <ele>14</ele>
        <time>2026-08-25T13:24:00Z</time>
      </trkpt>
      <trkpt lat="47.53741" lon="-2.87294">
        <ele>14.2</ele>
        <time>2026-08-25T13:24:01Z</time>
      </trkpt>
      <trkpt lat="47.53741" lon="-2.87289">
        <ele>14.5</ele>
        <time>2026-08-25T13:24:02Z</time>
      </trkpt>
      <trkpt lat="47.53741" lon="-2.87284">
        <ele>14.7</ele>
        <time>2026-08-25T13:24:03Z</time>
      </trkpt>
      <trkpt lat="47.53741" lon="-2.87279">
        <ele>14.9</ele>
        <time>2026-08-25T13:24:04Z</time>
      </trkpt>
      <trkpt lat="47.53741" lon="-2.87275">
        <ele>15.1</ele>
        <time>2026-08-25T13:24:05Z</time>
      </trkpt>
      <trkpt lat="47.53741" lon="-2.8727">
        <ele>15.2</ele>
        <time>2026-08-25T13:24:06Z</time>
      </trkpt>
      <trkpt lat="47.53742" lon="-2.87265">
        <ele>15.3</ele>
        <time>2026-08-25T13:24:07Z</time>
      </trkpt>
      <trkpt lat="47.53743" lon="-2.87259">
        <ele>15.5</ele>
        <time>2026-08-25T13:24:08Z</time>
      </trkpt>
      <trkpt lat="47.53743" lon="-2.87254">
        <ele>15.6</ele>
        <time>2026-08-25T13:24:09Z</time>
      </trkpt>
      <trkpt lat="47.53743" lon="-2.87249">
        <ele>15.8</ele>
        <time>2026-08-25T13:24:10Z</time>
      </trkpt>
      <trkpt lat="47.53743" lon="-2.87245">
        <ele>15.8</ele>
        <time>2026-08-25T13:24:11Z</time>
      </trkpt>
      <trkpt lat="47.53744" lon="-2.8724">
        <ele>15.9</ele>
        <time>2026-08-25T13:24:12Z</time>
      </trkpt>
      <trkpt lat="47.53744" lon="-2.87235">
        <ele>16</ele>
        <time>2026-08-25T13:24:13Z</time>
      </trkpt>
      <trkpt lat="47.53744" lon="-2.8723">
        <ele>16.1</ele>
        <time>2026-08-25T13:24:14Z</time>
      </trkpt>
      <trkpt lat="47.53745" lon="-2.87226">
        <ele>16.1</ele>
        <time>2026-08-25T13:24:15Z</time>
      </trkpt>
      <trkpt lat="47.53746" lon="-2.87223">
        <ele>16.1</ele>
        <time>2026-08-25T13:24:16Z</time>
      </trkpt>
      <trkpt lat="47.53749" lon="-2.8722">
        <ele>16</ele>
        <time>2026-08-25T13:24:17Z</time>
      </trkpt>
      <trkpt lat="47.53752" lon="-2.87219">
        <ele>16</ele>
        <time>2026-08-25T13:24:18Z</time>
      </trkpt>
      <trkpt lat="47.53754" lon="-2.87217">
        <ele>16</ele>
        <time>2026-08-25T13:24:19Z</time>
      </trkpt>
      <trkpt lat="47.53758" lon="-2.87216">
        <ele>16</ele>
        <time>2026-08-25T13:24:20Z</time>
      </trkpt>
      <trkpt lat="47.53761" lon="-2.87215">
        <ele>16</ele>
        <time>2026-08-25T13:24:21Z</time>
      </trkpt>
      <trkpt lat="47.53765" lon="-2.87214">
        <ele>16</ele>
        <time>2026-08-25T13:24:22Z</time>
      </trkpt>
      <trkpt lat="47.53768" lon="-2.87212">
        <ele>16</ele>
        <time>2026-08-25T13:24:23Z</time>
      </trkpt>
      <trkpt lat="47.53771" lon="-2.87212">
        <ele>16</ele>
        <time>2026-08-25T13:24:24Z</time>
      </trkpt>
      <trkpt lat="47.53774" lon="-2.87211">
        <ele>16</ele>
        <time>2026-08-25T13:24:25Z</time>
      </trkpt>
      <trkpt lat="47.53776" lon="-2.8721">
        <ele>16</ele>
        <time>2026-08-25T13:24:26Z</time>
      </trkpt>
      <trkpt lat="47.53778" lon="-2.8721">
        <ele>16</ele>
        <time>2026-08-25T13:24:27Z</time>
      </trkpt>
      <trkpt lat="47.5378" lon="-2.8721">
        <ele>15.9</ele>
        <time>2026-08-25T13:24:28Z</time>
      </trkpt>
      <trkpt lat="47.53783" lon="-2.8721">
        <ele>15.8</ele>
        <time>2026-08-25T13:24:29Z</time>
      </trkpt>
      <trkpt lat="47.53785" lon="-2.87212">
        <ele>15.7</ele>
        <time>2026-08-25T13:24:30Z</time>
      </trkpt>
      <trkpt lat="47.53788" lon="-2.87215">
        <ele>15.6</ele>
        <time>2026-08-25T13:24:31Z</time>
      </trkpt>
      <trkpt lat="47.5379" lon="-2.87218">
        <ele>15.6</ele>
        <time>2026-08-25T13:24:32Z</time>
      </trkpt>
      <trkpt lat="47.53792" lon="-2.87222">
        <ele>15.5</ele>
        <time>2026-08-25T13:24:33Z</time>
      </trkpt>
      <trkpt lat="47.53794" lon="-2.87226">
        <ele>15.5</ele>
        <time>2026-08-25T13:24:34Z</time>
      </trkpt>
      <trkpt lat="47.53795" lon="-2.87231">
        <ele>15.6</ele>
        <time>2026-08-25T13:24:35Z</time>
      </trkpt>
      <trkpt lat="47.53797" lon="-2.87235">
        <ele>15.6</ele>
        <time>2026-08-25T13:24:36Z</time>
      </trkpt>
      <trkpt lat="47.538" lon="-2.8724">
        <ele>15.7</ele>
        <time>2026-08-25T13:24:37Z</time>
      </trkpt>
      <trkpt lat="47.53802" lon="-2.87245">
        <ele>15.8</ele>
        <time>2026-08-25T13:24:38Z</time>
      </trkpt>
      <trkpt lat="47.53804" lon="-2.8725">
        <ele>16</ele>
        <time>2026-08-25T13:24:39Z</time>
      </trkpt>
      <trkpt lat="47.53806" lon="-2.87255">
        <ele>15.8</ele>
        <time>2026-08-25T13:24:40Z</time>
      </trkpt>
      <trkpt lat="47.53808" lon="-2.8726">
        <ele>15.6</ele>
        <time>2026-08-25T13:24:41Z</time>
      </trkpt>
      <trkpt lat="47.5381" lon="-2.87266">
        <ele>15.4</ele>
        <time>2026-08-25T13:24:42Z</time>
      </trkpt>
      <trkpt lat="47.53813" lon="-2.87272">
        <ele>15.2</ele>
        <time>2026-08-25T13:24:43Z</time>
      </trkpt>
      <trkpt lat="47.53815" lon="-2.87278">
        <ele>15</ele>
        <time>2026-08-25T13:24:44Z</time>
      </trkpt>
      <trkpt lat="47.53818" lon="-2.87284">
        <ele>14.8</ele>
        <time>2026-08-25T13:24:45Z</time>
      </trkpt>
      <trkpt lat="47.53821" lon="-2.8729">
        <ele>14.6</ele>
        <time>2026-08-25T13:24:46Z</time>
      </trkpt>
      <trkpt lat="47.53823" lon="-2.87296">
        <ele>14.3</ele>
        <time>2026-08-25T13:24:47Z</time>
      </trkpt>
      <trkpt lat="47.53827" lon="-2.87302">
        <ele>14.1</ele>
        <time>2026-08-25T13:24:48Z</time>
      </trkpt>
      <trkpt lat="47.5383" lon="-2.87308">
        <ele>13.9</ele>
        <time>2026-08-25T13:24:49Z</time>
      </trkpt>
      <trkpt lat="47.53834" lon="-2.87314">
        <ele>13.7</ele>
        <time>2026-08-25T13:24:50Z</time>
      </trkpt>
      <trkpt lat="47.53838" lon="-2.8732">
        <ele>13.6</ele>
        <time>2026-08-25T13:24:51Z</time>
      </trkpt>
      <trkpt lat="47.53841" lon="-2.87326">
        <ele>13.5</ele>
        <time>2026-08-25T13:24:52Z</time>
      </trkpt>
      <trkpt lat="47.53845" lon="-2.87332">
        <ele>13.4</ele>
        <time>2026-08-25T13:24:53Z</time>
      </trkpt>
      <trkpt lat="47.53849" lon="-2.87338">
        <ele>13.4</ele>
        <time>2026-08-25T13:24:54Z</time>
      </trkpt>
      <trkpt lat="47.53853" lon="-2.87344">
        <ele>13.3</ele>
        <time>2026-08-25T13:24:55Z</time>
      </trkpt>
      <trkpt lat="47.53857" lon="-2.87349">
        <ele>13.3</ele>
        <time>2026-08-25T13:24:56Z</time>
      </trkpt>
      <trkpt lat="47.53861" lon="-2.87355">
        <ele>13.2</ele>
        <time>2026-08-25T13:24:57Z</time>
      </trkpt>
      <trkpt lat="47.53865" lon="-2.8736">
        <ele>13.2</ele>
        <time>2026-08-25T13:24:58Z</time>
      </trkpt>
      <trkpt lat="47.53869" lon="-2.87365">
        <ele>13</ele>
        <time>2026-08-25T13:24:59Z</time>
      </trkpt>
      <trkpt lat="47.53873" lon="-2.87371">
        <ele>12.9</ele>
        <time>2026-08-25T13:25:00Z</time>
      </trkpt>
      <trkpt lat="47.53876" lon="-2.87376">
        <ele>12.8</ele>
        <time>2026-08-25T13:25:01Z</time>
      </trkpt>
      <trkpt lat="47.5388" lon="-2.87381">
        <ele>12.7</ele>
        <time>2026-08-25T13:25:02Z</time>
      </trkpt>
      <trkpt lat="47.53884" lon="-2.87385">
        <ele>12.8</ele>
        <time>2026-08-25T13:25:03Z</time>
      </trkpt>
      <trkpt lat="47.53887" lon="-2.8739">
        <ele>12.8</ele>
        <time>2026-08-25T13:25:04Z</time>
      </trkpt>
      <trkpt lat="47.53891" lon="-2.87394">
        <ele>12.8</ele>
        <time>2026-08-25T13:25:05Z</time>
      </trkpt>
      <trkpt lat="47.53894" lon="-2.87399">
        <ele>12.6</ele>
        <time>2026-08-25T13:25:06Z</time>
      </trkpt>
      <trkpt lat="47.53897" lon="-2.87403">
        <ele>12.5</ele>
        <time>2026-08-25T13:25:07Z</time>
      </trkpt>
      <trkpt lat="47.539" lon="-2.87407">
        <ele>12.5</ele>
        <time>2026-08-25T13:25:08Z</time>
      </trkpt>
      <trkpt lat="47.53903" lon="-2.87409">
        <ele>12.5</ele>
        <time>2026-08-25T13:25:09Z</time>
      </trkpt>
      <trkpt lat="47.53906" lon="-2.87409">
        <ele>12.6</ele>
        <time>2026-08-25T13:25:10Z</time>
      </trkpt>
      <trkpt lat="47.5391" lon="-2.87408">
        <ele>12.6</ele>
        <time>2026-08-25T13:25:11Z</time>
      </trkpt>
      <trkpt lat="47.53913" lon="-2.87406">
        <ele>12.6</ele>
        <time>2026-08-25T13:25:12Z</time>
      </trkpt>
      <trkpt lat="47.53916" lon="-2.87405">
        <ele>12.6</ele>
        <time>2026-08-25T13:25:13Z</time>
      </trkpt>
      <trkpt lat="47.53919" lon="-2.87406">
        <ele>12.7</ele>
        <time>2026-08-25T13:25:14Z</time>
      </trkpt>
      <trkpt lat="47.53922" lon="-2.87409">
        <ele>13</ele>
        <time>2026-08-25T13:25:15Z</time>
      </trkpt>
      <trkpt lat="47.53924" lon="-2.87411">
        <ele>13.1</ele>
        <time>2026-08-25T13:25:16Z</time>
      </trkpt>
      <trkpt lat="47.53927" lon="-2.87415">
        <ele>13.3</ele>
        <time>2026-08-25T13:25:17Z</time>
      </trkpt>
      <trkpt lat="47.53928" lon="-2.87419">
        <ele>13.4</ele>
        <time>2026-08-25T13:25:18Z</time>
      </trkpt>
      <trkpt lat="47.53929" lon="-2.87425">
        <ele>13.4</ele>
        <time>2026-08-25T13:25:19Z</time>
      </trkpt>
      <trkpt lat="47.5393" lon="-2.87431">
        <ele>13.5</ele>
        <time>2026-08-25T13:25:20Z</time>
      </trkpt>
      <trkpt lat="47.5393" lon="-2.87437">
        <ele>13.5</ele>
        <time>2026-08-25T13:25:21Z</time>
      </trkpt>
      <trkpt lat="47.5393" lon="-2.87444">
        <ele>13.5</ele>
        <time>2026-08-25T13:25:22Z</time>
      </trkpt>
      <trkpt lat="47.53931" lon="-2.87451">
        <ele>13.5</ele>
        <time>2026-08-25T13:25:23Z</time>
      </trkpt>
      <trkpt lat="47.53933" lon="-2.87457">
        <ele>13.6</ele>
        <time>2026-08-25T13:25:24Z</time>
      </trkpt>
      <trkpt lat="47.53936" lon="-2.87462">
        <ele>13.7</ele>
        <time>2026-08-25T13:25:25Z</time>
      </trkpt>
      <trkpt lat="47.53938" lon="-2.87466">
        <ele>13.8</ele>
        <time>2026-08-25T13:25:26Z</time>
      </trkpt>
      <trkpt lat="47.5394" lon="-2.8747">
        <ele>13.8</ele>
        <time>2026-08-25T13:25:27Z</time>
      </trkpt>
      <trkpt lat="47.53942" lon="-2.87475">
        <ele>13.8</ele>
        <time>2026-08-25T13:25:28Z</time>
      </trkpt>
      <trkpt lat="47.53944" lon="-2.87481">
        <ele>13.7</ele>
        <time>2026-08-25T13:25:29Z</time>
      </trkpt>
      <trkpt lat="47.53945" lon="-2.87487">
        <ele>13.5</ele>
        <time>2026-08-25T13:25:30Z</time>
      </trkpt>
      <trkpt lat="47.53946" lon="-2.87493">
        <ele>13.3</ele>
        <time>2026-08-25T13:25:31Z</time>
      </trkpt>
      <trkpt lat="47.53948" lon="-2.87499">
        <ele>13.3</ele>
        <time>2026-08-25T13:25:32Z</time>
      </trkpt>
      <trkpt lat="47.53949" lon="-2.87505">
        <ele>13.4</ele>
        <time>2026-08-25T13:25:33Z</time>
      </trkpt>
      <trkpt lat="47.53951" lon="-2.87511">
        <ele>13.7</ele>
        <time>2026-08-25T13:25:34Z</time>
      </trkpt>
      <trkpt lat="47.53952" lon="-2.87517">
        <ele>13.8</ele>
        <time>2026-08-25T13:25:35Z</time>
      </trkpt>
      <trkpt lat="47.53954" lon="-2.87523">
        <ele>13.9</ele>
        <time>2026-08-25T13:25:36Z</time>
      </trkpt>
      <trkpt lat="47.53956" lon="-2.87529">
        <ele>14</ele>
        <time>2026-08-25T13:25:37Z</time>
      </trkpt>
      <trkpt lat="47.53957" lon="-2.87534">
        <ele>14</ele>
        <time>2026-08-25T13:25:38Z</time>
      </trkpt>
      <trkpt lat="47.53958" lon="-2.8754">
        <ele>14</ele>
        <time>2026-08-25T13:25:39Z</time>
      </trkpt>
      <trkpt lat="47.53959" lon="-2.87546">
        <ele>14</ele>
        <time>2026-08-25T13:25:40Z</time>
      </trkpt>
      <trkpt lat="47.53961" lon="-2.87551">
        <ele>14</ele>
        <time>2026-08-25T13:25:41Z</time>
      </trkpt>
      <trkpt lat="47.53962" lon="-2.87557">
        <ele>14</ele>
        <time>2026-08-25T13:25:42Z</time>
      </trkpt>
      <trkpt lat="47.53963" lon="-2.87562">
        <ele>14.2</ele>
        <time>2026-08-25T13:25:43Z</time>
      </trkpt>
      <trkpt lat="47.53965" lon="-2.87568">
        <ele>14.3</ele>
        <time>2026-08-25T13:25:44Z</time>
      </trkpt>
      <trkpt lat="47.53967" lon="-2.87574">
        <ele>14.5</ele>
        <time>2026-08-25T13:25:45Z</time>
      </trkpt>
      <trkpt lat="47.53969" lon="-2.8758">
        <ele>14.8</ele>
        <time>2026-08-25T13:25:46Z</time>
      </trkpt>
      <trkpt lat="47.5397" lon="-2.87586">
        <ele>14.9</ele>
        <time>2026-08-25T13:25:47Z</time>
      </trkpt>
      <trkpt lat="47.53971" lon="-2.87592">
        <ele>15</ele>
        <time>2026-08-25T13:25:48Z</time>
      </trkpt>
      <trkpt lat="47.53973" lon="-2.87598">
        <ele>15</ele>
        <time>2026-08-25T13:25:49Z</time>
      </trkpt>
      <trkpt lat="47.53974" lon="-2.87604">
        <ele>15</ele>
        <time>2026-08-25T13:25:50Z</time>
      </trkpt>
      <trkpt lat="47.53976" lon="-2.8761">
        <ele>15</ele>
        <time>2026-08-25T13:25:51Z</time>
      </trkpt>
      <trkpt lat="47.53978" lon="-2.87615">
        <ele>15</ele>
        <time>2026-08-25T13:25:52Z</time>
      </trkpt>
      <trkpt lat="47.53979" lon="-2.87621">
        <ele>15</ele>
        <time>2026-08-25T13:25:53Z</time>
      </trkpt>
      <trkpt lat="47.53981" lon="-2.87627">
        <ele>15</ele>
        <time>2026-08-25T13:25:54Z</time>
      </trkpt>
      <trkpt lat="47.53982" lon="-2.87633">
        <ele>15</ele>
        <time>2026-08-25T13:25:55Z</time>
      </trkpt>
      <trkpt lat="47.53984" lon="-2.87639">
        <ele>15</ele>
        <time>2026-08-25T13:25:56Z</time>
      </trkpt>
      <trkpt lat="47.53986" lon="-2.87645">
        <ele>15</ele>
        <time>2026-08-25T13:25:57Z</time>
      </trkpt>
      <trkpt lat="47.53988" lon="-2.87651">
        <ele>15</ele>
        <time>2026-08-25T13:25:58Z</time>
      </trkpt>
      <trkpt lat="47.53989" lon="-2.87655">
        <ele>15</ele>
        <time>2026-08-25T13:25:59Z</time>
      </trkpt>
      <trkpt lat="47.53991" lon="-2.8766">
        <ele>15</ele>
        <time>2026-08-25T13:26:00Z</time>
      </trkpt>
      <trkpt lat="47.53993" lon="-2.87665">
        <ele>15</ele>
        <time>2026-08-25T13:26:01Z</time>
      </trkpt>
      <trkpt lat="47.53995" lon="-2.87671">
        <ele>15</ele>
        <time>2026-08-25T13:26:02Z</time>
      </trkpt>
      <trkpt lat="47.53997" lon="-2.87676">
        <ele>15</ele>
        <time>2026-08-25T13:26:03Z</time>
      </trkpt>
      <trkpt lat="47.53998" lon="-2.87682">
        <ele>15</ele>
        <time>2026-08-25T13:26:04Z</time>
      </trkpt>
      <trkpt lat="47.54001" lon="-2.87687">
        <ele>15</ele>
        <time>2026-08-25T13:26:05Z</time>
      </trkpt>
      <trkpt lat="47.54003" lon="-2.87692">
        <ele>15</ele>
        <time>2026-08-25T13:26:06Z</time>
      </trkpt>
      <trkpt lat="47.54005" lon="-2.87697">
        <ele>15</ele>
        <time>2026-08-25T13:26:07Z</time>
      </trkpt>
      <trkpt lat="47.54007" lon="-2.87702">
        <ele>15</ele>
        <time>2026-08-25T13:26:08Z</time>
      </trkpt>
      <trkpt lat="47.5401" lon="-2.87706">
        <ele>15</ele>
        <time>2026-08-25T13:26:09Z</time>
      </trkpt>
      <trkpt lat="47.54012" lon="-2.87711">
        <ele>15</ele>
        <time>2026-08-25T13:26:10Z</time>
      </trkpt>
      <trkpt lat="47.54014" lon="-2.87717">
        <ele>15</ele>
        <time>2026-08-25T13:26:11Z</time>
      </trkpt>
      <trkpt lat="47.54016" lon="-2.87722">
        <ele>15</ele>
        <time>2026-08-25T13:26:12Z</time>
      </trkpt>
      <trkpt lat="47.54017" lon="-2.87727">
        <ele>15</ele>
        <time>2026-08-25T13:26:13Z</time>
      </trkpt>
      <trkpt lat="47.54019" lon="-2.87732">
        <ele>15</ele>
        <time>2026-08-25T13:26:14Z</time>
      </trkpt>
      <trkpt lat="47.5402" lon="-2.87737">
        <ele>15</ele>
        <time>2026-08-25T13:26:15Z</time>
      </trkpt>
      <trkpt lat="47.54021" lon="-2.87742">
        <ele>15</ele>
        <time>2026-08-25T13:26:16Z</time>
      </trkpt>
      <trkpt lat="47.54023" lon="-2.87747">
        <ele>15</ele>
        <time>2026-08-25T13:26:17Z</time>
      </trkpt>
      <trkpt lat="47.54024" lon="-2.87752">
        <ele>15.1</ele>
        <time>2026-08-25T13:26:18Z</time>
      </trkpt>
      <trkpt lat="47.54026" lon="-2.87758">
        <ele>15.3</ele>
        <time>2026-08-25T13:26:19Z</time>
      </trkpt>
      <trkpt lat="47.54027" lon="-2.87762">
        <ele>15.4</ele>
        <time>2026-08-25T13:26:20Z</time>
      </trkpt>
      <trkpt lat="47.54029" lon="-2.87767">
        <ele>15.6</ele>
        <time>2026-08-25T13:26:21Z</time>
      </trkpt>
      <trkpt lat="47.5403" lon="-2.87771">
        <ele>15.7</ele>
        <time>2026-08-25T13:26:22Z</time>
      </trkpt>
      <trkpt lat="47.54033" lon="-2.87776">
        <ele>15.8</ele>
        <time>2026-08-25T13:26:23Z</time>
      </trkpt>
      <trkpt lat="47.54035" lon="-2.87782">
        <ele>15.8</ele>
        <time>2026-08-25T13:26:24Z</time>
      </trkpt>
      <trkpt lat="47.54037" lon="-2.87788">
        <ele>15.8</ele>
        <time>2026-08-25T13:26:25Z</time>
      </trkpt>
      <trkpt lat="47.54038" lon="-2.87793">
        <ele>15.8</ele>
        <time>2026-08-25T13:26:26Z</time>
      </trkpt>
      <trkpt lat="47.5404" lon="-2.87798">
        <ele>15.9</ele>
        <time>2026-08-25T13:26:27Z</time>
      </trkpt>
      <trkpt lat="47.54042" lon="-2.87803">
        <ele>16</ele>
        <time>2026-08-25T13:26:28Z</time>
      </trkpt>
      <trkpt lat="47.54044" lon="-2.87808">
        <ele>16</ele>
        <time>2026-08-25T13:26:29Z</time>
      </trkpt>
      <trkpt lat="47.54046" lon="-2.87813">
        <ele>15.9</ele>
        <time>2026-08-25T13:26:30Z</time>
      </trkpt>
      <trkpt lat="47.54047" lon="-2.87816">
        <ele>15.9</ele>
        <time>2026-08-25T13:26:31Z</time>
      </trkpt>
      <trkpt lat="47.54047" lon="-2.87821">
        <ele>15.8</ele>
        <time>2026-08-25T13:26:32Z</time>
      </trkpt>
      <trkpt lat="47.54047" lon="-2.87827">
        <ele>15.8</ele>
        <time>2026-08-25T13:26:33Z</time>
      </trkpt>
      <trkpt lat="47.54046" lon="-2.87833">
        <ele>15.7</ele>
        <time>2026-08-25T13:26:34Z</time>
      </trkpt>
      <trkpt lat="47.54043" lon="-2.8784">
        <ele>15.7</ele>
        <time>2026-08-25T13:26:35Z</time>
      </trkpt>
      <trkpt lat="47.54041" lon="-2.87846">
        <ele>15.7</ele>
        <time>2026-08-25T13:26:36Z</time>
      </trkpt>
      <trkpt lat="47.54039" lon="-2.87849">
        <ele>15.6</ele>
        <time>2026-08-25T13:26:37Z</time>
      </trkpt>
      <trkpt lat="47.54038" lon="-2.87852">
        <ele>15.6</ele>
        <time>2026-08-25T13:26:38Z</time>
      </trkpt>
      <trkpt lat="47.54037" lon="-2.87857">
        <ele>15.6</ele>
        <time>2026-08-25T13:26:39Z</time>
      </trkpt>
      <trkpt lat="47.54037" lon="-2.87862">
        <ele>15.7</ele>
        <time>2026-08-25T13:26:40Z</time>
      </trkpt>
      <trkpt lat="47.54039" lon="-2.87866">
        <ele>15.8</ele>
        <time>2026-08-25T13:26:41Z</time>
      </trkpt>
      <trkpt lat="47.54041" lon="-2.8787">
        <ele>16</ele>
        <time>2026-08-25T13:26:42Z</time>
      </trkpt>
      <trkpt lat="47.54043" lon="-2.87875">
        <ele>16</ele>
        <time>2026-08-25T13:26:43Z</time>
      </trkpt>
      <trkpt lat="47.54046" lon="-2.87879">
        <ele>16.1</ele>
        <time>2026-08-25T13:26:44Z</time>
      </trkpt>
      <trkpt lat="47.54048" lon="-2.87884">
        <ele>16.1</ele>
        <time>2026-08-25T13:26:45Z</time>
      </trkpt>
      <trkpt lat="47.54049" lon="-2.87889">
        <ele>16</ele>
        <time>2026-08-25T13:26:46Z</time>
      </trkpt>
      <trkpt lat="47.5405" lon="-2.87894">
        <ele>16</ele>
        <time>2026-08-25T13:26:47Z</time>
      </trkpt>
      <trkpt lat="47.5405" lon="-2.879">
        <ele>16</ele>
        <time>2026-08-25T13:26:48Z</time>
      </trkpt>
      <trkpt lat="47.54049" lon="-2.87905">
        <ele>16</ele>
        <time>2026-08-25T13:26:49Z</time>
      </trkpt>
      <trkpt lat="47.54047" lon="-2.8791">
        <ele>16</ele>
        <time>2026-08-25T13:26:50Z</time>
      </trkpt>
      <trkpt lat="47.54044" lon="-2.87914">
        <ele>16</ele>
        <time>2026-08-25T13:26:51Z</time>
      </trkpt>
      <trkpt lat="47.54041" lon="-2.87918">
        <ele>16</ele>
        <time>2026-08-25T13:26:52Z</time>
      </trkpt>
      <trkpt lat="47.54037" lon="-2.87921">
        <ele>16.1</ele>
        <time>2026-08-25T13:26:53Z</time>
      </trkpt>
      <trkpt lat="47.54034" lon="-2.87925">
        <ele>16.1</ele>
        <time>2026-08-25T13:26:54Z</time>
      </trkpt>
      <trkpt lat="47.5403" lon="-2.87928">
        <ele>16</ele>
        <time>2026-08-25T13:26:55Z</time>
      </trkpt>
      <trkpt lat="47.54027" lon="-2.87933">
        <ele>16</ele>
        <time>2026-08-25T13:26:56Z</time>
      </trkpt>
      <trkpt lat="47.54023" lon="-2.87937">
        <ele>16</ele>
        <time>2026-08-25T13:26:57Z</time>
      </trkpt>
      <trkpt lat="47.5402" lon="-2.87942">
        <ele>16</ele>
        <time>2026-08-25T13:26:58Z</time>
      </trkpt>
      <trkpt lat="47.54017" lon="-2.87946">
        <ele>16</ele>
        <time>2026-08-25T13:26:59Z</time>
      </trkpt>
      <trkpt lat="47.54014" lon="-2.87951">
        <ele>16.1</ele>
        <time>2026-08-25T13:27:00Z</time>
      </trkpt>
      <trkpt lat="47.54011" lon="-2.87955">
        <ele>16.2</ele>
        <time>2026-08-25T13:27:01Z</time>
      </trkpt>
      <trkpt lat="47.54008" lon="-2.8796">
        <ele>16.2</ele>
        <time>2026-08-25T13:27:02Z</time>
      </trkpt>
      <trkpt lat="47.54005" lon="-2.87965">
        <ele>16.1</ele>
        <time>2026-08-25T13:27:03Z</time>
      </trkpt>
      <trkpt lat="47.54002" lon="-2.87969">
        <ele>16.1</ele>
        <time>2026-08-25T13:27:04Z</time>
      </trkpt>
      <trkpt lat="47.53999" lon="-2.87973">
        <ele>16.1</ele>
        <time>2026-08-25T13:27:05Z</time>
      </trkpt>
      <trkpt lat="47.53996" lon="-2.87977">
        <ele>16.3</ele>
        <time>2026-08-25T13:27:06Z</time>
      </trkpt>
      <trkpt lat="47.53993" lon="-2.87981">
        <ele>16.6</ele>
        <time>2026-08-25T13:27:07Z</time>
      </trkpt>
      <trkpt lat="47.5399" lon="-2.87985">
        <ele>16.8</ele>
        <time>2026-08-25T13:27:08Z</time>
      </trkpt>
      <trkpt lat="47.53988" lon="-2.87989">
        <ele>16.9</ele>
        <time>2026-08-25T13:27:09Z</time>
      </trkpt>
      <trkpt lat="47.53985" lon="-2.87993">
        <ele>17.1</ele>
        <time>2026-08-25T13:27:10Z</time>
      </trkpt>
      <trkpt lat="47.53982" lon="-2.87997">
        <ele>17.2</ele>
        <time>2026-08-25T13:27:11Z</time>
      </trkpt>
      <trkpt lat="47.53979" lon="-2.88001">
        <ele>17.3</ele>
        <time>2026-08-25T13:27:12Z</time>
      </trkpt>
      <trkpt lat="47.53976" lon="-2.88004">
        <ele>17.3</ele>
        <time>2026-08-25T13:27:13Z</time>
      </trkpt>
      <trkpt lat="47.53974" lon="-2.88008">
        <ele>17.3</ele>
        <time>2026-08-25T13:27:14Z</time>
      </trkpt>
      <trkpt lat="47.53971" lon="-2.88011">
        <ele>17.4</ele>
        <time>2026-08-25T13:27:15Z</time>
      </trkpt>
      <trkpt lat="47.53968" lon="-2.88015">
        <ele>17.5</ele>
        <time>2026-08-25T13:27:16Z</time>
      </trkpt>
      <trkpt lat="47.53966" lon="-2.88019">
        <ele>17.7</ele>
        <time>2026-08-25T13:27:17Z</time>
      </trkpt>
      <trkpt lat="47.53963" lon="-2.88023">
        <ele>17.8</ele>
        <time>2026-08-25T13:27:18Z</time>
      </trkpt>
      <trkpt lat="47.53961" lon="-2.88027">
        <ele>18</ele>
        <time>2026-08-25T13:27:19Z</time>
      </trkpt>
      <trkpt lat="47.53958" lon="-2.88032">
        <ele>18.1</ele>
        <time>2026-08-25T13:27:20Z</time>
      </trkpt>
      <trkpt lat="47.53957" lon="-2.88037">
        <ele>18.2</ele>
        <time>2026-08-25T13:27:21Z</time>
      </trkpt>
      <trkpt lat="47.53955" lon="-2.88042">
        <ele>18.2</ele>
        <time>2026-08-25T13:27:22Z</time>
      </trkpt>
      <trkpt lat="47.53953" lon="-2.88046">
        <ele>18.2</ele>
        <time>2026-08-25T13:27:23Z</time>
      </trkpt>
      <trkpt lat="47.53953" lon="-2.88051">
        <ele>18.3</ele>
        <time>2026-08-25T13:27:24Z</time>
      </trkpt>
      <trkpt lat="47.53952" lon="-2.88056">
        <ele>18.3</ele>
        <time>2026-08-25T13:27:25Z</time>
      </trkpt>
      <trkpt lat="47.53952" lon="-2.8806">
        <ele>18.3</ele>
        <time>2026-08-25T13:27:26Z</time>
      </trkpt>
      <trkpt lat="47.5395" lon="-2.88063">
        <ele>18.2</ele>
        <time>2026-08-25T13:27:27Z</time>
      </trkpt>
      <trkpt lat="47.53949" lon="-2.88066">
        <ele>18.2</ele>
        <time>2026-08-25T13:27:28Z</time>
      </trkpt>
      <trkpt lat="47.53947" lon="-2.88069">
        <ele>18.1</ele>
        <time>2026-08-25T13:27:29Z</time>
      </trkpt>
      <trkpt lat="47.53945" lon="-2.88072">
        <ele>18</ele>
        <time>2026-08-25T13:27:30Z</time>
      </trkpt>
      <trkpt lat="47.53944" lon="-2.88076">
        <ele>18</ele>
        <time>2026-08-25T13:27:31Z</time>
      </trkpt>
      <trkpt lat="47.53943" lon="-2.88081">
        <ele>17.9</ele>
        <time>2026-08-25T13:27:32Z</time>
      </trkpt>
      <trkpt lat="47.53943" lon="-2.88086">
        <ele>17.9</ele>
        <time>2026-08-25T13:27:33Z</time>
      </trkpt>
      <trkpt lat="47.53943" lon="-2.88091">
        <ele>17.9</ele>
        <time>2026-08-25T13:27:34Z</time>
      </trkpt>
      <trkpt lat="47.53943" lon="-2.88096">
        <ele>17.9</ele>
        <time>2026-08-25T13:27:35Z</time>
      </trkpt>
      <trkpt lat="47.53943" lon="-2.88101">
        <ele>17.9</ele>
        <time>2026-08-25T13:27:36Z</time>
      </trkpt>
      <trkpt lat="47.53943" lon="-2.88106">
        <ele>17.9</ele>
        <time>2026-08-25T13:27:37Z</time>
      </trkpt>
      <trkpt lat="47.53943" lon="-2.88111">
        <ele>17.9</ele>
        <time>2026-08-25T13:27:38Z</time>
      </trkpt>
      <trkpt lat="47.53944" lon="-2.88116">
        <ele>18</ele>
        <time>2026-08-25T13:27:39Z</time>
      </trkpt>
      <trkpt lat="47.53945" lon="-2.88122">
        <ele>18</ele>
        <time>2026-08-25T13:27:40Z</time>
      </trkpt>
      <trkpt lat="47.53945" lon="-2.88127">
        <ele>18</ele>
        <time>2026-08-25T13:27:41Z</time>
      </trkpt>
      <trkpt lat="47.53945" lon="-2.88133">
        <ele>18</ele>
        <time>2026-08-25T13:27:42Z</time>
      </trkpt>
      <trkpt lat="47.53944" lon="-2.88138">
        <ele>18</ele>
        <time>2026-08-25T13:27:43Z</time>
      </trkpt>
      <trkpt lat="47.53942" lon="-2.88143">
        <ele>17.8</ele>
        <time>2026-08-25T13:27:44Z</time>
      </trkpt>
      <trkpt lat="47.53939" lon="-2.88147">
        <ele>17.7</ele>
        <time>2026-08-25T13:27:45Z</time>
      </trkpt>
      <trkpt lat="47.53936" lon="-2.88151">
        <ele>17.5</ele>
        <time>2026-08-25T13:27:46Z</time>
      </trkpt>
      <trkpt lat="47.53933" lon="-2.88155">
        <ele>17.4</ele>
        <time>2026-08-25T13:27:47Z</time>
      </trkpt>
      <trkpt lat="47.5393" lon="-2.8816">
        <ele>17.4</ele>
        <time>2026-08-25T13:27:48Z</time>
      </trkpt>
      <trkpt lat="47.53928" lon="-2.88164">
        <ele>17.4</ele>
        <time>2026-08-25T13:27:49Z</time>
      </trkpt>
      <trkpt lat="47.53925" lon="-2.88169">
        <ele>17.3</ele>
        <time>2026-08-25T13:27:50Z</time>
      </trkpt>
      <trkpt lat="47.53922" lon="-2.88173">
        <ele>17.1</ele>
        <time>2026-08-25T13:27:51Z</time>
      </trkpt>
      <trkpt lat="47.53918" lon="-2.88177">
        <ele>17</ele>
        <time>2026-08-25T13:27:52Z</time>
      </trkpt>
      <trkpt lat="47.53915" lon="-2.88182">
        <ele>17</ele>
        <time>2026-08-25T13:27:53Z</time>
      </trkpt>
      <trkpt lat="47.53912" lon="-2.88187">
        <ele>16.9</ele>
        <time>2026-08-25T13:27:54Z</time>
      </trkpt>
      <trkpt lat="47.53909" lon="-2.88192">
        <ele>16.7</ele>
        <time>2026-08-25T13:27:55Z</time>
      </trkpt>
      <trkpt lat="47.53905" lon="-2.88197">
        <ele>16.4</ele>
        <time>2026-08-25T13:27:56Z</time>
      </trkpt>
      <trkpt lat="47.53901" lon="-2.88202">
        <ele>16</ele>
        <time>2026-08-25T13:27:57Z</time>
      </trkpt>
      <trkpt lat="47.53897" lon="-2.88206">
        <ele>15.8</ele>
        <time>2026-08-25T13:27:58Z</time>
      </trkpt>
      <trkpt lat="47.53892" lon="-2.88211">
        <ele>15.4</ele>
        <time>2026-08-25T13:27:59Z</time>
      </trkpt>
      <trkpt lat="47.53888" lon="-2.88216">
        <ele>15.2</ele>
        <time>2026-08-25T13:28:00Z</time>
      </trkpt>
      <trkpt lat="47.53883" lon="-2.88221">
        <ele>14.8</ele>
        <time>2026-08-25T13:28:01Z</time>
      </trkpt>
      <trkpt lat="47.53879" lon="-2.88227">
        <ele>14.5</ele>
        <time>2026-08-25T13:28:02Z</time>
      </trkpt>
      <trkpt lat="47.53875" lon="-2.88234">
        <ele>14.1</ele>
        <time>2026-08-25T13:28:03Z</time>
      </trkpt>
      <trkpt lat="47.53871" lon="-2.88241">
        <ele>13.7</ele>
        <time>2026-08-25T13:28:04Z</time>
      </trkpt>
      <trkpt lat="47.53866" lon="-2.88248">
        <ele>13.2</ele>
        <time>2026-08-25T13:28:05Z</time>
      </trkpt>
      <trkpt lat="47.53863" lon="-2.88255">
        <ele>12.9</ele>
        <time>2026-08-25T13:28:06Z</time>
      </trkpt>
      <trkpt lat="47.53859" lon="-2.88261">
        <ele>12.6</ele>
        <time>2026-08-25T13:28:07Z</time>
      </trkpt>
      <trkpt lat="47.53856" lon="-2.88267">
        <ele>12.3</ele>
        <time>2026-08-25T13:28:08Z</time>
      </trkpt>
      <trkpt lat="47.53853" lon="-2.88272">
        <ele>12</ele>
        <time>2026-08-25T13:28:09Z</time>
      </trkpt>
      <trkpt lat="47.5385" lon="-2.88276">
        <ele>11.7</ele>
        <time>2026-08-25T13:28:10Z</time>
      </trkpt>
      <trkpt lat="47.53847" lon="-2.8828">
        <ele>11.1</ele>
        <time>2026-08-25T13:28:11Z</time>
      </trkpt>
      <trkpt lat="47.53846" lon="-2.88285">
        <ele>10.2</ele>
        <time>2026-08-25T13:28:12Z</time>
      </trkpt>
      <trkpt lat="47.53845" lon="-2.88291">
        <ele>9.2</ele>
        <time>2026-08-25T13:28:13Z</time>
      </trkpt>
      <trkpt lat="47.53844" lon="-2.88297">
        <ele>8.2</ele>
        <time>2026-08-25T13:28:14Z</time>
      </trkpt>
      <trkpt lat="47.53842" lon="-2.88304">
        <ele>7.3</ele>
        <time>2026-08-25T13:28:15Z</time>
      </trkpt>
      <trkpt lat="47.53839" lon="-2.88312">
        <ele>7</ele>
        <time>2026-08-25T13:28:16Z</time>
      </trkpt>
      <trkpt lat="47.53836" lon="-2.8832">
        <ele>6.7</ele>
        <time>2026-08-25T13:28:17Z</time>
      </trkpt>
      <trkpt lat="47.53832" lon="-2.88328">
        <ele>6.4</ele>
        <time>2026-08-25T13:28:18Z</time>
      </trkpt>
      <trkpt lat="47.53829" lon="-2.88336">
        <ele>6.1</ele>
        <time>2026-08-25T13:28:19Z</time>
      </trkpt>
      <trkpt lat="47.53825" lon="-2.88345">
        <ele>5.9</ele>
        <time>2026-08-25T13:28:20Z</time>
      </trkpt>
      <trkpt lat="47.53822" lon="-2.88353">
        <ele>5.7</ele>
        <time>2026-08-25T13:28:21Z</time>
      </trkpt>
      <trkpt lat="47.53819" lon="-2.88362">
        <ele>5.5</ele>
        <time>2026-08-25T13:28:22Z</time>
      </trkpt>
      <trkpt lat="47.53816" lon="-2.8837">
        <ele>5.6</ele>
        <time>2026-08-25T13:28:23Z</time>
      </trkpt>
      <trkpt lat="47.53814" lon="-2.88379">
        <ele>5.7</ele>
        <time>2026-08-25T13:28:24Z</time>
      </trkpt>
      <trkpt lat="47.53813" lon="-2.88388">
        <ele>5.7</ele>
        <time>2026-08-25T13:28:25Z</time>
      </trkpt>
      <trkpt lat="47.53813" lon="-2.88397">
        <ele>5.7</ele>
        <time>2026-08-25T13:28:26Z</time>
      </trkpt>
      <trkpt lat="47.53814" lon="-2.88405">
        <ele>5.5</ele>
        <time>2026-08-25T13:28:27Z</time>
      </trkpt>
      <trkpt lat="47.53816" lon="-2.88412">
        <ele>5.3</ele>
        <time>2026-08-25T13:28:28Z</time>
      </trkpt>
      <trkpt lat="47.53818" lon="-2.88419">
        <ele>5.1</ele>
        <time>2026-08-25T13:28:29Z</time>
      </trkpt>
      <trkpt lat="47.5382" lon="-2.88426">
        <ele>5</ele>
        <time>2026-08-25T13:28:30Z</time>
      </trkpt>
      <trkpt lat="47.53823" lon="-2.88433">
        <ele>4.7</ele>
        <time>2026-08-25T13:28:31Z</time>
      </trkpt>
      <trkpt lat="47.53826" lon="-2.8844">
        <ele>4.5</ele>
        <time>2026-08-25T13:28:32Z</time>
      </trkpt>
      <trkpt lat="47.53829" lon="-2.88447">
        <ele>4.3</ele>
        <time>2026-08-25T13:28:33Z</time>
      </trkpt>
      <trkpt lat="47.53832" lon="-2.88454">
        <ele>4.1</ele>
        <time>2026-08-25T13:28:34Z</time>
      </trkpt>
      <trkpt lat="47.53835" lon="-2.88461">
        <ele>4</ele>
        <time>2026-08-25T13:28:35Z</time>
      </trkpt>
      <trkpt lat="47.53838" lon="-2.88468">
        <ele>3.9</ele>
        <time>2026-08-25T13:28:36Z</time>
      </trkpt>
      <trkpt lat="47.5384" lon="-2.88475">
        <ele>3.8</ele>
        <time>2026-08-25T13:28:37Z</time>
      </trkpt>
      <trkpt lat="47.53842" lon="-2.88482">
        <ele>3.7</ele>
        <time>2026-08-25T13:28:38Z</time>
      </trkpt>
      <trkpt lat="47.53844" lon="-2.88489">
        <ele>3.6</ele>
        <time>2026-08-25T13:28:39Z</time>
      </trkpt>
      <trkpt lat="47.53846" lon="-2.88496">
        <ele>3.5</ele>
        <time>2026-08-25T13:28:40Z</time>
      </trkpt>
      <trkpt lat="47.53848" lon="-2.88503">
        <ele>3.5</ele>
        <time>2026-08-25T13:28:41Z</time>
      </trkpt>
      <trkpt lat="47.5385" lon="-2.8851">
        <ele>3.4</ele>
        <time>2026-08-25T13:28:42Z</time>
      </trkpt>
      <trkpt lat="47.53852" lon="-2.88516">
        <ele>3.3</ele>
        <time>2026-08-25T13:28:43Z</time>
      </trkpt>
      <trkpt lat="47.53854" lon="-2.88522">
        <ele>3.3</ele>
        <time>2026-08-25T13:28:44Z</time>
      </trkpt>
      <trkpt lat="47.53855" lon="-2.88528">
        <ele>3.2</ele>
        <time>2026-08-25T13:28:45Z</time>
      </trkpt>
      <trkpt lat="47.53857" lon="-2.88534">
        <ele>3.3</ele>
        <time>2026-08-25T13:28:46Z</time>
      </trkpt>
      <trkpt lat="47.53859" lon="-2.8854">
        <ele>3.5</ele>
        <time>2026-08-25T13:28:47Z</time>
      </trkpt>
      <trkpt lat="47.53862" lon="-2.88545">
        <ele>3.6</ele>
        <time>2026-08-25T13:28:48Z</time>
      </trkpt>
      <trkpt lat="47.53864" lon="-2.8855">
        <ele>3.7</ele>
        <time>2026-08-25T13:28:49Z</time>
      </trkpt>
      <trkpt lat="47.53866" lon="-2.88555">
        <ele>3.8</ele>
        <time>2026-08-25T13:28:50Z</time>
      </trkpt>
      <trkpt lat="47.53868" lon="-2.88561">
        <ele>3.8</ele>
        <time>2026-08-25T13:28:51Z</time>
      </trkpt>
      <trkpt lat="47.5387" lon="-2.88567">
        <ele>3.7</ele>
        <time>2026-08-25T13:28:52Z</time>
      </trkpt>
      <trkpt lat="47.53872" lon="-2.88573">
        <ele>3.6</ele>
        <time>2026-08-25T13:28:53Z</time>
      </trkpt>
      <trkpt lat="47.53874" lon="-2.88579">
        <ele>3.5</ele>
        <time>2026-08-25T13:28:54Z</time>
      </trkpt>
      <trkpt lat="47.53875" lon="-2.88586">
        <ele>3.5</ele>
        <time>2026-08-25T13:28:55Z</time>
      </trkpt>
      <trkpt lat="47.53876" lon="-2.88593">
        <ele>3.5</ele>
        <time>2026-08-25T13:28:56Z</time>
      </trkpt>
      <trkpt lat="47.53877" lon="-2.886">
        <ele>3.4</ele>
        <time>2026-08-25T13:28:57Z</time>
      </trkpt>
      <trkpt lat="47.53878" lon="-2.88606">
        <ele>3.4</ele>
        <time>2026-08-25T13:28:58Z</time>
      </trkpt>
      <trkpt lat="47.53879" lon="-2.88613">
        <ele>3.3</ele>
        <time>2026-08-25T13:28:59Z</time>
      </trkpt>
      <trkpt lat="47.53879" lon="-2.8862">
        <ele>3.1</ele>
        <time>2026-08-25T13:29:00Z</time>
      </trkpt>
      <trkpt lat="47.5388" lon="-2.88627">
        <ele>2.9</ele>
        <time>2026-08-25T13:29:01Z</time>
      </trkpt>
      <trkpt lat="47.53881" lon="-2.88634">
        <ele>2.7</ele>
        <time>2026-08-25T13:29:02Z</time>
      </trkpt>
      <trkpt lat="47.53882" lon="-2.88642">
        <ele>2.6</ele>
        <time>2026-08-25T13:29:03Z</time>
      </trkpt>
      <trkpt lat="47.53882" lon="-2.88649">
        <ele>2.8</ele>
        <time>2026-08-25T13:29:04Z</time>
      </trkpt>
      <trkpt lat="47.53883" lon="-2.88656">
        <ele>2.9</ele>
        <time>2026-08-25T13:29:05Z</time>
      </trkpt>
      <trkpt lat="47.53884" lon="-2.88663">
        <ele>3.1</ele>
        <time>2026-08-25T13:29:06Z</time>
      </trkpt>
      <trkpt lat="47.53884" lon="-2.8867">
        <ele>3.2</ele>
        <time>2026-08-25T13:29:07Z</time>
      </trkpt>
      <trkpt lat="47.53884" lon="-2.88678">
        <ele>3.2</ele>
        <time>2026-08-25T13:29:08Z</time>
      </trkpt>
      <trkpt lat="47.53884" lon="-2.88685">
        <ele>3.2</ele>
        <time>2026-08-25T13:29:09Z</time>
      </trkpt>
      <trkpt lat="47.53883" lon="-2.88692">
        <ele>3.2</ele>
        <time>2026-08-25T13:29:10Z</time>
      </trkpt>
      <trkpt lat="47.53883" lon="-2.88698">
        <ele>3.2</ele>
        <time>2026-08-25T13:29:11Z</time>
      </trkpt>
      <trkpt lat="47.53884" lon="-2.88705">
        <ele>3.2</ele>
        <time>2026-08-25T13:29:12Z</time>
      </trkpt>
      <trkpt lat="47.53885" lon="-2.88711">
        <ele>3.1</ele>
        <time>2026-08-25T13:29:13Z</time>
      </trkpt>
      <trkpt lat="47.53887" lon="-2.88718">
        <ele>3.1</ele>
        <time>2026-08-25T13:29:14Z</time>
      </trkpt>
      <trkpt lat="47.53889" lon="-2.88724">
        <ele>3</ele>
        <time>2026-08-25T13:29:15Z</time>
      </trkpt>
      <trkpt lat="47.53891" lon="-2.8873">
        <ele>2.9</ele>
        <time>2026-08-25T13:29:16Z</time>
      </trkpt>
      <trkpt lat="47.53893" lon="-2.88736">
        <ele>2.9</ele>
        <time>2026-08-25T13:29:17Z</time>
      </trkpt>
      <trkpt lat="47.53895" lon="-2.88742">
        <ele>2.8</ele>
        <time>2026-08-25T13:29:18Z</time>
      </trkpt>
      <trkpt lat="47.53898" lon="-2.88748">
        <ele>2.7</ele>
        <time>2026-08-25T13:29:19Z</time>
      </trkpt>
      <trkpt lat="47.539" lon="-2.88754">
        <ele>2.7</ele>
        <time>2026-08-25T13:29:20Z</time>
      </trkpt>
      <trkpt lat="47.53902" lon="-2.8876">
        <ele>2.7</ele>
        <time>2026-08-25T13:29:21Z</time>
      </trkpt>
      <trkpt lat="47.53904" lon="-2.88766">
        <ele>2.7</ele>
        <time>2026-08-25T13:29:22Z</time>
      </trkpt>
      <trkpt lat="47.53906" lon="-2.88772">
        <ele>2.7</ele>
        <time>2026-08-25T13:29:23Z</time>
      </trkpt>
      <trkpt lat="47.53908" lon="-2.88779">
        <ele>2.6</ele>
        <time>2026-08-25T13:29:24Z</time>
      </trkpt>
      <trkpt lat="47.53909" lon="-2.88785">
        <ele>2.5</ele>
        <time>2026-08-25T13:29:25Z</time>
      </trkpt>
      <trkpt lat="47.5391" lon="-2.88791">
        <ele>2.4</ele>
        <time>2026-08-25T13:29:26Z</time>
      </trkpt>
      <trkpt lat="47.53911" lon="-2.88798">
        <ele>2.3</ele>
        <time>2026-08-25T13:29:27Z</time>
      </trkpt>
      <trkpt lat="47.53912" lon="-2.88804">
        <ele>2.2</ele>
        <time>2026-08-25T13:29:28Z</time>
      </trkpt>
      <trkpt lat="47.53912" lon="-2.8881">
        <ele>2.2</ele>
        <time>2026-08-25T13:29:29Z</time>
      </trkpt>
      <trkpt lat="47.53912" lon="-2.88816">
        <ele>2.2</ele>
        <time>2026-08-25T13:29:30Z</time>
      </trkpt>
      <trkpt lat="47.53913" lon="-2.88823">
        <ele>2.1</ele>
        <time>2026-08-25T13:29:31Z</time>
      </trkpt>
      <trkpt lat="47.53913" lon="-2.8883">
        <ele>2.1</ele>
        <time>2026-08-25T13:29:32Z</time>
      </trkpt>
      <trkpt lat="47.53913" lon="-2.88836">
        <ele>2.1</ele>
        <time>2026-08-25T13:29:33Z</time>
      </trkpt>
      <trkpt lat="47.53913" lon="-2.88843">
        <ele>2.1</ele>
        <time>2026-08-25T13:29:34Z</time>
      </trkpt>
      <trkpt lat="47.53913" lon="-2.88849">
        <ele>2.1</ele>
        <time>2026-08-25T13:29:35Z</time>
      </trkpt>
      <trkpt lat="47.53913" lon="-2.88855">
        <ele>2.1</ele>
        <time>2026-08-25T13:29:36Z</time>
      </trkpt>
      <trkpt lat="47.53912" lon="-2.88862">
        <ele>2.2</ele>
        <time>2026-08-25T13:29:37Z</time>
      </trkpt>
      <trkpt lat="47.53912" lon="-2.88868">
        <ele>2.3</ele>
        <time>2026-08-25T13:29:38Z</time>
      </trkpt>
      <trkpt lat="47.53911" lon="-2.88875">
        <ele>2.4</ele>
        <time>2026-08-25T13:29:39Z</time>
      </trkpt>
      <trkpt lat="47.53911" lon="-2.88881">
        <ele>2.5</ele>
        <time>2026-08-25T13:29:40Z</time>
      </trkpt>
      <trkpt lat="47.5391" lon="-2.88888">
        <ele>2.7</ele>
        <time>2026-08-25T13:29:41Z</time>
      </trkpt>
      <trkpt lat="47.5391" lon="-2.88894">
        <ele>2.8</ele>
        <time>2026-08-25T13:29:42Z</time>
      </trkpt>
      <trkpt lat="47.53908" lon="-2.88901">
        <ele>3</ele>
        <time>2026-08-25T13:29:43Z</time>
      </trkpt>
      <trkpt lat="47.53907" lon="-2.88907">
        <ele>3</ele>
        <time>2026-08-25T13:29:44Z</time>
      </trkpt>
      <trkpt lat="47.53906" lon="-2.88913">
        <ele>3</ele>
        <time>2026-08-25T13:29:45Z</time>
      </trkpt>
      <trkpt lat="47.53905" lon="-2.88919">
        <ele>3</ele>
        <time>2026-08-25T13:29:46Z</time>
      </trkpt>
      <trkpt lat="47.53903" lon="-2.88926">
        <ele>3</ele>
        <time>2026-08-25T13:29:47Z</time>
      </trkpt>
      <trkpt lat="47.53903" lon="-2.88932">
        <ele>3</ele>
        <time>2026-08-25T13:29:48Z</time>
      </trkpt>
      <trkpt lat="47.53902" lon="-2.88939">
        <ele>3</ele>
        <time>2026-08-25T13:29:49Z</time>
      </trkpt>
      <trkpt lat="47.53901" lon="-2.88945">
        <ele>3</ele>
        <time>2026-08-25T13:29:50Z</time>
      </trkpt>
      <trkpt lat="47.53901" lon="-2.88951">
        <ele>3</ele>
        <time>2026-08-25T13:29:51Z</time>
      </trkpt>
      <trkpt lat="47.53901" lon="-2.88958">
        <ele>3</ele>
        <time>2026-08-25T13:29:52Z</time>
      </trkpt>
      <trkpt lat="47.53901" lon="-2.88964">
        <ele>3</ele>
        <time>2026-08-25T13:29:53Z</time>
      </trkpt>
      <trkpt lat="47.53902" lon="-2.88971">
        <ele>3</ele>
        <time>2026-08-25T13:29:54Z</time>
      </trkpt>
      <trkpt lat="47.53902" lon="-2.88977">
        <ele>2.9</ele>
        <time>2026-08-25T13:29:55Z</time>
      </trkpt>
      <trkpt lat="47.53903" lon="-2.88983">
        <ele>2.8</ele>
        <time>2026-08-25T13:29:56Z</time>
      </trkpt>
      <trkpt lat="47.53904" lon="-2.8899">
        <ele>2.7</ele>
        <time>2026-08-25T13:29:57Z</time>
      </trkpt>
      <trkpt lat="47.53905" lon="-2.88996">
        <ele>2.5</ele>
        <time>2026-08-25T13:29:58Z</time>
      </trkpt>
      <trkpt lat="47.53906" lon="-2.89002">
        <ele>2.4</ele>
        <time>2026-08-25T13:29:59Z</time>
      </trkpt>
      <trkpt lat="47.53907" lon="-2.89009">
        <ele>2.6</ele>
        <time>2026-08-25T13:30:00Z</time>
      </trkpt>
      <trkpt lat="47.53907" lon="-2.89015">
        <ele>2.7</ele>
        <time>2026-08-25T13:30:01Z</time>
      </trkpt>
      <trkpt lat="47.53908" lon="-2.89021">
        <ele>2.8</ele>
        <time>2026-08-25T13:30:02Z</time>
      </trkpt>
      <trkpt lat="47.53909" lon="-2.89028">
        <ele>3</ele>
        <time>2026-08-25T13:30:03Z</time>
      </trkpt>
      <trkpt lat="47.5391" lon="-2.89034">
        <ele>3.1</ele>
        <time>2026-08-25T13:30:04Z</time>
      </trkpt>
      <trkpt lat="47.5391" lon="-2.8904">
        <ele>3.1</ele>
        <time>2026-08-25T13:30:05Z</time>
      </trkpt>
      <trkpt lat="47.53911" lon="-2.89047">
        <ele>3.1</ele>
        <time>2026-08-25T13:30:06Z</time>
      </trkpt>
      <trkpt lat="47.53911" lon="-2.89053">
        <ele>3.2</ele>
        <time>2026-08-25T13:30:07Z</time>
      </trkpt>
      <trkpt lat="47.53911" lon="-2.89059">
        <ele>3.2</ele>
        <time>2026-08-25T13:30:08Z</time>
      </trkpt>
      <trkpt lat="47.53911" lon="-2.89066">
        <ele>3.2</ele>
        <time>2026-08-25T13:30:09Z</time>
      </trkpt>
      <trkpt lat="47.5391" lon="-2.89072">
        <ele>3.2</ele>
        <time>2026-08-25T13:30:10Z</time>
      </trkpt>
      <trkpt lat="47.5391" lon="-2.89079">
        <ele>3.2</ele>
        <time>2026-08-25T13:30:11Z</time>
      </trkpt>
      <trkpt lat="47.53909" lon="-2.89084">
        <ele>3.3</ele>
        <time>2026-08-25T13:30:12Z</time>
      </trkpt>
      <trkpt lat="47.53909" lon="-2.8909">
        <ele>3.3</ele>
        <time>2026-08-25T13:30:13Z</time>
      </trkpt>
      <trkpt lat="47.53909" lon="-2.89096">
        <ele>3.3</ele>
        <time>2026-08-25T13:30:14Z</time>
      </trkpt>
      <trkpt lat="47.53908" lon="-2.89101">
        <ele>3.3</ele>
        <time>2026-08-25T13:30:15Z</time>
      </trkpt>
      <trkpt lat="47.53908" lon="-2.89107">
        <ele>3.3</ele>
        <time>2026-08-25T13:30:16Z</time>
      </trkpt>
      <trkpt lat="47.53908" lon="-2.89112">
        <ele>3.3</ele>
        <time>2026-08-25T13:30:17Z</time>
      </trkpt>
      <trkpt lat="47.53907" lon="-2.89118">
        <ele>3.3</ele>
        <time>2026-08-25T13:30:18Z</time>
      </trkpt>
      <trkpt lat="47.53906" lon="-2.89123">
        <ele>3.4</ele>
        <time>2026-08-25T13:30:19Z</time>
      </trkpt>
      <trkpt lat="47.53905" lon="-2.89128">
        <ele>3.4</ele>
        <time>2026-08-25T13:30:20Z</time>
      </trkpt>
      <trkpt lat="47.53904" lon="-2.89134">
        <ele>3.5</ele>
        <time>2026-08-25T13:30:21Z</time>
      </trkpt>
      <trkpt lat="47.53904" lon="-2.89139">
        <ele>3.5</ele>
        <time>2026-08-25T13:30:22Z</time>
      </trkpt>
      <trkpt lat="47.53906" lon="-2.89143">
        <ele>3.3</ele>
        <time>2026-08-25T13:30:23Z</time>
      </trkpt>
      <trkpt lat="47.53908" lon="-2.89146">
        <ele>3.2</ele>
        <time>2026-08-25T13:30:24Z</time>
      </trkpt>
      <trkpt lat="47.53911" lon="-2.89148">
        <ele>3.1</ele>
        <time>2026-08-25T13:30:25Z</time>
      </trkpt>
      <trkpt lat="47.53915" lon="-2.89149">
        <ele>3</ele>
        <time>2026-08-25T13:30:26Z</time>
      </trkpt>
      <trkpt lat="47.53919" lon="-2.89151">
        <ele>3.1</ele>
        <time>2026-08-25T13:30:27Z</time>
      </trkpt>
      <trkpt lat="47.53923" lon="-2.89152">
        <ele>3.2</ele>
        <time>2026-08-25T13:30:28Z</time>
      </trkpt>
      <trkpt lat="47.53927" lon="-2.89154">
        <ele>3.4</ele>
        <time>2026-08-25T13:30:29Z</time>
      </trkpt>
      <trkpt lat="47.5393" lon="-2.89157">
        <ele>3.5</ele>
        <time>2026-08-25T13:30:30Z</time>
      </trkpt>
      <trkpt lat="47.53934" lon="-2.8916">
        <ele>3.6</ele>
        <time>2026-08-25T13:30:31Z</time>
      </trkpt>
      <trkpt lat="47.53937" lon="-2.89164">
        <ele>3.7</ele>
        <time>2026-08-25T13:30:32Z</time>
      </trkpt>
      <trkpt lat="47.53939" lon="-2.89169">
        <ele>3.8</ele>
        <time>2026-08-25T13:30:33Z</time>
      </trkpt>
      <trkpt lat="47.53941" lon="-2.89174">
        <ele>3.9</ele>
        <time>2026-08-25T13:30:34Z</time>
      </trkpt>
      <trkpt lat="47.53943" lon="-2.89179">
        <ele>3.9</ele>
        <time>2026-08-25T13:30:35Z</time>
      </trkpt>
      <trkpt lat="47.53945" lon="-2.89183">
        <ele>4</ele>
        <time>2026-08-25T13:30:36Z</time>
      </trkpt>
      <trkpt lat="47.53947" lon="-2.89188">
        <ele>4.1</ele>
        <time>2026-08-25T13:30:37Z</time>
      </trkpt>
      <trkpt lat="47.53948" lon="-2.89192">
        <ele>4.1</ele>
        <time>2026-08-25T13:30:38Z</time>
      </trkpt>
      <trkpt lat="47.53949" lon="-2.89197">
        <ele>4.2</ele>
        <time>2026-08-25T13:30:39Z</time>
      </trkpt>
      <trkpt lat="47.5395" lon="-2.89202">
        <ele>4.3</ele>
        <time>2026-08-25T13:30:40Z</time>
      </trkpt>
      <trkpt lat="47.5395" lon="-2.89207">
        <ele>4.3</ele>
        <time>2026-08-25T13:30:41Z</time>
      </trkpt>
      <trkpt lat="47.53951" lon="-2.89213">
        <ele>4.4</ele>
        <time>2026-08-25T13:30:42Z</time>
      </trkpt>
      <trkpt lat="47.53952" lon="-2.89218">
        <ele>4.5</ele>
        <time>2026-08-25T13:30:43Z</time>
      </trkpt>
      <trkpt lat="47.53953" lon="-2.89223">
        <ele>4.6</ele>
        <time>2026-08-25T13:30:44Z</time>
      </trkpt>
      <trkpt lat="47.53955" lon="-2.89228">
        <ele>4.7</ele>
        <time>2026-08-25T13:30:45Z</time>
      </trkpt>
      <trkpt lat="47.53957" lon="-2.89232">
        <ele>4.7</ele>
        <time>2026-08-25T13:30:46Z</time>
      </trkpt>
      <trkpt lat="47.5396" lon="-2.89236">
        <ele>4.8</ele>
        <time>2026-08-25T13:30:47Z</time>
      </trkpt>
      <trkpt lat="47.53962" lon="-2.8924">
        <ele>4.9</ele>
        <time>2026-08-25T13:30:48Z</time>
      </trkpt>
      <trkpt lat="47.53965" lon="-2.89243">
        <ele>4.9</ele>
        <time>2026-08-25T13:30:49Z</time>
      </trkpt>
      <trkpt lat="47.53968" lon="-2.89247">
        <ele>4.9</ele>
        <time>2026-08-25T13:30:50Z</time>
      </trkpt>
      <trkpt lat="47.53971" lon="-2.89249">
        <ele>5</ele>
        <time>2026-08-25T13:30:51Z</time>
      </trkpt>
      <trkpt lat="47.53973" lon="-2.89252">
        <ele>5.1</ele>
        <time>2026-08-25T13:30:52Z</time>
      </trkpt>
      <trkpt lat="47.53976" lon="-2.89254">
        <ele>5.4</ele>
        <time>2026-08-25T13:30:53Z</time>
      </trkpt>
      <trkpt lat="47.53978" lon="-2.89257">
        <ele>5.6</ele>
        <time>2026-08-25T13:30:54Z</time>
      </trkpt>
      <trkpt lat="47.53981" lon="-2.89261">
        <ele>5.9</ele>
        <time>2026-08-25T13:30:55Z</time>
      </trkpt>
      <trkpt lat="47.53983" lon="-2.89264">
        <ele>6.2</ele>
        <time>2026-08-25T13:30:56Z</time>
      </trkpt>
      <trkpt lat="47.53986" lon="-2.89267">
        <ele>6.5</ele>
        <time>2026-08-25T13:30:57Z</time>
      </trkpt>
      <trkpt lat="47.53988" lon="-2.8927">
        <ele>6.7</ele>
        <time>2026-08-25T13:30:58Z</time>
      </trkpt>
      <trkpt lat="47.53989" lon="-2.89274">
        <ele>6.8</ele>
        <time>2026-08-25T13:30:59Z</time>
      </trkpt>
      <trkpt lat="47.53991" lon="-2.89278">
        <ele>7</ele>
        <time>2026-08-25T13:31:00Z</time>
      </trkpt>
      <trkpt lat="47.53992" lon="-2.89282">
        <ele>7.2</ele>
        <time>2026-08-25T13:31:01Z</time>
      </trkpt>
      <trkpt lat="47.53993" lon="-2.89286">
        <ele>7.3</ele>
        <time>2026-08-25T13:31:02Z</time>
      </trkpt>
      <trkpt lat="47.53994" lon="-2.8929">
        <ele>7.4</ele>
        <time>2026-08-25T13:31:03Z</time>
      </trkpt>
      <trkpt lat="47.53995" lon="-2.89294">
        <ele>7.6</ele>
        <time>2026-08-25T13:31:04Z</time>
      </trkpt>
      <trkpt lat="47.53996" lon="-2.89298">
        <ele>7.7</ele>
        <time>2026-08-25T13:31:05Z</time>
      </trkpt>
      <trkpt lat="47.53997" lon="-2.89302">
        <ele>7.8</ele>
        <time>2026-08-25T13:31:06Z</time>
      </trkpt>
      <trkpt lat="47.53997" lon="-2.89305">
        <ele>7.8</ele>
        <time>2026-08-25T13:31:07Z</time>
      </trkpt>
      <trkpt lat="47.53998" lon="-2.89309">
        <ele>8</ele>
        <time>2026-08-25T13:31:08Z</time>
      </trkpt>
      <trkpt lat="47.53999" lon="-2.89313">
        <ele>8.2</ele>
        <time>2026-08-25T13:31:09Z</time>
      </trkpt>
      <trkpt lat="47.54" lon="-2.89317">
        <ele>8.4</ele>
        <time>2026-08-25T13:31:10Z</time>
      </trkpt>
      <trkpt lat="47.54001" lon="-2.89321">
        <ele>8.6</ele>
        <time>2026-08-25T13:31:11Z</time>
      </trkpt>
      <trkpt lat="47.54002" lon="-2.89325">
        <ele>8.8</ele>
        <time>2026-08-25T13:31:12Z</time>
      </trkpt>
      <trkpt lat="47.54003" lon="-2.89329">
        <ele>9.1</ele>
        <time>2026-08-25T13:31:13Z</time>
      </trkpt>
      <trkpt lat="47.54004" lon="-2.89333">
        <ele>9.3</ele>
        <time>2026-08-25T13:31:14Z</time>
      </trkpt>
      <trkpt lat="47.54006" lon="-2.89337">
        <ele>9.4</ele>
        <time>2026-08-25T13:31:15Z</time>
      </trkpt>
      <trkpt lat="47.54007" lon="-2.89341">
        <ele>9.5</ele>
        <time>2026-08-25T13:31:16Z</time>
      </trkpt>
      <trkpt lat="47.54009" lon="-2.89345">
        <ele>9.6</ele>
        <time>2026-08-25T13:31:17Z</time>
      </trkpt>
      <trkpt lat="47.54011" lon="-2.89348">
        <ele>9.8</ele>
        <time>2026-08-25T13:31:18Z</time>
      </trkpt>
      <trkpt lat="47.54013" lon="-2.8935">
        <ele>9.9</ele>
        <time>2026-08-25T13:31:19Z</time>
      </trkpt>
      <trkpt lat="47.54015" lon="-2.89353">
        <ele>10.1</ele>
        <time>2026-08-25T13:31:20Z</time>
      </trkpt>
      <trkpt lat="47.54017" lon="-2.89355">
        <ele>10.2</ele>
        <time>2026-08-25T13:31:21Z</time>
      </trkpt>
      <trkpt lat="47.54019" lon="-2.89357">
        <ele>10.4</ele>
        <time>2026-08-25T13:31:22Z</time>
      </trkpt>
      <trkpt lat="47.54022" lon="-2.89358">
        <ele>10.6</ele>
        <time>2026-08-25T13:31:23Z</time>
      </trkpt>
      <trkpt lat="47.54025" lon="-2.8936">
        <ele>10.8</ele>
        <time>2026-08-25T13:31:24Z</time>
      </trkpt>
      <trkpt lat="47.54028" lon="-2.89361">
        <ele>11</ele>
        <time>2026-08-25T13:31:25Z</time>
      </trkpt>
      <trkpt lat="47.5403" lon="-2.89362">
        <ele>11</ele>
        <time>2026-08-25T13:31:26Z</time>
      </trkpt>
      <trkpt lat="47.54032" lon="-2.89363">
        <ele>11</ele>
        <time>2026-08-25T13:31:27Z</time>
      </trkpt>
      <trkpt lat="47.54033" lon="-2.89365">
        <ele>11</ele>
        <time>2026-08-25T13:31:28Z</time>
      </trkpt>
      <trkpt lat="47.54035" lon="-2.89367">
        <ele>11</ele>
        <time>2026-08-25T13:31:29Z</time>
      </trkpt>
      <trkpt lat="47.54036" lon="-2.89369">
        <ele>11</ele>
        <time>2026-08-25T13:31:30Z</time>
      </trkpt>
      <trkpt lat="47.54037" lon="-2.89372">
        <ele>11</ele>
        <time>2026-08-25T13:31:31Z</time>
      </trkpt>
      <trkpt lat="47.54039" lon="-2.89375">
        <ele>11</ele>
        <time>2026-08-25T13:31:32Z</time>
      </trkpt>
      <trkpt lat="47.5404" lon="-2.89378">
        <ele>11</ele>
        <time>2026-08-25T13:31:33Z</time>
      </trkpt>
      <trkpt lat="47.54041" lon="-2.89381">
        <ele>11</ele>
        <time>2026-08-25T13:31:34Z</time>
      </trkpt>
      <trkpt lat="47.54043" lon="-2.89385">
        <ele>11</ele>
        <time>2026-08-25T13:31:35Z</time>
      </trkpt>
      <trkpt lat="47.54045" lon="-2.89389">
        <ele>11</ele>
        <time>2026-08-25T13:31:36Z</time>
      </trkpt>
      <trkpt lat="47.54046" lon="-2.89393">
        <ele>11</ele>
        <time>2026-08-25T13:31:37Z</time>
      </trkpt>
      <trkpt lat="47.54046" lon="-2.89399">
        <ele>11</ele>
        <time>2026-08-25T13:31:38Z</time>
      </trkpt>
      <trkpt lat="47.54047" lon="-2.89404">
        <ele>11</ele>
        <time>2026-08-25T13:31:39Z</time>
      </trkpt>
      <trkpt lat="47.54048" lon="-2.89409">
        <ele>11</ele>
        <time>2026-08-25T13:31:40Z</time>
      </trkpt>
      <trkpt lat="47.5405" lon="-2.89415">
        <ele>11</ele>
        <time>2026-08-25T13:31:41Z</time>
      </trkpt>
      <trkpt lat="47.54052" lon="-2.89421">
        <ele>11</ele>
        <time>2026-08-25T13:31:42Z</time>
      </trkpt>
      <trkpt lat="47.54053" lon="-2.89427">
        <ele>11</ele>
        <time>2026-08-25T13:31:43Z</time>
      </trkpt>
      <trkpt lat="47.54055" lon="-2.89432">
        <ele>11</ele>
        <time>2026-08-25T13:31:44Z</time>
      </trkpt>
      <trkpt lat="47.54056" lon="-2.89437">
        <ele>11</ele>
        <time>2026-08-25T13:31:45Z</time>
      </trkpt>
      <trkpt lat="47.54057" lon="-2.8944">
        <ele>11</ele>
        <time>2026-08-25T13:31:46Z</time>
      </trkpt>
      <trkpt lat="47.54057" lon="-2.89444">
        <ele>10.9</ele>
        <time>2026-08-25T13:31:47Z</time>
      </trkpt>
      <trkpt lat="47.54058" lon="-2.89446">
        <ele>10.9</ele>
        <time>2026-08-25T13:31:48Z</time>
      </trkpt>
      <trkpt lat="47.54058" lon="-2.89448">
        <ele>10.8</ele>
        <time>2026-08-25T13:31:49Z</time>
      </trkpt>
      <trkpt lat="47.54058" lon="-2.89449">
        <ele>10.7</ele>
        <time>2026-08-25T13:31:50Z</time>
      </trkpt>
      <trkpt lat="47.54058" lon="-2.8945">
        <ele>10.7</ele>
        <time>2026-08-25T13:31:51Z</time>
      </trkpt>
      <trkpt lat="47.5406" lon="-2.89458">
        <ele>10.4</ele>
        <time>2026-08-25T13:31:55Z</time>
      </trkpt>
      <trkpt lat="47.54061" lon="-2.8946">
        <ele>10.2</ele>
        <time>2026-08-25T13:31:56Z</time>
      </trkpt>
      <trkpt lat="47.54063" lon="-2.89463">
        <ele>10.1</ele>
        <time>2026-08-25T13:31:57Z</time>
      </trkpt>
      <trkpt lat="47.54065" lon="-2.89466">
        <ele>9.9</ele>
        <time>2026-08-25T13:31:58Z</time>
      </trkpt>
      <trkpt lat="47.54067" lon="-2.89469">
        <ele>9.7</ele>
        <time>2026-08-25T13:31:59Z</time>
      </trkpt>
      <trkpt lat="47.54068" lon="-2.89474">
        <ele>9.5</ele>
        <time>2026-08-25T13:32:00Z</time>
      </trkpt>
      <trkpt lat="47.5407" lon="-2.89478">
        <ele>9.3</ele>
        <time>2026-08-25T13:32:01Z</time>
      </trkpt>
      <trkpt lat="47.54071" lon="-2.89484">
        <ele>9</ele>
        <time>2026-08-25T13:32:02Z</time>
      </trkpt>
      <trkpt lat="47.54073" lon="-2.89489">
        <ele>8.8</ele>
        <time>2026-08-25T13:32:03Z</time>
      </trkpt>
      <trkpt lat="47.54075" lon="-2.89496">
        <ele>8.4</ele>
        <time>2026-08-25T13:32:04Z</time>
      </trkpt>
      <trkpt lat="47.54076" lon="-2.89502">
        <ele>8.2</ele>
        <time>2026-08-25T13:32:05Z</time>
      </trkpt>
      <trkpt lat="47.54078" lon="-2.89509">
        <ele>8.1</ele>
        <time>2026-08-25T13:32:06Z</time>
      </trkpt>
      <trkpt lat="47.5408" lon="-2.89517">
        <ele>8</ele>
        <time>2026-08-25T13:32:07Z</time>
      </trkpt>
      <trkpt lat="47.54082" lon="-2.89525">
        <ele>8</ele>
        <time>2026-08-25T13:32:08Z</time>
      </trkpt>
      <trkpt lat="47.54084" lon="-2.89533">
        <ele>7.8</ele>
        <time>2026-08-25T13:32:09Z</time>
      </trkpt>
      <trkpt lat="47.54086" lon="-2.89542">
        <ele>7.3</ele>
        <time>2026-08-25T13:32:10Z</time>
      </trkpt>
      <trkpt lat="47.54088" lon="-2.89551">
        <ele>6.9</ele>
        <time>2026-08-25T13:32:11Z</time>
      </trkpt>
      <trkpt lat="47.5409" lon="-2.8956">
        <ele>6.4</ele>
        <time>2026-08-25T13:32:12Z</time>
      </trkpt>
      <trkpt lat="47.54093" lon="-2.89569">
        <ele>5.8</ele>
        <time>2026-08-25T13:32:13Z</time>
      </trkpt>
      <trkpt lat="47.54095" lon="-2.89578">
        <ele>5.4</ele>
        <time>2026-08-25T13:32:14Z</time>
      </trkpt>
      <trkpt lat="47.54097" lon="-2.89586">
        <ele>5</ele>
        <time>2026-08-25T13:32:15Z</time>
      </trkpt>
      <trkpt lat="47.54098" lon="-2.89593">
        <ele>4.8</ele>
        <time>2026-08-25T13:32:16Z</time>
      </trkpt>
      <trkpt lat="47.54099" lon="-2.89601">
        <ele>4.5</ele>
        <time>2026-08-25T13:32:17Z</time>
      </trkpt>
      <trkpt lat="47.541" lon="-2.89608">
        <ele>4.3</ele>
        <time>2026-08-25T13:32:18Z</time>
      </trkpt>
      <trkpt lat="47.54101" lon="-2.89613">
        <ele>4.2</ele>
        <time>2026-08-25T13:32:19Z</time>
      </trkpt>
      <trkpt lat="47.54103" lon="-2.89616">
        <ele>4.1</ele>
        <time>2026-08-25T13:32:20Z</time>
      </trkpt>
      <trkpt lat="47.54105" lon="-2.89617">
        <ele>3.9</ele>
        <time>2026-08-25T13:32:21Z</time>
      </trkpt>
      <trkpt lat="47.54107" lon="-2.89618">
        <ele>3.8</ele>
        <time>2026-08-25T13:32:22Z</time>
      </trkpt>
      <trkpt lat="47.5411" lon="-2.89616">
        <ele>3.5</ele>
        <time>2026-08-25T13:32:23Z</time>
      </trkpt>
      <trkpt lat="47.54111" lon="-2.89613">
        <ele>3.1</ele>
        <time>2026-08-25T13:32:24Z</time>
      </trkpt>
      <trkpt lat="47.54112" lon="-2.89609">
        <ele>3.1</ele>
        <time>2026-08-25T13:32:25Z</time>
      </trkpt>
      <trkpt lat="47.54114" lon="-2.89606">
        <ele>3.3</ele>
        <time>2026-08-25T13:32:26Z</time>
      </trkpt>
      <trkpt lat="47.54116" lon="-2.89603">
        <ele>3.4</ele>
        <time>2026-08-25T13:32:27Z</time>
      </trkpt>
      <trkpt lat="47.54119" lon="-2.896">
        <ele>3.6</ele>
        <time>2026-08-25T13:32:28Z</time>
      </trkpt>
      <trkpt lat="47.54121" lon="-2.89597">
        <ele>3.7</ele>
        <time>2026-08-25T13:32:29Z</time>
      </trkpt>
      <trkpt lat="47.54124" lon="-2.89594">
        <ele>3.8</ele>
        <time>2026-08-25T13:32:30Z</time>
      </trkpt>
      <trkpt lat="47.54126" lon="-2.89591">
        <ele>3.9</ele>
        <time>2026-08-25T13:32:31Z</time>
      </trkpt>
      <trkpt lat="47.54129" lon="-2.89587">
        <ele>4</ele>
        <time>2026-08-25T13:32:32Z</time>
      </trkpt>
      <trkpt lat="47.54131" lon="-2.89583">
        <ele>4</ele>
        <time>2026-08-25T13:32:33Z</time>
      </trkpt>
      <trkpt lat="47.54134" lon="-2.89579">
        <ele>4</ele>
        <time>2026-08-25T13:32:34Z</time>
      </trkpt>
      <trkpt lat="47.54136" lon="-2.89574">
        <ele>4</ele>
        <time>2026-08-25T13:32:35Z</time>
      </trkpt>
      <trkpt lat="47.54139" lon="-2.8957">
        <ele>4</ele>
        <time>2026-08-25T13:32:36Z</time>
      </trkpt>
      <trkpt lat="47.54141" lon="-2.89565">
        <ele>4</ele>
        <time>2026-08-25T13:32:37Z</time>
      </trkpt>
      <trkpt lat="47.54143" lon="-2.8956">
        <ele>4</ele>
        <time>2026-08-25T13:32:38Z</time>
      </trkpt>
      <trkpt lat="47.54145" lon="-2.89555">
        <ele>4</ele>
        <time>2026-08-25T13:32:39Z</time>
      </trkpt>
      <trkpt lat="47.54146" lon="-2.89549">
        <ele>4</ele>
        <time>2026-08-25T13:32:40Z</time>
      </trkpt>
      <trkpt lat="47.54148" lon="-2.89544">
        <ele>4</ele>
        <time>2026-08-25T13:32:41Z</time>
      </trkpt>
      <trkpt lat="47.54149" lon="-2.89538">
        <ele>4</ele>
        <time>2026-08-25T13:32:42Z</time>
      </trkpt>
      <trkpt lat="47.54151" lon="-2.89533">
        <ele>4</ele>
        <time>2026-08-25T13:32:43Z</time>
      </trkpt>
      <trkpt lat="47.54154" lon="-2.89529">
        <ele>4</ele>
        <time>2026-08-25T13:32:44Z</time>
      </trkpt>
      <trkpt lat="47.54156" lon="-2.89524">
        <ele>4.2</ele>
        <time>2026-08-25T13:32:45Z</time>
      </trkpt>
      <trkpt lat="47.54159" lon="-2.89521">
        <ele>4.2</ele>
        <time>2026-08-25T13:32:46Z</time>
      </trkpt>
      <trkpt lat="47.54161" lon="-2.89517">
        <ele>4.2</ele>
        <time>2026-08-25T13:32:47Z</time>
      </trkpt>
      <trkpt lat="47.54163" lon="-2.89514">
        <ele>4.2</ele>
        <time>2026-08-25T13:32:48Z</time>
      </trkpt>
      <trkpt lat="47.54165" lon="-2.89512">
        <ele>4.1</ele>
        <time>2026-08-25T13:32:49Z</time>
      </trkpt>
      <trkpt lat="47.54166" lon="-2.8951">
        <ele>4</ele>
        <time>2026-08-25T13:32:50Z</time>
      </trkpt>
      <trkpt lat="47.54167" lon="-2.89508">
        <ele>4</ele>
        <time>2026-08-25T13:32:51Z</time>
      </trkpt>
      <trkpt lat="47.54168" lon="-2.89507">
        <ele>4</ele>
        <time>2026-08-25T13:32:52Z</time>
      </trkpt>
      <trkpt lat="47.54169" lon="-2.89505">
        <ele>3.9</ele>
        <time>2026-08-25T13:32:53Z</time>
      </trkpt>
      <trkpt lat="47.5417" lon="-2.89504">
        <ele>3.9</ele>
        <time>2026-08-25T13:32:54Z</time>
      </trkpt>
      <trkpt lat="47.5417" lon="-2.89502">
        <ele>3.9</ele>
        <time>2026-08-25T13:32:55Z</time>
      </trkpt>
      <trkpt lat="47.54171" lon="-2.89501">
        <ele>3.8</ele>
        <time>2026-08-25T13:32:56Z</time>
      </trkpt>
      <trkpt lat="47.54173" lon="-2.89498">
        <ele>3.8</ele>
        <time>2026-08-25T13:32:57Z</time>
      </trkpt>
      <trkpt lat="47.54175" lon="-2.89495">
        <ele>3.9</ele>
        <time>2026-08-25T13:32:58Z</time>
      </trkpt>
      <trkpt lat="47.54177" lon="-2.89492">
        <ele>3.9</ele>
        <time>2026-08-25T13:32:59Z</time>
      </trkpt>
      <trkpt lat="47.5418" lon="-2.89487">
        <ele>4</ele>
        <time>2026-08-25T13:33:00Z</time>
      </trkpt>
      <trkpt lat="47.54182" lon="-2.89483">
        <ele>4.1</ele>
        <time>2026-08-25T13:33:01Z</time>
      </trkpt>
      <trkpt lat="47.54184" lon="-2.89478">
        <ele>4.2</ele>
        <time>2026-08-25T13:33:02Z</time>
      </trkpt>
      <trkpt lat="47.54187" lon="-2.89474">
        <ele>4.2</ele>
        <time>2026-08-25T13:33:03Z</time>
      </trkpt>
      <trkpt lat="47.5419" lon="-2.8947">
        <ele>4.2</ele>
        <time>2026-08-25T13:33:04Z</time>
      </trkpt>
      <trkpt lat="47.54192" lon="-2.89465">
        <ele>4.1</ele>
        <time>2026-08-25T13:33:05Z</time>
      </trkpt>
      <trkpt lat="47.54195" lon="-2.89461">
        <ele>4</ele>
        <time>2026-08-25T13:33:06Z</time>
      </trkpt>
      <trkpt lat="47.54198" lon="-2.89456">
        <ele>3.8</ele>
        <time>2026-08-25T13:33:07Z</time>
      </trkpt>
      <trkpt lat="47.54201" lon="-2.89451">
        <ele>3.8</ele>
        <time>2026-08-25T13:33:08Z</time>
      </trkpt>
      <trkpt lat="47.54203" lon="-2.89447">
        <ele>3.9</ele>
        <time>2026-08-25T13:33:09Z</time>
      </trkpt>
      <trkpt lat="47.54206" lon="-2.89443">
        <ele>4</ele>
        <time>2026-08-25T13:33:10Z</time>
      </trkpt>
      <trkpt lat="47.54208" lon="-2.89438">
        <ele>4.1</ele>
        <time>2026-08-25T13:33:11Z</time>
      </trkpt>
      <trkpt lat="47.54211" lon="-2.89434">
        <ele>4.2</ele>
        <time>2026-08-25T13:33:12Z</time>
      </trkpt>
      <trkpt lat="47.54213" lon="-2.89429">
        <ele>4.2</ele>
        <time>2026-08-25T13:33:13Z</time>
      </trkpt>
      <trkpt lat="47.54216" lon="-2.89425">
        <ele>4.2</ele>
        <time>2026-08-25T13:33:14Z</time>
      </trkpt>
      <trkpt lat="47.54219" lon="-2.8942">
        <ele>4.1</ele>
        <time>2026-08-25T13:33:15Z</time>
      </trkpt>
      <trkpt lat="47.54222" lon="-2.89416">
        <ele>4</ele>
        <time>2026-08-25T13:33:16Z</time>
      </trkpt>
      <trkpt lat="47.54225" lon="-2.89412">
        <ele>4</ele>
        <time>2026-08-25T13:33:17Z</time>
      </trkpt>
      <trkpt lat="47.54228" lon="-2.89408">
        <ele>3.9</ele>
        <time>2026-08-25T13:33:18Z</time>
      </trkpt>
      <trkpt lat="47.54231" lon="-2.89403">
        <ele>3.7</ele>
        <time>2026-08-25T13:33:19Z</time>
      </trkpt>
      <trkpt lat="47.54234" lon="-2.89399">
        <ele>3.5</ele>
        <time>2026-08-25T13:33:20Z</time>
      </trkpt>
      <trkpt lat="47.54236" lon="-2.89393">
        <ele>3.2</ele>
        <time>2026-08-25T13:33:21Z</time>
      </trkpt>
      <trkpt lat="47.54237" lon="-2.89388">
        <ele>3</ele>
        <time>2026-08-25T13:33:22Z</time>
      </trkpt>
      <trkpt lat="47.54237" lon="-2.89382">
        <ele>3.1</ele>
        <time>2026-08-25T13:33:23Z</time>
      </trkpt>
      <trkpt lat="47.54238" lon="-2.89376">
        <ele>3.1</ele>
        <time>2026-08-25T13:33:24Z</time>
      </trkpt>
      <trkpt lat="47.54239" lon="-2.89371">
        <ele>3.2</ele>
        <time>2026-08-25T13:33:25Z</time>
      </trkpt>
      <trkpt lat="47.5424" lon="-2.89365">
        <ele>3.3</ele>
        <time>2026-08-25T13:33:26Z</time>
      </trkpt>
      <trkpt lat="47.54241" lon="-2.8936">
        <ele>3.4</ele>
        <time>2026-08-25T13:33:27Z</time>
      </trkpt>
      <trkpt lat="47.54242" lon="-2.89355">
        <ele>3.6</ele>
        <time>2026-08-25T13:33:28Z</time>
      </trkpt>
      <trkpt lat="47.54244" lon="-2.89351">
        <ele>3.7</ele>
        <time>2026-08-25T13:33:29Z</time>
      </trkpt>
      <trkpt lat="47.54246" lon="-2.89347">
        <ele>3.7</ele>
        <time>2026-08-25T13:33:30Z</time>
      </trkpt>
      <trkpt lat="47.54247" lon="-2.89343">
        <ele>3.8</ele>
        <time>2026-08-25T13:33:31Z</time>
      </trkpt>
      <trkpt lat="47.54249" lon="-2.89339">
        <ele>3.9</ele>
        <time>2026-08-25T13:33:32Z</time>
      </trkpt>
      <trkpt lat="47.5425" lon="-2.89334">
        <ele>4</ele>
        <time>2026-08-25T13:33:33Z</time>
      </trkpt>
      <trkpt lat="47.54251" lon="-2.89328">
        <ele>4</ele>
        <time>2026-08-25T13:33:34Z</time>
      </trkpt>
      <trkpt lat="47.54251" lon="-2.89323">
        <ele>4</ele>
        <time>2026-08-25T13:33:35Z</time>
      </trkpt>
      <trkpt lat="47.54251" lon="-2.89317">
        <ele>4</ele>
        <time>2026-08-25T13:33:36Z</time>
      </trkpt>
      <trkpt lat="47.54251" lon="-2.89312">
        <ele>4</ele>
        <time>2026-08-25T13:33:37Z</time>
      </trkpt>
      <trkpt lat="47.54251" lon="-2.89307">
        <ele>4</ele>
        <time>2026-08-25T13:33:38Z</time>
      </trkpt>
      <trkpt lat="47.54252" lon="-2.89301">
        <ele>4</ele>
        <time>2026-08-25T13:33:39Z</time>
      </trkpt>
      <trkpt lat="47.54252" lon="-2.89296">
        <ele>4</ele>
        <time>2026-08-25T13:33:40Z</time>
      </trkpt>
      <trkpt lat="47.54253" lon="-2.8929">
        <ele>4</ele>
        <time>2026-08-25T13:33:41Z</time>
      </trkpt>
      <trkpt lat="47.54253" lon="-2.89285">
        <ele>4</ele>
        <time>2026-08-25T13:33:42Z</time>
      </trkpt>
      <trkpt lat="47.54253" lon="-2.89279">
        <ele>4</ele>
        <time>2026-08-25T13:33:43Z</time>
      </trkpt>
      <trkpt lat="47.54253" lon="-2.89273">
        <ele>4</ele>
        <time>2026-08-25T13:33:44Z</time>
      </trkpt>
      <trkpt lat="47.54254" lon="-2.89267">
        <ele>4</ele>
        <time>2026-08-25T13:33:45Z</time>
      </trkpt>
      <trkpt lat="47.54255" lon="-2.89261">
        <ele>4</ele>
        <time>2026-08-25T13:33:46Z</time>
      </trkpt>
      <trkpt lat="47.54257" lon="-2.89255">
        <ele>4</ele>
        <time>2026-08-25T13:33:47Z</time>
      </trkpt>
      <trkpt lat="47.54258" lon="-2.89249">
        <ele>4</ele>
        <time>2026-08-25T13:33:48Z</time>
      </trkpt>
      <trkpt lat="47.54259" lon="-2.89244">
        <ele>4</ele>
        <time>2026-08-25T13:33:49Z</time>
      </trkpt>
      <trkpt lat="47.54261" lon="-2.8924">
        <ele>4</ele>
        <time>2026-08-25T13:33:50Z</time>
      </trkpt>
      <trkpt lat="47.54264" lon="-2.89236">
        <ele>4</ele>
        <time>2026-08-25T13:33:51Z</time>
      </trkpt>
      <trkpt lat="47.54267" lon="-2.89233">
        <ele>4</ele>
        <time>2026-08-25T13:33:52Z</time>
      </trkpt>
      <trkpt lat="47.5427" lon="-2.89231">
        <ele>4</ele>
        <time>2026-08-25T13:33:53Z</time>
      </trkpt>
      <trkpt lat="47.54274" lon="-2.8923">
        <ele>4</ele>
        <time>2026-08-25T13:33:54Z</time>
      </trkpt>
      <trkpt lat="47.54278" lon="-2.89229">
        <ele>4</ele>
        <time>2026-08-25T13:33:55Z</time>
      </trkpt>
      <trkpt lat="47.54282" lon="-2.89229">
        <ele>4</ele>
        <time>2026-08-25T13:33:56Z</time>
      </trkpt>
      <trkpt lat="47.54286" lon="-2.8923">
        <ele>4</ele>
        <time>2026-08-25T13:33:57Z</time>
      </trkpt>
      <trkpt lat="47.54289" lon="-2.89232">
        <ele>4</ele>
        <time>2026-08-25T13:33:58Z</time>
      </trkpt>
      <trkpt lat="47.54293" lon="-2.89233">
        <ele>4</ele>
        <time>2026-08-25T13:33:59Z</time>
      </trkpt>
      <trkpt lat="47.54297" lon="-2.89233">
        <ele>4</ele>
        <time>2026-08-25T13:34:00Z</time>
      </trkpt>
      <trkpt lat="47.543" lon="-2.89232">
        <ele>4</ele>
        <time>2026-08-25T13:34:01Z</time>
      </trkpt>
      <trkpt lat="47.54304" lon="-2.89229">
        <ele>4</ele>
        <time>2026-08-25T13:34:02Z</time>
      </trkpt>
      <trkpt lat="47.54307" lon="-2.89226">
        <ele>4</ele>
        <time>2026-08-25T13:34:03Z</time>
      </trkpt>
      <trkpt lat="47.5431" lon="-2.89223">
        <ele>4</ele>
        <time>2026-08-25T13:34:04Z</time>
      </trkpt>
      <trkpt lat="47.54314" lon="-2.8922">
        <ele>4.1</ele>
        <time>2026-08-25T13:34:05Z</time>
      </trkpt>
      <trkpt lat="47.54317" lon="-2.89216">
        <ele>4.1</ele>
        <time>2026-08-25T13:34:06Z</time>
      </trkpt>
      <trkpt lat="47.54319" lon="-2.89213">
        <ele>4.2</ele>
        <time>2026-08-25T13:34:07Z</time>
      </trkpt>
      <trkpt lat="47.54322" lon="-2.89209">
        <ele>4.2</ele>
        <time>2026-08-25T13:34:08Z</time>
      </trkpt>
      <trkpt lat="47.54324" lon="-2.89205">
        <ele>4.2</ele>
        <time>2026-08-25T13:34:09Z</time>
      </trkpt>
      <trkpt lat="47.54327" lon="-2.89202">
        <ele>4.2</ele>
        <time>2026-08-25T13:34:10Z</time>
      </trkpt>
      <trkpt lat="47.54329" lon="-2.89198">
        <ele>4.1</ele>
        <time>2026-08-25T13:34:11Z</time>
      </trkpt>
      <trkpt lat="47.54331" lon="-2.89196">
        <ele>4.1</ele>
        <time>2026-08-25T13:34:12Z</time>
      </trkpt>
      <trkpt lat="47.54334" lon="-2.89193">
        <ele>4.1</ele>
        <time>2026-08-25T13:34:13Z</time>
      </trkpt>
      <trkpt lat="47.54336" lon="-2.89191">
        <ele>4.2</ele>
        <time>2026-08-25T13:34:14Z</time>
      </trkpt>
      <trkpt lat="47.54338" lon="-2.89188">
        <ele>4.3</ele>
        <time>2026-08-25T13:34:15Z</time>
      </trkpt>
      <trkpt lat="47.5434" lon="-2.89186">
        <ele>4.3</ele>
        <time>2026-08-25T13:34:16Z</time>
      </trkpt>
      <trkpt lat="47.54342" lon="-2.89184">
        <ele>4.3</ele>
        <time>2026-08-25T13:34:17Z</time>
      </trkpt>
      <trkpt lat="47.54343" lon="-2.89181">
        <ele>4.3</ele>
        <time>2026-08-25T13:34:18Z</time>
      </trkpt>
      <trkpt lat="47.54345" lon="-2.89179">
        <ele>4.2</ele>
        <time>2026-08-25T13:34:19Z</time>
      </trkpt>
      <trkpt lat="47.54347" lon="-2.89176">
        <ele>4</ele>
        <time>2026-08-25T13:34:20Z</time>
      </trkpt>
      <trkpt lat="47.54349" lon="-2.89174">
        <ele>3.8</ele>
        <time>2026-08-25T13:34:21Z</time>
      </trkpt>
      <trkpt lat="47.54351" lon="-2.89171">
        <ele>3.5</ele>
        <time>2026-08-25T13:34:22Z</time>
      </trkpt>
      <trkpt lat="47.54353" lon="-2.89169">
        <ele>3.2</ele>
        <time>2026-08-25T13:34:23Z</time>
      </trkpt>
      <trkpt lat="47.54355" lon="-2.89167">
        <ele>2.9</ele>
        <time>2026-08-25T13:34:24Z</time>
      </trkpt>
      <trkpt lat="47.54357" lon="-2.89164">
        <ele>2.8</ele>
        <time>2026-08-25T13:34:25Z</time>
      </trkpt>
      <trkpt lat="47.54359" lon="-2.89162">
        <ele>2.6</ele>
        <time>2026-08-25T13:34:26Z</time>
      </trkpt>
      <trkpt lat="47.54361" lon="-2.89159">
        <ele>2.6</ele>
        <time>2026-08-25T13:34:27Z</time>
      </trkpt>
      <trkpt lat="47.54363" lon="-2.89157">
        <ele>2.6</ele>
        <time>2026-08-25T13:34:28Z</time>
      </trkpt>
      <trkpt lat="47.54364" lon="-2.89154">
        <ele>2.8</ele>
        <time>2026-08-25T13:34:29Z</time>
      </trkpt>
      <trkpt lat="47.54366" lon="-2.89151">
        <ele>2.8</ele>
        <time>2026-08-25T13:34:30Z</time>
      </trkpt>
      <trkpt lat="47.54367" lon="-2.89148">
        <ele>2.9</ele>
        <time>2026-08-25T13:34:31Z</time>
      </trkpt>
      <trkpt lat="47.54369" lon="-2.89145">
        <ele>2.9</ele>
        <time>2026-08-25T13:34:32Z</time>
      </trkpt>
      <trkpt lat="47.54371" lon="-2.89143">
        <ele>2.8</ele>
        <time>2026-08-25T13:34:33Z</time>
      </trkpt>
      <trkpt lat="47.54373" lon="-2.89141">
        <ele>2.7</ele>
        <time>2026-08-25T13:34:34Z</time>
      </trkpt>
      <trkpt lat="47.54375" lon="-2.89138">
        <ele>2.6</ele>
        <time>2026-08-25T13:34:35Z</time>
      </trkpt>
      <trkpt lat="47.54376" lon="-2.89135">
        <ele>2.7</ele>
        <time>2026-08-25T13:34:36Z</time>
      </trkpt>
      <trkpt lat="47.54378" lon="-2.89132">
        <ele>2.8</ele>
        <time>2026-08-25T13:34:37Z</time>
      </trkpt>
      <trkpt lat="47.5438" lon="-2.89129">
        <ele>2.9</ele>
        <time>2026-08-25T13:34:38Z</time>
      </trkpt>
      <trkpt lat="47.54382" lon="-2.89127">
        <ele>2.9</ele>
        <time>2026-08-25T13:34:39Z</time>
      </trkpt>
      <trkpt lat="47.54385" lon="-2.89125">
        <ele>2.9</ele>
        <time>2026-08-25T13:34:40Z</time>
      </trkpt>
      <trkpt lat="47.54387" lon="-2.89122">
        <ele>3</ele>
        <time>2026-08-25T13:34:41Z</time>
      </trkpt>
      <trkpt lat="47.54389" lon="-2.8912">
        <ele>3</ele>
        <time>2026-08-25T13:34:42Z</time>
      </trkpt>
      <trkpt lat="47.54391" lon="-2.89117">
        <ele>3.4</ele>
        <time>2026-08-25T13:34:43Z</time>
      </trkpt>
      <trkpt lat="47.54394" lon="-2.89115">
        <ele>3.6</ele>
        <time>2026-08-25T13:34:44Z</time>
      </trkpt>
      <trkpt lat="47.54396" lon="-2.89113">
        <ele>3.8</ele>
        <time>2026-08-25T13:34:45Z</time>
      </trkpt>
      <trkpt lat="47.54398" lon="-2.8911">
        <ele>4</ele>
        <time>2026-08-25T13:34:46Z</time>
      </trkpt>
      <trkpt lat="47.544" lon="-2.89108">
        <ele>4.1</ele>
        <time>2026-08-25T13:34:47Z</time>
      </trkpt>
      <trkpt lat="47.54402" lon="-2.89105">
        <ele>4.1</ele>
        <time>2026-08-25T13:34:48Z</time>
      </trkpt>
      <trkpt lat="47.54403" lon="-2.89104">
        <ele>4.1</ele>
        <time>2026-08-25T13:34:49Z</time>
      </trkpt>
      <trkpt lat="47.54404" lon="-2.89103">
        <ele>4.1</ele>
        <time>2026-08-25T13:34:50Z</time>
      </trkpt>
      <trkpt lat="47.54404" lon="-2.89104">
        <ele>4.1</ele>
        <time>2026-08-25T13:34:51Z</time>
      </trkpt>
      <trkpt lat="47.54405" lon="-2.89104">
        <ele>4.1</ele>
        <time>2026-08-25T13:34:52Z</time>
      </trkpt>
      <trkpt lat="47.54405" lon="-2.89099">
        <ele>4.2</ele>
        <time>2026-08-25T14:08:18Z</time>
      </trkpt>
      <trkpt lat="47.54406" lon="-2.89097">
        <ele>4.2</ele>
        <time>2026-08-25T14:08:19Z</time>
      </trkpt>
      <trkpt lat="47.54406" lon="-2.89095">
        <ele>4.2</ele>
        <time>2026-08-25T14:08:20Z</time>
      </trkpt>
      <trkpt lat="47.54408" lon="-2.89093">
        <ele>4.2</ele>
        <time>2026-08-25T14:08:21Z</time>
      </trkpt>
      <trkpt lat="47.54409" lon="-2.89092">
        <ele>4.2</ele>
        <time>2026-08-25T14:08:22Z</time>
      </trkpt>
      <trkpt lat="47.54411" lon="-2.8909">
        <ele>4.2</ele>
        <time>2026-08-25T14:08:23Z</time>
      </trkpt>
      <trkpt lat="47.54412" lon="-2.89088">
        <ele>4.1</ele>
        <time>2026-08-25T14:08:24Z</time>
      </trkpt>
      <trkpt lat="47.54413" lon="-2.89086">
        <ele>4.1</ele>
        <time>2026-08-25T14:08:25Z</time>
      </trkpt>
      <trkpt lat="47.54413" lon="-2.89084">
        <ele>4.1</ele>
        <time>2026-08-25T14:08:26Z</time>
      </trkpt>
      <trkpt lat="47.54414" lon="-2.89081">
        <ele>4.1</ele>
        <time>2026-08-25T14:08:27Z</time>
      </trkpt>
      <trkpt lat="47.54414" lon="-2.89079">
        <ele>4.1</ele>
        <time>2026-08-25T14:08:28Z</time>
      </trkpt>
      <trkpt lat="47.54414" lon="-2.89076">
        <ele>4.1</ele>
        <time>2026-08-25T14:08:29Z</time>
      </trkpt>
      <trkpt lat="47.54414" lon="-2.89074">
        <ele>4.1</ele>
        <time>2026-08-25T14:08:30Z</time>
      </trkpt>
      <trkpt lat="47.54414" lon="-2.89072">
        <ele>4.1</ele>
        <time>2026-08-25T14:08:31Z</time>
      </trkpt>
      <trkpt lat="47.54415" lon="-2.8907">
        <ele>4.1</ele>
        <time>2026-08-25T14:08:32Z</time>
      </trkpt>
      <trkpt lat="47.54415" lon="-2.89068">
        <ele>4.1</ele>
        <time>2026-08-25T14:08:33Z</time>
      </trkpt>
      <trkpt lat="47.54415" lon="-2.89067">
        <ele>4.1</ele>
        <time>2026-08-25T14:08:34Z</time>
      </trkpt>
      <trkpt lat="47.54415" lon="-2.89065">
        <ele>4.1</ele>
        <time>2026-08-25T14:08:35Z</time>
      </trkpt>
      <trkpt lat="47.54416" lon="-2.89064">
        <ele>4</ele>
        <time>2026-08-25T14:08:36Z</time>
      </trkpt>
      <trkpt lat="47.54417" lon="-2.89063">
        <ele>4</ele>
        <time>2026-08-25T14:08:37Z</time>
      </trkpt>
      <trkpt lat="47.54418" lon="-2.89062">
        <ele>4</ele>
        <time>2026-08-25T14:08:38Z</time>
      </trkpt>
      <trkpt lat="47.54419" lon="-2.8906">
        <ele>3.9</ele>
        <time>2026-08-25T14:08:39Z</time>
      </trkpt>
      <trkpt lat="47.54419" lon="-2.89059">
        <ele>3.9</ele>
        <time>2026-08-25T14:08:40Z</time>
      </trkpt>
      <trkpt lat="47.5442" lon="-2.89057">
        <ele>3.9</ele>
        <time>2026-08-25T14:08:41Z</time>
      </trkpt>
      <trkpt lat="47.54421" lon="-2.89055">
        <ele>3.9</ele>
        <time>2026-08-25T14:08:42Z</time>
      </trkpt>
      <trkpt lat="47.54423" lon="-2.89053">
        <ele>3.9</ele>
        <time>2026-08-25T14:08:43Z</time>
      </trkpt>
      <trkpt lat="47.54424" lon="-2.89052">
        <ele>3.9</ele>
        <time>2026-08-25T14:08:44Z</time>
      </trkpt>
      <trkpt lat="47.54427" lon="-2.89051">
        <ele>3.8</ele>
        <time>2026-08-25T14:08:45Z</time>
      </trkpt>
      <trkpt lat="47.54429" lon="-2.89051">
        <ele>3.7</ele>
        <time>2026-08-25T14:08:46Z</time>
      </trkpt>
      <trkpt lat="47.54431" lon="-2.89051">
        <ele>3.6</ele>
        <time>2026-08-25T14:08:47Z</time>
      </trkpt>
      <trkpt lat="47.54434" lon="-2.89051">
        <ele>3.5</ele>
        <time>2026-08-25T14:08:48Z</time>
      </trkpt>
      <trkpt lat="47.54436" lon="-2.8905">
        <ele>3.5</ele>
        <time>2026-08-25T14:08:49Z</time>
      </trkpt>
      <trkpt lat="47.54439" lon="-2.89049">
        <ele>3.4</ele>
        <time>2026-08-25T14:08:50Z</time>
      </trkpt>
      <trkpt lat="47.54442" lon="-2.89048">
        <ele>3.4</ele>
        <time>2026-08-25T14:08:51Z</time>
      </trkpt>
      <trkpt lat="47.54445" lon="-2.89047">
        <ele>3.3</ele>
        <time>2026-08-25T14:08:52Z</time>
      </trkpt>
      <trkpt lat="47.54447" lon="-2.89045">
        <ele>3.3</ele>
        <time>2026-08-25T14:08:53Z</time>
      </trkpt>
      <trkpt lat="47.5445" lon="-2.89043">
        <ele>3.3</ele>
        <time>2026-08-25T14:08:54Z</time>
      </trkpt>
      <trkpt lat="47.54452" lon="-2.89041">
        <ele>3.2</ele>
        <time>2026-08-25T14:08:55Z</time>
      </trkpt>
      <trkpt lat="47.54455" lon="-2.89038">
        <ele>3.2</ele>
        <time>2026-08-25T14:08:56Z</time>
      </trkpt>
      <trkpt lat="47.54457" lon="-2.89036">
        <ele>3.1</ele>
        <time>2026-08-25T14:08:57Z</time>
      </trkpt>
      <trkpt lat="47.54459" lon="-2.89033">
        <ele>3</ele>
        <time>2026-08-25T14:08:58Z</time>
      </trkpt>
      <trkpt lat="47.54461" lon="-2.8903">
        <ele>2.8</ele>
        <time>2026-08-25T14:08:59Z</time>
      </trkpt>
      <trkpt lat="47.54464" lon="-2.89027">
        <ele>2.7</ele>
        <time>2026-08-25T14:09:00Z</time>
      </trkpt>
      <trkpt lat="47.54465" lon="-2.89024">
        <ele>2.9</ele>
        <time>2026-08-25T14:09:01Z</time>
      </trkpt>
      <trkpt lat="47.54467" lon="-2.8902">
        <ele>3.2</ele>
        <time>2026-08-25T14:09:02Z</time>
      </trkpt>
      <trkpt lat="47.54469" lon="-2.89017">
        <ele>3.4</ele>
        <time>2026-08-25T14:09:03Z</time>
      </trkpt>
      <trkpt lat="47.54471" lon="-2.89015">
        <ele>3.4</ele>
        <time>2026-08-25T14:09:04Z</time>
      </trkpt>
      <trkpt lat="47.54474" lon="-2.89014">
        <ele>3.5</ele>
        <time>2026-08-25T14:09:05Z</time>
      </trkpt>
      <trkpt lat="47.54477" lon="-2.89013">
        <ele>3.7</ele>
        <time>2026-08-25T14:09:06Z</time>
      </trkpt>
      <trkpt lat="47.54479" lon="-2.89013">
        <ele>3.7</ele>
        <time>2026-08-25T14:09:07Z</time>
      </trkpt>
      <trkpt lat="47.54482" lon="-2.89015">
        <ele>3.6</ele>
        <time>2026-08-25T14:09:08Z</time>
      </trkpt>
      <trkpt lat="47.54485" lon="-2.89017">
        <ele>3.5</ele>
        <time>2026-08-25T14:09:09Z</time>
      </trkpt>
      <trkpt lat="47.54487" lon="-2.8902">
        <ele>3.5</ele>
        <time>2026-08-25T14:09:10Z</time>
      </trkpt>
      <trkpt lat="47.54489" lon="-2.89023">
        <ele>3.4</ele>
        <time>2026-08-25T14:09:11Z</time>
      </trkpt>
      <trkpt lat="47.54491" lon="-2.89026">
        <ele>3.4</ele>
        <time>2026-08-25T14:09:12Z</time>
      </trkpt>
      <trkpt lat="47.54493" lon="-2.8903">
        <ele>3.4</ele>
        <time>2026-08-25T14:09:13Z</time>
      </trkpt>
      <trkpt lat="47.54496" lon="-2.89033">
        <ele>3.4</ele>
        <time>2026-08-25T14:09:14Z</time>
      </trkpt>
      <trkpt lat="47.54498" lon="-2.89037">
        <ele>3.2</ele>
        <time>2026-08-25T14:09:15Z</time>
      </trkpt>
      <trkpt lat="47.54501" lon="-2.8904">
        <ele>3.2</ele>
        <time>2026-08-25T14:09:16Z</time>
      </trkpt>
      <trkpt lat="47.54503" lon="-2.89043">
        <ele>3</ele>
        <time>2026-08-25T14:09:17Z</time>
      </trkpt>
      <trkpt lat="47.54506" lon="-2.89046">
        <ele>3</ele>
        <time>2026-08-25T14:09:18Z</time>
      </trkpt>
      <trkpt lat="47.54508" lon="-2.89049">
        <ele>2.9</ele>
        <time>2026-08-25T14:09:19Z</time>
      </trkpt>
      <trkpt lat="47.54511" lon="-2.8905">
        <ele>3</ele>
        <time>2026-08-25T14:09:20Z</time>
      </trkpt>
      <trkpt lat="47.54513" lon="-2.89051">
        <ele>3.1</ele>
        <time>2026-08-25T14:09:21Z</time>
      </trkpt>
      <trkpt lat="47.54515" lon="-2.89052">
        <ele>3.2</ele>
        <time>2026-08-25T14:09:22Z</time>
      </trkpt>
      <trkpt lat="47.54518" lon="-2.89052">
        <ele>3.4</ele>
        <time>2026-08-25T14:09:23Z</time>
      </trkpt>
      <trkpt lat="47.5452" lon="-2.89052">
        <ele>3.5</ele>
        <time>2026-08-25T14:09:24Z</time>
      </trkpt>
      <trkpt lat="47.54523" lon="-2.89052">
        <ele>3.7</ele>
        <time>2026-08-25T14:09:25Z</time>
      </trkpt>
      <trkpt lat="47.54525" lon="-2.89051">
        <ele>3.8</ele>
        <time>2026-08-25T14:09:26Z</time>
      </trkpt>
      <trkpt lat="47.54528" lon="-2.89051">
        <ele>4</ele>
        <time>2026-08-25T14:09:27Z</time>
      </trkpt>
      <trkpt lat="47.5453" lon="-2.8905">
        <ele>4</ele>
        <time>2026-08-25T14:09:28Z</time>
      </trkpt>
      <trkpt lat="47.54532" lon="-2.89049">
        <ele>4</ele>
        <time>2026-08-25T14:09:29Z</time>
      </trkpt>
      <trkpt lat="47.54534" lon="-2.89048">
        <ele>4</ele>
        <time>2026-08-25T14:09:30Z</time>
      </trkpt>
      <trkpt lat="47.54536" lon="-2.89046">
        <ele>4</ele>
        <time>2026-08-25T14:09:31Z</time>
      </trkpt>
      <trkpt lat="47.54539" lon="-2.89043">
        <ele>4</ele>
        <time>2026-08-25T14:09:32Z</time>
      </trkpt>
      <trkpt lat="47.5454" lon="-2.89041">
        <ele>4</ele>
        <time>2026-08-25T14:09:33Z</time>
      </trkpt>
      <trkpt lat="47.54542" lon="-2.89038">
        <ele>4</ele>
        <time>2026-08-25T14:09:34Z</time>
      </trkpt>
      <trkpt lat="47.54544" lon="-2.89036">
        <ele>4</ele>
        <time>2026-08-25T14:09:35Z</time>
      </trkpt>
      <trkpt lat="47.54545" lon="-2.89034">
        <ele>4</ele>
        <time>2026-08-25T14:09:36Z</time>
      </trkpt>
      <trkpt lat="47.54547" lon="-2.89031">
        <ele>4</ele>
        <time>2026-08-25T14:09:37Z</time>
      </trkpt>
      <trkpt lat="47.54549" lon="-2.89028">
        <ele>4</ele>
        <time>2026-08-25T14:09:38Z</time>
      </trkpt>
      <trkpt lat="47.54551" lon="-2.89025">
        <ele>4.1</ele>
        <time>2026-08-25T14:09:39Z</time>
      </trkpt>
      <trkpt lat="47.54553" lon="-2.89022">
        <ele>4.2</ele>
        <time>2026-08-25T14:09:40Z</time>
      </trkpt>
      <trkpt lat="47.54555" lon="-2.89019">
        <ele>4.3</ele>
        <time>2026-08-25T14:09:41Z</time>
      </trkpt>
      <trkpt lat="47.54557" lon="-2.89017">
        <ele>4.4</ele>
        <time>2026-08-25T14:09:42Z</time>
      </trkpt>
      <trkpt lat="47.54558" lon="-2.89014">
        <ele>4.5</ele>
        <time>2026-08-25T14:09:43Z</time>
      </trkpt>
      <trkpt lat="47.54559" lon="-2.89012">
        <ele>4.6</ele>
        <time>2026-08-25T14:09:44Z</time>
      </trkpt>
      <trkpt lat="47.5456" lon="-2.89009">
        <ele>4.7</ele>
        <time>2026-08-25T14:09:45Z</time>
      </trkpt>
      <trkpt lat="47.54561" lon="-2.89007">
        <ele>4.8</ele>
        <time>2026-08-25T14:09:46Z</time>
      </trkpt>
      <trkpt lat="47.54561" lon="-2.89005">
        <ele>4.9</ele>
        <time>2026-08-25T14:09:47Z</time>
      </trkpt>
      <trkpt lat="47.54561" lon="-2.89002">
        <ele>4.9</ele>
        <time>2026-08-25T14:09:48Z</time>
      </trkpt>
      <trkpt lat="47.54559" lon="-2.89001">
        <ele>5</ele>
        <time>2026-08-25T14:09:49Z</time>
      </trkpt>
      <trkpt lat="47.54558" lon="-2.88999">
        <ele>5</ele>
        <time>2026-08-25T14:09:50Z</time>
      </trkpt>
      <trkpt lat="47.54556" lon="-2.88997">
        <ele>5</ele>
        <time>2026-08-25T14:09:51Z</time>
      </trkpt>
      <trkpt lat="47.54555" lon="-2.88995">
        <ele>5</ele>
        <time>2026-08-25T14:09:52Z</time>
      </trkpt>
      <trkpt lat="47.54554" lon="-2.88993">
        <ele>5</ele>
        <time>2026-08-25T14:09:53Z</time>
      </trkpt>
      <trkpt lat="47.54552" lon="-2.88991">
        <ele>5</ele>
        <time>2026-08-25T14:09:54Z</time>
      </trkpt>
      <trkpt lat="47.54551" lon="-2.8899">
        <ele>5.1</ele>
        <time>2026-08-25T14:09:55Z</time>
      </trkpt>
      <trkpt lat="47.5455" lon="-2.88989">
        <ele>5.1</ele>
        <time>2026-08-25T14:09:56Z</time>
      </trkpt>
      <trkpt lat="47.5455" lon="-2.88988">
        <ele>5.1</ele>
        <time>2026-08-25T14:09:57Z</time>
      </trkpt>
      <trkpt lat="47.5455" lon="-2.88987">
        <ele>5.1</ele>
        <time>2026-08-25T14:09:58Z</time>
      </trkpt>
      <trkpt lat="47.5455" lon="-2.88987">
        <ele>5.1</ele>
        <time>2026-08-25T14:09:59Z</time>
      </trkpt>
      <trkpt lat="47.54556" lon="-2.88995">
        <ele>5</ele>
        <time>2026-08-25T14:14:25Z</time>
      </trkpt>
      <trkpt lat="47.54557" lon="-2.88998">
        <ele>5</ele>
        <time>2026-08-25T14:14:26Z</time>
      </trkpt>
      <trkpt lat="47.54559" lon="-2.88999">
        <ele>5</ele>
        <time>2026-08-25T14:14:27Z</time>
      </trkpt>
      <trkpt lat="47.54561" lon="-2.89001">
        <ele>5</ele>
        <time>2026-08-25T14:14:28Z</time>
      </trkpt>
      <trkpt lat="47.54563" lon="-2.89004">
        <ele>4.9</ele>
        <time>2026-08-25T14:14:29Z</time>
      </trkpt>
      <trkpt lat="47.54565" lon="-2.89006">
        <ele>4.9</ele>
        <time>2026-08-25T14:14:30Z</time>
      </trkpt>
      <trkpt lat="47.54567" lon="-2.89008">
        <ele>4.8</ele>
        <time>2026-08-25T14:14:31Z</time>
      </trkpt>
      <trkpt lat="47.5457" lon="-2.89009">
        <ele>4.8</ele>
        <time>2026-08-25T14:14:32Z</time>
      </trkpt>
      <trkpt lat="47.54572" lon="-2.89009">
        <ele>4.9</ele>
        <time>2026-08-25T14:14:33Z</time>
      </trkpt>
      <trkpt lat="47.54575" lon="-2.89009">
        <ele>4.9</ele>
        <time>2026-08-25T14:14:34Z</time>
      </trkpt>
      <trkpt lat="47.54577" lon="-2.89009">
        <ele>4.9</ele>
        <time>2026-08-25T14:14:35Z</time>
      </trkpt>
      <trkpt lat="47.54579" lon="-2.89008">
        <ele>5</ele>
        <time>2026-08-25T14:14:36Z</time>
      </trkpt>
      <trkpt lat="47.54582" lon="-2.89008">
        <ele>5</ele>
        <time>2026-08-25T14:14:37Z</time>
      </trkpt>
      <trkpt lat="47.54585" lon="-2.89009">
        <ele>5</ele>
        <time>2026-08-25T14:14:38Z</time>
      </trkpt>
      <trkpt lat="47.54587" lon="-2.89009">
        <ele>5.1</ele>
        <time>2026-08-25T14:14:39Z</time>
      </trkpt>
      <trkpt lat="47.5459" lon="-2.8901">
        <ele>5.2</ele>
        <time>2026-08-25T14:14:40Z</time>
      </trkpt>
      <trkpt lat="47.54593" lon="-2.89011">
        <ele>5.2</ele>
        <time>2026-08-25T14:14:41Z</time>
      </trkpt>
      <trkpt lat="47.54595" lon="-2.89011">
        <ele>5.3</ele>
        <time>2026-08-25T14:14:42Z</time>
      </trkpt>
      <trkpt lat="47.54597" lon="-2.89012">
        <ele>5.3</ele>
        <time>2026-08-25T14:14:43Z</time>
      </trkpt>
      <trkpt lat="47.546" lon="-2.89013">
        <ele>5.3</ele>
        <time>2026-08-25T14:14:44Z</time>
      </trkpt>
      <trkpt lat="47.54602" lon="-2.89012">
        <ele>5.4</ele>
        <time>2026-08-25T14:14:45Z</time>
      </trkpt>
      <trkpt lat="47.54604" lon="-2.89011">
        <ele>5.4</ele>
        <time>2026-08-25T14:14:46Z</time>
      </trkpt>
      <trkpt lat="47.54605" lon="-2.89008">
        <ele>5.6</ele>
        <time>2026-08-25T14:14:47Z</time>
      </trkpt>
      <trkpt lat="47.54607" lon="-2.89004">
        <ele>5.7</ele>
        <time>2026-08-25T14:14:48Z</time>
      </trkpt>
      <trkpt lat="47.54608" lon="-2.89">
        <ele>5.9</ele>
        <time>2026-08-25T14:14:49Z</time>
      </trkpt>
      <trkpt lat="47.54609" lon="-2.88996">
        <ele>5.8</ele>
        <time>2026-08-25T14:14:50Z</time>
      </trkpt>
      <trkpt lat="47.5461" lon="-2.88992">
        <ele>5.7</ele>
        <time>2026-08-25T14:14:51Z</time>
      </trkpt>
      <trkpt lat="47.54611" lon="-2.88987">
        <ele>5.5</ele>
        <time>2026-08-25T14:14:52Z</time>
      </trkpt>
      <trkpt lat="47.54613" lon="-2.88983">
        <ele>5.4</ele>
        <time>2026-08-25T14:14:53Z</time>
      </trkpt>
      <trkpt lat="47.54615" lon="-2.88978">
        <ele>5.2</ele>
        <time>2026-08-25T14:14:54Z</time>
      </trkpt>
      <trkpt lat="47.54617" lon="-2.88974">
        <ele>5.1</ele>
        <time>2026-08-25T14:14:55Z</time>
      </trkpt>
      <trkpt lat="47.54621" lon="-2.88971">
        <ele>5</ele>
        <time>2026-08-25T14:14:56Z</time>
      </trkpt>
      <trkpt lat="47.54624" lon="-2.88968">
        <ele>5</ele>
        <time>2026-08-25T14:14:57Z</time>
      </trkpt>
      <trkpt lat="47.54628" lon="-2.88967">
        <ele>5</ele>
        <time>2026-08-25T14:14:58Z</time>
      </trkpt>
      <trkpt lat="47.54632" lon="-2.88965">
        <ele>5</ele>
        <time>2026-08-25T14:14:59Z</time>
      </trkpt>
      <trkpt lat="47.54635" lon="-2.88963">
        <ele>5</ele>
        <time>2026-08-25T14:15:00Z</time>
      </trkpt>
      <trkpt lat="47.54639" lon="-2.88961">
        <ele>5</ele>
        <time>2026-08-25T14:15:01Z</time>
      </trkpt>
      <trkpt lat="47.54643" lon="-2.88958">
        <ele>5</ele>
        <time>2026-08-25T14:15:02Z</time>
      </trkpt>
      <trkpt lat="47.54646" lon="-2.88954">
        <ele>5</ele>
        <time>2026-08-25T14:15:03Z</time>
      </trkpt>
      <trkpt lat="47.54648" lon="-2.88949">
        <ele>5</ele>
        <time>2026-08-25T14:15:04Z</time>
      </trkpt>
      <trkpt lat="47.54651" lon="-2.88945">
        <ele>5</ele>
        <time>2026-08-25T14:15:05Z</time>
      </trkpt>
      <trkpt lat="47.54654" lon="-2.88939">
        <ele>5</ele>
        <time>2026-08-25T14:15:06Z</time>
      </trkpt>
      <trkpt lat="47.54656" lon="-2.88934">
        <ele>5</ele>
        <time>2026-08-25T14:15:07Z</time>
      </trkpt>
      <trkpt lat="47.54659" lon="-2.88928">
        <ele>5</ele>
        <time>2026-08-25T14:15:08Z</time>
      </trkpt>
      <trkpt lat="47.54662" lon="-2.88923">
        <ele>5</ele>
        <time>2026-08-25T14:15:09Z</time>
      </trkpt>
      <trkpt lat="47.54665" lon="-2.88917">
        <ele>5</ele>
        <time>2026-08-25T14:15:10Z</time>
      </trkpt>
      <trkpt lat="47.54667" lon="-2.8891">
        <ele>5</ele>
        <time>2026-08-25T14:15:11Z</time>
      </trkpt>
      <trkpt lat="47.5467" lon="-2.88903">
        <ele>5.1</ele>
        <time>2026-08-25T14:15:12Z</time>
      </trkpt>
      <trkpt lat="47.54672" lon="-2.88896">
        <ele>5</ele>
        <time>2026-08-25T14:15:13Z</time>
      </trkpt>
      <trkpt lat="47.54673" lon="-2.88889">
        <ele>5</ele>
        <time>2026-08-25T14:15:14Z</time>
      </trkpt>
      <trkpt lat="47.54675" lon="-2.88883">
        <ele>5</ele>
        <time>2026-08-25T14:15:15Z</time>
      </trkpt>
      <trkpt lat="47.54677" lon="-2.88877">
        <ele>5</ele>
        <time>2026-08-25T14:15:16Z</time>
      </trkpt>
      <trkpt lat="47.54678" lon="-2.88871">
        <ele>5</ele>
        <time>2026-08-25T14:15:17Z</time>
      </trkpt>
      <trkpt lat="47.5468" lon="-2.88865">
        <ele>5</ele>
        <time>2026-08-25T14:15:18Z</time>
      </trkpt>
      <trkpt lat="47.54682" lon="-2.88858">
        <ele>5</ele>
        <time>2026-08-25T14:15:19Z</time>
      </trkpt>
      <trkpt lat="47.54684" lon="-2.88852">
        <ele>5</ele>
        <time>2026-08-25T14:15:20Z</time>
      </trkpt>
      <trkpt lat="47.54686" lon="-2.88847">
        <ele>5</ele>
        <time>2026-08-25T14:15:21Z</time>
      </trkpt>
      <trkpt lat="47.54688" lon="-2.88841">
        <ele>5</ele>
        <time>2026-08-25T14:15:22Z</time>
      </trkpt>
      <trkpt lat="47.54691" lon="-2.88834">
        <ele>5</ele>
        <time>2026-08-25T14:15:23Z</time>
      </trkpt>
      <trkpt lat="47.54693" lon="-2.88828">
        <ele>5</ele>
        <time>2026-08-25T14:15:24Z</time>
      </trkpt>
      <trkpt lat="47.54696" lon="-2.88822">
        <ele>5</ele>
        <time>2026-08-25T14:15:25Z</time>
      </trkpt>
      <trkpt lat="47.54699" lon="-2.88816">
        <ele>5</ele>
        <time>2026-08-25T14:15:26Z</time>
      </trkpt>
      <trkpt lat="47.54701" lon="-2.88811">
        <ele>5</ele>
        <time>2026-08-25T14:15:27Z</time>
      </trkpt>
      <trkpt lat="47.54705" lon="-2.88807">
        <ele>5</ele>
        <time>2026-08-25T14:15:28Z</time>
      </trkpt>
      <trkpt lat="47.54709" lon="-2.88804">
        <ele>5</ele>
        <time>2026-08-25T14:15:29Z</time>
      </trkpt>
      <trkpt lat="47.54713" lon="-2.88801">
        <ele>5</ele>
        <time>2026-08-25T14:15:30Z</time>
      </trkpt>
      <trkpt lat="47.54717" lon="-2.88799">
        <ele>5</ele>
        <time>2026-08-25T14:15:31Z</time>
      </trkpt>
      <trkpt lat="47.54721" lon="-2.88796">
        <ele>5</ele>
        <time>2026-08-25T14:15:32Z</time>
      </trkpt>
      <trkpt lat="47.54725" lon="-2.88794">
        <ele>4.9</ele>
        <time>2026-08-25T14:15:33Z</time>
      </trkpt>
      <trkpt lat="47.54729" lon="-2.88791">
        <ele>4.9</ele>
        <time>2026-08-25T14:15:34Z</time>
      </trkpt>
      <trkpt lat="47.54733" lon="-2.88788">
        <ele>4.9</ele>
        <time>2026-08-25T14:15:35Z</time>
      </trkpt>
      <trkpt lat="47.54736" lon="-2.88785">
        <ele>4.9</ele>
        <time>2026-08-25T14:15:36Z</time>
      </trkpt>
      <trkpt lat="47.5474" lon="-2.88782">
        <ele>4.9</ele>
        <time>2026-08-25T14:15:37Z</time>
      </trkpt>
      <trkpt lat="47.54744" lon="-2.88779">
        <ele>5</ele>
        <time>2026-08-25T14:15:38Z</time>
      </trkpt>
      <trkpt lat="47.54748" lon="-2.88776">
        <ele>5.1</ele>
        <time>2026-08-25T14:15:39Z</time>
      </trkpt>
      <trkpt lat="47.54752" lon="-2.88773">
        <ele>5.2</ele>
        <time>2026-08-25T14:15:40Z</time>
      </trkpt>
      <trkpt lat="47.54755" lon="-2.88771">
        <ele>5.2</ele>
        <time>2026-08-25T14:15:41Z</time>
      </trkpt>
      <trkpt lat="47.54759" lon="-2.88768">
        <ele>5.4</ele>
        <time>2026-08-25T14:15:42Z</time>
      </trkpt>
      <trkpt lat="47.54763" lon="-2.88765">
        <ele>5.5</ele>
        <time>2026-08-25T14:15:43Z</time>
      </trkpt>
      <trkpt lat="47.54766" lon="-2.88762">
        <ele>5.6</ele>
        <time>2026-08-25T14:15:44Z</time>
      </trkpt>
      <trkpt lat="47.5477" lon="-2.88759">
        <ele>5.7</ele>
        <time>2026-08-25T14:15:45Z</time>
      </trkpt>
      <trkpt lat="47.54774" lon="-2.88756">
        <ele>5.8</ele>
        <time>2026-08-25T14:15:46Z</time>
      </trkpt>
      <trkpt lat="47.54777" lon="-2.88753">
        <ele>5.9</ele>
        <time>2026-08-25T14:15:47Z</time>
      </trkpt>
      <trkpt lat="47.54781" lon="-2.8875">
        <ele>6</ele>
        <time>2026-08-25T14:15:48Z</time>
      </trkpt>
      <trkpt lat="47.54785" lon="-2.88748">
        <ele>6</ele>
        <time>2026-08-25T14:15:49Z</time>
      </trkpt>
      <trkpt lat="47.54789" lon="-2.88746">
        <ele>6</ele>
        <time>2026-08-25T14:15:50Z</time>
      </trkpt>
      <trkpt lat="47.54793" lon="-2.88744">
        <ele>6</ele>
        <time>2026-08-25T14:15:51Z</time>
      </trkpt>
      <trkpt lat="47.54797" lon="-2.88742">
        <ele>6</ele>
        <time>2026-08-25T14:15:52Z</time>
      </trkpt>
      <trkpt lat="47.54801" lon="-2.88739">
        <ele>6</ele>
        <time>2026-08-25T14:15:53Z</time>
      </trkpt>
      <trkpt lat="47.54804" lon="-2.88736">
        <ele>6</ele>
        <time>2026-08-25T14:15:54Z</time>
      </trkpt>
      <trkpt lat="47.54807" lon="-2.88733">
        <ele>6.1</ele>
        <time>2026-08-25T14:15:55Z</time>
      </trkpt>
      <trkpt lat="47.54811" lon="-2.8873">
        <ele>6.3</ele>
        <time>2026-08-25T14:15:56Z</time>
      </trkpt>
      <trkpt lat="47.54814" lon="-2.88728">
        <ele>6.5</ele>
        <time>2026-08-25T14:15:57Z</time>
      </trkpt>
      <trkpt lat="47.54817" lon="-2.88725">
        <ele>6.8</ele>
        <time>2026-08-25T14:15:58Z</time>
      </trkpt>
      <trkpt lat="47.54821" lon="-2.88722">
        <ele>7.1</ele>
        <time>2026-08-25T14:15:59Z</time>
      </trkpt>
      <trkpt lat="47.54824" lon="-2.8872">
        <ele>7.3</ele>
        <time>2026-08-25T14:16:00Z</time>
      </trkpt>
      <trkpt lat="47.54827" lon="-2.88716">
        <ele>7.4</ele>
        <time>2026-08-25T14:16:01Z</time>
      </trkpt>
      <trkpt lat="47.5483" lon="-2.88713">
        <ele>7.5</ele>
        <time>2026-08-25T14:16:02Z</time>
      </trkpt>
      <trkpt lat="47.54833" lon="-2.88709">
        <ele>7.5</ele>
        <time>2026-08-25T14:16:03Z</time>
      </trkpt>
      <trkpt lat="47.54836" lon="-2.88706">
        <ele>7.6</ele>
        <time>2026-08-25T14:16:04Z</time>
      </trkpt>
      <trkpt lat="47.54839" lon="-2.88704">
        <ele>7.7</ele>
        <time>2026-08-25T14:16:05Z</time>
      </trkpt>
      <trkpt lat="47.54842" lon="-2.88702">
        <ele>7.8</ele>
        <time>2026-08-25T14:16:06Z</time>
      </trkpt>
      <trkpt lat="47.54845" lon="-2.88701">
        <ele>8</ele>
        <time>2026-08-25T14:16:07Z</time>
      </trkpt>
      <trkpt lat="47.54849" lon="-2.887">
        <ele>8.2</ele>
        <time>2026-08-25T14:16:08Z</time>
      </trkpt>
      <trkpt lat="47.54852" lon="-2.88699">
        <ele>8.4</ele>
        <time>2026-08-25T14:16:09Z</time>
      </trkpt>
      <trkpt lat="47.54854" lon="-2.88697">
        <ele>8.5</ele>
        <time>2026-08-25T14:16:10Z</time>
      </trkpt>
      <trkpt lat="47.54857" lon="-2.88694">
        <ele>8.7</ele>
        <time>2026-08-25T14:16:11Z</time>
      </trkpt>
      <trkpt lat="47.5486" lon="-2.88692">
        <ele>9</ele>
        <time>2026-08-25T14:16:12Z</time>
      </trkpt>
      <trkpt lat="47.54863" lon="-2.88689">
        <ele>9.3</ele>
        <time>2026-08-25T14:16:13Z</time>
      </trkpt>
      <trkpt lat="47.54866" lon="-2.88687">
        <ele>9.6</ele>
        <time>2026-08-25T14:16:14Z</time>
      </trkpt>
      <trkpt lat="47.54869" lon="-2.88685">
        <ele>9.8</ele>
        <time>2026-08-25T14:16:15Z</time>
      </trkpt>
      <trkpt lat="47.54872" lon="-2.88682">
        <ele>10.1</ele>
        <time>2026-08-25T14:16:16Z</time>
      </trkpt>
      <trkpt lat="47.54875" lon="-2.8868">
        <ele>10.3</ele>
        <time>2026-08-25T14:16:17Z</time>
      </trkpt>
      <trkpt lat="47.54878" lon="-2.88677">
        <ele>10.5</ele>
        <time>2026-08-25T14:16:18Z</time>
      </trkpt>
      <trkpt lat="47.5488" lon="-2.88675">
        <ele>10.6</ele>
        <time>2026-08-25T14:16:19Z</time>
      </trkpt>
      <trkpt lat="47.54883" lon="-2.88672">
        <ele>10.7</ele>
        <time>2026-08-25T14:16:20Z</time>
      </trkpt>
      <trkpt lat="47.54886" lon="-2.8867">
        <ele>10.9</ele>
        <time>2026-08-25T14:16:21Z</time>
      </trkpt>
      <trkpt lat="47.54889" lon="-2.88667">
        <ele>11</ele>
        <time>2026-08-25T14:16:22Z</time>
      </trkpt>
      <trkpt lat="47.54891" lon="-2.88665">
        <ele>11.1</ele>
        <time>2026-08-25T14:16:23Z</time>
      </trkpt>
      <trkpt lat="47.54894" lon="-2.88662">
        <ele>11.2</ele>
        <time>2026-08-25T14:16:24Z</time>
      </trkpt>
      <trkpt lat="47.54897" lon="-2.88659">
        <ele>11.3</ele>
        <time>2026-08-25T14:16:25Z</time>
      </trkpt>
      <trkpt lat="47.54899" lon="-2.88657">
        <ele>11.4</ele>
        <time>2026-08-25T14:16:26Z</time>
      </trkpt>
      <trkpt lat="47.54902" lon="-2.88654">
        <ele>11.5</ele>
        <time>2026-08-25T14:16:27Z</time>
      </trkpt>
      <trkpt lat="47.54905" lon="-2.88652">
        <ele>11.6</ele>
        <time>2026-08-25T14:16:28Z</time>
      </trkpt>
      <trkpt lat="47.54908" lon="-2.88649">
        <ele>11.7</ele>
        <time>2026-08-25T14:16:29Z</time>
      </trkpt>
      <trkpt lat="47.54911" lon="-2.88647">
        <ele>11.8</ele>
        <time>2026-08-25T14:16:30Z</time>
      </trkpt>
      <trkpt lat="47.54913" lon="-2.88645">
        <ele>11.9</ele>
        <time>2026-08-25T14:16:31Z</time>
      </trkpt>
      <trkpt lat="47.54916" lon="-2.88642">
        <ele>12</ele>
        <time>2026-08-25T14:16:32Z</time>
      </trkpt>
      <trkpt lat="47.54919" lon="-2.8864">
        <ele>12.2</ele>
        <time>2026-08-25T14:16:33Z</time>
      </trkpt>
      <trkpt lat="47.54922" lon="-2.88637">
        <ele>12.4</ele>
        <time>2026-08-25T14:16:34Z</time>
      </trkpt>
      <trkpt lat="47.54924" lon="-2.88634">
        <ele>12.5</ele>
        <time>2026-08-25T14:16:35Z</time>
      </trkpt>
      <trkpt lat="47.54926" lon="-2.88632">
        <ele>12.6</ele>
        <time>2026-08-25T14:16:36Z</time>
      </trkpt>
      <trkpt lat="47.54929" lon="-2.88629">
        <ele>12.7</ele>
        <time>2026-08-25T14:16:37Z</time>
      </trkpt>
      <trkpt lat="47.54931" lon="-2.88627">
        <ele>12.8</ele>
        <time>2026-08-25T14:16:38Z</time>
      </trkpt>
      <trkpt lat="47.54934" lon="-2.88625">
        <ele>12.9</ele>
        <time>2026-08-25T14:16:39Z</time>
      </trkpt>
      <trkpt lat="47.54936" lon="-2.88622">
        <ele>13</ele>
        <time>2026-08-25T14:16:40Z</time>
      </trkpt>
      <trkpt lat="47.54938" lon="-2.8862">
        <ele>13</ele>
        <time>2026-08-25T14:16:41Z</time>
      </trkpt>
      <trkpt lat="47.54941" lon="-2.88617">
        <ele>13.1</ele>
        <time>2026-08-25T14:16:42Z</time>
      </trkpt>
      <trkpt lat="47.54943" lon="-2.88615">
        <ele>13.1</ele>
        <time>2026-08-25T14:16:43Z</time>
      </trkpt>
      <trkpt lat="47.54946" lon="-2.88612">
        <ele>13.1</ele>
        <time>2026-08-25T14:16:44Z</time>
      </trkpt>
      <trkpt lat="47.54949" lon="-2.8861">
        <ele>13.2</ele>
        <time>2026-08-25T14:16:45Z</time>
      </trkpt>
      <trkpt lat="47.54951" lon="-2.88607">
        <ele>13.2</ele>
        <time>2026-08-25T14:16:46Z</time>
      </trkpt>
      <trkpt lat="47.54954" lon="-2.88604">
        <ele>13.3</ele>
        <time>2026-08-25T14:16:47Z</time>
      </trkpt>
      <trkpt lat="47.54956" lon="-2.88602">
        <ele>13.4</ele>
        <time>2026-08-25T14:16:48Z</time>
      </trkpt>
      <trkpt lat="47.54958" lon="-2.88599">
        <ele>13.5</ele>
        <time>2026-08-25T14:16:49Z</time>
      </trkpt>
      <trkpt lat="47.5496" lon="-2.88596">
        <ele>13.6</ele>
        <time>2026-08-25T14:16:50Z</time>
      </trkpt>
      <trkpt lat="47.54961" lon="-2.88591">
        <ele>13.6</ele>
        <time>2026-08-25T14:16:51Z</time>
      </trkpt>
      <trkpt lat="47.54961" lon="-2.88587">
        <ele>13.6</ele>
        <time>2026-08-25T14:16:52Z</time>
      </trkpt>
      <trkpt lat="47.5496" lon="-2.88582">
        <ele>13.5</ele>
        <time>2026-08-25T14:16:53Z</time>
      </trkpt>
      <trkpt lat="47.54959" lon="-2.88576">
        <ele>13.3</ele>
        <time>2026-08-25T14:16:54Z</time>
      </trkpt>
      <trkpt lat="47.54958" lon="-2.88571">
        <ele>13</ele>
        <time>2026-08-25T14:16:55Z</time>
      </trkpt>
      <trkpt lat="47.54956" lon="-2.88565">
        <ele>12.8</ele>
        <time>2026-08-25T14:16:56Z</time>
      </trkpt>
      <trkpt lat="47.54955" lon="-2.88559">
        <ele>12.5</ele>
        <time>2026-08-25T14:16:57Z</time>
      </trkpt>
      <trkpt lat="47.54953" lon="-2.88553">
        <ele>12.3</ele>
        <time>2026-08-25T14:16:58Z</time>
      </trkpt>
      <trkpt lat="47.54952" lon="-2.88546">
        <ele>12.2</ele>
        <time>2026-08-25T14:16:59Z</time>
      </trkpt>
      <trkpt lat="47.54951" lon="-2.8854">
        <ele>12.1</ele>
        <time>2026-08-25T14:17:00Z</time>
      </trkpt>
      <trkpt lat="47.5495" lon="-2.88533">
        <ele>12</ele>
        <time>2026-08-25T14:17:01Z</time>
      </trkpt>
      <trkpt lat="47.54948" lon="-2.88527">
        <ele>12</ele>
        <time>2026-08-25T14:17:02Z</time>
      </trkpt>
      <trkpt lat="47.54947" lon="-2.8852">
        <ele>12</ele>
        <time>2026-08-25T14:17:03Z</time>
      </trkpt>
      <trkpt lat="47.54945" lon="-2.88513">
        <ele>12</ele>
        <time>2026-08-25T14:17:04Z</time>
      </trkpt>
      <trkpt lat="47.54944" lon="-2.88506">
        <ele>12</ele>
        <time>2026-08-25T14:17:05Z</time>
      </trkpt>
      <trkpt lat="47.54943" lon="-2.88499">
        <ele>11.9</ele>
        <time>2026-08-25T14:17:06Z</time>
      </trkpt>
      <trkpt lat="47.54941" lon="-2.88492">
        <ele>11.6</ele>
        <time>2026-08-25T14:17:07Z</time>
      </trkpt>
      <trkpt lat="47.5494" lon="-2.88485">
        <ele>11.4</ele>
        <time>2026-08-25T14:17:08Z</time>
      </trkpt>
      <trkpt lat="47.54938" lon="-2.88478">
        <ele>11.2</ele>
        <time>2026-08-25T14:17:09Z</time>
      </trkpt>
      <trkpt lat="47.54937" lon="-2.88471">
        <ele>11</ele>
        <time>2026-08-25T14:17:10Z</time>
      </trkpt>
      <trkpt lat="47.54936" lon="-2.88464">
        <ele>11</ele>
        <time>2026-08-25T14:17:11Z</time>
      </trkpt>
      <trkpt lat="47.54934" lon="-2.88457">
        <ele>11</ele>
        <time>2026-08-25T14:17:12Z</time>
      </trkpt>
      <trkpt lat="47.54932" lon="-2.8845">
        <ele>11</ele>
        <time>2026-08-25T14:17:13Z</time>
      </trkpt>
      <trkpt lat="47.54931" lon="-2.88443">
        <ele>11</ele>
        <time>2026-08-25T14:17:14Z</time>
      </trkpt>
      <trkpt lat="47.54929" lon="-2.88437">
        <ele>11</ele>
        <time>2026-08-25T14:17:15Z</time>
      </trkpt>
      <trkpt lat="47.54927" lon="-2.8843">
        <ele>11</ele>
        <time>2026-08-25T14:17:16Z</time>
      </trkpt>
      <trkpt lat="47.54925" lon="-2.88422">
        <ele>11</ele>
        <time>2026-08-25T14:17:17Z</time>
      </trkpt>
      <trkpt lat="47.54924" lon="-2.88415">
        <ele>11</ele>
        <time>2026-08-25T14:17:18Z</time>
      </trkpt>
      <trkpt lat="47.54923" lon="-2.88408">
        <ele>11.1</ele>
        <time>2026-08-25T14:17:19Z</time>
      </trkpt>
      <trkpt lat="47.54921" lon="-2.88401">
        <ele>11.1</ele>
        <time>2026-08-25T14:17:20Z</time>
      </trkpt>
      <trkpt lat="47.5492" lon="-2.88394">
        <ele>11.1</ele>
        <time>2026-08-25T14:17:21Z</time>
      </trkpt>
      <trkpt lat="47.54918" lon="-2.88388">
        <ele>11.1</ele>
        <time>2026-08-25T14:17:22Z</time>
      </trkpt>
      <trkpt lat="47.54917" lon="-2.88382">
        <ele>11.3</ele>
        <time>2026-08-25T14:17:23Z</time>
      </trkpt>
      <trkpt lat="47.54916" lon="-2.88376">
        <ele>11.4</ele>
        <time>2026-08-25T14:17:24Z</time>
      </trkpt>
      <trkpt lat="47.54914" lon="-2.88369">
        <ele>11.6</ele>
        <time>2026-08-25T14:17:25Z</time>
      </trkpt>
      <trkpt lat="47.54913" lon="-2.88363">
        <ele>11.8</ele>
        <time>2026-08-25T14:17:26Z</time>
      </trkpt>
      <trkpt lat="47.54911" lon="-2.88356">
        <ele>11.8</ele>
        <time>2026-08-25T14:17:27Z</time>
      </trkpt>
      <trkpt lat="47.5491" lon="-2.8835">
        <ele>11.8</ele>
        <time>2026-08-25T14:17:28Z</time>
      </trkpt>
      <trkpt lat="47.54909" lon="-2.88343">
        <ele>11.7</ele>
        <time>2026-08-25T14:17:29Z</time>
      </trkpt>
      <trkpt lat="47.54908" lon="-2.88337">
        <ele>11.7</ele>
        <time>2026-08-25T14:17:30Z</time>
      </trkpt>
      <trkpt lat="47.54907" lon="-2.88331">
        <ele>11.7</ele>
        <time>2026-08-25T14:17:31Z</time>
      </trkpt>
      <trkpt lat="47.54906" lon="-2.88325">
        <ele>11.9</ele>
        <time>2026-08-25T14:17:32Z</time>
      </trkpt>
      <trkpt lat="47.54905" lon="-2.88319">
        <ele>12.1</ele>
        <time>2026-08-25T14:17:33Z</time>
      </trkpt>
      <trkpt lat="47.54904" lon="-2.88312">
        <ele>12.3</ele>
        <time>2026-08-25T14:17:34Z</time>
      </trkpt>
      <trkpt lat="47.54902" lon="-2.88306">
        <ele>12.5</ele>
        <time>2026-08-25T14:17:35Z</time>
      </trkpt>
      <trkpt lat="47.54901" lon="-2.883">
        <ele>12.6</ele>
        <time>2026-08-25T14:17:36Z</time>
      </trkpt>
      <trkpt lat="47.549" lon="-2.88294">
        <ele>12.8</ele>
        <time>2026-08-25T14:17:37Z</time>
      </trkpt>
      <trkpt lat="47.54899" lon="-2.88289">
        <ele>13</ele>
        <time>2026-08-25T14:17:38Z</time>
      </trkpt>
      <trkpt lat="47.54897" lon="-2.88282">
        <ele>13.1</ele>
        <time>2026-08-25T14:17:39Z</time>
      </trkpt>
      <trkpt lat="47.54896" lon="-2.88276">
        <ele>13.3</ele>
        <time>2026-08-25T14:17:40Z</time>
      </trkpt>
      <trkpt lat="47.54895" lon="-2.8827">
        <ele>13.3</ele>
        <time>2026-08-25T14:17:41Z</time>
      </trkpt>
      <trkpt lat="47.54893" lon="-2.88264">
        <ele>13.2</ele>
        <time>2026-08-25T14:17:42Z</time>
      </trkpt>
      <trkpt lat="47.54892" lon="-2.88258">
        <ele>13.2</ele>
        <time>2026-08-25T14:17:43Z</time>
      </trkpt>
      <trkpt lat="47.5489" lon="-2.88251">
        <ele>13.1</ele>
        <time>2026-08-25T14:17:44Z</time>
      </trkpt>
      <trkpt lat="47.54889" lon="-2.88245">
        <ele>13.2</ele>
        <time>2026-08-25T14:17:45Z</time>
      </trkpt>
      <trkpt lat="47.54888" lon="-2.88239">
        <ele>13.4</ele>
        <time>2026-08-25T14:17:46Z</time>
      </trkpt>
      <trkpt lat="47.54887" lon="-2.88232">
        <ele>13.5</ele>
        <time>2026-08-25T14:17:47Z</time>
      </trkpt>
      <trkpt lat="47.54885" lon="-2.88226">
        <ele>13.6</ele>
        <time>2026-08-25T14:17:48Z</time>
      </trkpt>
      <trkpt lat="47.54884" lon="-2.8822">
        <ele>13.7</ele>
        <time>2026-08-25T14:17:49Z</time>
      </trkpt>
      <trkpt lat="47.54883" lon="-2.88214">
        <ele>13.6</ele>
        <time>2026-08-25T14:17:50Z</time>
      </trkpt>
      <trkpt lat="47.54882" lon="-2.88207">
        <ele>13.6</ele>
        <time>2026-08-25T14:17:51Z</time>
      </trkpt>
      <trkpt lat="47.5488" lon="-2.88201">
        <ele>13.6</ele>
        <time>2026-08-25T14:17:52Z</time>
      </trkpt>
      <trkpt lat="47.54879" lon="-2.88194">
        <ele>13.6</ele>
        <time>2026-08-25T14:17:53Z</time>
      </trkpt>
      <trkpt lat="47.54878" lon="-2.88188">
        <ele>13.6</ele>
        <time>2026-08-25T14:17:54Z</time>
      </trkpt>
      <trkpt lat="47.54876" lon="-2.88181">
        <ele>13.5</ele>
        <time>2026-08-25T14:17:55Z</time>
      </trkpt>
      <trkpt lat="47.54875" lon="-2.88175">
        <ele>13.5</ele>
        <time>2026-08-25T14:17:56Z</time>
      </trkpt>
      <trkpt lat="47.54873" lon="-2.88168">
        <ele>13.4</ele>
        <time>2026-08-25T14:17:57Z</time>
      </trkpt>
      <trkpt lat="47.54872" lon="-2.88161">
        <ele>13.4</ele>
        <time>2026-08-25T14:17:58Z</time>
      </trkpt>
      <trkpt lat="47.5487" lon="-2.88154">
        <ele>13.3</ele>
        <time>2026-08-25T14:17:59Z</time>
      </trkpt>
      <trkpt lat="47.54869" lon="-2.88147">
        <ele>13.3</ele>
        <time>2026-08-25T14:18:00Z</time>
      </trkpt>
      <trkpt lat="47.54867" lon="-2.88139">
        <ele>13.2</ele>
        <time>2026-08-25T14:18:01Z</time>
      </trkpt>
      <trkpt lat="47.54866" lon="-2.88132">
        <ele>12.9</ele>
        <time>2026-08-25T14:18:02Z</time>
      </trkpt>
      <trkpt lat="47.54864" lon="-2.88125">
        <ele>12.6</ele>
        <time>2026-08-25T14:18:03Z</time>
      </trkpt>
      <trkpt lat="47.54863" lon="-2.88118">
        <ele>12.3</ele>
        <time>2026-08-25T14:18:04Z</time>
      </trkpt>
      <trkpt lat="47.54861" lon="-2.8811">
        <ele>12</ele>
        <time>2026-08-25T14:18:05Z</time>
      </trkpt>
      <trkpt lat="47.5486" lon="-2.88102">
        <ele>12</ele>
        <time>2026-08-25T14:18:06Z</time>
      </trkpt>
      <trkpt lat="47.54858" lon="-2.88094">
        <ele>11.9</ele>
        <time>2026-08-25T14:18:07Z</time>
      </trkpt>
      <trkpt lat="47.54857" lon="-2.88086">
        <ele>11.9</ele>
        <time>2026-08-25T14:18:08Z</time>
      </trkpt>
      <trkpt lat="47.54856" lon="-2.88079">
        <ele>11.8</ele>
        <time>2026-08-25T14:18:09Z</time>
      </trkpt>
      <trkpt lat="47.54854" lon="-2.88071">
        <ele>11.7</ele>
        <time>2026-08-25T14:18:10Z</time>
      </trkpt>
      <trkpt lat="47.54853" lon="-2.88063">
        <ele>11.7</ele>
        <time>2026-08-25T14:18:11Z</time>
      </trkpt>
      <trkpt lat="47.54851" lon="-2.88055">
        <ele>11.6</ele>
        <time>2026-08-25T14:18:12Z</time>
      </trkpt>
      <trkpt lat="47.54849" lon="-2.88048">
        <ele>11.6</ele>
        <time>2026-08-25T14:18:13Z</time>
      </trkpt>
      <trkpt lat="47.54848" lon="-2.8804">
        <ele>11.5</ele>
        <time>2026-08-25T14:18:14Z</time>
      </trkpt>
      <trkpt lat="47.54845" lon="-2.88033">
        <ele>11.4</ele>
        <time>2026-08-25T14:18:15Z</time>
      </trkpt>
      <trkpt lat="47.54844" lon="-2.88025">
        <ele>11.5</ele>
        <time>2026-08-25T14:18:16Z</time>
      </trkpt>
      <trkpt lat="47.54842" lon="-2.88018">
        <ele>11.7</ele>
        <time>2026-08-25T14:18:17Z</time>
      </trkpt>
      <trkpt lat="47.5484" lon="-2.8801">
        <ele>11.9</ele>
        <time>2026-08-25T14:18:18Z</time>
      </trkpt>
      <trkpt lat="47.54839" lon="-2.88002">
        <ele>12.1</ele>
        <time>2026-08-25T14:18:19Z</time>
      </trkpt>
      <trkpt lat="47.54838" lon="-2.87995">
        <ele>12.2</ele>
        <time>2026-08-25T14:18:20Z</time>
      </trkpt>
      <trkpt lat="47.54837" lon="-2.87988">
        <ele>12.1</ele>
        <time>2026-08-25T14:18:21Z</time>
      </trkpt>
      <trkpt lat="47.54835" lon="-2.87981">
        <ele>12.1</ele>
        <time>2026-08-25T14:18:22Z</time>
      </trkpt>
      <trkpt lat="47.54834" lon="-2.87974">
        <ele>12</ele>
        <time>2026-08-25T14:18:23Z</time>
      </trkpt>
      <trkpt lat="47.54833" lon="-2.87966">
        <ele>12</ele>
        <time>2026-08-25T14:18:24Z</time>
      </trkpt>
      <trkpt lat="47.54831" lon="-2.87959">
        <ele>12</ele>
        <time>2026-08-25T14:18:25Z</time>
      </trkpt>
      <trkpt lat="47.54829" lon="-2.87952">
        <ele>12</ele>
        <time>2026-08-25T14:18:26Z</time>
      </trkpt>
      <trkpt lat="47.54828" lon="-2.87944">
        <ele>12</ele>
        <time>2026-08-25T14:18:27Z</time>
      </trkpt>
      <trkpt lat="47.54825" lon="-2.87937">
        <ele>12</ele>
        <time>2026-08-25T14:18:28Z</time>
      </trkpt>
      <trkpt lat="47.54824" lon="-2.87929">
        <ele>12</ele>
        <time>2026-08-25T14:18:29Z</time>
      </trkpt>
      <trkpt lat="47.54822" lon="-2.87922">
        <ele>12</ele>
        <time>2026-08-25T14:18:30Z</time>
      </trkpt>
      <trkpt lat="47.5482" lon="-2.87915">
        <ele>12</ele>
        <time>2026-08-25T14:18:31Z</time>
      </trkpt>
      <trkpt lat="47.54818" lon="-2.87907">
        <ele>12.2</ele>
        <time>2026-08-25T14:18:32Z</time>
      </trkpt>
      <trkpt lat="47.54816" lon="-2.879">
        <ele>12.2</ele>
        <time>2026-08-25T14:18:33Z</time>
      </trkpt>
      <trkpt lat="47.54813" lon="-2.87894">
        <ele>12.2</ele>
        <time>2026-08-25T14:18:34Z</time>
      </trkpt>
      <trkpt lat="47.54811" lon="-2.87887">
        <ele>12.2</ele>
        <time>2026-08-25T14:18:35Z</time>
      </trkpt>
      <trkpt lat="47.54808" lon="-2.8788">
        <ele>12.1</ele>
        <time>2026-08-25T14:18:36Z</time>
      </trkpt>
      <trkpt lat="47.54806" lon="-2.87874">
        <ele>12</ele>
        <time>2026-08-25T14:18:37Z</time>
      </trkpt>
      <trkpt lat="47.54803" lon="-2.87867">
        <ele>12</ele>
        <time>2026-08-25T14:18:38Z</time>
      </trkpt>
      <trkpt lat="47.548" lon="-2.87861">
        <ele>12</ele>
        <time>2026-08-25T14:18:39Z</time>
      </trkpt>
      <trkpt lat="47.54798" lon="-2.87855">
        <ele>12</ele>
        <time>2026-08-25T14:18:40Z</time>
      </trkpt>
      <trkpt lat="47.54795" lon="-2.87849">
        <ele>12</ele>
        <time>2026-08-25T14:18:41Z</time>
      </trkpt>
      <trkpt lat="47.54792" lon="-2.87843">
        <ele>12</ele>
        <time>2026-08-25T14:18:42Z</time>
      </trkpt>
      <trkpt lat="47.54789" lon="-2.87837">
        <ele>12</ele>
        <time>2026-08-25T14:18:43Z</time>
      </trkpt>
      <trkpt lat="47.54786" lon="-2.87832">
        <ele>12</ele>
        <time>2026-08-25T14:18:44Z</time>
      </trkpt>
      <trkpt lat="47.54783" lon="-2.87827">
        <ele>12</ele>
        <time>2026-08-25T14:18:45Z</time>
      </trkpt>
      <trkpt lat="47.5478" lon="-2.87822">
        <ele>12</ele>
        <time>2026-08-25T14:18:46Z</time>
      </trkpt>
      <trkpt lat="47.54778" lon="-2.87817">
        <ele>12</ele>
        <time>2026-08-25T14:18:47Z</time>
      </trkpt>
      <trkpt lat="47.54774" lon="-2.87811">
        <ele>12</ele>
        <time>2026-08-25T14:18:48Z</time>
      </trkpt>
      <trkpt lat="47.54771" lon="-2.87805">
        <ele>12</ele>
        <time>2026-08-25T14:18:49Z</time>
      </trkpt>
      <trkpt lat="47.54767" lon="-2.878">
        <ele>12</ele>
        <time>2026-08-25T14:18:50Z</time>
      </trkpt>
      <trkpt lat="47.54763" lon="-2.87795">
        <ele>12</ele>
        <time>2026-08-25T14:18:51Z</time>
      </trkpt>
      <trkpt lat="47.54759" lon="-2.8779">
        <ele>12</ele>
        <time>2026-08-25T14:18:52Z</time>
      </trkpt>
      <trkpt lat="47.54756" lon="-2.87785">
        <ele>12</ele>
        <time>2026-08-25T14:18:53Z</time>
      </trkpt>
      <trkpt lat="47.54752" lon="-2.87781">
        <ele>12</ele>
        <time>2026-08-25T14:18:54Z</time>
      </trkpt>
      <trkpt lat="47.54748" lon="-2.87776">
        <ele>12</ele>
        <time>2026-08-25T14:18:55Z</time>
      </trkpt>
      <trkpt lat="47.54745" lon="-2.87771">
        <ele>12</ele>
        <time>2026-08-25T14:18:56Z</time>
      </trkpt>
      <trkpt lat="47.54741" lon="-2.87767">
        <ele>12.1</ele>
        <time>2026-08-25T14:18:57Z</time>
      </trkpt>
      <trkpt lat="47.54737" lon="-2.87763">
        <ele>12.2</ele>
        <time>2026-08-25T14:18:58Z</time>
      </trkpt>
      <trkpt lat="47.54733" lon="-2.87759">
        <ele>12.4</ele>
        <time>2026-08-25T14:18:59Z</time>
      </trkpt>
      <trkpt lat="47.54729" lon="-2.87755">
        <ele>12.6</ele>
        <time>2026-08-25T14:19:00Z</time>
      </trkpt>
      <trkpt lat="47.54726" lon="-2.87751">
        <ele>12.8</ele>
        <time>2026-08-25T14:19:01Z</time>
      </trkpt>
      <trkpt lat="47.54722" lon="-2.87747">
        <ele>13</ele>
        <time>2026-08-25T14:19:02Z</time>
      </trkpt>
      <trkpt lat="47.54718" lon="-2.87743">
        <ele>13</ele>
        <time>2026-08-25T14:19:03Z</time>
      </trkpt>
      <trkpt lat="47.54714" lon="-2.8774">
        <ele>13</ele>
        <time>2026-08-25T14:19:04Z</time>
      </trkpt>
      <trkpt lat="47.5471" lon="-2.87736">
        <ele>13</ele>
        <time>2026-08-25T14:19:05Z</time>
      </trkpt>
      <trkpt lat="47.54706" lon="-2.87732">
        <ele>13</ele>
        <time>2026-08-25T14:19:06Z</time>
      </trkpt>
      <trkpt lat="47.54702" lon="-2.87729">
        <ele>13</ele>
        <time>2026-08-25T14:19:07Z</time>
      </trkpt>
      <trkpt lat="47.54698" lon="-2.87725">
        <ele>13</ele>
        <time>2026-08-25T14:19:08Z</time>
      </trkpt>
      <trkpt lat="47.54694" lon="-2.87722">
        <ele>13</ele>
        <time>2026-08-25T14:19:09Z</time>
      </trkpt>
      <trkpt lat="47.54689" lon="-2.87719">
        <ele>13.2</ele>
        <time>2026-08-25T14:19:10Z</time>
      </trkpt>
      <trkpt lat="47.54685" lon="-2.87716">
        <ele>13.3</ele>
        <time>2026-08-25T14:19:11Z</time>
      </trkpt>
      <trkpt lat="47.54681" lon="-2.87713">
        <ele>13.5</ele>
        <time>2026-08-25T14:19:12Z</time>
      </trkpt>
      <trkpt lat="47.54676" lon="-2.8771">
        <ele>13.7</ele>
        <time>2026-08-25T14:19:13Z</time>
      </trkpt>
      <trkpt lat="47.54672" lon="-2.87707">
        <ele>13.8</ele>
        <time>2026-08-25T14:19:14Z</time>
      </trkpt>
      <trkpt lat="47.54668" lon="-2.87704">
        <ele>14</ele>
        <time>2026-08-25T14:19:15Z</time>
      </trkpt>
      <trkpt lat="47.54663" lon="-2.87702">
        <ele>14</ele>
        <time>2026-08-25T14:19:16Z</time>
      </trkpt>
      <trkpt lat="47.54659" lon="-2.877">
        <ele>14</ele>
        <time>2026-08-25T14:19:17Z</time>
      </trkpt>
      <trkpt lat="47.54654" lon="-2.87698">
        <ele>14</ele>
        <time>2026-08-25T14:19:18Z</time>
      </trkpt>
      <trkpt lat="47.5465" lon="-2.87696">
        <ele>14</ele>
        <time>2026-08-25T14:19:19Z</time>
      </trkpt>
      <trkpt lat="47.54645" lon="-2.87694">
        <ele>14</ele>
        <time>2026-08-25T14:19:20Z</time>
      </trkpt>
      <trkpt lat="47.54641" lon="-2.87692">
        <ele>14</ele>
        <time>2026-08-25T14:19:21Z</time>
      </trkpt>
      <trkpt lat="47.54637" lon="-2.87691">
        <ele>14</ele>
        <time>2026-08-25T14:19:22Z</time>
      </trkpt>
      <trkpt lat="47.54632" lon="-2.8769">
        <ele>14</ele>
        <time>2026-08-25T14:19:23Z</time>
      </trkpt>
      <trkpt lat="47.54628" lon="-2.87688">
        <ele>14</ele>
        <time>2026-08-25T14:19:24Z</time>
      </trkpt>
      <trkpt lat="47.54624" lon="-2.87687">
        <ele>14</ele>
        <time>2026-08-25T14:19:25Z</time>
      </trkpt>
      <trkpt lat="47.5462" lon="-2.87685">
        <ele>14</ele>
        <time>2026-08-25T14:19:26Z</time>
      </trkpt>
      <trkpt lat="47.54616" lon="-2.87684">
        <ele>14</ele>
        <time>2026-08-25T14:19:27Z</time>
      </trkpt>
      <trkpt lat="47.54612" lon="-2.87682">
        <ele>14</ele>
        <time>2026-08-25T14:19:28Z</time>
      </trkpt>
      <trkpt lat="47.54608" lon="-2.87681">
        <ele>14.1</ele>
        <time>2026-08-25T14:19:29Z</time>
      </trkpt>
      <trkpt lat="47.54605" lon="-2.87679">
        <ele>14.2</ele>
        <time>2026-08-25T14:19:30Z</time>
      </trkpt>
      <trkpt lat="47.54602" lon="-2.87678">
        <ele>14.3</ele>
        <time>2026-08-25T14:19:31Z</time>
      </trkpt>
      <trkpt lat="47.54599" lon="-2.87676">
        <ele>14.4</ele>
        <time>2026-08-25T14:19:32Z</time>
      </trkpt>
      <trkpt lat="47.54597" lon="-2.87675">
        <ele>14.5</ele>
        <time>2026-08-25T14:19:33Z</time>
      </trkpt>
      <trkpt lat="47.54595" lon="-2.87674">
        <ele>14.6</ele>
        <time>2026-08-25T14:19:34Z</time>
      </trkpt>
      <trkpt lat="47.54592" lon="-2.87674">
        <ele>14.7</ele>
        <time>2026-08-25T14:19:35Z</time>
      </trkpt>
      <trkpt lat="47.5459" lon="-2.87674">
        <ele>14.8</ele>
        <time>2026-08-25T14:19:36Z</time>
      </trkpt>
      <trkpt lat="47.54587" lon="-2.87673">
        <ele>14.9</ele>
        <time>2026-08-25T14:19:37Z</time>
      </trkpt>
      <trkpt lat="47.54585" lon="-2.87672">
        <ele>14.9</ele>
        <time>2026-08-25T14:19:38Z</time>
      </trkpt>
      <trkpt lat="47.54582" lon="-2.87672">
        <ele>15</ele>
        <time>2026-08-25T14:19:39Z</time>
      </trkpt>
      <trkpt lat="47.54579" lon="-2.8767">
        <ele>15</ele>
        <time>2026-08-25T14:19:40Z</time>
      </trkpt>
      <trkpt lat="47.54575" lon="-2.87669">
        <ele>15</ele>
        <time>2026-08-25T14:19:41Z</time>
      </trkpt>
      <trkpt lat="47.54571" lon="-2.87668">
        <ele>15</ele>
        <time>2026-08-25T14:19:42Z</time>
      </trkpt>
      <trkpt lat="47.54568" lon="-2.87667">
        <ele>15</ele>
        <time>2026-08-25T14:19:43Z</time>
      </trkpt>
      <trkpt lat="47.54564" lon="-2.87666">
        <ele>15</ele>
        <time>2026-08-25T14:19:44Z</time>
      </trkpt>
      <trkpt lat="47.5456" lon="-2.87664">
        <ele>15</ele>
        <time>2026-08-25T14:19:45Z</time>
      </trkpt>
      <trkpt lat="47.54556" lon="-2.87663">
        <ele>15</ele>
        <time>2026-08-25T14:19:46Z</time>
      </trkpt>
      <trkpt lat="47.54552" lon="-2.87662">
        <ele>15</ele>
        <time>2026-08-25T14:19:47Z</time>
      </trkpt>
      <trkpt lat="47.54548" lon="-2.87661">
        <ele>15</ele>
        <time>2026-08-25T14:19:48Z</time>
      </trkpt>
      <trkpt lat="47.54544" lon="-2.8766">
        <ele>15</ele>
        <time>2026-08-25T14:19:49Z</time>
      </trkpt>
      <trkpt lat="47.5454" lon="-2.87659">
        <ele>15</ele>
        <time>2026-08-25T14:19:50Z</time>
      </trkpt>
      <trkpt lat="47.54536" lon="-2.87657">
        <ele>15</ele>
        <time>2026-08-25T14:19:51Z</time>
      </trkpt>
      <trkpt lat="47.54532" lon="-2.87656">
        <ele>15</ele>
        <time>2026-08-25T14:19:52Z</time>
      </trkpt>
      <trkpt lat="47.54527" lon="-2.87655">
        <ele>15</ele>
        <time>2026-08-25T14:19:53Z</time>
      </trkpt>
      <trkpt lat="47.54523" lon="-2.87653">
        <ele>15</ele>
        <time>2026-08-25T14:19:54Z</time>
      </trkpt>
      <trkpt lat="47.54519" lon="-2.87652">
        <ele>15</ele>
        <time>2026-08-25T14:19:55Z</time>
      </trkpt>
      <trkpt lat="47.54514" lon="-2.8765">
        <ele>15</ele>
        <time>2026-08-25T14:19:56Z</time>
      </trkpt>
      <trkpt lat="47.5451" lon="-2.87649">
        <ele>15</ele>
        <time>2026-08-25T14:19:57Z</time>
      </trkpt>
      <trkpt lat="47.54501" lon="-2.87645">
        <ele>15</ele>
        <time>2026-08-25T14:19:58Z</time>
      </trkpt>
      <trkpt lat="47.54501" lon="-2.87645">
        <ele>15</ele>
        <time>2026-08-25T14:19:59Z</time>
      </trkpt>
      <trkpt lat="47.54496" lon="-2.87644">
        <ele>14.9</ele>
        <time>2026-08-25T14:20:00Z</time>
      </trkpt>
      <trkpt lat="47.54492" lon="-2.87643">
        <ele>14.7</ele>
        <time>2026-08-25T14:20:01Z</time>
      </trkpt>
      <trkpt lat="47.54487" lon="-2.87641">
        <ele>14.5</ele>
        <time>2026-08-25T14:20:02Z</time>
      </trkpt>
      <trkpt lat="47.54482" lon="-2.87639">
        <ele>14.4</ele>
        <time>2026-08-25T14:20:03Z</time>
      </trkpt>
      <trkpt lat="47.54478" lon="-2.87637">
        <ele>14.2</ele>
        <time>2026-08-25T14:20:04Z</time>
      </trkpt>
      <trkpt lat="47.54473" lon="-2.87635">
        <ele>14</ele>
        <time>2026-08-25T14:20:05Z</time>
      </trkpt>
      <trkpt lat="47.54469" lon="-2.87633">
        <ele>14</ele>
        <time>2026-08-25T14:20:06Z</time>
      </trkpt>
      <trkpt lat="47.54464" lon="-2.8763">
        <ele>14</ele>
        <time>2026-08-25T14:20:07Z</time>
      </trkpt>
      <trkpt lat="47.5446" lon="-2.87628">
        <ele>14</ele>
        <time>2026-08-25T14:20:08Z</time>
      </trkpt>
      <trkpt lat="47.54455" lon="-2.87626">
        <ele>14</ele>
        <time>2026-08-25T14:20:09Z</time>
      </trkpt>
      <trkpt lat="47.54451" lon="-2.87623">
        <ele>14</ele>
        <time>2026-08-25T14:20:10Z</time>
      </trkpt>
      <trkpt lat="47.54446" lon="-2.87621">
        <ele>14</ele>
        <time>2026-08-25T14:20:11Z</time>
      </trkpt>
      <trkpt lat="47.54441" lon="-2.87618">
        <ele>14</ele>
        <time>2026-08-25T14:20:12Z</time>
      </trkpt>
      <trkpt lat="47.54437" lon="-2.87615">
        <ele>14</ele>
        <time>2026-08-25T14:20:13Z</time>
      </trkpt>
      <trkpt lat="47.54432" lon="-2.87611">
        <ele>14</ele>
        <time>2026-08-25T14:20:14Z</time>
      </trkpt>
      <trkpt lat="47.54428" lon="-2.87608">
        <ele>14</ele>
        <time>2026-08-25T14:20:15Z</time>
      </trkpt>
      <trkpt lat="47.54423" lon="-2.87604">
        <ele>14</ele>
        <time>2026-08-25T14:20:16Z</time>
      </trkpt>
      <trkpt lat="47.54419" lon="-2.87601">
        <ele>14</ele>
        <time>2026-08-25T14:20:17Z</time>
      </trkpt>
      <trkpt lat="47.54415" lon="-2.87597">
        <ele>14</ele>
        <time>2026-08-25T14:20:18Z</time>
      </trkpt>
      <trkpt lat="47.54411" lon="-2.87594">
        <ele>14</ele>
        <time>2026-08-25T14:20:19Z</time>
      </trkpt>
      <trkpt lat="47.54406" lon="-2.8759">
        <ele>14</ele>
        <time>2026-08-25T14:20:20Z</time>
      </trkpt>
      <trkpt lat="47.54402" lon="-2.87586">
        <ele>14</ele>
        <time>2026-08-25T14:20:21Z</time>
      </trkpt>
      <trkpt lat="47.54397" lon="-2.87581">
        <ele>14</ele>
        <time>2026-08-25T14:20:22Z</time>
      </trkpt>
      <trkpt lat="47.54393" lon="-2.87577">
        <ele>14</ele>
        <time>2026-08-25T14:20:23Z</time>
      </trkpt>
      <trkpt lat="47.54389" lon="-2.87572">
        <ele>14</ele>
        <time>2026-08-25T14:20:24Z</time>
      </trkpt>
      <trkpt lat="47.54384" lon="-2.87568">
        <ele>13.9</ele>
        <time>2026-08-25T14:20:25Z</time>
      </trkpt>
      <trkpt lat="47.5438" lon="-2.87564">
        <ele>13.8</ele>
        <time>2026-08-25T14:20:26Z</time>
      </trkpt>
      <trkpt lat="47.54377" lon="-2.87558">
        <ele>13.6</ele>
        <time>2026-08-25T14:20:27Z</time>
      </trkpt>
      <trkpt lat="47.54373" lon="-2.87553">
        <ele>13.4</ele>
        <time>2026-08-25T14:20:28Z</time>
      </trkpt>
      <trkpt lat="47.54369" lon="-2.87549">
        <ele>13.3</ele>
        <time>2026-08-25T14:20:29Z</time>
      </trkpt>
      <trkpt lat="47.54365" lon="-2.87543">
        <ele>13.1</ele>
        <time>2026-08-25T14:20:30Z</time>
      </trkpt>
      <trkpt lat="47.54361" lon="-2.87538">
        <ele>13</ele>
        <time>2026-08-25T14:20:31Z</time>
      </trkpt>
      <trkpt lat="47.54357" lon="-2.87533">
        <ele>13</ele>
        <time>2026-08-25T14:20:32Z</time>
      </trkpt>
      <trkpt lat="47.54353" lon="-2.87527">
        <ele>13</ele>
        <time>2026-08-25T14:20:33Z</time>
      </trkpt>
      <trkpt lat="47.5435" lon="-2.87522">
        <ele>12.9</ele>
        <time>2026-08-25T14:20:34Z</time>
      </trkpt>
      <trkpt lat="47.54347" lon="-2.87516">
        <ele>12.8</ele>
        <time>2026-08-25T14:20:35Z</time>
      </trkpt>
      <trkpt lat="47.54343" lon="-2.8751">
        <ele>12.6</ele>
        <time>2026-08-25T14:20:36Z</time>
      </trkpt>
      <trkpt lat="47.54339" lon="-2.87504">
        <ele>12.3</ele>
        <time>2026-08-25T14:20:37Z</time>
      </trkpt>
      <trkpt lat="47.54336" lon="-2.87497">
        <ele>12</ele>
        <time>2026-08-25T14:20:38Z</time>
      </trkpt>
      <trkpt lat="47.54333" lon="-2.87491">
        <ele>11.7</ele>
        <time>2026-08-25T14:20:39Z</time>
      </trkpt>
      <trkpt lat="47.5433" lon="-2.87484">
        <ele>11.5</ele>
        <time>2026-08-25T14:20:40Z</time>
      </trkpt>
      <trkpt lat="47.54327" lon="-2.87478">
        <ele>11.4</ele>
        <time>2026-08-25T14:20:41Z</time>
      </trkpt>
      <trkpt lat="47.54324" lon="-2.87471">
        <ele>11.3</ele>
        <time>2026-08-25T14:20:42Z</time>
      </trkpt>
      <trkpt lat="47.54321" lon="-2.87465">
        <ele>11.4</ele>
        <time>2026-08-25T14:20:43Z</time>
      </trkpt>
      <trkpt lat="47.54318" lon="-2.87458">
        <ele>11.6</ele>
        <time>2026-08-25T14:20:44Z</time>
      </trkpt>
      <trkpt lat="47.54316" lon="-2.8745">
        <ele>11.6</ele>
        <time>2026-08-25T14:20:45Z</time>
      </trkpt>
      <trkpt lat="47.54313" lon="-2.87443">
        <ele>11.7</ele>
        <time>2026-08-25T14:20:46Z</time>
      </trkpt>
      <trkpt lat="47.54311" lon="-2.87435">
        <ele>11.5</ele>
        <time>2026-08-25T14:20:47Z</time>
      </trkpt>
      <trkpt lat="47.54309" lon="-2.87428">
        <ele>11.4</ele>
        <time>2026-08-25T14:20:48Z</time>
      </trkpt>
      <trkpt lat="47.54307" lon="-2.8742">
        <ele>11.1</ele>
        <time>2026-08-25T14:20:49Z</time>
      </trkpt>
      <trkpt lat="47.54304" lon="-2.87413">
        <ele>11</ele>
        <time>2026-08-25T14:20:50Z</time>
      </trkpt>
      <trkpt lat="47.54303" lon="-2.87406">
        <ele>11</ele>
        <time>2026-08-25T14:20:51Z</time>
      </trkpt>
      <trkpt lat="47.54301" lon="-2.87399">
        <ele>11</ele>
        <time>2026-08-25T14:20:52Z</time>
      </trkpt>
      <trkpt lat="47.54299" lon="-2.87392">
        <ele>11</ele>
        <time>2026-08-25T14:20:53Z</time>
      </trkpt>
      <trkpt lat="47.54297" lon="-2.87384">
        <ele>11</ele>
        <time>2026-08-25T14:20:54Z</time>
      </trkpt>
      <trkpt lat="47.54295" lon="-2.87377">
        <ele>11</ele>
        <time>2026-08-25T14:20:55Z</time>
      </trkpt>
      <trkpt lat="47.54293" lon="-2.8737">
        <ele>11</ele>
        <time>2026-08-25T14:20:56Z</time>
      </trkpt>
      <trkpt lat="47.54292" lon="-2.87363">
        <ele>11</ele>
        <time>2026-08-25T14:20:57Z</time>
      </trkpt>
      <trkpt lat="47.5429" lon="-2.87355">
        <ele>11.1</ele>
        <time>2026-08-25T14:20:58Z</time>
      </trkpt>
      <trkpt lat="47.54289" lon="-2.87348">
        <ele>11.3</ele>
        <time>2026-08-25T14:20:59Z</time>
      </trkpt>
      <trkpt lat="47.54288" lon="-2.87341">
        <ele>11.5</ele>
        <time>2026-08-25T14:21:00Z</time>
      </trkpt>
      <trkpt lat="47.54287" lon="-2.87334">
        <ele>11.7</ele>
        <time>2026-08-25T14:21:01Z</time>
      </trkpt>
      <trkpt lat="47.54286" lon="-2.87327">
        <ele>11.9</ele>
        <time>2026-08-25T14:21:02Z</time>
      </trkpt>
      <trkpt lat="47.54285" lon="-2.8732">
        <ele>12.2</ele>
        <time>2026-08-25T14:21:03Z</time>
      </trkpt>
      <trkpt lat="47.54285" lon="-2.87314">
        <ele>12.4</ele>
        <time>2026-08-25T14:21:04Z</time>
      </trkpt>
      <trkpt lat="47.54284" lon="-2.87307">
        <ele>12.7</ele>
        <time>2026-08-25T14:21:05Z</time>
      </trkpt>
      <trkpt lat="47.54283" lon="-2.873">
        <ele>12.8</ele>
        <time>2026-08-25T14:21:06Z</time>
      </trkpt>
      <trkpt lat="47.54282" lon="-2.87293">
        <ele>12.9</ele>
        <time>2026-08-25T14:21:07Z</time>
      </trkpt>
      <trkpt lat="47.54282" lon="-2.87287">
        <ele>12.9</ele>
        <time>2026-08-25T14:21:08Z</time>
      </trkpt>
      <trkpt lat="47.54281" lon="-2.8728">
        <ele>13</ele>
        <time>2026-08-25T14:21:09Z</time>
      </trkpt>
      <trkpt lat="47.54281" lon="-2.87274">
        <ele>13.1</ele>
        <time>2026-08-25T14:21:10Z</time>
      </trkpt>
      <trkpt lat="47.54281" lon="-2.87267">
        <ele>13.3</ele>
        <time>2026-08-25T14:21:11Z</time>
      </trkpt>
      <trkpt lat="47.54281" lon="-2.8726">
        <ele>13.6</ele>
        <time>2026-08-25T14:21:12Z</time>
      </trkpt>
      <trkpt lat="47.5428" lon="-2.87253">
        <ele>13.8</ele>
        <time>2026-08-25T14:21:13Z</time>
      </trkpt>
      <trkpt lat="47.54281" lon="-2.87247">
        <ele>13.9</ele>
        <time>2026-08-25T14:21:14Z</time>
      </trkpt>
      <trkpt lat="47.54281" lon="-2.8724">
        <ele>13.9</ele>
        <time>2026-08-25T14:21:15Z</time>
      </trkpt>
      <trkpt lat="47.54281" lon="-2.87233">
        <ele>14</ele>
        <time>2026-08-25T14:21:16Z</time>
      </trkpt>
      <trkpt lat="47.54281" lon="-2.87227">
        <ele>14</ele>
        <time>2026-08-25T14:21:17Z</time>
      </trkpt>
      <trkpt lat="47.54281" lon="-2.8722">
        <ele>14.1</ele>
        <time>2026-08-25T14:21:18Z</time>
      </trkpt>
      <trkpt lat="47.54281" lon="-2.87214">
        <ele>14.3</ele>
        <time>2026-08-25T14:21:19Z</time>
      </trkpt>
      <trkpt lat="47.54281" lon="-2.87207">
        <ele>14.5</ele>
        <time>2026-08-25T14:21:20Z</time>
      </trkpt>
      <trkpt lat="47.54281" lon="-2.87201">
        <ele>14.8</ele>
        <time>2026-08-25T14:21:21Z</time>
      </trkpt>
      <trkpt lat="47.54281" lon="-2.87194">
        <ele>15</ele>
        <time>2026-08-25T14:21:22Z</time>
      </trkpt>
      <trkpt lat="47.54281" lon="-2.87188">
        <ele>15</ele>
        <time>2026-08-25T14:21:23Z</time>
      </trkpt>
      <trkpt lat="47.54281" lon="-2.87182">
        <ele>15</ele>
        <time>2026-08-25T14:21:24Z</time>
      </trkpt>
      <trkpt lat="47.54281" lon="-2.87176">
        <ele>15</ele>
        <time>2026-08-25T14:21:25Z</time>
      </trkpt>
      <trkpt lat="47.54281" lon="-2.8717">
        <ele>15</ele>
        <time>2026-08-25T14:21:26Z</time>
      </trkpt>
      <trkpt lat="47.54281" lon="-2.87163">
        <ele>15</ele>
        <time>2026-08-25T14:21:27Z</time>
      </trkpt>
      <trkpt lat="47.54281" lon="-2.87157">
        <ele>15</ele>
        <time>2026-08-25T14:21:28Z</time>
      </trkpt>
      <trkpt lat="47.5428" lon="-2.8715">
        <ele>15</ele>
        <time>2026-08-25T14:21:29Z</time>
      </trkpt>
      <trkpt lat="47.5428" lon="-2.87144">
        <ele>15</ele>
        <time>2026-08-25T14:21:30Z</time>
      </trkpt>
      <trkpt lat="47.5428" lon="-2.87137">
        <ele>15</ele>
        <time>2026-08-25T14:21:31Z</time>
      </trkpt>
      <trkpt lat="47.5428" lon="-2.8713">
        <ele>15</ele>
        <time>2026-08-25T14:21:32Z</time>
      </trkpt>
      <trkpt lat="47.5428" lon="-2.87124">
        <ele>15</ele>
        <time>2026-08-25T14:21:33Z</time>
      </trkpt>
      <trkpt lat="47.5428" lon="-2.87117">
        <ele>15</ele>
        <time>2026-08-25T14:21:34Z</time>
      </trkpt>
      <trkpt lat="47.5428" lon="-2.8711">
        <ele>15</ele>
        <time>2026-08-25T14:21:35Z</time>
      </trkpt>
      <trkpt lat="47.5428" lon="-2.87103">
        <ele>15</ele>
        <time>2026-08-25T14:21:36Z</time>
      </trkpt>
      <trkpt lat="47.5428" lon="-2.87096">
        <ele>15</ele>
        <time>2026-08-25T14:21:37Z</time>
      </trkpt>
      <trkpt lat="47.5428" lon="-2.87089">
        <ele>15</ele>
        <time>2026-08-25T14:21:38Z</time>
      </trkpt>
      <trkpt lat="47.5428" lon="-2.87082">
        <ele>15</ele>
        <time>2026-08-25T14:21:39Z</time>
      </trkpt>
      <trkpt lat="47.5428" lon="-2.87075">
        <ele>15</ele>
        <time>2026-08-25T14:21:40Z</time>
      </trkpt>
      <trkpt lat="47.5428" lon="-2.87069">
        <ele>15</ele>
        <time>2026-08-25T14:21:41Z</time>
      </trkpt>
      <trkpt lat="47.5428" lon="-2.87062">
        <ele>15</ele>
        <time>2026-08-25T14:21:42Z</time>
      </trkpt>
      <trkpt lat="47.5428" lon="-2.87055">
        <ele>15</ele>
        <time>2026-08-25T14:21:43Z</time>
      </trkpt>
      <trkpt lat="47.5428" lon="-2.87048">
        <ele>15</ele>
        <time>2026-08-25T14:21:44Z</time>
      </trkpt>
      <trkpt lat="47.54279" lon="-2.87042">
        <ele>15</ele>
        <time>2026-08-25T14:21:45Z</time>
      </trkpt>
      <trkpt lat="47.54279" lon="-2.87035">
        <ele>15</ele>
        <time>2026-08-25T14:21:46Z</time>
      </trkpt>
      <trkpt lat="47.54279" lon="-2.87029">
        <ele>15</ele>
        <time>2026-08-25T14:21:47Z</time>
      </trkpt>
      <trkpt lat="47.54279" lon="-2.87022">
        <ele>15</ele>
        <time>2026-08-25T14:21:48Z</time>
      </trkpt>
      <trkpt lat="47.54279" lon="-2.87015">
        <ele>15</ele>
        <time>2026-08-25T14:21:49Z</time>
      </trkpt>
      <trkpt lat="47.54279" lon="-2.87009">
        <ele>15</ele>
        <time>2026-08-25T14:21:50Z</time>
      </trkpt>
      <trkpt lat="47.54279" lon="-2.87002">
        <ele>15</ele>
        <time>2026-08-25T14:21:51Z</time>
      </trkpt>
      <trkpt lat="47.54279" lon="-2.86995">
        <ele>15</ele>
        <time>2026-08-25T14:21:52Z</time>
      </trkpt>
      <trkpt lat="47.54278" lon="-2.86989">
        <ele>15</ele>
        <time>2026-08-25T14:21:53Z</time>
      </trkpt>
      <trkpt lat="47.54278" lon="-2.86982">
        <ele>15</ele>
        <time>2026-08-25T14:21:54Z</time>
      </trkpt>
      <trkpt lat="47.54278" lon="-2.86975">
        <ele>15</ele>
        <time>2026-08-25T14:21:55Z</time>
      </trkpt>
      <trkpt lat="47.54278" lon="-2.86967">
        <ele>15</ele>
        <time>2026-08-25T14:21:56Z</time>
      </trkpt>
      <trkpt lat="47.54278" lon="-2.8696">
        <ele>15</ele>
        <time>2026-08-25T14:21:57Z</time>
      </trkpt>
      <trkpt lat="47.54278" lon="-2.86953">
        <ele>15</ele>
        <time>2026-08-25T14:21:58Z</time>
      </trkpt>
      <trkpt lat="47.54278" lon="-2.86946">
        <ele>15</ele>
        <time>2026-08-25T14:21:59Z</time>
      </trkpt>
      <trkpt lat="47.54278" lon="-2.86939">
        <ele>15</ele>
        <time>2026-08-25T14:22:00Z</time>
      </trkpt>
      <trkpt lat="47.54278" lon="-2.86932">
        <ele>15</ele>
        <time>2026-08-25T14:22:01Z</time>
      </trkpt>
      <trkpt lat="47.54279" lon="-2.86924">
        <ele>15</ele>
        <time>2026-08-25T14:22:02Z</time>
      </trkpt>
      <trkpt lat="47.54279" lon="-2.86918">
        <ele>15</ele>
        <time>2026-08-25T14:22:03Z</time>
      </trkpt>
      <trkpt lat="47.54279" lon="-2.86911">
        <ele>14.8</ele>
        <time>2026-08-25T14:22:04Z</time>
      </trkpt>
      <trkpt lat="47.54279" lon="-2.86904">
        <ele>14.6</ele>
        <time>2026-08-25T14:22:05Z</time>
      </trkpt>
      <trkpt lat="47.54279" lon="-2.86897">
        <ele>14.3</ele>
        <time>2026-08-25T14:22:06Z</time>
      </trkpt>
      <trkpt lat="47.54279" lon="-2.86891">
        <ele>14.1</ele>
        <time>2026-08-25T14:22:07Z</time>
      </trkpt>
      <trkpt lat="47.54279" lon="-2.86884">
        <ele>14</ele>
        <time>2026-08-25T14:22:08Z</time>
      </trkpt>
      <trkpt lat="47.54279" lon="-2.86878">
        <ele>14</ele>
        <time>2026-08-25T14:22:09Z</time>
      </trkpt>
      <trkpt lat="47.54279" lon="-2.86872">
        <ele>14</ele>
        <time>2026-08-25T14:22:10Z</time>
      </trkpt>
      <trkpt lat="47.54279" lon="-2.86866">
        <ele>14</ele>
        <time>2026-08-25T14:22:11Z</time>
      </trkpt>
      <trkpt lat="47.54279" lon="-2.86859">
        <ele>14</ele>
        <time>2026-08-25T14:22:12Z</time>
      </trkpt>
      <trkpt lat="47.54279" lon="-2.86853">
        <ele>13.8</ele>
        <time>2026-08-25T14:22:13Z</time>
      </trkpt>
      <trkpt lat="47.54278" lon="-2.86847">
        <ele>13.5</ele>
        <time>2026-08-25T14:22:14Z</time>
      </trkpt>
      <trkpt lat="47.54278" lon="-2.86841">
        <ele>13.3</ele>
        <time>2026-08-25T14:22:15Z</time>
      </trkpt>
      <trkpt lat="47.54278" lon="-2.86837">
        <ele>13.1</ele>
        <time>2026-08-25T14:22:16Z</time>
      </trkpt>
      <trkpt lat="47.54278" lon="-2.86832">
        <ele>13</ele>
        <time>2026-08-25T14:22:17Z</time>
      </trkpt>
      <trkpt lat="47.54278" lon="-2.86829">
        <ele>13</ele>
        <time>2026-08-25T14:22:18Z</time>
      </trkpt>
      <trkpt lat="47.54277" lon="-2.86826">
        <ele>13</ele>
        <time>2026-08-25T14:22:19Z</time>
      </trkpt>
      <trkpt lat="47.54277" lon="-2.86822">
        <ele>13</ele>
        <time>2026-08-25T14:22:20Z</time>
      </trkpt>
      <trkpt lat="47.54278" lon="-2.86819">
        <ele>13</ele>
        <time>2026-08-25T14:22:21Z</time>
      </trkpt>
      <trkpt lat="47.54279" lon="-2.86814">
        <ele>13</ele>
        <time>2026-08-25T14:22:22Z</time>
      </trkpt>
      <trkpt lat="47.5428" lon="-2.86808">
        <ele>13.1</ele>
        <time>2026-08-25T14:22:23Z</time>
      </trkpt>
      <trkpt lat="47.5428" lon="-2.86802">
        <ele>13.1</ele>
        <time>2026-08-25T14:22:24Z</time>
      </trkpt>
      <trkpt lat="47.5428" lon="-2.86796">
        <ele>13.1</ele>
        <time>2026-08-25T14:22:25Z</time>
      </trkpt>
      <trkpt lat="47.54279" lon="-2.86789">
        <ele>13</ele>
        <time>2026-08-25T14:22:26Z</time>
      </trkpt>
      <trkpt lat="47.54279" lon="-2.86783">
        <ele>13</ele>
        <time>2026-08-25T14:22:27Z</time>
      </trkpt>
      <trkpt lat="47.54279" lon="-2.86776">
        <ele>13</ele>
        <time>2026-08-25T14:22:28Z</time>
      </trkpt>
      <trkpt lat="47.54279" lon="-2.86769">
        <ele>12.7</ele>
        <time>2026-08-25T14:22:29Z</time>
      </trkpt>
      <trkpt lat="47.54278" lon="-2.86762">
        <ele>12.4</ele>
        <time>2026-08-25T14:22:30Z</time>
      </trkpt>
      <trkpt lat="47.54277" lon="-2.86754">
        <ele>12.1</ele>
        <time>2026-08-25T14:22:31Z</time>
      </trkpt>
      <trkpt lat="47.54276" lon="-2.86747">
        <ele>12</ele>
        <time>2026-08-25T14:22:32Z</time>
      </trkpt>
      <trkpt lat="47.54275" lon="-2.86739">
        <ele>12</ele>
        <time>2026-08-25T14:22:33Z</time>
      </trkpt>
      <trkpt lat="47.54274" lon="-2.86731">
        <ele>12</ele>
        <time>2026-08-25T14:22:34Z</time>
      </trkpt>
      <trkpt lat="47.54272" lon="-2.86723">
        <ele>12</ele>
        <time>2026-08-25T14:22:35Z</time>
      </trkpt>
      <trkpt lat="47.54271" lon="-2.86714">
        <ele>12</ele>
        <time>2026-08-25T14:22:36Z</time>
      </trkpt>
      <trkpt lat="47.54269" lon="-2.86706">
        <ele>12</ele>
        <time>2026-08-25T14:22:37Z</time>
      </trkpt>
      <trkpt lat="47.54268" lon="-2.86698">
        <ele>12</ele>
        <time>2026-08-25T14:22:38Z</time>
      </trkpt>
      <trkpt lat="47.54266" lon="-2.8669">
        <ele>12</ele>
        <time>2026-08-25T14:22:39Z</time>
      </trkpt>
      <trkpt lat="47.54264" lon="-2.86681">
        <ele>12</ele>
        <time>2026-08-25T14:22:40Z</time>
      </trkpt>
      <trkpt lat="47.54262" lon="-2.86673">
        <ele>12</ele>
        <time>2026-08-25T14:22:41Z</time>
      </trkpt>
      <trkpt lat="47.5426" lon="-2.86665">
        <ele>12</ele>
        <time>2026-08-25T14:22:42Z</time>
      </trkpt>
      <trkpt lat="47.54257" lon="-2.86657">
        <ele>11.7</ele>
        <time>2026-08-25T14:22:43Z</time>
      </trkpt>
      <trkpt lat="47.54254" lon="-2.8665">
        <ele>11.5</ele>
        <time>2026-08-25T14:22:44Z</time>
      </trkpt>
      <trkpt lat="47.54252" lon="-2.86642">
        <ele>11.2</ele>
        <time>2026-08-25T14:22:45Z</time>
      </trkpt>
      <trkpt lat="47.54249" lon="-2.86635">
        <ele>10.9</ele>
        <time>2026-08-25T14:22:46Z</time>
      </trkpt>
      <trkpt lat="47.54246" lon="-2.86627">
        <ele>10.9</ele>
        <time>2026-08-25T14:22:47Z</time>
      </trkpt>
      <trkpt lat="47.54243" lon="-2.8662">
        <ele>11</ele>
        <time>2026-08-25T14:22:48Z</time>
      </trkpt>
      <trkpt lat="47.5424" lon="-2.86613">
        <ele>11.1</ele>
        <time>2026-08-25T14:22:49Z</time>
      </trkpt>
      <trkpt lat="47.54237" lon="-2.86606">
        <ele>11.2</ele>
        <time>2026-08-25T14:22:50Z</time>
      </trkpt>
      <trkpt lat="47.54234" lon="-2.86599">
        <ele>11.3</ele>
        <time>2026-08-25T14:22:51Z</time>
      </trkpt>
      <trkpt lat="47.54231" lon="-2.86592">
        <ele>11.4</ele>
        <time>2026-08-25T14:22:52Z</time>
      </trkpt>
      <trkpt lat="47.54227" lon="-2.86585">
        <ele>11.5</ele>
        <time>2026-08-25T14:22:53Z</time>
      </trkpt>
      <trkpt lat="47.54224" lon="-2.86578">
        <ele>11.3</ele>
        <time>2026-08-25T14:22:54Z</time>
      </trkpt>
      <trkpt lat="47.54219" lon="-2.86571">
        <ele>11</ele>
        <time>2026-08-25T14:22:55Z</time>
      </trkpt>
      <trkpt lat="47.54215" lon="-2.86564">
        <ele>10.7</ele>
        <time>2026-08-25T14:22:56Z</time>
      </trkpt>
      <trkpt lat="47.54211" lon="-2.86557">
        <ele>10.4</ele>
        <time>2026-08-25T14:22:57Z</time>
      </trkpt>
      <trkpt lat="47.54208" lon="-2.86551">
        <ele>10.2</ele>
        <time>2026-08-25T14:22:58Z</time>
      </trkpt>
      <trkpt lat="47.54204" lon="-2.86545">
        <ele>10.1</ele>
        <time>2026-08-25T14:22:59Z</time>
      </trkpt>
      <trkpt lat="47.542" lon="-2.8654">
        <ele>9.9</ele>
        <time>2026-08-25T14:23:00Z</time>
      </trkpt>
      <trkpt lat="47.54196" lon="-2.86535">
        <ele>9.7</ele>
        <time>2026-08-25T14:23:01Z</time>
      </trkpt>
      <trkpt lat="47.54191" lon="-2.86529">
        <ele>9.3</ele>
        <time>2026-08-25T14:23:02Z</time>
      </trkpt>
      <trkpt lat="47.54186" lon="-2.86523">
        <ele>9</ele>
        <time>2026-08-25T14:23:03Z</time>
      </trkpt>
      <trkpt lat="47.54181" lon="-2.86516">
        <ele>8.8</ele>
        <time>2026-08-25T14:23:04Z</time>
      </trkpt>
      <trkpt lat="47.54176" lon="-2.8651">
        <ele>8.8</ele>
        <time>2026-08-25T14:23:05Z</time>
      </trkpt>
      <trkpt lat="47.54171" lon="-2.86504">
        <ele>8.9</ele>
        <time>2026-08-25T14:23:06Z</time>
      </trkpt>
      <trkpt lat="47.54167" lon="-2.86499">
        <ele>8.9</ele>
        <time>2026-08-25T14:23:07Z</time>
      </trkpt>
      <trkpt lat="47.54162" lon="-2.86493">
        <ele>8.7</ele>
        <time>2026-08-25T14:23:08Z</time>
      </trkpt>
      <trkpt lat="47.54156" lon="-2.86488">
        <ele>8.7</ele>
        <time>2026-08-25T14:23:09Z</time>
      </trkpt>
      <trkpt lat="47.54151" lon="-2.86483">
        <ele>8.7</ele>
        <time>2026-08-25T14:23:10Z</time>
      </trkpt>
      <trkpt lat="47.54146" lon="-2.86478">
        <ele>8.7</ele>
        <time>2026-08-25T14:23:11Z</time>
      </trkpt>
      <trkpt lat="47.5414" lon="-2.86474">
        <ele>9</ele>
        <time>2026-08-25T14:23:12Z</time>
      </trkpt>
      <trkpt lat="47.54135" lon="-2.86469">
        <ele>9</ele>
        <time>2026-08-25T14:23:13Z</time>
      </trkpt>
      <trkpt lat="47.5413" lon="-2.86464">
        <ele>9</ele>
        <time>2026-08-25T14:23:14Z</time>
      </trkpt>
      <trkpt lat="47.54125" lon="-2.8646">
        <ele>9.1</ele>
        <time>2026-08-25T14:23:15Z</time>
      </trkpt>
      <trkpt lat="47.5412" lon="-2.86456">
        <ele>9.1</ele>
        <time>2026-08-25T14:23:16Z</time>
      </trkpt>
      <trkpt lat="47.54115" lon="-2.86452">
        <ele>9.1</ele>
        <time>2026-08-25T14:23:17Z</time>
      </trkpt>
      <trkpt lat="47.5411" lon="-2.86448">
        <ele>9.2</ele>
        <time>2026-08-25T14:23:18Z</time>
      </trkpt>
      <trkpt lat="47.54105" lon="-2.86445">
        <ele>9.2</ele>
        <time>2026-08-25T14:23:19Z</time>
      </trkpt>
      <trkpt lat="47.541" lon="-2.86441">
        <ele>9.4</ele>
        <time>2026-08-25T14:23:20Z</time>
      </trkpt>
      <trkpt lat="47.54095" lon="-2.86438">
        <ele>9.6</ele>
        <time>2026-08-25T14:23:21Z</time>
      </trkpt>
      <trkpt lat="47.54091" lon="-2.86434">
        <ele>9.7</ele>
        <time>2026-08-25T14:23:22Z</time>
      </trkpt>
      <trkpt lat="47.54086" lon="-2.86431">
        <ele>9.9</ele>
        <time>2026-08-25T14:23:23Z</time>
      </trkpt>
      <trkpt lat="47.54081" lon="-2.86427">
        <ele>10</ele>
        <time>2026-08-25T14:23:24Z</time>
      </trkpt>
      <trkpt lat="47.54077" lon="-2.86424">
        <ele>10.1</ele>
        <time>2026-08-25T14:23:25Z</time>
      </trkpt>
      <trkpt lat="47.54072" lon="-2.86421">
        <ele>10.1</ele>
        <time>2026-08-25T14:23:26Z</time>
      </trkpt>
      <trkpt lat="47.54067" lon="-2.86418">
        <ele>10</ele>
        <time>2026-08-25T14:23:27Z</time>
      </trkpt>
      <trkpt lat="47.54062" lon="-2.86415">
        <ele>9.9</ele>
        <time>2026-08-25T14:23:28Z</time>
      </trkpt>
      <trkpt lat="47.54058" lon="-2.86412">
        <ele>9.8</ele>
        <time>2026-08-25T14:23:29Z</time>
      </trkpt>
      <trkpt lat="47.54053" lon="-2.86408">
        <ele>9.7</ele>
        <time>2026-08-25T14:23:30Z</time>
      </trkpt>
      <trkpt lat="47.54049" lon="-2.86404">
        <ele>9.5</ele>
        <time>2026-08-25T14:23:31Z</time>
      </trkpt>
      <trkpt lat="47.54045" lon="-2.864">
        <ele>9.4</ele>
        <time>2026-08-25T14:23:32Z</time>
      </trkpt>
      <trkpt lat="47.54039" lon="-2.86396">
        <ele>9.3</ele>
        <time>2026-08-25T14:23:33Z</time>
      </trkpt>
      <trkpt lat="47.54034" lon="-2.86391">
        <ele>9.1</ele>
        <time>2026-08-25T14:23:34Z</time>
      </trkpt>
      <trkpt lat="47.5403" lon="-2.86386">
        <ele>8.9</ele>
        <time>2026-08-25T14:23:35Z</time>
      </trkpt>
      <trkpt lat="47.54025" lon="-2.86381">
        <ele>8.7</ele>
        <time>2026-08-25T14:23:36Z</time>
      </trkpt>
      <trkpt lat="47.5402" lon="-2.86376">
        <ele>8.5</ele>
        <time>2026-08-25T14:23:37Z</time>
      </trkpt>
      <trkpt lat="47.54015" lon="-2.86371">
        <ele>8.4</ele>
        <time>2026-08-25T14:23:38Z</time>
      </trkpt>
      <trkpt lat="47.54011" lon="-2.86365">
        <ele>8.1</ele>
        <time>2026-08-25T14:23:39Z</time>
      </trkpt>
      <trkpt lat="47.54006" lon="-2.8636">
        <ele>8</ele>
        <time>2026-08-25T14:23:40Z</time>
      </trkpt>
      <trkpt lat="47.54" lon="-2.86354">
        <ele>7.7</ele>
        <time>2026-08-25T14:23:41Z</time>
      </trkpt>
      <trkpt lat="47.53996" lon="-2.86348">
        <ele>7.5</ele>
        <time>2026-08-25T14:23:42Z</time>
      </trkpt>
      <trkpt lat="47.53991" lon="-2.86342">
        <ele>7.3</ele>
        <time>2026-08-25T14:23:43Z</time>
      </trkpt>
      <trkpt lat="47.53987" lon="-2.86336">
        <ele>7.1</ele>
        <time>2026-08-25T14:23:44Z</time>
      </trkpt>
      <trkpt lat="47.53982" lon="-2.86329">
        <ele>6.8</ele>
        <time>2026-08-25T14:23:45Z</time>
      </trkpt>
      <trkpt lat="47.53977" lon="-2.86322">
        <ele>6.6</ele>
        <time>2026-08-25T14:23:46Z</time>
      </trkpt>
      <trkpt lat="47.53973" lon="-2.86316">
        <ele>6.4</ele>
        <time>2026-08-25T14:23:47Z</time>
      </trkpt>
      <trkpt lat="47.53968" lon="-2.86309">
        <ele>6.1</ele>
        <time>2026-08-25T14:23:48Z</time>
      </trkpt>
      <trkpt lat="47.53963" lon="-2.86302">
        <ele>5.9</ele>
        <time>2026-08-25T14:23:49Z</time>
      </trkpt>
      <trkpt lat="47.5396" lon="-2.86295">
        <ele>5.6</ele>
        <time>2026-08-25T14:23:50Z</time>
      </trkpt>
      <trkpt lat="47.53956" lon="-2.86288">
        <ele>5.4</ele>
        <time>2026-08-25T14:23:51Z</time>
      </trkpt>
      <trkpt lat="47.53953" lon="-2.86281">
        <ele>5.1</ele>
        <time>2026-08-25T14:23:52Z</time>
      </trkpt>
      <trkpt lat="47.53949" lon="-2.86272">
        <ele>5</ele>
        <time>2026-08-25T14:23:53Z</time>
      </trkpt>
      <trkpt lat="47.53946" lon="-2.86264">
        <ele>5</ele>
        <time>2026-08-25T14:23:54Z</time>
      </trkpt>
      <trkpt lat="47.53942" lon="-2.86256">
        <ele>4.9</ele>
        <time>2026-08-25T14:23:55Z</time>
      </trkpt>
      <trkpt lat="47.53939" lon="-2.86247">
        <ele>4.7</ele>
        <time>2026-08-25T14:23:56Z</time>
      </trkpt>
      <trkpt lat="47.53936" lon="-2.86238">
        <ele>4.4</ele>
        <time>2026-08-25T14:23:57Z</time>
      </trkpt>
      <trkpt lat="47.53933" lon="-2.86229">
        <ele>4.1</ele>
        <time>2026-08-25T14:23:58Z</time>
      </trkpt>
      <trkpt lat="47.5393" lon="-2.8622">
        <ele>4</ele>
        <time>2026-08-25T14:23:59Z</time>
      </trkpt>
      <trkpt lat="47.53927" lon="-2.86212">
        <ele>3.9</ele>
        <time>2026-08-25T14:24:00Z</time>
      </trkpt>
      <trkpt lat="47.53924" lon="-2.86203">
        <ele>3.8</ele>
        <time>2026-08-25T14:24:01Z</time>
      </trkpt>
      <trkpt lat="47.53922" lon="-2.86194">
        <ele>3.8</ele>
        <time>2026-08-25T14:24:02Z</time>
      </trkpt>
      <trkpt lat="47.5392" lon="-2.86186">
        <ele>3.9</ele>
        <time>2026-08-25T14:24:03Z</time>
      </trkpt>
      <trkpt lat="47.53918" lon="-2.86177">
        <ele>4</ele>
        <time>2026-08-25T14:24:04Z</time>
      </trkpt>
      <trkpt lat="47.53916" lon="-2.8617">
        <ele>4</ele>
        <time>2026-08-25T14:24:05Z</time>
      </trkpt>
      <trkpt lat="47.53914" lon="-2.86162">
        <ele>3.9</ele>
        <time>2026-08-25T14:24:06Z</time>
      </trkpt>
      <trkpt lat="47.53913" lon="-2.86154">
        <ele>3.9</ele>
        <time>2026-08-25T14:24:07Z</time>
      </trkpt>
      <trkpt lat="47.53912" lon="-2.86146">
        <ele>4</ele>
        <time>2026-08-25T14:24:08Z</time>
      </trkpt>
      <trkpt lat="47.5391" lon="-2.86138">
        <ele>4</ele>
        <time>2026-08-25T14:24:09Z</time>
      </trkpt>
      <trkpt lat="47.53909" lon="-2.8613">
        <ele>3.8</ele>
        <time>2026-08-25T14:24:10Z</time>
      </trkpt>
      <trkpt lat="47.53908" lon="-2.86121">
        <ele>3.6</ele>
        <time>2026-08-25T14:24:11Z</time>
      </trkpt>
      <trkpt lat="47.53908" lon="-2.86113">
        <ele>3.4</ele>
        <time>2026-08-25T14:24:12Z</time>
      </trkpt>
      <trkpt lat="47.53907" lon="-2.86105">
        <ele>3.5</ele>
        <time>2026-08-25T14:24:13Z</time>
      </trkpt>
      <trkpt lat="47.53906" lon="-2.86097">
        <ele>3.7</ele>
        <time>2026-08-25T14:24:14Z</time>
      </trkpt>
      <trkpt lat="47.53905" lon="-2.86089">
        <ele>3.9</ele>
        <time>2026-08-25T14:24:15Z</time>
      </trkpt>
      <trkpt lat="47.53905" lon="-2.86081">
        <ele>4</ele>
        <time>2026-08-25T14:24:16Z</time>
      </trkpt>
      <trkpt lat="47.53904" lon="-2.86073">
        <ele>4</ele>
        <time>2026-08-25T14:24:17Z</time>
      </trkpt>
      <trkpt lat="47.53903" lon="-2.86066">
        <ele>4</ele>
        <time>2026-08-25T14:24:18Z</time>
      </trkpt>
      <trkpt lat="47.53903" lon="-2.86058">
        <ele>4</ele>
        <time>2026-08-25T14:24:19Z</time>
      </trkpt>
      <trkpt lat="47.53903" lon="-2.8605">
        <ele>4</ele>
        <time>2026-08-25T14:24:20Z</time>
      </trkpt>
      <trkpt lat="47.53903" lon="-2.86042">
        <ele>4</ele>
        <time>2026-08-25T14:24:21Z</time>
      </trkpt>
      <trkpt lat="47.53903" lon="-2.86034">
        <ele>4</ele>
        <time>2026-08-25T14:24:22Z</time>
      </trkpt>
      <trkpt lat="47.53903" lon="-2.86026">
        <ele>4</ele>
        <time>2026-08-25T14:24:23Z</time>
      </trkpt>
      <trkpt lat="47.53903" lon="-2.86018">
        <ele>4.2</ele>
        <time>2026-08-25T14:24:24Z</time>
      </trkpt>
      <trkpt lat="47.53904" lon="-2.8601">
        <ele>4.3</ele>
        <time>2026-08-25T14:24:25Z</time>
      </trkpt>
      <trkpt lat="47.53904" lon="-2.86002">
        <ele>4.4</ele>
        <time>2026-08-25T14:24:26Z</time>
      </trkpt>
      <trkpt lat="47.53904" lon="-2.85994">
        <ele>4.5</ele>
        <time>2026-08-25T14:24:27Z</time>
      </trkpt>
      <trkpt lat="47.53904" lon="-2.85987">
        <ele>4.5</ele>
        <time>2026-08-25T14:24:28Z</time>
      </trkpt>
      <trkpt lat="47.53904" lon="-2.85979">
        <ele>4.5</ele>
        <time>2026-08-25T14:24:29Z</time>
      </trkpt>
      <trkpt lat="47.53904" lon="-2.85971">
        <ele>4.5</ele>
        <time>2026-08-25T14:24:30Z</time>
      </trkpt>
      <trkpt lat="47.53904" lon="-2.85964">
        <ele>4.6</ele>
        <time>2026-08-25T14:24:31Z</time>
      </trkpt>
      <trkpt lat="47.53904" lon="-2.85956">
        <ele>4.8</ele>
        <time>2026-08-25T14:24:32Z</time>
      </trkpt>
      <trkpt lat="47.53904" lon="-2.85948">
        <ele>4.9</ele>
        <time>2026-08-25T14:24:33Z</time>
      </trkpt>
      <trkpt lat="47.53904" lon="-2.85941">
        <ele>5</ele>
        <time>2026-08-25T14:24:34Z</time>
      </trkpt>
      <trkpt lat="47.53904" lon="-2.85933">
        <ele>5</ele>
        <time>2026-08-25T14:24:35Z</time>
      </trkpt>
      <trkpt lat="47.53904" lon="-2.85925">
        <ele>5</ele>
        <time>2026-08-25T14:24:36Z</time>
      </trkpt>
      <trkpt lat="47.53904" lon="-2.85917">
        <ele>5</ele>
        <time>2026-08-25T14:24:37Z</time>
      </trkpt>
      <trkpt lat="47.53904" lon="-2.8591">
        <ele>5</ele>
        <time>2026-08-25T14:24:38Z</time>
      </trkpt>
      <trkpt lat="47.53904" lon="-2.85902">
        <ele>5</ele>
        <time>2026-08-25T14:24:39Z</time>
      </trkpt>
      <trkpt lat="47.53904" lon="-2.85894">
        <ele>5</ele>
        <time>2026-08-25T14:24:40Z</time>
      </trkpt>
      <trkpt lat="47.53904" lon="-2.85886">
        <ele>4.9</ele>
        <time>2026-08-25T14:24:41Z</time>
      </trkpt>
      <trkpt lat="47.53904" lon="-2.85879">
        <ele>4.8</ele>
        <time>2026-08-25T14:24:42Z</time>
      </trkpt>
      <trkpt lat="47.53904" lon="-2.85871">
        <ele>4.6</ele>
        <time>2026-08-25T14:24:43Z</time>
      </trkpt>
      <trkpt lat="47.53904" lon="-2.85863">
        <ele>4.5</ele>
        <time>2026-08-25T14:24:44Z</time>
      </trkpt>
      <trkpt lat="47.53904" lon="-2.85856">
        <ele>4.4</ele>
        <time>2026-08-25T14:24:45Z</time>
      </trkpt>
      <trkpt lat="47.53904" lon="-2.85848">
        <ele>4.2</ele>
        <time>2026-08-25T14:24:46Z</time>
      </trkpt>
      <trkpt lat="47.53904" lon="-2.8584">
        <ele>4.1</ele>
        <time>2026-08-25T14:24:47Z</time>
      </trkpt>
      <trkpt lat="47.53904" lon="-2.85832">
        <ele>4</ele>
        <time>2026-08-25T14:24:48Z</time>
      </trkpt>
      <trkpt lat="47.53904" lon="-2.85824">
        <ele>4</ele>
        <time>2026-08-25T14:24:49Z</time>
      </trkpt>
      <trkpt lat="47.53903" lon="-2.85816">
        <ele>4</ele>
        <time>2026-08-25T14:24:50Z</time>
      </trkpt>
      <trkpt lat="47.53903" lon="-2.85808">
        <ele>4</ele>
        <time>2026-08-25T14:24:51Z</time>
      </trkpt>
      <trkpt lat="47.53903" lon="-2.858">
        <ele>4</ele>
        <time>2026-08-25T14:24:52Z</time>
      </trkpt>
      <trkpt lat="47.53903" lon="-2.85792">
        <ele>4</ele>
        <time>2026-08-25T14:24:53Z</time>
      </trkpt>
      <trkpt lat="47.53903" lon="-2.85784">
        <ele>4</ele>
        <time>2026-08-25T14:24:54Z</time>
      </trkpt>
      <trkpt lat="47.53903" lon="-2.85776">
        <ele>4</ele>
        <time>2026-08-25T14:24:55Z</time>
      </trkpt>
      <trkpt lat="47.53903" lon="-2.85769">
        <ele>4.3</ele>
        <time>2026-08-25T14:24:56Z</time>
      </trkpt>
      <trkpt lat="47.53903" lon="-2.85762">
        <ele>4.6</ele>
        <time>2026-08-25T14:24:57Z</time>
      </trkpt>
      <trkpt lat="47.53903" lon="-2.85754">
        <ele>4.8</ele>
        <time>2026-08-25T14:24:58Z</time>
      </trkpt>
      <trkpt lat="47.53904" lon="-2.85747">
        <ele>5</ele>
        <time>2026-08-25T14:24:59Z</time>
      </trkpt>
      <trkpt lat="47.53904" lon="-2.8574">
        <ele>5.3</ele>
        <time>2026-08-25T14:25:00Z</time>
      </trkpt>
      <trkpt lat="47.53904" lon="-2.85732">
        <ele>5.6</ele>
        <time>2026-08-25T14:25:01Z</time>
      </trkpt>
      <trkpt lat="47.53904" lon="-2.85725">
        <ele>5.8</ele>
        <time>2026-08-25T14:25:02Z</time>
      </trkpt>
      <trkpt lat="47.53903" lon="-2.85719">
        <ele>6</ele>
        <time>2026-08-25T14:25:03Z</time>
      </trkpt>
      <trkpt lat="47.53903" lon="-2.85712">
        <ele>6.2</ele>
        <time>2026-08-25T14:25:04Z</time>
      </trkpt>
      <trkpt lat="47.53903" lon="-2.85705">
        <ele>6.3</ele>
        <time>2026-08-25T14:25:05Z</time>
      </trkpt>
      <trkpt lat="47.53902" lon="-2.85698">
        <ele>6.5</ele>
        <time>2026-08-25T14:25:06Z</time>
      </trkpt>
      <trkpt lat="47.53902" lon="-2.85691">
        <ele>6.6</ele>
        <time>2026-08-25T14:25:07Z</time>
      </trkpt>
      <trkpt lat="47.53901" lon="-2.85685">
        <ele>6.8</ele>
        <time>2026-08-25T14:25:08Z</time>
      </trkpt>
      <trkpt lat="47.539" lon="-2.85678">
        <ele>7</ele>
        <time>2026-08-25T14:25:09Z</time>
      </trkpt>
      <trkpt lat="47.53898" lon="-2.85671">
        <ele>7.3</ele>
        <time>2026-08-25T14:25:10Z</time>
      </trkpt>
      <trkpt lat="47.53897" lon="-2.85665">
        <ele>7.4</ele>
        <time>2026-08-25T14:25:11Z</time>
      </trkpt>
      <trkpt lat="47.53895" lon="-2.85659">
        <ele>7.4</ele>
        <time>2026-08-25T14:25:12Z</time>
      </trkpt>
      <trkpt lat="47.53893" lon="-2.85652">
        <ele>7.3</ele>
        <time>2026-08-25T14:25:13Z</time>
      </trkpt>
      <trkpt lat="47.53892" lon="-2.85645">
        <ele>7.2</ele>
        <time>2026-08-25T14:25:14Z</time>
      </trkpt>
      <trkpt lat="47.5389" lon="-2.85639">
        <ele>7</ele>
        <time>2026-08-25T14:25:15Z</time>
      </trkpt>
      <trkpt lat="47.53887" lon="-2.85632">
        <ele>7.4</ele>
        <time>2026-08-25T14:25:16Z</time>
      </trkpt>
      <trkpt lat="47.53885" lon="-2.85625">
        <ele>7.7</ele>
        <time>2026-08-25T14:25:17Z</time>
      </trkpt>
      <trkpt lat="47.53883" lon="-2.85619">
        <ele>8</ele>
        <time>2026-08-25T14:25:18Z</time>
      </trkpt>
      <trkpt lat="47.53881" lon="-2.85614">
        <ele>8.2</ele>
        <time>2026-08-25T14:25:19Z</time>
      </trkpt>
      <trkpt lat="47.53878" lon="-2.85609">
        <ele>8.3</ele>
        <time>2026-08-25T14:25:20Z</time>
      </trkpt>
      <trkpt lat="47.53875" lon="-2.85602">
        <ele>8</ele>
        <time>2026-08-25T14:25:21Z</time>
      </trkpt>
      <trkpt lat="47.53872" lon="-2.85596">
        <ele>7.7</ele>
        <time>2026-08-25T14:25:22Z</time>
      </trkpt>
      <trkpt lat="47.53869" lon="-2.85589">
        <ele>7.4</ele>
        <time>2026-08-25T14:25:23Z</time>
      </trkpt>
      <trkpt lat="47.53866" lon="-2.85583">
        <ele>7</ele>
        <time>2026-08-25T14:25:24Z</time>
      </trkpt>
      <trkpt lat="47.53863" lon="-2.85577">
        <ele>7</ele>
        <time>2026-08-25T14:25:25Z</time>
      </trkpt>
      <trkpt lat="47.5386" lon="-2.85571">
        <ele>7</ele>
        <time>2026-08-25T14:25:26Z</time>
      </trkpt>
      <trkpt lat="47.53856" lon="-2.85566">
        <ele>7.1</ele>
        <time>2026-08-25T14:25:27Z</time>
      </trkpt>
      <trkpt lat="47.53853" lon="-2.8556">
        <ele>7</ele>
        <time>2026-08-25T14:25:28Z</time>
      </trkpt>
      <trkpt lat="47.53849" lon="-2.85554">
        <ele>6.9</ele>
        <time>2026-08-25T14:25:29Z</time>
      </trkpt>
      <trkpt lat="47.53846" lon="-2.85549">
        <ele>6.7</ele>
        <time>2026-08-25T14:25:30Z</time>
      </trkpt>
      <trkpt lat="47.53841" lon="-2.85544">
        <ele>6.5</ele>
        <time>2026-08-25T14:25:31Z</time>
      </trkpt>
      <trkpt lat="47.53837" lon="-2.85539">
        <ele>6.3</ele>
        <time>2026-08-25T14:25:32Z</time>
      </trkpt>
      <trkpt lat="47.53833" lon="-2.85534">
        <ele>6.2</ele>
        <time>2026-08-25T14:25:33Z</time>
      </trkpt>
      <trkpt lat="47.53828" lon="-2.85529">
        <ele>6</ele>
        <time>2026-08-25T14:25:34Z</time>
      </trkpt>
      <trkpt lat="47.53824" lon="-2.85525">
        <ele>5.9</ele>
        <time>2026-08-25T14:25:35Z</time>
      </trkpt>
      <trkpt lat="47.53819" lon="-2.8552">
        <ele>5.7</ele>
        <time>2026-08-25T14:25:36Z</time>
      </trkpt>
      <trkpt lat="47.53814" lon="-2.85516">
        <ele>5.6</ele>
        <time>2026-08-25T14:25:37Z</time>
      </trkpt>
      <trkpt lat="47.5381" lon="-2.85512">
        <ele>5.4</ele>
        <time>2026-08-25T14:25:38Z</time>
      </trkpt>
      <trkpt lat="47.53805" lon="-2.85508">
        <ele>5.3</ele>
        <time>2026-08-25T14:25:39Z</time>
      </trkpt>
      <trkpt lat="47.538" lon="-2.85504">
        <ele>5.1</ele>
        <time>2026-08-25T14:25:40Z</time>
      </trkpt>
      <trkpt lat="47.53794" lon="-2.85501">
        <ele>5</ele>
        <time>2026-08-25T14:25:41Z</time>
      </trkpt>
      <trkpt lat="47.5379" lon="-2.85497">
        <ele>4.9</ele>
        <time>2026-08-25T14:25:42Z</time>
      </trkpt>
      <trkpt lat="47.53785" lon="-2.85493">
        <ele>4.7</ele>
        <time>2026-08-25T14:25:43Z</time>
      </trkpt>
      <trkpt lat="47.53781" lon="-2.8549">
        <ele>4.6</ele>
        <time>2026-08-25T14:25:44Z</time>
      </trkpt>
      <trkpt lat="47.53776" lon="-2.85488">
        <ele>4.6</ele>
        <time>2026-08-25T14:25:45Z</time>
      </trkpt>
      <trkpt lat="47.53771" lon="-2.85486">
        <ele>4.5</ele>
        <time>2026-08-25T14:25:46Z</time>
      </trkpt>
      <trkpt lat="47.53766" lon="-2.85483">
        <ele>4.4</ele>
        <time>2026-08-25T14:25:47Z</time>
      </trkpt>
      <trkpt lat="47.5376" lon="-2.8548">
        <ele>4.3</ele>
        <time>2026-08-25T14:25:48Z</time>
      </trkpt>
      <trkpt lat="47.53756" lon="-2.85478">
        <ele>4.2</ele>
        <time>2026-08-25T14:25:49Z</time>
      </trkpt>
      <trkpt lat="47.53751" lon="-2.85475">
        <ele>4.1</ele>
        <time>2026-08-25T14:25:50Z</time>
      </trkpt>
      <trkpt lat="47.53745" lon="-2.85473">
        <ele>4</ele>
        <time>2026-08-25T14:25:51Z</time>
      </trkpt>
      <trkpt lat="47.53739" lon="-2.8547">
        <ele>4</ele>
        <time>2026-08-25T14:25:52Z</time>
      </trkpt>
      <trkpt lat="47.53734" lon="-2.85467">
        <ele>3.9</ele>
        <time>2026-08-25T14:25:53Z</time>
      </trkpt>
      <trkpt lat="47.5373" lon="-2.85464">
        <ele>3.9</ele>
        <time>2026-08-25T14:25:54Z</time>
      </trkpt>
      <trkpt lat="47.53725" lon="-2.85461">
        <ele>4</ele>
        <time>2026-08-25T14:25:55Z</time>
      </trkpt>
      <trkpt lat="47.5372" lon="-2.85458">
        <ele>3.9</ele>
        <time>2026-08-25T14:25:56Z</time>
      </trkpt>
      <trkpt lat="47.53714" lon="-2.85455">
        <ele>3.7</ele>
        <time>2026-08-25T14:25:57Z</time>
      </trkpt>
      <trkpt lat="47.53708" lon="-2.85452">
        <ele>3.5</ele>
        <time>2026-08-25T14:25:58Z</time>
      </trkpt>
      <trkpt lat="47.53703" lon="-2.85448">
        <ele>3.3</ele>
        <time>2026-08-25T14:25:59Z</time>
      </trkpt>
      <trkpt lat="47.53697" lon="-2.85444">
        <ele>3.1</ele>
        <time>2026-08-25T14:26:00Z</time>
      </trkpt>
      <trkpt lat="47.53692" lon="-2.8544">
        <ele>2.9</ele>
        <time>2026-08-25T14:26:01Z</time>
      </trkpt>
      <trkpt lat="47.53687" lon="-2.85436">
        <ele>2.8</ele>
        <time>2026-08-25T14:26:02Z</time>
      </trkpt>
      <trkpt lat="47.53682" lon="-2.85432">
        <ele>2.8</ele>
        <time>2026-08-25T14:26:03Z</time>
      </trkpt>
      <trkpt lat="47.53677" lon="-2.85427">
        <ele>2.8</ele>
        <time>2026-08-25T14:26:04Z</time>
      </trkpt>
      <trkpt lat="47.53672" lon="-2.85422">
        <ele>2.8</ele>
        <time>2026-08-25T14:26:05Z</time>
      </trkpt>
      <trkpt lat="47.53667" lon="-2.85417">
        <ele>3</ele>
        <time>2026-08-25T14:26:06Z</time>
      </trkpt>
      <trkpt lat="47.53662" lon="-2.85412">
        <ele>2.7</ele>
        <time>2026-08-25T14:26:07Z</time>
      </trkpt>
      <trkpt lat="47.53658" lon="-2.85407">
        <ele>2.6</ele>
        <time>2026-08-25T14:26:08Z</time>
      </trkpt>
      <trkpt lat="47.53653" lon="-2.85402">
        <ele>2.5</ele>
        <time>2026-08-25T14:26:09Z</time>
      </trkpt>
      <trkpt lat="47.53649" lon="-2.85396">
        <ele>2.6</ele>
        <time>2026-08-25T14:26:10Z</time>
      </trkpt>
      <trkpt lat="47.53645" lon="-2.85391">
        <ele>2.7</ele>
        <time>2026-08-25T14:26:11Z</time>
      </trkpt>
      <trkpt lat="47.53642" lon="-2.85386">
        <ele>2.9</ele>
        <time>2026-08-25T14:26:12Z</time>
      </trkpt>
      <trkpt lat="47.53637" lon="-2.85383">
        <ele>3</ele>
        <time>2026-08-25T14:26:13Z</time>
      </trkpt>
      <trkpt lat="47.53632" lon="-2.8538">
        <ele>3</ele>
        <time>2026-08-25T14:26:14Z</time>
      </trkpt>
      <trkpt lat="47.53627" lon="-2.85378">
        <ele>3</ele>
        <time>2026-08-25T14:26:15Z</time>
      </trkpt>
      <trkpt lat="47.53622" lon="-2.85375">
        <ele>3</ele>
        <time>2026-08-25T14:26:16Z</time>
      </trkpt>
      <trkpt lat="47.53618" lon="-2.85371">
        <ele>3</ele>
        <time>2026-08-25T14:26:17Z</time>
      </trkpt>
      <trkpt lat="47.53613" lon="-2.85368">
        <ele>3</ele>
        <time>2026-08-25T14:26:18Z</time>
      </trkpt>
      <trkpt lat="47.53607" lon="-2.85364">
        <ele>3</ele>
        <time>2026-08-25T14:26:19Z</time>
      </trkpt>
      <trkpt lat="47.53603" lon="-2.85361">
        <ele>3</ele>
        <time>2026-08-25T14:26:20Z</time>
      </trkpt>
      <trkpt lat="47.53598" lon="-2.85357">
        <ele>3.1</ele>
        <time>2026-08-25T14:26:21Z</time>
      </trkpt>
      <trkpt lat="47.53593" lon="-2.85353">
        <ele>3.3</ele>
        <time>2026-08-25T14:26:22Z</time>
      </trkpt>
      <trkpt lat="47.53588" lon="-2.85351">
        <ele>3.4</ele>
        <time>2026-08-25T14:26:23Z</time>
      </trkpt>
      <trkpt lat="47.53583" lon="-2.85348">
        <ele>3.5</ele>
        <time>2026-08-25T14:26:24Z</time>
      </trkpt>
      <trkpt lat="47.53578" lon="-2.85344">
        <ele>3.7</ele>
        <time>2026-08-25T14:26:25Z</time>
      </trkpt>
      <trkpt lat="47.53574" lon="-2.8534">
        <ele>3.8</ele>
        <time>2026-08-25T14:26:26Z</time>
      </trkpt>
      <trkpt lat="47.53571" lon="-2.85335">
        <ele>4</ele>
        <time>2026-08-25T14:26:27Z</time>
      </trkpt>
      <trkpt lat="47.53568" lon="-2.8533">
        <ele>4.1</ele>
        <time>2026-08-25T14:26:28Z</time>
      </trkpt>
      <trkpt lat="47.53566" lon="-2.85324">
        <ele>4.2</ele>
        <time>2026-08-25T14:26:29Z</time>
      </trkpt>
      <trkpt lat="47.53564" lon="-2.85317">
        <ele>4.4</ele>
        <time>2026-08-25T14:26:30Z</time>
      </trkpt>
      <trkpt lat="47.53563" lon="-2.85311">
        <ele>4.6</ele>
        <time>2026-08-25T14:26:31Z</time>
      </trkpt>
      <trkpt lat="47.53563" lon="-2.85304">
        <ele>4.7</ele>
        <time>2026-08-25T14:26:32Z</time>
      </trkpt>
      <trkpt lat="47.53562" lon="-2.85298">
        <ele>4.8</ele>
        <time>2026-08-25T14:26:33Z</time>
      </trkpt>
      <trkpt lat="47.53562" lon="-2.85291">
        <ele>4.9</ele>
        <time>2026-08-25T14:26:34Z</time>
      </trkpt>
      <trkpt lat="47.53561" lon="-2.85284">
        <ele>5</ele>
        <time>2026-08-25T14:26:35Z</time>
      </trkpt>
      <trkpt lat="47.53561" lon="-2.85277">
        <ele>5</ele>
        <time>2026-08-25T14:26:36Z</time>
      </trkpt>
      <trkpt lat="47.5356" lon="-2.8527">
        <ele>5</ele>
        <time>2026-08-25T14:26:37Z</time>
      </trkpt>
      <trkpt lat="47.5356" lon="-2.85264">
        <ele>5</ele>
        <time>2026-08-25T14:26:38Z</time>
      </trkpt>
      <trkpt lat="47.53558" lon="-2.85259">
        <ele>5</ele>
        <time>2026-08-25T14:26:39Z</time>
      </trkpt>
      <trkpt lat="47.53555" lon="-2.85255">
        <ele>5</ele>
        <time>2026-08-25T14:26:40Z</time>
      </trkpt>
      <trkpt lat="47.53552" lon="-2.85253">
        <ele>5</ele>
        <time>2026-08-25T14:26:41Z</time>
      </trkpt>
      <trkpt lat="47.53548" lon="-2.85253">
        <ele>5</ele>
        <time>2026-08-25T14:26:42Z</time>
      </trkpt>
      <trkpt lat="47.53543" lon="-2.85253">
        <ele>5</ele>
        <time>2026-08-25T14:26:43Z</time>
      </trkpt>
      <trkpt lat="47.53539" lon="-2.85254">
        <ele>5</ele>
        <time>2026-08-25T14:26:44Z</time>
      </trkpt>
      <trkpt lat="47.53535" lon="-2.85254">
        <ele>5</ele>
        <time>2026-08-25T14:26:45Z</time>
      </trkpt>
      <trkpt lat="47.5353" lon="-2.85253">
        <ele>5</ele>
        <time>2026-08-25T14:26:46Z</time>
      </trkpt>
      <trkpt lat="47.53526" lon="-2.85251">
        <ele>4.9</ele>
        <time>2026-08-25T14:26:47Z</time>
      </trkpt>
      <trkpt lat="47.53522" lon="-2.85249">
        <ele>4.8</ele>
        <time>2026-08-25T14:26:48Z</time>
      </trkpt>
      <trkpt lat="47.53518" lon="-2.85246">
        <ele>4.6</ele>
        <time>2026-08-25T14:26:49Z</time>
      </trkpt>
      <trkpt lat="47.53515" lon="-2.85243">
        <ele>4.5</ele>
        <time>2026-08-25T14:26:50Z</time>
      </trkpt>
      <trkpt lat="47.5351" lon="-2.85241">
        <ele>4.4</ele>
        <time>2026-08-25T14:26:51Z</time>
      </trkpt>
      <trkpt lat="47.53507" lon="-2.85238">
        <ele>4.3</ele>
        <time>2026-08-25T14:26:52Z</time>
      </trkpt>
      <trkpt lat="47.53502" lon="-2.85236">
        <ele>4.1</ele>
        <time>2026-08-25T14:26:53Z</time>
      </trkpt>
      <trkpt lat="47.53498" lon="-2.85234">
        <ele>4</ele>
        <time>2026-08-25T14:26:54Z</time>
      </trkpt>
      <trkpt lat="47.53494" lon="-2.85233">
        <ele>4</ele>
        <time>2026-08-25T14:26:55Z</time>
      </trkpt>
      <trkpt lat="47.5349" lon="-2.85231">
        <ele>4</ele>
        <time>2026-08-25T14:26:56Z</time>
      </trkpt>
      <trkpt lat="47.53485" lon="-2.85229">
        <ele>4</ele>
        <time>2026-08-25T14:26:57Z</time>
      </trkpt>
      <trkpt lat="47.53481" lon="-2.85227">
        <ele>4</ele>
        <time>2026-08-25T14:26:58Z</time>
      </trkpt>
      <trkpt lat="47.53477" lon="-2.85226">
        <ele>4</ele>
        <time>2026-08-25T14:26:59Z</time>
      </trkpt>
      <trkpt lat="47.53474" lon="-2.85226">
        <ele>4</ele>
        <time>2026-08-25T14:27:00Z</time>
      </trkpt>
      <trkpt lat="47.5347" lon="-2.85228">
        <ele>4</ele>
        <time>2026-08-25T14:27:01Z</time>
      </trkpt>
      <trkpt lat="47.53468" lon="-2.85232">
        <ele>4</ele>
        <time>2026-08-25T14:27:02Z</time>
      </trkpt>
      <trkpt lat="47.53466" lon="-2.85237">
        <ele>4</ele>
        <time>2026-08-25T14:27:03Z</time>
      </trkpt>
      <trkpt lat="47.53465" lon="-2.85242">
        <ele>4</ele>
        <time>2026-08-25T14:27:04Z</time>
      </trkpt>
      <trkpt lat="47.53463" lon="-2.85248">
        <ele>4</ele>
        <time>2026-08-25T14:27:05Z</time>
      </trkpt>
      <trkpt lat="47.53461" lon="-2.85253">
        <ele>4</ele>
        <time>2026-08-25T14:27:06Z</time>
      </trkpt>
      <trkpt lat="47.53459" lon="-2.85259">
        <ele>3.8</ele>
        <time>2026-08-25T14:27:07Z</time>
      </trkpt>
      <trkpt lat="47.53457" lon="-2.85264">
        <ele>3.7</ele>
        <time>2026-08-25T14:27:08Z</time>
      </trkpt>
      <trkpt lat="47.53455" lon="-2.8527">
        <ele>3.6</ele>
        <time>2026-08-25T14:27:09Z</time>
      </trkpt>
      <trkpt lat="47.53454" lon="-2.85275">
        <ele>3.4</ele>
        <time>2026-08-25T14:27:10Z</time>
      </trkpt>
      <trkpt lat="47.53452" lon="-2.85281">
        <ele>3.3</ele>
        <time>2026-08-25T14:27:11Z</time>
      </trkpt>
      <trkpt lat="47.5345" lon="-2.85286">
        <ele>3.2</ele>
        <time>2026-08-25T14:27:12Z</time>
      </trkpt>
      <trkpt lat="47.53446" lon="-2.85289">
        <ele>3.1</ele>
        <time>2026-08-25T14:27:13Z</time>
      </trkpt>
      <trkpt lat="47.53443" lon="-2.85292">
        <ele>3</ele>
        <time>2026-08-25T14:27:14Z</time>
      </trkpt>
      <trkpt lat="47.53438" lon="-2.85294">
        <ele>3</ele>
        <time>2026-08-25T14:27:15Z</time>
      </trkpt>
      <trkpt lat="47.53434" lon="-2.85294">
        <ele>3</ele>
        <time>2026-08-25T14:27:16Z</time>
      </trkpt>
      <trkpt lat="47.53429" lon="-2.85294">
        <ele>3</ele>
        <time>2026-08-25T14:27:17Z</time>
      </trkpt>
      <trkpt lat="47.53425" lon="-2.85293">
        <ele>3</ele>
        <time>2026-08-25T14:27:18Z</time>
      </trkpt>
      <trkpt lat="47.53421" lon="-2.85291">
        <ele>3</ele>
        <time>2026-08-25T14:27:19Z</time>
      </trkpt>
      <trkpt lat="47.53417" lon="-2.85286">
        <ele>3</ele>
        <time>2026-08-25T14:27:20Z</time>
      </trkpt>
      <trkpt lat="47.53414" lon="-2.85281">
        <ele>3.1</ele>
        <time>2026-08-25T14:27:21Z</time>
      </trkpt>
      <trkpt lat="47.53412" lon="-2.85275">
        <ele>3.2</ele>
        <time>2026-08-25T14:27:22Z</time>
      </trkpt>
      <trkpt lat="47.5341" lon="-2.85269">
        <ele>3.2</ele>
        <time>2026-08-25T14:27:23Z</time>
      </trkpt>
      <trkpt lat="47.53407" lon="-2.85262">
        <ele>3.3</ele>
        <time>2026-08-25T14:27:24Z</time>
      </trkpt>
      <trkpt lat="47.53405" lon="-2.85256">
        <ele>3.4</ele>
        <time>2026-08-25T14:27:25Z</time>
      </trkpt>
      <trkpt lat="47.53403" lon="-2.8525">
        <ele>3.5</ele>
        <time>2026-08-25T14:27:26Z</time>
      </trkpt>
      <trkpt lat="47.53401" lon="-2.85244">
        <ele>3.5</ele>
        <time>2026-08-25T14:27:27Z</time>
      </trkpt>
      <trkpt lat="47.53399" lon="-2.85237">
        <ele>3.5</ele>
        <time>2026-08-25T14:27:28Z</time>
      </trkpt>
      <trkpt lat="47.53396" lon="-2.85231">
        <ele>3.4</ele>
        <time>2026-08-25T14:27:29Z</time>
      </trkpt>
      <trkpt lat="47.53394" lon="-2.85225">
        <ele>3.2</ele>
        <time>2026-08-25T14:27:30Z</time>
      </trkpt>
      <trkpt lat="47.53392" lon="-2.85219">
        <ele>3.1</ele>
        <time>2026-08-25T14:27:31Z</time>
      </trkpt>
      <trkpt lat="47.5339" lon="-2.85212">
        <ele>3</ele>
        <time>2026-08-25T14:27:32Z</time>
      </trkpt>
      <trkpt lat="47.53388" lon="-2.85206">
        <ele>3</ele>
        <time>2026-08-25T14:27:33Z</time>
      </trkpt>
      <trkpt lat="47.53386" lon="-2.852">
        <ele>3.1</ele>
        <time>2026-08-25T14:27:34Z</time>
      </trkpt>
      <trkpt lat="47.53384" lon="-2.85193">
        <ele>3.2</ele>
        <time>2026-08-25T14:27:35Z</time>
      </trkpt>
      <trkpt lat="47.53382" lon="-2.85187">
        <ele>3.2</ele>
        <time>2026-08-25T14:27:36Z</time>
      </trkpt>
      <trkpt lat="47.5338" lon="-2.8518">
        <ele>3.3</ele>
        <time>2026-08-25T14:27:37Z</time>
      </trkpt>
      <trkpt lat="47.53378" lon="-2.85174">
        <ele>3.4</ele>
        <time>2026-08-25T14:27:38Z</time>
      </trkpt>
      <trkpt lat="47.53376" lon="-2.85167">
        <ele>3.5</ele>
        <time>2026-08-25T14:27:39Z</time>
      </trkpt>
      <trkpt lat="47.53373" lon="-2.85161">
        <ele>3.5</ele>
        <time>2026-08-25T14:27:40Z</time>
      </trkpt>
      <trkpt lat="47.5337" lon="-2.85155">
        <ele>3.5</ele>
        <time>2026-08-25T14:27:41Z</time>
      </trkpt>
      <trkpt lat="47.53367" lon="-2.8515">
        <ele>3.4</ele>
        <time>2026-08-25T14:27:42Z</time>
      </trkpt>
      <trkpt lat="47.53364" lon="-2.85144">
        <ele>3.2</ele>
        <time>2026-08-25T14:27:43Z</time>
      </trkpt>
      <trkpt lat="47.5336" lon="-2.8514">
        <ele>3.1</ele>
        <time>2026-08-25T14:27:44Z</time>
      </trkpt>
      <trkpt lat="47.53357" lon="-2.85136">
        <ele>3.5</ele>
        <time>2026-08-25T14:27:45Z</time>
      </trkpt>
      <trkpt lat="47.53353" lon="-2.85133">
        <ele>3.8</ele>
        <time>2026-08-25T14:27:46Z</time>
      </trkpt>
      <trkpt lat="47.53349" lon="-2.85129">
        <ele>4.1</ele>
        <time>2026-08-25T14:27:47Z</time>
      </trkpt>
      <trkpt lat="47.53345" lon="-2.85125">
        <ele>4.3</ele>
        <time>2026-08-25T14:27:48Z</time>
      </trkpt>
      <trkpt lat="47.53341" lon="-2.85121">
        <ele>4.3</ele>
        <time>2026-08-25T14:27:49Z</time>
      </trkpt>
      <trkpt lat="47.53337" lon="-2.85117">
        <ele>4.3</ele>
        <time>2026-08-25T14:27:50Z</time>
      </trkpt>
      <trkpt lat="47.53334" lon="-2.85114">
        <ele>4.1</ele>
        <time>2026-08-25T14:27:51Z</time>
      </trkpt>
      <trkpt lat="47.5333" lon="-2.8511">
        <ele>4.2</ele>
        <time>2026-08-25T14:27:52Z</time>
      </trkpt>
      <trkpt lat="47.53327" lon="-2.85106">
        <ele>4.4</ele>
        <time>2026-08-25T14:27:53Z</time>
      </trkpt>
      <trkpt lat="47.53324" lon="-2.85102">
        <ele>4.7</ele>
        <time>2026-08-25T14:27:54Z</time>
      </trkpt>
      <trkpt lat="47.53322" lon="-2.85097">
        <ele>4.9</ele>
        <time>2026-08-25T14:27:55Z</time>
      </trkpt>
      <trkpt lat="47.53319" lon="-2.85092">
        <ele>5.2</ele>
        <time>2026-08-25T14:27:56Z</time>
      </trkpt>
      <trkpt lat="47.53317" lon="-2.85087">
        <ele>5.5</ele>
        <time>2026-08-25T14:27:57Z</time>
      </trkpt>
      <trkpt lat="47.53315" lon="-2.85081">
        <ele>5.7</ele>
        <time>2026-08-25T14:27:58Z</time>
      </trkpt>
      <trkpt lat="47.53313" lon="-2.85076">
        <ele>5.9</ele>
        <time>2026-08-25T14:27:59Z</time>
      </trkpt>
      <trkpt lat="47.53312" lon="-2.8507">
        <ele>6</ele>
        <time>2026-08-25T14:28:00Z</time>
      </trkpt>
      <trkpt lat="47.5331" lon="-2.85065">
        <ele>6.1</ele>
        <time>2026-08-25T14:28:01Z</time>
      </trkpt>
      <trkpt lat="47.53309" lon="-2.8506">
        <ele>6.1</ele>
        <time>2026-08-25T14:28:02Z</time>
      </trkpt>
      <trkpt lat="47.53307" lon="-2.85054">
        <ele>6.2</ele>
        <time>2026-08-25T14:28:03Z</time>
      </trkpt>
      <trkpt lat="47.53305" lon="-2.85049">
        <ele>6.5</ele>
        <time>2026-08-25T14:28:04Z</time>
      </trkpt>
      <trkpt lat="47.53304" lon="-2.85044">
        <ele>6.9</ele>
        <time>2026-08-25T14:28:05Z</time>
      </trkpt>
      <trkpt lat="47.53302" lon="-2.85039">
        <ele>7.2</ele>
        <time>2026-08-25T14:28:06Z</time>
      </trkpt>
      <trkpt lat="47.533" lon="-2.85034">
        <ele>7.6</ele>
        <time>2026-08-25T14:28:07Z</time>
      </trkpt>
      <trkpt lat="47.53298" lon="-2.85029">
        <ele>7.9</ele>
        <time>2026-08-25T14:28:08Z</time>
      </trkpt>
      <trkpt lat="47.53297" lon="-2.85024">
        <ele>8.2</ele>
        <time>2026-08-25T14:28:09Z</time>
      </trkpt>
      <trkpt lat="47.53295" lon="-2.8502">
        <ele>8.5</ele>
        <time>2026-08-25T14:28:10Z</time>
      </trkpt>
      <trkpt lat="47.53292" lon="-2.85016">
        <ele>8.6</ele>
        <time>2026-08-25T14:28:11Z</time>
      </trkpt>
      <trkpt lat="47.53289" lon="-2.85012">
        <ele>8.8</ele>
        <time>2026-08-25T14:28:12Z</time>
      </trkpt>
      <trkpt lat="47.53285" lon="-2.85011">
        <ele>8.8</ele>
        <time>2026-08-25T14:28:13Z</time>
      </trkpt>
      <trkpt lat="47.53281" lon="-2.85011">
        <ele>8.7</ele>
        <time>2026-08-25T14:28:14Z</time>
      </trkpt>
      <trkpt lat="47.53277" lon="-2.85011">
        <ele>8.6</ele>
        <time>2026-08-25T14:28:15Z</time>
      </trkpt>
      <trkpt lat="47.53258" lon="-2.85018">
        <ele>7.2</ele>
        <time>2026-08-25T14:28:20Z</time>
      </trkpt>
      <trkpt lat="47.53254" lon="-2.85022">
        <ele>6.7</ele>
        <time>2026-08-25T14:28:21Z</time>
      </trkpt>
      <trkpt lat="47.53251" lon="-2.85024">
        <ele>6.3</ele>
        <time>2026-08-25T14:28:22Z</time>
      </trkpt>
      <trkpt lat="47.53248" lon="-2.85024">
        <ele>6.3</ele>
        <time>2026-08-25T14:28:23Z</time>
      </trkpt>
      <trkpt lat="47.53246" lon="-2.85022">
        <ele>6.4</ele>
        <time>2026-08-25T14:28:24Z</time>
      </trkpt>
      <trkpt lat="47.53244" lon="-2.85019">
        <ele>6.6</ele>
        <time>2026-08-25T14:28:25Z</time>
      </trkpt>
      <trkpt lat="47.53243" lon="-2.85016">
        <ele>6.8</ele>
        <time>2026-08-25T14:28:26Z</time>
      </trkpt>
      <trkpt lat="47.53242" lon="-2.85011">
        <ele>7.2</ele>
        <time>2026-08-25T14:28:27Z</time>
      </trkpt>
      <trkpt lat="47.53242" lon="-2.85006">
        <ele>7.6</ele>
        <time>2026-08-25T14:28:28Z</time>
      </trkpt>
      <trkpt lat="47.53242" lon="-2.85001">
        <ele>7.9</ele>
        <time>2026-08-25T14:28:29Z</time>
      </trkpt>
      <trkpt lat="47.53241" lon="-2.84995">
        <ele>8.3</ele>
        <time>2026-08-25T14:28:30Z</time>
      </trkpt>
      <trkpt lat="47.5324" lon="-2.8499">
        <ele>8.6</ele>
        <time>2026-08-25T14:28:31Z</time>
      </trkpt>
      <trkpt lat="47.53239" lon="-2.84984">
        <ele>8.9</ele>
        <time>2026-08-25T14:28:32Z</time>
      </trkpt>
      <trkpt lat="47.53239" lon="-2.84979">
        <ele>9.2</ele>
        <time>2026-08-25T14:28:33Z</time>
      </trkpt>
      <trkpt lat="47.53238" lon="-2.84973">
        <ele>9.5</ele>
        <time>2026-08-25T14:28:34Z</time>
      </trkpt>
      <trkpt lat="47.53238" lon="-2.84967">
        <ele>9.7</ele>
        <time>2026-08-25T14:28:35Z</time>
      </trkpt>
      <trkpt lat="47.53237" lon="-2.84962">
        <ele>9.7</ele>
        <time>2026-08-25T14:28:36Z</time>
      </trkpt>
      <trkpt lat="47.53236" lon="-2.84957">
        <ele>9.8</ele>
        <time>2026-08-25T14:28:37Z</time>
      </trkpt>
      <trkpt lat="47.53235" lon="-2.84951">
        <ele>9.8</ele>
        <time>2026-08-25T14:28:38Z</time>
      </trkpt>
      <trkpt lat="47.53234" lon="-2.84946">
        <ele>9.8</ele>
        <time>2026-08-25T14:28:39Z</time>
      </trkpt>
      <trkpt lat="47.53234" lon="-2.84941">
        <ele>10</ele>
        <time>2026-08-25T14:28:40Z</time>
      </trkpt>
      <trkpt lat="47.53233" lon="-2.84935">
        <ele>10.1</ele>
        <time>2026-08-25T14:28:41Z</time>
      </trkpt>
      <trkpt lat="47.53232" lon="-2.84929">
        <ele>10.3</ele>
        <time>2026-08-25T14:28:42Z</time>
      </trkpt>
      <trkpt lat="47.53231" lon="-2.84924">
        <ele>10.4</ele>
        <time>2026-08-25T14:28:43Z</time>
      </trkpt>
      <trkpt lat="47.5323" lon="-2.84919">
        <ele>10.5</ele>
        <time>2026-08-25T14:28:44Z</time>
      </trkpt>
      <trkpt lat="47.53229" lon="-2.84913">
        <ele>10.5</ele>
        <time>2026-08-25T14:28:45Z</time>
      </trkpt>
      <trkpt lat="47.53229" lon="-2.84908">
        <ele>10.6</ele>
        <time>2026-08-25T14:28:46Z</time>
      </trkpt>
      <trkpt lat="47.53228" lon="-2.84902">
        <ele>10.5</ele>
        <time>2026-08-25T14:28:47Z</time>
      </trkpt>
      <trkpt lat="47.53228" lon="-2.84897">
        <ele>10.6</ele>
        <time>2026-08-25T14:28:48Z</time>
      </trkpt>
      <trkpt lat="47.53227" lon="-2.84892">
        <ele>10.5</ele>
        <time>2026-08-25T14:28:49Z</time>
      </trkpt>
      <trkpt lat="47.53226" lon="-2.84886">
        <ele>10.5</ele>
        <time>2026-08-25T14:28:50Z</time>
      </trkpt>
      <trkpt lat="47.53225" lon="-2.84881">
        <ele>10.6</ele>
        <time>2026-08-25T14:28:51Z</time>
      </trkpt>
      <trkpt lat="47.53224" lon="-2.84875">
        <ele>10.7</ele>
        <time>2026-08-25T14:28:52Z</time>
      </trkpt>
      <trkpt lat="47.53223" lon="-2.84869">
        <ele>10.8</ele>
        <time>2026-08-25T14:28:53Z</time>
      </trkpt>
      <trkpt lat="47.53222" lon="-2.84863">
        <ele>10.9</ele>
        <time>2026-08-25T14:28:54Z</time>
      </trkpt>
      <trkpt lat="47.53221" lon="-2.84857">
        <ele>11.2</ele>
        <time>2026-08-25T14:28:55Z</time>
      </trkpt>
      <trkpt lat="47.5322" lon="-2.84851">
        <ele>11.4</ele>
        <time>2026-08-25T14:28:56Z</time>
      </trkpt>
      <trkpt lat="47.53219" lon="-2.84845">
        <ele>11.6</ele>
        <time>2026-08-25T14:28:57Z</time>
      </trkpt>
      <trkpt lat="47.53219" lon="-2.84839">
        <ele>11.9</ele>
        <time>2026-08-25T14:28:58Z</time>
      </trkpt>
      <trkpt lat="47.53218" lon="-2.84833">
        <ele>12.2</ele>
        <time>2026-08-25T14:28:59Z</time>
      </trkpt>
      <trkpt lat="47.53217" lon="-2.84827">
        <ele>12.3</ele>
        <time>2026-08-25T14:29:00Z</time>
      </trkpt>
      <trkpt lat="47.53216" lon="-2.84821">
        <ele>12.5</ele>
        <time>2026-08-25T14:29:01Z</time>
      </trkpt>
      <trkpt lat="47.53215" lon="-2.84815">
        <ele>12.6</ele>
        <time>2026-08-25T14:29:02Z</time>
      </trkpt>
      <trkpt lat="47.53214" lon="-2.84809">
        <ele>12.7</ele>
        <time>2026-08-25T14:29:03Z</time>
      </trkpt>
      <trkpt lat="47.53213" lon="-2.84803">
        <ele>12.7</ele>
        <time>2026-08-25T14:29:04Z</time>
      </trkpt>
      <trkpt lat="47.53212" lon="-2.84797">
        <ele>12.6</ele>
        <time>2026-08-25T14:29:05Z</time>
      </trkpt>
      <trkpt lat="47.53211" lon="-2.84791">
        <ele>12.6</ele>
        <time>2026-08-25T14:29:06Z</time>
      </trkpt>
      <trkpt lat="47.5321" lon="-2.84785">
        <ele>12.6</ele>
        <time>2026-08-25T14:29:07Z</time>
      </trkpt>
      <trkpt lat="47.53209" lon="-2.84778">
        <ele>12.5</ele>
        <time>2026-08-25T14:29:08Z</time>
      </trkpt>
      <trkpt lat="47.53209" lon="-2.84772">
        <ele>12.4</ele>
        <time>2026-08-25T14:29:09Z</time>
      </trkpt>
      <trkpt lat="47.53208" lon="-2.84766">
        <ele>12.3</ele>
        <time>2026-08-25T14:29:10Z</time>
      </trkpt>
      <trkpt lat="47.53207" lon="-2.8476">
        <ele>12.1</ele>
        <time>2026-08-25T14:29:11Z</time>
      </trkpt>
      <trkpt lat="47.53206" lon="-2.84754">
        <ele>11.9</ele>
        <time>2026-08-25T14:29:12Z</time>
      </trkpt>
      <trkpt lat="47.53205" lon="-2.84747">
        <ele>11.8</ele>
        <time>2026-08-25T14:29:13Z</time>
      </trkpt>
      <trkpt lat="47.53204" lon="-2.84741">
        <ele>11.7</ele>
        <time>2026-08-25T14:29:14Z</time>
      </trkpt>
      <trkpt lat="47.53203" lon="-2.84735">
        <ele>11.6</ele>
        <time>2026-08-25T14:29:15Z</time>
      </trkpt>
      <trkpt lat="47.53202" lon="-2.84729">
        <ele>11.5</ele>
        <time>2026-08-25T14:29:16Z</time>
      </trkpt>
      <trkpt lat="47.53201" lon="-2.84722">
        <ele>11.5</ele>
        <time>2026-08-25T14:29:17Z</time>
      </trkpt>
      <trkpt lat="47.53201" lon="-2.84716">
        <ele>11.6</ele>
        <time>2026-08-25T14:29:18Z</time>
      </trkpt>
      <trkpt lat="47.532" lon="-2.8471">
        <ele>11.8</ele>
        <time>2026-08-25T14:29:19Z</time>
      </trkpt>
      <trkpt lat="47.53199" lon="-2.84704">
        <ele>11.9</ele>
        <time>2026-08-25T14:29:20Z</time>
      </trkpt>
      <trkpt lat="47.53198" lon="-2.84698">
        <ele>12</ele>
        <time>2026-08-25T14:29:21Z</time>
      </trkpt>
      <trkpt lat="47.53197" lon="-2.84691">
        <ele>12.1</ele>
        <time>2026-08-25T14:29:22Z</time>
      </trkpt>
      <trkpt lat="47.53197" lon="-2.84685">
        <ele>12.1</ele>
        <time>2026-08-25T14:29:23Z</time>
      </trkpt>
      <trkpt lat="47.53196" lon="-2.84679">
        <ele>12.1</ele>
        <time>2026-08-25T14:29:24Z</time>
      </trkpt>
      <trkpt lat="47.53195" lon="-2.84672">
        <ele>12</ele>
        <time>2026-08-25T14:29:25Z</time>
      </trkpt>
      <trkpt lat="47.53194" lon="-2.84666">
        <ele>12</ele>
        <time>2026-08-25T14:29:26Z</time>
      </trkpt>
      <trkpt lat="47.53193" lon="-2.8466">
        <ele>12.2</ele>
        <time>2026-08-25T14:29:27Z</time>
      </trkpt>
      <trkpt lat="47.53192" lon="-2.84653">
        <ele>12.4</ele>
        <time>2026-08-25T14:29:28Z</time>
      </trkpt>
      <trkpt lat="47.53191" lon="-2.84647">
        <ele>12.6</ele>
        <time>2026-08-25T14:29:29Z</time>
      </trkpt>
      <trkpt lat="47.5319" lon="-2.84641">
        <ele>12.8</ele>
        <time>2026-08-25T14:29:30Z</time>
      </trkpt>
      <trkpt lat="47.53189" lon="-2.84634">
        <ele>12.8</ele>
        <time>2026-08-25T14:29:31Z</time>
      </trkpt>
      <trkpt lat="47.53188" lon="-2.84628">
        <ele>12.9</ele>
        <time>2026-08-25T14:29:32Z</time>
      </trkpt>
      <trkpt lat="47.53187" lon="-2.84621">
        <ele>12.9</ele>
        <time>2026-08-25T14:29:33Z</time>
      </trkpt>
      <trkpt lat="47.53186" lon="-2.84615">
        <ele>13</ele>
        <time>2026-08-25T14:29:34Z</time>
      </trkpt>
      <trkpt lat="47.53186" lon="-2.84608">
        <ele>13</ele>
        <time>2026-08-25T14:29:35Z</time>
      </trkpt>
      <trkpt lat="47.53185" lon="-2.84601">
        <ele>13.1</ele>
        <time>2026-08-25T14:29:36Z</time>
      </trkpt>
      <trkpt lat="47.53184" lon="-2.84595">
        <ele>13.2</ele>
        <time>2026-08-25T14:29:37Z</time>
      </trkpt>
      <trkpt lat="47.53183" lon="-2.84588">
        <ele>13.3</ele>
        <time>2026-08-25T14:29:38Z</time>
      </trkpt>
      <trkpt lat="47.53182" lon="-2.84581">
        <ele>13.4</ele>
        <time>2026-08-25T14:29:39Z</time>
      </trkpt>
      <trkpt lat="47.53181" lon="-2.84575">
        <ele>13.5</ele>
        <time>2026-08-25T14:29:40Z</time>
      </trkpt>
      <trkpt lat="47.5318" lon="-2.84568">
        <ele>13.5</ele>
        <time>2026-08-25T14:29:41Z</time>
      </trkpt>
      <trkpt lat="47.53179" lon="-2.84561">
        <ele>13.6</ele>
        <time>2026-08-25T14:29:42Z</time>
      </trkpt>
      <trkpt lat="47.53179" lon="-2.84554">
        <ele>13.5</ele>
        <time>2026-08-25T14:29:43Z</time>
      </trkpt>
      <trkpt lat="47.53178" lon="-2.84548">
        <ele>13.3</ele>
        <time>2026-08-25T14:29:44Z</time>
      </trkpt>
      <trkpt lat="47.53177" lon="-2.84542">
        <ele>13.1</ele>
        <time>2026-08-25T14:29:45Z</time>
      </trkpt>
      <trkpt lat="47.53177" lon="-2.84536">
        <ele>12.9</ele>
        <time>2026-08-25T14:29:46Z</time>
      </trkpt>
      <trkpt lat="47.53176" lon="-2.84531">
        <ele>12.8</ele>
        <time>2026-08-25T14:29:47Z</time>
      </trkpt>
      <trkpt lat="47.53175" lon="-2.84525">
        <ele>12.7</ele>
        <time>2026-08-25T14:29:48Z</time>
      </trkpt>
      <trkpt lat="47.53175" lon="-2.84521">
        <ele>12.6</ele>
        <time>2026-08-25T14:29:49Z</time>
      </trkpt>
      <trkpt lat="47.53175" lon="-2.84516">
        <ele>12.5</ele>
        <time>2026-08-25T14:29:50Z</time>
      </trkpt>
      <trkpt lat="47.53174" lon="-2.84513">
        <ele>12.5</ele>
        <time>2026-08-25T14:29:51Z</time>
      </trkpt>
      <trkpt lat="47.53174" lon="-2.84509">
        <ele>12.4</ele>
        <time>2026-08-25T14:29:52Z</time>
      </trkpt>
      <trkpt lat="47.53173" lon="-2.84505">
        <ele>12.3</ele>
        <time>2026-08-25T14:29:53Z</time>
      </trkpt>
      <trkpt lat="47.53172" lon="-2.84501">
        <ele>12.2</ele>
        <time>2026-08-25T14:29:54Z</time>
      </trkpt>
      <trkpt lat="47.5317" lon="-2.84498">
        <ele>12.1</ele>
        <time>2026-08-25T14:29:55Z</time>
      </trkpt>
      <trkpt lat="47.53168" lon="-2.84494">
        <ele>12</ele>
        <time>2026-08-25T14:29:56Z</time>
      </trkpt>
      <trkpt lat="47.53166" lon="-2.84489">
        <ele>12</ele>
        <time>2026-08-25T14:29:57Z</time>
      </trkpt>
      <trkpt lat="47.53164" lon="-2.84485">
        <ele>12.2</ele>
        <time>2026-08-25T14:29:58Z</time>
      </trkpt>
      <trkpt lat="47.53164" lon="-2.8448">
        <ele>12.2</ele>
        <time>2026-08-25T14:29:59Z</time>
      </trkpt>
      <trkpt lat="47.53163" lon="-2.84475">
        <ele>12.3</ele>
        <time>2026-08-25T14:30:00Z</time>
      </trkpt>
      <trkpt lat="47.53163" lon="-2.8447">
        <ele>12.3</ele>
        <time>2026-08-25T14:30:01Z</time>
      </trkpt>
      <trkpt lat="47.53163" lon="-2.84467">
        <ele>12.2</ele>
        <time>2026-08-25T14:30:02Z</time>
      </trkpt>
      <trkpt lat="47.53162" lon="-2.84465">
        <ele>12.3</ele>
        <time>2026-08-25T14:30:03Z</time>
      </trkpt>
      <trkpt lat="47.53162" lon="-2.84463">
        <ele>12.3</ele>
        <time>2026-08-25T14:30:04Z</time>
      </trkpt>
      <trkpt lat="47.53162" lon="-2.8446">
        <ele>12.3</ele>
        <time>2026-08-25T14:30:05Z</time>
      </trkpt>
      <trkpt lat="47.53163" lon="-2.84457">
        <ele>12.2</ele>
        <time>2026-08-25T14:30:06Z</time>
      </trkpt>
      <trkpt lat="47.53164" lon="-2.84453">
        <ele>12.1</ele>
        <time>2026-08-25T14:30:07Z</time>
      </trkpt>
      <trkpt lat="47.53165" lon="-2.84449">
        <ele>12.1</ele>
        <time>2026-08-25T14:30:08Z</time>
      </trkpt>
      <trkpt lat="47.53166" lon="-2.84445">
        <ele>12</ele>
        <time>2026-08-25T14:30:09Z</time>
      </trkpt>
      <trkpt lat="47.53166" lon="-2.8444">
        <ele>12.2</ele>
        <time>2026-08-25T14:30:10Z</time>
      </trkpt>
      <trkpt lat="47.53165" lon="-2.84436">
        <ele>12.3</ele>
        <time>2026-08-25T14:30:11Z</time>
      </trkpt>
      <trkpt lat="47.53164" lon="-2.84433">
        <ele>12.5</ele>
        <time>2026-08-25T14:30:12Z</time>
      </trkpt>
      <trkpt lat="47.53161" lon="-2.84431">
        <ele>12.6</ele>
        <time>2026-08-25T14:30:13Z</time>
      </trkpt>
      <trkpt lat="47.53158" lon="-2.84431">
        <ele>12.6</ele>
        <time>2026-08-25T14:30:14Z</time>
      </trkpt>
      <trkpt lat="47.53154" lon="-2.84431">
        <ele>12.7</ele>
        <time>2026-08-25T14:30:15Z</time>
      </trkpt>
      <trkpt lat="47.53151" lon="-2.8443">
        <ele>12.8</ele>
        <time>2026-08-25T14:30:16Z</time>
      </trkpt>
      <trkpt lat="47.53147" lon="-2.84429">
        <ele>12.9</ele>
        <time>2026-08-25T14:30:17Z</time>
      </trkpt>
      <trkpt lat="47.53143" lon="-2.84428">
        <ele>12.9</ele>
        <time>2026-08-25T14:30:18Z</time>
      </trkpt>
      <trkpt lat="47.5314" lon="-2.84426">
        <ele>13</ele>
        <time>2026-08-25T14:30:19Z</time>
      </trkpt>
      <trkpt lat="47.53136" lon="-2.84424">
        <ele>13</ele>
        <time>2026-08-25T14:30:20Z</time>
      </trkpt>
      <trkpt lat="47.53133" lon="-2.8442">
        <ele>13</ele>
        <time>2026-08-25T14:30:21Z</time>
      </trkpt>
      <trkpt lat="47.5313" lon="-2.84416">
        <ele>13</ele>
        <time>2026-08-25T14:30:22Z</time>
      </trkpt>
      <trkpt lat="47.53128" lon="-2.84411">
        <ele>13</ele>
        <time>2026-08-25T14:30:23Z</time>
      </trkpt>
      <trkpt lat="47.53126" lon="-2.84406">
        <ele>13</ele>
        <time>2026-08-25T14:30:24Z</time>
      </trkpt>
      <trkpt lat="47.53123" lon="-2.84401">
        <ele>13</ele>
        <time>2026-08-25T14:30:25Z</time>
      </trkpt>
      <trkpt lat="47.53121" lon="-2.84396">
        <ele>13</ele>
        <time>2026-08-25T14:30:26Z</time>
      </trkpt>
      <trkpt lat="47.53119" lon="-2.8439">
        <ele>13</ele>
        <time>2026-08-25T14:30:27Z</time>
      </trkpt>
      <trkpt lat="47.53117" lon="-2.84385">
        <ele>13</ele>
        <time>2026-08-25T14:30:28Z</time>
      </trkpt>
      <trkpt lat="47.53114" lon="-2.84379">
        <ele>13</ele>
        <time>2026-08-25T14:30:29Z</time>
      </trkpt>
      <trkpt lat="47.53112" lon="-2.84373">
        <ele>13</ele>
        <time>2026-08-25T14:30:30Z</time>
      </trkpt>
      <trkpt lat="47.5311" lon="-2.84367">
        <ele>13</ele>
        <time>2026-08-25T14:30:31Z</time>
      </trkpt>
      <trkpt lat="47.53108" lon="-2.84361">
        <ele>13</ele>
        <time>2026-08-25T14:30:32Z</time>
      </trkpt>
      <trkpt lat="47.53106" lon="-2.84355">
        <ele>13</ele>
        <time>2026-08-25T14:30:33Z</time>
      </trkpt>
      <trkpt lat="47.53104" lon="-2.84349">
        <ele>13</ele>
        <time>2026-08-25T14:30:34Z</time>
      </trkpt>
      <trkpt lat="47.53102" lon="-2.84342">
        <ele>13</ele>
        <time>2026-08-25T14:30:35Z</time>
      </trkpt>
      <trkpt lat="47.531" lon="-2.84336">
        <ele>13</ele>
        <time>2026-08-25T14:30:36Z</time>
      </trkpt>
      <trkpt lat="47.53098" lon="-2.8433">
        <ele>13</ele>
        <time>2026-08-25T14:30:37Z</time>
      </trkpt>
      <trkpt lat="47.53096" lon="-2.84324">
        <ele>13</ele>
        <time>2026-08-25T14:30:38Z</time>
      </trkpt>
      <trkpt lat="47.53095" lon="-2.84317">
        <ele>13</ele>
        <time>2026-08-25T14:30:39Z</time>
      </trkpt>
      <trkpt lat="47.53093" lon="-2.8431">
        <ele>13</ele>
        <time>2026-08-25T14:30:40Z</time>
      </trkpt>
      <trkpt lat="47.53091" lon="-2.84304">
        <ele>13</ele>
        <time>2026-08-25T14:30:41Z</time>
      </trkpt>
      <trkpt lat="47.53088" lon="-2.84297">
        <ele>12.9</ele>
        <time>2026-08-25T14:30:42Z</time>
      </trkpt>
      <trkpt lat="47.53086" lon="-2.84291">
        <ele>12.9</ele>
        <time>2026-08-25T14:30:43Z</time>
      </trkpt>
      <trkpt lat="47.53083" lon="-2.84284">
        <ele>13</ele>
        <time>2026-08-25T14:30:44Z</time>
      </trkpt>
      <trkpt lat="47.53081" lon="-2.84278">
        <ele>12.9</ele>
        <time>2026-08-25T14:30:45Z</time>
      </trkpt>
      <trkpt lat="47.53078" lon="-2.84271">
        <ele>12.6</ele>
        <time>2026-08-25T14:30:46Z</time>
      </trkpt>
      <trkpt lat="47.53075" lon="-2.84264">
        <ele>12.4</ele>
        <time>2026-08-25T14:30:47Z</time>
      </trkpt>
      <trkpt lat="47.53073" lon="-2.84257">
        <ele>12.2</ele>
        <time>2026-08-25T14:30:48Z</time>
      </trkpt>
      <trkpt lat="47.5307" lon="-2.8425">
        <ele>12</ele>
        <time>2026-08-25T14:30:49Z</time>
      </trkpt>
      <trkpt lat="47.53067" lon="-2.84243">
        <ele>12</ele>
        <time>2026-08-25T14:30:50Z</time>
      </trkpt>
      <trkpt lat="47.53064" lon="-2.84236">
        <ele>12</ele>
        <time>2026-08-25T14:30:51Z</time>
      </trkpt>
      <trkpt lat="47.53061" lon="-2.84229">
        <ele>12</ele>
        <time>2026-08-25T14:30:52Z</time>
      </trkpt>
      <trkpt lat="47.53058" lon="-2.84222">
        <ele>12</ele>
        <time>2026-08-25T14:30:53Z</time>
      </trkpt>
      <trkpt lat="47.53055" lon="-2.84215">
        <ele>12</ele>
        <time>2026-08-25T14:30:54Z</time>
      </trkpt>
      <trkpt lat="47.53052" lon="-2.84208">
        <ele>11.9</ele>
        <time>2026-08-25T14:30:55Z</time>
      </trkpt>
      <trkpt lat="47.53048" lon="-2.84201">
        <ele>11.7</ele>
        <time>2026-08-25T14:30:56Z</time>
      </trkpt>
      <trkpt lat="47.53045" lon="-2.84195">
        <ele>11.6</ele>
        <time>2026-08-25T14:30:57Z</time>
      </trkpt>
      <trkpt lat="47.53042" lon="-2.84188">
        <ele>11.5</ele>
        <time>2026-08-25T14:30:58Z</time>
      </trkpt>
      <trkpt lat="47.53038" lon="-2.84181">
        <ele>11.4</ele>
        <time>2026-08-25T14:30:59Z</time>
      </trkpt>
      <trkpt lat="47.53035" lon="-2.84174">
        <ele>11.3</ele>
        <time>2026-08-25T14:31:00Z</time>
      </trkpt>
      <trkpt lat="47.53032" lon="-2.84167">
        <ele>11.2</ele>
        <time>2026-08-25T14:31:01Z</time>
      </trkpt>
      <trkpt lat="47.53029" lon="-2.8416">
        <ele>11</ele>
        <time>2026-08-25T14:31:02Z</time>
      </trkpt>
      <trkpt lat="47.53026" lon="-2.84152">
        <ele>11</ele>
        <time>2026-08-25T14:31:03Z</time>
      </trkpt>
      <trkpt lat="47.53022" lon="-2.84145">
        <ele>11</ele>
        <time>2026-08-25T14:31:04Z</time>
      </trkpt>
      <trkpt lat="47.53019" lon="-2.84138">
        <ele>11</ele>
        <time>2026-08-25T14:31:05Z</time>
      </trkpt>
      <trkpt lat="47.53015" lon="-2.84131">
        <ele>11.2</ele>
        <time>2026-08-25T14:31:06Z</time>
      </trkpt>
      <trkpt lat="47.53011" lon="-2.84125">
        <ele>11.2</ele>
        <time>2026-08-25T14:31:07Z</time>
      </trkpt>
      <trkpt lat="47.53008" lon="-2.84118">
        <ele>11.2</ele>
        <time>2026-08-25T14:31:08Z</time>
      </trkpt>
      <trkpt lat="47.53004" lon="-2.84112">
        <ele>11.1</ele>
        <time>2026-08-25T14:31:09Z</time>
      </trkpt>
      <trkpt lat="47.53001" lon="-2.84106">
        <ele>11.2</ele>
        <time>2026-08-25T14:31:10Z</time>
      </trkpt>
      <trkpt lat="47.52997" lon="-2.841">
        <ele>11.5</ele>
        <time>2026-08-25T14:31:11Z</time>
      </trkpt>
      <trkpt lat="47.52993" lon="-2.84094">
        <ele>11.7</ele>
        <time>2026-08-25T14:31:12Z</time>
      </trkpt>
      <trkpt lat="47.5299" lon="-2.84088">
        <ele>11.9</ele>
        <time>2026-08-25T14:31:13Z</time>
      </trkpt>
      <trkpt lat="47.52987" lon="-2.84082">
        <ele>12</ele>
        <time>2026-08-25T14:31:14Z</time>
      </trkpt>
      <trkpt lat="47.52983" lon="-2.84076">
        <ele>12</ele>
        <time>2026-08-25T14:31:15Z</time>
      </trkpt>
      <trkpt lat="47.52979" lon="-2.8407">
        <ele>12</ele>
        <time>2026-08-25T14:31:16Z</time>
      </trkpt>
      <trkpt lat="47.52976" lon="-2.84065">
        <ele>12</ele>
        <time>2026-08-25T14:31:17Z</time>
      </trkpt>
      <trkpt lat="47.52972" lon="-2.84059">
        <ele>12</ele>
        <time>2026-08-25T14:31:18Z</time>
      </trkpt>
      <trkpt lat="47.52968" lon="-2.84054">
        <ele>12</ele>
        <time>2026-08-25T14:31:19Z</time>
      </trkpt>
      <trkpt lat="47.52965" lon="-2.84048">
        <ele>12.2</ele>
        <time>2026-08-25T14:31:20Z</time>
      </trkpt>
      <trkpt lat="47.52962" lon="-2.84043">
        <ele>12.3</ele>
        <time>2026-08-25T14:31:21Z</time>
      </trkpt>
      <trkpt lat="47.52959" lon="-2.84037">
        <ele>12.4</ele>
        <time>2026-08-25T14:31:22Z</time>
      </trkpt>
      <trkpt lat="47.52956" lon="-2.84031">
        <ele>12.4</ele>
        <time>2026-08-25T14:31:23Z</time>
      </trkpt>
      <trkpt lat="47.52953" lon="-2.84025">
        <ele>12.4</ele>
        <time>2026-08-25T14:31:24Z</time>
      </trkpt>
      <trkpt lat="47.52949" lon="-2.84019">
        <ele>12.4</ele>
        <time>2026-08-25T14:31:25Z</time>
      </trkpt>
      <trkpt lat="47.52947" lon="-2.84012">
        <ele>12.6</ele>
        <time>2026-08-25T14:31:26Z</time>
      </trkpt>
      <trkpt lat="47.52944" lon="-2.84006">
        <ele>12.8</ele>
        <time>2026-08-25T14:31:27Z</time>
      </trkpt>
      <trkpt lat="47.52941" lon="-2.83999">
        <ele>12.9</ele>
        <time>2026-08-25T14:31:28Z</time>
      </trkpt>
      <trkpt lat="47.52939" lon="-2.83992">
        <ele>12.9</ele>
        <time>2026-08-25T14:31:29Z</time>
      </trkpt>
      <trkpt lat="47.52936" lon="-2.83985">
        <ele>12.9</ele>
        <time>2026-08-25T14:31:30Z</time>
      </trkpt>
      <trkpt lat="47.52934" lon="-2.83978">
        <ele>12.9</ele>
        <time>2026-08-25T14:31:31Z</time>
      </trkpt>
      <trkpt lat="47.52931" lon="-2.83971">
        <ele>13</ele>
        <time>2026-08-25T14:31:32Z</time>
      </trkpt>
      <trkpt lat="47.52929" lon="-2.83964">
        <ele>13</ele>
        <time>2026-08-25T14:31:33Z</time>
      </trkpt>
      <trkpt lat="47.52927" lon="-2.83958">
        <ele>13</ele>
        <time>2026-08-25T14:31:34Z</time>
      </trkpt>
      <trkpt lat="47.52925" lon="-2.83951">
        <ele>13</ele>
        <time>2026-08-25T14:31:35Z</time>
      </trkpt>
      <trkpt lat="47.52923" lon="-2.83945">
        <ele>13</ele>
        <time>2026-08-25T14:31:36Z</time>
      </trkpt>
      <trkpt lat="47.52921" lon="-2.83938">
        <ele>13</ele>
        <time>2026-08-25T14:31:37Z</time>
      </trkpt>
      <trkpt lat="47.52919" lon="-2.83932">
        <ele>13</ele>
        <time>2026-08-25T14:31:38Z</time>
      </trkpt>
      <trkpt lat="47.52916" lon="-2.83927">
        <ele>13</ele>
        <time>2026-08-25T14:31:39Z</time>
      </trkpt>
      <trkpt lat="47.52913" lon="-2.83922">
        <ele>12.9</ele>
        <time>2026-08-25T14:31:40Z</time>
      </trkpt>
      <trkpt lat="47.52908" lon="-2.83918">
        <ele>12.7</ele>
        <time>2026-08-25T14:31:41Z</time>
      </trkpt>
      <trkpt lat="47.52904" lon="-2.83914">
        <ele>12.6</ele>
        <time>2026-08-25T14:31:42Z</time>
      </trkpt>
      <trkpt lat="47.52899" lon="-2.8391">
        <ele>12.5</ele>
        <time>2026-08-25T14:31:43Z</time>
      </trkpt>
      <trkpt lat="47.52895" lon="-2.83906">
        <ele>12.3</ele>
        <time>2026-08-25T14:31:44Z</time>
      </trkpt>
      <trkpt lat="47.5289" lon="-2.83903">
        <ele>12.1</ele>
        <time>2026-08-25T14:31:45Z</time>
      </trkpt>
      <trkpt lat="47.52885" lon="-2.83899">
        <ele>12</ele>
        <time>2026-08-25T14:31:46Z</time>
      </trkpt>
      <trkpt lat="47.5288" lon="-2.83895">
        <ele>12</ele>
        <time>2026-08-25T14:31:47Z</time>
      </trkpt>
      <trkpt lat="47.52874" lon="-2.83891">
        <ele>12</ele>
        <time>2026-08-25T14:31:48Z</time>
      </trkpt>
      <trkpt lat="47.52869" lon="-2.83886">
        <ele>12</ele>
        <time>2026-08-25T14:31:49Z</time>
      </trkpt>
      <trkpt lat="47.52864" lon="-2.83882">
        <ele>12</ele>
        <time>2026-08-25T14:31:50Z</time>
      </trkpt>
      <trkpt lat="47.52858" lon="-2.83877">
        <ele>11.9</ele>
        <time>2026-08-25T14:31:51Z</time>
      </trkpt>
      <trkpt lat="47.52853" lon="-2.83873">
        <ele>11.7</ele>
        <time>2026-08-25T14:31:52Z</time>
      </trkpt>
      <trkpt lat="47.52847" lon="-2.83869">
        <ele>11.5</ele>
        <time>2026-08-25T14:31:53Z</time>
      </trkpt>
      <trkpt lat="47.52842" lon="-2.83864">
        <ele>11.3</ele>
        <time>2026-08-25T14:31:54Z</time>
      </trkpt>
      <trkpt lat="47.52836" lon="-2.8386">
        <ele>11.1</ele>
        <time>2026-08-25T14:31:55Z</time>
      </trkpt>
      <trkpt lat="47.5283" lon="-2.83856">
        <ele>11</ele>
        <time>2026-08-25T14:31:56Z</time>
      </trkpt>
      <trkpt lat="47.52825" lon="-2.83851">
        <ele>11</ele>
        <time>2026-08-25T14:31:57Z</time>
      </trkpt>
      <trkpt lat="47.52819" lon="-2.83846">
        <ele>11</ele>
        <time>2026-08-25T14:31:58Z</time>
      </trkpt>
      <trkpt lat="47.52814" lon="-2.83842">
        <ele>11</ele>
        <time>2026-08-25T14:31:59Z</time>
      </trkpt>
      <trkpt lat="47.52808" lon="-2.83838">
        <ele>11</ele>
        <time>2026-08-25T14:32:00Z</time>
      </trkpt>
      <trkpt lat="47.52803" lon="-2.83834">
        <ele>10.9</ele>
        <time>2026-08-25T14:32:01Z</time>
      </trkpt>
      <trkpt lat="47.52798" lon="-2.8383">
        <ele>10.8</ele>
        <time>2026-08-25T14:32:02Z</time>
      </trkpt>
      <trkpt lat="47.52792" lon="-2.83826">
        <ele>10.6</ele>
        <time>2026-08-25T14:32:03Z</time>
      </trkpt>
      <trkpt lat="47.52787" lon="-2.83822">
        <ele>10.6</ele>
        <time>2026-08-25T14:32:04Z</time>
      </trkpt>
      <trkpt lat="47.52782" lon="-2.83818">
        <ele>10.6</ele>
        <time>2026-08-25T14:32:05Z</time>
      </trkpt>
      <trkpt lat="47.52777" lon="-2.83814">
        <ele>10.7</ele>
        <time>2026-08-25T14:32:06Z</time>
      </trkpt>
      <trkpt lat="47.52772" lon="-2.83809">
        <ele>10.7</ele>
        <time>2026-08-25T14:32:07Z</time>
      </trkpt>
      <trkpt lat="47.52767" lon="-2.83805">
        <ele>10.6</ele>
        <time>2026-08-25T14:32:08Z</time>
      </trkpt>
      <trkpt lat="47.52762" lon="-2.83801">
        <ele>10.4</ele>
        <time>2026-08-25T14:32:09Z</time>
      </trkpt>
      <trkpt lat="47.52757" lon="-2.83798">
        <ele>10.3</ele>
        <time>2026-08-25T14:32:10Z</time>
      </trkpt>
      <trkpt lat="47.52752" lon="-2.83794">
        <ele>10.1</ele>
        <time>2026-08-25T14:32:11Z</time>
      </trkpt>
      <trkpt lat="47.52746" lon="-2.8379">
        <ele>10</ele>
        <time>2026-08-25T14:32:12Z</time>
      </trkpt>
      <trkpt lat="47.52741" lon="-2.83786">
        <ele>10</ele>
        <time>2026-08-25T14:32:13Z</time>
      </trkpt>
      <trkpt lat="47.52736" lon="-2.83782">
        <ele>10</ele>
        <time>2026-08-25T14:32:14Z</time>
      </trkpt>
      <trkpt lat="47.52731" lon="-2.83778">
        <ele>10</ele>
        <time>2026-08-25T14:32:15Z</time>
      </trkpt>
      <trkpt lat="47.52726" lon="-2.83774">
        <ele>10</ele>
        <time>2026-08-25T14:32:16Z</time>
      </trkpt>
      <trkpt lat="47.52722" lon="-2.8377">
        <ele>10</ele>
        <time>2026-08-25T14:32:17Z</time>
      </trkpt>
      <trkpt lat="47.52716" lon="-2.83766">
        <ele>9.8</ele>
        <time>2026-08-25T14:32:18Z</time>
      </trkpt>
      <trkpt lat="47.52711" lon="-2.83762">
        <ele>9.6</ele>
        <time>2026-08-25T14:32:19Z</time>
      </trkpt>
      <trkpt lat="47.52707" lon="-2.83758">
        <ele>9.5</ele>
        <time>2026-08-25T14:32:20Z</time>
      </trkpt>
      <trkpt lat="47.52702" lon="-2.83754">
        <ele>9.3</ele>
        <time>2026-08-25T14:32:21Z</time>
      </trkpt>
      <trkpt lat="47.52697" lon="-2.8375">
        <ele>9.1</ele>
        <time>2026-08-25T14:32:22Z</time>
      </trkpt>
      <trkpt lat="47.52693" lon="-2.83746">
        <ele>9</ele>
        <time>2026-08-25T14:32:23Z</time>
      </trkpt>
      <trkpt lat="47.52688" lon="-2.83743">
        <ele>9</ele>
        <time>2026-08-25T14:32:24Z</time>
      </trkpt>
      <trkpt lat="47.52684" lon="-2.83739">
        <ele>9</ele>
        <time>2026-08-25T14:32:25Z</time>
      </trkpt>
      <trkpt lat="47.5268" lon="-2.83736">
        <ele>9</ele>
        <time>2026-08-25T14:32:26Z</time>
      </trkpt>
      <trkpt lat="47.52676" lon="-2.83733">
        <ele>9</ele>
        <time>2026-08-25T14:32:27Z</time>
      </trkpt>
      <trkpt lat="47.52672" lon="-2.8373">
        <ele>9</ele>
        <time>2026-08-25T14:32:28Z</time>
      </trkpt>
      <trkpt lat="47.52668" lon="-2.83727">
        <ele>9</ele>
        <time>2026-08-25T14:32:29Z</time>
      </trkpt>
      <trkpt lat="47.52665" lon="-2.83724">
        <ele>9</ele>
        <time>2026-08-25T14:32:30Z</time>
      </trkpt>
      <trkpt lat="47.52663" lon="-2.83723">
        <ele>9</ele>
        <time>2026-08-25T14:32:31Z</time>
      </trkpt>
      <trkpt lat="47.52663" lon="-2.83722">
        <ele>9</ele>
        <time>2026-08-25T14:32:32Z</time>
      </trkpt>
      <trkpt lat="47.52662" lon="-2.83721">
        <ele>9</ele>
        <time>2026-08-25T14:32:33Z</time>
      </trkpt>
      <trkpt lat="47.52662" lon="-2.83721">
        <ele>9</ele>
        <time>2026-08-25T14:32:34Z</time>
      </trkpt>
      <trkpt lat="47.52657" lon="-2.83717">
        <ele>9</ele>
        <time>2026-08-25T14:33:38Z</time>
      </trkpt>
      <trkpt lat="47.52655" lon="-2.83716">
        <ele>9</ele>
        <time>2026-08-25T14:33:39Z</time>
      </trkpt>
      <trkpt lat="47.52653" lon="-2.83714">
        <ele>9</ele>
        <time>2026-08-25T14:33:40Z</time>
      </trkpt>
      <trkpt lat="47.5265" lon="-2.83712">
        <ele>9</ele>
        <time>2026-08-25T14:33:41Z</time>
      </trkpt>
      <trkpt lat="47.52646" lon="-2.83709">
        <ele>9</ele>
        <time>2026-08-25T14:33:42Z</time>
      </trkpt>
      <trkpt lat="47.52643" lon="-2.83707">
        <ele>9</ele>
        <time>2026-08-25T14:33:43Z</time>
      </trkpt>
      <trkpt lat="47.52639" lon="-2.83704">
        <ele>9</ele>
        <time>2026-08-25T14:33:44Z</time>
      </trkpt>
      <trkpt lat="47.52635" lon="-2.83701">
        <ele>8.9</ele>
        <time>2026-08-25T14:33:45Z</time>
      </trkpt>
      <trkpt lat="47.52631" lon="-2.83698">
        <ele>8.8</ele>
        <time>2026-08-25T14:33:46Z</time>
      </trkpt>
      <trkpt lat="47.52627" lon="-2.83695">
        <ele>8.6</ele>
        <time>2026-08-25T14:33:47Z</time>
      </trkpt>
      <trkpt lat="47.52624" lon="-2.83692">
        <ele>8.5</ele>
        <time>2026-08-25T14:33:48Z</time>
      </trkpt>
      <trkpt lat="47.5262" lon="-2.83689">
        <ele>8.3</ele>
        <time>2026-08-25T14:33:49Z</time>
      </trkpt>
      <trkpt lat="47.52617" lon="-2.83686">
        <ele>8.2</ele>
        <time>2026-08-25T14:33:50Z</time>
      </trkpt>
      <trkpt lat="47.52613" lon="-2.83683">
        <ele>8.1</ele>
        <time>2026-08-25T14:33:51Z</time>
      </trkpt>
      <trkpt lat="47.52609" lon="-2.8368">
        <ele>8</ele>
        <time>2026-08-25T14:33:52Z</time>
      </trkpt>
      <trkpt lat="47.52606" lon="-2.83676">
        <ele>8</ele>
        <time>2026-08-25T14:33:53Z</time>
      </trkpt>
      <trkpt lat="47.52603" lon="-2.83674">
        <ele>8</ele>
        <time>2026-08-25T14:33:54Z</time>
      </trkpt>
      <trkpt lat="47.52599" lon="-2.83671">
        <ele>8</ele>
        <time>2026-08-25T14:33:55Z</time>
      </trkpt>
      <trkpt lat="47.52595" lon="-2.83668">
        <ele>8</ele>
        <time>2026-08-25T14:33:56Z</time>
      </trkpt>
      <trkpt lat="47.52592" lon="-2.83665">
        <ele>8</ele>
        <time>2026-08-25T14:33:57Z</time>
      </trkpt>
      <trkpt lat="47.52588" lon="-2.83663">
        <ele>8</ele>
        <time>2026-08-25T14:33:58Z</time>
      </trkpt>
      <trkpt lat="47.52584" lon="-2.8366">
        <ele>8</ele>
        <time>2026-08-25T14:33:59Z</time>
      </trkpt>
      <trkpt lat="47.5258" lon="-2.83657">
        <ele>8</ele>
        <time>2026-08-25T14:34:00Z</time>
      </trkpt>
      <trkpt lat="47.52577" lon="-2.83654">
        <ele>8</ele>
        <time>2026-08-25T14:34:01Z</time>
      </trkpt>
      <trkpt lat="47.52573" lon="-2.83651">
        <ele>8</ele>
        <time>2026-08-25T14:34:02Z</time>
      </trkpt>
      <trkpt lat="47.52569" lon="-2.83648">
        <ele>8</ele>
        <time>2026-08-25T14:34:03Z</time>
      </trkpt>
      <trkpt lat="47.52566" lon="-2.83646">
        <ele>8</ele>
        <time>2026-08-25T14:34:04Z</time>
      </trkpt>
      <trkpt lat="47.52563" lon="-2.83644">
        <ele>8</ele>
        <time>2026-08-25T14:34:05Z</time>
      </trkpt>
      <trkpt lat="47.5256" lon="-2.83642">
        <ele>8</ele>
        <time>2026-08-25T14:34:06Z</time>
      </trkpt>
      <trkpt lat="47.52557" lon="-2.8364">
        <ele>8</ele>
        <time>2026-08-25T14:34:07Z</time>
      </trkpt>
      <trkpt lat="47.52553" lon="-2.83637">
        <ele>8</ele>
        <time>2026-08-25T14:34:08Z</time>
      </trkpt>
      <trkpt lat="47.52549" lon="-2.83633">
        <ele>8</ele>
        <time>2026-08-25T14:34:09Z</time>
      </trkpt>
      <trkpt lat="47.52545" lon="-2.83629">
        <ele>8</ele>
        <time>2026-08-25T14:34:10Z</time>
      </trkpt>
      <trkpt lat="47.5254" lon="-2.83626">
        <ele>8</ele>
        <time>2026-08-25T14:34:11Z</time>
      </trkpt>
      <trkpt lat="47.52535" lon="-2.83622">
        <ele>8</ele>
        <time>2026-08-25T14:34:12Z</time>
      </trkpt>
      <trkpt lat="47.52531" lon="-2.83618">
        <ele>8</ele>
        <time>2026-08-25T14:34:13Z</time>
      </trkpt>
      <trkpt lat="47.52526" lon="-2.83614">
        <ele>8</ele>
        <time>2026-08-25T14:34:14Z</time>
      </trkpt>
      <trkpt lat="47.52521" lon="-2.8361">
        <ele>8</ele>
        <time>2026-08-25T14:34:15Z</time>
      </trkpt>
      <trkpt lat="47.52517" lon="-2.83607">
        <ele>7.9</ele>
        <time>2026-08-25T14:34:16Z</time>
      </trkpt>
      <trkpt lat="47.52513" lon="-2.83604">
        <ele>7.9</ele>
        <time>2026-08-25T14:34:17Z</time>
      </trkpt>
      <trkpt lat="47.52509" lon="-2.836">
        <ele>7.7</ele>
        <time>2026-08-25T14:34:18Z</time>
      </trkpt>
      <trkpt lat="47.52504" lon="-2.83596">
        <ele>7.5</ele>
        <time>2026-08-25T14:34:19Z</time>
      </trkpt>
      <trkpt lat="47.52499" lon="-2.83591">
        <ele>7.3</ele>
        <time>2026-08-25T14:34:20Z</time>
      </trkpt>
      <trkpt lat="47.52494" lon="-2.83586">
        <ele>7.1</ele>
        <time>2026-08-25T14:34:21Z</time>
      </trkpt>
      <trkpt lat="47.52489" lon="-2.83581">
        <ele>7</ele>
        <time>2026-08-25T14:34:22Z</time>
      </trkpt>
      <trkpt lat="47.52484" lon="-2.83578">
        <ele>7</ele>
        <time>2026-08-25T14:34:23Z</time>
      </trkpt>
      <trkpt lat="47.5248" lon="-2.83576">
        <ele>7</ele>
        <time>2026-08-25T14:34:24Z</time>
      </trkpt>
      <trkpt lat="47.52476" lon="-2.83574">
        <ele>7</ele>
        <time>2026-08-25T14:34:25Z</time>
      </trkpt>
      <trkpt lat="47.52471" lon="-2.8357">
        <ele>7</ele>
        <time>2026-08-25T14:34:26Z</time>
      </trkpt>
      <trkpt lat="47.52466" lon="-2.83566">
        <ele>7.1</ele>
        <time>2026-08-25T14:34:27Z</time>
      </trkpt>
      <trkpt lat="47.52462" lon="-2.83562">
        <ele>7.1</ele>
        <time>2026-08-25T14:34:28Z</time>
      </trkpt>
      <trkpt lat="47.52457" lon="-2.83558">
        <ele>7</ele>
        <time>2026-08-25T14:34:29Z</time>
      </trkpt>
      <trkpt lat="47.52452" lon="-2.83553">
        <ele>7</ele>
        <time>2026-08-25T14:34:30Z</time>
      </trkpt>
      <trkpt lat="47.52447" lon="-2.8355">
        <ele>7</ele>
        <time>2026-08-25T14:34:31Z</time>
      </trkpt>
      <trkpt lat="47.52442" lon="-2.83546">
        <ele>7.1</ele>
        <time>2026-08-25T14:34:32Z</time>
      </trkpt>
      <trkpt lat="47.52438" lon="-2.83541">
        <ele>7.1</ele>
        <time>2026-08-25T14:34:33Z</time>
      </trkpt>
      <trkpt lat="47.52434" lon="-2.83537">
        <ele>7.1</ele>
        <time>2026-08-25T14:34:34Z</time>
      </trkpt>
      <trkpt lat="47.5243" lon="-2.83532">
        <ele>7.1</ele>
        <time>2026-08-25T14:34:35Z</time>
      </trkpt>
      <trkpt lat="47.52425" lon="-2.83528">
        <ele>7</ele>
        <time>2026-08-25T14:34:36Z</time>
      </trkpt>
      <trkpt lat="47.52421" lon="-2.83524">
        <ele>7</ele>
        <time>2026-08-25T14:34:37Z</time>
      </trkpt>
      <trkpt lat="47.52417" lon="-2.83521">
        <ele>7</ele>
        <time>2026-08-25T14:34:38Z</time>
      </trkpt>
      <trkpt lat="47.52413" lon="-2.83518">
        <ele>7.1</ele>
        <time>2026-08-25T14:34:39Z</time>
      </trkpt>
      <trkpt lat="47.5241" lon="-2.83515">
        <ele>7.1</ele>
        <time>2026-08-25T14:34:40Z</time>
      </trkpt>
      <trkpt lat="47.52406" lon="-2.83512">
        <ele>7.2</ele>
        <time>2026-08-25T14:34:41Z</time>
      </trkpt>
      <trkpt lat="47.52402" lon="-2.83509">
        <ele>7.2</ele>
        <time>2026-08-25T14:34:42Z</time>
      </trkpt>
      <trkpt lat="47.52399" lon="-2.83506">
        <ele>7.1</ele>
        <time>2026-08-25T14:34:43Z</time>
      </trkpt>
      <trkpt lat="47.52396" lon="-2.83501">
        <ele>7</ele>
        <time>2026-08-25T14:34:44Z</time>
      </trkpt>
      <trkpt lat="47.52394" lon="-2.83496">
        <ele>7</ele>
        <time>2026-08-25T14:34:45Z</time>
      </trkpt>
      <trkpt lat="47.52391" lon="-2.83489">
        <ele>7</ele>
        <time>2026-08-25T14:34:46Z</time>
      </trkpt>
      <trkpt lat="47.52389" lon="-2.83483">
        <ele>7</ele>
        <time>2026-08-25T14:34:47Z</time>
      </trkpt>
      <trkpt lat="47.52387" lon="-2.83476">
        <ele>7</ele>
        <time>2026-08-25T14:34:48Z</time>
      </trkpt>
      <trkpt lat="47.52385" lon="-2.83469">
        <ele>7</ele>
        <time>2026-08-25T14:34:49Z</time>
      </trkpt>
      <trkpt lat="47.52382" lon="-2.83462">
        <ele>7</ele>
        <time>2026-08-25T14:34:50Z</time>
      </trkpt>
      <trkpt lat="47.5238" lon="-2.83454">
        <ele>7</ele>
        <time>2026-08-25T14:34:51Z</time>
      </trkpt>
      <trkpt lat="47.52378" lon="-2.83447">
        <ele>7</ele>
        <time>2026-08-25T14:34:52Z</time>
      </trkpt>
      <trkpt lat="47.52375" lon="-2.83439">
        <ele>6.8</ele>
        <time>2026-08-25T14:34:53Z</time>
      </trkpt>
      <trkpt lat="47.52373" lon="-2.83431">
        <ele>6.5</ele>
        <time>2026-08-25T14:34:54Z</time>
      </trkpt>
      <trkpt lat="47.5237" lon="-2.83423">
        <ele>6.2</ele>
        <time>2026-08-25T14:34:55Z</time>
      </trkpt>
      <trkpt lat="47.52367" lon="-2.83415">
        <ele>5.9</ele>
        <time>2026-08-25T14:34:56Z</time>
      </trkpt>
      <trkpt lat="47.52364" lon="-2.83407">
        <ele>5.7</ele>
        <time>2026-08-25T14:34:57Z</time>
      </trkpt>
      <trkpt lat="47.52361" lon="-2.834">
        <ele>5.4</ele>
        <time>2026-08-25T14:34:58Z</time>
      </trkpt>
      <trkpt lat="47.52357" lon="-2.83394">
        <ele>5.2</ele>
        <time>2026-08-25T14:34:59Z</time>
      </trkpt>
      <trkpt lat="47.52352" lon="-2.83387">
        <ele>5</ele>
        <time>2026-08-25T14:35:00Z</time>
      </trkpt>
      <trkpt lat="47.52348" lon="-2.83381">
        <ele>5</ele>
        <time>2026-08-25T14:35:01Z</time>
      </trkpt>
      <trkpt lat="47.52343" lon="-2.83375">
        <ele>5</ele>
        <time>2026-08-25T14:35:02Z</time>
      </trkpt>
      <trkpt lat="47.52339" lon="-2.83369">
        <ele>5</ele>
        <time>2026-08-25T14:35:03Z</time>
      </trkpt>
      <trkpt lat="47.52334" lon="-2.83362">
        <ele>5</ele>
        <time>2026-08-25T14:35:04Z</time>
      </trkpt>
      <trkpt lat="47.5233" lon="-2.83356">
        <ele>5</ele>
        <time>2026-08-25T14:35:05Z</time>
      </trkpt>
      <trkpt lat="47.52326" lon="-2.8335">
        <ele>5</ele>
        <time>2026-08-25T14:35:06Z</time>
      </trkpt>
      <trkpt lat="47.52322" lon="-2.83343">
        <ele>5</ele>
        <time>2026-08-25T14:35:07Z</time>
      </trkpt>
      <trkpt lat="47.52318" lon="-2.83335">
        <ele>5</ele>
        <time>2026-08-25T14:35:08Z</time>
      </trkpt>
      <trkpt lat="47.52315" lon="-2.83327">
        <ele>4.9</ele>
        <time>2026-08-25T14:35:09Z</time>
      </trkpt>
      <trkpt lat="47.52313" lon="-2.8332">
        <ele>4.9</ele>
        <time>2026-08-25T14:35:10Z</time>
      </trkpt>
      <trkpt lat="47.52311" lon="-2.83311">
        <ele>4.8</ele>
        <time>2026-08-25T14:35:11Z</time>
      </trkpt>
      <trkpt lat="47.52309" lon="-2.83303">
        <ele>4.9</ele>
        <time>2026-08-25T14:35:12Z</time>
      </trkpt>
      <trkpt lat="47.52307" lon="-2.83296">
        <ele>5</ele>
        <time>2026-08-25T14:35:13Z</time>
      </trkpt>
      <trkpt lat="47.52306" lon="-2.83288">
        <ele>5</ele>
        <time>2026-08-25T14:35:14Z</time>
      </trkpt>
      <trkpt lat="47.52304" lon="-2.83279">
        <ele>5</ele>
        <time>2026-08-25T14:35:15Z</time>
      </trkpt>
      <trkpt lat="47.52303" lon="-2.83271">
        <ele>5</ele>
        <time>2026-08-25T14:35:16Z</time>
      </trkpt>
      <trkpt lat="47.52302" lon="-2.83263">
        <ele>5</ele>
        <time>2026-08-25T14:35:17Z</time>
      </trkpt>
      <trkpt lat="47.52301" lon="-2.83254">
        <ele>5</ele>
        <time>2026-08-25T14:35:18Z</time>
      </trkpt>
      <trkpt lat="47.523" lon="-2.83246">
        <ele>5</ele>
        <time>2026-08-25T14:35:19Z</time>
      </trkpt>
      <trkpt lat="47.523" lon="-2.83238">
        <ele>5</ele>
        <time>2026-08-25T14:35:20Z</time>
      </trkpt>
      <trkpt lat="47.52299" lon="-2.83229">
        <ele>5</ele>
        <time>2026-08-25T14:35:21Z</time>
      </trkpt>
      <trkpt lat="47.52298" lon="-2.83221">
        <ele>5</ele>
        <time>2026-08-25T14:35:22Z</time>
      </trkpt>
      <trkpt lat="47.52297" lon="-2.83213">
        <ele>5.2</ele>
        <time>2026-08-25T14:35:23Z</time>
      </trkpt>
      <trkpt lat="47.52296" lon="-2.83205">
        <ele>5.4</ele>
        <time>2026-08-25T14:35:24Z</time>
      </trkpt>
      <trkpt lat="47.52295" lon="-2.83197">
        <ele>5.6</ele>
        <time>2026-08-25T14:35:25Z</time>
      </trkpt>
      <trkpt lat="47.52294" lon="-2.83189">
        <ele>5.8</ele>
        <time>2026-08-25T14:35:26Z</time>
      </trkpt>
      <trkpt lat="47.52293" lon="-2.83181">
        <ele>6</ele>
        <time>2026-08-25T14:35:27Z</time>
      </trkpt>
      <trkpt lat="47.52292" lon="-2.83173">
        <ele>6.3</ele>
        <time>2026-08-25T14:35:28Z</time>
      </trkpt>
      <trkpt lat="47.52292" lon="-2.83165">
        <ele>6.5</ele>
        <time>2026-08-25T14:35:29Z</time>
      </trkpt>
      <trkpt lat="47.52291" lon="-2.83157">
        <ele>6.7</ele>
        <time>2026-08-25T14:35:30Z</time>
      </trkpt>
      <trkpt lat="47.5229" lon="-2.83149">
        <ele>6.8</ele>
        <time>2026-08-25T14:35:31Z</time>
      </trkpt>
      <trkpt lat="47.52289" lon="-2.83142">
        <ele>6.9</ele>
        <time>2026-08-25T14:35:32Z</time>
      </trkpt>
      <trkpt lat="47.52288" lon="-2.83134">
        <ele>7.1</ele>
        <time>2026-08-25T14:35:33Z</time>
      </trkpt>
      <trkpt lat="47.52287" lon="-2.83127">
        <ele>7.1</ele>
        <time>2026-08-25T14:35:34Z</time>
      </trkpt>
      <trkpt lat="47.52286" lon="-2.8312">
        <ele>7.2</ele>
        <time>2026-08-25T14:35:35Z</time>
      </trkpt>
      <trkpt lat="47.52285" lon="-2.83113">
        <ele>7.2</ele>
        <time>2026-08-25T14:35:36Z</time>
      </trkpt>
      <trkpt lat="47.52284" lon="-2.83106">
        <ele>7.3</ele>
        <time>2026-08-25T14:35:37Z</time>
      </trkpt>
      <trkpt lat="47.52284" lon="-2.83098">
        <ele>7.3</ele>
        <time>2026-08-25T14:35:38Z</time>
      </trkpt>
      <trkpt lat="47.52283" lon="-2.83091">
        <ele>7.3</ele>
        <time>2026-08-25T14:35:39Z</time>
      </trkpt>
      <trkpt lat="47.52282" lon="-2.83084">
        <ele>7.3</ele>
        <time>2026-08-25T14:35:40Z</time>
      </trkpt>
      <trkpt lat="47.52281" lon="-2.83078">
        <ele>7.4</ele>
        <time>2026-08-25T14:35:41Z</time>
      </trkpt>
      <trkpt lat="47.52279" lon="-2.83071">
        <ele>7.5</ele>
        <time>2026-08-25T14:35:42Z</time>
      </trkpt>
      <trkpt lat="47.52278" lon="-2.83063">
        <ele>7.7</ele>
        <time>2026-08-25T14:35:43Z</time>
      </trkpt>
      <trkpt lat="47.52277" lon="-2.83056">
        <ele>8</ele>
        <time>2026-08-25T14:35:44Z</time>
      </trkpt>
      <trkpt lat="47.52276" lon="-2.83049">
        <ele>8.2</ele>
        <time>2026-08-25T14:35:45Z</time>
      </trkpt>
      <trkpt lat="47.52273" lon="-2.83043">
        <ele>8.5</ele>
        <time>2026-08-25T14:35:46Z</time>
      </trkpt>
      <trkpt lat="47.52271" lon="-2.83037">
        <ele>8.7</ele>
        <time>2026-08-25T14:35:47Z</time>
      </trkpt>
      <trkpt lat="47.52268" lon="-2.83031">
        <ele>8.9</ele>
        <time>2026-08-25T14:35:48Z</time>
      </trkpt>
      <trkpt lat="47.52265" lon="-2.83026">
        <ele>9</ele>
        <time>2026-08-25T14:35:49Z</time>
      </trkpt>
      <trkpt lat="47.52262" lon="-2.83021">
        <ele>9.1</ele>
        <time>2026-08-25T14:35:50Z</time>
      </trkpt>
      <trkpt lat="47.52258" lon="-2.83016">
        <ele>9.1</ele>
        <time>2026-08-25T14:35:51Z</time>
      </trkpt>
      <trkpt lat="47.52255" lon="-2.83013">
        <ele>9.1</ele>
        <time>2026-08-25T14:35:52Z</time>
      </trkpt>
      <trkpt lat="47.52251" lon="-2.83009">
        <ele>9</ele>
        <time>2026-08-25T14:35:53Z</time>
      </trkpt>
      <trkpt lat="47.52248" lon="-2.83005">
        <ele>9</ele>
        <time>2026-08-25T14:35:54Z</time>
      </trkpt>
      <trkpt lat="47.52244" lon="-2.83001">
        <ele>9</ele>
        <time>2026-08-25T14:35:55Z</time>
      </trkpt>
      <trkpt lat="47.5224" lon="-2.82998">
        <ele>9.2</ele>
        <time>2026-08-25T14:35:56Z</time>
      </trkpt>
      <trkpt lat="47.52237" lon="-2.82994">
        <ele>9.4</ele>
        <time>2026-08-25T14:35:57Z</time>
      </trkpt>
      <trkpt lat="47.52233" lon="-2.82991">
        <ele>9.6</ele>
        <time>2026-08-25T14:35:58Z</time>
      </trkpt>
      <trkpt lat="47.52229" lon="-2.82988">
        <ele>9.6</ele>
        <time>2026-08-25T14:35:59Z</time>
      </trkpt>
      <trkpt lat="47.52226" lon="-2.82984">
        <ele>9.7</ele>
        <time>2026-08-25T14:36:00Z</time>
      </trkpt>
      <trkpt lat="47.52222" lon="-2.82981">
        <ele>9.7</ele>
        <time>2026-08-25T14:36:01Z</time>
      </trkpt>
      <trkpt lat="47.52219" lon="-2.82977">
        <ele>9.7</ele>
        <time>2026-08-25T14:36:02Z</time>
      </trkpt>
      <trkpt lat="47.52215" lon="-2.82974">
        <ele>9.7</ele>
        <time>2026-08-25T14:36:03Z</time>
      </trkpt>
      <trkpt lat="47.52211" lon="-2.82971">
        <ele>9.7</ele>
        <time>2026-08-25T14:36:04Z</time>
      </trkpt>
      <trkpt lat="47.52208" lon="-2.82968">
        <ele>9.7</ele>
        <time>2026-08-25T14:36:05Z</time>
      </trkpt>
      <trkpt lat="47.52205" lon="-2.82964">
        <ele>9.9</ele>
        <time>2026-08-25T14:36:06Z</time>
      </trkpt>
      <trkpt lat="47.52201" lon="-2.82961">
        <ele>9.9</ele>
        <time>2026-08-25T14:36:07Z</time>
      </trkpt>
      <trkpt lat="47.52198" lon="-2.82957">
        <ele>10.2</ele>
        <time>2026-08-25T14:36:08Z</time>
      </trkpt>
      <trkpt lat="47.52194" lon="-2.82953">
        <ele>10.4</ele>
        <time>2026-08-25T14:36:09Z</time>
      </trkpt>
      <trkpt lat="47.5219" lon="-2.82949">
        <ele>10.5</ele>
        <time>2026-08-25T14:36:10Z</time>
      </trkpt>
      <trkpt lat="47.52187" lon="-2.82946">
        <ele>10.6</ele>
        <time>2026-08-25T14:36:11Z</time>
      </trkpt>
      <trkpt lat="47.52183" lon="-2.82943">
        <ele>10.6</ele>
        <time>2026-08-25T14:36:12Z</time>
      </trkpt>
      <trkpt lat="47.5218" lon="-2.8294">
        <ele>10.6</ele>
        <time>2026-08-25T14:36:13Z</time>
      </trkpt>
      <trkpt lat="47.52176" lon="-2.82938">
        <ele>10.5</ele>
        <time>2026-08-25T14:36:14Z</time>
      </trkpt>
      <trkpt lat="47.52172" lon="-2.82937">
        <ele>10.4</ele>
        <time>2026-08-25T14:36:15Z</time>
      </trkpt>
      <trkpt lat="47.52167" lon="-2.82935">
        <ele>10.3</ele>
        <time>2026-08-25T14:36:16Z</time>
      </trkpt>
      <trkpt lat="47.52163" lon="-2.82933">
        <ele>10.7</ele>
        <time>2026-08-25T14:36:17Z</time>
      </trkpt>
      <trkpt lat="47.5216" lon="-2.82931">
        <ele>11</ele>
        <time>2026-08-25T14:36:18Z</time>
      </trkpt>
      <trkpt lat="47.52156" lon="-2.82928">
        <ele>11.4</ele>
        <time>2026-08-25T14:36:19Z</time>
      </trkpt>
      <trkpt lat="47.52153" lon="-2.82926">
        <ele>11.6</ele>
        <time>2026-08-25T14:36:20Z</time>
      </trkpt>
      <trkpt lat="47.52149" lon="-2.82925">
        <ele>12</ele>
        <time>2026-08-25T14:36:21Z</time>
      </trkpt>
      <trkpt lat="47.52145" lon="-2.82923">
        <ele>12.3</ele>
        <time>2026-08-25T14:36:22Z</time>
      </trkpt>
      <trkpt lat="47.52142" lon="-2.82921">
        <ele>12.6</ele>
        <time>2026-08-25T14:36:23Z</time>
      </trkpt>
      <trkpt lat="47.52138" lon="-2.82919">
        <ele>13</ele>
        <time>2026-08-25T14:36:24Z</time>
      </trkpt>
      <trkpt lat="47.52135" lon="-2.82917">
        <ele>13.3</ele>
        <time>2026-08-25T14:36:25Z</time>
      </trkpt>
      <trkpt lat="47.52131" lon="-2.82915">
        <ele>13.6</ele>
        <time>2026-08-25T14:36:26Z</time>
      </trkpt>
      <trkpt lat="47.52128" lon="-2.82913">
        <ele>13.8</ele>
        <time>2026-08-25T14:36:27Z</time>
      </trkpt>
      <trkpt lat="47.52125" lon="-2.8291">
        <ele>14</ele>
        <time>2026-08-25T14:36:28Z</time>
      </trkpt>
      <trkpt lat="47.52122" lon="-2.82908">
        <ele>14.2</ele>
        <time>2026-08-25T14:36:29Z</time>
      </trkpt>
      <trkpt lat="47.52119" lon="-2.82905">
        <ele>14.4</ele>
        <time>2026-08-25T14:36:30Z</time>
      </trkpt>
      <trkpt lat="47.52116" lon="-2.82903">
        <ele>14.6</ele>
        <time>2026-08-25T14:36:31Z</time>
      </trkpt>
      <trkpt lat="47.52113" lon="-2.829">
        <ele>14.9</ele>
        <time>2026-08-25T14:36:32Z</time>
      </trkpt>
      <trkpt lat="47.5211" lon="-2.82896">
        <ele>15</ele>
        <time>2026-08-25T14:36:33Z</time>
      </trkpt>
      <trkpt lat="47.52108" lon="-2.82893">
        <ele>15</ele>
        <time>2026-08-25T14:36:34Z</time>
      </trkpt>
      <trkpt lat="47.52106" lon="-2.82889">
        <ele>15</ele>
        <time>2026-08-25T14:36:35Z</time>
      </trkpt>
      <trkpt lat="47.52104" lon="-2.82885">
        <ele>15.1</ele>
        <time>2026-08-25T14:36:36Z</time>
      </trkpt>
      <trkpt lat="47.52102" lon="-2.82882">
        <ele>15.2</ele>
        <time>2026-08-25T14:36:37Z</time>
      </trkpt>
      <trkpt lat="47.52101" lon="-2.82878">
        <ele>15.4</ele>
        <time>2026-08-25T14:36:38Z</time>
      </trkpt>
      <trkpt lat="47.52099" lon="-2.82874">
        <ele>15.5</ele>
        <time>2026-08-25T14:36:39Z</time>
      </trkpt>
      <trkpt lat="47.52097" lon="-2.82871">
        <ele>15.6</ele>
        <time>2026-08-25T14:36:40Z</time>
      </trkpt>
      <trkpt lat="47.52095" lon="-2.82867">
        <ele>15.8</ele>
        <time>2026-08-25T14:36:41Z</time>
      </trkpt>
      <trkpt lat="47.52093" lon="-2.82864">
        <ele>15.9</ele>
        <time>2026-08-25T14:36:42Z</time>
      </trkpt>
      <trkpt lat="47.52091" lon="-2.82861">
        <ele>16</ele>
        <time>2026-08-25T14:36:43Z</time>
      </trkpt>
      <trkpt lat="47.52088" lon="-2.82857">
        <ele>16</ele>
        <time>2026-08-25T14:36:44Z</time>
      </trkpt>
      <trkpt lat="47.52086" lon="-2.82854">
        <ele>16</ele>
        <time>2026-08-25T14:36:45Z</time>
      </trkpt>
      <trkpt lat="47.52085" lon="-2.82849">
        <ele>16</ele>
        <time>2026-08-25T14:36:46Z</time>
      </trkpt>
      <trkpt lat="47.52083" lon="-2.82845">
        <ele>16</ele>
        <time>2026-08-25T14:36:47Z</time>
      </trkpt>
      <trkpt lat="47.52082" lon="-2.8284">
        <ele>16</ele>
        <time>2026-08-25T14:36:48Z</time>
      </trkpt>
      <trkpt lat="47.5208" lon="-2.82836">
        <ele>16.1</ele>
        <time>2026-08-25T14:36:49Z</time>
      </trkpt>
      <trkpt lat="47.52078" lon="-2.82832">
        <ele>16.2</ele>
        <time>2026-08-25T14:36:50Z</time>
      </trkpt>
      <trkpt lat="47.52076" lon="-2.82828">
        <ele>16.5</ele>
        <time>2026-08-25T14:36:51Z</time>
      </trkpt>
      <trkpt lat="47.52074" lon="-2.82824">
        <ele>16.7</ele>
        <time>2026-08-25T14:36:52Z</time>
      </trkpt>
      <trkpt lat="47.52072" lon="-2.82819">
        <ele>16.9</ele>
        <time>2026-08-25T14:36:53Z</time>
      </trkpt>
      <trkpt lat="47.5207" lon="-2.82815">
        <ele>17.1</ele>
        <time>2026-08-25T14:36:54Z</time>
      </trkpt>
      <trkpt lat="47.52068" lon="-2.8281">
        <ele>17.4</ele>
        <time>2026-08-25T14:36:55Z</time>
      </trkpt>
      <trkpt lat="47.52066" lon="-2.82806">
        <ele>17.6</ele>
        <time>2026-08-25T14:36:56Z</time>
      </trkpt>
      <trkpt lat="47.52065" lon="-2.82803">
        <ele>17.7</ele>
        <time>2026-08-25T14:36:57Z</time>
      </trkpt>
      <trkpt lat="47.52063" lon="-2.82799">
        <ele>17.8</ele>
        <time>2026-08-25T14:36:58Z</time>
      </trkpt>
      <trkpt lat="47.52062" lon="-2.82796">
        <ele>17.8</ele>
        <time>2026-08-25T14:36:59Z</time>
      </trkpt>
      <trkpt lat="47.5206" lon="-2.82793">
        <ele>17.9</ele>
        <time>2026-08-25T14:37:00Z</time>
      </trkpt>
      <trkpt lat="47.52059" lon="-2.8279">
        <ele>17.9</ele>
        <time>2026-08-25T14:37:01Z</time>
      </trkpt>
      <trkpt lat="47.52057" lon="-2.82786">
        <ele>18</ele>
        <time>2026-08-25T14:37:02Z</time>
      </trkpt>
      <trkpt lat="47.52056" lon="-2.82782">
        <ele>18</ele>
        <time>2026-08-25T14:37:03Z</time>
      </trkpt>
      <trkpt lat="47.52054" lon="-2.82779">
        <ele>18.1</ele>
        <time>2026-08-25T14:37:04Z</time>
      </trkpt>
      <trkpt lat="47.52052" lon="-2.82775">
        <ele>18.2</ele>
        <time>2026-08-25T14:37:05Z</time>
      </trkpt>
      <trkpt lat="47.52051" lon="-2.82771">
        <ele>18.4</ele>
        <time>2026-08-25T14:37:06Z</time>
      </trkpt>
      <trkpt lat="47.52049" lon="-2.82768">
        <ele>18.6</ele>
        <time>2026-08-25T14:37:07Z</time>
      </trkpt>
      <trkpt lat="47.52048" lon="-2.82764">
        <ele>18.8</ele>
        <time>2026-08-25T14:37:08Z</time>
      </trkpt>
      <trkpt lat="47.52046" lon="-2.82761">
        <ele>18.9</ele>
        <time>2026-08-25T14:37:09Z</time>
      </trkpt>
      <trkpt lat="47.52044" lon="-2.82757">
        <ele>19.2</ele>
        <time>2026-08-25T14:37:10Z</time>
      </trkpt>
      <trkpt lat="47.52043" lon="-2.82754">
        <ele>19.3</ele>
        <time>2026-08-25T14:37:11Z</time>
      </trkpt>
      <trkpt lat="47.52041" lon="-2.8275">
        <ele>19.5</ele>
        <time>2026-08-25T14:37:12Z</time>
      </trkpt>
      <trkpt lat="47.52039" lon="-2.82746">
        <ele>19.7</ele>
        <time>2026-08-25T14:37:13Z</time>
      </trkpt>
      <trkpt lat="47.52037" lon="-2.82743">
        <ele>19.8</ele>
        <time>2026-08-25T14:37:14Z</time>
      </trkpt>
      <trkpt lat="47.52035" lon="-2.82739">
        <ele>19.8</ele>
        <time>2026-08-25T14:37:15Z</time>
      </trkpt>
      <trkpt lat="47.52034" lon="-2.82735">
        <ele>19.9</ele>
        <time>2026-08-25T14:37:16Z</time>
      </trkpt>
      <trkpt lat="47.52033" lon="-2.82731">
        <ele>19.9</ele>
        <time>2026-08-25T14:37:17Z</time>
      </trkpt>
      <trkpt lat="47.52031" lon="-2.82727">
        <ele>20</ele>
        <time>2026-08-25T14:37:18Z</time>
      </trkpt>
      <trkpt lat="47.5203" lon="-2.82723">
        <ele>20</ele>
        <time>2026-08-25T14:37:19Z</time>
      </trkpt>
      <trkpt lat="47.52029" lon="-2.82718">
        <ele>20.2</ele>
        <time>2026-08-25T14:37:20Z</time>
      </trkpt>
      <trkpt lat="47.52028" lon="-2.82714">
        <ele>20.3</ele>
        <time>2026-08-25T14:37:21Z</time>
      </trkpt>
      <trkpt lat="47.52027" lon="-2.8271">
        <ele>20.5</ele>
        <time>2026-08-25T14:37:22Z</time>
      </trkpt>
      <trkpt lat="47.52027" lon="-2.82705">
        <ele>20.6</ele>
        <time>2026-08-25T14:37:23Z</time>
      </trkpt>
      <trkpt lat="47.52026" lon="-2.82701">
        <ele>20.8</ele>
        <time>2026-08-25T14:37:24Z</time>
      </trkpt>
      <trkpt lat="47.52026" lon="-2.82696">
        <ele>20.9</ele>
        <time>2026-08-25T14:37:25Z</time>
      </trkpt>
      <trkpt lat="47.52025" lon="-2.82692">
        <ele>21.1</ele>
        <time>2026-08-25T14:37:26Z</time>
      </trkpt>
      <trkpt lat="47.52025" lon="-2.82688">
        <ele>21.2</ele>
        <time>2026-08-25T14:37:27Z</time>
      </trkpt>
      <trkpt lat="47.52024" lon="-2.82684">
        <ele>21.4</ele>
        <time>2026-08-25T14:37:28Z</time>
      </trkpt>
      <trkpt lat="47.52024" lon="-2.8268">
        <ele>21.5</ele>
        <time>2026-08-25T14:37:29Z</time>
      </trkpt>
      <trkpt lat="47.52023" lon="-2.82676">
        <ele>21.7</ele>
        <time>2026-08-25T14:37:30Z</time>
      </trkpt>
      <trkpt lat="47.52023" lon="-2.82672">
        <ele>21.8</ele>
        <time>2026-08-25T14:37:31Z</time>
      </trkpt>
      <trkpt lat="47.52022" lon="-2.82668">
        <ele>22</ele>
        <time>2026-08-25T14:37:32Z</time>
      </trkpt>
      <trkpt lat="47.52022" lon="-2.82663">
        <ele>22</ele>
        <time>2026-08-25T14:37:33Z</time>
      </trkpt>
      <trkpt lat="47.52021" lon="-2.82658">
        <ele>22</ele>
        <time>2026-08-25T14:37:34Z</time>
      </trkpt>
      <trkpt lat="47.5202" lon="-2.82653">
        <ele>22</ele>
        <time>2026-08-25T14:37:35Z</time>
      </trkpt>
      <trkpt lat="47.52019" lon="-2.82649">
        <ele>22</ele>
        <time>2026-08-25T14:37:36Z</time>
      </trkpt>
      <trkpt lat="47.52018" lon="-2.82644">
        <ele>22</ele>
        <time>2026-08-25T14:37:37Z</time>
      </trkpt>
      <trkpt lat="47.52017" lon="-2.8264">
        <ele>22</ele>
        <time>2026-08-25T14:37:38Z</time>
      </trkpt>
      <trkpt lat="47.52016" lon="-2.82636">
        <ele>22.1</ele>
        <time>2026-08-25T14:37:39Z</time>
      </trkpt>
      <trkpt lat="47.52014" lon="-2.82631">
        <ele>22.3</ele>
        <time>2026-08-25T14:37:40Z</time>
      </trkpt>
      <trkpt lat="47.52013" lon="-2.82627">
        <ele>22.4</ele>
        <time>2026-08-25T14:37:41Z</time>
      </trkpt>
      <trkpt lat="47.52011" lon="-2.82622">
        <ele>22.6</ele>
        <time>2026-08-25T14:37:42Z</time>
      </trkpt>
      <trkpt lat="47.52009" lon="-2.82618">
        <ele>22.8</ele>
        <time>2026-08-25T14:37:43Z</time>
      </trkpt>
      <trkpt lat="47.52007" lon="-2.82614">
        <ele>22.9</ele>
        <time>2026-08-25T14:37:44Z</time>
      </trkpt>
      <trkpt lat="47.52005" lon="-2.8261">
        <ele>23</ele>
        <time>2026-08-25T14:37:45Z</time>
      </trkpt>
      <trkpt lat="47.52003" lon="-2.82606">
        <ele>23.2</ele>
        <time>2026-08-25T14:37:46Z</time>
      </trkpt>
      <trkpt lat="47.52001" lon="-2.82602">
        <ele>23.3</ele>
        <time>2026-08-25T14:37:47Z</time>
      </trkpt>
      <trkpt lat="47.51999" lon="-2.82598">
        <ele>23.5</ele>
        <time>2026-08-25T14:37:48Z</time>
      </trkpt>
      <trkpt lat="47.51996" lon="-2.82594">
        <ele>23.6</ele>
        <time>2026-08-25T14:37:49Z</time>
      </trkpt>
      <trkpt lat="47.51994" lon="-2.8259">
        <ele>23.8</ele>
        <time>2026-08-25T14:37:50Z</time>
      </trkpt>
      <trkpt lat="47.51992" lon="-2.82586">
        <ele>23.9</ele>
        <time>2026-08-25T14:37:51Z</time>
      </trkpt>
      <trkpt lat="47.5199" lon="-2.82583">
        <ele>24</ele>
        <time>2026-08-25T14:37:52Z</time>
      </trkpt>
      <trkpt lat="47.51987" lon="-2.82579">
        <ele>24</ele>
        <time>2026-08-25T14:37:53Z</time>
      </trkpt>
      <trkpt lat="47.51986" lon="-2.82575">
        <ele>24</ele>
        <time>2026-08-25T14:37:54Z</time>
      </trkpt>
      <trkpt lat="47.51984" lon="-2.8257">
        <ele>24</ele>
        <time>2026-08-25T14:37:55Z</time>
      </trkpt>
      <trkpt lat="47.51982" lon="-2.82565">
        <ele>24</ele>
        <time>2026-08-25T14:37:56Z</time>
      </trkpt>
      <trkpt lat="47.5198" lon="-2.8256">
        <ele>24</ele>
        <time>2026-08-25T14:37:57Z</time>
      </trkpt>
      <trkpt lat="47.51978" lon="-2.82555">
        <ele>24</ele>
        <time>2026-08-25T14:37:58Z</time>
      </trkpt>
      <trkpt lat="47.51977" lon="-2.82549">
        <ele>24</ele>
        <time>2026-08-25T14:37:59Z</time>
      </trkpt>
      <trkpt lat="47.51975" lon="-2.82544">
        <ele>24</ele>
        <time>2026-08-25T14:38:00Z</time>
      </trkpt>
      <trkpt lat="47.51974" lon="-2.82538">
        <ele>24</ele>
        <time>2026-08-25T14:38:01Z</time>
      </trkpt>
      <trkpt lat="47.51972" lon="-2.82533">
        <ele>24</ele>
        <time>2026-08-25T14:38:02Z</time>
      </trkpt>
      <trkpt lat="47.51971" lon="-2.82527">
        <ele>24</ele>
        <time>2026-08-25T14:38:03Z</time>
      </trkpt>
      <trkpt lat="47.5197" lon="-2.82521">
        <ele>23.9</ele>
        <time>2026-08-25T14:38:04Z</time>
      </trkpt>
      <trkpt lat="47.51969" lon="-2.82515">
        <ele>23.9</ele>
        <time>2026-08-25T14:38:05Z</time>
      </trkpt>
      <trkpt lat="47.51968" lon="-2.82509">
        <ele>23.8</ele>
        <time>2026-08-25T14:38:06Z</time>
      </trkpt>
      <trkpt lat="47.51967" lon="-2.82504">
        <ele>23.8</ele>
        <time>2026-08-25T14:38:07Z</time>
      </trkpt>
      <trkpt lat="47.51965" lon="-2.82498">
        <ele>23.8</ele>
        <time>2026-08-25T14:38:08Z</time>
      </trkpt>
      <trkpt lat="47.51965" lon="-2.82492">
        <ele>23.8</ele>
        <time>2026-08-25T14:38:09Z</time>
      </trkpt>
      <trkpt lat="47.51964" lon="-2.82485">
        <ele>23.9</ele>
        <time>2026-08-25T14:38:10Z</time>
      </trkpt>
      <trkpt lat="47.51963" lon="-2.82479">
        <ele>23.9</ele>
        <time>2026-08-25T14:38:11Z</time>
      </trkpt>
      <trkpt lat="47.51962" lon="-2.82473">
        <ele>24</ele>
        <time>2026-08-25T14:38:12Z</time>
      </trkpt>
      <trkpt lat="47.51961" lon="-2.82467">
        <ele>24.1</ele>
        <time>2026-08-25T14:38:13Z</time>
      </trkpt>
      <trkpt lat="47.5196" lon="-2.82461">
        <ele>24.2</ele>
        <time>2026-08-25T14:38:14Z</time>
      </trkpt>
      <trkpt lat="47.51959" lon="-2.82454">
        <ele>24.3</ele>
        <time>2026-08-25T14:38:15Z</time>
      </trkpt>
      <trkpt lat="47.51958" lon="-2.82448">
        <ele>24.4</ele>
        <time>2026-08-25T14:38:16Z</time>
      </trkpt>
      <trkpt lat="47.51957" lon="-2.82441">
        <ele>24.5</ele>
        <time>2026-08-25T14:38:17Z</time>
      </trkpt>
      <trkpt lat="47.51956" lon="-2.82435">
        <ele>24.4</ele>
        <time>2026-08-25T14:38:18Z</time>
      </trkpt>
      <trkpt lat="47.51955" lon="-2.82428">
        <ele>24.4</ele>
        <time>2026-08-25T14:38:19Z</time>
      </trkpt>
      <trkpt lat="47.51954" lon="-2.82422">
        <ele>24.3</ele>
        <time>2026-08-25T14:38:20Z</time>
      </trkpt>
      <trkpt lat="47.51953" lon="-2.82415">
        <ele>24.3</ele>
        <time>2026-08-25T14:38:21Z</time>
      </trkpt>
      <trkpt lat="47.51952" lon="-2.82408">
        <ele>24.3</ele>
        <time>2026-08-25T14:38:22Z</time>
      </trkpt>
      <trkpt lat="47.51951" lon="-2.82401">
        <ele>24.2</ele>
        <time>2026-08-25T14:38:23Z</time>
      </trkpt>
      <trkpt lat="47.5195" lon="-2.82394">
        <ele>24.2</ele>
        <time>2026-08-25T14:38:24Z</time>
      </trkpt>
      <trkpt lat="47.51949" lon="-2.82387">
        <ele>24.2</ele>
        <time>2026-08-25T14:38:25Z</time>
      </trkpt>
      <trkpt lat="47.51948" lon="-2.82381">
        <ele>24.1</ele>
        <time>2026-08-25T14:38:26Z</time>
      </trkpt>
      <trkpt lat="47.51946" lon="-2.82374">
        <ele>24.1</ele>
        <time>2026-08-25T14:38:27Z</time>
      </trkpt>
      <trkpt lat="47.51945" lon="-2.82367">
        <ele>24</ele>
        <time>2026-08-25T14:38:28Z</time>
      </trkpt>
      <trkpt lat="47.51944" lon="-2.8236">
        <ele>24</ele>
        <time>2026-08-25T14:38:29Z</time>
      </trkpt>
      <trkpt lat="47.51942" lon="-2.82353">
        <ele>23.9</ele>
        <time>2026-08-25T14:38:30Z</time>
      </trkpt>
      <trkpt lat="47.51942" lon="-2.82346">
        <ele>24</ele>
        <time>2026-08-25T14:38:31Z</time>
      </trkpt>
      <trkpt lat="47.51941" lon="-2.82339">
        <ele>24</ele>
        <time>2026-08-25T14:38:32Z</time>
      </trkpt>
      <trkpt lat="47.51939" lon="-2.82332">
        <ele>24</ele>
        <time>2026-08-25T14:38:33Z</time>
      </trkpt>
      <trkpt lat="47.51938" lon="-2.82325">
        <ele>24.2</ele>
        <time>2026-08-25T14:38:34Z</time>
      </trkpt>
      <trkpt lat="47.51937" lon="-2.82319">
        <ele>24.4</ele>
        <time>2026-08-25T14:38:35Z</time>
      </trkpt>
      <trkpt lat="47.51936" lon="-2.82312">
        <ele>24.5</ele>
        <time>2026-08-25T14:38:36Z</time>
      </trkpt>
      <trkpt lat="47.51935" lon="-2.82305">
        <ele>24.7</ele>
        <time>2026-08-25T14:38:37Z</time>
      </trkpt>
      <trkpt lat="47.51934" lon="-2.82298">
        <ele>24.5</ele>
        <time>2026-08-25T14:38:38Z</time>
      </trkpt>
      <trkpt lat="47.51932" lon="-2.8229">
        <ele>24.3</ele>
        <time>2026-08-25T14:38:39Z</time>
      </trkpt>
      <trkpt lat="47.51931" lon="-2.82283">
        <ele>24.1</ele>
        <time>2026-08-25T14:38:40Z</time>
      </trkpt>
      <trkpt lat="47.5193" lon="-2.82276">
        <ele>24</ele>
        <time>2026-08-25T14:38:41Z</time>
      </trkpt>
      <trkpt lat="47.51929" lon="-2.82269">
        <ele>23.9</ele>
        <time>2026-08-25T14:38:42Z</time>
      </trkpt>
      <trkpt lat="47.51927" lon="-2.82263">
        <ele>23.9</ele>
        <time>2026-08-25T14:38:43Z</time>
      </trkpt>
      <trkpt lat="47.51926" lon="-2.82256">
        <ele>23.9</ele>
        <time>2026-08-25T14:38:44Z</time>
      </trkpt>
      <trkpt lat="47.51925" lon="-2.8225">
        <ele>24</ele>
        <time>2026-08-25T14:38:45Z</time>
      </trkpt>
      <trkpt lat="47.51924" lon="-2.82243">
        <ele>23.9</ele>
        <time>2026-08-25T14:38:46Z</time>
      </trkpt>
      <trkpt lat="47.51922" lon="-2.82236">
        <ele>23.7</ele>
        <time>2026-08-25T14:38:47Z</time>
      </trkpt>
      <trkpt lat="47.51921" lon="-2.82229">
        <ele>23.5</ele>
        <time>2026-08-25T14:38:48Z</time>
      </trkpt>
      <trkpt lat="47.5192" lon="-2.82221">
        <ele>23.2</ele>
        <time>2026-08-25T14:38:49Z</time>
      </trkpt>
      <trkpt lat="47.51919" lon="-2.82214">
        <ele>23.1</ele>
        <time>2026-08-25T14:38:50Z</time>
      </trkpt>
      <trkpt lat="47.51917" lon="-2.82207">
        <ele>23</ele>
        <time>2026-08-25T14:38:51Z</time>
      </trkpt>
      <trkpt lat="47.51917" lon="-2.82199">
        <ele>23</ele>
        <time>2026-08-25T14:38:52Z</time>
      </trkpt>
      <trkpt lat="47.51915" lon="-2.82192">
        <ele>22.8</ele>
        <time>2026-08-25T14:38:53Z</time>
      </trkpt>
      <trkpt lat="47.51914" lon="-2.82184">
        <ele>22.5</ele>
        <time>2026-08-25T14:38:54Z</time>
      </trkpt>
      <trkpt lat="47.51913" lon="-2.82176">
        <ele>22.2</ele>
        <time>2026-08-25T14:38:55Z</time>
      </trkpt>
      <trkpt lat="47.51914" lon="-2.82169">
        <ele>22</ele>
        <time>2026-08-25T14:38:56Z</time>
      </trkpt>
      <trkpt lat="47.51917" lon="-2.82162">
        <ele>22</ele>
        <time>2026-08-25T14:38:57Z</time>
      </trkpt>
      <trkpt lat="47.51921" lon="-2.82158">
        <ele>22.3</ele>
        <time>2026-08-25T14:38:58Z</time>
      </trkpt>
      <trkpt lat="47.51925" lon="-2.82156">
        <ele>22.6</ele>
        <time>2026-08-25T14:38:59Z</time>
      </trkpt>
      <trkpt lat="47.51929" lon="-2.82155">
        <ele>22.9</ele>
        <time>2026-08-25T14:39:00Z</time>
      </trkpt>
      <trkpt lat="47.51934" lon="-2.82154">
        <ele>23.2</ele>
        <time>2026-08-25T14:39:01Z</time>
      </trkpt>
      <trkpt lat="47.51938" lon="-2.82154">
        <ele>23.5</ele>
        <time>2026-08-25T14:39:02Z</time>
      </trkpt>
      <trkpt lat="47.51942" lon="-2.82152">
        <ele>23.8</ele>
        <time>2026-08-25T14:39:03Z</time>
      </trkpt>
      <trkpt lat="47.51947" lon="-2.82152">
        <ele>24</ele>
        <time>2026-08-25T14:39:04Z</time>
      </trkpt>
      <trkpt lat="47.51951" lon="-2.82151">
        <ele>24</ele>
        <time>2026-08-25T14:39:05Z</time>
      </trkpt>
      <trkpt lat="47.51956" lon="-2.8215">
        <ele>24</ele>
        <time>2026-08-25T14:39:06Z</time>
      </trkpt>
      <trkpt lat="47.5196" lon="-2.82149">
        <ele>24</ele>
        <time>2026-08-25T14:39:07Z</time>
      </trkpt>
      <trkpt lat="47.51964" lon="-2.82148">
        <ele>24</ele>
        <time>2026-08-25T14:39:08Z</time>
      </trkpt>
      <trkpt lat="47.51969" lon="-2.82147">
        <ele>24</ele>
        <time>2026-08-25T14:39:09Z</time>
      </trkpt>
      <trkpt lat="47.51973" lon="-2.82145">
        <ele>24</ele>
        <time>2026-08-25T14:39:10Z</time>
      </trkpt>
      <trkpt lat="47.51977" lon="-2.82142">
        <ele>24.2</ele>
        <time>2026-08-25T14:39:11Z</time>
      </trkpt>
      <trkpt lat="47.5198" lon="-2.82137">
        <ele>24.3</ele>
        <time>2026-08-25T14:39:12Z</time>
      </trkpt>
      <trkpt lat="47.51983" lon="-2.82132">
        <ele>24.4</ele>
        <time>2026-08-25T14:39:13Z</time>
      </trkpt>
      <trkpt lat="47.51986" lon="-2.82127">
        <ele>24.5</ele>
        <time>2026-08-25T14:39:14Z</time>
      </trkpt>
      <trkpt lat="47.51989" lon="-2.82121">
        <ele>24.6</ele>
        <time>2026-08-25T14:39:15Z</time>
      </trkpt>
      <trkpt lat="47.51991" lon="-2.82116">
        <ele>24.7</ele>
        <time>2026-08-25T14:39:16Z</time>
      </trkpt>
      <trkpt lat="47.51995" lon="-2.82112">
        <ele>24.8</ele>
        <time>2026-08-25T14:39:17Z</time>
      </trkpt>
      <trkpt lat="47.51998" lon="-2.82108">
        <ele>24.9</ele>
        <time>2026-08-25T14:39:18Z</time>
      </trkpt>
      <trkpt lat="47.52002" lon="-2.82104">
        <ele>25.1</ele>
        <time>2026-08-25T14:39:19Z</time>
      </trkpt>
      <trkpt lat="47.52006" lon="-2.82101">
        <ele>25.2</ele>
        <time>2026-08-25T14:39:20Z</time>
      </trkpt>
      <trkpt lat="47.5201" lon="-2.82098">
        <ele>25.4</ele>
        <time>2026-08-25T14:39:21Z</time>
      </trkpt>
      <trkpt lat="47.52014" lon="-2.82095">
        <ele>25.5</ele>
        <time>2026-08-25T14:39:22Z</time>
      </trkpt>
      <trkpt lat="47.52018" lon="-2.82093">
        <ele>25.6</ele>
        <time>2026-08-25T14:39:23Z</time>
      </trkpt>
      <trkpt lat="47.52022" lon="-2.8209">
        <ele>25.8</ele>
        <time>2026-08-25T14:39:24Z</time>
      </trkpt>
      <trkpt lat="47.52026" lon="-2.82087">
        <ele>25.9</ele>
        <time>2026-08-25T14:39:25Z</time>
      </trkpt>
      <trkpt lat="47.5203" lon="-2.82084">
        <ele>26.1</ele>
        <time>2026-08-25T14:39:26Z</time>
      </trkpt>
      <trkpt lat="47.52034" lon="-2.82081">
        <ele>26.3</ele>
        <time>2026-08-25T14:39:27Z</time>
      </trkpt>
      <trkpt lat="47.52037" lon="-2.82078">
        <ele>26.5</ele>
        <time>2026-08-25T14:39:28Z</time>
      </trkpt>
      <trkpt lat="47.52041" lon="-2.82075">
        <ele>26.6</ele>
        <time>2026-08-25T14:39:29Z</time>
      </trkpt>
      <trkpt lat="47.52045" lon="-2.82071">
        <ele>26.8</ele>
        <time>2026-08-25T14:39:30Z</time>
      </trkpt>
      <trkpt lat="47.52048" lon="-2.82067">
        <ele>26.9</ele>
        <time>2026-08-25T14:39:31Z</time>
      </trkpt>
      <trkpt lat="47.52052" lon="-2.82063">
        <ele>27</ele>
        <time>2026-08-25T14:39:32Z</time>
      </trkpt>
      <trkpt lat="47.52055" lon="-2.82059">
        <ele>27</ele>
        <time>2026-08-25T14:39:33Z</time>
      </trkpt>
      <trkpt lat="47.52058" lon="-2.82056">
        <ele>27</ele>
        <time>2026-08-25T14:39:34Z</time>
      </trkpt>
      <trkpt lat="47.52061" lon="-2.82052">
        <ele>27</ele>
        <time>2026-08-25T14:39:35Z</time>
      </trkpt>
      <trkpt lat="47.52064" lon="-2.82048">
        <ele>27</ele>
        <time>2026-08-25T14:39:36Z</time>
      </trkpt>
      <trkpt lat="47.52067" lon="-2.82044">
        <ele>27</ele>
        <time>2026-08-25T14:39:37Z</time>
      </trkpt>
      <trkpt lat="47.5207" lon="-2.8204">
        <ele>27</ele>
        <time>2026-08-25T14:39:38Z</time>
      </trkpt>
      <trkpt lat="47.52072" lon="-2.82036">
        <ele>27</ele>
        <time>2026-08-25T14:39:39Z</time>
      </trkpt>
      <trkpt lat="47.52075" lon="-2.82032">
        <ele>27</ele>
        <time>2026-08-25T14:39:40Z</time>
      </trkpt>
      <trkpt lat="47.52078" lon="-2.82028">
        <ele>27</ele>
        <time>2026-08-25T14:39:41Z</time>
      </trkpt>
      <trkpt lat="47.52081" lon="-2.82024">
        <ele>27.1</ele>
        <time>2026-08-25T14:39:42Z</time>
      </trkpt>
      <trkpt lat="47.52084" lon="-2.8202">
        <ele>27.3</ele>
        <time>2026-08-25T14:39:43Z</time>
      </trkpt>
      <trkpt lat="47.52087" lon="-2.82016">
        <ele>27.4</ele>
        <time>2026-08-25T14:39:44Z</time>
      </trkpt>
      <trkpt lat="47.5209" lon="-2.82011">
        <ele>27.6</ele>
        <time>2026-08-25T14:39:45Z</time>
      </trkpt>
      <trkpt lat="47.52093" lon="-2.82007">
        <ele>27.7</ele>
        <time>2026-08-25T14:39:46Z</time>
      </trkpt>
      <trkpt lat="47.52097" lon="-2.82003">
        <ele>27.9</ele>
        <time>2026-08-25T14:39:47Z</time>
      </trkpt>
      <trkpt lat="47.521" lon="-2.81999">
        <ele>28</ele>
        <time>2026-08-25T14:39:48Z</time>
      </trkpt>
      <trkpt lat="47.52103" lon="-2.81995">
        <ele>28</ele>
        <time>2026-08-25T14:39:49Z</time>
      </trkpt>
      <trkpt lat="47.52106" lon="-2.81991">
        <ele>28</ele>
        <time>2026-08-25T14:39:50Z</time>
      </trkpt>
      <trkpt lat="47.52109" lon="-2.81987">
        <ele>28</ele>
        <time>2026-08-25T14:39:51Z</time>
      </trkpt>
      <trkpt lat="47.52112" lon="-2.81982">
        <ele>28</ele>
        <time>2026-08-25T14:39:52Z</time>
      </trkpt>
      <trkpt lat="47.52115" lon="-2.81978">
        <ele>27.9</ele>
        <time>2026-08-25T14:39:53Z</time>
      </trkpt>
      <trkpt lat="47.52118" lon="-2.81974">
        <ele>27.8</ele>
        <time>2026-08-25T14:39:54Z</time>
      </trkpt>
      <trkpt lat="47.52121" lon="-2.81969">
        <ele>27.8</ele>
        <time>2026-08-25T14:39:55Z</time>
      </trkpt>
      <trkpt lat="47.52124" lon="-2.81965">
        <ele>27.8</ele>
        <time>2026-08-25T14:39:56Z</time>
      </trkpt>
      <trkpt lat="47.52128" lon="-2.8196">
        <ele>27.8</ele>
        <time>2026-08-25T14:39:57Z</time>
      </trkpt>
      <trkpt lat="47.52131" lon="-2.81956">
        <ele>27.9</ele>
        <time>2026-08-25T14:39:58Z</time>
      </trkpt>
      <trkpt lat="47.52134" lon="-2.81951">
        <ele>27.9</ele>
        <time>2026-08-25T14:39:59Z</time>
      </trkpt>
      <trkpt lat="47.52137" lon="-2.81947">
        <ele>28</ele>
        <time>2026-08-25T14:40:00Z</time>
      </trkpt>
      <trkpt lat="47.5214" lon="-2.81942">
        <ele>28</ele>
        <time>2026-08-25T14:40:01Z</time>
      </trkpt>
      <trkpt lat="47.52144" lon="-2.81938">
        <ele>27.9</ele>
        <time>2026-08-25T14:40:02Z</time>
      </trkpt>
      <trkpt lat="47.52147" lon="-2.81934">
        <ele>27.8</ele>
        <time>2026-08-25T14:40:03Z</time>
      </trkpt>
      <trkpt lat="47.5215" lon="-2.81929">
        <ele>27.8</ele>
        <time>2026-08-25T14:40:04Z</time>
      </trkpt>
      <trkpt lat="47.52153" lon="-2.81924">
        <ele>27.9</ele>
        <time>2026-08-25T14:40:05Z</time>
      </trkpt>
      <trkpt lat="47.52156" lon="-2.81919">
        <ele>27.9</ele>
        <time>2026-08-25T14:40:06Z</time>
      </trkpt>
      <trkpt lat="47.52159" lon="-2.81913">
        <ele>28</ele>
        <time>2026-08-25T14:40:07Z</time>
      </trkpt>
      <trkpt lat="47.52161" lon="-2.81908">
        <ele>28.1</ele>
        <time>2026-08-25T14:40:08Z</time>
      </trkpt>
      <trkpt lat="47.52163" lon="-2.81902">
        <ele>28.1</ele>
        <time>2026-08-25T14:40:09Z</time>
      </trkpt>
      <trkpt lat="47.52165" lon="-2.81895">
        <ele>28</ele>
        <time>2026-08-25T14:40:10Z</time>
      </trkpt>
      <trkpt lat="47.52165" lon="-2.81888">
        <ele>28.1</ele>
        <time>2026-08-25T14:40:11Z</time>
      </trkpt>
      <trkpt lat="47.52166" lon="-2.81882">
        <ele>28</ele>
        <time>2026-08-25T14:40:12Z</time>
      </trkpt>
      <trkpt lat="47.52166" lon="-2.81875">
        <ele>28</ele>
        <time>2026-08-25T14:40:13Z</time>
      </trkpt>
      <trkpt lat="47.52166" lon="-2.81868">
        <ele>28</ele>
        <time>2026-08-25T14:40:14Z</time>
      </trkpt>
      <trkpt lat="47.52165" lon="-2.81862">
        <ele>28.1</ele>
        <time>2026-08-25T14:40:15Z</time>
      </trkpt>
      <trkpt lat="47.52165" lon="-2.81856">
        <ele>28.2</ele>
        <time>2026-08-25T14:40:16Z</time>
      </trkpt>
      <trkpt lat="47.52164" lon="-2.81849">
        <ele>28.5</ele>
        <time>2026-08-25T14:40:17Z</time>
      </trkpt>
      <trkpt lat="47.52163" lon="-2.81843">
        <ele>28.7</ele>
        <time>2026-08-25T14:40:18Z</time>
      </trkpt>
      <trkpt lat="47.52162" lon="-2.81837">
        <ele>28.9</ele>
        <time>2026-08-25T14:40:19Z</time>
      </trkpt>
      <trkpt lat="47.52161" lon="-2.8183">
        <ele>29</ele>
        <time>2026-08-25T14:40:20Z</time>
      </trkpt>
      <trkpt lat="47.52161" lon="-2.81824">
        <ele>29.1</ele>
        <time>2026-08-25T14:40:21Z</time>
      </trkpt>
      <trkpt lat="47.5216" lon="-2.81818">
        <ele>29.1</ele>
        <time>2026-08-25T14:40:22Z</time>
      </trkpt>
      <trkpt lat="47.52159" lon="-2.81811">
        <ele>29.2</ele>
        <time>2026-08-25T14:40:23Z</time>
      </trkpt>
      <trkpt lat="47.52158" lon="-2.81805">
        <ele>29.3</ele>
        <time>2026-08-25T14:40:24Z</time>
      </trkpt>
      <trkpt lat="47.52158" lon="-2.81799">
        <ele>29.3</ele>
        <time>2026-08-25T14:40:25Z</time>
      </trkpt>
      <trkpt lat="47.52157" lon="-2.81792">
        <ele>29.3</ele>
        <time>2026-08-25T14:40:26Z</time>
      </trkpt>
      <trkpt lat="47.52156" lon="-2.81786">
        <ele>29.4</ele>
        <time>2026-08-25T14:40:27Z</time>
      </trkpt>
      <trkpt lat="47.52156" lon="-2.8178">
        <ele>29.4</ele>
        <time>2026-08-25T14:40:28Z</time>
      </trkpt>
      <trkpt lat="47.52155" lon="-2.81773">
        <ele>29.6</ele>
        <time>2026-08-25T14:40:29Z</time>
      </trkpt>
      <trkpt lat="47.52154" lon="-2.81767">
        <ele>29.8</ele>
        <time>2026-08-25T14:40:30Z</time>
      </trkpt>
      <trkpt lat="47.52153" lon="-2.8176">
        <ele>30.1</ele>
        <time>2026-08-25T14:40:31Z</time>
      </trkpt>
      <trkpt lat="47.52152" lon="-2.81753">
        <ele>30.4</ele>
        <time>2026-08-25T14:40:32Z</time>
      </trkpt>
      <trkpt lat="47.52151" lon="-2.81747">
        <ele>30.6</ele>
        <time>2026-08-25T14:40:33Z</time>
      </trkpt>
      <trkpt lat="47.5215" lon="-2.8174">
        <ele>30.6</ele>
        <time>2026-08-25T14:40:34Z</time>
      </trkpt>
      <trkpt lat="47.5215" lon="-2.81734">
        <ele>30.6</ele>
        <time>2026-08-25T14:40:35Z</time>
      </trkpt>
      <trkpt lat="47.52149" lon="-2.81728">
        <ele>30.6</ele>
        <time>2026-08-25T14:40:36Z</time>
      </trkpt>
      <trkpt lat="47.52149" lon="-2.81722">
        <ele>30.6</ele>
        <time>2026-08-25T14:40:37Z</time>
      </trkpt>
      <trkpt lat="47.52148" lon="-2.81716">
        <ele>30.7</ele>
        <time>2026-08-25T14:40:38Z</time>
      </trkpt>
      <trkpt lat="47.52148" lon="-2.8171">
        <ele>30.8</ele>
        <time>2026-08-25T14:40:39Z</time>
      </trkpt>
      <trkpt lat="47.52147" lon="-2.81704">
        <ele>30.9</ele>
        <time>2026-08-25T14:40:40Z</time>
      </trkpt>
      <trkpt lat="47.52146" lon="-2.81698">
        <ele>31</ele>
        <time>2026-08-25T14:40:41Z</time>
      </trkpt>
      <trkpt lat="47.52146" lon="-2.81692">
        <ele>31</ele>
        <time>2026-08-25T14:40:42Z</time>
      </trkpt>
      <trkpt lat="47.52145" lon="-2.81685">
        <ele>31</ele>
        <time>2026-08-25T14:40:43Z</time>
      </trkpt>
      <trkpt lat="47.52144" lon="-2.81679">
        <ele>31</ele>
        <time>2026-08-25T14:40:44Z</time>
      </trkpt>
      <trkpt lat="47.52144" lon="-2.81673">
        <ele>31</ele>
        <time>2026-08-25T14:40:45Z</time>
      </trkpt>
      <trkpt lat="47.52143" lon="-2.81667">
        <ele>31</ele>
        <time>2026-08-25T14:40:46Z</time>
      </trkpt>
      <trkpt lat="47.52142" lon="-2.81661">
        <ele>31.2</ele>
        <time>2026-08-25T14:40:47Z</time>
      </trkpt>
      <trkpt lat="47.52141" lon="-2.81654">
        <ele>31.4</ele>
        <time>2026-08-25T14:40:48Z</time>
      </trkpt>
      <trkpt lat="47.5214" lon="-2.81648">
        <ele>31.6</ele>
        <time>2026-08-25T14:40:49Z</time>
      </trkpt>
      <trkpt lat="47.5214" lon="-2.81642">
        <ele>31.9</ele>
        <time>2026-08-25T14:40:50Z</time>
      </trkpt>
      <trkpt lat="47.52139" lon="-2.81636">
        <ele>32</ele>
        <time>2026-08-25T14:40:51Z</time>
      </trkpt>
      <trkpt lat="47.52138" lon="-2.81629">
        <ele>32</ele>
        <time>2026-08-25T14:40:52Z</time>
      </trkpt>
      <trkpt lat="47.52137" lon="-2.81623">
        <ele>32</ele>
        <time>2026-08-25T14:40:53Z</time>
      </trkpt>
      <trkpt lat="47.52136" lon="-2.81617">
        <ele>32.1</ele>
        <time>2026-08-25T14:40:54Z</time>
      </trkpt>
      <trkpt lat="47.52135" lon="-2.81611">
        <ele>32.1</ele>
        <time>2026-08-25T14:40:55Z</time>
      </trkpt>
      <trkpt lat="47.52135" lon="-2.81604">
        <ele>32.1</ele>
        <time>2026-08-25T14:40:56Z</time>
      </trkpt>
      <trkpt lat="47.52134" lon="-2.81598">
        <ele>32.2</ele>
        <time>2026-08-25T14:40:57Z</time>
      </trkpt>
      <trkpt lat="47.52133" lon="-2.81592">
        <ele>32.2</ele>
        <time>2026-08-25T14:40:58Z</time>
      </trkpt>
      <trkpt lat="47.52133" lon="-2.81586">
        <ele>32.2</ele>
        <time>2026-08-25T14:40:59Z</time>
      </trkpt>
      <trkpt lat="47.52132" lon="-2.8158">
        <ele>32.3</ele>
        <time>2026-08-25T14:41:00Z</time>
      </trkpt>
      <trkpt lat="47.52132" lon="-2.81574">
        <ele>32.3</ele>
        <time>2026-08-25T14:41:01Z</time>
      </trkpt>
      <trkpt lat="47.52132" lon="-2.81568">
        <ele>32.4</ele>
        <time>2026-08-25T14:41:02Z</time>
      </trkpt>
      <trkpt lat="47.52132" lon="-2.81562">
        <ele>32.4</ele>
        <time>2026-08-25T14:41:03Z</time>
      </trkpt>
      <trkpt lat="47.52132" lon="-2.81556">
        <ele>32.5</ele>
        <time>2026-08-25T14:41:04Z</time>
      </trkpt>
      <trkpt lat="47.52133" lon="-2.81549">
        <ele>32.6</ele>
        <time>2026-08-25T14:41:05Z</time>
      </trkpt>
      <trkpt lat="47.52135" lon="-2.81543">
        <ele>32.7</ele>
        <time>2026-08-25T14:41:06Z</time>
      </trkpt>
      <trkpt lat="47.52137" lon="-2.81538">
        <ele>32.7</ele>
        <time>2026-08-25T14:41:07Z</time>
      </trkpt>
      <trkpt lat="47.52139" lon="-2.81533">
        <ele>32.8</ele>
        <time>2026-08-25T14:41:08Z</time>
      </trkpt>
      <trkpt lat="47.52142" lon="-2.81528">
        <ele>32.9</ele>
        <time>2026-08-25T14:41:09Z</time>
      </trkpt>
      <trkpt lat="47.52146" lon="-2.81524">
        <ele>32.8</ele>
        <time>2026-08-25T14:41:10Z</time>
      </trkpt>
      <trkpt lat="47.5215" lon="-2.8152">
        <ele>32.7</ele>
        <time>2026-08-25T14:41:11Z</time>
      </trkpt>
      <trkpt lat="47.52154" lon="-2.81518">
        <ele>32.6</ele>
        <time>2026-08-25T14:41:12Z</time>
      </trkpt>
      <trkpt lat="47.52158" lon="-2.81516">
        <ele>32.6</ele>
        <time>2026-08-25T14:41:13Z</time>
      </trkpt>
      <trkpt lat="47.52163" lon="-2.81514">
        <ele>32.6</ele>
        <time>2026-08-25T14:41:14Z</time>
      </trkpt>
      <trkpt lat="47.52168" lon="-2.81512">
        <ele>32.5</ele>
        <time>2026-08-25T14:41:15Z</time>
      </trkpt>
      <trkpt lat="47.52173" lon="-2.81511">
        <ele>32.4</ele>
        <time>2026-08-25T14:41:16Z</time>
      </trkpt>
      <trkpt lat="47.52178" lon="-2.81509">
        <ele>32.3</ele>
        <time>2026-08-25T14:41:17Z</time>
      </trkpt>
      <trkpt lat="47.52183" lon="-2.81507">
        <ele>32.2</ele>
        <time>2026-08-25T14:41:18Z</time>
      </trkpt>
      <trkpt lat="47.52189" lon="-2.81505">
        <ele>32</ele>
        <time>2026-08-25T14:41:19Z</time>
      </trkpt>
      <trkpt lat="47.52194" lon="-2.81504">
        <ele>31.9</ele>
        <time>2026-08-25T14:41:20Z</time>
      </trkpt>
      <trkpt lat="47.52199" lon="-2.81502">
        <ele>31.6</ele>
        <time>2026-08-25T14:41:21Z</time>
      </trkpt>
      <trkpt lat="47.52204" lon="-2.815">
        <ele>31.3</ele>
        <time>2026-08-25T14:41:22Z</time>
      </trkpt>
      <trkpt lat="47.5221" lon="-2.81498">
        <ele>30.9</ele>
        <time>2026-08-25T14:41:23Z</time>
      </trkpt>
      <trkpt lat="47.52215" lon="-2.81496">
        <ele>30.6</ele>
        <time>2026-08-25T14:41:24Z</time>
      </trkpt>
      <trkpt lat="47.52221" lon="-2.81494">
        <ele>30.3</ele>
        <time>2026-08-25T14:41:25Z</time>
      </trkpt>
      <trkpt lat="47.52227" lon="-2.81492">
        <ele>30.2</ele>
        <time>2026-08-25T14:41:26Z</time>
      </trkpt>
      <trkpt lat="47.52233" lon="-2.8149">
        <ele>30.2</ele>
        <time>2026-08-25T14:41:27Z</time>
      </trkpt>
      <trkpt lat="47.52239" lon="-2.81488">
        <ele>30.2</ele>
        <time>2026-08-25T14:41:28Z</time>
      </trkpt>
      <trkpt lat="47.52246" lon="-2.81486">
        <ele>30.1</ele>
        <time>2026-08-25T14:41:29Z</time>
      </trkpt>
      <trkpt lat="47.52252" lon="-2.81484">
        <ele>29.9</ele>
        <time>2026-08-25T14:41:30Z</time>
      </trkpt>
      <trkpt lat="47.52258" lon="-2.81481">
        <ele>29.7</ele>
        <time>2026-08-25T14:41:31Z</time>
      </trkpt>
      <trkpt lat="47.52265" lon="-2.81479">
        <ele>29.5</ele>
        <time>2026-08-25T14:41:32Z</time>
      </trkpt>
      <trkpt lat="47.52271" lon="-2.81477">
        <ele>29.2</ele>
        <time>2026-08-25T14:41:33Z</time>
      </trkpt>
      <trkpt lat="47.52277" lon="-2.81474">
        <ele>29</ele>
        <time>2026-08-25T14:41:34Z</time>
      </trkpt>
      <trkpt lat="47.52283" lon="-2.81469">
        <ele>28.9</ele>
        <time>2026-08-25T14:41:35Z</time>
      </trkpt>
      <trkpt lat="47.52287" lon="-2.81462">
        <ele>29</ele>
        <time>2026-08-25T14:41:36Z</time>
      </trkpt>
      <trkpt lat="47.5229" lon="-2.81454">
        <ele>29.2</ele>
        <time>2026-08-25T14:41:37Z</time>
      </trkpt>
      <trkpt lat="47.5229" lon="-2.81445">
        <ele>29.5</ele>
        <time>2026-08-25T14:41:38Z</time>
      </trkpt>
      <trkpt lat="47.5229" lon="-2.81436">
        <ele>29.6</ele>
        <time>2026-08-25T14:41:39Z</time>
      </trkpt>
      <trkpt lat="47.52288" lon="-2.81427">
        <ele>29.6</ele>
        <time>2026-08-25T14:41:40Z</time>
      </trkpt>
      <trkpt lat="47.52286" lon="-2.8142">
        <ele>29.7</ele>
        <time>2026-08-25T14:41:41Z</time>
      </trkpt>
      <trkpt lat="47.52282" lon="-2.81415">
        <ele>29.8</ele>
        <time>2026-08-25T14:41:42Z</time>
      </trkpt>
      <trkpt lat="47.52278" lon="-2.8141">
        <ele>29.8</ele>
        <time>2026-08-25T14:41:43Z</time>
      </trkpt>
      <trkpt lat="47.52274" lon="-2.81406">
        <ele>29.8</ele>
        <time>2026-08-25T14:41:44Z</time>
      </trkpt>
      <trkpt lat="47.52269" lon="-2.81403">
        <ele>29.8</ele>
        <time>2026-08-25T14:41:45Z</time>
      </trkpt>
      <trkpt lat="47.52265" lon="-2.814">
        <ele>29.9</ele>
        <time>2026-08-25T14:41:46Z</time>
      </trkpt>
      <trkpt lat="47.52261" lon="-2.81397">
        <ele>29.9</ele>
        <time>2026-08-25T14:41:47Z</time>
      </trkpt>
      <trkpt lat="47.52257" lon="-2.81394">
        <ele>29.9</ele>
        <time>2026-08-25T14:41:48Z</time>
      </trkpt>
      <trkpt lat="47.52253" lon="-2.8139">
        <ele>29.9</ele>
        <time>2026-08-25T14:41:49Z</time>
      </trkpt>
      <trkpt lat="47.52249" lon="-2.81387">
        <ele>30.1</ele>
        <time>2026-08-25T14:41:50Z</time>
      </trkpt>
      <trkpt lat="47.52245" lon="-2.81384">
        <ele>30.3</ele>
        <time>2026-08-25T14:41:51Z</time>
      </trkpt>
      <trkpt lat="47.52242" lon="-2.81381">
        <ele>30.5</ele>
        <time>2026-08-25T14:41:52Z</time>
      </trkpt>
      <trkpt lat="47.52238" lon="-2.81378">
        <ele>30.7</ele>
        <time>2026-08-25T14:41:53Z</time>
      </trkpt>
      <trkpt lat="47.52234" lon="-2.81375">
        <ele>30.9</ele>
        <time>2026-08-25T14:41:54Z</time>
      </trkpt>
      <trkpt lat="47.5223" lon="-2.81373">
        <ele>31</ele>
        <time>2026-08-25T14:41:55Z</time>
      </trkpt>
      <trkpt lat="47.52227" lon="-2.8137">
        <ele>31.1</ele>
        <time>2026-08-25T14:41:56Z</time>
      </trkpt>
      <trkpt lat="47.52223" lon="-2.81367">
        <ele>31.2</ele>
        <time>2026-08-25T14:41:57Z</time>
      </trkpt>
      <trkpt lat="47.52219" lon="-2.81364">
        <ele>31.2</ele>
        <time>2026-08-25T14:41:58Z</time>
      </trkpt>
      <trkpt lat="47.52215" lon="-2.81361">
        <ele>31.3</ele>
        <time>2026-08-25T14:41:59Z</time>
      </trkpt>
      <trkpt lat="47.52212" lon="-2.81358">
        <ele>31.4</ele>
        <time>2026-08-25T14:42:00Z</time>
      </trkpt>
      <trkpt lat="47.52208" lon="-2.81356">
        <ele>31.5</ele>
        <time>2026-08-25T14:42:01Z</time>
      </trkpt>
      <trkpt lat="47.52204" lon="-2.81353">
        <ele>31.7</ele>
        <time>2026-08-25T14:42:02Z</time>
      </trkpt>
      <trkpt lat="47.522" lon="-2.81351">
        <ele>31.8</ele>
        <time>2026-08-25T14:42:03Z</time>
      </trkpt>
      <trkpt lat="47.52197" lon="-2.81349">
        <ele>31.9</ele>
        <time>2026-08-25T14:42:04Z</time>
      </trkpt>
      <trkpt lat="47.52193" lon="-2.81347">
        <ele>32</ele>
        <time>2026-08-25T14:42:05Z</time>
      </trkpt>
      <trkpt lat="47.5219" lon="-2.81345">
        <ele>32.1</ele>
        <time>2026-08-25T14:42:06Z</time>
      </trkpt>
      <trkpt lat="47.52187" lon="-2.81342">
        <ele>32.1</ele>
        <time>2026-08-25T14:42:07Z</time>
      </trkpt>
      <trkpt lat="47.52183" lon="-2.81339">
        <ele>32.1</ele>
        <time>2026-08-25T14:42:08Z</time>
      </trkpt>
      <trkpt lat="47.52179" lon="-2.81336">
        <ele>32.1</ele>
        <time>2026-08-25T14:42:09Z</time>
      </trkpt>
      <trkpt lat="47.52176" lon="-2.81333">
        <ele>32</ele>
        <time>2026-08-25T14:42:10Z</time>
      </trkpt>
      <trkpt lat="47.52172" lon="-2.81331">
        <ele>32.1</ele>
        <time>2026-08-25T14:42:11Z</time>
      </trkpt>
      <trkpt lat="47.52168" lon="-2.81328">
        <ele>32.2</ele>
        <time>2026-08-25T14:42:12Z</time>
      </trkpt>
      <trkpt lat="47.52165" lon="-2.81323">
        <ele>32.5</ele>
        <time>2026-08-25T14:42:13Z</time>
      </trkpt>
      <trkpt lat="47.52161" lon="-2.81319">
        <ele>32.8</ele>
        <time>2026-08-25T14:42:14Z</time>
      </trkpt>
      <trkpt lat="47.52158" lon="-2.81314">
        <ele>33.1</ele>
        <time>2026-08-25T14:42:15Z</time>
      </trkpt>
      <trkpt lat="47.52155" lon="-2.81309">
        <ele>33.3</ele>
        <time>2026-08-25T14:42:16Z</time>
      </trkpt>
      <trkpt lat="47.52152" lon="-2.81304">
        <ele>33.6</ele>
        <time>2026-08-25T14:42:17Z</time>
      </trkpt>
      <trkpt lat="47.5215" lon="-2.81299">
        <ele>33.7</ele>
        <time>2026-08-25T14:42:18Z</time>
      </trkpt>
      <trkpt lat="47.52147" lon="-2.81294">
        <ele>33.8</ele>
        <time>2026-08-25T14:42:19Z</time>
      </trkpt>
      <trkpt lat="47.52144" lon="-2.81289">
        <ele>33.9</ele>
        <time>2026-08-25T14:42:20Z</time>
      </trkpt>
      <trkpt lat="47.52142" lon="-2.81285">
        <ele>34</ele>
        <time>2026-08-25T14:42:21Z</time>
      </trkpt>
      <trkpt lat="47.52139" lon="-2.8128">
        <ele>34</ele>
        <time>2026-08-25T14:42:22Z</time>
      </trkpt>
      <trkpt lat="47.52137" lon="-2.81276">
        <ele>34.1</ele>
        <time>2026-08-25T14:42:23Z</time>
      </trkpt>
      <trkpt lat="47.52134" lon="-2.81272">
        <ele>34.4</ele>
        <time>2026-08-25T14:42:24Z</time>
      </trkpt>
      <trkpt lat="47.52131" lon="-2.81268">
        <ele>34.6</ele>
        <time>2026-08-25T14:42:25Z</time>
      </trkpt>
      <trkpt lat="47.52129" lon="-2.81263">
        <ele>34.7</ele>
        <time>2026-08-25T14:42:26Z</time>
      </trkpt>
      <trkpt lat="47.52127" lon="-2.81259">
        <ele>34.9</ele>
        <time>2026-08-25T14:42:27Z</time>
      </trkpt>
      <trkpt lat="47.52124" lon="-2.81255">
        <ele>35.1</ele>
        <time>2026-08-25T14:42:28Z</time>
      </trkpt>
      <trkpt lat="47.52122" lon="-2.81251">
        <ele>35.2</ele>
        <time>2026-08-25T14:42:29Z</time>
      </trkpt>
      <trkpt lat="47.5212" lon="-2.81246">
        <ele>35.4</ele>
        <time>2026-08-25T14:42:30Z</time>
      </trkpt>
      <trkpt lat="47.52118" lon="-2.81241">
        <ele>35.6</ele>
        <time>2026-08-25T14:42:31Z</time>
      </trkpt>
      <trkpt lat="47.52116" lon="-2.81236">
        <ele>35.7</ele>
        <time>2026-08-25T14:42:32Z</time>
      </trkpt>
      <trkpt lat="47.52115" lon="-2.81231">
        <ele>35.8</ele>
        <time>2026-08-25T14:42:33Z</time>
      </trkpt>
      <trkpt lat="47.52113" lon="-2.81225">
        <ele>35.9</ele>
        <time>2026-08-25T14:42:34Z</time>
      </trkpt>
      <trkpt lat="47.52111" lon="-2.8122">
        <ele>36</ele>
        <time>2026-08-25T14:42:35Z</time>
      </trkpt>
      <trkpt lat="47.5211" lon="-2.81215">
        <ele>36.1</ele>
        <time>2026-08-25T14:42:36Z</time>
      </trkpt>
      <trkpt lat="47.52109" lon="-2.8121">
        <ele>36.2</ele>
        <time>2026-08-25T14:42:37Z</time>
      </trkpt>
      <trkpt lat="47.52108" lon="-2.81204">
        <ele>36.2</ele>
        <time>2026-08-25T14:42:38Z</time>
      </trkpt>
      <trkpt lat="47.52107" lon="-2.81199">
        <ele>36.3</ele>
        <time>2026-08-25T14:42:39Z</time>
      </trkpt>
      <trkpt lat="47.52106" lon="-2.81193">
        <ele>36.4</ele>
        <time>2026-08-25T14:42:40Z</time>
      </trkpt>
      <trkpt lat="47.52104" lon="-2.81187">
        <ele>36.5</ele>
        <time>2026-08-25T14:42:41Z</time>
      </trkpt>
      <trkpt lat="47.52103" lon="-2.81182">
        <ele>36.6</ele>
        <time>2026-08-25T14:42:42Z</time>
      </trkpt>
      <trkpt lat="47.52102" lon="-2.81176">
        <ele>36.7</ele>
        <time>2026-08-25T14:42:43Z</time>
      </trkpt>
      <trkpt lat="47.52101" lon="-2.81171">
        <ele>36.7</ele>
        <time>2026-08-25T14:42:44Z</time>
      </trkpt>
      <trkpt lat="47.521" lon="-2.81165">
        <ele>36.8</ele>
        <time>2026-08-25T14:42:45Z</time>
      </trkpt>
      <trkpt lat="47.52099" lon="-2.81159">
        <ele>36.9</ele>
        <time>2026-08-25T14:42:46Z</time>
      </trkpt>
      <trkpt lat="47.52099" lon="-2.81154">
        <ele>36.9</ele>
        <time>2026-08-25T14:42:47Z</time>
      </trkpt>
      <trkpt lat="47.52098" lon="-2.81148">
        <ele>36.9</ele>
        <time>2026-08-25T14:42:48Z</time>
      </trkpt>
      <trkpt lat="47.52097" lon="-2.81142">
        <ele>37</ele>
        <time>2026-08-25T14:42:49Z</time>
      </trkpt>
      <trkpt lat="47.52097" lon="-2.81137">
        <ele>37</ele>
        <time>2026-08-25T14:42:50Z</time>
      </trkpt>
      <trkpt lat="47.52096" lon="-2.81131">
        <ele>37.1</ele>
        <time>2026-08-25T14:42:51Z</time>
      </trkpt>
      <trkpt lat="47.52096" lon="-2.81125">
        <ele>37.1</ele>
        <time>2026-08-25T14:42:52Z</time>
      </trkpt>
      <trkpt lat="47.52095" lon="-2.81119">
        <ele>37.2</ele>
        <time>2026-08-25T14:42:53Z</time>
      </trkpt>
      <trkpt lat="47.52095" lon="-2.81113">
        <ele>37.2</ele>
        <time>2026-08-25T14:42:54Z</time>
      </trkpt>
      <trkpt lat="47.52094" lon="-2.81107">
        <ele>37.2</ele>
        <time>2026-08-25T14:42:55Z</time>
      </trkpt>
      <trkpt lat="47.52094" lon="-2.81101">
        <ele>37.2</ele>
        <time>2026-08-25T14:42:56Z</time>
      </trkpt>
      <trkpt lat="47.52094" lon="-2.81095">
        <ele>37.2</ele>
        <time>2026-08-25T14:42:57Z</time>
      </trkpt>
      <trkpt lat="47.52094" lon="-2.81089">
        <ele>37.2</ele>
        <time>2026-08-25T14:42:58Z</time>
      </trkpt>
      <trkpt lat="47.52094" lon="-2.81083">
        <ele>37.2</ele>
        <time>2026-08-25T14:42:59Z</time>
      </trkpt>
      <trkpt lat="47.52093" lon="-2.81077">
        <ele>37.3</ele>
        <time>2026-08-25T14:43:00Z</time>
      </trkpt>
      <trkpt lat="47.52093" lon="-2.81071">
        <ele>37.3</ele>
        <time>2026-08-25T14:43:01Z</time>
      </trkpt>
      <trkpt lat="47.52093" lon="-2.81064">
        <ele>37.3</ele>
        <time>2026-08-25T14:43:02Z</time>
      </trkpt>
      <trkpt lat="47.52093" lon="-2.81058">
        <ele>37.3</ele>
        <time>2026-08-25T14:43:03Z</time>
      </trkpt>
      <trkpt lat="47.52093" lon="-2.81051">
        <ele>37.3</ele>
        <time>2026-08-25T14:43:04Z</time>
      </trkpt>
      <trkpt lat="47.52093" lon="-2.81045">
        <ele>37.3</ele>
        <time>2026-08-25T14:43:05Z</time>
      </trkpt>
      <trkpt lat="47.52092" lon="-2.81038">
        <ele>37.4</ele>
        <time>2026-08-25T14:43:06Z</time>
      </trkpt>
      <trkpt lat="47.52092" lon="-2.81031">
        <ele>37.4</ele>
        <time>2026-08-25T14:43:07Z</time>
      </trkpt>
      <trkpt lat="47.52092" lon="-2.81024">
        <ele>37.3</ele>
        <time>2026-08-25T14:43:08Z</time>
      </trkpt>
      <trkpt lat="47.52092" lon="-2.81017">
        <ele>37.1</ele>
        <time>2026-08-25T14:43:09Z</time>
      </trkpt>
      <trkpt lat="47.52091" lon="-2.8101">
        <ele>37</ele>
        <time>2026-08-25T14:43:10Z</time>
      </trkpt>
      <trkpt lat="47.52091" lon="-2.81003">
        <ele>36.8</ele>
        <time>2026-08-25T14:43:11Z</time>
      </trkpt>
      <trkpt lat="47.52091" lon="-2.80996">
        <ele>36.7</ele>
        <time>2026-08-25T14:43:12Z</time>
      </trkpt>
      <trkpt lat="47.52091" lon="-2.80989">
        <ele>36.7</ele>
        <time>2026-08-25T14:43:13Z</time>
      </trkpt>
      <trkpt lat="47.52091" lon="-2.80981">
        <ele>36.7</ele>
        <time>2026-08-25T14:43:14Z</time>
      </trkpt>
      <trkpt lat="47.52091" lon="-2.80974">
        <ele>36.7</ele>
        <time>2026-08-25T14:43:15Z</time>
      </trkpt>
      <trkpt lat="47.52091" lon="-2.80967">
        <ele>36.7</ele>
        <time>2026-08-25T14:43:16Z</time>
      </trkpt>
      <trkpt lat="47.52091" lon="-2.80959">
        <ele>36.7</ele>
        <time>2026-08-25T14:43:17Z</time>
      </trkpt>
      <trkpt lat="47.52091" lon="-2.80952">
        <ele>36.7</ele>
        <time>2026-08-25T14:43:18Z</time>
      </trkpt>
      <trkpt lat="47.52091" lon="-2.80944">
        <ele>36.7</ele>
        <time>2026-08-25T14:43:19Z</time>
      </trkpt>
      <trkpt lat="47.52092" lon="-2.80936">
        <ele>36.6</ele>
        <time>2026-08-25T14:43:20Z</time>
      </trkpt>
      <trkpt lat="47.52092" lon="-2.80928">
        <ele>36.5</ele>
        <time>2026-08-25T14:43:21Z</time>
      </trkpt>
      <trkpt lat="47.52092" lon="-2.8092">
        <ele>36.4</ele>
        <time>2026-08-25T14:43:22Z</time>
      </trkpt>
      <trkpt lat="47.52093" lon="-2.80912">
        <ele>36.2</ele>
        <time>2026-08-25T14:43:23Z</time>
      </trkpt>
      <trkpt lat="47.52093" lon="-2.80904">
        <ele>36</ele>
        <time>2026-08-25T14:43:24Z</time>
      </trkpt>
      <trkpt lat="47.52094" lon="-2.80896">
        <ele>35.8</ele>
        <time>2026-08-25T14:43:25Z</time>
      </trkpt>
      <trkpt lat="47.52094" lon="-2.80888">
        <ele>35.6</ele>
        <time>2026-08-25T14:43:26Z</time>
      </trkpt>
      <trkpt lat="47.52094" lon="-2.8088">
        <ele>35.6</ele>
        <time>2026-08-25T14:43:27Z</time>
      </trkpt>
      <trkpt lat="47.52094" lon="-2.80872">
        <ele>35.6</ele>
        <time>2026-08-25T14:43:28Z</time>
      </trkpt>
      <trkpt lat="47.52094" lon="-2.80864">
        <ele>35.6</ele>
        <time>2026-08-25T14:43:29Z</time>
      </trkpt>
      <trkpt lat="47.52094" lon="-2.80857">
        <ele>35.6</ele>
        <time>2026-08-25T14:43:30Z</time>
      </trkpt>
      <trkpt lat="47.52094" lon="-2.80849">
        <ele>35.6</ele>
        <time>2026-08-25T14:43:31Z</time>
      </trkpt>
      <trkpt lat="47.52095" lon="-2.80841">
        <ele>35.6</ele>
        <time>2026-08-25T14:43:32Z</time>
      </trkpt>
      <trkpt lat="47.52095" lon="-2.80833">
        <ele>35.6</ele>
        <time>2026-08-25T14:43:33Z</time>
      </trkpt>
      <trkpt lat="47.52095" lon="-2.80825">
        <ele>35.5</ele>
        <time>2026-08-25T14:43:34Z</time>
      </trkpt>
      <trkpt lat="47.52094" lon="-2.80817">
        <ele>35.4</ele>
        <time>2026-08-25T14:43:35Z</time>
      </trkpt>
      <trkpt lat="47.52094" lon="-2.80809">
        <ele>35.3</ele>
        <time>2026-08-25T14:43:36Z</time>
      </trkpt>
      <trkpt lat="47.52094" lon="-2.80801">
        <ele>35.2</ele>
        <time>2026-08-25T14:43:37Z</time>
      </trkpt>
      <trkpt lat="47.52094" lon="-2.80793">
        <ele>35.2</ele>
        <time>2026-08-25T14:43:38Z</time>
      </trkpt>
      <trkpt lat="47.52094" lon="-2.80785">
        <ele>35.2</ele>
        <time>2026-08-25T14:43:39Z</time>
      </trkpt>
      <trkpt lat="47.52094" lon="-2.80777">
        <ele>35.2</ele>
        <time>2026-08-25T14:43:40Z</time>
      </trkpt>
      <trkpt lat="47.52093" lon="-2.80769">
        <ele>35.1</ele>
        <time>2026-08-25T14:43:41Z</time>
      </trkpt>
      <trkpt lat="47.52093" lon="-2.80761">
        <ele>34.9</ele>
        <time>2026-08-25T14:43:42Z</time>
      </trkpt>
      <trkpt lat="47.52093" lon="-2.80753">
        <ele>34.7</ele>
        <time>2026-08-25T14:43:43Z</time>
      </trkpt>
      <trkpt lat="47.52093" lon="-2.80745">
        <ele>34.8</ele>
        <time>2026-08-25T14:43:44Z</time>
      </trkpt>
      <trkpt lat="47.52094" lon="-2.80737">
        <ele>35.1</ele>
        <time>2026-08-25T14:43:45Z</time>
      </trkpt>
      <trkpt lat="47.52094" lon="-2.80729">
        <ele>35.4</ele>
        <time>2026-08-25T14:43:46Z</time>
      </trkpt>
      <trkpt lat="47.52094" lon="-2.80722">
        <ele>35.6</ele>
        <time>2026-08-25T14:43:47Z</time>
      </trkpt>
      <trkpt lat="47.52094" lon="-2.80714">
        <ele>35.6</ele>
        <time>2026-08-25T14:43:48Z</time>
      </trkpt>
      <trkpt lat="47.52095" lon="-2.80706">
        <ele>35.6</ele>
        <time>2026-08-25T14:43:49Z</time>
      </trkpt>
      <trkpt lat="47.52095" lon="-2.80699">
        <ele>35.6</ele>
        <time>2026-08-25T14:43:50Z</time>
      </trkpt>
      <trkpt lat="47.52096" lon="-2.80691">
        <ele>35.6</ele>
        <time>2026-08-25T14:43:51Z</time>
      </trkpt>
      <trkpt lat="47.52096" lon="-2.80683">
        <ele>35.8</ele>
        <time>2026-08-25T14:43:52Z</time>
      </trkpt>
      <trkpt lat="47.52097" lon="-2.80676">
        <ele>35.8</ele>
        <time>2026-08-25T14:43:53Z</time>
      </trkpt>
      <trkpt lat="47.52098" lon="-2.80669">
        <ele>35.9</ele>
        <time>2026-08-25T14:43:54Z</time>
      </trkpt>
      <trkpt lat="47.52098" lon="-2.80661">
        <ele>36.1</ele>
        <time>2026-08-25T14:43:55Z</time>
      </trkpt>
      <trkpt lat="47.52099" lon="-2.80654">
        <ele>36.1</ele>
        <time>2026-08-25T14:43:56Z</time>
      </trkpt>
      <trkpt lat="47.521" lon="-2.80647">
        <ele>36.2</ele>
        <time>2026-08-25T14:43:57Z</time>
      </trkpt>
      <trkpt lat="47.52101" lon="-2.8064">
        <ele>36.3</ele>
        <time>2026-08-25T14:43:58Z</time>
      </trkpt>
      <trkpt lat="47.52103" lon="-2.80632">
        <ele>36.3</ele>
        <time>2026-08-25T14:43:59Z</time>
      </trkpt>
      <trkpt lat="47.52104" lon="-2.80625">
        <ele>36.3</ele>
        <time>2026-08-25T14:44:00Z</time>
      </trkpt>
      <trkpt lat="47.52106" lon="-2.80618">
        <ele>36.2</ele>
        <time>2026-08-25T14:44:01Z</time>
      </trkpt>
      <trkpt lat="47.52108" lon="-2.80611">
        <ele>36.1</ele>
        <time>2026-08-25T14:44:02Z</time>
      </trkpt>
      <trkpt lat="47.5211" lon="-2.80605">
        <ele>36.3</ele>
        <time>2026-08-25T14:44:03Z</time>
      </trkpt>
      <trkpt lat="47.52112" lon="-2.80598">
        <ele>36.5</ele>
        <time>2026-08-25T14:44:04Z</time>
      </trkpt>
      <trkpt lat="47.52114" lon="-2.80591">
        <ele>36.6</ele>
        <time>2026-08-25T14:44:05Z</time>
      </trkpt>
      <trkpt lat="47.52116" lon="-2.80584">
        <ele>36.8</ele>
        <time>2026-08-25T14:44:06Z</time>
      </trkpt>
      <trkpt lat="47.52118" lon="-2.80577">
        <ele>36.8</ele>
        <time>2026-08-25T14:44:07Z</time>
      </trkpt>
      <trkpt lat="47.5212" lon="-2.80569">
        <ele>36.7</ele>
        <time>2026-08-25T14:44:08Z</time>
      </trkpt>
      <trkpt lat="47.52122" lon="-2.80562">
        <ele>36.6</ele>
        <time>2026-08-25T14:44:09Z</time>
      </trkpt>
      <trkpt lat="47.52123" lon="-2.80554">
        <ele>36.6</ele>
        <time>2026-08-25T14:44:10Z</time>
      </trkpt>
      <trkpt lat="47.52124" lon="-2.80546">
        <ele>36.5</ele>
        <time>2026-08-25T14:44:11Z</time>
      </trkpt>
      <trkpt lat="47.52125" lon="-2.80539">
        <ele>36.5</ele>
        <time>2026-08-25T14:44:12Z</time>
      </trkpt>
      <trkpt lat="47.52126" lon="-2.80532">
        <ele>36.5</ele>
        <time>2026-08-25T14:44:13Z</time>
      </trkpt>
      <trkpt lat="47.52127" lon="-2.80526">
        <ele>36.4</ele>
        <time>2026-08-25T14:44:14Z</time>
      </trkpt>
      <trkpt lat="47.52127" lon="-2.80521">
        <ele>36.4</ele>
        <time>2026-08-25T14:44:15Z</time>
      </trkpt>
      <trkpt lat="47.52128" lon="-2.80516">
        <ele>36.4</ele>
        <time>2026-08-25T14:44:16Z</time>
      </trkpt>
      <trkpt lat="47.52128" lon="-2.8051">
        <ele>36.4</ele>
        <time>2026-08-25T14:44:17Z</time>
      </trkpt>
      <trkpt lat="47.52129" lon="-2.80504">
        <ele>36.4</ele>
        <time>2026-08-25T14:44:18Z</time>
      </trkpt>
      <trkpt lat="47.52129" lon="-2.80498">
        <ele>36.4</ele>
        <time>2026-08-25T14:44:19Z</time>
      </trkpt>
      <trkpt lat="47.5213" lon="-2.80492">
        <ele>36.5</ele>
        <time>2026-08-25T14:44:20Z</time>
      </trkpt>
      <trkpt lat="47.52131" lon="-2.80485">
        <ele>36.7</ele>
        <time>2026-08-25T14:44:21Z</time>
      </trkpt>
      <trkpt lat="47.52132" lon="-2.80478">
        <ele>36.8</ele>
        <time>2026-08-25T14:44:22Z</time>
      </trkpt>
      <trkpt lat="47.52133" lon="-2.80471">
        <ele>37</ele>
        <time>2026-08-25T14:44:23Z</time>
      </trkpt>
      <trkpt lat="47.52134" lon="-2.80464">
        <ele>37.1</ele>
        <time>2026-08-25T14:44:24Z</time>
      </trkpt>
      <trkpt lat="47.52135" lon="-2.80457">
        <ele>37.1</ele>
        <time>2026-08-25T14:44:25Z</time>
      </trkpt>
      <trkpt lat="47.52136" lon="-2.8045">
        <ele>37.1</ele>
        <time>2026-08-25T14:44:26Z</time>
      </trkpt>
      <trkpt lat="47.52138" lon="-2.80443">
        <ele>37</ele>
        <time>2026-08-25T14:44:27Z</time>
      </trkpt>
      <trkpt lat="47.5214" lon="-2.80435">
        <ele>37</ele>
        <time>2026-08-25T14:44:28Z</time>
      </trkpt>
      <trkpt lat="47.52142" lon="-2.80427">
        <ele>37</ele>
        <time>2026-08-25T14:44:29Z</time>
      </trkpt>
      <trkpt lat="47.52144" lon="-2.80419">
        <ele>37</ele>
        <time>2026-08-25T14:44:30Z</time>
      </trkpt>
      <trkpt lat="47.52145" lon="-2.80412">
        <ele>37</ele>
        <time>2026-08-25T14:44:31Z</time>
      </trkpt>
      <trkpt lat="47.52147" lon="-2.80404">
        <ele>37</ele>
        <time>2026-08-25T14:44:32Z</time>
      </trkpt>
      <trkpt lat="47.52148" lon="-2.80397">
        <ele>37</ele>
        <time>2026-08-25T14:44:33Z</time>
      </trkpt>
      <trkpt lat="47.5215" lon="-2.8039">
        <ele>37</ele>
        <time>2026-08-25T14:44:34Z</time>
      </trkpt>
      <trkpt lat="47.52151" lon="-2.80382">
        <ele>37.1</ele>
        <time>2026-08-25T14:44:35Z</time>
      </trkpt>
      <trkpt lat="47.52152" lon="-2.80375">
        <ele>37.3</ele>
        <time>2026-08-25T14:44:36Z</time>
      </trkpt>
      <trkpt lat="47.52153" lon="-2.80368">
        <ele>37.4</ele>
        <time>2026-08-25T14:44:37Z</time>
      </trkpt>
      <trkpt lat="47.52154" lon="-2.80361">
        <ele>37.5</ele>
        <time>2026-08-25T14:44:38Z</time>
      </trkpt>
      <trkpt lat="47.52156" lon="-2.80353">
        <ele>37.4</ele>
        <time>2026-08-25T14:44:39Z</time>
      </trkpt>
      <trkpt lat="47.52157" lon="-2.80346">
        <ele>37.3</ele>
        <time>2026-08-25T14:44:40Z</time>
      </trkpt>
      <trkpt lat="47.52158" lon="-2.80339">
        <ele>37.3</ele>
        <time>2026-08-25T14:44:41Z</time>
      </trkpt>
      <trkpt lat="47.52159" lon="-2.80331">
        <ele>37.3</ele>
        <time>2026-08-25T14:44:42Z</time>
      </trkpt>
      <trkpt lat="47.52159" lon="-2.80323">
        <ele>37.2</ele>
        <time>2026-08-25T14:44:43Z</time>
      </trkpt>
      <trkpt lat="47.52159" lon="-2.80316">
        <ele>37.1</ele>
        <time>2026-08-25T14:44:44Z</time>
      </trkpt>
      <trkpt lat="47.52159" lon="-2.80308">
        <ele>37</ele>
        <time>2026-08-25T14:44:45Z</time>
      </trkpt>
      <trkpt lat="47.52159" lon="-2.803">
        <ele>37</ele>
        <time>2026-08-25T14:44:46Z</time>
      </trkpt>
      <trkpt lat="47.52158" lon="-2.80293">
        <ele>37</ele>
        <time>2026-08-25T14:44:47Z</time>
      </trkpt>
      <trkpt lat="47.52158" lon="-2.80286">
        <ele>37</ele>
        <time>2026-08-25T14:44:48Z</time>
      </trkpt>
      <trkpt lat="47.52158" lon="-2.80279">
        <ele>37</ele>
        <time>2026-08-25T14:44:49Z</time>
      </trkpt>
      <trkpt lat="47.52158" lon="-2.80271">
        <ele>37</ele>
        <time>2026-08-25T14:44:50Z</time>
      </trkpt>
      <trkpt lat="47.52157" lon="-2.80263">
        <ele>37</ele>
        <time>2026-08-25T14:44:51Z</time>
      </trkpt>
      <trkpt lat="47.52157" lon="-2.80255">
        <ele>37</ele>
        <time>2026-08-25T14:44:52Z</time>
      </trkpt>
      <trkpt lat="47.52156" lon="-2.80248">
        <ele>37</ele>
        <time>2026-08-25T14:44:53Z</time>
      </trkpt>
      <trkpt lat="47.52156" lon="-2.8024">
        <ele>37</ele>
        <time>2026-08-25T14:44:54Z</time>
      </trkpt>
      <trkpt lat="47.52155" lon="-2.80232">
        <ele>37</ele>
        <time>2026-08-25T14:44:55Z</time>
      </trkpt>
      <trkpt lat="47.52155" lon="-2.80224">
        <ele>37</ele>
        <time>2026-08-25T14:44:56Z</time>
      </trkpt>
      <trkpt lat="47.52154" lon="-2.80216">
        <ele>37</ele>
        <time>2026-08-25T14:44:57Z</time>
      </trkpt>
      <trkpt lat="47.52154" lon="-2.80208">
        <ele>37</ele>
        <time>2026-08-25T14:44:58Z</time>
      </trkpt>
      <trkpt lat="47.52154" lon="-2.802">
        <ele>37</ele>
        <time>2026-08-25T14:44:59Z</time>
      </trkpt>
      <trkpt lat="47.52154" lon="-2.80193">
        <ele>37</ele>
        <time>2026-08-25T14:45:00Z</time>
      </trkpt>
      <trkpt lat="47.52154" lon="-2.80185">
        <ele>37</ele>
        <time>2026-08-25T14:45:01Z</time>
      </trkpt>
      <trkpt lat="47.52155" lon="-2.80177">
        <ele>37</ele>
        <time>2026-08-25T14:45:02Z</time>
      </trkpt>
      <trkpt lat="47.52155" lon="-2.8017">
        <ele>37</ele>
        <time>2026-08-25T14:45:03Z</time>
      </trkpt>
      <trkpt lat="47.52155" lon="-2.80163">
        <ele>37</ele>
        <time>2026-08-25T14:45:04Z</time>
      </trkpt>
      <trkpt lat="47.52155" lon="-2.80155">
        <ele>37</ele>
        <time>2026-08-25T14:45:05Z</time>
      </trkpt>
      <trkpt lat="47.52156" lon="-2.80147">
        <ele>37</ele>
        <time>2026-08-25T14:45:06Z</time>
      </trkpt>
      <trkpt lat="47.52156" lon="-2.8014">
        <ele>37</ele>
        <time>2026-08-25T14:45:07Z</time>
      </trkpt>
      <trkpt lat="47.52156" lon="-2.80132">
        <ele>37</ele>
        <time>2026-08-25T14:45:08Z</time>
      </trkpt>
      <trkpt lat="47.52156" lon="-2.80124">
        <ele>37</ele>
        <time>2026-08-25T14:45:09Z</time>
      </trkpt>
      <trkpt lat="47.52157" lon="-2.80117">
        <ele>37</ele>
        <time>2026-08-25T14:45:10Z</time>
      </trkpt>
      <trkpt lat="47.52157" lon="-2.80109">
        <ele>37</ele>
        <time>2026-08-25T14:45:11Z</time>
      </trkpt>
      <trkpt lat="47.52157" lon="-2.80101">
        <ele>37</ele>
        <time>2026-08-25T14:45:12Z</time>
      </trkpt>
      <trkpt lat="47.52158" lon="-2.80093">
        <ele>37</ele>
        <time>2026-08-25T14:45:13Z</time>
      </trkpt>
      <trkpt lat="47.52158" lon="-2.80085">
        <ele>37</ele>
        <time>2026-08-25T14:45:14Z</time>
      </trkpt>
      <trkpt lat="47.52159" lon="-2.80077">
        <ele>36.8</ele>
        <time>2026-08-25T14:45:15Z</time>
      </trkpt>
      <trkpt lat="47.52159" lon="-2.80069">
        <ele>36.6</ele>
        <time>2026-08-25T14:45:16Z</time>
      </trkpt>
      <trkpt lat="47.52159" lon="-2.80062">
        <ele>36.4</ele>
        <time>2026-08-25T14:45:17Z</time>
      </trkpt>
      <trkpt lat="47.52159" lon="-2.80054">
        <ele>36.3</ele>
        <time>2026-08-25T14:45:18Z</time>
      </trkpt>
      <trkpt lat="47.52159" lon="-2.80047">
        <ele>36.3</ele>
        <time>2026-08-25T14:45:19Z</time>
      </trkpt>
      <trkpt lat="47.52159" lon="-2.8004">
        <ele>36.3</ele>
        <time>2026-08-25T14:45:20Z</time>
      </trkpt>
      <trkpt lat="47.52159" lon="-2.80032">
        <ele>36.3</ele>
        <time>2026-08-25T14:45:21Z</time>
      </trkpt>
      <trkpt lat="47.52158" lon="-2.80025">
        <ele>36.3</ele>
        <time>2026-08-25T14:45:22Z</time>
      </trkpt>
      <trkpt lat="47.52157" lon="-2.80018">
        <ele>36.3</ele>
        <time>2026-08-25T14:45:23Z</time>
      </trkpt>
      <trkpt lat="47.52156" lon="-2.80011">
        <ele>36.4</ele>
        <time>2026-08-25T14:45:24Z</time>
      </trkpt>
      <trkpt lat="47.52156" lon="-2.80003">
        <ele>36.4</ele>
        <time>2026-08-25T14:45:25Z</time>
      </trkpt>
      <trkpt lat="47.52155" lon="-2.79996">
        <ele>36.4</ele>
        <time>2026-08-25T14:45:26Z</time>
      </trkpt>
      <trkpt lat="47.52154" lon="-2.7999">
        <ele>36.3</ele>
        <time>2026-08-25T14:45:27Z</time>
      </trkpt>
      <trkpt lat="47.52153" lon="-2.79984">
        <ele>36.2</ele>
        <time>2026-08-25T14:45:28Z</time>
      </trkpt>
      <trkpt lat="47.52151" lon="-2.79979">
        <ele>36.1</ele>
        <time>2026-08-25T14:45:29Z</time>
      </trkpt>
      <trkpt lat="47.5215" lon="-2.79975">
        <ele>36.1</ele>
        <time>2026-08-25T14:45:30Z</time>
      </trkpt>
      <trkpt lat="47.5215" lon="-2.79971">
        <ele>36</ele>
        <time>2026-08-25T14:45:31Z</time>
      </trkpt>
      <trkpt lat="47.52149" lon="-2.79967">
        <ele>35.9</ele>
        <time>2026-08-25T14:45:32Z</time>
      </trkpt>
      <trkpt lat="47.52149" lon="-2.79964">
        <ele>35.9</ele>
        <time>2026-08-25T14:45:33Z</time>
      </trkpt>
      <trkpt lat="47.52149" lon="-2.7996">
        <ele>35.8</ele>
        <time>2026-08-25T14:45:34Z</time>
      </trkpt>
      <trkpt lat="47.52148" lon="-2.79956">
        <ele>35.8</ele>
        <time>2026-08-25T14:45:35Z</time>
      </trkpt>
      <trkpt lat="47.52147" lon="-2.79952">
        <ele>35.8</ele>
        <time>2026-08-25T14:45:36Z</time>
      </trkpt>
      <trkpt lat="47.52146" lon="-2.79949">
        <ele>35.8</ele>
        <time>2026-08-25T14:45:37Z</time>
      </trkpt>
      <trkpt lat="47.52146" lon="-2.79947">
        <ele>35.8</ele>
        <time>2026-08-25T14:45:38Z</time>
      </trkpt>
      <trkpt lat="47.52146" lon="-2.79947">
        <ele>35.8</ele>
        <time>2026-08-25T14:45:39Z</time>
      </trkpt>
      <trkpt lat="47.52146" lon="-2.79947">
        <ele>35.8</ele>
        <time>2026-08-25T14:45:40Z</time>
      </trkpt>
      <trkpt lat="47.52145" lon="-2.79939">
        <ele>35.8</ele>
        <time>2026-08-25T14:46:54Z</time>
      </trkpt>
      <trkpt lat="47.52144" lon="-2.79936">
        <ele>35.8</ele>
        <time>2026-08-25T14:46:55Z</time>
      </trkpt>
      <trkpt lat="47.52144" lon="-2.79931">
        <ele>35.8</ele>
        <time>2026-08-25T14:46:56Z</time>
      </trkpt>
      <trkpt lat="47.52143" lon="-2.79926">
        <ele>35.9</ele>
        <time>2026-08-25T14:46:57Z</time>
      </trkpt>
      <trkpt lat="47.52142" lon="-2.7992">
        <ele>35.9</ele>
        <time>2026-08-25T14:46:58Z</time>
      </trkpt>
      <trkpt lat="47.52141" lon="-2.79914">
        <ele>35.9</ele>
        <time>2026-08-25T14:46:59Z</time>
      </trkpt>
      <trkpt lat="47.52141" lon="-2.79907">
        <ele>35.9</ele>
        <time>2026-08-25T14:47:00Z</time>
      </trkpt>
      <trkpt lat="47.52141" lon="-2.799">
        <ele>35.9</ele>
        <time>2026-08-25T14:47:01Z</time>
      </trkpt>
      <trkpt lat="47.5214" lon="-2.79893">
        <ele>35.9</ele>
        <time>2026-08-25T14:47:02Z</time>
      </trkpt>
      <trkpt lat="47.5214" lon="-2.79885">
        <ele>35.8</ele>
        <time>2026-08-25T14:47:03Z</time>
      </trkpt>
      <trkpt lat="47.52139" lon="-2.79878">
        <ele>35.6</ele>
        <time>2026-08-25T14:47:04Z</time>
      </trkpt>
      <trkpt lat="47.52139" lon="-2.7987">
        <ele>35.3</ele>
        <time>2026-08-25T14:47:05Z</time>
      </trkpt>
      <trkpt lat="47.52138" lon="-2.79862">
        <ele>35.1</ele>
        <time>2026-08-25T14:47:06Z</time>
      </trkpt>
      <trkpt lat="47.52138" lon="-2.79853">
        <ele>35</ele>
        <time>2026-08-25T14:47:07Z</time>
      </trkpt>
      <trkpt lat="47.52138" lon="-2.79845">
        <ele>35</ele>
        <time>2026-08-25T14:47:08Z</time>
      </trkpt>
      <trkpt lat="47.52138" lon="-2.79836">
        <ele>35</ele>
        <time>2026-08-25T14:47:09Z</time>
      </trkpt>
      <trkpt lat="47.52138" lon="-2.79828">
        <ele>34.8</ele>
        <time>2026-08-25T14:47:10Z</time>
      </trkpt>
      <trkpt lat="47.52136" lon="-2.7982">
        <ele>34.7</ele>
        <time>2026-08-25T14:47:11Z</time>
      </trkpt>
      <trkpt lat="47.52136" lon="-2.79813">
        <ele>34.4</ele>
        <time>2026-08-25T14:47:12Z</time>
      </trkpt>
      <trkpt lat="47.52135" lon="-2.79806">
        <ele>34.3</ele>
        <time>2026-08-25T14:47:13Z</time>
      </trkpt>
      <trkpt lat="47.52134" lon="-2.798">
        <ele>34.3</ele>
        <time>2026-08-25T14:47:14Z</time>
      </trkpt>
      <trkpt lat="47.52134" lon="-2.79792">
        <ele>34.3</ele>
        <time>2026-08-25T14:47:15Z</time>
      </trkpt>
      <trkpt lat="47.52133" lon="-2.79784">
        <ele>34.3</ele>
        <time>2026-08-25T14:47:16Z</time>
      </trkpt>
      <trkpt lat="47.52131" lon="-2.79776">
        <ele>34.3</ele>
        <time>2026-08-25T14:47:17Z</time>
      </trkpt>
      <trkpt lat="47.52129" lon="-2.79768">
        <ele>34.4</ele>
        <time>2026-08-25T14:47:18Z</time>
      </trkpt>
      <trkpt lat="47.52129" lon="-2.79759">
        <ele>34.4</ele>
        <time>2026-08-25T14:47:19Z</time>
      </trkpt>
      <trkpt lat="47.52128" lon="-2.79749">
        <ele>34.4</ele>
        <time>2026-08-25T14:47:20Z</time>
      </trkpt>
      <trkpt lat="47.52128" lon="-2.7974">
        <ele>34.4</ele>
        <time>2026-08-25T14:47:21Z</time>
      </trkpt>
      <trkpt lat="47.52127" lon="-2.79732">
        <ele>34.4</ele>
        <time>2026-08-25T14:47:22Z</time>
      </trkpt>
      <trkpt lat="47.52127" lon="-2.79723">
        <ele>34.4</ele>
        <time>2026-08-25T14:47:23Z</time>
      </trkpt>
      <trkpt lat="47.52128" lon="-2.79715">
        <ele>34.2</ele>
        <time>2026-08-25T14:47:24Z</time>
      </trkpt>
      <trkpt lat="47.52129" lon="-2.79706">
        <ele>34</ele>
        <time>2026-08-25T14:47:25Z</time>
      </trkpt>
      <trkpt lat="47.5213" lon="-2.79698">
        <ele>33.7</ele>
        <time>2026-08-25T14:47:26Z</time>
      </trkpt>
      <trkpt lat="47.52131" lon="-2.7969">
        <ele>33.5</ele>
        <time>2026-08-25T14:47:27Z</time>
      </trkpt>
      <trkpt lat="47.52133" lon="-2.79683">
        <ele>33.3</ele>
        <time>2026-08-25T14:47:28Z</time>
      </trkpt>
      <trkpt lat="47.52136" lon="-2.79676">
        <ele>33.1</ele>
        <time>2026-08-25T14:47:29Z</time>
      </trkpt>
      <trkpt lat="47.52139" lon="-2.79671">
        <ele>33</ele>
        <time>2026-08-25T14:47:30Z</time>
      </trkpt>
      <trkpt lat="47.52143" lon="-2.79666">
        <ele>33</ele>
        <time>2026-08-25T14:47:31Z</time>
      </trkpt>
      <trkpt lat="47.52148" lon="-2.79663">
        <ele>33</ele>
        <time>2026-08-25T14:47:32Z</time>
      </trkpt>
      <trkpt lat="47.52153" lon="-2.79659">
        <ele>33</ele>
        <time>2026-08-25T14:47:33Z</time>
      </trkpt>
      <trkpt lat="47.52157" lon="-2.79655">
        <ele>33</ele>
        <time>2026-08-25T14:47:34Z</time>
      </trkpt>
      <trkpt lat="47.52162" lon="-2.79651">
        <ele>33</ele>
        <time>2026-08-25T14:47:35Z</time>
      </trkpt>
      <trkpt lat="47.52168" lon="-2.79648">
        <ele>33</ele>
        <time>2026-08-25T14:47:36Z</time>
      </trkpt>
      <trkpt lat="47.52173" lon="-2.79644">
        <ele>33</ele>
        <time>2026-08-25T14:47:37Z</time>
      </trkpt>
      <trkpt lat="47.52178" lon="-2.7964">
        <ele>33</ele>
        <time>2026-08-25T14:47:38Z</time>
      </trkpt>
      <trkpt lat="47.52183" lon="-2.79636">
        <ele>32.9</ele>
        <time>2026-08-25T14:47:39Z</time>
      </trkpt>
      <trkpt lat="47.52188" lon="-2.79632">
        <ele>32.8</ele>
        <time>2026-08-25T14:47:40Z</time>
      </trkpt>
      <trkpt lat="47.52194" lon="-2.79627">
        <ele>32.6</ele>
        <time>2026-08-25T14:47:41Z</time>
      </trkpt>
      <trkpt lat="47.52199" lon="-2.79622">
        <ele>32.3</ele>
        <time>2026-08-25T14:47:42Z</time>
      </trkpt>
      <trkpt lat="47.52204" lon="-2.79617">
        <ele>32.1</ele>
        <time>2026-08-25T14:47:43Z</time>
      </trkpt>
      <trkpt lat="47.52208" lon="-2.79612">
        <ele>32</ele>
        <time>2026-08-25T14:47:44Z</time>
      </trkpt>
      <trkpt lat="47.52213" lon="-2.79607">
        <ele>31.9</ele>
        <time>2026-08-25T14:47:45Z</time>
      </trkpt>
      <trkpt lat="47.52218" lon="-2.79603">
        <ele>31.8</ele>
        <time>2026-08-25T14:47:46Z</time>
      </trkpt>
      <trkpt lat="47.52223" lon="-2.79598">
        <ele>31.5</ele>
        <time>2026-08-25T14:47:47Z</time>
      </trkpt>
      <trkpt lat="47.52227" lon="-2.79593">
        <ele>31.3</ele>
        <time>2026-08-25T14:47:48Z</time>
      </trkpt>
      <trkpt lat="47.52232" lon="-2.79588">
        <ele>31.1</ele>
        <time>2026-08-25T14:47:49Z</time>
      </trkpt>
      <trkpt lat="47.52236" lon="-2.79583">
        <ele>31</ele>
        <time>2026-08-25T14:47:50Z</time>
      </trkpt>
      <trkpt lat="47.52241" lon="-2.79578">
        <ele>31</ele>
        <time>2026-08-25T14:47:51Z</time>
      </trkpt>
      <trkpt lat="47.52245" lon="-2.79573">
        <ele>31</ele>
        <time>2026-08-25T14:47:52Z</time>
      </trkpt>
      <trkpt lat="47.5225" lon="-2.79568">
        <ele>31</ele>
        <time>2026-08-25T14:47:53Z</time>
      </trkpt>
      <trkpt lat="47.52255" lon="-2.79563">
        <ele>30.8</ele>
        <time>2026-08-25T14:47:54Z</time>
      </trkpt>
      <trkpt lat="47.52259" lon="-2.79558">
        <ele>30.7</ele>
        <time>2026-08-25T14:47:55Z</time>
      </trkpt>
      <trkpt lat="47.52264" lon="-2.79552">
        <ele>30.4</ele>
        <time>2026-08-25T14:47:56Z</time>
      </trkpt>
      <trkpt lat="47.52269" lon="-2.79547">
        <ele>30</ele>
        <time>2026-08-25T14:47:57Z</time>
      </trkpt>
      <trkpt lat="47.52274" lon="-2.79541">
        <ele>29.6</ele>
        <time>2026-08-25T14:47:58Z</time>
      </trkpt>
      <trkpt lat="47.52279" lon="-2.79536">
        <ele>29.3</ele>
        <time>2026-08-25T14:47:59Z</time>
      </trkpt>
      <trkpt lat="47.52285" lon="-2.7953">
        <ele>28.8</ele>
        <time>2026-08-25T14:48:00Z</time>
      </trkpt>
      <trkpt lat="47.5229" lon="-2.79523">
        <ele>28.6</ele>
        <time>2026-08-25T14:48:01Z</time>
      </trkpt>
      <trkpt lat="47.52295" lon="-2.79517">
        <ele>28.4</ele>
        <time>2026-08-25T14:48:02Z</time>
      </trkpt>
      <trkpt lat="47.52301" lon="-2.7951">
        <ele>28.2</ele>
        <time>2026-08-25T14:48:03Z</time>
      </trkpt>
      <trkpt lat="47.52306" lon="-2.79503">
        <ele>28</ele>
        <time>2026-08-25T14:48:04Z</time>
      </trkpt>
      <trkpt lat="47.52312" lon="-2.79496">
        <ele>27.5</ele>
        <time>2026-08-25T14:48:05Z</time>
      </trkpt>
      <trkpt lat="47.52318" lon="-2.79489">
        <ele>26.9</ele>
        <time>2026-08-25T14:48:06Z</time>
      </trkpt>
      <trkpt lat="47.52324" lon="-2.79481">
        <ele>26.2</ele>
        <time>2026-08-25T14:48:07Z</time>
      </trkpt>
      <trkpt lat="47.52329" lon="-2.79473">
        <ele>25.5</ele>
        <time>2026-08-25T14:48:08Z</time>
      </trkpt>
      <trkpt lat="47.52335" lon="-2.79466">
        <ele>24.9</ele>
        <time>2026-08-25T14:48:09Z</time>
      </trkpt>
      <trkpt lat="47.52341" lon="-2.79459">
        <ele>24.7</ele>
        <time>2026-08-25T14:48:10Z</time>
      </trkpt>
      <trkpt lat="47.52346" lon="-2.79452">
        <ele>24.8</ele>
        <time>2026-08-25T14:48:11Z</time>
      </trkpt>
      <trkpt lat="47.52349" lon="-2.79447">
        <ele>24.9</ele>
        <time>2026-08-25T14:48:12Z</time>
      </trkpt>
      <trkpt lat="47.52351" lon="-2.79442">
        <ele>24.9</ele>
        <time>2026-08-25T14:48:13Z</time>
      </trkpt>
      <trkpt lat="47.5235" lon="-2.79437">
        <ele>24.7</ele>
        <time>2026-08-25T14:48:14Z</time>
      </trkpt>
      <trkpt lat="47.52349" lon="-2.79433">
        <ele>24.6</ele>
        <time>2026-08-25T14:48:15Z</time>
      </trkpt>
      <trkpt lat="47.52346" lon="-2.79429">
        <ele>24.4</ele>
        <time>2026-08-25T14:48:16Z</time>
      </trkpt>
      <trkpt lat="47.52343" lon="-2.79427">
        <ele>24.4</ele>
        <time>2026-08-25T14:48:17Z</time>
      </trkpt>
      <trkpt lat="47.52338" lon="-2.79425">
        <ele>24.3</ele>
        <time>2026-08-25T14:48:18Z</time>
      </trkpt>
      <trkpt lat="47.52334" lon="-2.79425">
        <ele>24.3</ele>
        <time>2026-08-25T14:48:19Z</time>
      </trkpt>
      <trkpt lat="47.5233" lon="-2.79425">
        <ele>24.5</ele>
        <time>2026-08-25T14:48:20Z</time>
      </trkpt>
      <trkpt lat="47.52326" lon="-2.79422">
        <ele>24.7</ele>
        <time>2026-08-25T14:48:21Z</time>
      </trkpt>
      <trkpt lat="47.52323" lon="-2.79418">
        <ele>24.8</ele>
        <time>2026-08-25T14:48:22Z</time>
      </trkpt>
      <trkpt lat="47.5232" lon="-2.79413">
        <ele>24.8</ele>
        <time>2026-08-25T14:48:23Z</time>
      </trkpt>
      <trkpt lat="47.52318" lon="-2.79408">
        <ele>24.8</ele>
        <time>2026-08-25T14:48:24Z</time>
      </trkpt>
      <trkpt lat="47.52315" lon="-2.79403">
        <ele>24.8</ele>
        <time>2026-08-25T14:48:25Z</time>
      </trkpt>
      <trkpt lat="47.52311" lon="-2.79398">
        <ele>24.9</ele>
        <time>2026-08-25T14:48:26Z</time>
      </trkpt>
      <trkpt lat="47.52308" lon="-2.79393">
        <ele>25</ele>
        <time>2026-08-25T14:48:27Z</time>
      </trkpt>
      <trkpt lat="47.52305" lon="-2.79388">
        <ele>25</ele>
        <time>2026-08-25T14:48:28Z</time>
      </trkpt>
      <trkpt lat="47.52303" lon="-2.79383">
        <ele>24.9</ele>
        <time>2026-08-25T14:48:29Z</time>
      </trkpt>
      <trkpt lat="47.523" lon="-2.79378">
        <ele>24.9</ele>
        <time>2026-08-25T14:48:30Z</time>
      </trkpt>
      <trkpt lat="47.52299" lon="-2.79372">
        <ele>24.8</ele>
        <time>2026-08-25T14:48:31Z</time>
      </trkpt>
      <trkpt lat="47.52297" lon="-2.79367">
        <ele>24.8</ele>
        <time>2026-08-25T14:48:32Z</time>
      </trkpt>
      <trkpt lat="47.52295" lon="-2.79361">
        <ele>24.8</ele>
        <time>2026-08-25T14:48:33Z</time>
      </trkpt>
      <trkpt lat="47.52293" lon="-2.79355">
        <ele>24.9</ele>
        <time>2026-08-25T14:48:34Z</time>
      </trkpt>
      <trkpt lat="47.52291" lon="-2.79349">
        <ele>25</ele>
        <time>2026-08-25T14:48:35Z</time>
      </trkpt>
      <trkpt lat="47.52289" lon="-2.79344">
        <ele>25.2</ele>
        <time>2026-08-25T14:48:36Z</time>
      </trkpt>
      <trkpt lat="47.52286" lon="-2.79339">
        <ele>25.4</ele>
        <time>2026-08-25T14:48:37Z</time>
      </trkpt>
      <trkpt lat="47.52284" lon="-2.79333">
        <ele>25.5</ele>
        <time>2026-08-25T14:48:38Z</time>
      </trkpt>
      <trkpt lat="47.52283" lon="-2.79328">
        <ele>25.5</ele>
        <time>2026-08-25T14:48:39Z</time>
      </trkpt>
      <trkpt lat="47.5228" lon="-2.79322">
        <ele>25.5</ele>
        <time>2026-08-25T14:48:40Z</time>
      </trkpt>
      <trkpt lat="47.52278" lon="-2.79316">
        <ele>25.4</ele>
        <time>2026-08-25T14:48:41Z</time>
      </trkpt>
      <trkpt lat="47.52275" lon="-2.79311">
        <ele>25.4</ele>
        <time>2026-08-25T14:48:42Z</time>
      </trkpt>
      <trkpt lat="47.52273" lon="-2.79306">
        <ele>25.4</ele>
        <time>2026-08-25T14:48:43Z</time>
      </trkpt>
      <trkpt lat="47.5227" lon="-2.793">
        <ele>25.4</ele>
        <time>2026-08-25T14:48:44Z</time>
      </trkpt>
      <trkpt lat="47.52267" lon="-2.79295">
        <ele>25.5</ele>
        <time>2026-08-25T14:48:45Z</time>
      </trkpt>
      <trkpt lat="47.52264" lon="-2.79291">
        <ele>25.7</ele>
        <time>2026-08-25T14:48:46Z</time>
      </trkpt>
      <trkpt lat="47.52261" lon="-2.79286">
        <ele>25.9</ele>
        <time>2026-08-25T14:48:47Z</time>
      </trkpt>
      <trkpt lat="47.52259" lon="-2.79281">
        <ele>26.1</ele>
        <time>2026-08-25T14:48:48Z</time>
      </trkpt>
      <trkpt lat="47.52258" lon="-2.79276">
        <ele>26.1</ele>
        <time>2026-08-25T14:48:49Z</time>
      </trkpt>
      <trkpt lat="47.52259" lon="-2.79271">
        <ele>25.9</ele>
        <time>2026-08-25T14:48:50Z</time>
      </trkpt>
      <trkpt lat="47.52262" lon="-2.79267">
        <ele>25.5</ele>
        <time>2026-08-25T14:48:51Z</time>
      </trkpt>
      <trkpt lat="47.52265" lon="-2.79263">
        <ele>25.1</ele>
        <time>2026-08-25T14:48:52Z</time>
      </trkpt>
      <trkpt lat="47.5227" lon="-2.79259">
        <ele>24.7</ele>
        <time>2026-08-25T14:48:53Z</time>
      </trkpt>
      <trkpt lat="47.52274" lon="-2.79255">
        <ele>24.3</ele>
        <time>2026-08-25T14:48:54Z</time>
      </trkpt>
      <trkpt lat="47.52278" lon="-2.79251">
        <ele>24</ele>
        <time>2026-08-25T14:48:55Z</time>
      </trkpt>
      <trkpt lat="47.52282" lon="-2.79247">
        <ele>24.3</ele>
        <time>2026-08-25T14:48:56Z</time>
      </trkpt>
      <trkpt lat="47.52286" lon="-2.79242">
        <ele>24.8</ele>
        <time>2026-08-25T14:48:57Z</time>
      </trkpt>
      <trkpt lat="47.52288" lon="-2.79236">
        <ele>25.1</ele>
        <time>2026-08-25T14:48:58Z</time>
      </trkpt>
      <trkpt lat="47.5229" lon="-2.7923">
        <ele>25.5</ele>
        <time>2026-08-25T14:48:59Z</time>
      </trkpt>
      <trkpt lat="47.5229" lon="-2.79223">
        <ele>25.7</ele>
        <time>2026-08-25T14:49:00Z</time>
      </trkpt>
      <trkpt lat="47.5229" lon="-2.79216">
        <ele>26</ele>
        <time>2026-08-25T14:49:01Z</time>
      </trkpt>
      <trkpt lat="47.5229" lon="-2.7921">
        <ele>26.3</ele>
        <time>2026-08-25T14:49:02Z</time>
      </trkpt>
      <trkpt lat="47.5229" lon="-2.79203">
        <ele>26.5</ele>
        <time>2026-08-25T14:49:03Z</time>
      </trkpt>
      <trkpt lat="47.5229" lon="-2.79196">
        <ele>26.8</ele>
        <time>2026-08-25T14:49:04Z</time>
      </trkpt>
      <trkpt lat="47.5229" lon="-2.79189">
        <ele>26.9</ele>
        <time>2026-08-25T14:49:05Z</time>
      </trkpt>
      <trkpt lat="47.5229" lon="-2.79183">
        <ele>26.9</ele>
        <time>2026-08-25T14:49:06Z</time>
      </trkpt>
      <trkpt lat="47.5229" lon="-2.79176">
        <ele>26.9</ele>
        <time>2026-08-25T14:49:07Z</time>
      </trkpt>
      <trkpt lat="47.52289" lon="-2.7917">
        <ele>26.8</ele>
        <time>2026-08-25T14:49:08Z</time>
      </trkpt>
      <trkpt lat="47.52289" lon="-2.79163">
        <ele>27.1</ele>
        <time>2026-08-25T14:49:09Z</time>
      </trkpt>
      <trkpt lat="47.52289" lon="-2.79157">
        <ele>27.5</ele>
        <time>2026-08-25T14:49:10Z</time>
      </trkpt>
      <trkpt lat="47.52289" lon="-2.79152">
        <ele>27.9</ele>
        <time>2026-08-25T14:49:11Z</time>
      </trkpt>
      <trkpt lat="47.52289" lon="-2.79146">
        <ele>28.3</ele>
        <time>2026-08-25T14:49:12Z</time>
      </trkpt>
      <trkpt lat="47.52289" lon="-2.7914">
        <ele>28.7</ele>
        <time>2026-08-25T14:49:13Z</time>
      </trkpt>
      <trkpt lat="47.52289" lon="-2.79135">
        <ele>28.8</ele>
        <time>2026-08-25T14:49:14Z</time>
      </trkpt>
      <trkpt lat="47.5229" lon="-2.79129">
        <ele>28.9</ele>
        <time>2026-08-25T14:49:15Z</time>
      </trkpt>
      <trkpt lat="47.5229" lon="-2.79124">
        <ele>28.9</ele>
        <time>2026-08-25T14:49:16Z</time>
      </trkpt>
      <trkpt lat="47.5229" lon="-2.79119">
        <ele>28.9</ele>
        <time>2026-08-25T14:49:17Z</time>
      </trkpt>
      <trkpt lat="47.5229" lon="-2.79114">
        <ele>28.9</ele>
        <time>2026-08-25T14:49:18Z</time>
      </trkpt>
      <trkpt lat="47.52291" lon="-2.79109">
        <ele>29</ele>
        <time>2026-08-25T14:49:19Z</time>
      </trkpt>
      <trkpt lat="47.52293" lon="-2.79104">
        <ele>29.4</ele>
        <time>2026-08-25T14:49:20Z</time>
      </trkpt>
      <trkpt lat="47.52295" lon="-2.791">
        <ele>29.6</ele>
        <time>2026-08-25T14:49:21Z</time>
      </trkpt>
      <trkpt lat="47.52297" lon="-2.79095">
        <ele>30</ele>
        <time>2026-08-25T14:49:22Z</time>
      </trkpt>
      <trkpt lat="47.52299" lon="-2.79091">
        <ele>30.3</ele>
        <time>2026-08-25T14:49:23Z</time>
      </trkpt>
      <trkpt lat="47.52301" lon="-2.79087">
        <ele>30.5</ele>
        <time>2026-08-25T14:49:24Z</time>
      </trkpt>
      <trkpt lat="47.52303" lon="-2.79083">
        <ele>30.8</ele>
        <time>2026-08-25T14:49:25Z</time>
      </trkpt>
      <trkpt lat="47.52305" lon="-2.79079">
        <ele>31</ele>
        <time>2026-08-25T14:49:26Z</time>
      </trkpt>
      <trkpt lat="47.52307" lon="-2.79075">
        <ele>31.1</ele>
        <time>2026-08-25T14:49:27Z</time>
      </trkpt>
      <trkpt lat="47.52309" lon="-2.79072">
        <ele>31.2</ele>
        <time>2026-08-25T14:49:28Z</time>
      </trkpt>
      <trkpt lat="47.52311" lon="-2.79068">
        <ele>31.3</ele>
        <time>2026-08-25T14:49:29Z</time>
      </trkpt>
      <trkpt lat="47.52313" lon="-2.79063">
        <ele>31.5</ele>
        <time>2026-08-25T14:49:30Z</time>
      </trkpt>
      <trkpt lat="47.52314" lon="-2.79059">
        <ele>31.6</ele>
        <time>2026-08-25T14:49:31Z</time>
      </trkpt>
      <trkpt lat="47.52315" lon="-2.79055">
        <ele>31.7</ele>
        <time>2026-08-25T14:49:32Z</time>
      </trkpt>
      <trkpt lat="47.52316" lon="-2.7905">
        <ele>31.8</ele>
        <time>2026-08-25T14:49:33Z</time>
      </trkpt>
      <trkpt lat="47.52318" lon="-2.79046">
        <ele>31.9</ele>
        <time>2026-08-25T14:49:34Z</time>
      </trkpt>
      <trkpt lat="47.52319" lon="-2.79042">
        <ele>32</ele>
        <time>2026-08-25T14:49:35Z</time>
      </trkpt>
      <trkpt lat="47.5232" lon="-2.79038">
        <ele>32</ele>
        <time>2026-08-25T14:49:36Z</time>
      </trkpt>
      <trkpt lat="47.52321" lon="-2.79034">
        <ele>32.1</ele>
        <time>2026-08-25T14:49:37Z</time>
      </trkpt>
      <trkpt lat="47.52322" lon="-2.79031">
        <ele>32.2</ele>
        <time>2026-08-25T14:49:38Z</time>
      </trkpt>
      <trkpt lat="47.52323" lon="-2.79027">
        <ele>32.3</ele>
        <time>2026-08-25T14:49:39Z</time>
      </trkpt>
      <trkpt lat="47.52324" lon="-2.79024">
        <ele>32.4</ele>
        <time>2026-08-25T14:49:40Z</time>
      </trkpt>
      <trkpt lat="47.52325" lon="-2.7902">
        <ele>32.5</ele>
        <time>2026-08-25T14:49:41Z</time>
      </trkpt>
      <trkpt lat="47.52326" lon="-2.79016">
        <ele>32.6</ele>
        <time>2026-08-25T14:49:42Z</time>
      </trkpt>
      <trkpt lat="47.52327" lon="-2.79012">
        <ele>32.7</ele>
        <time>2026-08-25T14:49:43Z</time>
      </trkpt>
      <trkpt lat="47.52328" lon="-2.79008">
        <ele>32.8</ele>
        <time>2026-08-25T14:49:44Z</time>
      </trkpt>
      <trkpt lat="47.52329" lon="-2.79005">
        <ele>32.8</ele>
        <time>2026-08-25T14:49:45Z</time>
      </trkpt>
      <trkpt lat="47.5233" lon="-2.79001">
        <ele>32.9</ele>
        <time>2026-08-25T14:49:46Z</time>
      </trkpt>
      <trkpt lat="47.52332" lon="-2.78998">
        <ele>33</ele>
        <time>2026-08-25T14:49:47Z</time>
      </trkpt>
      <trkpt lat="47.52335" lon="-2.78997">
        <ele>33.1</ele>
        <time>2026-08-25T14:49:48Z</time>
      </trkpt>
      <trkpt lat="47.52337" lon="-2.78995">
        <ele>33.1</ele>
        <time>2026-08-25T14:49:49Z</time>
      </trkpt>
      <trkpt lat="47.5234" lon="-2.78994">
        <ele>33.2</ele>
        <time>2026-08-25T14:49:50Z</time>
      </trkpt>
      <trkpt lat="47.52342" lon="-2.78992">
        <ele>33.3</ele>
        <time>2026-08-25T14:49:51Z</time>
      </trkpt>
      <trkpt lat="47.52345" lon="-2.7899">
        <ele>33.4</ele>
        <time>2026-08-25T14:49:52Z</time>
      </trkpt>
      <trkpt lat="47.52348" lon="-2.78988">
        <ele>33.5</ele>
        <time>2026-08-25T14:49:53Z</time>
      </trkpt>
      <trkpt lat="47.5235" lon="-2.78986">
        <ele>33.6</ele>
        <time>2026-08-25T14:49:54Z</time>
      </trkpt>
      <trkpt lat="47.52353" lon="-2.78984">
        <ele>33.7</ele>
        <time>2026-08-25T14:49:55Z</time>
      </trkpt>
      <trkpt lat="47.52355" lon="-2.78981">
        <ele>33.8</ele>
        <time>2026-08-25T14:49:56Z</time>
      </trkpt>
      <trkpt lat="47.52356" lon="-2.78978">
        <ele>33.8</ele>
        <time>2026-08-25T14:49:57Z</time>
      </trkpt>
      <trkpt lat="47.52356" lon="-2.78973">
        <ele>33.8</ele>
        <time>2026-08-25T14:49:58Z</time>
      </trkpt>
      <trkpt lat="47.52355" lon="-2.78969">
        <ele>33.8</ele>
        <time>2026-08-25T14:49:59Z</time>
      </trkpt>
      <trkpt lat="47.52354" lon="-2.78964">
        <ele>33.7</ele>
        <time>2026-08-25T14:50:00Z</time>
      </trkpt>
      <trkpt lat="47.52353" lon="-2.78959">
        <ele>33.7</ele>
        <time>2026-08-25T14:50:01Z</time>
      </trkpt>
      <trkpt lat="47.52352" lon="-2.78954">
        <ele>33.7</ele>
        <time>2026-08-25T14:50:02Z</time>
      </trkpt>
      <trkpt lat="47.52351" lon="-2.78949">
        <ele>33.6</ele>
        <time>2026-08-25T14:50:03Z</time>
      </trkpt>
      <trkpt lat="47.5235" lon="-2.78943">
        <ele>33.6</ele>
        <time>2026-08-25T14:50:04Z</time>
      </trkpt>
      <trkpt lat="47.52349" lon="-2.78937">
        <ele>33.4</ele>
        <time>2026-08-25T14:50:05Z</time>
      </trkpt>
      <trkpt lat="47.52347" lon="-2.78931">
        <ele>33.3</ele>
        <time>2026-08-25T14:50:06Z</time>
      </trkpt>
      <trkpt lat="47.52346" lon="-2.78925">
        <ele>33.1</ele>
        <time>2026-08-25T14:50:07Z</time>
      </trkpt>
      <trkpt lat="47.52344" lon="-2.78919">
        <ele>33</ele>
        <time>2026-08-25T14:50:08Z</time>
      </trkpt>
      <trkpt lat="47.52344" lon="-2.78913">
        <ele>33</ele>
        <time>2026-08-25T14:50:09Z</time>
      </trkpt>
      <trkpt lat="47.52343" lon="-2.78907">
        <ele>33</ele>
        <time>2026-08-25T14:50:10Z</time>
      </trkpt>
      <trkpt lat="47.52341" lon="-2.78902">
        <ele>33</ele>
        <time>2026-08-25T14:50:11Z</time>
      </trkpt>
      <trkpt lat="47.5234" lon="-2.78896">
        <ele>33</ele>
        <time>2026-08-25T14:50:12Z</time>
      </trkpt>
      <trkpt lat="47.52339" lon="-2.7889">
        <ele>33</ele>
        <time>2026-08-25T14:50:13Z</time>
      </trkpt>
      <trkpt lat="47.52338" lon="-2.78883">
        <ele>32.8</ele>
        <time>2026-08-25T14:50:14Z</time>
      </trkpt>
      <trkpt lat="47.52337" lon="-2.78877">
        <ele>32.6</ele>
        <time>2026-08-25T14:50:15Z</time>
      </trkpt>
      <trkpt lat="47.52334" lon="-2.78871">
        <ele>32.4</ele>
        <time>2026-08-25T14:50:16Z</time>
      </trkpt>
      <trkpt lat="47.52332" lon="-2.78864">
        <ele>32.1</ele>
        <time>2026-08-25T14:50:17Z</time>
      </trkpt>
      <trkpt lat="47.5233" lon="-2.78858">
        <ele>32.1</ele>
        <time>2026-08-25T14:50:18Z</time>
      </trkpt>
      <trkpt lat="47.52328" lon="-2.78852">
        <ele>32.3</ele>
        <time>2026-08-25T14:50:19Z</time>
      </trkpt>
      <trkpt lat="47.52327" lon="-2.78847">
        <ele>32.4</ele>
        <time>2026-08-25T14:50:20Z</time>
      </trkpt>
      <trkpt lat="47.52325" lon="-2.78842">
        <ele>32.5</ele>
        <time>2026-08-25T14:50:21Z</time>
      </trkpt>
      <trkpt lat="47.52323" lon="-2.78836">
        <ele>32.6</ele>
        <time>2026-08-25T14:50:22Z</time>
      </trkpt>
      <trkpt lat="47.52322" lon="-2.78831">
        <ele>32.6</ele>
        <time>2026-08-25T14:50:23Z</time>
      </trkpt>
      <trkpt lat="47.52319" lon="-2.78826">
        <ele>32.5</ele>
        <time>2026-08-25T14:50:24Z</time>
      </trkpt>
      <trkpt lat="47.52316" lon="-2.7882">
        <ele>32.4</ele>
        <time>2026-08-25T14:50:25Z</time>
      </trkpt>
      <trkpt lat="47.52313" lon="-2.78814">
        <ele>32.3</ele>
        <time>2026-08-25T14:50:26Z</time>
      </trkpt>
      <trkpt lat="47.5231" lon="-2.78808">
        <ele>32.2</ele>
        <time>2026-08-25T14:50:27Z</time>
      </trkpt>
      <trkpt lat="47.52306" lon="-2.78802">
        <ele>32</ele>
        <time>2026-08-25T14:50:28Z</time>
      </trkpt>
      <trkpt lat="47.52303" lon="-2.78796">
        <ele>31.9</ele>
        <time>2026-08-25T14:50:29Z</time>
      </trkpt>
      <trkpt lat="47.52299" lon="-2.78791">
        <ele>31.8</ele>
        <time>2026-08-25T14:50:30Z</time>
      </trkpt>
      <trkpt lat="47.52296" lon="-2.78785">
        <ele>31.7</ele>
        <time>2026-08-25T14:50:31Z</time>
      </trkpt>
      <trkpt lat="47.52293" lon="-2.7878">
        <ele>31.5</ele>
        <time>2026-08-25T14:50:32Z</time>
      </trkpt>
      <trkpt lat="47.5229" lon="-2.78775">
        <ele>31.5</ele>
        <time>2026-08-25T14:50:33Z</time>
      </trkpt>
      <trkpt lat="47.52287" lon="-2.7877">
        <ele>31.5</ele>
        <time>2026-08-25T14:50:34Z</time>
      </trkpt>
      <trkpt lat="47.52283" lon="-2.78765">
        <ele>31.6</ele>
        <time>2026-08-25T14:50:35Z</time>
      </trkpt>
      <trkpt lat="47.5228" lon="-2.78761">
        <ele>31.6</ele>
        <time>2026-08-25T14:50:36Z</time>
      </trkpt>
      <trkpt lat="47.52277" lon="-2.78756">
        <ele>31.8</ele>
        <time>2026-08-25T14:50:37Z</time>
      </trkpt>
      <trkpt lat="47.52274" lon="-2.7875">
        <ele>31.9</ele>
        <time>2026-08-25T14:50:38Z</time>
      </trkpt>
      <trkpt lat="47.5227" lon="-2.78746">
        <ele>31.7</ele>
        <time>2026-08-25T14:50:39Z</time>
      </trkpt>
      <trkpt lat="47.52268" lon="-2.78741">
        <ele>31.6</ele>
        <time>2026-08-25T14:50:40Z</time>
      </trkpt>
      <trkpt lat="47.52264" lon="-2.78736">
        <ele>31.5</ele>
        <time>2026-08-25T14:50:41Z</time>
      </trkpt>
      <trkpt lat="47.52261" lon="-2.78731">
        <ele>31.4</ele>
        <time>2026-08-25T14:50:42Z</time>
      </trkpt>
      <trkpt lat="47.52257" lon="-2.78726">
        <ele>31.3</ele>
        <time>2026-08-25T14:50:43Z</time>
      </trkpt>
      <trkpt lat="47.52254" lon="-2.78722">
        <ele>31.1</ele>
        <time>2026-08-25T14:50:44Z</time>
      </trkpt>
      <trkpt lat="47.5225" lon="-2.78717">
        <ele>31</ele>
        <time>2026-08-25T14:50:45Z</time>
      </trkpt>
      <trkpt lat="47.52247" lon="-2.78712">
        <ele>31</ele>
        <time>2026-08-25T14:50:46Z</time>
      </trkpt>
      <trkpt lat="47.52243" lon="-2.78707">
        <ele>31</ele>
        <time>2026-08-25T14:50:47Z</time>
      </trkpt>
      <trkpt lat="47.5224" lon="-2.78702">
        <ele>31</ele>
        <time>2026-08-25T14:50:48Z</time>
      </trkpt>
      <trkpt lat="47.52237" lon="-2.78698">
        <ele>31</ele>
        <time>2026-08-25T14:50:49Z</time>
      </trkpt>
      <trkpt lat="47.52233" lon="-2.78694">
        <ele>31</ele>
        <time>2026-08-25T14:50:50Z</time>
      </trkpt>
      <trkpt lat="47.52229" lon="-2.7869">
        <ele>31</ele>
        <time>2026-08-25T14:50:51Z</time>
      </trkpt>
      <trkpt lat="47.52226" lon="-2.78686">
        <ele>31</ele>
        <time>2026-08-25T14:50:52Z</time>
      </trkpt>
      <trkpt lat="47.52222" lon="-2.78681">
        <ele>31</ele>
        <time>2026-08-25T14:50:53Z</time>
      </trkpt>
      <trkpt lat="47.52219" lon="-2.78676">
        <ele>31</ele>
        <time>2026-08-25T14:50:54Z</time>
      </trkpt>
      <trkpt lat="47.52216" lon="-2.78671">
        <ele>31</ele>
        <time>2026-08-25T14:50:55Z</time>
      </trkpt>
      <trkpt lat="47.52213" lon="-2.78667">
        <ele>31</ele>
        <time>2026-08-25T14:50:56Z</time>
      </trkpt>
      <trkpt lat="47.5221" lon="-2.78661">
        <ele>30.9</ele>
        <time>2026-08-25T14:50:57Z</time>
      </trkpt>
      <trkpt lat="47.52206" lon="-2.78656">
        <ele>30.8</ele>
        <time>2026-08-25T14:50:58Z</time>
      </trkpt>
      <trkpt lat="47.52203" lon="-2.7865">
        <ele>30.6</ele>
        <time>2026-08-25T14:50:59Z</time>
      </trkpt>
      <trkpt lat="47.522" lon="-2.78645">
        <ele>30.4</ele>
        <time>2026-08-25T14:51:00Z</time>
      </trkpt>
      <trkpt lat="47.52197" lon="-2.78639">
        <ele>30.1</ele>
        <time>2026-08-25T14:51:01Z</time>
      </trkpt>
      <trkpt lat="47.52194" lon="-2.78634">
        <ele>30</ele>
        <time>2026-08-25T14:51:02Z</time>
      </trkpt>
      <trkpt lat="47.52191" lon="-2.78628">
        <ele>30</ele>
        <time>2026-08-25T14:51:03Z</time>
      </trkpt>
      <trkpt lat="47.52188" lon="-2.78622">
        <ele>30</ele>
        <time>2026-08-25T14:51:04Z</time>
      </trkpt>
      <trkpt lat="47.52185" lon="-2.78617">
        <ele>30</ele>
        <time>2026-08-25T14:51:05Z</time>
      </trkpt>
      <trkpt lat="47.52183" lon="-2.78612">
        <ele>30</ele>
        <time>2026-08-25T14:51:06Z</time>
      </trkpt>
      <trkpt lat="47.5218" lon="-2.78608">
        <ele>30</ele>
        <time>2026-08-25T14:51:07Z</time>
      </trkpt>
      <trkpt lat="47.52177" lon="-2.78604">
        <ele>30</ele>
        <time>2026-08-25T14:51:08Z</time>
      </trkpt>
      <trkpt lat="47.52176" lon="-2.78599">
        <ele>30</ele>
        <time>2026-08-25T14:51:09Z</time>
      </trkpt>
      <trkpt lat="47.52177" lon="-2.78594">
        <ele>30</ele>
        <time>2026-08-25T14:51:10Z</time>
      </trkpt>
      <trkpt lat="47.52179" lon="-2.78589">
        <ele>30</ele>
        <time>2026-08-25T14:51:11Z</time>
      </trkpt>
      <trkpt lat="47.52182" lon="-2.78585">
        <ele>30</ele>
        <time>2026-08-25T14:51:12Z</time>
      </trkpt>
      <trkpt lat="47.52185" lon="-2.78582">
        <ele>30</ele>
        <time>2026-08-25T14:51:13Z</time>
      </trkpt>
      <trkpt lat="47.52188" lon="-2.78578">
        <ele>30</ele>
        <time>2026-08-25T14:51:14Z</time>
      </trkpt>
      <trkpt lat="47.52191" lon="-2.78574">
        <ele>30</ele>
        <time>2026-08-25T14:51:15Z</time>
      </trkpt>
      <trkpt lat="47.52193" lon="-2.78569">
        <ele>30</ele>
        <time>2026-08-25T14:51:16Z</time>
      </trkpt>
      <trkpt lat="47.52193" lon="-2.78563">
        <ele>30</ele>
        <time>2026-08-25T14:51:17Z</time>
      </trkpt>
      <trkpt lat="47.52192" lon="-2.78557">
        <ele>30</ele>
        <time>2026-08-25T14:51:18Z</time>
      </trkpt>
      <trkpt lat="47.5219" lon="-2.78551">
        <ele>30</ele>
        <time>2026-08-25T14:51:19Z</time>
      </trkpt>
      <trkpt lat="47.52188" lon="-2.78546">
        <ele>29.9</ele>
        <time>2026-08-25T14:51:20Z</time>
      </trkpt>
      <trkpt lat="47.52185" lon="-2.78541">
        <ele>29.8</ele>
        <time>2026-08-25T14:51:21Z</time>
      </trkpt>
      <trkpt lat="47.52182" lon="-2.78535">
        <ele>29.7</ele>
        <time>2026-08-25T14:51:22Z</time>
      </trkpt>
      <trkpt lat="47.52179" lon="-2.7853">
        <ele>29.5</ele>
        <time>2026-08-25T14:51:23Z</time>
      </trkpt>
      <trkpt lat="47.52176" lon="-2.78524">
        <ele>29.3</ele>
        <time>2026-08-25T14:51:24Z</time>
      </trkpt>
      <trkpt lat="47.52173" lon="-2.78518">
        <ele>29.2</ele>
        <time>2026-08-25T14:51:25Z</time>
      </trkpt>
      <trkpt lat="47.5217" lon="-2.78511">
        <ele>29.1</ele>
        <time>2026-08-25T14:51:26Z</time>
      </trkpt>
      <trkpt lat="47.52167" lon="-2.78505">
        <ele>29</ele>
        <time>2026-08-25T14:51:27Z</time>
      </trkpt>
      <trkpt lat="47.52165" lon="-2.78499">
        <ele>29.1</ele>
        <time>2026-08-25T14:51:28Z</time>
      </trkpt>
      <trkpt lat="47.52162" lon="-2.78493">
        <ele>29.1</ele>
        <time>2026-08-25T14:51:29Z</time>
      </trkpt>
      <trkpt lat="47.5216" lon="-2.78487">
        <ele>29.1</ele>
        <time>2026-08-25T14:51:30Z</time>
      </trkpt>
      <trkpt lat="47.52158" lon="-2.7848">
        <ele>29.1</ele>
        <time>2026-08-25T14:51:31Z</time>
      </trkpt>
      <trkpt lat="47.52155" lon="-2.78473">
        <ele>29</ele>
        <time>2026-08-25T14:51:32Z</time>
      </trkpt>
      <trkpt lat="47.52153" lon="-2.78466">
        <ele>29</ele>
        <time>2026-08-25T14:51:33Z</time>
      </trkpt>
      <trkpt lat="47.52151" lon="-2.78459">
        <ele>29</ele>
        <time>2026-08-25T14:51:34Z</time>
      </trkpt>
      <trkpt lat="47.5215" lon="-2.78452">
        <ele>29</ele>
        <time>2026-08-25T14:51:35Z</time>
      </trkpt>
      <trkpt lat="47.52148" lon="-2.78445">
        <ele>29</ele>
        <time>2026-08-25T14:51:36Z</time>
      </trkpt>
      <trkpt lat="47.52146" lon="-2.78439">
        <ele>28.8</ele>
        <time>2026-08-25T14:51:37Z</time>
      </trkpt>
      <trkpt lat="47.52144" lon="-2.78433">
        <ele>28.6</ele>
        <time>2026-08-25T14:51:38Z</time>
      </trkpt>
      <trkpt lat="47.52142" lon="-2.78427">
        <ele>28.4</ele>
        <time>2026-08-25T14:51:39Z</time>
      </trkpt>
      <trkpt lat="47.52139" lon="-2.78421">
        <ele>28.2</ele>
        <time>2026-08-25T14:51:40Z</time>
      </trkpt>
      <trkpt lat="47.52137" lon="-2.78415">
        <ele>28.1</ele>
        <time>2026-08-25T14:51:41Z</time>
      </trkpt>
      <trkpt lat="47.52135" lon="-2.78409">
        <ele>28.2</ele>
        <time>2026-08-25T14:51:42Z</time>
      </trkpt>
      <trkpt lat="47.52132" lon="-2.78404">
        <ele>28.3</ele>
        <time>2026-08-25T14:51:43Z</time>
      </trkpt>
      <trkpt lat="47.52129" lon="-2.78401">
        <ele>28.4</ele>
        <time>2026-08-25T14:51:44Z</time>
      </trkpt>
      <trkpt lat="47.52125" lon="-2.784">
        <ele>28.3</ele>
        <time>2026-08-25T14:51:45Z</time>
      </trkpt>
      <trkpt lat="47.52122" lon="-2.78401">
        <ele>28.2</ele>
        <time>2026-08-25T14:51:46Z</time>
      </trkpt>
      <trkpt lat="47.52119" lon="-2.78399">
        <ele>28.2</ele>
        <time>2026-08-25T14:51:47Z</time>
      </trkpt>
      <trkpt lat="47.52116" lon="-2.78395">
        <ele>28.1</ele>
        <time>2026-08-25T14:51:48Z</time>
      </trkpt>
      <trkpt lat="47.52114" lon="-2.7839">
        <ele>28.1</ele>
        <time>2026-08-25T14:51:49Z</time>
      </trkpt>
      <trkpt lat="47.52113" lon="-2.78385">
        <ele>28.1</ele>
        <time>2026-08-25T14:51:50Z</time>
      </trkpt>
      <trkpt lat="47.52111" lon="-2.7838">
        <ele>28</ele>
        <time>2026-08-25T14:51:51Z</time>
      </trkpt>
      <trkpt lat="47.5211" lon="-2.78375">
        <ele>28</ele>
        <time>2026-08-25T14:51:52Z</time>
      </trkpt>
      <trkpt lat="47.52108" lon="-2.7837">
        <ele>28</ele>
        <time>2026-08-25T14:51:53Z</time>
      </trkpt>
      <trkpt lat="47.52107" lon="-2.78365">
        <ele>28</ele>
        <time>2026-08-25T14:51:54Z</time>
      </trkpt>
      <trkpt lat="47.52106" lon="-2.7836">
        <ele>28</ele>
        <time>2026-08-25T14:51:55Z</time>
      </trkpt>
      <trkpt lat="47.52104" lon="-2.78355">
        <ele>28</ele>
        <time>2026-08-25T14:51:56Z</time>
      </trkpt>
      <trkpt lat="47.52102" lon="-2.7835">
        <ele>28</ele>
        <time>2026-08-25T14:51:57Z</time>
      </trkpt>
      <trkpt lat="47.52101" lon="-2.78345">
        <ele>28</ele>
        <time>2026-08-25T14:51:58Z</time>
      </trkpt>
      <trkpt lat="47.52099" lon="-2.7834">
        <ele>28</ele>
        <time>2026-08-25T14:51:59Z</time>
      </trkpt>
      <trkpt lat="47.52097" lon="-2.78335">
        <ele>28</ele>
        <time>2026-08-25T14:52:00Z</time>
      </trkpt>
      <trkpt lat="47.52096" lon="-2.7833">
        <ele>28</ele>
        <time>2026-08-25T14:52:01Z</time>
      </trkpt>
      <trkpt lat="47.52094" lon="-2.78325">
        <ele>28</ele>
        <time>2026-08-25T14:52:02Z</time>
      </trkpt>
      <trkpt lat="47.52092" lon="-2.78319">
        <ele>28</ele>
        <time>2026-08-25T14:52:03Z</time>
      </trkpt>
      <trkpt lat="47.5209" lon="-2.78313">
        <ele>28</ele>
        <time>2026-08-25T14:52:04Z</time>
      </trkpt>
      <trkpt lat="47.52088" lon="-2.78308">
        <ele>28</ele>
        <time>2026-08-25T14:52:05Z</time>
      </trkpt>
      <trkpt lat="47.52087" lon="-2.78301">
        <ele>27.9</ele>
        <time>2026-08-25T14:52:06Z</time>
      </trkpt>
      <trkpt lat="47.52084" lon="-2.78295">
        <ele>27.6</ele>
        <time>2026-08-25T14:52:07Z</time>
      </trkpt>
      <trkpt lat="47.52082" lon="-2.78289">
        <ele>27.4</ele>
        <time>2026-08-25T14:52:08Z</time>
      </trkpt>
      <trkpt lat="47.5208" lon="-2.78283">
        <ele>27.3</ele>
        <time>2026-08-25T14:52:09Z</time>
      </trkpt>
      <trkpt lat="47.52078" lon="-2.78276">
        <ele>27.2</ele>
        <time>2026-08-25T14:52:10Z</time>
      </trkpt>
      <trkpt lat="47.52077" lon="-2.7827">
        <ele>27.2</ele>
        <time>2026-08-25T14:52:11Z</time>
      </trkpt>
      <trkpt lat="47.52075" lon="-2.78264">
        <ele>27.2</ele>
        <time>2026-08-25T14:52:12Z</time>
      </trkpt>
      <trkpt lat="47.52073" lon="-2.78258">
        <ele>27.1</ele>
        <time>2026-08-25T14:52:13Z</time>
      </trkpt>
      <trkpt lat="47.52071" lon="-2.78253">
        <ele>27</ele>
        <time>2026-08-25T14:52:14Z</time>
      </trkpt>
      <trkpt lat="47.5207" lon="-2.78247">
        <ele>27</ele>
        <time>2026-08-25T14:52:15Z</time>
      </trkpt>
      <trkpt lat="47.52068" lon="-2.78242">
        <ele>27</ele>
        <time>2026-08-25T14:52:16Z</time>
      </trkpt>
      <trkpt lat="47.52066" lon="-2.78236">
        <ele>27</ele>
        <time>2026-08-25T14:52:17Z</time>
      </trkpt>
      <trkpt lat="47.52065" lon="-2.78231">
        <ele>27</ele>
        <time>2026-08-25T14:52:18Z</time>
      </trkpt>
      <trkpt lat="47.52063" lon="-2.78225">
        <ele>27</ele>
        <time>2026-08-25T14:52:19Z</time>
      </trkpt>
      <trkpt lat="47.52061" lon="-2.7822">
        <ele>27</ele>
        <time>2026-08-25T14:52:20Z</time>
      </trkpt>
      <trkpt lat="47.52059" lon="-2.78214">
        <ele>27</ele>
        <time>2026-08-25T14:52:21Z</time>
      </trkpt>
      <trkpt lat="47.52058" lon="-2.78208">
        <ele>27</ele>
        <time>2026-08-25T14:52:22Z</time>
      </trkpt>
      <trkpt lat="47.52056" lon="-2.78203">
        <ele>27</ele>
        <time>2026-08-25T14:52:23Z</time>
      </trkpt>
      <trkpt lat="47.52055" lon="-2.78197">
        <ele>27</ele>
        <time>2026-08-25T14:52:24Z</time>
      </trkpt>
      <trkpt lat="47.52054" lon="-2.78192">
        <ele>27.1</ele>
        <time>2026-08-25T14:52:25Z</time>
      </trkpt>
      <trkpt lat="47.52055" lon="-2.78187">
        <ele>27</ele>
        <time>2026-08-25T14:52:26Z</time>
      </trkpt>
      <trkpt lat="47.52056" lon="-2.78182">
        <ele>27</ele>
        <time>2026-08-25T14:52:27Z</time>
      </trkpt>
      <trkpt lat="47.52058" lon="-2.78177">
        <ele>27</ele>
        <time>2026-08-25T14:52:28Z</time>
      </trkpt>
      <trkpt lat="47.52059" lon="-2.78173">
        <ele>27</ele>
        <time>2026-08-25T14:52:29Z</time>
      </trkpt>
      <trkpt lat="47.52061" lon="-2.78169">
        <ele>27</ele>
        <time>2026-08-25T14:52:30Z</time>
      </trkpt>
      <trkpt lat="47.52063" lon="-2.78165">
        <ele>27</ele>
        <time>2026-08-25T14:52:31Z</time>
      </trkpt>
      <trkpt lat="47.52065" lon="-2.78161">
        <ele>27</ele>
        <time>2026-08-25T14:52:32Z</time>
      </trkpt>
      <trkpt lat="47.52066" lon="-2.78157">
        <ele>27</ele>
        <time>2026-08-25T14:52:33Z</time>
      </trkpt>
      <trkpt lat="47.52068" lon="-2.78153">
        <ele>27</ele>
        <time>2026-08-25T14:52:34Z</time>
      </trkpt>
      <trkpt lat="47.5207" lon="-2.78149">
        <ele>27</ele>
        <time>2026-08-25T14:52:35Z</time>
      </trkpt>
      <trkpt lat="47.5207" lon="-2.78144">
        <ele>27</ele>
        <time>2026-08-25T14:52:36Z</time>
      </trkpt>
      <trkpt lat="47.5207" lon="-2.78138">
        <ele>27</ele>
        <time>2026-08-25T14:52:37Z</time>
      </trkpt>
      <trkpt lat="47.52068" lon="-2.78133">
        <ele>27</ele>
        <time>2026-08-25T14:52:38Z</time>
      </trkpt>
      <trkpt lat="47.52067" lon="-2.78129">
        <ele>27</ele>
        <time>2026-08-25T14:52:39Z</time>
      </trkpt>
      <trkpt lat="47.52064" lon="-2.78125">
        <ele>27</ele>
        <time>2026-08-25T14:52:40Z</time>
      </trkpt>
      <trkpt lat="47.52061" lon="-2.78121">
        <ele>27</ele>
        <time>2026-08-25T14:52:41Z</time>
      </trkpt>
      <trkpt lat="47.52058" lon="-2.78118">
        <ele>27</ele>
        <time>2026-08-25T14:52:42Z</time>
      </trkpt>
      <trkpt lat="47.52055" lon="-2.78115">
        <ele>27</ele>
        <time>2026-08-25T14:52:43Z</time>
      </trkpt>
      <trkpt lat="47.52052" lon="-2.78111">
        <ele>27</ele>
        <time>2026-08-25T14:52:44Z</time>
      </trkpt>
      <trkpt lat="47.52049" lon="-2.78108">
        <ele>27</ele>
        <time>2026-08-25T14:52:45Z</time>
      </trkpt>
      <trkpt lat="47.52045" lon="-2.78105">
        <ele>27</ele>
        <time>2026-08-25T14:52:46Z</time>
      </trkpt>
      <trkpt lat="47.52042" lon="-2.78101">
        <ele>27</ele>
        <time>2026-08-25T14:52:47Z</time>
      </trkpt>
      <trkpt lat="47.52039" lon="-2.78098">
        <ele>27</ele>
        <time>2026-08-25T14:52:48Z</time>
      </trkpt>
      <trkpt lat="47.52036" lon="-2.78095">
        <ele>27</ele>
        <time>2026-08-25T14:52:49Z</time>
      </trkpt>
      <trkpt lat="47.52034" lon="-2.78092">
        <ele>27</ele>
        <time>2026-08-25T14:52:50Z</time>
      </trkpt>
      <trkpt lat="47.52032" lon="-2.78088">
        <ele>27</ele>
        <time>2026-08-25T14:52:51Z</time>
      </trkpt>
      <trkpt lat="47.52031" lon="-2.78084">
        <ele>27</ele>
        <time>2026-08-25T14:52:52Z</time>
      </trkpt>
      <trkpt lat="47.5203" lon="-2.78079">
        <ele>27</ele>
        <time>2026-08-25T14:52:53Z</time>
      </trkpt>
      <trkpt lat="47.5203" lon="-2.78074">
        <ele>27</ele>
        <time>2026-08-25T14:52:54Z</time>
      </trkpt>
      <trkpt lat="47.52031" lon="-2.78069">
        <ele>27</ele>
        <time>2026-08-25T14:52:55Z</time>
      </trkpt>
      <trkpt lat="47.52032" lon="-2.78064">
        <ele>27</ele>
        <time>2026-08-25T14:52:56Z</time>
      </trkpt>
      <trkpt lat="47.52033" lon="-2.78058">
        <ele>27</ele>
        <time>2026-08-25T14:52:57Z</time>
      </trkpt>
      <trkpt lat="47.52034" lon="-2.78046">
        <ele>27</ele>
        <time>2026-08-25T14:52:58Z</time>
      </trkpt>
      <trkpt lat="47.52034" lon="-2.78046">
        <ele>27</ele>
        <time>2026-08-25T14:52:59Z</time>
      </trkpt>
      <trkpt lat="47.52034" lon="-2.78041">
        <ele>27</ele>
        <time>2026-08-25T14:53:00Z</time>
      </trkpt>
      <trkpt lat="47.52034" lon="-2.78035">
        <ele>27</ele>
        <time>2026-08-25T14:53:01Z</time>
      </trkpt>
      <trkpt lat="47.52034" lon="-2.78028">
        <ele>27</ele>
        <time>2026-08-25T14:53:02Z</time>
      </trkpt>
      <trkpt lat="47.52036" lon="-2.78022">
        <ele>26.9</ele>
        <time>2026-08-25T14:53:03Z</time>
      </trkpt>
      <trkpt lat="47.52038" lon="-2.78016">
        <ele>26.7</ele>
        <time>2026-08-25T14:53:04Z</time>
      </trkpt>
      <trkpt lat="47.52041" lon="-2.78011">
        <ele>26.7</ele>
        <time>2026-08-25T14:53:05Z</time>
      </trkpt>
      <trkpt lat="47.52044" lon="-2.78006">
        <ele>26.7</ele>
        <time>2026-08-25T14:53:06Z</time>
      </trkpt>
      <trkpt lat="47.52047" lon="-2.78">
        <ele>26.7</ele>
        <time>2026-08-25T14:53:07Z</time>
      </trkpt>
      <trkpt lat="47.5205" lon="-2.77995">
        <ele>26.7</ele>
        <time>2026-08-25T14:53:08Z</time>
      </trkpt>
      <trkpt lat="47.52053" lon="-2.7799">
        <ele>26.6</ele>
        <time>2026-08-25T14:53:09Z</time>
      </trkpt>
      <trkpt lat="47.52056" lon="-2.77985">
        <ele>26.5</ele>
        <time>2026-08-25T14:53:10Z</time>
      </trkpt>
      <trkpt lat="47.52059" lon="-2.77979">
        <ele>26.3</ele>
        <time>2026-08-25T14:53:11Z</time>
      </trkpt>
      <trkpt lat="47.52062" lon="-2.77974">
        <ele>26.3</ele>
        <time>2026-08-25T14:53:12Z</time>
      </trkpt>
      <trkpt lat="47.52065" lon="-2.77969">
        <ele>26.3</ele>
        <time>2026-08-25T14:53:13Z</time>
      </trkpt>
      <trkpt lat="47.52068" lon="-2.77964">
        <ele>26.3</ele>
        <time>2026-08-25T14:53:14Z</time>
      </trkpt>
      <trkpt lat="47.52071" lon="-2.77959">
        <ele>26.3</ele>
        <time>2026-08-25T14:53:15Z</time>
      </trkpt>
      <trkpt lat="47.52074" lon="-2.77954">
        <ele>26.2</ele>
        <time>2026-08-25T14:53:16Z</time>
      </trkpt>
      <trkpt lat="47.52077" lon="-2.77948">
        <ele>26.1</ele>
        <time>2026-08-25T14:53:17Z</time>
      </trkpt>
      <trkpt lat="47.5208" lon="-2.77943">
        <ele>26</ele>
        <time>2026-08-25T14:53:18Z</time>
      </trkpt>
      <trkpt lat="47.52083" lon="-2.77937">
        <ele>26</ele>
        <time>2026-08-25T14:53:19Z</time>
      </trkpt>
      <trkpt lat="47.52086" lon="-2.77932">
        <ele>26.1</ele>
        <time>2026-08-25T14:53:20Z</time>
      </trkpt>
      <trkpt lat="47.52089" lon="-2.77926">
        <ele>26.2</ele>
        <time>2026-08-25T14:53:21Z</time>
      </trkpt>
      <trkpt lat="47.52092" lon="-2.77921">
        <ele>26.3</ele>
        <time>2026-08-25T14:53:22Z</time>
      </trkpt>
      <trkpt lat="47.52095" lon="-2.77915">
        <ele>26.4</ele>
        <time>2026-08-25T14:53:23Z</time>
      </trkpt>
      <trkpt lat="47.52098" lon="-2.77909">
        <ele>26.2</ele>
        <time>2026-08-25T14:53:24Z</time>
      </trkpt>
      <trkpt lat="47.52101" lon="-2.77903">
        <ele>26</ele>
        <time>2026-08-25T14:53:25Z</time>
      </trkpt>
      <trkpt lat="47.52104" lon="-2.77897">
        <ele>25.7</ele>
        <time>2026-08-25T14:53:26Z</time>
      </trkpt>
      <trkpt lat="47.52107" lon="-2.77891">
        <ele>25.3</ele>
        <time>2026-08-25T14:53:27Z</time>
      </trkpt>
      <trkpt lat="47.5211" lon="-2.77884">
        <ele>25.2</ele>
        <time>2026-08-25T14:53:28Z</time>
      </trkpt>
      <trkpt lat="47.52113" lon="-2.77878">
        <ele>25.4</ele>
        <time>2026-08-25T14:53:29Z</time>
      </trkpt>
      <trkpt lat="47.52117" lon="-2.77872">
        <ele>25.6</ele>
        <time>2026-08-25T14:53:30Z</time>
      </trkpt>
      <trkpt lat="47.5212" lon="-2.77866">
        <ele>25.6</ele>
        <time>2026-08-25T14:53:31Z</time>
      </trkpt>
      <trkpt lat="47.52123" lon="-2.7786">
        <ele>25.6</ele>
        <time>2026-08-25T14:53:32Z</time>
      </trkpt>
      <trkpt lat="47.52127" lon="-2.77854">
        <ele>25.5</ele>
        <time>2026-08-25T14:53:33Z</time>
      </trkpt>
      <trkpt lat="47.5213" lon="-2.77848">
        <ele>25.5</ele>
        <time>2026-08-25T14:53:34Z</time>
      </trkpt>
      <trkpt lat="47.52133" lon="-2.77842">
        <ele>25.6</ele>
        <time>2026-08-25T14:53:35Z</time>
      </trkpt>
      <trkpt lat="47.52136" lon="-2.77837">
        <ele>25.8</ele>
        <time>2026-08-25T14:53:36Z</time>
      </trkpt>
      <trkpt lat="47.52139" lon="-2.77832">
        <ele>26</ele>
        <time>2026-08-25T14:53:37Z</time>
      </trkpt>
      <trkpt lat="47.52142" lon="-2.77827">
        <ele>25.8</ele>
        <time>2026-08-25T14:53:38Z</time>
      </trkpt>
      <trkpt lat="47.52145" lon="-2.77824">
        <ele>25.7</ele>
        <time>2026-08-25T14:53:39Z</time>
      </trkpt>
      <trkpt lat="47.52147" lon="-2.7782">
        <ele>25.7</ele>
        <time>2026-08-25T14:53:40Z</time>
      </trkpt>
      <trkpt lat="47.52147" lon="-2.77816">
        <ele>25.6</ele>
        <time>2026-08-25T14:53:41Z</time>
      </trkpt>
      <trkpt lat="47.52145" lon="-2.77813">
        <ele>25.4</ele>
        <time>2026-08-25T14:53:42Z</time>
      </trkpt>
      <trkpt lat="47.52143" lon="-2.77811">
        <ele>25.3</ele>
        <time>2026-08-25T14:53:43Z</time>
      </trkpt>
      <trkpt lat="47.5214" lon="-2.77809">
        <ele>25.2</ele>
        <time>2026-08-25T14:53:44Z</time>
      </trkpt>
      <trkpt lat="47.52138" lon="-2.77808">
        <ele>25.1</ele>
        <time>2026-08-25T14:53:45Z</time>
      </trkpt>
      <trkpt lat="47.52135" lon="-2.77807">
        <ele>25</ele>
        <time>2026-08-25T14:53:46Z</time>
      </trkpt>
      <trkpt lat="47.52132" lon="-2.77805">
        <ele>25</ele>
        <time>2026-08-25T14:53:47Z</time>
      </trkpt>
      <trkpt lat="47.52129" lon="-2.77802">
        <ele>25</ele>
        <time>2026-08-25T14:53:48Z</time>
      </trkpt>
      <trkpt lat="47.52126" lon="-2.778">
        <ele>25</ele>
        <time>2026-08-25T14:53:49Z</time>
      </trkpt>
      <trkpt lat="47.52123" lon="-2.77799">
        <ele>25</ele>
        <time>2026-08-25T14:53:50Z</time>
      </trkpt>
      <trkpt lat="47.52119" lon="-2.77799">
        <ele>25</ele>
        <time>2026-08-25T14:53:51Z</time>
      </trkpt>
      <trkpt lat="47.52116" lon="-2.778">
        <ele>25</ele>
        <time>2026-08-25T14:53:52Z</time>
      </trkpt>
      <trkpt lat="47.52114" lon="-2.77799">
        <ele>25</ele>
        <time>2026-08-25T14:53:53Z</time>
      </trkpt>
      <trkpt lat="47.52112" lon="-2.77796">
        <ele>25</ele>
        <time>2026-08-25T14:53:54Z</time>
      </trkpt>
      <trkpt lat="47.52112" lon="-2.77792">
        <ele>25</ele>
        <time>2026-08-25T14:53:55Z</time>
      </trkpt>
      <trkpt lat="47.52113" lon="-2.77787">
        <ele>25</ele>
        <time>2026-08-25T14:53:56Z</time>
      </trkpt>
      <trkpt lat="47.52114" lon="-2.77782">
        <ele>25</ele>
        <time>2026-08-25T14:53:57Z</time>
      </trkpt>
      <trkpt lat="47.52114" lon="-2.77776">
        <ele>25</ele>
        <time>2026-08-25T14:53:58Z</time>
      </trkpt>
      <trkpt lat="47.52113" lon="-2.77771">
        <ele>25</ele>
        <time>2026-08-25T14:53:59Z</time>
      </trkpt>
      <trkpt lat="47.52111" lon="-2.77765">
        <ele>25</ele>
        <time>2026-08-25T14:54:00Z</time>
      </trkpt>
      <trkpt lat="47.52108" lon="-2.7776">
        <ele>25.1</ele>
        <time>2026-08-25T14:54:01Z</time>
      </trkpt>
      <trkpt lat="47.52106" lon="-2.77755">
        <ele>25.2</ele>
        <time>2026-08-25T14:54:02Z</time>
      </trkpt>
      <trkpt lat="47.52103" lon="-2.7775">
        <ele>25.3</ele>
        <time>2026-08-25T14:54:03Z</time>
      </trkpt>
      <trkpt lat="47.52101" lon="-2.77746">
        <ele>25.4</ele>
        <time>2026-08-25T14:54:04Z</time>
      </trkpt>
      <trkpt lat="47.52098" lon="-2.77741">
        <ele>25.5</ele>
        <time>2026-08-25T14:54:05Z</time>
      </trkpt>
      <trkpt lat="47.52095" lon="-2.77737">
        <ele>25.6</ele>
        <time>2026-08-25T14:54:06Z</time>
      </trkpt>
      <trkpt lat="47.52092" lon="-2.77732">
        <ele>25.7</ele>
        <time>2026-08-25T14:54:07Z</time>
      </trkpt>
      <trkpt lat="47.52089" lon="-2.77728">
        <ele>25.8</ele>
        <time>2026-08-25T14:54:08Z</time>
      </trkpt>
      <trkpt lat="47.52086" lon="-2.77724">
        <ele>25.9</ele>
        <time>2026-08-25T14:54:09Z</time>
      </trkpt>
      <trkpt lat="47.52084" lon="-2.7772">
        <ele>26</ele>
        <time>2026-08-25T14:54:10Z</time>
      </trkpt>
      <trkpt lat="47.52081" lon="-2.77715">
        <ele>26</ele>
        <time>2026-08-25T14:54:11Z</time>
      </trkpt>
      <trkpt lat="47.52077" lon="-2.77711">
        <ele>26</ele>
        <time>2026-08-25T14:54:12Z</time>
      </trkpt>
      <trkpt lat="47.52074" lon="-2.77707">
        <ele>26</ele>
        <time>2026-08-25T14:54:13Z</time>
      </trkpt>
      <trkpt lat="47.52071" lon="-2.77703">
        <ele>26</ele>
        <time>2026-08-25T14:54:14Z</time>
      </trkpt>
      <trkpt lat="47.52068" lon="-2.77699">
        <ele>26</ele>
        <time>2026-08-25T14:54:15Z</time>
      </trkpt>
      <trkpt lat="47.52065" lon="-2.77695">
        <ele>26</ele>
        <time>2026-08-25T14:54:16Z</time>
      </trkpt>
      <trkpt lat="47.52062" lon="-2.77691">
        <ele>26</ele>
        <time>2026-08-25T14:54:17Z</time>
      </trkpt>
      <trkpt lat="47.52058" lon="-2.77687">
        <ele>26</ele>
        <time>2026-08-25T14:54:18Z</time>
      </trkpt>
      <trkpt lat="47.52055" lon="-2.77683">
        <ele>26</ele>
        <time>2026-08-25T14:54:19Z</time>
      </trkpt>
      <trkpt lat="47.52051" lon="-2.77679">
        <ele>26</ele>
        <time>2026-08-25T14:54:20Z</time>
      </trkpt>
      <trkpt lat="47.52048" lon="-2.77675">
        <ele>26</ele>
        <time>2026-08-25T14:54:21Z</time>
      </trkpt>
      <trkpt lat="47.52044" lon="-2.7767">
        <ele>26</ele>
        <time>2026-08-25T14:54:22Z</time>
      </trkpt>
      <trkpt lat="47.52041" lon="-2.77666">
        <ele>26</ele>
        <time>2026-08-25T14:54:23Z</time>
      </trkpt>
      <trkpt lat="47.52038" lon="-2.77661">
        <ele>26</ele>
        <time>2026-08-25T14:54:24Z</time>
      </trkpt>
      <trkpt lat="47.52035" lon="-2.77656">
        <ele>26</ele>
        <time>2026-08-25T14:54:25Z</time>
      </trkpt>
      <trkpt lat="47.52032" lon="-2.77651">
        <ele>26</ele>
        <time>2026-08-25T14:54:26Z</time>
      </trkpt>
      <trkpt lat="47.52029" lon="-2.77645">
        <ele>26</ele>
        <time>2026-08-25T14:54:27Z</time>
      </trkpt>
      <trkpt lat="47.52025" lon="-2.7764">
        <ele>26</ele>
        <time>2026-08-25T14:54:28Z</time>
      </trkpt>
      <trkpt lat="47.52022" lon="-2.77636">
        <ele>25.9</ele>
        <time>2026-08-25T14:54:29Z</time>
      </trkpt>
      <trkpt lat="47.52018" lon="-2.77633">
        <ele>25.8</ele>
        <time>2026-08-25T14:54:30Z</time>
      </trkpt>
      <trkpt lat="47.52014" lon="-2.77629">
        <ele>25.6</ele>
        <time>2026-08-25T14:54:31Z</time>
      </trkpt>
      <trkpt lat="47.52009" lon="-2.77626">
        <ele>25.5</ele>
        <time>2026-08-25T14:54:32Z</time>
      </trkpt>
      <trkpt lat="47.52005" lon="-2.77623">
        <ele>25.4</ele>
        <time>2026-08-25T14:54:33Z</time>
      </trkpt>
      <trkpt lat="47.52001" lon="-2.7762">
        <ele>25.3</ele>
        <time>2026-08-25T14:54:34Z</time>
      </trkpt>
      <trkpt lat="47.51996" lon="-2.77616">
        <ele>25.2</ele>
        <time>2026-08-25T14:54:35Z</time>
      </trkpt>
      <trkpt lat="47.51992" lon="-2.77613">
        <ele>25</ele>
        <time>2026-08-25T14:54:36Z</time>
      </trkpt>
      <trkpt lat="47.51987" lon="-2.7761">
        <ele>25</ele>
        <time>2026-08-25T14:54:37Z</time>
      </trkpt>
      <trkpt lat="47.51983" lon="-2.77606">
        <ele>25</ele>
        <time>2026-08-25T14:54:38Z</time>
      </trkpt>
      <trkpt lat="47.51978" lon="-2.77603">
        <ele>25</ele>
        <time>2026-08-25T14:54:39Z</time>
      </trkpt>
      <trkpt lat="47.51974" lon="-2.77599">
        <ele>25</ele>
        <time>2026-08-25T14:54:40Z</time>
      </trkpt>
      <trkpt lat="47.51969" lon="-2.77595">
        <ele>24.9</ele>
        <time>2026-08-25T14:54:41Z</time>
      </trkpt>
      <trkpt lat="47.51965" lon="-2.77592">
        <ele>24.8</ele>
        <time>2026-08-25T14:54:42Z</time>
      </trkpt>
      <trkpt lat="47.5196" lon="-2.77588">
        <ele>24.6</ele>
        <time>2026-08-25T14:54:43Z</time>
      </trkpt>
      <trkpt lat="47.51955" lon="-2.77584">
        <ele>24.4</ele>
        <time>2026-08-25T14:54:44Z</time>
      </trkpt>
      <trkpt lat="47.51951" lon="-2.7758">
        <ele>24.2</ele>
        <time>2026-08-25T14:54:45Z</time>
      </trkpt>
      <trkpt lat="47.51946" lon="-2.77575">
        <ele>24.1</ele>
        <time>2026-08-25T14:54:46Z</time>
      </trkpt>
      <trkpt lat="47.51942" lon="-2.77571">
        <ele>24</ele>
        <time>2026-08-25T14:54:47Z</time>
      </trkpt>
      <trkpt lat="47.51937" lon="-2.77566">
        <ele>23.8</ele>
        <time>2026-08-25T14:54:48Z</time>
      </trkpt>
      <trkpt lat="47.51933" lon="-2.77561">
        <ele>23.7</ele>
        <time>2026-08-25T14:54:49Z</time>
      </trkpt>
      <trkpt lat="47.51929" lon="-2.77556">
        <ele>23.5</ele>
        <time>2026-08-25T14:54:50Z</time>
      </trkpt>
      <trkpt lat="47.51925" lon="-2.77551">
        <ele>23.3</ele>
        <time>2026-08-25T14:54:51Z</time>
      </trkpt>
      <trkpt lat="47.51921" lon="-2.77545">
        <ele>23.2</ele>
        <time>2026-08-25T14:54:52Z</time>
      </trkpt>
      <trkpt lat="47.51917" lon="-2.77539">
        <ele>23</ele>
        <time>2026-08-25T14:54:53Z</time>
      </trkpt>
      <trkpt lat="47.51913" lon="-2.77533">
        <ele>22.9</ele>
        <time>2026-08-25T14:54:54Z</time>
      </trkpt>
      <trkpt lat="47.51908" lon="-2.77527">
        <ele>22.7</ele>
        <time>2026-08-25T14:54:55Z</time>
      </trkpt>
      <trkpt lat="47.51904" lon="-2.77521">
        <ele>22.5</ele>
        <time>2026-08-25T14:54:56Z</time>
      </trkpt>
      <trkpt lat="47.51899" lon="-2.77516">
        <ele>22.4</ele>
        <time>2026-08-25T14:54:57Z</time>
      </trkpt>
      <trkpt lat="47.51894" lon="-2.77511">
        <ele>22.2</ele>
        <time>2026-08-25T14:54:58Z</time>
      </trkpt>
      <trkpt lat="47.51888" lon="-2.77506">
        <ele>21.9</ele>
        <time>2026-08-25T14:54:59Z</time>
      </trkpt>
      <trkpt lat="47.51883" lon="-2.77503">
        <ele>21.6</ele>
        <time>2026-08-25T14:55:00Z</time>
      </trkpt>
      <trkpt lat="47.51877" lon="-2.77499">
        <ele>21.1</ele>
        <time>2026-08-25T14:55:01Z</time>
      </trkpt>
      <trkpt lat="47.51871" lon="-2.77495">
        <ele>20.6</ele>
        <time>2026-08-25T14:55:02Z</time>
      </trkpt>
      <trkpt lat="47.51864" lon="-2.7749">
        <ele>20.2</ele>
        <time>2026-08-25T14:55:03Z</time>
      </trkpt>
      <trkpt lat="47.51857" lon="-2.77485">
        <ele>19.9</ele>
        <time>2026-08-25T14:55:04Z</time>
      </trkpt>
      <trkpt lat="47.5185" lon="-2.77479">
        <ele>19.6</ele>
        <time>2026-08-25T14:55:05Z</time>
      </trkpt>
      <trkpt lat="47.51843" lon="-2.77474">
        <ele>19.3</ele>
        <time>2026-08-25T14:55:06Z</time>
      </trkpt>
      <trkpt lat="47.51836" lon="-2.77468">
        <ele>19</ele>
        <time>2026-08-25T14:55:07Z</time>
      </trkpt>
      <trkpt lat="47.51829" lon="-2.77463">
        <ele>18.4</ele>
        <time>2026-08-25T14:55:08Z</time>
      </trkpt>
      <trkpt lat="47.51821" lon="-2.77459">
        <ele>17.8</ele>
        <time>2026-08-25T14:55:09Z</time>
      </trkpt>
      <trkpt lat="47.51813" lon="-2.77456">
        <ele>17.4</ele>
        <time>2026-08-25T14:55:10Z</time>
      </trkpt>
      <trkpt lat="47.51806" lon="-2.77452">
        <ele>17</ele>
        <time>2026-08-25T14:55:11Z</time>
      </trkpt>
      <trkpt lat="47.51798" lon="-2.77449">
        <ele>16.7</ele>
        <time>2026-08-25T14:55:12Z</time>
      </trkpt>
      <trkpt lat="47.5179" lon="-2.77448">
        <ele>16.4</ele>
        <time>2026-08-25T14:55:13Z</time>
      </trkpt>
      <trkpt lat="47.51783" lon="-2.77448">
        <ele>16.2</ele>
        <time>2026-08-25T14:55:14Z</time>
      </trkpt>
      <trkpt lat="47.51775" lon="-2.77448">
        <ele>15.9</ele>
        <time>2026-08-25T14:55:15Z</time>
      </trkpt>
      <trkpt lat="47.51767" lon="-2.77449">
        <ele>15.6</ele>
        <time>2026-08-25T14:55:16Z</time>
      </trkpt>
      <trkpt lat="47.51759" lon="-2.77449">
        <ele>15.3</ele>
        <time>2026-08-25T14:55:17Z</time>
      </trkpt>
      <trkpt lat="47.51752" lon="-2.77451">
        <ele>15.1</ele>
        <time>2026-08-25T14:55:18Z</time>
      </trkpt>
      <trkpt lat="47.51745" lon="-2.77454">
        <ele>15</ele>
        <time>2026-08-25T14:55:19Z</time>
      </trkpt>
      <trkpt lat="47.51738" lon="-2.77457">
        <ele>15</ele>
        <time>2026-08-25T14:55:20Z</time>
      </trkpt>
      <trkpt lat="47.51732" lon="-2.77461">
        <ele>15</ele>
        <time>2026-08-25T14:55:21Z</time>
      </trkpt>
      <trkpt lat="47.51727" lon="-2.77465">
        <ele>15</ele>
        <time>2026-08-25T14:55:22Z</time>
      </trkpt>
      <trkpt lat="47.51721" lon="-2.77469">
        <ele>15</ele>
        <time>2026-08-25T14:55:23Z</time>
      </trkpt>
      <trkpt lat="47.51716" lon="-2.77474">
        <ele>15.2</ele>
        <time>2026-08-25T14:55:24Z</time>
      </trkpt>
      <trkpt lat="47.51711" lon="-2.77478">
        <ele>15.4</ele>
        <time>2026-08-25T14:55:25Z</time>
      </trkpt>
      <trkpt lat="47.51707" lon="-2.77481">
        <ele>15.5</ele>
        <time>2026-08-25T14:55:26Z</time>
      </trkpt>
      <trkpt lat="47.51702" lon="-2.77485">
        <ele>15.7</ele>
        <time>2026-08-25T14:55:27Z</time>
      </trkpt>
      <trkpt lat="47.51698" lon="-2.77489">
        <ele>15.9</ele>
        <time>2026-08-25T14:55:28Z</time>
      </trkpt>
      <trkpt lat="47.51694" lon="-2.77493">
        <ele>16</ele>
        <time>2026-08-25T14:55:29Z</time>
      </trkpt>
      <trkpt lat="47.51691" lon="-2.77496">
        <ele>16.1</ele>
        <time>2026-08-25T14:55:30Z</time>
      </trkpt>
      <trkpt lat="47.51687" lon="-2.775">
        <ele>16.3</ele>
        <time>2026-08-25T14:55:31Z</time>
      </trkpt>
      <trkpt lat="47.51684" lon="-2.77503">
        <ele>16.4</ele>
        <time>2026-08-25T14:55:32Z</time>
      </trkpt>
      <trkpt lat="47.51682" lon="-2.77506">
        <ele>16.6</ele>
        <time>2026-08-25T14:55:33Z</time>
      </trkpt>
      <trkpt lat="47.51679" lon="-2.77509">
        <ele>16.7</ele>
        <time>2026-08-25T14:55:34Z</time>
      </trkpt>
      <trkpt lat="47.51677" lon="-2.77511">
        <ele>16.8</ele>
        <time>2026-08-25T14:55:35Z</time>
      </trkpt>
      <trkpt lat="47.51674" lon="-2.77514">
        <ele>16.9</ele>
        <time>2026-08-25T14:55:36Z</time>
      </trkpt>
      <trkpt lat="47.51671" lon="-2.77517">
        <ele>16.9</ele>
        <time>2026-08-25T14:55:37Z</time>
      </trkpt>
      <trkpt lat="47.51669" lon="-2.7752">
        <ele>17</ele>
        <time>2026-08-25T14:55:38Z</time>
      </trkpt>
      <trkpt lat="47.51666" lon="-2.77523">
        <ele>17</ele>
        <time>2026-08-25T14:55:39Z</time>
      </trkpt>
      <trkpt lat="47.51663" lon="-2.77526">
        <ele>17</ele>
        <time>2026-08-25T14:55:40Z</time>
      </trkpt>
      <trkpt lat="47.51661" lon="-2.77529">
        <ele>17</ele>
        <time>2026-08-25T14:55:41Z</time>
      </trkpt>
      <trkpt lat="47.51659" lon="-2.77532">
        <ele>17</ele>
        <time>2026-08-25T14:55:42Z</time>
      </trkpt>
      <trkpt lat="47.51656" lon="-2.77534">
        <ele>17</ele>
        <time>2026-08-25T14:55:43Z</time>
      </trkpt>
      <trkpt lat="47.51654" lon="-2.77537">
        <ele>17</ele>
        <time>2026-08-25T14:55:44Z</time>
      </trkpt>
      <trkpt lat="47.51651" lon="-2.7754">
        <ele>17</ele>
        <time>2026-08-25T14:55:45Z</time>
      </trkpt>
      <trkpt lat="47.51648" lon="-2.77544">
        <ele>17</ele>
        <time>2026-08-25T14:55:46Z</time>
      </trkpt>
      <trkpt lat="47.51644" lon="-2.77547">
        <ele>17</ele>
        <time>2026-08-25T14:55:47Z</time>
      </trkpt>
      <trkpt lat="47.51641" lon="-2.77551">
        <ele>17</ele>
        <time>2026-08-25T14:55:48Z</time>
      </trkpt>
      <trkpt lat="47.51638" lon="-2.77554">
        <ele>17</ele>
        <time>2026-08-25T14:55:49Z</time>
      </trkpt>
      <trkpt lat="47.51634" lon="-2.77557">
        <ele>17.2</ele>
        <time>2026-08-25T14:55:50Z</time>
      </trkpt>
      <trkpt lat="47.5163" lon="-2.77562">
        <ele>17.5</ele>
        <time>2026-08-25T14:55:51Z</time>
      </trkpt>
      <trkpt lat="47.51626" lon="-2.77566">
        <ele>17.7</ele>
        <time>2026-08-25T14:55:52Z</time>
      </trkpt>
      <trkpt lat="47.51623" lon="-2.77568">
        <ele>17.8</ele>
        <time>2026-08-25T14:55:53Z</time>
      </trkpt>
      <trkpt lat="47.51619" lon="-2.77571">
        <ele>17.9</ele>
        <time>2026-08-25T14:55:54Z</time>
      </trkpt>
      <trkpt lat="47.51614" lon="-2.77573">
        <ele>18</ele>
        <time>2026-08-25T14:55:55Z</time>
      </trkpt>
      <trkpt lat="47.5161" lon="-2.77574">
        <ele>18</ele>
        <time>2026-08-25T14:55:56Z</time>
      </trkpt>
      <trkpt lat="47.51604" lon="-2.77572">
        <ele>18.3</ele>
        <time>2026-08-25T14:55:57Z</time>
      </trkpt>
      <trkpt lat="47.51601" lon="-2.77568">
        <ele>18.4</ele>
        <time>2026-08-25T14:55:58Z</time>
      </trkpt>
      <trkpt lat="47.51598" lon="-2.77564">
        <ele>18.5</ele>
        <time>2026-08-25T14:55:59Z</time>
      </trkpt>
      <trkpt lat="47.51597" lon="-2.77558">
        <ele>18.5</ele>
        <time>2026-08-25T14:56:00Z</time>
      </trkpt>
      <trkpt lat="47.51594" lon="-2.77553">
        <ele>18.5</ele>
        <time>2026-08-25T14:56:01Z</time>
      </trkpt>
      <trkpt lat="47.51592" lon="-2.77547">
        <ele>18.4</ele>
        <time>2026-08-25T14:56:02Z</time>
      </trkpt>
      <trkpt lat="47.5159" lon="-2.77541">
        <ele>18.2</ele>
        <time>2026-08-25T14:56:03Z</time>
      </trkpt>
      <trkpt lat="47.51588" lon="-2.77536">
        <ele>18.1</ele>
        <time>2026-08-25T14:56:04Z</time>
      </trkpt>
      <trkpt lat="47.51586" lon="-2.7753">
        <ele>18</ele>
        <time>2026-08-25T14:56:05Z</time>
      </trkpt>
      <trkpt lat="47.51583" lon="-2.77524">
        <ele>18</ele>
        <time>2026-08-25T14:56:06Z</time>
      </trkpt>
      <trkpt lat="47.51581" lon="-2.77518">
        <ele>18.1</ele>
        <time>2026-08-25T14:56:07Z</time>
      </trkpt>
      <trkpt lat="47.5158" lon="-2.77511">
        <ele>18.1</ele>
        <time>2026-08-25T14:56:08Z</time>
      </trkpt>
      <trkpt lat="47.51577" lon="-2.77504">
        <ele>18.2</ele>
        <time>2026-08-25T14:56:09Z</time>
      </trkpt>
      <trkpt lat="47.51576" lon="-2.77499">
        <ele>18.3</ele>
        <time>2026-08-25T14:56:10Z</time>
      </trkpt>
      <trkpt lat="47.51574" lon="-2.77494">
        <ele>18.3</ele>
        <time>2026-08-25T14:56:11Z</time>
      </trkpt>
      <trkpt lat="47.51571" lon="-2.77488">
        <ele>18.4</ele>
        <time>2026-08-25T14:56:12Z</time>
      </trkpt>
      <trkpt lat="47.51569" lon="-2.77481">
        <ele>18.5</ele>
        <time>2026-08-25T14:56:13Z</time>
      </trkpt>
      <trkpt lat="47.51567" lon="-2.77475">
        <ele>18.6</ele>
        <time>2026-08-25T14:56:14Z</time>
      </trkpt>
      <trkpt lat="47.51566" lon="-2.77469">
        <ele>18.6</ele>
        <time>2026-08-25T14:56:15Z</time>
      </trkpt>
      <trkpt lat="47.51564" lon="-2.77463">
        <ele>18.5</ele>
        <time>2026-08-25T14:56:16Z</time>
      </trkpt>
      <trkpt lat="47.51563" lon="-2.77457">
        <ele>18.3</ele>
        <time>2026-08-25T14:56:17Z</time>
      </trkpt>
      <trkpt lat="47.51562" lon="-2.77452">
        <ele>18.2</ele>
        <time>2026-08-25T14:56:18Z</time>
      </trkpt>
      <trkpt lat="47.5156" lon="-2.77446">
        <ele>18</ele>
        <time>2026-08-25T14:56:19Z</time>
      </trkpt>
      <trkpt lat="47.51558" lon="-2.77441">
        <ele>18</ele>
        <time>2026-08-25T14:56:20Z</time>
      </trkpt>
      <trkpt lat="47.51556" lon="-2.77435">
        <ele>18</ele>
        <time>2026-08-25T14:56:21Z</time>
      </trkpt>
      <trkpt lat="47.51555" lon="-2.77429">
        <ele>18</ele>
        <time>2026-08-25T14:56:22Z</time>
      </trkpt>
      <trkpt lat="47.51553" lon="-2.77423">
        <ele>18.1</ele>
        <time>2026-08-25T14:56:23Z</time>
      </trkpt>
      <trkpt lat="47.51551" lon="-2.77418">
        <ele>18.2</ele>
        <time>2026-08-25T14:56:24Z</time>
      </trkpt>
      <trkpt lat="47.51549" lon="-2.77412">
        <ele>18.3</ele>
        <time>2026-08-25T14:56:25Z</time>
      </trkpt>
      <trkpt lat="47.51547" lon="-2.77406">
        <ele>18.4</ele>
        <time>2026-08-25T14:56:26Z</time>
      </trkpt>
      <trkpt lat="47.51545" lon="-2.774">
        <ele>18.6</ele>
        <time>2026-08-25T14:56:27Z</time>
      </trkpt>
      <trkpt lat="47.51543" lon="-2.77394">
        <ele>18.8</ele>
        <time>2026-08-25T14:56:28Z</time>
      </trkpt>
      <trkpt lat="47.51541" lon="-2.77389">
        <ele>19</ele>
        <time>2026-08-25T14:56:29Z</time>
      </trkpt>
      <trkpt lat="47.51539" lon="-2.77384">
        <ele>19.1</ele>
        <time>2026-08-25T14:56:30Z</time>
      </trkpt>
      <trkpt lat="47.51538" lon="-2.77379">
        <ele>19</ele>
        <time>2026-08-25T14:56:31Z</time>
      </trkpt>
      <trkpt lat="47.51536" lon="-2.77373">
        <ele>19</ele>
        <time>2026-08-25T14:56:32Z</time>
      </trkpt>
      <trkpt lat="47.51535" lon="-2.77367">
        <ele>18.9</ele>
        <time>2026-08-25T14:56:33Z</time>
      </trkpt>
      <trkpt lat="47.51533" lon="-2.77362">
        <ele>18.8</ele>
        <time>2026-08-25T14:56:34Z</time>
      </trkpt>
      <trkpt lat="47.51532" lon="-2.77356">
        <ele>18.8</ele>
        <time>2026-08-25T14:56:35Z</time>
      </trkpt>
      <trkpt lat="47.51531" lon="-2.77351">
        <ele>18.9</ele>
        <time>2026-08-25T14:56:36Z</time>
      </trkpt>
      <trkpt lat="47.51531" lon="-2.77345">
        <ele>18.9</ele>
        <time>2026-08-25T14:56:37Z</time>
      </trkpt>
      <trkpt lat="47.5153" lon="-2.77339">
        <ele>18.9</ele>
        <time>2026-08-25T14:56:38Z</time>
      </trkpt>
      <trkpt lat="47.5153" lon="-2.77333">
        <ele>18.9</ele>
        <time>2026-08-25T14:56:39Z</time>
      </trkpt>
      <trkpt lat="47.51528" lon="-2.77328">
        <ele>18.8</ele>
        <time>2026-08-25T14:56:40Z</time>
      </trkpt>
      <trkpt lat="47.51527" lon="-2.77322">
        <ele>18.6</ele>
        <time>2026-08-25T14:56:41Z</time>
      </trkpt>
      <trkpt lat="47.51527" lon="-2.77317">
        <ele>18.4</ele>
        <time>2026-08-25T14:56:42Z</time>
      </trkpt>
      <trkpt lat="47.51526" lon="-2.77311">
        <ele>18.3</ele>
        <time>2026-08-25T14:56:43Z</time>
      </trkpt>
      <trkpt lat="47.51526" lon="-2.77305">
        <ele>18</ele>
        <time>2026-08-25T14:56:44Z</time>
      </trkpt>
      <trkpt lat="47.51525" lon="-2.77299">
        <ele>17.9</ele>
        <time>2026-08-25T14:56:45Z</time>
      </trkpt>
      <trkpt lat="47.51525" lon="-2.77293">
        <ele>17.7</ele>
        <time>2026-08-25T14:56:46Z</time>
      </trkpt>
      <trkpt lat="47.51525" lon="-2.77287">
        <ele>17.5</ele>
        <time>2026-08-25T14:56:47Z</time>
      </trkpt>
      <trkpt lat="47.51524" lon="-2.7728">
        <ele>17.3</ele>
        <time>2026-08-25T14:56:48Z</time>
      </trkpt>
      <trkpt lat="47.51524" lon="-2.77272">
        <ele>17.3</ele>
        <time>2026-08-25T14:56:49Z</time>
      </trkpt>
      <trkpt lat="47.51524" lon="-2.77265">
        <ele>17.3</ele>
        <time>2026-08-25T14:56:50Z</time>
      </trkpt>
      <trkpt lat="47.51524" lon="-2.77258">
        <ele>17.3</ele>
        <time>2026-08-25T14:56:51Z</time>
      </trkpt>
      <trkpt lat="47.51524" lon="-2.77251">
        <ele>17.3</ele>
        <time>2026-08-25T14:56:52Z</time>
      </trkpt>
      <trkpt lat="47.51524" lon="-2.77243">
        <ele>17</ele>
        <time>2026-08-25T14:56:53Z</time>
      </trkpt>
      <trkpt lat="47.51523" lon="-2.77236">
        <ele>16.8</ele>
        <time>2026-08-25T14:56:54Z</time>
      </trkpt>
      <trkpt lat="47.51523" lon="-2.77228">
        <ele>16.6</ele>
        <time>2026-08-25T14:56:55Z</time>
      </trkpt>
      <trkpt lat="47.51524" lon="-2.7722">
        <ele>16.3</ele>
        <time>2026-08-25T14:56:56Z</time>
      </trkpt>
      <trkpt lat="47.51524" lon="-2.77212">
        <ele>16.2</ele>
        <time>2026-08-25T14:56:57Z</time>
      </trkpt>
      <trkpt lat="47.51524" lon="-2.77204">
        <ele>16.2</ele>
        <time>2026-08-25T14:56:58Z</time>
      </trkpt>
      <trkpt lat="47.51523" lon="-2.77196">
        <ele>16.2</ele>
        <time>2026-08-25T14:56:59Z</time>
      </trkpt>
      <trkpt lat="47.51523" lon="-2.77188">
        <ele>15.9</ele>
        <time>2026-08-25T14:57:00Z</time>
      </trkpt>
      <trkpt lat="47.51523" lon="-2.77179">
        <ele>15.6</ele>
        <time>2026-08-25T14:57:01Z</time>
      </trkpt>
      <trkpt lat="47.51523" lon="-2.77171">
        <ele>15.3</ele>
        <time>2026-08-25T14:57:02Z</time>
      </trkpt>
      <trkpt lat="47.51523" lon="-2.77163">
        <ele>15.2</ele>
        <time>2026-08-25T14:57:03Z</time>
      </trkpt>
      <trkpt lat="47.51523" lon="-2.77154">
        <ele>15.2</ele>
        <time>2026-08-25T14:57:04Z</time>
      </trkpt>
      <trkpt lat="47.51523" lon="-2.77146">
        <ele>15.2</ele>
        <time>2026-08-25T14:57:05Z</time>
      </trkpt>
      <trkpt lat="47.51523" lon="-2.77138">
        <ele>15.2</ele>
        <time>2026-08-25T14:57:06Z</time>
      </trkpt>
      <trkpt lat="47.51522" lon="-2.7713">
        <ele>15.2</ele>
        <time>2026-08-25T14:57:07Z</time>
      </trkpt>
      <trkpt lat="47.51521" lon="-2.77123">
        <ele>15.2</ele>
        <time>2026-08-25T14:57:08Z</time>
      </trkpt>
      <trkpt lat="47.5152" lon="-2.77116">
        <ele>15.3</ele>
        <time>2026-08-25T14:57:09Z</time>
      </trkpt>
      <trkpt lat="47.5152" lon="-2.7711">
        <ele>15.3</ele>
        <time>2026-08-25T14:57:10Z</time>
      </trkpt>
      <trkpt lat="47.5152" lon="-2.77103">
        <ele>15.5</ele>
        <time>2026-08-25T14:57:11Z</time>
      </trkpt>
      <trkpt lat="47.5152" lon="-2.77096">
        <ele>15.7</ele>
        <time>2026-08-25T14:57:12Z</time>
      </trkpt>
      <trkpt lat="47.51519" lon="-2.77089">
        <ele>15.9</ele>
        <time>2026-08-25T14:57:13Z</time>
      </trkpt>
      <trkpt lat="47.51519" lon="-2.77082">
        <ele>16</ele>
        <time>2026-08-25T14:57:14Z</time>
      </trkpt>
      <trkpt lat="47.51518" lon="-2.77075">
        <ele>16.1</ele>
        <time>2026-08-25T14:57:15Z</time>
      </trkpt>
      <trkpt lat="47.51518" lon="-2.77069">
        <ele>16.2</ele>
        <time>2026-08-25T14:57:16Z</time>
      </trkpt>
      <trkpt lat="47.51518" lon="-2.77062">
        <ele>16.3</ele>
        <time>2026-08-25T14:57:17Z</time>
      </trkpt>
      <trkpt lat="47.51517" lon="-2.77056">
        <ele>16.4</ele>
        <time>2026-08-25T14:57:18Z</time>
      </trkpt>
      <trkpt lat="47.51517" lon="-2.77049">
        <ele>16.5</ele>
        <time>2026-08-25T14:57:19Z</time>
      </trkpt>
      <trkpt lat="47.51517" lon="-2.77042">
        <ele>16.6</ele>
        <time>2026-08-25T14:57:20Z</time>
      </trkpt>
      <trkpt lat="47.51517" lon="-2.77036">
        <ele>16.7</ele>
        <time>2026-08-25T14:57:21Z</time>
      </trkpt>
      <trkpt lat="47.51517" lon="-2.77029">
        <ele>16.8</ele>
        <time>2026-08-25T14:57:22Z</time>
      </trkpt>
      <trkpt lat="47.51517" lon="-2.77022">
        <ele>16.8</ele>
        <time>2026-08-25T14:57:23Z</time>
      </trkpt>
      <trkpt lat="47.51517" lon="-2.77016">
        <ele>16.8</ele>
        <time>2026-08-25T14:57:24Z</time>
      </trkpt>
      <trkpt lat="47.51517" lon="-2.77009">
        <ele>16.8</ele>
        <time>2026-08-25T14:57:25Z</time>
      </trkpt>
      <trkpt lat="47.51517" lon="-2.77003">
        <ele>16.8</ele>
        <time>2026-08-25T14:57:26Z</time>
      </trkpt>
      <trkpt lat="47.51516" lon="-2.76996">
        <ele>16.9</ele>
        <time>2026-08-25T14:57:27Z</time>
      </trkpt>
      <trkpt lat="47.51515" lon="-2.76989">
        <ele>17</ele>
        <time>2026-08-25T14:57:28Z</time>
      </trkpt>
      <trkpt lat="47.51515" lon="-2.76982">
        <ele>17</ele>
        <time>2026-08-25T14:57:29Z</time>
      </trkpt>
      <trkpt lat="47.51515" lon="-2.76974">
        <ele>17</ele>
        <time>2026-08-25T14:57:30Z</time>
      </trkpt>
      <trkpt lat="47.51514" lon="-2.76967">
        <ele>17</ele>
        <time>2026-08-25T14:57:31Z</time>
      </trkpt>
      <trkpt lat="47.51514" lon="-2.76959">
        <ele>17</ele>
        <time>2026-08-25T14:57:32Z</time>
      </trkpt>
      <trkpt lat="47.51515" lon="-2.76952">
        <ele>17</ele>
        <time>2026-08-25T14:57:33Z</time>
      </trkpt>
      <trkpt lat="47.51515" lon="-2.76945">
        <ele>17</ele>
        <time>2026-08-25T14:57:34Z</time>
      </trkpt>
      <trkpt lat="47.51515" lon="-2.76938">
        <ele>16.8</ele>
        <time>2026-08-25T14:57:35Z</time>
      </trkpt>
      <trkpt lat="47.51515" lon="-2.76932">
        <ele>16.6</ele>
        <time>2026-08-25T14:57:36Z</time>
      </trkpt>
      <trkpt lat="47.51514" lon="-2.76926">
        <ele>16.3</ele>
        <time>2026-08-25T14:57:37Z</time>
      </trkpt>
      <trkpt lat="47.51514" lon="-2.76921">
        <ele>16.2</ele>
        <time>2026-08-25T14:57:38Z</time>
      </trkpt>
      <trkpt lat="47.51515" lon="-2.76917">
        <ele>16</ele>
        <time>2026-08-25T14:57:39Z</time>
      </trkpt>
      <trkpt lat="47.51516" lon="-2.76913">
        <ele>15.9</ele>
        <time>2026-08-25T14:57:40Z</time>
      </trkpt>
      <trkpt lat="47.51519" lon="-2.7691">
        <ele>15.8</ele>
        <time>2026-08-25T14:57:41Z</time>
      </trkpt>
      <trkpt lat="47.51523" lon="-2.76907">
        <ele>15.7</ele>
        <time>2026-08-25T14:57:42Z</time>
      </trkpt>
      <trkpt lat="47.51527" lon="-2.76904">
        <ele>15.5</ele>
        <time>2026-08-25T14:57:43Z</time>
      </trkpt>
      <trkpt lat="47.51532" lon="-2.76902">
        <ele>15.5</ele>
        <time>2026-08-25T14:57:44Z</time>
      </trkpt>
      <trkpt lat="47.51537" lon="-2.76899">
        <ele>15.4</ele>
        <time>2026-08-25T14:57:45Z</time>
      </trkpt>
      <trkpt lat="47.51541" lon="-2.76896">
        <ele>15.3</ele>
        <time>2026-08-25T14:57:46Z</time>
      </trkpt>
      <trkpt lat="47.51546" lon="-2.76893">
        <ele>15.1</ele>
        <time>2026-08-25T14:57:47Z</time>
      </trkpt>
      <trkpt lat="47.51551" lon="-2.76889">
        <ele>15</ele>
        <time>2026-08-25T14:57:48Z</time>
      </trkpt>
      <trkpt lat="47.51556" lon="-2.76884">
        <ele>15</ele>
        <time>2026-08-25T14:57:49Z</time>
      </trkpt>
      <trkpt lat="47.51561" lon="-2.76879">
        <ele>14.9</ele>
        <time>2026-08-25T14:57:50Z</time>
      </trkpt>
      <trkpt lat="47.51567" lon="-2.76875">
        <ele>14.8</ele>
        <time>2026-08-25T14:57:51Z</time>
      </trkpt>
      <trkpt lat="47.51572" lon="-2.7687">
        <ele>14.6</ele>
        <time>2026-08-25T14:57:52Z</time>
      </trkpt>
      <trkpt lat="47.51578" lon="-2.76865">
        <ele>14.3</ele>
        <time>2026-08-25T14:57:53Z</time>
      </trkpt>
      <trkpt lat="47.51583" lon="-2.7686">
        <ele>14</ele>
        <time>2026-08-25T14:57:54Z</time>
      </trkpt>
      <trkpt lat="47.51589" lon="-2.76855">
        <ele>14</ele>
        <time>2026-08-25T14:57:55Z</time>
      </trkpt>
      <trkpt lat="47.51594" lon="-2.7685">
        <ele>13.8</ele>
        <time>2026-08-25T14:57:56Z</time>
      </trkpt>
      <trkpt lat="47.516" lon="-2.76844">
        <ele>13.6</ele>
        <time>2026-08-25T14:57:57Z</time>
      </trkpt>
      <trkpt lat="47.51605" lon="-2.76838">
        <ele>13.4</ele>
        <time>2026-08-25T14:57:58Z</time>
      </trkpt>
      <trkpt lat="47.51609" lon="-2.76831">
        <ele>13.1</ele>
        <time>2026-08-25T14:57:59Z</time>
      </trkpt>
      <trkpt lat="47.51614" lon="-2.76823">
        <ele>12.9</ele>
        <time>2026-08-25T14:58:00Z</time>
      </trkpt>
      <trkpt lat="47.51618" lon="-2.76815">
        <ele>12.8</ele>
        <time>2026-08-25T14:58:01Z</time>
      </trkpt>
      <trkpt lat="47.51622" lon="-2.76807">
        <ele>12.6</ele>
        <time>2026-08-25T14:58:02Z</time>
      </trkpt>
      <trkpt lat="47.51625" lon="-2.76799">
        <ele>12.3</ele>
        <time>2026-08-25T14:58:03Z</time>
      </trkpt>
      <trkpt lat="47.51629" lon="-2.76791">
        <ele>11.8</ele>
        <time>2026-08-25T14:58:04Z</time>
      </trkpt>
      <trkpt lat="47.51632" lon="-2.76784">
        <ele>11.5</ele>
        <time>2026-08-25T14:58:05Z</time>
      </trkpt>
      <trkpt lat="47.51635" lon="-2.76777">
        <ele>11.1</ele>
        <time>2026-08-25T14:58:06Z</time>
      </trkpt>
      <trkpt lat="47.51638" lon="-2.76771">
        <ele>10.8</ele>
        <time>2026-08-25T14:58:07Z</time>
      </trkpt>
      <trkpt lat="47.5164" lon="-2.76764">
        <ele>10.4</ele>
        <time>2026-08-25T14:58:08Z</time>
      </trkpt>
      <trkpt lat="47.51642" lon="-2.76758">
        <ele>10.1</ele>
        <time>2026-08-25T14:58:09Z</time>
      </trkpt>
      <trkpt lat="47.51645" lon="-2.76751">
        <ele>9.8</ele>
        <time>2026-08-25T14:58:10Z</time>
      </trkpt>
      <trkpt lat="47.51648" lon="-2.76744">
        <ele>9.5</ele>
        <time>2026-08-25T14:58:11Z</time>
      </trkpt>
      <trkpt lat="47.51652" lon="-2.76737">
        <ele>9.3</ele>
        <time>2026-08-25T14:58:12Z</time>
      </trkpt>
      <trkpt lat="47.51655" lon="-2.76731">
        <ele>9.1</ele>
        <time>2026-08-25T14:58:13Z</time>
      </trkpt>
      <trkpt lat="47.51658" lon="-2.76726">
        <ele>9</ele>
        <time>2026-08-25T14:58:14Z</time>
      </trkpt>
      <trkpt lat="47.51659" lon="-2.76722">
        <ele>9</ele>
        <time>2026-08-25T14:58:15Z</time>
      </trkpt>
      <trkpt lat="47.51661" lon="-2.76719">
        <ele>9</ele>
        <time>2026-08-25T14:58:16Z</time>
      </trkpt>
      <trkpt lat="47.51661" lon="-2.76716">
        <ele>9</ele>
        <time>2026-08-25T14:58:17Z</time>
      </trkpt>
      <trkpt lat="47.51662" lon="-2.76713">
        <ele>9</ele>
        <time>2026-08-25T14:58:18Z</time>
      </trkpt>
      <trkpt lat="47.51662" lon="-2.7671">
        <ele>9</ele>
        <time>2026-08-25T14:58:19Z</time>
      </trkpt>
      <trkpt lat="47.51661" lon="-2.76708">
        <ele>9</ele>
        <time>2026-08-25T14:58:20Z</time>
      </trkpt>
      <trkpt lat="47.51661" lon="-2.76706">
        <ele>9</ele>
        <time>2026-08-25T14:58:21Z</time>
      </trkpt>
      <trkpt lat="47.51661" lon="-2.76705">
        <ele>9</ele>
        <time>2026-08-25T14:58:22Z</time>
      </trkpt>
      <trkpt lat="47.51661" lon="-2.76703">
        <ele>9</ele>
        <time>2026-08-25T14:58:23Z</time>
      </trkpt>
      <trkpt lat="47.51661" lon="-2.76702">
        <ele>9</ele>
        <time>2026-08-25T14:58:24Z</time>
      </trkpt>
      <trkpt lat="47.51662" lon="-2.76701">
        <ele>9</ele>
        <time>2026-08-25T14:58:25Z</time>
      </trkpt>
      <trkpt lat="47.51663" lon="-2.76694">
        <ele>9</ele>
        <time>2026-08-25T14:58:28Z</time>
      </trkpt>
      <trkpt lat="47.51665" lon="-2.76691">
        <ele>8.9</ele>
        <time>2026-08-25T14:58:29Z</time>
      </trkpt>
      <trkpt lat="47.51666" lon="-2.76687">
        <ele>8.7</ele>
        <time>2026-08-25T14:58:30Z</time>
      </trkpt>
      <trkpt lat="47.51667" lon="-2.76683">
        <ele>8.6</ele>
        <time>2026-08-25T14:58:31Z</time>
      </trkpt>
      <trkpt lat="47.51669" lon="-2.76679">
        <ele>8.5</ele>
        <time>2026-08-25T14:58:32Z</time>
      </trkpt>
      <trkpt lat="47.51671" lon="-2.76676">
        <ele>8.4</ele>
        <time>2026-08-25T14:58:33Z</time>
      </trkpt>
      <trkpt lat="47.51673" lon="-2.76673">
        <ele>8.4</ele>
        <time>2026-08-25T14:58:34Z</time>
      </trkpt>
      <trkpt lat="47.51675" lon="-2.76669">
        <ele>8.4</ele>
        <time>2026-08-25T14:58:35Z</time>
      </trkpt>
      <trkpt lat="47.51677" lon="-2.76664">
        <ele>8.4</ele>
        <time>2026-08-25T14:58:36Z</time>
      </trkpt>
      <trkpt lat="47.51679" lon="-2.76659">
        <ele>8.6</ele>
        <time>2026-08-25T14:58:37Z</time>
      </trkpt>
      <trkpt lat="47.51681" lon="-2.76653">
        <ele>8.8</ele>
        <time>2026-08-25T14:58:38Z</time>
      </trkpt>
      <trkpt lat="47.51683" lon="-2.76647">
        <ele>8.9</ele>
        <time>2026-08-25T14:58:39Z</time>
      </trkpt>
      <trkpt lat="47.51685" lon="-2.7664">
        <ele>9</ele>
        <time>2026-08-25T14:58:40Z</time>
      </trkpt>
      <trkpt lat="47.51688" lon="-2.76634">
        <ele>8.9</ele>
        <time>2026-08-25T14:58:41Z</time>
      </trkpt>
      <trkpt lat="47.5169" lon="-2.76628">
        <ele>8.7</ele>
        <time>2026-08-25T14:58:42Z</time>
      </trkpt>
      <trkpt lat="47.51692" lon="-2.76621">
        <ele>8.5</ele>
        <time>2026-08-25T14:58:43Z</time>
      </trkpt>
      <trkpt lat="47.51694" lon="-2.76614">
        <ele>8.1</ele>
        <time>2026-08-25T14:58:44Z</time>
      </trkpt>
      <trkpt lat="47.51697" lon="-2.76608">
        <ele>8.1</ele>
        <time>2026-08-25T14:58:45Z</time>
      </trkpt>
      <trkpt lat="47.51699" lon="-2.76602">
        <ele>8.1</ele>
        <time>2026-08-25T14:58:46Z</time>
      </trkpt>
      <trkpt lat="47.51701" lon="-2.76596">
        <ele>8.1</ele>
        <time>2026-08-25T14:58:47Z</time>
      </trkpt>
      <trkpt lat="47.51703" lon="-2.76591">
        <ele>8.1</ele>
        <time>2026-08-25T14:58:48Z</time>
      </trkpt>
      <trkpt lat="47.51706" lon="-2.76584">
        <ele>8</ele>
        <time>2026-08-25T14:58:49Z</time>
      </trkpt>
      <trkpt lat="47.51708" lon="-2.76578">
        <ele>7.9</ele>
        <time>2026-08-25T14:58:50Z</time>
      </trkpt>
      <trkpt lat="47.51709" lon="-2.76571">
        <ele>7.8</ele>
        <time>2026-08-25T14:58:51Z</time>
      </trkpt>
      <trkpt lat="47.51711" lon="-2.76565">
        <ele>7.6</ele>
        <time>2026-08-25T14:58:52Z</time>
      </trkpt>
      <trkpt lat="47.51713" lon="-2.76559">
        <ele>7.4</ele>
        <time>2026-08-25T14:58:53Z</time>
      </trkpt>
      <trkpt lat="47.51716" lon="-2.76553">
        <ele>7.2</ele>
        <time>2026-08-25T14:58:54Z</time>
      </trkpt>
      <trkpt lat="47.51718" lon="-2.76547">
        <ele>7.2</ele>
        <time>2026-08-25T14:58:55Z</time>
      </trkpt>
      <trkpt lat="47.5172" lon="-2.76542">
        <ele>7.1</ele>
        <time>2026-08-25T14:58:56Z</time>
      </trkpt>
      <trkpt lat="47.5172" lon="-2.76537">
        <ele>7.1</ele>
        <time>2026-08-25T14:58:57Z</time>
      </trkpt>
      <trkpt lat="47.51719" lon="-2.76534">
        <ele>7.1</ele>
        <time>2026-08-25T14:58:58Z</time>
      </trkpt>
      <trkpt lat="47.51719" lon="-2.76532">
        <ele>7.1</ele>
        <time>2026-08-25T14:58:59Z</time>
      </trkpt>
      <trkpt lat="47.51718" lon="-2.76529">
        <ele>7.2</ele>
        <time>2026-08-25T14:59:00Z</time>
      </trkpt>
      <trkpt lat="47.51718" lon="-2.76525">
        <ele>7.1</ele>
        <time>2026-08-25T14:59:01Z</time>
      </trkpt>
      <trkpt lat="47.51719" lon="-2.76519">
        <ele>7.1</ele>
        <time>2026-08-25T14:59:02Z</time>
      </trkpt>
      <trkpt lat="47.5172" lon="-2.76515">
        <ele>7</ele>
        <time>2026-08-25T14:59:03Z</time>
      </trkpt>
      <trkpt lat="47.51722" lon="-2.7651">
        <ele>7</ele>
        <time>2026-08-25T14:59:04Z</time>
      </trkpt>
      <trkpt lat="47.51724" lon="-2.76505">
        <ele>7.1</ele>
        <time>2026-08-25T14:59:05Z</time>
      </trkpt>
      <trkpt lat="47.51726" lon="-2.765">
        <ele>7.1</ele>
        <time>2026-08-25T14:59:06Z</time>
      </trkpt>
      <trkpt lat="47.51728" lon="-2.76494">
        <ele>7.2</ele>
        <time>2026-08-25T14:59:07Z</time>
      </trkpt>
      <trkpt lat="47.5173" lon="-2.76489">
        <ele>7.2</ele>
        <time>2026-08-25T14:59:08Z</time>
      </trkpt>
      <trkpt lat="47.51733" lon="-2.76483">
        <ele>7.2</ele>
        <time>2026-08-25T14:59:09Z</time>
      </trkpt>
      <trkpt lat="47.51735" lon="-2.76477">
        <ele>7.1</ele>
        <time>2026-08-25T14:59:10Z</time>
      </trkpt>
      <trkpt lat="47.51739" lon="-2.7647">
        <ele>6.9</ele>
        <time>2026-08-25T14:59:11Z</time>
      </trkpt>
      <trkpt lat="47.51742" lon="-2.76465">
        <ele>6.9</ele>
        <time>2026-08-25T14:59:12Z</time>
      </trkpt>
      <trkpt lat="47.51746" lon="-2.7646">
        <ele>6.9</ele>
        <time>2026-08-25T14:59:13Z</time>
      </trkpt>
      <trkpt lat="47.5175" lon="-2.76455">
        <ele>7</ele>
        <time>2026-08-25T14:59:14Z</time>
      </trkpt>
      <trkpt lat="47.51755" lon="-2.7645">
        <ele>7</ele>
        <time>2026-08-25T14:59:15Z</time>
      </trkpt>
      <trkpt lat="47.51759" lon="-2.76445">
        <ele>7</ele>
        <time>2026-08-25T14:59:16Z</time>
      </trkpt>
      <trkpt lat="47.51764" lon="-2.76441">
        <ele>6.9</ele>
        <time>2026-08-25T14:59:17Z</time>
      </trkpt>
      <trkpt lat="47.51768" lon="-2.76437">
        <ele>6.8</ele>
        <time>2026-08-25T14:59:18Z</time>
      </trkpt>
      <trkpt lat="47.51772" lon="-2.76433">
        <ele>6.8</ele>
        <time>2026-08-25T14:59:19Z</time>
      </trkpt>
      <trkpt lat="47.51776" lon="-2.76429">
        <ele>6.9</ele>
        <time>2026-08-25T14:59:20Z</time>
      </trkpt>
      <trkpt lat="47.5178" lon="-2.76425">
        <ele>7</ele>
        <time>2026-08-25T14:59:21Z</time>
      </trkpt>
      <trkpt lat="47.51784" lon="-2.76421">
        <ele>7</ele>
        <time>2026-08-25T14:59:22Z</time>
      </trkpt>
      <trkpt lat="47.51789" lon="-2.76417">
        <ele>7</ele>
        <time>2026-08-25T14:59:23Z</time>
      </trkpt>
      <trkpt lat="47.51793" lon="-2.76413">
        <ele>6.9</ele>
        <time>2026-08-25T14:59:24Z</time>
      </trkpt>
      <trkpt lat="47.51797" lon="-2.76408">
        <ele>6.8</ele>
        <time>2026-08-25T14:59:25Z</time>
      </trkpt>
      <trkpt lat="47.51802" lon="-2.76404">
        <ele>6.9</ele>
        <time>2026-08-25T14:59:26Z</time>
      </trkpt>
      <trkpt lat="47.51806" lon="-2.764">
        <ele>7</ele>
        <time>2026-08-25T14:59:27Z</time>
      </trkpt>
      <trkpt lat="47.51811" lon="-2.76396">
        <ele>7</ele>
        <time>2026-08-25T14:59:28Z</time>
      </trkpt>
      <trkpt lat="47.51815" lon="-2.76392">
        <ele>7</ele>
        <time>2026-08-25T14:59:29Z</time>
      </trkpt>
      <trkpt lat="47.5182" lon="-2.76387">
        <ele>6.9</ele>
        <time>2026-08-25T14:59:30Z</time>
      </trkpt>
      <trkpt lat="47.51825" lon="-2.76383">
        <ele>6.9</ele>
        <time>2026-08-25T14:59:31Z</time>
      </trkpt>
      <trkpt lat="47.5183" lon="-2.76379">
        <ele>6.9</ele>
        <time>2026-08-25T14:59:32Z</time>
      </trkpt>
      <trkpt lat="47.51834" lon="-2.76375">
        <ele>7</ele>
        <time>2026-08-25T14:59:33Z</time>
      </trkpt>
      <trkpt lat="47.51838" lon="-2.7637">
        <ele>7.1</ele>
        <time>2026-08-25T14:59:34Z</time>
      </trkpt>
      <trkpt lat="47.51843" lon="-2.76366">
        <ele>7.3</ele>
        <time>2026-08-25T14:59:35Z</time>
      </trkpt>
      <trkpt lat="47.51847" lon="-2.7636">
        <ele>7.5</ele>
        <time>2026-08-25T14:59:36Z</time>
      </trkpt>
      <trkpt lat="47.5185" lon="-2.76354">
        <ele>7.6</ele>
        <time>2026-08-25T14:59:37Z</time>
      </trkpt>
      <trkpt lat="47.51853" lon="-2.76348">
        <ele>7.7</ele>
        <time>2026-08-25T14:59:38Z</time>
      </trkpt>
      <trkpt lat="47.51854" lon="-2.76341">
        <ele>7.7</ele>
        <time>2026-08-25T14:59:39Z</time>
      </trkpt>
      <trkpt lat="47.51854" lon="-2.76334">
        <ele>7.7</ele>
        <time>2026-08-25T14:59:40Z</time>
      </trkpt>
      <trkpt lat="47.51854" lon="-2.76327">
        <ele>7.7</ele>
        <time>2026-08-25T14:59:41Z</time>
      </trkpt>
      <trkpt lat="47.51854" lon="-2.7632">
        <ele>7.6</ele>
        <time>2026-08-25T14:59:42Z</time>
      </trkpt>
      <trkpt lat="47.51854" lon="-2.76313">
        <ele>7.6</ele>
        <time>2026-08-25T14:59:43Z</time>
      </trkpt>
      <trkpt lat="47.51854" lon="-2.76306">
        <ele>7.5</ele>
        <time>2026-08-25T14:59:44Z</time>
      </trkpt>
      <trkpt lat="47.51853" lon="-2.76298">
        <ele>7.5</ele>
        <time>2026-08-25T14:59:45Z</time>
      </trkpt>
      <trkpt lat="47.51853" lon="-2.7629">
        <ele>7.6</ele>
        <time>2026-08-25T14:59:46Z</time>
      </trkpt>
      <trkpt lat="47.51852" lon="-2.76282">
        <ele>7.6</ele>
        <time>2026-08-25T14:59:47Z</time>
      </trkpt>
      <trkpt lat="47.51852" lon="-2.76275">
        <ele>7.7</ele>
        <time>2026-08-25T14:59:48Z</time>
      </trkpt>
      <trkpt lat="47.51852" lon="-2.76267">
        <ele>7.7</ele>
        <time>2026-08-25T14:59:49Z</time>
      </trkpt>
      <trkpt lat="47.51851" lon="-2.76259">
        <ele>7.6</ele>
        <time>2026-08-25T14:59:50Z</time>
      </trkpt>
      <trkpt lat="47.51851" lon="-2.76251">
        <ele>7.6</ele>
        <time>2026-08-25T14:59:51Z</time>
      </trkpt>
      <trkpt lat="47.5185" lon="-2.76243">
        <ele>7.6</ele>
        <time>2026-08-25T14:59:52Z</time>
      </trkpt>
      <trkpt lat="47.5185" lon="-2.76235">
        <ele>7.6</ele>
        <time>2026-08-25T14:59:53Z</time>
      </trkpt>
      <trkpt lat="47.5185" lon="-2.76228">
        <ele>7.6</ele>
        <time>2026-08-25T14:59:54Z</time>
      </trkpt>
      <trkpt lat="47.51849" lon="-2.7622">
        <ele>7.6</ele>
        <time>2026-08-25T14:59:55Z</time>
      </trkpt>
      <trkpt lat="47.51849" lon="-2.76212">
        <ele>7.8</ele>
        <time>2026-08-25T14:59:56Z</time>
      </trkpt>
      <trkpt lat="47.51849" lon="-2.76204">
        <ele>7.9</ele>
        <time>2026-08-25T14:59:57Z</time>
      </trkpt>
      <trkpt lat="47.51848" lon="-2.76197">
        <ele>8</ele>
        <time>2026-08-25T14:59:58Z</time>
      </trkpt>
      <trkpt lat="47.51848" lon="-2.76189">
        <ele>8.1</ele>
        <time>2026-08-25T14:59:59Z</time>
      </trkpt>
      <trkpt lat="47.51847" lon="-2.76181">
        <ele>8</ele>
        <time>2026-08-25T15:00:00Z</time>
      </trkpt>
      <trkpt lat="47.51847" lon="-2.76173">
        <ele>8</ele>
        <time>2026-08-25T15:00:01Z</time>
      </trkpt>
      <trkpt lat="47.51848" lon="-2.76166">
        <ele>8</ele>
        <time>2026-08-25T15:00:02Z</time>
      </trkpt>
      <trkpt lat="47.51849" lon="-2.76158">
        <ele>7.8</ele>
        <time>2026-08-25T15:00:03Z</time>
      </trkpt>
      <trkpt lat="47.51849" lon="-2.7615">
        <ele>7.5</ele>
        <time>2026-08-25T15:00:04Z</time>
      </trkpt>
      <trkpt lat="47.51851" lon="-2.76143">
        <ele>7.4</ele>
        <time>2026-08-25T15:00:05Z</time>
      </trkpt>
      <trkpt lat="47.51853" lon="-2.76136">
        <ele>7.3</ele>
        <time>2026-08-25T15:00:06Z</time>
      </trkpt>
      <trkpt lat="47.51855" lon="-2.76128">
        <ele>7.2</ele>
        <time>2026-08-25T15:00:07Z</time>
      </trkpt>
      <trkpt lat="47.51857" lon="-2.76121">
        <ele>7.1</ele>
        <time>2026-08-25T15:00:08Z</time>
      </trkpt>
      <trkpt lat="47.51859" lon="-2.76114">
        <ele>7</ele>
        <time>2026-08-25T15:00:09Z</time>
      </trkpt>
      <trkpt lat="47.51861" lon="-2.76107">
        <ele>7</ele>
        <time>2026-08-25T15:00:10Z</time>
      </trkpt>
      <trkpt lat="47.51863" lon="-2.761">
        <ele>7.1</ele>
        <time>2026-08-25T15:00:11Z</time>
      </trkpt>
      <trkpt lat="47.51865" lon="-2.76093">
        <ele>7.2</ele>
        <time>2026-08-25T15:00:12Z</time>
      </trkpt>
      <trkpt lat="47.51867" lon="-2.76086">
        <ele>7.2</ele>
        <time>2026-08-25T15:00:13Z</time>
      </trkpt>
      <trkpt lat="47.51869" lon="-2.76079">
        <ele>7.3</ele>
        <time>2026-08-25T15:00:14Z</time>
      </trkpt>
      <trkpt lat="47.51872" lon="-2.76072">
        <ele>7.4</ele>
        <time>2026-08-25T15:00:15Z</time>
      </trkpt>
      <trkpt lat="47.51874" lon="-2.76065">
        <ele>7.5</ele>
        <time>2026-08-25T15:00:16Z</time>
      </trkpt>
      <trkpt lat="47.51877" lon="-2.76058">
        <ele>7.6</ele>
        <time>2026-08-25T15:00:17Z</time>
      </trkpt>
      <trkpt lat="47.51879" lon="-2.76051">
        <ele>7.5</ele>
        <time>2026-08-25T15:00:18Z</time>
      </trkpt>
      <trkpt lat="47.51882" lon="-2.76045">
        <ele>7.4</ele>
        <time>2026-08-25T15:00:19Z</time>
      </trkpt>
      <trkpt lat="47.51885" lon="-2.76038">
        <ele>7.2</ele>
        <time>2026-08-25T15:00:20Z</time>
      </trkpt>
      <trkpt lat="47.51887" lon="-2.76032">
        <ele>7.1</ele>
        <time>2026-08-25T15:00:21Z</time>
      </trkpt>
      <trkpt lat="47.5189" lon="-2.76025">
        <ele>7</ele>
        <time>2026-08-25T15:00:22Z</time>
      </trkpt>
      <trkpt lat="47.51893" lon="-2.76019">
        <ele>7.1</ele>
        <time>2026-08-25T15:00:23Z</time>
      </trkpt>
      <trkpt lat="47.51896" lon="-2.76013">
        <ele>7.3</ele>
        <time>2026-08-25T15:00:24Z</time>
      </trkpt>
      <trkpt lat="47.51899" lon="-2.76007">
        <ele>7.4</ele>
        <time>2026-08-25T15:00:25Z</time>
      </trkpt>
      <trkpt lat="47.51903" lon="-2.76001">
        <ele>7.5</ele>
        <time>2026-08-25T15:00:26Z</time>
      </trkpt>
      <trkpt lat="47.51906" lon="-2.75995">
        <ele>7.6</ele>
        <time>2026-08-25T15:00:27Z</time>
      </trkpt>
      <trkpt lat="47.51909" lon="-2.75989">
        <ele>7.7</ele>
        <time>2026-08-25T15:00:28Z</time>
      </trkpt>
      <trkpt lat="47.51912" lon="-2.75983">
        <ele>7.8</ele>
        <time>2026-08-25T15:00:29Z</time>
      </trkpt>
      <trkpt lat="47.51915" lon="-2.75978">
        <ele>7.9</ele>
        <time>2026-08-25T15:00:30Z</time>
      </trkpt>
      <trkpt lat="47.51918" lon="-2.75972">
        <ele>8</ele>
        <time>2026-08-25T15:00:31Z</time>
      </trkpt>
      <trkpt lat="47.51921" lon="-2.75966">
        <ele>7.9</ele>
        <time>2026-08-25T15:00:32Z</time>
      </trkpt>
      <trkpt lat="47.51925" lon="-2.7596">
        <ele>7.9</ele>
        <time>2026-08-25T15:00:33Z</time>
      </trkpt>
      <trkpt lat="47.51928" lon="-2.75953">
        <ele>7.7</ele>
        <time>2026-08-25T15:00:34Z</time>
      </trkpt>
      <trkpt lat="47.51932" lon="-2.75947">
        <ele>7.6</ele>
        <time>2026-08-25T15:00:35Z</time>
      </trkpt>
      <trkpt lat="47.51935" lon="-2.75941">
        <ele>7.7</ele>
        <time>2026-08-25T15:00:36Z</time>
      </trkpt>
      <trkpt lat="47.51939" lon="-2.75935">
        <ele>7.8</ele>
        <time>2026-08-25T15:00:37Z</time>
      </trkpt>
      <trkpt lat="47.51942" lon="-2.75929">
        <ele>7.9</ele>
        <time>2026-08-25T15:00:38Z</time>
      </trkpt>
      <trkpt lat="47.51945" lon="-2.75923">
        <ele>8</ele>
        <time>2026-08-25T15:00:39Z</time>
      </trkpt>
      <trkpt lat="47.51949" lon="-2.75917">
        <ele>8</ele>
        <time>2026-08-25T15:00:40Z</time>
      </trkpt>
      <trkpt lat="47.51952" lon="-2.75911">
        <ele>7.9</ele>
        <time>2026-08-25T15:00:41Z</time>
      </trkpt>
      <trkpt lat="47.51955" lon="-2.75904">
        <ele>7.7</ele>
        <time>2026-08-25T15:00:42Z</time>
      </trkpt>
      <trkpt lat="47.51958" lon="-2.75898">
        <ele>7.7</ele>
        <time>2026-08-25T15:00:43Z</time>
      </trkpt>
      <trkpt lat="47.51962" lon="-2.75891">
        <ele>7.7</ele>
        <time>2026-08-25T15:00:44Z</time>
      </trkpt>
      <trkpt lat="47.51965" lon="-2.75883">
        <ele>7.6</ele>
        <time>2026-08-25T15:00:45Z</time>
      </trkpt>
      <trkpt lat="47.51968" lon="-2.75876">
        <ele>7.5</ele>
        <time>2026-08-25T15:00:46Z</time>
      </trkpt>
      <trkpt lat="47.5197" lon="-2.75867">
        <ele>7.2</ele>
        <time>2026-08-25T15:00:47Z</time>
      </trkpt>
      <trkpt lat="47.51972" lon="-2.75859">
        <ele>7</ele>
        <time>2026-08-25T15:00:48Z</time>
      </trkpt>
      <trkpt lat="47.51974" lon="-2.7585">
        <ele>7</ele>
        <time>2026-08-25T15:00:49Z</time>
      </trkpt>
      <trkpt lat="47.51976" lon="-2.75842">
        <ele>7</ele>
        <time>2026-08-25T15:00:50Z</time>
      </trkpt>
      <trkpt lat="47.51977" lon="-2.75834">
        <ele>7</ele>
        <time>2026-08-25T15:00:51Z</time>
      </trkpt>
      <trkpt lat="47.51979" lon="-2.75826">
        <ele>7</ele>
        <time>2026-08-25T15:00:52Z</time>
      </trkpt>
      <trkpt lat="47.5198" lon="-2.75817">
        <ele>7</ele>
        <time>2026-08-25T15:00:53Z</time>
      </trkpt>
      <trkpt lat="47.51981" lon="-2.75809">
        <ele>7</ele>
        <time>2026-08-25T15:00:54Z</time>
      </trkpt>
      <trkpt lat="47.51982" lon="-2.75801">
        <ele>7</ele>
        <time>2026-08-25T15:00:55Z</time>
      </trkpt>
      <trkpt lat="47.51984" lon="-2.75793">
        <ele>7</ele>
        <time>2026-08-25T15:00:56Z</time>
      </trkpt>
      <trkpt lat="47.51985" lon="-2.75785">
        <ele>7</ele>
        <time>2026-08-25T15:00:57Z</time>
      </trkpt>
      <trkpt lat="47.51986" lon="-2.75777">
        <ele>7</ele>
        <time>2026-08-25T15:00:58Z</time>
      </trkpt>
      <trkpt lat="47.51988" lon="-2.75769">
        <ele>7.3</ele>
        <time>2026-08-25T15:00:59Z</time>
      </trkpt>
      <trkpt lat="47.51989" lon="-2.75761">
        <ele>7.6</ele>
        <time>2026-08-25T15:01:00Z</time>
      </trkpt>
      <trkpt lat="47.5199" lon="-2.75754">
        <ele>7.9</ele>
        <time>2026-08-25T15:01:01Z</time>
      </trkpt>
      <trkpt lat="47.51991" lon="-2.75746">
        <ele>8</ele>
        <time>2026-08-25T15:01:02Z</time>
      </trkpt>
      <trkpt lat="47.51992" lon="-2.75739">
        <ele>8</ele>
        <time>2026-08-25T15:01:03Z</time>
      </trkpt>
      <trkpt lat="47.51993" lon="-2.75732">
        <ele>8</ele>
        <time>2026-08-25T15:01:04Z</time>
      </trkpt>
      <trkpt lat="47.51994" lon="-2.75724">
        <ele>8</ele>
        <time>2026-08-25T15:01:05Z</time>
      </trkpt>
      <trkpt lat="47.51995" lon="-2.75717">
        <ele>8</ele>
        <time>2026-08-25T15:01:06Z</time>
      </trkpt>
      <trkpt lat="47.51996" lon="-2.7571">
        <ele>8</ele>
        <time>2026-08-25T15:01:07Z</time>
      </trkpt>
      <trkpt lat="47.51996" lon="-2.75703">
        <ele>8</ele>
        <time>2026-08-25T15:01:08Z</time>
      </trkpt>
      <trkpt lat="47.51997" lon="-2.75696">
        <ele>8</ele>
        <time>2026-08-25T15:01:09Z</time>
      </trkpt>
      <trkpt lat="47.51998" lon="-2.75688">
        <ele>8.2</ele>
        <time>2026-08-25T15:01:10Z</time>
      </trkpt>
      <trkpt lat="47.51999" lon="-2.75681">
        <ele>8.5</ele>
        <time>2026-08-25T15:01:11Z</time>
      </trkpt>
      <trkpt lat="47.52" lon="-2.75675">
        <ele>8.7</ele>
        <time>2026-08-25T15:01:12Z</time>
      </trkpt>
      <trkpt lat="47.52002" lon="-2.75668">
        <ele>9</ele>
        <time>2026-08-25T15:01:13Z</time>
      </trkpt>
      <trkpt lat="47.52004" lon="-2.75661">
        <ele>9</ele>
        <time>2026-08-25T15:01:14Z</time>
      </trkpt>
      <trkpt lat="47.52006" lon="-2.75656">
        <ele>9</ele>
        <time>2026-08-25T15:01:15Z</time>
      </trkpt>
      <trkpt lat="47.52008" lon="-2.7565">
        <ele>9</ele>
        <time>2026-08-25T15:01:16Z</time>
      </trkpt>
      <trkpt lat="47.5201" lon="-2.75645">
        <ele>9</ele>
        <time>2026-08-25T15:01:17Z</time>
      </trkpt>
      <trkpt lat="47.52012" lon="-2.7564">
        <ele>9</ele>
        <time>2026-08-25T15:01:18Z</time>
      </trkpt>
      <trkpt lat="47.52013" lon="-2.75635">
        <ele>9.1</ele>
        <time>2026-08-25T15:01:19Z</time>
      </trkpt>
      <trkpt lat="47.52014" lon="-2.7563">
        <ele>9.2</ele>
        <time>2026-08-25T15:01:20Z</time>
      </trkpt>
      <trkpt lat="47.52016" lon="-2.75626">
        <ele>9.3</ele>
        <time>2026-08-25T15:01:21Z</time>
      </trkpt>
      <trkpt lat="47.52017" lon="-2.7562">
        <ele>9.4</ele>
        <time>2026-08-25T15:01:22Z</time>
      </trkpt>
      <trkpt lat="47.52018" lon="-2.75615">
        <ele>9.6</ele>
        <time>2026-08-25T15:01:23Z</time>
      </trkpt>
      <trkpt lat="47.52019" lon="-2.7561">
        <ele>9.7</ele>
        <time>2026-08-25T15:01:24Z</time>
      </trkpt>
      <trkpt lat="47.5202" lon="-2.75604">
        <ele>9.7</ele>
        <time>2026-08-25T15:01:25Z</time>
      </trkpt>
      <trkpt lat="47.5202" lon="-2.75599">
        <ele>9.7</ele>
        <time>2026-08-25T15:01:26Z</time>
      </trkpt>
      <trkpt lat="47.5202" lon="-2.75593">
        <ele>9.7</ele>
        <time>2026-08-25T15:01:27Z</time>
      </trkpt>
      <trkpt lat="47.52019" lon="-2.75588">
        <ele>9.7</ele>
        <time>2026-08-25T15:01:28Z</time>
      </trkpt>
      <trkpt lat="47.52017" lon="-2.75583">
        <ele>9.6</ele>
        <time>2026-08-25T15:01:29Z</time>
      </trkpt>
      <trkpt lat="47.52015" lon="-2.75579">
        <ele>9.8</ele>
        <time>2026-08-25T15:01:30Z</time>
      </trkpt>
      <trkpt lat="47.52012" lon="-2.75574">
        <ele>10</ele>
        <time>2026-08-25T15:01:31Z</time>
      </trkpt>
      <trkpt lat="47.5201" lon="-2.7557">
        <ele>10.1</ele>
        <time>2026-08-25T15:01:32Z</time>
      </trkpt>
      <trkpt lat="47.52008" lon="-2.75565">
        <ele>10.4</ele>
        <time>2026-08-25T15:01:33Z</time>
      </trkpt>
      <trkpt lat="47.52006" lon="-2.7556">
        <ele>10.7</ele>
        <time>2026-08-25T15:01:34Z</time>
      </trkpt>
      <trkpt lat="47.52004" lon="-2.75556">
        <ele>11</ele>
        <time>2026-08-25T15:01:35Z</time>
      </trkpt>
      <trkpt lat="47.52002" lon="-2.75552">
        <ele>11</ele>
        <time>2026-08-25T15:01:36Z</time>
      </trkpt>
      <trkpt lat="47.51999" lon="-2.75548">
        <ele>11</ele>
        <time>2026-08-25T15:01:37Z</time>
      </trkpt>
      <trkpt lat="47.51996" lon="-2.75544">
        <ele>10.9</ele>
        <time>2026-08-25T15:01:38Z</time>
      </trkpt>
      <trkpt lat="47.51993" lon="-2.75541">
        <ele>10.9</ele>
        <time>2026-08-25T15:01:39Z</time>
      </trkpt>
      <trkpt lat="47.5199" lon="-2.75537">
        <ele>10.9</ele>
        <time>2026-08-25T15:01:40Z</time>
      </trkpt>
      <trkpt lat="47.51989" lon="-2.75533">
        <ele>10.9</ele>
        <time>2026-08-25T15:01:41Z</time>
      </trkpt>
      <trkpt lat="47.51989" lon="-2.75527">
        <ele>11</ele>
        <time>2026-08-25T15:01:42Z</time>
      </trkpt>
      <trkpt lat="47.51989" lon="-2.75522">
        <ele>11.1</ele>
        <time>2026-08-25T15:01:43Z</time>
      </trkpt>
      <trkpt lat="47.51989" lon="-2.75516">
        <ele>11.3</ele>
        <time>2026-08-25T15:01:44Z</time>
      </trkpt>
      <trkpt lat="47.5199" lon="-2.7551">
        <ele>11.4</ele>
        <time>2026-08-25T15:01:45Z</time>
      </trkpt>
      <trkpt lat="47.5199" lon="-2.75504">
        <ele>11.5</ele>
        <time>2026-08-25T15:01:46Z</time>
      </trkpt>
      <trkpt lat="47.51991" lon="-2.75498">
        <ele>11.7</ele>
        <time>2026-08-25T15:01:47Z</time>
      </trkpt>
      <trkpt lat="47.51991" lon="-2.75491">
        <ele>11.8</ele>
        <time>2026-08-25T15:01:48Z</time>
      </trkpt>
      <trkpt lat="47.51992" lon="-2.75486">
        <ele>11.9</ele>
        <time>2026-08-25T15:01:49Z</time>
      </trkpt>
      <trkpt lat="47.51993" lon="-2.7548">
        <ele>11.9</ele>
        <time>2026-08-25T15:01:50Z</time>
      </trkpt>
      <trkpt lat="47.51993" lon="-2.75474">
        <ele>12</ele>
        <time>2026-08-25T15:01:51Z</time>
      </trkpt>
      <trkpt lat="47.51995" lon="-2.75468">
        <ele>12</ele>
        <time>2026-08-25T15:01:52Z</time>
      </trkpt>
      <trkpt lat="47.51996" lon="-2.75463">
        <ele>12</ele>
        <time>2026-08-25T15:01:53Z</time>
      </trkpt>
      <trkpt lat="47.51999" lon="-2.75457">
        <ele>12</ele>
        <time>2026-08-25T15:01:54Z</time>
      </trkpt>
      <trkpt lat="47.52001" lon="-2.75452">
        <ele>12</ele>
        <time>2026-08-25T15:01:55Z</time>
      </trkpt>
      <trkpt lat="47.52004" lon="-2.75447">
        <ele>12.1</ele>
        <time>2026-08-25T15:01:56Z</time>
      </trkpt>
      <trkpt lat="47.52007" lon="-2.75442">
        <ele>12.3</ele>
        <time>2026-08-25T15:01:57Z</time>
      </trkpt>
      <trkpt lat="47.52011" lon="-2.75437">
        <ele>12.6</ele>
        <time>2026-08-25T15:01:58Z</time>
      </trkpt>
      <trkpt lat="47.52014" lon="-2.75433">
        <ele>12.7</ele>
        <time>2026-08-25T15:01:59Z</time>
      </trkpt>
      <trkpt lat="47.52017" lon="-2.75429">
        <ele>12.8</ele>
        <time>2026-08-25T15:02:00Z</time>
      </trkpt>
      <trkpt lat="47.5202" lon="-2.75425">
        <ele>12.9</ele>
        <time>2026-08-25T15:02:01Z</time>
      </trkpt>
      <trkpt lat="47.52023" lon="-2.75421">
        <ele>13</ele>
        <time>2026-08-25T15:02:02Z</time>
      </trkpt>
      <trkpt lat="47.52026" lon="-2.75417">
        <ele>13</ele>
        <time>2026-08-25T15:02:03Z</time>
      </trkpt>
      <trkpt lat="47.5203" lon="-2.75413">
        <ele>13.2</ele>
        <time>2026-08-25T15:02:04Z</time>
      </trkpt>
      <trkpt lat="47.52033" lon="-2.75409">
        <ele>13.4</ele>
        <time>2026-08-25T15:02:05Z</time>
      </trkpt>
      <trkpt lat="47.52036" lon="-2.75405">
        <ele>13.5</ele>
        <time>2026-08-25T15:02:06Z</time>
      </trkpt>
      <trkpt lat="47.52039" lon="-2.75401">
        <ele>13.5</ele>
        <time>2026-08-25T15:02:07Z</time>
      </trkpt>
      <trkpt lat="47.52042" lon="-2.75397">
        <ele>13.5</ele>
        <time>2026-08-25T15:02:08Z</time>
      </trkpt>
      <trkpt lat="47.52045" lon="-2.75392">
        <ele>13.4</ele>
        <time>2026-08-25T15:02:09Z</time>
      </trkpt>
      <trkpt lat="47.52048" lon="-2.75388">
        <ele>13.3</ele>
        <time>2026-08-25T15:02:10Z</time>
      </trkpt>
      <trkpt lat="47.5205" lon="-2.75383">
        <ele>13.4</ele>
        <time>2026-08-25T15:02:11Z</time>
      </trkpt>
      <trkpt lat="47.52052" lon="-2.75377">
        <ele>13.5</ele>
        <time>2026-08-25T15:02:12Z</time>
      </trkpt>
      <trkpt lat="47.52054" lon="-2.75372">
        <ele>13.6</ele>
        <time>2026-08-25T15:02:13Z</time>
      </trkpt>
      <trkpt lat="47.52056" lon="-2.75367">
        <ele>13.8</ele>
        <time>2026-08-25T15:02:14Z</time>
      </trkpt>
      <trkpt lat="47.52057" lon="-2.75362">
        <ele>14</ele>
        <time>2026-08-25T15:02:15Z</time>
      </trkpt>
      <trkpt lat="47.52059" lon="-2.75356">
        <ele>14.3</ele>
        <time>2026-08-25T15:02:16Z</time>
      </trkpt>
      <trkpt lat="47.5206" lon="-2.75351">
        <ele>14.5</ele>
        <time>2026-08-25T15:02:17Z</time>
      </trkpt>
      <trkpt lat="47.52061" lon="-2.75345">
        <ele>14.7</ele>
        <time>2026-08-25T15:02:18Z</time>
      </trkpt>
      <trkpt lat="47.52062" lon="-2.75339">
        <ele>14.8</ele>
        <time>2026-08-25T15:02:19Z</time>
      </trkpt>
      <trkpt lat="47.52063" lon="-2.75333">
        <ele>15</ele>
        <time>2026-08-25T15:02:20Z</time>
      </trkpt>
      <trkpt lat="47.52064" lon="-2.75326">
        <ele>15</ele>
        <time>2026-08-25T15:02:21Z</time>
      </trkpt>
      <trkpt lat="47.52065" lon="-2.7532">
        <ele>15</ele>
        <time>2026-08-25T15:02:22Z</time>
      </trkpt>
      <trkpt lat="47.52067" lon="-2.75314">
        <ele>15</ele>
        <time>2026-08-25T15:02:23Z</time>
      </trkpt>
      <trkpt lat="47.52068" lon="-2.75308">
        <ele>15</ele>
        <time>2026-08-25T15:02:24Z</time>
      </trkpt>
      <trkpt lat="47.52069" lon="-2.75302">
        <ele>14.9</ele>
        <time>2026-08-25T15:02:25Z</time>
      </trkpt>
      <trkpt lat="47.52071" lon="-2.75296">
        <ele>14.8</ele>
        <time>2026-08-25T15:02:26Z</time>
      </trkpt>
      <trkpt lat="47.52072" lon="-2.7529">
        <ele>14.8</ele>
        <time>2026-08-25T15:02:27Z</time>
      </trkpt>
      <trkpt lat="47.52074" lon="-2.75284">
        <ele>14.7</ele>
        <time>2026-08-25T15:02:28Z</time>
      </trkpt>
      <trkpt lat="47.52075" lon="-2.75278">
        <ele>14.7</ele>
        <time>2026-08-25T15:02:29Z</time>
      </trkpt>
      <trkpt lat="47.52076" lon="-2.75271">
        <ele>14.7</ele>
        <time>2026-08-25T15:02:30Z</time>
      </trkpt>
      <trkpt lat="47.52078" lon="-2.75265">
        <ele>14.8</ele>
        <time>2026-08-25T15:02:31Z</time>
      </trkpt>
      <trkpt lat="47.52079" lon="-2.75259">
        <ele>14.8</ele>
        <time>2026-08-25T15:02:32Z</time>
      </trkpt>
      <trkpt lat="47.5208" lon="-2.75253">
        <ele>14.9</ele>
        <time>2026-08-25T15:02:33Z</time>
      </trkpt>
      <trkpt lat="47.52081" lon="-2.75246">
        <ele>14.8</ele>
        <time>2026-08-25T15:02:34Z</time>
      </trkpt>
      <trkpt lat="47.52082" lon="-2.75239">
        <ele>14.6</ele>
        <time>2026-08-25T15:02:35Z</time>
      </trkpt>
      <trkpt lat="47.52082" lon="-2.75232">
        <ele>14.3</ele>
        <time>2026-08-25T15:02:36Z</time>
      </trkpt>
      <trkpt lat="47.52082" lon="-2.75226">
        <ele>14.1</ele>
        <time>2026-08-25T15:02:37Z</time>
      </trkpt>
      <trkpt lat="47.52082" lon="-2.75219">
        <ele>14</ele>
        <time>2026-08-25T15:02:38Z</time>
      </trkpt>
      <trkpt lat="47.52082" lon="-2.75212">
        <ele>14</ele>
        <time>2026-08-25T15:02:39Z</time>
      </trkpt>
      <trkpt lat="47.52081" lon="-2.75205">
        <ele>14</ele>
        <time>2026-08-25T15:02:40Z</time>
      </trkpt>
      <trkpt lat="47.52081" lon="-2.75198">
        <ele>14</ele>
        <time>2026-08-25T15:02:41Z</time>
      </trkpt>
      <trkpt lat="47.52081" lon="-2.75191">
        <ele>14</ele>
        <time>2026-08-25T15:02:42Z</time>
      </trkpt>
      <trkpt lat="47.52081" lon="-2.75184">
        <ele>14</ele>
        <time>2026-08-25T15:02:43Z</time>
      </trkpt>
      <trkpt lat="47.52081" lon="-2.75177">
        <ele>13.9</ele>
        <time>2026-08-25T15:02:44Z</time>
      </trkpt>
      <trkpt lat="47.52081" lon="-2.7517">
        <ele>13.9</ele>
        <time>2026-08-25T15:02:45Z</time>
      </trkpt>
      <trkpt lat="47.52082" lon="-2.75163">
        <ele>13.8</ele>
        <time>2026-08-25T15:02:46Z</time>
      </trkpt>
      <trkpt lat="47.52082" lon="-2.75155">
        <ele>13.6</ele>
        <time>2026-08-25T15:02:47Z</time>
      </trkpt>
      <trkpt lat="47.52083" lon="-2.75148">
        <ele>13.3</ele>
        <time>2026-08-25T15:02:48Z</time>
      </trkpt>
      <trkpt lat="47.52083" lon="-2.7514">
        <ele>13</ele>
        <time>2026-08-25T15:02:49Z</time>
      </trkpt>
      <trkpt lat="47.52084" lon="-2.75132">
        <ele>13</ele>
        <time>2026-08-25T15:02:50Z</time>
      </trkpt>
      <trkpt lat="47.52085" lon="-2.75125">
        <ele>13.1</ele>
        <time>2026-08-25T15:02:51Z</time>
      </trkpt>
      <trkpt lat="47.52085" lon="-2.75118">
        <ele>13.1</ele>
        <time>2026-08-25T15:02:52Z</time>
      </trkpt>
      <trkpt lat="47.52087" lon="-2.75111">
        <ele>13.1</ele>
        <time>2026-08-25T15:02:53Z</time>
      </trkpt>
      <trkpt lat="47.52089" lon="-2.75105">
        <ele>13.2</ele>
        <time>2026-08-25T15:02:54Z</time>
      </trkpt>
      <trkpt lat="47.52091" lon="-2.751">
        <ele>13.2</ele>
        <time>2026-08-25T15:02:55Z</time>
      </trkpt>
      <trkpt lat="47.52095" lon="-2.75097">
        <ele>13.2</ele>
        <time>2026-08-25T15:02:56Z</time>
      </trkpt>
      <trkpt lat="47.52099" lon="-2.75094">
        <ele>13.2</ele>
        <time>2026-08-25T15:02:57Z</time>
      </trkpt>
      <trkpt lat="47.52103" lon="-2.75092">
        <ele>13.2</ele>
        <time>2026-08-25T15:02:58Z</time>
      </trkpt>
      <trkpt lat="47.52108" lon="-2.75091">
        <ele>13.2</ele>
        <time>2026-08-25T15:02:59Z</time>
      </trkpt>
      <trkpt lat="47.52112" lon="-2.7509">
        <ele>13.3</ele>
        <time>2026-08-25T15:03:00Z</time>
      </trkpt>
      <trkpt lat="47.52117" lon="-2.75088">
        <ele>13.3</ele>
        <time>2026-08-25T15:03:01Z</time>
      </trkpt>
      <trkpt lat="47.52122" lon="-2.75086">
        <ele>13.5</ele>
        <time>2026-08-25T15:03:02Z</time>
      </trkpt>
      <trkpt lat="47.52127" lon="-2.75084">
        <ele>13.6</ele>
        <time>2026-08-25T15:03:03Z</time>
      </trkpt>
      <trkpt lat="47.52131" lon="-2.75081">
        <ele>13.7</ele>
        <time>2026-08-25T15:03:04Z</time>
      </trkpt>
      <trkpt lat="47.52136" lon="-2.75078">
        <ele>13.7</ele>
        <time>2026-08-25T15:03:05Z</time>
      </trkpt>
      <trkpt lat="47.52141" lon="-2.75075">
        <ele>13.8</ele>
        <time>2026-08-25T15:03:06Z</time>
      </trkpt>
      <trkpt lat="47.52145" lon="-2.75072">
        <ele>13.8</ele>
        <time>2026-08-25T15:03:07Z</time>
      </trkpt>
      <trkpt lat="47.5215" lon="-2.75069">
        <ele>13.9</ele>
        <time>2026-08-25T15:03:08Z</time>
      </trkpt>
      <trkpt lat="47.52154" lon="-2.75066">
        <ele>13.9</ele>
        <time>2026-08-25T15:03:09Z</time>
      </trkpt>
      <trkpt lat="47.52158" lon="-2.75062">
        <ele>13.9</ele>
        <time>2026-08-25T15:03:10Z</time>
      </trkpt>
      <trkpt lat="47.52162" lon="-2.75059">
        <ele>14</ele>
        <time>2026-08-25T15:03:11Z</time>
      </trkpt>
      <trkpt lat="47.52166" lon="-2.75056">
        <ele>14</ele>
        <time>2026-08-25T15:03:12Z</time>
      </trkpt>
      <trkpt lat="47.5217" lon="-2.75053">
        <ele>14.1</ele>
        <time>2026-08-25T15:03:13Z</time>
      </trkpt>
      <trkpt lat="47.52175" lon="-2.75049">
        <ele>14.2</ele>
        <time>2026-08-25T15:03:14Z</time>
      </trkpt>
      <trkpt lat="47.52179" lon="-2.75046">
        <ele>14.3</ele>
        <time>2026-08-25T15:03:15Z</time>
      </trkpt>
      <trkpt lat="47.52183" lon="-2.75043">
        <ele>14.3</ele>
        <time>2026-08-25T15:03:16Z</time>
      </trkpt>
      <trkpt lat="47.52188" lon="-2.7504">
        <ele>14.3</ele>
        <time>2026-08-25T15:03:17Z</time>
      </trkpt>
      <trkpt lat="47.52192" lon="-2.75037">
        <ele>14.3</ele>
        <time>2026-08-25T15:03:18Z</time>
      </trkpt>
      <trkpt lat="47.52196" lon="-2.75034">
        <ele>14.3</ele>
        <time>2026-08-25T15:03:19Z</time>
      </trkpt>
      <trkpt lat="47.522" lon="-2.75031">
        <ele>14.3</ele>
        <time>2026-08-25T15:03:20Z</time>
      </trkpt>
      <trkpt lat="47.52204" lon="-2.75029">
        <ele>14.4</ele>
        <time>2026-08-25T15:03:21Z</time>
      </trkpt>
      <trkpt lat="47.52208" lon="-2.75026">
        <ele>14.5</ele>
        <time>2026-08-25T15:03:22Z</time>
      </trkpt>
      <trkpt lat="47.52213" lon="-2.75023">
        <ele>14.7</ele>
        <time>2026-08-25T15:03:23Z</time>
      </trkpt>
      <trkpt lat="47.52217" lon="-2.75021">
        <ele>14.8</ele>
        <time>2026-08-25T15:03:24Z</time>
      </trkpt>
      <trkpt lat="47.52221" lon="-2.75018">
        <ele>15</ele>
        <time>2026-08-25T15:03:25Z</time>
      </trkpt>
      <trkpt lat="47.52226" lon="-2.75016">
        <ele>15.2</ele>
        <time>2026-08-25T15:03:26Z</time>
      </trkpt>
      <trkpt lat="47.5223" lon="-2.75014">
        <ele>15.4</ele>
        <time>2026-08-25T15:03:27Z</time>
      </trkpt>
      <trkpt lat="47.52234" lon="-2.75012">
        <ele>15.6</ele>
        <time>2026-08-25T15:03:28Z</time>
      </trkpt>
      <trkpt lat="47.52239" lon="-2.7501">
        <ele>15.8</ele>
        <time>2026-08-25T15:03:29Z</time>
      </trkpt>
      <trkpt lat="47.52243" lon="-2.75007">
        <ele>15.9</ele>
        <time>2026-08-25T15:03:30Z</time>
      </trkpt>
      <trkpt lat="47.52247" lon="-2.75005">
        <ele>16.1</ele>
        <time>2026-08-25T15:03:31Z</time>
      </trkpt>
      <trkpt lat="47.52251" lon="-2.75003">
        <ele>16.1</ele>
        <time>2026-08-25T15:03:32Z</time>
      </trkpt>
      <trkpt lat="47.52255" lon="-2.75">
        <ele>16.2</ele>
        <time>2026-08-25T15:03:33Z</time>
      </trkpt>
      <trkpt lat="47.5226" lon="-2.74999">
        <ele>16.3</ele>
        <time>2026-08-25T15:03:34Z</time>
      </trkpt>
      <trkpt lat="47.52264" lon="-2.74997">
        <ele>16.4</ele>
        <time>2026-08-25T15:03:35Z</time>
      </trkpt>
      <trkpt lat="47.52268" lon="-2.74995">
        <ele>16.5</ele>
        <time>2026-08-25T15:03:36Z</time>
      </trkpt>
      <trkpt lat="47.52272" lon="-2.74993">
        <ele>16.6</ele>
        <time>2026-08-25T15:03:37Z</time>
      </trkpt>
      <trkpt lat="47.52277" lon="-2.74991">
        <ele>16.7</ele>
        <time>2026-08-25T15:03:38Z</time>
      </trkpt>
      <trkpt lat="47.5228" lon="-2.74989">
        <ele>16.7</ele>
        <time>2026-08-25T15:03:39Z</time>
      </trkpt>
      <trkpt lat="47.52284" lon="-2.74988">
        <ele>16.8</ele>
        <time>2026-08-25T15:03:40Z</time>
      </trkpt>
      <trkpt lat="47.52288" lon="-2.74986">
        <ele>16.9</ele>
        <time>2026-08-25T15:03:41Z</time>
      </trkpt>
      <trkpt lat="47.52292" lon="-2.74984">
        <ele>16.9</ele>
        <time>2026-08-25T15:03:42Z</time>
      </trkpt>
      <trkpt lat="47.52296" lon="-2.74982">
        <ele>17</ele>
        <time>2026-08-25T15:03:43Z</time>
      </trkpt>
      <trkpt lat="47.523" lon="-2.7498">
        <ele>17.1</ele>
        <time>2026-08-25T15:03:44Z</time>
      </trkpt>
      <trkpt lat="47.52304" lon="-2.74977">
        <ele>17.1</ele>
        <time>2026-08-25T15:03:45Z</time>
      </trkpt>
      <trkpt lat="47.52309" lon="-2.74975">
        <ele>17.2</ele>
        <time>2026-08-25T15:03:46Z</time>
      </trkpt>
      <trkpt lat="47.52313" lon="-2.74973">
        <ele>17.3</ele>
        <time>2026-08-25T15:03:47Z</time>
      </trkpt>
      <trkpt lat="47.52316" lon="-2.74971">
        <ele>17.4</ele>
        <time>2026-08-25T15:03:48Z</time>
      </trkpt>
      <trkpt lat="47.5232" lon="-2.74969">
        <ele>17.5</ele>
        <time>2026-08-25T15:03:49Z</time>
      </trkpt>
      <trkpt lat="47.52324" lon="-2.74966">
        <ele>17.7</ele>
        <time>2026-08-25T15:03:50Z</time>
      </trkpt>
      <trkpt lat="47.52327" lon="-2.74964">
        <ele>17.8</ele>
        <time>2026-08-25T15:03:51Z</time>
      </trkpt>
      <trkpt lat="47.52331" lon="-2.74961">
        <ele>17.9</ele>
        <time>2026-08-25T15:03:52Z</time>
      </trkpt>
      <trkpt lat="47.52334" lon="-2.74957">
        <ele>18</ele>
        <time>2026-08-25T15:03:53Z</time>
      </trkpt>
      <trkpt lat="47.52336" lon="-2.74952">
        <ele>18.1</ele>
        <time>2026-08-25T15:03:54Z</time>
      </trkpt>
      <trkpt lat="47.52338" lon="-2.74948">
        <ele>18.2</ele>
        <time>2026-08-25T15:03:55Z</time>
      </trkpt>
      <trkpt lat="47.52341" lon="-2.74943">
        <ele>18.3</ele>
        <time>2026-08-25T15:03:56Z</time>
      </trkpt>
      <trkpt lat="47.52343" lon="-2.74938">
        <ele>18.3</ele>
        <time>2026-08-25T15:03:57Z</time>
      </trkpt>
      <trkpt lat="47.52346" lon="-2.74933">
        <ele>18.3</ele>
        <time>2026-08-25T15:03:58Z</time>
      </trkpt>
      <trkpt lat="47.52348" lon="-2.74928">
        <ele>18.2</ele>
        <time>2026-08-25T15:03:59Z</time>
      </trkpt>
      <trkpt lat="47.5235" lon="-2.74923">
        <ele>18.1</ele>
        <time>2026-08-25T15:04:00Z</time>
      </trkpt>
      <trkpt lat="47.52352" lon="-2.74918">
        <ele>18</ele>
        <time>2026-08-25T15:04:01Z</time>
      </trkpt>
      <trkpt lat="47.52355" lon="-2.74913">
        <ele>18</ele>
        <time>2026-08-25T15:04:02Z</time>
      </trkpt>
      <trkpt lat="47.52357" lon="-2.74908">
        <ele>18</ele>
        <time>2026-08-25T15:04:03Z</time>
      </trkpt>
      <trkpt lat="47.52359" lon="-2.74903">
        <ele>18</ele>
        <time>2026-08-25T15:04:04Z</time>
      </trkpt>
      <trkpt lat="47.52361" lon="-2.74898">
        <ele>18</ele>
        <time>2026-08-25T15:04:05Z</time>
      </trkpt>
      <trkpt lat="47.52364" lon="-2.74892">
        <ele>18</ele>
        <time>2026-08-25T15:04:06Z</time>
      </trkpt>
      <trkpt lat="47.52366" lon="-2.74886">
        <ele>18</ele>
        <time>2026-08-25T15:04:07Z</time>
      </trkpt>
      <trkpt lat="47.52368" lon="-2.74881">
        <ele>18</ele>
        <time>2026-08-25T15:04:08Z</time>
      </trkpt>
      <trkpt lat="47.52371" lon="-2.74876">
        <ele>18</ele>
        <time>2026-08-25T15:04:09Z</time>
      </trkpt>
      <trkpt lat="47.52373" lon="-2.7487">
        <ele>18</ele>
        <time>2026-08-25T15:04:10Z</time>
      </trkpt>
      <trkpt lat="47.52376" lon="-2.74864">
        <ele>18</ele>
        <time>2026-08-25T15:04:11Z</time>
      </trkpt>
      <trkpt lat="47.52378" lon="-2.74859">
        <ele>18</ele>
        <time>2026-08-25T15:04:12Z</time>
      </trkpt>
      <trkpt lat="47.5238" lon="-2.74853">
        <ele>17.9</ele>
        <time>2026-08-25T15:04:13Z</time>
      </trkpt>
      <trkpt lat="47.52382" lon="-2.74847">
        <ele>17.9</ele>
        <time>2026-08-25T15:04:14Z</time>
      </trkpt>
      <trkpt lat="47.52385" lon="-2.74842">
        <ele>17.9</ele>
        <time>2026-08-25T15:04:15Z</time>
      </trkpt>
      <trkpt lat="47.52387" lon="-2.74836">
        <ele>17.9</ele>
        <time>2026-08-25T15:04:16Z</time>
      </trkpt>
      <trkpt lat="47.5239" lon="-2.7483">
        <ele>18</ele>
        <time>2026-08-25T15:04:17Z</time>
      </trkpt>
      <trkpt lat="47.52392" lon="-2.74824">
        <ele>18</ele>
        <time>2026-08-25T15:04:18Z</time>
      </trkpt>
      <trkpt lat="47.52395" lon="-2.74819">
        <ele>18</ele>
        <time>2026-08-25T15:04:19Z</time>
      </trkpt>
      <trkpt lat="47.52397" lon="-2.74813">
        <ele>18</ele>
        <time>2026-08-25T15:04:20Z</time>
      </trkpt>
      <trkpt lat="47.524" lon="-2.74808">
        <ele>18</ele>
        <time>2026-08-25T15:04:21Z</time>
      </trkpt>
      <trkpt lat="47.52403" lon="-2.74803">
        <ele>18</ele>
        <time>2026-08-25T15:04:22Z</time>
      </trkpt>
      <trkpt lat="47.52405" lon="-2.74798">
        <ele>17.9</ele>
        <time>2026-08-25T15:04:23Z</time>
      </trkpt>
      <trkpt lat="47.52408" lon="-2.74792">
        <ele>17.8</ele>
        <time>2026-08-25T15:04:24Z</time>
      </trkpt>
      <trkpt lat="47.5241" lon="-2.74787">
        <ele>17.8</ele>
        <time>2026-08-25T15:04:25Z</time>
      </trkpt>
      <trkpt lat="47.52413" lon="-2.74782">
        <ele>17.9</ele>
        <time>2026-08-25T15:04:26Z</time>
      </trkpt>
      <trkpt lat="47.52415" lon="-2.74777">
        <ele>17.9</ele>
        <time>2026-08-25T15:04:27Z</time>
      </trkpt>
      <trkpt lat="47.52416" lon="-2.74774">
        <ele>18</ele>
        <time>2026-08-25T15:04:28Z</time>
      </trkpt>
      <trkpt lat="47.52419" lon="-2.74768">
        <ele>18.1</ele>
        <time>2026-08-25T15:04:29Z</time>
      </trkpt>
      <trkpt lat="47.52422" lon="-2.74763">
        <ele>18.1</ele>
        <time>2026-08-25T15:04:30Z</time>
      </trkpt>
      <trkpt lat="47.52424" lon="-2.74757">
        <ele>18.1</ele>
        <time>2026-08-25T15:04:31Z</time>
      </trkpt>
      <trkpt lat="47.52427" lon="-2.74751">
        <ele>18</ele>
        <time>2026-08-25T15:04:32Z</time>
      </trkpt>
      <trkpt lat="47.5243" lon="-2.74746">
        <ele>17.9</ele>
        <time>2026-08-25T15:04:33Z</time>
      </trkpt>
      <trkpt lat="47.52433" lon="-2.7474">
        <ele>17.9</ele>
        <time>2026-08-25T15:04:34Z</time>
      </trkpt>
      <trkpt lat="47.52435" lon="-2.74735">
        <ele>17.8</ele>
        <time>2026-08-25T15:04:35Z</time>
      </trkpt>
      <trkpt lat="47.52438" lon="-2.74729">
        <ele>17.8</ele>
        <time>2026-08-25T15:04:36Z</time>
      </trkpt>
      <trkpt lat="47.5244" lon="-2.74723">
        <ele>17.8</ele>
        <time>2026-08-25T15:04:37Z</time>
      </trkpt>
      <trkpt lat="47.52442" lon="-2.74718">
        <ele>17.9</ele>
        <time>2026-08-25T15:04:38Z</time>
      </trkpt>
      <trkpt lat="47.52444" lon="-2.74712">
        <ele>18</ele>
        <time>2026-08-25T15:04:39Z</time>
      </trkpt>
      <trkpt lat="47.52447" lon="-2.74707">
        <ele>18.1</ele>
        <time>2026-08-25T15:04:40Z</time>
      </trkpt>
      <trkpt lat="47.5245" lon="-2.747">
        <ele>18.2</ele>
        <time>2026-08-25T15:04:41Z</time>
      </trkpt>
      <trkpt lat="47.52453" lon="-2.74694">
        <ele>18.3</ele>
        <time>2026-08-25T15:04:42Z</time>
      </trkpt>
      <trkpt lat="47.52456" lon="-2.74688">
        <ele>18.2</ele>
        <time>2026-08-25T15:04:43Z</time>
      </trkpt>
      <trkpt lat="47.52459" lon="-2.74683">
        <ele>18.1</ele>
        <time>2026-08-25T15:04:44Z</time>
      </trkpt>
      <trkpt lat="47.52462" lon="-2.74678">
        <ele>18</ele>
        <time>2026-08-25T15:04:45Z</time>
      </trkpt>
      <trkpt lat="47.52464" lon="-2.74673">
        <ele>17.9</ele>
        <time>2026-08-25T15:04:46Z</time>
      </trkpt>
      <trkpt lat="47.52467" lon="-2.74668">
        <ele>17.9</ele>
        <time>2026-08-25T15:04:47Z</time>
      </trkpt>
      <trkpt lat="47.52469" lon="-2.74663">
        <ele>17.9</ele>
        <time>2026-08-25T15:04:48Z</time>
      </trkpt>
      <trkpt lat="47.52473" lon="-2.74658">
        <ele>18</ele>
        <time>2026-08-25T15:04:49Z</time>
      </trkpt>
      <trkpt lat="47.52475" lon="-2.74653">
        <ele>18.1</ele>
        <time>2026-08-25T15:04:50Z</time>
      </trkpt>
      <trkpt lat="47.52478" lon="-2.74648">
        <ele>18.2</ele>
        <time>2026-08-25T15:04:51Z</time>
      </trkpt>
      <trkpt lat="47.52481" lon="-2.74643">
        <ele>18.3</ele>
        <time>2026-08-25T15:04:52Z</time>
      </trkpt>
      <trkpt lat="47.52483" lon="-2.74639">
        <ele>18.4</ele>
        <time>2026-08-25T15:04:53Z</time>
      </trkpt>
      <trkpt lat="47.52486" lon="-2.74633">
        <ele>18.4</ele>
        <time>2026-08-25T15:04:54Z</time>
      </trkpt>
      <trkpt lat="47.52488" lon="-2.74628">
        <ele>18.3</ele>
        <time>2026-08-25T15:04:55Z</time>
      </trkpt>
      <trkpt lat="47.52491" lon="-2.74623">
        <ele>18.3</ele>
        <time>2026-08-25T15:04:56Z</time>
      </trkpt>
      <trkpt lat="47.52493" lon="-2.74618">
        <ele>18.2</ele>
        <time>2026-08-25T15:04:57Z</time>
      </trkpt>
      <trkpt lat="47.52496" lon="-2.74613">
        <ele>18.1</ele>
        <time>2026-08-25T15:04:58Z</time>
      </trkpt>
      <trkpt lat="47.52499" lon="-2.74608">
        <ele>18</ele>
        <time>2026-08-25T15:04:59Z</time>
      </trkpt>
      <trkpt lat="47.52502" lon="-2.74602">
        <ele>18.1</ele>
        <time>2026-08-25T15:05:00Z</time>
      </trkpt>
      <trkpt lat="47.52504" lon="-2.74597">
        <ele>18.2</ele>
        <time>2026-08-25T15:05:01Z</time>
      </trkpt>
      <trkpt lat="47.52507" lon="-2.74591">
        <ele>18.3</ele>
        <time>2026-08-25T15:05:02Z</time>
      </trkpt>
      <trkpt lat="47.52509" lon="-2.74586">
        <ele>18.4</ele>
        <time>2026-08-25T15:05:03Z</time>
      </trkpt>
      <trkpt lat="47.52512" lon="-2.7458">
        <ele>18.4</ele>
        <time>2026-08-25T15:05:04Z</time>
      </trkpt>
      <trkpt lat="47.52515" lon="-2.74574">
        <ele>18.5</ele>
        <time>2026-08-25T15:05:05Z</time>
      </trkpt>
      <trkpt lat="47.52518" lon="-2.74569">
        <ele>18.6</ele>
        <time>2026-08-25T15:05:06Z</time>
      </trkpt>
      <trkpt lat="47.52521" lon="-2.74563">
        <ele>18.8</ele>
        <time>2026-08-25T15:05:07Z</time>
      </trkpt>
      <trkpt lat="47.52523" lon="-2.74557">
        <ele>18.8</ele>
        <time>2026-08-25T15:05:08Z</time>
      </trkpt>
      <trkpt lat="47.52526" lon="-2.74552">
        <ele>18.9</ele>
        <time>2026-08-25T15:05:09Z</time>
      </trkpt>
      <trkpt lat="47.52528" lon="-2.74547">
        <ele>19</ele>
        <time>2026-08-25T15:05:10Z</time>
      </trkpt>
      <trkpt lat="47.52531" lon="-2.74541">
        <ele>19.1</ele>
        <time>2026-08-25T15:05:11Z</time>
      </trkpt>
      <trkpt lat="47.52533" lon="-2.74536">
        <ele>19.2</ele>
        <time>2026-08-25T15:05:12Z</time>
      </trkpt>
      <trkpt lat="47.52535" lon="-2.74531">
        <ele>19.3</ele>
        <time>2026-08-25T15:05:13Z</time>
      </trkpt>
      <trkpt lat="47.52538" lon="-2.74526">
        <ele>19.3</ele>
        <time>2026-08-25T15:05:14Z</time>
      </trkpt>
      <trkpt lat="47.5254" lon="-2.74521">
        <ele>19.2</ele>
        <time>2026-08-25T15:05:15Z</time>
      </trkpt>
      <trkpt lat="47.52543" lon="-2.74515">
        <ele>19.1</ele>
        <time>2026-08-25T15:05:16Z</time>
      </trkpt>
      <trkpt lat="47.52546" lon="-2.74509">
        <ele>19</ele>
        <time>2026-08-25T15:05:17Z</time>
      </trkpt>
      <trkpt lat="47.52549" lon="-2.74503">
        <ele>18.9</ele>
        <time>2026-08-25T15:05:18Z</time>
      </trkpt>
      <trkpt lat="47.52551" lon="-2.74498">
        <ele>18.8</ele>
        <time>2026-08-25T15:05:19Z</time>
      </trkpt>
      <trkpt lat="47.52554" lon="-2.74492">
        <ele>18.9</ele>
        <time>2026-08-25T15:05:20Z</time>
      </trkpt>
      <trkpt lat="47.52556" lon="-2.74487">
        <ele>19</ele>
        <time>2026-08-25T15:05:21Z</time>
      </trkpt>
      <trkpt lat="47.52558" lon="-2.74482">
        <ele>19.1</ele>
        <time>2026-08-25T15:05:22Z</time>
      </trkpt>
      <trkpt lat="47.5256" lon="-2.74477">
        <ele>19.2</ele>
        <time>2026-08-25T15:05:23Z</time>
      </trkpt>
      <trkpt lat="47.52562" lon="-2.74473">
        <ele>19.2</ele>
        <time>2026-08-25T15:05:24Z</time>
      </trkpt>
      <trkpt lat="47.52564" lon="-2.74469">
        <ele>19.2</ele>
        <time>2026-08-25T15:05:25Z</time>
      </trkpt>
      <trkpt lat="47.52567" lon="-2.74465">
        <ele>19.3</ele>
        <time>2026-08-25T15:05:26Z</time>
      </trkpt>
      <trkpt lat="47.52569" lon="-2.74461">
        <ele>19.3</ele>
        <time>2026-08-25T15:05:27Z</time>
      </trkpt>
      <trkpt lat="47.52571" lon="-2.74457">
        <ele>19.3</ele>
        <time>2026-08-25T15:05:28Z</time>
      </trkpt>
      <trkpt lat="47.52573" lon="-2.74454">
        <ele>19.4</ele>
        <time>2026-08-25T15:05:29Z</time>
      </trkpt>
      <trkpt lat="47.52574" lon="-2.74451">
        <ele>19.4</ele>
        <time>2026-08-25T15:05:30Z</time>
      </trkpt>
      <trkpt lat="47.52576" lon="-2.74447">
        <ele>19.5</ele>
        <time>2026-08-25T15:05:31Z</time>
      </trkpt>
      <trkpt lat="47.52578" lon="-2.74444">
        <ele>19.6</ele>
        <time>2026-08-25T15:05:32Z</time>
      </trkpt>
      <trkpt lat="47.52579" lon="-2.74441">
        <ele>19.7</ele>
        <time>2026-08-25T15:05:33Z</time>
      </trkpt>
      <trkpt lat="47.52579" lon="-2.74439">
        <ele>19.7</ele>
        <time>2026-08-25T15:05:34Z</time>
      </trkpt>
      <trkpt lat="47.5258" lon="-2.74437">
        <ele>19.8</ele>
        <time>2026-08-25T15:05:35Z</time>
      </trkpt>
      <trkpt lat="47.52581" lon="-2.74435">
        <ele>19.8</ele>
        <time>2026-08-25T15:05:36Z</time>
      </trkpt>
      <trkpt lat="47.52582" lon="-2.74434">
        <ele>19.9</ele>
        <time>2026-08-25T15:05:37Z</time>
      </trkpt>
      <trkpt lat="47.52584" lon="-2.74434">
        <ele>20</ele>
        <time>2026-08-25T15:05:38Z</time>
      </trkpt>
      <trkpt lat="47.52586" lon="-2.74433">
        <ele>20.1</ele>
        <time>2026-08-25T15:05:39Z</time>
      </trkpt>
      <trkpt lat="47.52589" lon="-2.74433">
        <ele>20.2</ele>
        <time>2026-08-25T15:05:40Z</time>
      </trkpt>
      <trkpt lat="47.52592" lon="-2.74431">
        <ele>20.3</ele>
        <time>2026-08-25T15:05:41Z</time>
      </trkpt>
      <trkpt lat="47.52594" lon="-2.74427">
        <ele>20.4</ele>
        <time>2026-08-25T15:05:42Z</time>
      </trkpt>
      <trkpt lat="47.52595" lon="-2.74424">
        <ele>20.4</ele>
        <time>2026-08-25T15:05:43Z</time>
      </trkpt>
      <trkpt lat="47.52595" lon="-2.74419">
        <ele>20.4</ele>
        <time>2026-08-25T15:05:44Z</time>
      </trkpt>
      <trkpt lat="47.52594" lon="-2.74415">
        <ele>20.4</ele>
        <time>2026-08-25T15:05:45Z</time>
      </trkpt>
      <trkpt lat="47.52595" lon="-2.7441">
        <ele>20.3</ele>
        <time>2026-08-25T15:05:46Z</time>
      </trkpt>
      <trkpt lat="47.52596" lon="-2.74406">
        <ele>20.3</ele>
        <time>2026-08-25T15:05:47Z</time>
      </trkpt>
      <trkpt lat="47.52597" lon="-2.74402">
        <ele>20.2</ele>
        <time>2026-08-25T15:05:48Z</time>
      </trkpt>
      <trkpt lat="47.52599" lon="-2.74398">
        <ele>20.2</ele>
        <time>2026-08-25T15:05:49Z</time>
      </trkpt>
      <trkpt lat="47.52601" lon="-2.74396">
        <ele>20.2</ele>
        <time>2026-08-25T15:05:50Z</time>
      </trkpt>
      <trkpt lat="47.52604" lon="-2.74395">
        <ele>20.2</ele>
        <time>2026-08-25T15:05:51Z</time>
      </trkpt>
      <trkpt lat="47.52608" lon="-2.74395">
        <ele>20.2</ele>
        <time>2026-08-25T15:05:52Z</time>
      </trkpt>
      <trkpt lat="47.52611" lon="-2.74396">
        <ele>20.3</ele>
        <time>2026-08-25T15:05:53Z</time>
      </trkpt>
      <trkpt lat="47.52614" lon="-2.74397">
        <ele>20.4</ele>
        <time>2026-08-25T15:05:54Z</time>
      </trkpt>
      <trkpt lat="47.52617" lon="-2.74398">
        <ele>20.5</ele>
        <time>2026-08-25T15:05:55Z</time>
      </trkpt>
      <trkpt lat="47.52621" lon="-2.74399">
        <ele>20.6</ele>
        <time>2026-08-25T15:05:56Z</time>
      </trkpt>
      <trkpt lat="47.52625" lon="-2.744">
        <ele>20.7</ele>
        <time>2026-08-25T15:05:57Z</time>
      </trkpt>
      <trkpt lat="47.52628" lon="-2.744">
        <ele>20.8</ele>
        <time>2026-08-25T15:05:58Z</time>
      </trkpt>
      <trkpt lat="47.52632" lon="-2.74401">
        <ele>20.9</ele>
        <time>2026-08-25T15:05:59Z</time>
      </trkpt>
      <trkpt lat="47.52636" lon="-2.74402">
        <ele>20.9</ele>
        <time>2026-08-25T15:06:00Z</time>
      </trkpt>
      <trkpt lat="47.5264" lon="-2.74403">
        <ele>21</ele>
        <time>2026-08-25T15:06:01Z</time>
      </trkpt>
      <trkpt lat="47.52645" lon="-2.74403">
        <ele>21</ele>
        <time>2026-08-25T15:06:02Z</time>
      </trkpt>
      <trkpt lat="47.52649" lon="-2.74404">
        <ele>21</ele>
        <time>2026-08-25T15:06:03Z</time>
      </trkpt>
      <trkpt lat="47.52653" lon="-2.74404">
        <ele>21</ele>
        <time>2026-08-25T15:06:04Z</time>
      </trkpt>
      <trkpt lat="47.52657" lon="-2.74404">
        <ele>21</ele>
        <time>2026-08-25T15:06:05Z</time>
      </trkpt>
      <trkpt lat="47.52661" lon="-2.74405">
        <ele>21</ele>
        <time>2026-08-25T15:06:06Z</time>
      </trkpt>
      <trkpt lat="47.52664" lon="-2.74405">
        <ele>21</ele>
        <time>2026-08-25T15:06:07Z</time>
      </trkpt>
      <trkpt lat="47.52668" lon="-2.74404">
        <ele>21</ele>
        <time>2026-08-25T15:06:08Z</time>
      </trkpt>
      <trkpt lat="47.52672" lon="-2.74403">
        <ele>21</ele>
        <time>2026-08-25T15:06:09Z</time>
      </trkpt>
      <trkpt lat="47.52676" lon="-2.74401">
        <ele>21</ele>
        <time>2026-08-25T15:06:10Z</time>
      </trkpt>
      <trkpt lat="47.5268" lon="-2.74399">
        <ele>21</ele>
        <time>2026-08-25T15:06:11Z</time>
      </trkpt>
      <trkpt lat="47.52685" lon="-2.74398">
        <ele>21</ele>
        <time>2026-08-25T15:06:12Z</time>
      </trkpt>
      <trkpt lat="47.52689" lon="-2.74397">
        <ele>21</ele>
        <time>2026-08-25T15:06:13Z</time>
      </trkpt>
      <trkpt lat="47.52693" lon="-2.74397">
        <ele>21</ele>
        <time>2026-08-25T15:06:14Z</time>
      </trkpt>
      <trkpt lat="47.52697" lon="-2.74397">
        <ele>21</ele>
        <time>2026-08-25T15:06:15Z</time>
      </trkpt>
      <trkpt lat="47.52701" lon="-2.74397">
        <ele>20.9</ele>
        <time>2026-08-25T15:06:16Z</time>
      </trkpt>
      <trkpt lat="47.52705" lon="-2.74396">
        <ele>20.9</ele>
        <time>2026-08-25T15:06:17Z</time>
      </trkpt>
      <trkpt lat="47.52708" lon="-2.74394">
        <ele>20.9</ele>
        <time>2026-08-25T15:06:18Z</time>
      </trkpt>
      <trkpt lat="47.52711" lon="-2.74392">
        <ele>20.9</ele>
        <time>2026-08-25T15:06:19Z</time>
      </trkpt>
      <trkpt lat="47.52714" lon="-2.74389">
        <ele>21</ele>
        <time>2026-08-25T15:06:20Z</time>
      </trkpt>
      <trkpt lat="47.52717" lon="-2.74386">
        <ele>21</ele>
        <time>2026-08-25T15:06:21Z</time>
      </trkpt>
      <trkpt lat="47.5272" lon="-2.74384">
        <ele>21</ele>
        <time>2026-08-25T15:06:22Z</time>
      </trkpt>
      <trkpt lat="47.52724" lon="-2.74382">
        <ele>21</ele>
        <time>2026-08-25T15:06:23Z</time>
      </trkpt>
      <trkpt lat="47.52727" lon="-2.74381">
        <ele>20.9</ele>
        <time>2026-08-25T15:06:24Z</time>
      </trkpt>
      <trkpt lat="47.5273" lon="-2.74379">
        <ele>20.8</ele>
        <time>2026-08-25T15:06:25Z</time>
      </trkpt>
      <trkpt lat="47.52732" lon="-2.74377">
        <ele>20.8</ele>
        <time>2026-08-25T15:06:26Z</time>
      </trkpt>
      <trkpt lat="47.52735" lon="-2.74375">
        <ele>20.8</ele>
        <time>2026-08-25T15:06:27Z</time>
      </trkpt>
      <trkpt lat="47.52738" lon="-2.74373">
        <ele>20.8</ele>
        <time>2026-08-25T15:06:28Z</time>
      </trkpt>
      <trkpt lat="47.52741" lon="-2.74372">
        <ele>20.7</ele>
        <time>2026-08-25T15:06:29Z</time>
      </trkpt>
      <trkpt lat="47.52743" lon="-2.7437">
        <ele>20.8</ele>
        <time>2026-08-25T15:06:30Z</time>
      </trkpt>
      <trkpt lat="47.52746" lon="-2.74368">
        <ele>20.8</ele>
        <time>2026-08-25T15:06:31Z</time>
      </trkpt>
      <trkpt lat="47.52749" lon="-2.74366">
        <ele>20.8</ele>
        <time>2026-08-25T15:06:32Z</time>
      </trkpt>
      <trkpt lat="47.52753" lon="-2.74364">
        <ele>20.9</ele>
        <time>2026-08-25T15:06:33Z</time>
      </trkpt>
      <trkpt lat="47.52756" lon="-2.74362">
        <ele>21</ele>
        <time>2026-08-25T15:06:34Z</time>
      </trkpt>
      <trkpt lat="47.52759" lon="-2.7436">
        <ele>21</ele>
        <time>2026-08-25T15:06:35Z</time>
      </trkpt>
      <trkpt lat="47.52761" lon="-2.74358">
        <ele>21</ele>
        <time>2026-08-25T15:06:36Z</time>
      </trkpt>
      <trkpt lat="47.52764" lon="-2.74356">
        <ele>21</ele>
        <time>2026-08-25T15:06:37Z</time>
      </trkpt>
      <trkpt lat="47.52768" lon="-2.74354">
        <ele>21</ele>
        <time>2026-08-25T15:06:38Z</time>
      </trkpt>
      <trkpt lat="47.52771" lon="-2.74352">
        <ele>21</ele>
        <time>2026-08-25T15:06:39Z</time>
      </trkpt>
      <trkpt lat="47.52775" lon="-2.7435">
        <ele>21</ele>
        <time>2026-08-25T15:06:40Z</time>
      </trkpt>
      <trkpt lat="47.52778" lon="-2.74347">
        <ele>21</ele>
        <time>2026-08-25T15:06:41Z</time>
      </trkpt>
      <trkpt lat="47.52782" lon="-2.74345">
        <ele>20.9</ele>
        <time>2026-08-25T15:06:42Z</time>
      </trkpt>
      <trkpt lat="47.52785" lon="-2.74342">
        <ele>20.9</ele>
        <time>2026-08-25T15:06:43Z</time>
      </trkpt>
      <trkpt lat="47.52789" lon="-2.74339">
        <ele>20.9</ele>
        <time>2026-08-25T15:06:44Z</time>
      </trkpt>
      <trkpt lat="47.52793" lon="-2.74337">
        <ele>20.9</ele>
        <time>2026-08-25T15:06:45Z</time>
      </trkpt>
      <trkpt lat="47.52797" lon="-2.74335">
        <ele>21</ele>
        <time>2026-08-25T15:06:46Z</time>
      </trkpt>
      <trkpt lat="47.52801" lon="-2.74332">
        <ele>21</ele>
        <time>2026-08-25T15:06:47Z</time>
      </trkpt>
      <trkpt lat="47.52805" lon="-2.7433">
        <ele>21</ele>
        <time>2026-08-25T15:06:48Z</time>
      </trkpt>
      <trkpt lat="47.52808" lon="-2.74327">
        <ele>20.9</ele>
        <time>2026-08-25T15:06:49Z</time>
      </trkpt>
      <trkpt lat="47.52812" lon="-2.74324">
        <ele>20.8</ele>
        <time>2026-08-25T15:06:50Z</time>
      </trkpt>
      <trkpt lat="47.52816" lon="-2.74321">
        <ele>20.8</ele>
        <time>2026-08-25T15:06:51Z</time>
      </trkpt>
      <trkpt lat="47.5282" lon="-2.74319">
        <ele>20.7</ele>
        <time>2026-08-25T15:06:52Z</time>
      </trkpt>
      <trkpt lat="47.52824" lon="-2.74317">
        <ele>20.7</ele>
        <time>2026-08-25T15:06:53Z</time>
      </trkpt>
      <trkpt lat="47.52828" lon="-2.74314">
        <ele>20.8</ele>
        <time>2026-08-25T15:06:54Z</time>
      </trkpt>
      <trkpt lat="47.52832" lon="-2.74312">
        <ele>20.8</ele>
        <time>2026-08-25T15:06:55Z</time>
      </trkpt>
      <trkpt lat="47.52836" lon="-2.74309">
        <ele>20.9</ele>
        <time>2026-08-25T15:06:56Z</time>
      </trkpt>
      <trkpt lat="47.5284" lon="-2.74306">
        <ele>21</ele>
        <time>2026-08-25T15:06:57Z</time>
      </trkpt>
      <trkpt lat="47.52843" lon="-2.74303">
        <ele>21.1</ele>
        <time>2026-08-25T15:06:58Z</time>
      </trkpt>
      <trkpt lat="47.52847" lon="-2.74301">
        <ele>21.2</ele>
        <time>2026-08-25T15:06:59Z</time>
      </trkpt>
      <trkpt lat="47.52851" lon="-2.74298">
        <ele>21.3</ele>
        <time>2026-08-25T15:07:00Z</time>
      </trkpt>
      <trkpt lat="47.52855" lon="-2.74295">
        <ele>21.4</ele>
        <time>2026-08-25T15:07:01Z</time>
      </trkpt>
      <trkpt lat="47.52859" lon="-2.74292">
        <ele>21.5</ele>
        <time>2026-08-25T15:07:02Z</time>
      </trkpt>
      <trkpt lat="47.52863" lon="-2.74289">
        <ele>21.5</ele>
        <time>2026-08-25T15:07:03Z</time>
      </trkpt>
      <trkpt lat="47.52867" lon="-2.74286">
        <ele>21.5</ele>
        <time>2026-08-25T15:07:04Z</time>
      </trkpt>
      <trkpt lat="47.52871" lon="-2.74282">
        <ele>21.5</ele>
        <time>2026-08-25T15:07:05Z</time>
      </trkpt>
      <trkpt lat="47.52875" lon="-2.7428">
        <ele>21.4</ele>
        <time>2026-08-25T15:07:06Z</time>
      </trkpt>
      <trkpt lat="47.52879" lon="-2.74277">
        <ele>21.4</ele>
        <time>2026-08-25T15:07:07Z</time>
      </trkpt>
      <trkpt lat="47.52883" lon="-2.74274">
        <ele>21.3</ele>
        <time>2026-08-25T15:07:08Z</time>
      </trkpt>
      <trkpt lat="47.52887" lon="-2.7427">
        <ele>21.3</ele>
        <time>2026-08-25T15:07:09Z</time>
      </trkpt>
      <trkpt lat="47.52891" lon="-2.74267">
        <ele>21.4</ele>
        <time>2026-08-25T15:07:10Z</time>
      </trkpt>
      <trkpt lat="47.52895" lon="-2.74262">
        <ele>21.4</ele>
        <time>2026-08-25T15:07:11Z</time>
      </trkpt>
      <trkpt lat="47.52898" lon="-2.74258">
        <ele>21.5</ele>
        <time>2026-08-25T15:07:12Z</time>
      </trkpt>
      <trkpt lat="47.52902" lon="-2.74254">
        <ele>21.5</ele>
        <time>2026-08-25T15:07:13Z</time>
      </trkpt>
      <trkpt lat="47.52906" lon="-2.7425">
        <ele>21.4</ele>
        <time>2026-08-25T15:07:14Z</time>
      </trkpt>
      <trkpt lat="47.5291" lon="-2.74246">
        <ele>21.3</ele>
        <time>2026-08-25T15:07:15Z</time>
      </trkpt>
      <trkpt lat="47.52914" lon="-2.74241">
        <ele>21.1</ele>
        <time>2026-08-25T15:07:16Z</time>
      </trkpt>
      <trkpt lat="47.52917" lon="-2.74237">
        <ele>21</ele>
        <time>2026-08-25T15:07:17Z</time>
      </trkpt>
      <trkpt lat="47.52921" lon="-2.74232">
        <ele>21</ele>
        <time>2026-08-25T15:07:18Z</time>
      </trkpt>
      <trkpt lat="47.52925" lon="-2.74227">
        <ele>21</ele>
        <time>2026-08-25T15:07:19Z</time>
      </trkpt>
      <trkpt lat="47.52929" lon="-2.74222">
        <ele>21</ele>
        <time>2026-08-25T15:07:20Z</time>
      </trkpt>
      <trkpt lat="47.52933" lon="-2.74218">
        <ele>21.1</ele>
        <time>2026-08-25T15:07:21Z</time>
      </trkpt>
      <trkpt lat="47.52936" lon="-2.74213">
        <ele>21.1</ele>
        <time>2026-08-25T15:07:22Z</time>
      </trkpt>
      <trkpt lat="47.5294" lon="-2.74208">
        <ele>21.1</ele>
        <time>2026-08-25T15:07:23Z</time>
      </trkpt>
      <trkpt lat="47.52944" lon="-2.74203">
        <ele>21</ele>
        <time>2026-08-25T15:07:24Z</time>
      </trkpt>
      <trkpt lat="47.52948" lon="-2.74198">
        <ele>20.9</ele>
        <time>2026-08-25T15:07:25Z</time>
      </trkpt>
      <trkpt lat="47.52951" lon="-2.74193">
        <ele>20.8</ele>
        <time>2026-08-25T15:07:26Z</time>
      </trkpt>
      <trkpt lat="47.52955" lon="-2.74188">
        <ele>20.6</ele>
        <time>2026-08-25T15:07:27Z</time>
      </trkpt>
      <trkpt lat="47.52959" lon="-2.74183">
        <ele>20.5</ele>
        <time>2026-08-25T15:07:28Z</time>
      </trkpt>
      <trkpt lat="47.52962" lon="-2.74178">
        <ele>20.4</ele>
        <time>2026-08-25T15:07:29Z</time>
      </trkpt>
      <trkpt lat="47.52965" lon="-2.74173">
        <ele>20.3</ele>
        <time>2026-08-25T15:07:30Z</time>
      </trkpt>
      <trkpt lat="47.52969" lon="-2.74168">
        <ele>20.1</ele>
        <time>2026-08-25T15:07:31Z</time>
      </trkpt>
      <trkpt lat="47.52972" lon="-2.74163">
        <ele>20</ele>
        <time>2026-08-25T15:07:32Z</time>
      </trkpt>
      <trkpt lat="47.52974" lon="-2.74158">
        <ele>19.9</ele>
        <time>2026-08-25T15:07:33Z</time>
      </trkpt>
      <trkpt lat="47.52977" lon="-2.74152">
        <ele>19.8</ele>
        <time>2026-08-25T15:07:34Z</time>
      </trkpt>
      <trkpt lat="47.5298" lon="-2.74146">
        <ele>19.7</ele>
        <time>2026-08-25T15:07:35Z</time>
      </trkpt>
      <trkpt lat="47.52983" lon="-2.7414">
        <ele>19.6</ele>
        <time>2026-08-25T15:07:36Z</time>
      </trkpt>
      <trkpt lat="47.52986" lon="-2.74134">
        <ele>19.7</ele>
        <time>2026-08-25T15:07:37Z</time>
      </trkpt>
      <trkpt lat="47.52989" lon="-2.74128">
        <ele>19.8</ele>
        <time>2026-08-25T15:07:38Z</time>
      </trkpt>
      <trkpt lat="47.52991" lon="-2.74123">
        <ele>19.9</ele>
        <time>2026-08-25T15:07:39Z</time>
      </trkpt>
      <trkpt lat="47.52994" lon="-2.74116">
        <ele>20</ele>
        <time>2026-08-25T15:07:40Z</time>
      </trkpt>
      <trkpt lat="47.52998" lon="-2.7411">
        <ele>20.1</ele>
        <time>2026-08-25T15:07:41Z</time>
      </trkpt>
      <trkpt lat="47.53001" lon="-2.74104">
        <ele>20</ele>
        <time>2026-08-25T15:07:42Z</time>
      </trkpt>
      <trkpt lat="47.53003" lon="-2.74098">
        <ele>19.9</ele>
        <time>2026-08-25T15:07:43Z</time>
      </trkpt>
      <trkpt lat="47.53006" lon="-2.74091">
        <ele>19.8</ele>
        <time>2026-08-25T15:07:44Z</time>
      </trkpt>
      <trkpt lat="47.53008" lon="-2.74085">
        <ele>19.7</ele>
        <time>2026-08-25T15:07:45Z</time>
      </trkpt>
      <trkpt lat="47.5301" lon="-2.74078">
        <ele>19.6</ele>
        <time>2026-08-25T15:07:46Z</time>
      </trkpt>
      <trkpt lat="47.53012" lon="-2.74071">
        <ele>19.6</ele>
        <time>2026-08-25T15:07:47Z</time>
      </trkpt>
      <trkpt lat="47.53014" lon="-2.74065">
        <ele>19.5</ele>
        <time>2026-08-25T15:07:48Z</time>
      </trkpt>
      <trkpt lat="47.53016" lon="-2.74059">
        <ele>19.4</ele>
        <time>2026-08-25T15:07:49Z</time>
      </trkpt>
      <trkpt lat="47.53017" lon="-2.74053">
        <ele>19.4</ele>
        <time>2026-08-25T15:07:50Z</time>
      </trkpt>
      <trkpt lat="47.53019" lon="-2.74047">
        <ele>19.3</ele>
        <time>2026-08-25T15:07:51Z</time>
      </trkpt>
      <trkpt lat="47.53021" lon="-2.74042">
        <ele>19.2</ele>
        <time>2026-08-25T15:07:52Z</time>
      </trkpt>
      <trkpt lat="47.53023" lon="-2.74036">
        <ele>19.2</ele>
        <time>2026-08-25T15:07:53Z</time>
      </trkpt>
      <trkpt lat="47.53025" lon="-2.7403">
        <ele>19.1</ele>
        <time>2026-08-25T15:07:54Z</time>
      </trkpt>
      <trkpt lat="47.53027" lon="-2.74024">
        <ele>19.2</ele>
        <time>2026-08-25T15:07:55Z</time>
      </trkpt>
      <trkpt lat="47.53029" lon="-2.7402">
        <ele>19.3</ele>
        <time>2026-08-25T15:07:56Z</time>
      </trkpt>
      <trkpt lat="47.5303" lon="-2.74015">
        <ele>19.4</ele>
        <time>2026-08-25T15:07:57Z</time>
      </trkpt>
      <trkpt lat="47.53032" lon="-2.7401">
        <ele>19.5</ele>
        <time>2026-08-25T15:07:58Z</time>
      </trkpt>
      <trkpt lat="47.53033" lon="-2.74005">
        <ele>19.7</ele>
        <time>2026-08-25T15:07:59Z</time>
      </trkpt>
      <trkpt lat="47.53035" lon="-2.74001">
        <ele>19.7</ele>
        <time>2026-08-25T15:08:00Z</time>
      </trkpt>
      <trkpt lat="47.53036" lon="-2.73996">
        <ele>19.7</ele>
        <time>2026-08-25T15:08:01Z</time>
      </trkpt>
      <trkpt lat="47.53038" lon="-2.73991">
        <ele>19.6</ele>
        <time>2026-08-25T15:08:02Z</time>
      </trkpt>
      <trkpt lat="47.53039" lon="-2.73986">
        <ele>19.6</ele>
        <time>2026-08-25T15:08:03Z</time>
      </trkpt>
      <trkpt lat="47.53041" lon="-2.73982">
        <ele>19.5</ele>
        <time>2026-08-25T15:08:04Z</time>
      </trkpt>
      <trkpt lat="47.53042" lon="-2.73977">
        <ele>19.5</ele>
        <time>2026-08-25T15:08:05Z</time>
      </trkpt>
      <trkpt lat="47.53044" lon="-2.73971">
        <ele>19.4</ele>
        <time>2026-08-25T15:08:06Z</time>
      </trkpt>
      <trkpt lat="47.53047" lon="-2.73966">
        <ele>19.5</ele>
        <time>2026-08-25T15:08:07Z</time>
      </trkpt>
      <trkpt lat="47.53049" lon="-2.7396">
        <ele>19.6</ele>
        <time>2026-08-25T15:08:08Z</time>
      </trkpt>
      <trkpt lat="47.53051" lon="-2.73954">
        <ele>19.7</ele>
        <time>2026-08-25T15:08:09Z</time>
      </trkpt>
      <trkpt lat="47.53054" lon="-2.73948">
        <ele>19.9</ele>
        <time>2026-08-25T15:08:10Z</time>
      </trkpt>
      <trkpt lat="47.53056" lon="-2.73942">
        <ele>20</ele>
        <time>2026-08-25T15:08:11Z</time>
      </trkpt>
      <trkpt lat="47.53058" lon="-2.73936">
        <ele>19.9</ele>
        <time>2026-08-25T15:08:12Z</time>
      </trkpt>
      <trkpt lat="47.53061" lon="-2.7393">
        <ele>19.8</ele>
        <time>2026-08-25T15:08:13Z</time>
      </trkpt>
      <trkpt lat="47.53063" lon="-2.73924">
        <ele>19.7</ele>
        <time>2026-08-25T15:08:14Z</time>
      </trkpt>
      <trkpt lat="47.53066" lon="-2.73918">
        <ele>19.6</ele>
        <time>2026-08-25T15:08:15Z</time>
      </trkpt>
      <trkpt lat="47.53069" lon="-2.73912">
        <ele>19.5</ele>
        <time>2026-08-25T15:08:16Z</time>
      </trkpt>
      <trkpt lat="47.53071" lon="-2.73905">
        <ele>19.4</ele>
        <time>2026-08-25T15:08:17Z</time>
      </trkpt>
      <trkpt lat="47.53074" lon="-2.73899">
        <ele>19.3</ele>
        <time>2026-08-25T15:08:18Z</time>
      </trkpt>
      <trkpt lat="47.53076" lon="-2.73892">
        <ele>19.3</ele>
        <time>2026-08-25T15:08:19Z</time>
      </trkpt>
      <trkpt lat="47.53078" lon="-2.73884">
        <ele>19.3</ele>
        <time>2026-08-25T15:08:20Z</time>
      </trkpt>
      <trkpt lat="47.5308" lon="-2.73877">
        <ele>19.5</ele>
        <time>2026-08-25T15:08:21Z</time>
      </trkpt>
      <trkpt lat="47.53082" lon="-2.7387">
        <ele>19.7</ele>
        <time>2026-08-25T15:08:22Z</time>
      </trkpt>
      <trkpt lat="47.53084" lon="-2.73864">
        <ele>19.9</ele>
        <time>2026-08-25T15:08:23Z</time>
      </trkpt>
      <trkpt lat="47.53086" lon="-2.73857">
        <ele>19.8</ele>
        <time>2026-08-25T15:08:24Z</time>
      </trkpt>
      <trkpt lat="47.53089" lon="-2.7385">
        <ele>19.5</ele>
        <time>2026-08-25T15:08:25Z</time>
      </trkpt>
      <trkpt lat="47.53092" lon="-2.73842">
        <ele>19.2</ele>
        <time>2026-08-25T15:08:26Z</time>
      </trkpt>
      <trkpt lat="47.53094" lon="-2.73835">
        <ele>19</ele>
        <time>2026-08-25T15:08:27Z</time>
      </trkpt>
      <trkpt lat="47.53096" lon="-2.73829">
        <ele>19.2</ele>
        <time>2026-08-25T15:08:28Z</time>
      </trkpt>
      <trkpt lat="47.53098" lon="-2.73823">
        <ele>19.4</ele>
        <time>2026-08-25T15:08:29Z</time>
      </trkpt>
      <trkpt lat="47.531" lon="-2.73818">
        <ele>19.6</ele>
        <time>2026-08-25T15:08:30Z</time>
      </trkpt>
      <trkpt lat="47.53103" lon="-2.73812">
        <ele>19.8</ele>
        <time>2026-08-25T15:08:31Z</time>
      </trkpt>
      <trkpt lat="47.53104" lon="-2.73805">
        <ele>20</ele>
        <time>2026-08-25T15:08:32Z</time>
      </trkpt>
      <trkpt lat="47.53106" lon="-2.73799">
        <ele>20</ele>
        <time>2026-08-25T15:08:33Z</time>
      </trkpt>
      <trkpt lat="47.53109" lon="-2.73792">
        <ele>20</ele>
        <time>2026-08-25T15:08:34Z</time>
      </trkpt>
      <trkpt lat="47.53111" lon="-2.73784">
        <ele>20</ele>
        <time>2026-08-25T15:08:35Z</time>
      </trkpt>
      <trkpt lat="47.53113" lon="-2.73778">
        <ele>20</ele>
        <time>2026-08-25T15:08:36Z</time>
      </trkpt>
      <trkpt lat="47.53115" lon="-2.73772">
        <ele>20</ele>
        <time>2026-08-25T15:08:37Z</time>
      </trkpt>
      <trkpt lat="47.53119" lon="-2.73766">
        <ele>20</ele>
        <time>2026-08-25T15:08:38Z</time>
      </trkpt>
      <trkpt lat="47.53121" lon="-2.7376">
        <ele>20</ele>
        <time>2026-08-25T15:08:39Z</time>
      </trkpt>
      <trkpt lat="47.53123" lon="-2.73753">
        <ele>20</ele>
        <time>2026-08-25T15:08:40Z</time>
      </trkpt>
      <trkpt lat="47.53126" lon="-2.73747">
        <ele>20</ele>
        <time>2026-08-25T15:08:41Z</time>
      </trkpt>
      <trkpt lat="47.53128" lon="-2.73741">
        <ele>20</ele>
        <time>2026-08-25T15:08:42Z</time>
      </trkpt>
      <trkpt lat="47.5313" lon="-2.73735">
        <ele>20</ele>
        <time>2026-08-25T15:08:43Z</time>
      </trkpt>
      <trkpt lat="47.53131" lon="-2.7373">
        <ele>20</ele>
        <time>2026-08-25T15:08:44Z</time>
      </trkpt>
      <trkpt lat="47.53133" lon="-2.73724">
        <ele>20</ele>
        <time>2026-08-25T15:08:45Z</time>
      </trkpt>
      <trkpt lat="47.53135" lon="-2.73718">
        <ele>20.2</ele>
        <time>2026-08-25T15:08:46Z</time>
      </trkpt>
      <trkpt lat="47.53137" lon="-2.73712">
        <ele>20.4</ele>
        <time>2026-08-25T15:08:47Z</time>
      </trkpt>
      <trkpt lat="47.5314" lon="-2.73706">
        <ele>20.6</ele>
        <time>2026-08-25T15:08:48Z</time>
      </trkpt>
      <trkpt lat="47.53142" lon="-2.73699">
        <ele>20.7</ele>
        <time>2026-08-25T15:08:49Z</time>
      </trkpt>
      <trkpt lat="47.53144" lon="-2.73693">
        <ele>20.8</ele>
        <time>2026-08-25T15:08:50Z</time>
      </trkpt>
      <trkpt lat="47.53146" lon="-2.73687">
        <ele>20.7</ele>
        <time>2026-08-25T15:08:51Z</time>
      </trkpt>
      <trkpt lat="47.53148" lon="-2.73681">
        <ele>20.7</ele>
        <time>2026-08-25T15:08:52Z</time>
      </trkpt>
      <trkpt lat="47.5315" lon="-2.73675">
        <ele>20.6</ele>
        <time>2026-08-25T15:08:53Z</time>
      </trkpt>
      <trkpt lat="47.53152" lon="-2.73669">
        <ele>20.5</ele>
        <time>2026-08-25T15:08:54Z</time>
      </trkpt>
      <trkpt lat="47.53154" lon="-2.73663">
        <ele>20.5</ele>
        <time>2026-08-25T15:08:55Z</time>
      </trkpt>
      <trkpt lat="47.53156" lon="-2.73657">
        <ele>20.6</ele>
        <time>2026-08-25T15:08:56Z</time>
      </trkpt>
      <trkpt lat="47.53158" lon="-2.73651">
        <ele>20.7</ele>
        <time>2026-08-25T15:08:57Z</time>
      </trkpt>
      <trkpt lat="47.53162" lon="-2.73639">
        <ele>21</ele>
        <time>2026-08-25T15:08:58Z</time>
      </trkpt>
      <trkpt lat="47.53162" lon="-2.73639">
        <ele>21</ele>
        <time>2026-08-25T15:08:59Z</time>
      </trkpt>
      <trkpt lat="47.53164" lon="-2.73633">
        <ele>21</ele>
        <time>2026-08-25T15:09:00Z</time>
      </trkpt>
      <trkpt lat="47.53166" lon="-2.73626">
        <ele>21</ele>
        <time>2026-08-25T15:09:01Z</time>
      </trkpt>
      <trkpt lat="47.53169" lon="-2.73619">
        <ele>21</ele>
        <time>2026-08-25T15:09:02Z</time>
      </trkpt>
      <trkpt lat="47.53171" lon="-2.73613">
        <ele>21</ele>
        <time>2026-08-25T15:09:03Z</time>
      </trkpt>
      <trkpt lat="47.53173" lon="-2.73606">
        <ele>21</ele>
        <time>2026-08-25T15:09:04Z</time>
      </trkpt>
      <trkpt lat="47.53175" lon="-2.736">
        <ele>21</ele>
        <time>2026-08-25T15:09:05Z</time>
      </trkpt>
      <trkpt lat="47.53177" lon="-2.73594">
        <ele>21</ele>
        <time>2026-08-25T15:09:06Z</time>
      </trkpt>
      <trkpt lat="47.5318" lon="-2.73587">
        <ele>21</ele>
        <time>2026-08-25T15:09:07Z</time>
      </trkpt>
      <trkpt lat="47.53182" lon="-2.73581">
        <ele>21</ele>
        <time>2026-08-25T15:09:08Z</time>
      </trkpt>
      <trkpt lat="47.53184" lon="-2.73576">
        <ele>21.2</ele>
        <time>2026-08-25T15:09:09Z</time>
      </trkpt>
      <trkpt lat="47.53186" lon="-2.7357">
        <ele>21.3</ele>
        <time>2026-08-25T15:09:10Z</time>
      </trkpt>
      <trkpt lat="47.53188" lon="-2.73565">
        <ele>21.5</ele>
        <time>2026-08-25T15:09:11Z</time>
      </trkpt>
      <trkpt lat="47.5319" lon="-2.73559">
        <ele>21.7</ele>
        <time>2026-08-25T15:09:12Z</time>
      </trkpt>
      <trkpt lat="47.53191" lon="-2.73553">
        <ele>22</ele>
        <time>2026-08-25T15:09:13Z</time>
      </trkpt>
      <trkpt lat="47.53193" lon="-2.73548">
        <ele>22.2</ele>
        <time>2026-08-25T15:09:14Z</time>
      </trkpt>
      <trkpt lat="47.53195" lon="-2.73543">
        <ele>22.4</ele>
        <time>2026-08-25T15:09:15Z</time>
      </trkpt>
      <trkpt lat="47.53197" lon="-2.73538">
        <ele>22.5</ele>
        <time>2026-08-25T15:09:16Z</time>
      </trkpt>
      <trkpt lat="47.53198" lon="-2.73534">
        <ele>22.6</ele>
        <time>2026-08-25T15:09:17Z</time>
      </trkpt>
      <trkpt lat="47.532" lon="-2.73528">
        <ele>22.8</ele>
        <time>2026-08-25T15:09:18Z</time>
      </trkpt>
      <trkpt lat="47.53202" lon="-2.73523">
        <ele>22.9</ele>
        <time>2026-08-25T15:09:19Z</time>
      </trkpt>
      <trkpt lat="47.53203" lon="-2.73517">
        <ele>23.1</ele>
        <time>2026-08-25T15:09:20Z</time>
      </trkpt>
      <trkpt lat="47.53205" lon="-2.73512">
        <ele>23.2</ele>
        <time>2026-08-25T15:09:21Z</time>
      </trkpt>
      <trkpt lat="47.53207" lon="-2.73506">
        <ele>23.3</ele>
        <time>2026-08-25T15:09:22Z</time>
      </trkpt>
      <trkpt lat="47.53209" lon="-2.73501">
        <ele>23.4</ele>
        <time>2026-08-25T15:09:23Z</time>
      </trkpt>
      <trkpt lat="47.53212" lon="-2.73495">
        <ele>23.5</ele>
        <time>2026-08-25T15:09:24Z</time>
      </trkpt>
      <trkpt lat="47.53213" lon="-2.7349">
        <ele>23.6</ele>
        <time>2026-08-25T15:09:25Z</time>
      </trkpt>
      <trkpt lat="47.53216" lon="-2.73484">
        <ele>23.7</ele>
        <time>2026-08-25T15:09:26Z</time>
      </trkpt>
      <trkpt lat="47.53218" lon="-2.73479">
        <ele>23.8</ele>
        <time>2026-08-25T15:09:27Z</time>
      </trkpt>
      <trkpt lat="47.53219" lon="-2.73473">
        <ele>24</ele>
        <time>2026-08-25T15:09:28Z</time>
      </trkpt>
      <trkpt lat="47.53221" lon="-2.73468">
        <ele>24.2</ele>
        <time>2026-08-25T15:09:29Z</time>
      </trkpt>
      <trkpt lat="47.53223" lon="-2.73463">
        <ele>24.3</ele>
        <time>2026-08-25T15:09:30Z</time>
      </trkpt>
      <trkpt lat="47.53225" lon="-2.73458">
        <ele>24.4</ele>
        <time>2026-08-25T15:09:31Z</time>
      </trkpt>
      <trkpt lat="47.53227" lon="-2.73453">
        <ele>24.5</ele>
        <time>2026-08-25T15:09:32Z</time>
      </trkpt>
      <trkpt lat="47.53228" lon="-2.73447">
        <ele>24.7</ele>
        <time>2026-08-25T15:09:33Z</time>
      </trkpt>
      <trkpt lat="47.5323" lon="-2.73442">
        <ele>24.7</ele>
        <time>2026-08-25T15:09:34Z</time>
      </trkpt>
      <trkpt lat="47.53232" lon="-2.73436">
        <ele>24.8</ele>
        <time>2026-08-25T15:09:35Z</time>
      </trkpt>
      <trkpt lat="47.53234" lon="-2.7343">
        <ele>24.8</ele>
        <time>2026-08-25T15:09:36Z</time>
      </trkpt>
      <trkpt lat="47.53236" lon="-2.73425">
        <ele>24.9</ele>
        <time>2026-08-25T15:09:37Z</time>
      </trkpt>
      <trkpt lat="47.53238" lon="-2.73419">
        <ele>25</ele>
        <time>2026-08-25T15:09:38Z</time>
      </trkpt>
      <trkpt lat="47.5324" lon="-2.73413">
        <ele>25</ele>
        <time>2026-08-25T15:09:39Z</time>
      </trkpt>
      <trkpt lat="47.53242" lon="-2.73408">
        <ele>25.1</ele>
        <time>2026-08-25T15:09:40Z</time>
      </trkpt>
      <trkpt lat="47.53244" lon="-2.73402">
        <ele>25.1</ele>
        <time>2026-08-25T15:09:41Z</time>
      </trkpt>
      <trkpt lat="47.53246" lon="-2.73397">
        <ele>25.1</ele>
        <time>2026-08-25T15:09:42Z</time>
      </trkpt>
      <trkpt lat="47.53248" lon="-2.73391">
        <ele>25.1</ele>
        <time>2026-08-25T15:09:43Z</time>
      </trkpt>
      <trkpt lat="47.5325" lon="-2.73385">
        <ele>25.1</ele>
        <time>2026-08-25T15:09:44Z</time>
      </trkpt>
      <trkpt lat="47.53252" lon="-2.73379">
        <ele>25.3</ele>
        <time>2026-08-25T15:09:45Z</time>
      </trkpt>
      <trkpt lat="47.53254" lon="-2.73374">
        <ele>25.3</ele>
        <time>2026-08-25T15:09:46Z</time>
      </trkpt>
      <trkpt lat="47.53256" lon="-2.73368">
        <ele>25.4</ele>
        <time>2026-08-25T15:09:47Z</time>
      </trkpt>
      <trkpt lat="47.53258" lon="-2.73363">
        <ele>25.4</ele>
        <time>2026-08-25T15:09:48Z</time>
      </trkpt>
      <trkpt lat="47.5326" lon="-2.73358">
        <ele>25.3</ele>
        <time>2026-08-25T15:09:49Z</time>
      </trkpt>
      <trkpt lat="47.53262" lon="-2.73352">
        <ele>25.1</ele>
        <time>2026-08-25T15:09:50Z</time>
      </trkpt>
      <trkpt lat="47.53264" lon="-2.73347">
        <ele>25</ele>
        <time>2026-08-25T15:09:51Z</time>
      </trkpt>
      <trkpt lat="47.53266" lon="-2.73342">
        <ele>24.8</ele>
        <time>2026-08-25T15:09:52Z</time>
      </trkpt>
      <trkpt lat="47.53268" lon="-2.73336">
        <ele>24.7</ele>
        <time>2026-08-25T15:09:53Z</time>
      </trkpt>
      <trkpt lat="47.5327" lon="-2.73331">
        <ele>24.6</ele>
        <time>2026-08-25T15:09:54Z</time>
      </trkpt>
      <trkpt lat="47.53271" lon="-2.73325">
        <ele>24.7</ele>
        <time>2026-08-25T15:09:55Z</time>
      </trkpt>
      <trkpt lat="47.53273" lon="-2.7332">
        <ele>24.7</ele>
        <time>2026-08-25T15:09:56Z</time>
      </trkpt>
      <trkpt lat="47.53275" lon="-2.73315">
        <ele>24.8</ele>
        <time>2026-08-25T15:09:57Z</time>
      </trkpt>
      <trkpt lat="47.53278" lon="-2.73304">
        <ele>25</ele>
        <time>2026-08-25T15:09:58Z</time>
      </trkpt>
      <trkpt lat="47.53278" lon="-2.73304">
        <ele>25</ele>
        <time>2026-08-25T15:09:59Z</time>
      </trkpt>
      <trkpt lat="47.53279" lon="-2.73299">
        <ele>24.9</ele>
        <time>2026-08-25T15:10:00Z</time>
      </trkpt>
      <trkpt lat="47.53281" lon="-2.73294">
        <ele>24.8</ele>
        <time>2026-08-25T15:10:01Z</time>
      </trkpt>
      <trkpt lat="47.53283" lon="-2.73289">
        <ele>24.6</ele>
        <time>2026-08-25T15:10:02Z</time>
      </trkpt>
      <trkpt lat="47.53285" lon="-2.73283">
        <ele>24.5</ele>
        <time>2026-08-25T15:10:03Z</time>
      </trkpt>
      <trkpt lat="47.53287" lon="-2.73278">
        <ele>24.3</ele>
        <time>2026-08-25T15:10:04Z</time>
      </trkpt>
      <trkpt lat="47.53289" lon="-2.73273">
        <ele>24.1</ele>
        <time>2026-08-25T15:10:05Z</time>
      </trkpt>
      <trkpt lat="47.53291" lon="-2.73268">
        <ele>23.9</ele>
        <time>2026-08-25T15:10:06Z</time>
      </trkpt>
      <trkpt lat="47.53293" lon="-2.73262">
        <ele>23.6</ele>
        <time>2026-08-25T15:10:07Z</time>
      </trkpt>
      <trkpt lat="47.53295" lon="-2.73257">
        <ele>23.5</ele>
        <time>2026-08-25T15:10:08Z</time>
      </trkpt>
      <trkpt lat="47.53296" lon="-2.73252">
        <ele>23.4</ele>
        <time>2026-08-25T15:10:09Z</time>
      </trkpt>
      <trkpt lat="47.53298" lon="-2.73247">
        <ele>23.4</ele>
        <time>2026-08-25T15:10:10Z</time>
      </trkpt>
      <trkpt lat="47.533" lon="-2.73242">
        <ele>23.5</ele>
        <time>2026-08-25T15:10:11Z</time>
      </trkpt>
      <trkpt lat="47.53302" lon="-2.73237">
        <ele>23.6</ele>
        <time>2026-08-25T15:10:12Z</time>
      </trkpt>
      <trkpt lat="47.53304" lon="-2.73232">
        <ele>23.7</ele>
        <time>2026-08-25T15:10:13Z</time>
      </trkpt>
      <trkpt lat="47.53305" lon="-2.73227">
        <ele>23.8</ele>
        <time>2026-08-25T15:10:14Z</time>
      </trkpt>
      <trkpt lat="47.53307" lon="-2.73222">
        <ele>23.8</ele>
        <time>2026-08-25T15:10:15Z</time>
      </trkpt>
      <trkpt lat="47.53309" lon="-2.73217">
        <ele>23.5</ele>
        <time>2026-08-25T15:10:16Z</time>
      </trkpt>
      <trkpt lat="47.53311" lon="-2.73211">
        <ele>23.2</ele>
        <time>2026-08-25T15:10:17Z</time>
      </trkpt>
      <trkpt lat="47.53313" lon="-2.73206">
        <ele>23.1</ele>
        <time>2026-08-25T15:10:18Z</time>
      </trkpt>
      <trkpt lat="47.53314" lon="-2.73201">
        <ele>23</ele>
        <time>2026-08-25T15:10:19Z</time>
      </trkpt>
      <trkpt lat="47.53316" lon="-2.73195">
        <ele>23</ele>
        <time>2026-08-25T15:10:20Z</time>
      </trkpt>
      <trkpt lat="47.53318" lon="-2.7319">
        <ele>23.2</ele>
        <time>2026-08-25T15:10:21Z</time>
      </trkpt>
      <trkpt lat="47.5332" lon="-2.73184">
        <ele>23.4</ele>
        <time>2026-08-25T15:10:22Z</time>
      </trkpt>
      <trkpt lat="47.53323" lon="-2.73178">
        <ele>23.6</ele>
        <time>2026-08-25T15:10:23Z</time>
      </trkpt>
      <trkpt lat="47.53325" lon="-2.73173">
        <ele>23.8</ele>
        <time>2026-08-25T15:10:24Z</time>
      </trkpt>
      <trkpt lat="47.53327" lon="-2.73168">
        <ele>24</ele>
        <time>2026-08-25T15:10:25Z</time>
      </trkpt>
      <trkpt lat="47.53329" lon="-2.73162">
        <ele>24.2</ele>
        <time>2026-08-25T15:10:26Z</time>
      </trkpt>
      <trkpt lat="47.5333" lon="-2.73157">
        <ele>24.3</ele>
        <time>2026-08-25T15:10:27Z</time>
      </trkpt>
      <trkpt lat="47.53332" lon="-2.73153">
        <ele>24.5</ele>
        <time>2026-08-25T15:10:28Z</time>
      </trkpt>
      <trkpt lat="47.53334" lon="-2.73148">
        <ele>24.7</ele>
        <time>2026-08-25T15:10:29Z</time>
      </trkpt>
      <trkpt lat="47.53335" lon="-2.73145">
        <ele>24.8</ele>
        <time>2026-08-25T15:10:30Z</time>
      </trkpt>
      <trkpt lat="47.53336" lon="-2.73141">
        <ele>24.9</ele>
        <time>2026-08-25T15:10:31Z</time>
      </trkpt>
      <trkpt lat="47.53338" lon="-2.73137">
        <ele>25.1</ele>
        <time>2026-08-25T15:10:32Z</time>
      </trkpt>
      <trkpt lat="47.53339" lon="-2.73133">
        <ele>25.2</ele>
        <time>2026-08-25T15:10:33Z</time>
      </trkpt>
      <trkpt lat="47.53341" lon="-2.73129">
        <ele>25.3</ele>
        <time>2026-08-25T15:10:34Z</time>
      </trkpt>
      <trkpt lat="47.53342" lon="-2.73125">
        <ele>25.3</ele>
        <time>2026-08-25T15:10:35Z</time>
      </trkpt>
      <trkpt lat="47.53344" lon="-2.7312">
        <ele>25.4</ele>
        <time>2026-08-25T15:10:36Z</time>
      </trkpt>
      <trkpt lat="47.53345" lon="-2.73116">
        <ele>25.5</ele>
        <time>2026-08-25T15:10:37Z</time>
      </trkpt>
      <trkpt lat="47.53346" lon="-2.73111">
        <ele>25.5</ele>
        <time>2026-08-25T15:10:38Z</time>
      </trkpt>
      <trkpt lat="47.53347" lon="-2.73108">
        <ele>25.6</ele>
        <time>2026-08-25T15:10:39Z</time>
      </trkpt>
      <trkpt lat="47.53349" lon="-2.73105">
        <ele>25.7</ele>
        <time>2026-08-25T15:10:40Z</time>
      </trkpt>
      <trkpt lat="47.5335" lon="-2.73102">
        <ele>25.7</ele>
        <time>2026-08-25T15:10:41Z</time>
      </trkpt>
      <trkpt lat="47.53352" lon="-2.731">
        <ele>25.7</ele>
        <time>2026-08-25T15:10:42Z</time>
      </trkpt>
      <trkpt lat="47.53355" lon="-2.73099">
        <ele>25.7</ele>
        <time>2026-08-25T15:10:43Z</time>
      </trkpt>
      <trkpt lat="47.53357" lon="-2.73099">
        <ele>25.6</ele>
        <time>2026-08-25T15:10:44Z</time>
      </trkpt>
      <trkpt lat="47.5336" lon="-2.73098">
        <ele>25.5</ele>
        <time>2026-08-25T15:10:45Z</time>
      </trkpt>
      <trkpt lat="47.53363" lon="-2.73098">
        <ele>25.4</ele>
        <time>2026-08-25T15:10:46Z</time>
      </trkpt>
      <trkpt lat="47.53367" lon="-2.73097">
        <ele>25.4</ele>
        <time>2026-08-25T15:10:47Z</time>
      </trkpt>
      <trkpt lat="47.53371" lon="-2.73097">
        <ele>25.3</ele>
        <time>2026-08-25T15:10:48Z</time>
      </trkpt>
      <trkpt lat="47.53375" lon="-2.73098">
        <ele>25.2</ele>
        <time>2026-08-25T15:10:49Z</time>
      </trkpt>
      <trkpt lat="47.53379" lon="-2.731">
        <ele>25.1</ele>
        <time>2026-08-25T15:10:50Z</time>
      </trkpt>
      <trkpt lat="47.53383" lon="-2.73102">
        <ele>25.1</ele>
        <time>2026-08-25T15:10:51Z</time>
      </trkpt>
      <trkpt lat="47.53387" lon="-2.73103">
        <ele>25</ele>
        <time>2026-08-25T15:10:52Z</time>
      </trkpt>
      <trkpt lat="47.53391" lon="-2.73105">
        <ele>24.9</ele>
        <time>2026-08-25T15:10:53Z</time>
      </trkpt>
      <trkpt lat="47.53394" lon="-2.73106">
        <ele>24.8</ele>
        <time>2026-08-25T15:10:54Z</time>
      </trkpt>
      <trkpt lat="47.53398" lon="-2.73108">
        <ele>24.7</ele>
        <time>2026-08-25T15:10:55Z</time>
      </trkpt>
      <trkpt lat="47.53402" lon="-2.7311">
        <ele>24.5</ele>
        <time>2026-08-25T15:10:56Z</time>
      </trkpt>
      <trkpt lat="47.53406" lon="-2.73112">
        <ele>24.4</ele>
        <time>2026-08-25T15:10:57Z</time>
      </trkpt>
      <trkpt lat="47.5341" lon="-2.73113">
        <ele>24.2</ele>
        <time>2026-08-25T15:10:58Z</time>
      </trkpt>
      <trkpt lat="47.53415" lon="-2.73115">
        <ele>24.1</ele>
        <time>2026-08-25T15:10:59Z</time>
      </trkpt>
      <trkpt lat="47.53419" lon="-2.73117">
        <ele>24</ele>
        <time>2026-08-25T15:11:00Z</time>
      </trkpt>
      <trkpt lat="47.53423" lon="-2.73119">
        <ele>23.9</ele>
        <time>2026-08-25T15:11:01Z</time>
      </trkpt>
      <trkpt lat="47.53427" lon="-2.7312">
        <ele>23.9</ele>
        <time>2026-08-25T15:11:02Z</time>
      </trkpt>
      <trkpt lat="47.53432" lon="-2.73122">
        <ele>23.8</ele>
        <time>2026-08-25T15:11:03Z</time>
      </trkpt>
      <trkpt lat="47.53435" lon="-2.73124">
        <ele>23.7</ele>
        <time>2026-08-25T15:11:04Z</time>
      </trkpt>
      <trkpt lat="47.5344" lon="-2.73126">
        <ele>23.5</ele>
        <time>2026-08-25T15:11:05Z</time>
      </trkpt>
      <trkpt lat="47.53444" lon="-2.73127">
        <ele>23.4</ele>
        <time>2026-08-25T15:11:06Z</time>
      </trkpt>
      <trkpt lat="47.53449" lon="-2.73129">
        <ele>23.2</ele>
        <time>2026-08-25T15:11:07Z</time>
      </trkpt>
      <trkpt lat="47.53453" lon="-2.73131">
        <ele>23</ele>
        <time>2026-08-25T15:11:08Z</time>
      </trkpt>
      <trkpt lat="47.53458" lon="-2.73133">
        <ele>22.7</ele>
        <time>2026-08-25T15:11:09Z</time>
      </trkpt>
      <trkpt lat="47.53463" lon="-2.73135">
        <ele>22.5</ele>
        <time>2026-08-25T15:11:10Z</time>
      </trkpt>
      <trkpt lat="47.53467" lon="-2.73135">
        <ele>22.3</ele>
        <time>2026-08-25T15:11:11Z</time>
      </trkpt>
      <trkpt lat="47.53472" lon="-2.73137">
        <ele>22.1</ele>
        <time>2026-08-25T15:11:12Z</time>
      </trkpt>
      <trkpt lat="47.53476" lon="-2.73139">
        <ele>22</ele>
        <time>2026-08-25T15:11:13Z</time>
      </trkpt>
      <trkpt lat="47.53481" lon="-2.73141">
        <ele>22</ele>
        <time>2026-08-25T15:11:14Z</time>
      </trkpt>
      <trkpt lat="47.53485" lon="-2.73141">
        <ele>22</ele>
        <time>2026-08-25T15:11:15Z</time>
      </trkpt>
      <trkpt lat="47.53489" lon="-2.73141">
        <ele>22</ele>
        <time>2026-08-25T15:11:16Z</time>
      </trkpt>
      <trkpt lat="47.53491" lon="-2.73138">
        <ele>22</ele>
        <time>2026-08-25T15:11:17Z</time>
      </trkpt>
      <trkpt lat="47.53494" lon="-2.73135">
        <ele>22</ele>
        <time>2026-08-25T15:11:18Z</time>
      </trkpt>
      <trkpt lat="47.53495" lon="-2.73131">
        <ele>22.1</ele>
        <time>2026-08-25T15:11:19Z</time>
      </trkpt>
      <trkpt lat="47.53496" lon="-2.73126">
        <ele>22.1</ele>
        <time>2026-08-25T15:11:20Z</time>
      </trkpt>
      <trkpt lat="47.53497" lon="-2.73122">
        <ele>22.1</ele>
        <time>2026-08-25T15:11:21Z</time>
      </trkpt>
      <trkpt lat="47.53499" lon="-2.73118">
        <ele>22</ele>
        <time>2026-08-25T15:11:22Z</time>
      </trkpt>
      <trkpt lat="47.53499" lon="-2.73113">
        <ele>22</ele>
        <time>2026-08-25T15:11:23Z</time>
      </trkpt>
      <trkpt lat="47.53499" lon="-2.73109">
        <ele>22</ele>
        <time>2026-08-25T15:11:24Z</time>
      </trkpt>
      <trkpt lat="47.53499" lon="-2.73104">
        <ele>22</ele>
        <time>2026-08-25T15:11:25Z</time>
      </trkpt>
      <trkpt lat="47.53499" lon="-2.73099">
        <ele>22</ele>
        <time>2026-08-25T15:11:26Z</time>
      </trkpt>
      <trkpt lat="47.535" lon="-2.73094">
        <ele>22</ele>
        <time>2026-08-25T15:11:27Z</time>
      </trkpt>
      <trkpt lat="47.53501" lon="-2.73089">
        <ele>22</ele>
        <time>2026-08-25T15:11:28Z</time>
      </trkpt>
      <trkpt lat="47.53501" lon="-2.73083">
        <ele>22</ele>
        <time>2026-08-25T15:11:29Z</time>
      </trkpt>
      <trkpt lat="47.53502" lon="-2.73078">
        <ele>22</ele>
        <time>2026-08-25T15:11:30Z</time>
      </trkpt>
      <trkpt lat="47.53502" lon="-2.73072">
        <ele>22</ele>
        <time>2026-08-25T15:11:31Z</time>
      </trkpt>
      <trkpt lat="47.53503" lon="-2.73066">
        <ele>22</ele>
        <time>2026-08-25T15:11:32Z</time>
      </trkpt>
      <trkpt lat="47.53503" lon="-2.73061">
        <ele>22</ele>
        <time>2026-08-25T15:11:33Z</time>
      </trkpt>
      <trkpt lat="47.53504" lon="-2.73056">
        <ele>22</ele>
        <time>2026-08-25T15:11:34Z</time>
      </trkpt>
      <trkpt lat="47.53505" lon="-2.73051">
        <ele>22</ele>
        <time>2026-08-25T15:11:35Z</time>
      </trkpt>
      <trkpt lat="47.53505" lon="-2.73046">
        <ele>22</ele>
        <time>2026-08-25T15:11:36Z</time>
      </trkpt>
      <trkpt lat="47.53506" lon="-2.7304">
        <ele>22</ele>
        <time>2026-08-25T15:11:37Z</time>
      </trkpt>
      <trkpt lat="47.53506" lon="-2.73035">
        <ele>22</ele>
        <time>2026-08-25T15:11:38Z</time>
      </trkpt>
      <trkpt lat="47.53507" lon="-2.7303">
        <ele>22</ele>
        <time>2026-08-25T15:11:39Z</time>
      </trkpt>
      <trkpt lat="47.53508" lon="-2.73024">
        <ele>22</ele>
        <time>2026-08-25T15:11:40Z</time>
      </trkpt>
      <trkpt lat="47.53508" lon="-2.73018">
        <ele>21.9</ele>
        <time>2026-08-25T15:11:41Z</time>
      </trkpt>
      <trkpt lat="47.53509" lon="-2.73012">
        <ele>21.8</ele>
        <time>2026-08-25T15:11:42Z</time>
      </trkpt>
      <trkpt lat="47.5351" lon="-2.73006">
        <ele>21.7</ele>
        <time>2026-08-25T15:11:43Z</time>
      </trkpt>
      <trkpt lat="47.53511" lon="-2.73">
        <ele>21.6</ele>
        <time>2026-08-25T15:11:44Z</time>
      </trkpt>
      <trkpt lat="47.53511" lon="-2.72993">
        <ele>21.6</ele>
        <time>2026-08-25T15:11:45Z</time>
      </trkpt>
      <trkpt lat="47.53512" lon="-2.72987">
        <ele>21.6</ele>
        <time>2026-08-25T15:11:46Z</time>
      </trkpt>
      <trkpt lat="47.53513" lon="-2.7298">
        <ele>21.5</ele>
        <time>2026-08-25T15:11:47Z</time>
      </trkpt>
      <trkpt lat="47.53514" lon="-2.72974">
        <ele>21.5</ele>
        <time>2026-08-25T15:11:48Z</time>
      </trkpt>
      <trkpt lat="47.53514" lon="-2.72967">
        <ele>21.5</ele>
        <time>2026-08-25T15:11:49Z</time>
      </trkpt>
      <trkpt lat="47.53515" lon="-2.7296">
        <ele>21.5</ele>
        <time>2026-08-25T15:11:50Z</time>
      </trkpt>
      <trkpt lat="47.53515" lon="-2.72952">
        <ele>21.5</ele>
        <time>2026-08-25T15:11:51Z</time>
      </trkpt>
      <trkpt lat="47.53516" lon="-2.72945">
        <ele>21.4</ele>
        <time>2026-08-25T15:11:52Z</time>
      </trkpt>
      <trkpt lat="47.53517" lon="-2.72938">
        <ele>21.2</ele>
        <time>2026-08-25T15:11:53Z</time>
      </trkpt>
      <trkpt lat="47.53517" lon="-2.7293">
        <ele>21.1</ele>
        <time>2026-08-25T15:11:54Z</time>
      </trkpt>
      <trkpt lat="47.53518" lon="-2.72923">
        <ele>20.9</ele>
        <time>2026-08-25T15:11:55Z</time>
      </trkpt>
      <trkpt lat="47.53519" lon="-2.72915">
        <ele>20.7</ele>
        <time>2026-08-25T15:11:56Z</time>
      </trkpt>
      <trkpt lat="47.5352" lon="-2.72908">
        <ele>20.8</ele>
        <time>2026-08-25T15:11:57Z</time>
      </trkpt>
      <trkpt lat="47.5352" lon="-2.729">
        <ele>21</ele>
        <time>2026-08-25T15:11:58Z</time>
      </trkpt>
      <trkpt lat="47.53521" lon="-2.72892">
        <ele>21.2</ele>
        <time>2026-08-25T15:11:59Z</time>
      </trkpt>
      <trkpt lat="47.53521" lon="-2.72885">
        <ele>21.2</ele>
        <time>2026-08-25T15:12:00Z</time>
      </trkpt>
      <trkpt lat="47.53522" lon="-2.72877">
        <ele>21.2</ele>
        <time>2026-08-25T15:12:01Z</time>
      </trkpt>
      <trkpt lat="47.53523" lon="-2.7287">
        <ele>21.2</ele>
        <time>2026-08-25T15:12:02Z</time>
      </trkpt>
      <trkpt lat="47.53523" lon="-2.72863">
        <ele>21.2</ele>
        <time>2026-08-25T15:12:03Z</time>
      </trkpt>
      <trkpt lat="47.53524" lon="-2.72856">
        <ele>21.2</ele>
        <time>2026-08-25T15:12:04Z</time>
      </trkpt>
      <trkpt lat="47.53524" lon="-2.7285">
        <ele>21.2</ele>
        <time>2026-08-25T15:12:05Z</time>
      </trkpt>
      <trkpt lat="47.53524" lon="-2.72843">
        <ele>21.2</ele>
        <time>2026-08-25T15:12:06Z</time>
      </trkpt>
      <trkpt lat="47.53525" lon="-2.72836">
        <ele>21.2</ele>
        <time>2026-08-25T15:12:07Z</time>
      </trkpt>
      <trkpt lat="47.53525" lon="-2.72829">
        <ele>21.3</ele>
        <time>2026-08-25T15:12:08Z</time>
      </trkpt>
      <trkpt lat="47.53525" lon="-2.72822">
        <ele>21.6</ele>
        <time>2026-08-25T15:12:09Z</time>
      </trkpt>
      <trkpt lat="47.53525" lon="-2.72815">
        <ele>21.8</ele>
        <time>2026-08-25T15:12:10Z</time>
      </trkpt>
      <trkpt lat="47.53525" lon="-2.72808">
        <ele>22</ele>
        <time>2026-08-25T15:12:11Z</time>
      </trkpt>
      <trkpt lat="47.53525" lon="-2.72801">
        <ele>22.1</ele>
        <time>2026-08-25T15:12:12Z</time>
      </trkpt>
      <trkpt lat="47.53525" lon="-2.72794">
        <ele>22.1</ele>
        <time>2026-08-25T15:12:13Z</time>
      </trkpt>
      <trkpt lat="47.53525" lon="-2.72787">
        <ele>22.2</ele>
        <time>2026-08-25T15:12:14Z</time>
      </trkpt>
      <trkpt lat="47.53525" lon="-2.72781">
        <ele>22.2</ele>
        <time>2026-08-25T15:12:15Z</time>
      </trkpt>
      <trkpt lat="47.53525" lon="-2.72774">
        <ele>22.2</ele>
        <time>2026-08-25T15:12:16Z</time>
      </trkpt>
      <trkpt lat="47.53525" lon="-2.72768">
        <ele>22.2</ele>
        <time>2026-08-25T15:12:17Z</time>
      </trkpt>
      <trkpt lat="47.53526" lon="-2.72761">
        <ele>22.1</ele>
        <time>2026-08-25T15:12:18Z</time>
      </trkpt>
      <trkpt lat="47.53527" lon="-2.72755">
        <ele>22.1</ele>
        <time>2026-08-25T15:12:19Z</time>
      </trkpt>
      <trkpt lat="47.53527" lon="-2.72749">
        <ele>22.1</ele>
        <time>2026-08-25T15:12:20Z</time>
      </trkpt>
      <trkpt lat="47.53529" lon="-2.72743">
        <ele>22.2</ele>
        <time>2026-08-25T15:12:21Z</time>
      </trkpt>
      <trkpt lat="47.5353" lon="-2.72737">
        <ele>22.4</ele>
        <time>2026-08-25T15:12:22Z</time>
      </trkpt>
      <trkpt lat="47.53532" lon="-2.72731">
        <ele>22.6</ele>
        <time>2026-08-25T15:12:23Z</time>
      </trkpt>
      <trkpt lat="47.53534" lon="-2.72726">
        <ele>22.7</ele>
        <time>2026-08-25T15:12:24Z</time>
      </trkpt>
      <trkpt lat="47.53536" lon="-2.72721">
        <ele>22.7</ele>
        <time>2026-08-25T15:12:25Z</time>
      </trkpt>
      <trkpt lat="47.53539" lon="-2.72716">
        <ele>22.6</ele>
        <time>2026-08-25T15:12:26Z</time>
      </trkpt>
      <trkpt lat="47.53542" lon="-2.7271">
        <ele>22.5</ele>
        <time>2026-08-25T15:12:27Z</time>
      </trkpt>
      <trkpt lat="47.53545" lon="-2.72705">
        <ele>22.4</ele>
        <time>2026-08-25T15:12:28Z</time>
      </trkpt>
      <trkpt lat="47.53548" lon="-2.727">
        <ele>22.3</ele>
        <time>2026-08-25T15:12:29Z</time>
      </trkpt>
      <trkpt lat="47.53551" lon="-2.72695">
        <ele>22.2</ele>
        <time>2026-08-25T15:12:30Z</time>
      </trkpt>
      <trkpt lat="47.53554" lon="-2.7269">
        <ele>22.1</ele>
        <time>2026-08-25T15:12:31Z</time>
      </trkpt>
      <trkpt lat="47.53557" lon="-2.72685">
        <ele>22</ele>
        <time>2026-08-25T15:12:32Z</time>
      </trkpt>
      <trkpt lat="47.5356" lon="-2.7268">
        <ele>22</ele>
        <time>2026-08-25T15:12:33Z</time>
      </trkpt>
      <trkpt lat="47.53563" lon="-2.72674">
        <ele>22</ele>
        <time>2026-08-25T15:12:34Z</time>
      </trkpt>
      <trkpt lat="47.53566" lon="-2.72669">
        <ele>22</ele>
        <time>2026-08-25T15:12:35Z</time>
      </trkpt>
      <trkpt lat="47.53568" lon="-2.72664">
        <ele>22</ele>
        <time>2026-08-25T15:12:36Z</time>
      </trkpt>
      <trkpt lat="47.5357" lon="-2.72659">
        <ele>22</ele>
        <time>2026-08-25T15:12:37Z</time>
      </trkpt>
      <trkpt lat="47.53573" lon="-2.72653">
        <ele>22</ele>
        <time>2026-08-25T15:12:38Z</time>
      </trkpt>
      <trkpt lat="47.53575" lon="-2.72647">
        <ele>22</ele>
        <time>2026-08-25T15:12:39Z</time>
      </trkpt>
      <trkpt lat="47.53577" lon="-2.72642">
        <ele>22</ele>
        <time>2026-08-25T15:12:40Z</time>
      </trkpt>
      <trkpt lat="47.53579" lon="-2.72637">
        <ele>22</ele>
        <time>2026-08-25T15:12:41Z</time>
      </trkpt>
      <trkpt lat="47.53581" lon="-2.72631">
        <ele>22</ele>
        <time>2026-08-25T15:12:42Z</time>
      </trkpt>
      <trkpt lat="47.53582" lon="-2.72626">
        <ele>22</ele>
        <time>2026-08-25T15:12:43Z</time>
      </trkpt>
      <trkpt lat="47.53583" lon="-2.72621">
        <ele>22</ele>
        <time>2026-08-25T15:12:44Z</time>
      </trkpt>
      <trkpt lat="47.53584" lon="-2.72616">
        <ele>22</ele>
        <time>2026-08-25T15:12:45Z</time>
      </trkpt>
      <trkpt lat="47.53586" lon="-2.72612">
        <ele>22</ele>
        <time>2026-08-25T15:12:46Z</time>
      </trkpt>
      <trkpt lat="47.53588" lon="-2.72609">
        <ele>22</ele>
        <time>2026-08-25T15:12:47Z</time>
      </trkpt>
      <trkpt lat="47.5359" lon="-2.72607">
        <ele>22</ele>
        <time>2026-08-25T15:12:48Z</time>
      </trkpt>
      <trkpt lat="47.53593" lon="-2.72604">
        <ele>22</ele>
        <time>2026-08-25T15:12:49Z</time>
      </trkpt>
      <trkpt lat="47.53597" lon="-2.72603">
        <ele>22</ele>
        <time>2026-08-25T15:12:50Z</time>
      </trkpt>
      <trkpt lat="47.53601" lon="-2.72602">
        <ele>22</ele>
        <time>2026-08-25T15:12:51Z</time>
      </trkpt>
      <trkpt lat="47.53606" lon="-2.72602">
        <ele>22</ele>
        <time>2026-08-25T15:12:52Z</time>
      </trkpt>
      <trkpt lat="47.5361" lon="-2.72602">
        <ele>22</ele>
        <time>2026-08-25T15:12:53Z</time>
      </trkpt>
      <trkpt lat="47.53615" lon="-2.72603">
        <ele>21.9</ele>
        <time>2026-08-25T15:12:54Z</time>
      </trkpt>
      <trkpt lat="47.5362" lon="-2.72603">
        <ele>21.7</ele>
        <time>2026-08-25T15:12:55Z</time>
      </trkpt>
      <trkpt lat="47.53625" lon="-2.72603">
        <ele>21.5</ele>
        <time>2026-08-25T15:12:56Z</time>
      </trkpt>
      <trkpt lat="47.5363" lon="-2.72604">
        <ele>21.3</ele>
        <time>2026-08-25T15:12:57Z</time>
      </trkpt>
      <trkpt lat="47.53635" lon="-2.72604">
        <ele>21.1</ele>
        <time>2026-08-25T15:12:58Z</time>
      </trkpt>
      <trkpt lat="47.5364" lon="-2.72604">
        <ele>21</ele>
        <time>2026-08-25T15:12:59Z</time>
      </trkpt>
      <trkpt lat="47.53645" lon="-2.72604">
        <ele>21</ele>
        <time>2026-08-25T15:13:00Z</time>
      </trkpt>
      <trkpt lat="47.5365" lon="-2.72605">
        <ele>21</ele>
        <time>2026-08-25T15:13:01Z</time>
      </trkpt>
      <trkpt lat="47.53655" lon="-2.72604">
        <ele>21</ele>
        <time>2026-08-25T15:13:02Z</time>
      </trkpt>
      <trkpt lat="47.53661" lon="-2.72602">
        <ele>21</ele>
        <time>2026-08-25T15:13:03Z</time>
      </trkpt>
      <trkpt lat="47.53665" lon="-2.72598">
        <ele>21</ele>
        <time>2026-08-25T15:13:04Z</time>
      </trkpt>
      <trkpt lat="47.53669" lon="-2.72593">
        <ele>20.9</ele>
        <time>2026-08-25T15:13:05Z</time>
      </trkpt>
      <trkpt lat="47.53674" lon="-2.72588">
        <ele>20.8</ele>
        <time>2026-08-25T15:13:06Z</time>
      </trkpt>
      <trkpt lat="47.53678" lon="-2.72584">
        <ele>20.6</ele>
        <time>2026-08-25T15:13:07Z</time>
      </trkpt>
      <trkpt lat="47.53683" lon="-2.72579">
        <ele>20.3</ele>
        <time>2026-08-25T15:13:08Z</time>
      </trkpt>
      <trkpt lat="47.53688" lon="-2.72575">
        <ele>20.2</ele>
        <time>2026-08-25T15:13:09Z</time>
      </trkpt>
      <trkpt lat="47.53693" lon="-2.7257">
        <ele>20</ele>
        <time>2026-08-25T15:13:10Z</time>
      </trkpt>
      <trkpt lat="47.53697" lon="-2.72566">
        <ele>20</ele>
        <time>2026-08-25T15:13:11Z</time>
      </trkpt>
      <trkpt lat="47.53702" lon="-2.72562">
        <ele>20</ele>
        <time>2026-08-25T15:13:12Z</time>
      </trkpt>
      <trkpt lat="47.53706" lon="-2.72558">
        <ele>20</ele>
        <time>2026-08-25T15:13:13Z</time>
      </trkpt>
      <trkpt lat="47.53711" lon="-2.72554">
        <ele>20</ele>
        <time>2026-08-25T15:13:14Z</time>
      </trkpt>
      <trkpt lat="47.53716" lon="-2.72552">
        <ele>19.9</ele>
        <time>2026-08-25T15:13:15Z</time>
      </trkpt>
      <trkpt lat="47.53722" lon="-2.7255">
        <ele>19.8</ele>
        <time>2026-08-25T15:13:16Z</time>
      </trkpt>
      <trkpt lat="47.53727" lon="-2.72549">
        <ele>19.8</ele>
        <time>2026-08-25T15:13:17Z</time>
      </trkpt>
      <trkpt lat="47.53732" lon="-2.72549">
        <ele>19.8</ele>
        <time>2026-08-25T15:13:18Z</time>
      </trkpt>
      <trkpt lat="47.53737" lon="-2.72549">
        <ele>19.8</ele>
        <time>2026-08-25T15:13:19Z</time>
      </trkpt>
      <trkpt lat="47.53742" lon="-2.72549">
        <ele>19.8</ele>
        <time>2026-08-25T15:13:20Z</time>
      </trkpt>
      <trkpt lat="47.53747" lon="-2.72549">
        <ele>19.8</ele>
        <time>2026-08-25T15:13:21Z</time>
      </trkpt>
      <trkpt lat="47.53752" lon="-2.72549">
        <ele>19.7</ele>
        <time>2026-08-25T15:13:22Z</time>
      </trkpt>
      <trkpt lat="47.53757" lon="-2.72549">
        <ele>19.6</ele>
        <time>2026-08-25T15:13:23Z</time>
      </trkpt>
      <trkpt lat="47.53762" lon="-2.72549">
        <ele>19.4</ele>
        <time>2026-08-25T15:13:24Z</time>
      </trkpt>
      <trkpt lat="47.53766" lon="-2.7255">
        <ele>19.3</ele>
        <time>2026-08-25T15:13:25Z</time>
      </trkpt>
      <trkpt lat="47.53771" lon="-2.7255">
        <ele>19.2</ele>
        <time>2026-08-25T15:13:26Z</time>
      </trkpt>
      <trkpt lat="47.53776" lon="-2.7255">
        <ele>19.1</ele>
        <time>2026-08-25T15:13:27Z</time>
      </trkpt>
      <trkpt lat="47.5378" lon="-2.7255">
        <ele>19</ele>
        <time>2026-08-25T15:13:28Z</time>
      </trkpt>
      <trkpt lat="47.53785" lon="-2.7255">
        <ele>19</ele>
        <time>2026-08-25T15:13:29Z</time>
      </trkpt>
      <trkpt lat="47.53789" lon="-2.7255">
        <ele>19</ele>
        <time>2026-08-25T15:13:30Z</time>
      </trkpt>
      <trkpt lat="47.53794" lon="-2.7255">
        <ele>19</ele>
        <time>2026-08-25T15:13:31Z</time>
      </trkpt>
      <trkpt lat="47.53799" lon="-2.7255">
        <ele>19</ele>
        <time>2026-08-25T15:13:32Z</time>
      </trkpt>
      <trkpt lat="47.53804" lon="-2.7255">
        <ele>19</ele>
        <time>2026-08-25T15:13:33Z</time>
      </trkpt>
      <trkpt lat="47.53808" lon="-2.72551">
        <ele>19</ele>
        <time>2026-08-25T15:13:34Z</time>
      </trkpt>
      <trkpt lat="47.53812" lon="-2.72551">
        <ele>19</ele>
        <time>2026-08-25T15:13:35Z</time>
      </trkpt>
      <trkpt lat="47.53816" lon="-2.72552">
        <ele>19</ele>
        <time>2026-08-25T15:13:36Z</time>
      </trkpt>
      <trkpt lat="47.5382" lon="-2.72552">
        <ele>19</ele>
        <time>2026-08-25T15:13:37Z</time>
      </trkpt>
      <trkpt lat="47.53824" lon="-2.72552">
        <ele>19</ele>
        <time>2026-08-25T15:13:38Z</time>
      </trkpt>
      <trkpt lat="47.53829" lon="-2.72553">
        <ele>19</ele>
        <time>2026-08-25T15:13:39Z</time>
      </trkpt>
      <trkpt lat="47.53832" lon="-2.72553">
        <ele>19</ele>
        <time>2026-08-25T15:13:40Z</time>
      </trkpt>
      <trkpt lat="47.53836" lon="-2.72553">
        <ele>19</ele>
        <time>2026-08-25T15:13:41Z</time>
      </trkpt>
      <trkpt lat="47.53841" lon="-2.72552">
        <ele>19</ele>
        <time>2026-08-25T15:13:42Z</time>
      </trkpt>
      <trkpt lat="47.53846" lon="-2.72552">
        <ele>18.9</ele>
        <time>2026-08-25T15:13:43Z</time>
      </trkpt>
      <trkpt lat="47.53851" lon="-2.7255">
        <ele>18.9</ele>
        <time>2026-08-25T15:13:44Z</time>
      </trkpt>
      <trkpt lat="47.53855" lon="-2.72549">
        <ele>18.8</ele>
        <time>2026-08-25T15:13:45Z</time>
      </trkpt>
      <trkpt lat="47.5386" lon="-2.72549">
        <ele>18.8</ele>
        <time>2026-08-25T15:13:46Z</time>
      </trkpt>
      <trkpt lat="47.53864" lon="-2.72547">
        <ele>18.6</ele>
        <time>2026-08-25T15:13:47Z</time>
      </trkpt>
      <trkpt lat="47.53868" lon="-2.72546">
        <ele>18.4</ele>
        <time>2026-08-25T15:13:48Z</time>
      </trkpt>
      <trkpt lat="47.53871" lon="-2.72545">
        <ele>18.3</ele>
        <time>2026-08-25T15:13:49Z</time>
      </trkpt>
      <trkpt lat="47.53876" lon="-2.72544">
        <ele>18</ele>
        <time>2026-08-25T15:13:50Z</time>
      </trkpt>
      <trkpt lat="47.53881" lon="-2.72541">
        <ele>17.8</ele>
        <time>2026-08-25T15:13:51Z</time>
      </trkpt>
      <trkpt lat="47.53887" lon="-2.72538">
        <ele>17.4</ele>
        <time>2026-08-25T15:13:52Z</time>
      </trkpt>
      <trkpt lat="47.53892" lon="-2.72534">
        <ele>17.1</ele>
        <time>2026-08-25T15:13:53Z</time>
      </trkpt>
      <trkpt lat="47.53897" lon="-2.72531">
        <ele>16.8</ele>
        <time>2026-08-25T15:13:54Z</time>
      </trkpt>
      <trkpt lat="47.53902" lon="-2.72528">
        <ele>16.5</ele>
        <time>2026-08-25T15:13:55Z</time>
      </trkpt>
      <trkpt lat="47.53907" lon="-2.72525">
        <ele>16.3</ele>
        <time>2026-08-25T15:13:56Z</time>
      </trkpt>
      <trkpt lat="47.53912" lon="-2.72522">
        <ele>16.2</ele>
        <time>2026-08-25T15:13:57Z</time>
      </trkpt>
      <trkpt lat="47.53925" lon="-2.72514">
        <ele>15.7</ele>
        <time>2026-08-25T15:13:58Z</time>
      </trkpt>
      <trkpt lat="47.53925" lon="-2.72514">
        <ele>15.7</ele>
        <time>2026-08-25T15:13:59Z</time>
      </trkpt>
      <trkpt lat="47.53931" lon="-2.7251">
        <ele>15.5</ele>
        <time>2026-08-25T15:14:00Z</time>
      </trkpt>
      <trkpt lat="47.53937" lon="-2.72505">
        <ele>15.3</ele>
        <time>2026-08-25T15:14:01Z</time>
      </trkpt>
      <trkpt lat="47.53943" lon="-2.725">
        <ele>15.1</ele>
        <time>2026-08-25T15:14:02Z</time>
      </trkpt>
      <trkpt lat="47.53949" lon="-2.72496">
        <ele>14.7</ele>
        <time>2026-08-25T15:14:03Z</time>
      </trkpt>
      <trkpt lat="47.53954" lon="-2.72491">
        <ele>14.3</ele>
        <time>2026-08-25T15:14:04Z</time>
      </trkpt>
      <trkpt lat="47.53959" lon="-2.72487">
        <ele>14</ele>
        <time>2026-08-25T15:14:05Z</time>
      </trkpt>
      <trkpt lat="47.53965" lon="-2.72483">
        <ele>13.6</ele>
        <time>2026-08-25T15:14:06Z</time>
      </trkpt>
      <trkpt lat="47.5397" lon="-2.72479">
        <ele>13.3</ele>
        <time>2026-08-25T15:14:07Z</time>
      </trkpt>
      <trkpt lat="47.53975" lon="-2.72476">
        <ele>13.1</ele>
        <time>2026-08-25T15:14:08Z</time>
      </trkpt>
      <trkpt lat="47.5398" lon="-2.72471">
        <ele>13</ele>
        <time>2026-08-25T15:14:09Z</time>
      </trkpt>
      <trkpt lat="47.53985" lon="-2.72466">
        <ele>12.8</ele>
        <time>2026-08-25T15:14:10Z</time>
      </trkpt>
      <trkpt lat="47.5399" lon="-2.72462">
        <ele>12.6</ele>
        <time>2026-08-25T15:14:11Z</time>
      </trkpt>
      <trkpt lat="47.53994" lon="-2.72458">
        <ele>12.5</ele>
        <time>2026-08-25T15:14:12Z</time>
      </trkpt>
      <trkpt lat="47.53998" lon="-2.72454">
        <ele>12.3</ele>
        <time>2026-08-25T15:14:13Z</time>
      </trkpt>
      <trkpt lat="47.54" lon="-2.7245">
        <ele>12.2</ele>
        <time>2026-08-25T15:14:14Z</time>
      </trkpt>
      <trkpt lat="47.54004" lon="-2.72445">
        <ele>12</ele>
        <time>2026-08-25T15:14:15Z</time>
      </trkpt>
      <trkpt lat="47.54007" lon="-2.72441">
        <ele>12</ele>
        <time>2026-08-25T15:14:16Z</time>
      </trkpt>
      <trkpt lat="47.5401" lon="-2.72437">
        <ele>11.9</ele>
        <time>2026-08-25T15:14:17Z</time>
      </trkpt>
      <trkpt lat="47.54014" lon="-2.72433">
        <ele>11.8</ele>
        <time>2026-08-25T15:14:18Z</time>
      </trkpt>
      <trkpt lat="47.54018" lon="-2.72429">
        <ele>11.6</ele>
        <time>2026-08-25T15:14:19Z</time>
      </trkpt>
      <trkpt lat="47.54021" lon="-2.72425">
        <ele>11.5</ele>
        <time>2026-08-25T15:14:20Z</time>
      </trkpt>
      <trkpt lat="47.54026" lon="-2.72421">
        <ele>11.2</ele>
        <time>2026-08-25T15:14:21Z</time>
      </trkpt>
      <trkpt lat="47.54029" lon="-2.72417">
        <ele>11</ele>
        <time>2026-08-25T15:14:22Z</time>
      </trkpt>
      <trkpt lat="47.54033" lon="-2.72413">
        <ele>11</ele>
        <time>2026-08-25T15:14:23Z</time>
      </trkpt>
      <trkpt lat="47.54038" lon="-2.72408">
        <ele>11</ele>
        <time>2026-08-25T15:14:24Z</time>
      </trkpt>
      <trkpt lat="47.54041" lon="-2.72404">
        <ele>11</ele>
        <time>2026-08-25T15:14:25Z</time>
      </trkpt>
      <trkpt lat="47.54044" lon="-2.72399">
        <ele>11</ele>
        <time>2026-08-25T15:14:26Z</time>
      </trkpt>
      <trkpt lat="47.54046" lon="-2.72394">
        <ele>11</ele>
        <time>2026-08-25T15:14:27Z</time>
      </trkpt>
      <trkpt lat="47.54049" lon="-2.7239">
        <ele>11</ele>
        <time>2026-08-25T15:14:28Z</time>
      </trkpt>
      <trkpt lat="47.54051" lon="-2.72385">
        <ele>10.9</ele>
        <time>2026-08-25T15:14:29Z</time>
      </trkpt>
      <trkpt lat="47.54054" lon="-2.72382">
        <ele>10.8</ele>
        <time>2026-08-25T15:14:30Z</time>
      </trkpt>
      <trkpt lat="47.54058" lon="-2.72379">
        <ele>10.6</ele>
        <time>2026-08-25T15:14:31Z</time>
      </trkpt>
      <trkpt lat="47.54062" lon="-2.72378">
        <ele>10.5</ele>
        <time>2026-08-25T15:14:32Z</time>
      </trkpt>
      <trkpt lat="47.54065" lon="-2.72377">
        <ele>10.4</ele>
        <time>2026-08-25T15:14:33Z</time>
      </trkpt>
      <trkpt lat="47.5407" lon="-2.72375">
        <ele>10.2</ele>
        <time>2026-08-25T15:14:34Z</time>
      </trkpt>
      <trkpt lat="47.54075" lon="-2.72373">
        <ele>10.1</ele>
        <time>2026-08-25T15:14:35Z</time>
      </trkpt>
      <trkpt lat="47.5408" lon="-2.72372">
        <ele>10</ele>
        <time>2026-08-25T15:14:36Z</time>
      </trkpt>
      <trkpt lat="47.54085" lon="-2.72371">
        <ele>10.1</ele>
        <time>2026-08-25T15:14:37Z</time>
      </trkpt>
      <trkpt lat="47.54089" lon="-2.72369">
        <ele>10.2</ele>
        <time>2026-08-25T15:14:38Z</time>
      </trkpt>
      <trkpt lat="47.54094" lon="-2.72368">
        <ele>10.4</ele>
        <time>2026-08-25T15:14:39Z</time>
      </trkpt>
      <trkpt lat="47.541" lon="-2.72367">
        <ele>10.6</ele>
        <time>2026-08-25T15:14:40Z</time>
      </trkpt>
      <trkpt lat="47.54105" lon="-2.72365">
        <ele>10.8</ele>
        <time>2026-08-25T15:14:41Z</time>
      </trkpt>
      <trkpt lat="47.5411" lon="-2.72364">
        <ele>11</ele>
        <time>2026-08-25T15:14:42Z</time>
      </trkpt>
      <trkpt lat="47.54114" lon="-2.72362">
        <ele>10.9</ele>
        <time>2026-08-25T15:14:43Z</time>
      </trkpt>
      <trkpt lat="47.54119" lon="-2.7236">
        <ele>10.6</ele>
        <time>2026-08-25T15:14:44Z</time>
      </trkpt>
      <trkpt lat="47.54124" lon="-2.72358">
        <ele>10.4</ele>
        <time>2026-08-25T15:14:45Z</time>
      </trkpt>
      <trkpt lat="47.54129" lon="-2.72357">
        <ele>10.2</ele>
        <time>2026-08-25T15:14:46Z</time>
      </trkpt>
      <trkpt lat="47.54134" lon="-2.72356">
        <ele>10</ele>
        <time>2026-08-25T15:14:47Z</time>
      </trkpt>
      <trkpt lat="47.54138" lon="-2.72355">
        <ele>9.8</ele>
        <time>2026-08-25T15:14:48Z</time>
      </trkpt>
      <trkpt lat="47.54143" lon="-2.72354">
        <ele>9.9</ele>
        <time>2026-08-25T15:14:49Z</time>
      </trkpt>
      <trkpt lat="47.54148" lon="-2.72354">
        <ele>10.2</ele>
        <time>2026-08-25T15:14:50Z</time>
      </trkpt>
      <trkpt lat="47.54152" lon="-2.72353">
        <ele>10.3</ele>
        <time>2026-08-25T15:14:51Z</time>
      </trkpt>
      <trkpt lat="47.54156" lon="-2.72351">
        <ele>10.5</ele>
        <time>2026-08-25T15:14:52Z</time>
      </trkpt>
      <trkpt lat="47.5416" lon="-2.7235">
        <ele>10.7</ele>
        <time>2026-08-25T15:14:53Z</time>
      </trkpt>
      <trkpt lat="47.54165" lon="-2.72349">
        <ele>10.9</ele>
        <time>2026-08-25T15:14:54Z</time>
      </trkpt>
      <trkpt lat="47.54169" lon="-2.72348">
        <ele>11</ele>
        <time>2026-08-25T15:14:55Z</time>
      </trkpt>
      <trkpt lat="47.54173" lon="-2.72347">
        <ele>11.1</ele>
        <time>2026-08-25T15:14:56Z</time>
      </trkpt>
      <trkpt lat="47.54178" lon="-2.72346">
        <ele>11.2</ele>
        <time>2026-08-25T15:14:57Z</time>
      </trkpt>
      <trkpt lat="47.54186" lon="-2.72343">
        <ele>11.2</ele>
        <time>2026-08-25T15:14:58Z</time>
      </trkpt>
      <trkpt lat="47.54186" lon="-2.72343">
        <ele>11.2</ele>
        <time>2026-08-25T15:14:59Z</time>
      </trkpt>
      <trkpt lat="47.54191" lon="-2.72342">
        <ele>11.3</ele>
        <time>2026-08-25T15:15:00Z</time>
      </trkpt>
      <trkpt lat="47.54195" lon="-2.72341">
        <ele>11.3</ele>
        <time>2026-08-25T15:15:01Z</time>
      </trkpt>
      <trkpt lat="47.542" lon="-2.72339">
        <ele>11.2</ele>
        <time>2026-08-25T15:15:02Z</time>
      </trkpt>
      <trkpt lat="47.54204" lon="-2.72338">
        <ele>11.2</ele>
        <time>2026-08-25T15:15:03Z</time>
      </trkpt>
      <trkpt lat="47.54209" lon="-2.72337">
        <ele>11.2</ele>
        <time>2026-08-25T15:15:04Z</time>
      </trkpt>
      <trkpt lat="47.54213" lon="-2.72336">
        <ele>11.2</ele>
        <time>2026-08-25T15:15:05Z</time>
      </trkpt>
      <trkpt lat="47.54217" lon="-2.72335">
        <ele>11.1</ele>
        <time>2026-08-25T15:15:06Z</time>
      </trkpt>
      <trkpt lat="47.54222" lon="-2.72334">
        <ele>11</ele>
        <time>2026-08-25T15:15:07Z</time>
      </trkpt>
      <trkpt lat="47.54227" lon="-2.72332">
        <ele>11</ele>
        <time>2026-08-25T15:15:08Z</time>
      </trkpt>
      <trkpt lat="47.54231" lon="-2.72332">
        <ele>11</ele>
        <time>2026-08-25T15:15:09Z</time>
      </trkpt>
      <trkpt lat="47.54236" lon="-2.7233">
        <ele>11.1</ele>
        <time>2026-08-25T15:15:10Z</time>
      </trkpt>
      <trkpt lat="47.5424" lon="-2.7233">
        <ele>11.1</ele>
        <time>2026-08-25T15:15:11Z</time>
      </trkpt>
      <trkpt lat="47.54245" lon="-2.72329">
        <ele>11.1</ele>
        <time>2026-08-25T15:15:12Z</time>
      </trkpt>
      <trkpt lat="47.54249" lon="-2.72329">
        <ele>11.2</ele>
        <time>2026-08-25T15:15:13Z</time>
      </trkpt>
      <trkpt lat="47.54252" lon="-2.72328">
        <ele>11.2</ele>
        <time>2026-08-25T15:15:14Z</time>
      </trkpt>
      <trkpt lat="47.54256" lon="-2.72327">
        <ele>11.2</ele>
        <time>2026-08-25T15:15:15Z</time>
      </trkpt>
      <trkpt lat="47.54259" lon="-2.72326">
        <ele>11.3</ele>
        <time>2026-08-25T15:15:16Z</time>
      </trkpt>
      <trkpt lat="47.54263" lon="-2.72326">
        <ele>11.3</ele>
        <time>2026-08-25T15:15:17Z</time>
      </trkpt>
      <trkpt lat="47.54265" lon="-2.72325">
        <ele>11.3</ele>
        <time>2026-08-25T15:15:18Z</time>
      </trkpt>
      <trkpt lat="47.54268" lon="-2.72325">
        <ele>11.3</ele>
        <time>2026-08-25T15:15:19Z</time>
      </trkpt>
      <trkpt lat="47.54271" lon="-2.72324">
        <ele>11.3</ele>
        <time>2026-08-25T15:15:20Z</time>
      </trkpt>
      <trkpt lat="47.54273" lon="-2.72323">
        <ele>11.4</ele>
        <time>2026-08-25T15:15:21Z</time>
      </trkpt>
      <trkpt lat="47.54275" lon="-2.72323">
        <ele>11.4</ele>
        <time>2026-08-25T15:15:22Z</time>
      </trkpt>
      <trkpt lat="47.54278" lon="-2.72322">
        <ele>11.4</ele>
        <time>2026-08-25T15:15:23Z</time>
      </trkpt>
      <trkpt lat="47.54281" lon="-2.72322">
        <ele>11.5</ele>
        <time>2026-08-25T15:15:24Z</time>
      </trkpt>
      <trkpt lat="47.54284" lon="-2.72321">
        <ele>11.6</ele>
        <time>2026-08-25T15:15:25Z</time>
      </trkpt>
      <trkpt lat="47.54287" lon="-2.7232">
        <ele>11.7</ele>
        <time>2026-08-25T15:15:26Z</time>
      </trkpt>
      <trkpt lat="47.5429" lon="-2.72319">
        <ele>11.7</ele>
        <time>2026-08-25T15:15:27Z</time>
      </trkpt>
      <trkpt lat="47.54294" lon="-2.72318">
        <ele>11.8</ele>
        <time>2026-08-25T15:15:28Z</time>
      </trkpt>
      <trkpt lat="47.54297" lon="-2.72318">
        <ele>11.9</ele>
        <time>2026-08-25T15:15:29Z</time>
      </trkpt>
      <trkpt lat="47.54301" lon="-2.72317">
        <ele>11.9</ele>
        <time>2026-08-25T15:15:30Z</time>
      </trkpt>
      <trkpt lat="47.54304" lon="-2.72316">
        <ele>12</ele>
        <time>2026-08-25T15:15:31Z</time>
      </trkpt>
      <trkpt lat="47.54307" lon="-2.72316">
        <ele>12</ele>
        <time>2026-08-25T15:15:32Z</time>
      </trkpt>
      <trkpt lat="47.5431" lon="-2.72315">
        <ele>11.9</ele>
        <time>2026-08-25T15:15:33Z</time>
      </trkpt>
      <trkpt lat="47.54313" lon="-2.72315">
        <ele>11.8</ele>
        <time>2026-08-25T15:15:34Z</time>
      </trkpt>
      <trkpt lat="47.54315" lon="-2.72315">
        <ele>11.8</ele>
        <time>2026-08-25T15:15:35Z</time>
      </trkpt>
      <trkpt lat="47.54318" lon="-2.72314">
        <ele>11.7</ele>
        <time>2026-08-25T15:15:36Z</time>
      </trkpt>
      <trkpt lat="47.5432" lon="-2.72313">
        <ele>11.6</ele>
        <time>2026-08-25T15:15:37Z</time>
      </trkpt>
      <trkpt lat="47.54322" lon="-2.72311">
        <ele>11.5</ele>
        <time>2026-08-25T15:15:38Z</time>
      </trkpt>
      <trkpt lat="47.54324" lon="-2.72311">
        <ele>11.5</ele>
        <time>2026-08-25T15:15:39Z</time>
      </trkpt>
      <trkpt lat="47.54326" lon="-2.7231">
        <ele>11.4</ele>
        <time>2026-08-25T15:15:40Z</time>
      </trkpt>
      <trkpt lat="47.54328" lon="-2.7231">
        <ele>11.3</ele>
        <time>2026-08-25T15:15:41Z</time>
      </trkpt>
      <trkpt lat="47.5433" lon="-2.72309">
        <ele>11.2</ele>
        <time>2026-08-25T15:15:42Z</time>
      </trkpt>
      <trkpt lat="47.54333" lon="-2.72309">
        <ele>11.1</ele>
        <time>2026-08-25T15:15:43Z</time>
      </trkpt>
      <trkpt lat="47.54337" lon="-2.72308">
        <ele>11.3</ele>
        <time>2026-08-25T15:15:44Z</time>
      </trkpt>
      <trkpt lat="47.5434" lon="-2.72307">
        <ele>11.5</ele>
        <time>2026-08-25T15:15:45Z</time>
      </trkpt>
      <trkpt lat="47.54343" lon="-2.72306">
        <ele>11.7</ele>
        <time>2026-08-25T15:15:46Z</time>
      </trkpt>
      <trkpt lat="47.54347" lon="-2.72305">
        <ele>12</ele>
        <time>2026-08-25T15:15:47Z</time>
      </trkpt>
      <trkpt lat="47.54351" lon="-2.72304">
        <ele>12.2</ele>
        <time>2026-08-25T15:15:48Z</time>
      </trkpt>
      <trkpt lat="47.54355" lon="-2.72303">
        <ele>12.5</ele>
        <time>2026-08-25T15:15:49Z</time>
      </trkpt>
      <trkpt lat="47.54359" lon="-2.72302">
        <ele>12.7</ele>
        <time>2026-08-25T15:15:50Z</time>
      </trkpt>
      <trkpt lat="47.54363" lon="-2.72301">
        <ele>12.8</ele>
        <time>2026-08-25T15:15:51Z</time>
      </trkpt>
      <trkpt lat="47.54367" lon="-2.723">
        <ele>12.8</ele>
        <time>2026-08-25T15:15:52Z</time>
      </trkpt>
      <trkpt lat="47.54371" lon="-2.723">
        <ele>12.8</ele>
        <time>2026-08-25T15:15:53Z</time>
      </trkpt>
      <trkpt lat="47.54375" lon="-2.72299">
        <ele>12.8</ele>
        <time>2026-08-25T15:15:54Z</time>
      </trkpt>
      <trkpt lat="47.54379" lon="-2.72298">
        <ele>12.7</ele>
        <time>2026-08-25T15:15:55Z</time>
      </trkpt>
      <trkpt lat="47.54383" lon="-2.72297">
        <ele>12.7</ele>
        <time>2026-08-25T15:15:56Z</time>
      </trkpt>
      <trkpt lat="47.54387" lon="-2.72296">
        <ele>12.7</ele>
        <time>2026-08-25T15:15:57Z</time>
      </trkpt>
      <trkpt lat="47.54395" lon="-2.72294">
        <ele>12.6</ele>
        <time>2026-08-25T15:15:58Z</time>
      </trkpt>
      <trkpt lat="47.54395" lon="-2.72294">
        <ele>12.6</ele>
        <time>2026-08-25T15:15:59Z</time>
      </trkpt>
      <trkpt lat="47.54398" lon="-2.72293">
        <ele>12.5</ele>
        <time>2026-08-25T15:16:00Z</time>
      </trkpt>
      <trkpt lat="47.54402" lon="-2.72292">
        <ele>12.5</ele>
        <time>2026-08-25T15:16:01Z</time>
      </trkpt>
      <trkpt lat="47.54406" lon="-2.72291">
        <ele>12.5</ele>
        <time>2026-08-25T15:16:02Z</time>
      </trkpt>
      <trkpt lat="47.5441" lon="-2.7229">
        <ele>12.4</ele>
        <time>2026-08-25T15:16:03Z</time>
      </trkpt>
      <trkpt lat="47.54414" lon="-2.7229">
        <ele>12.4</ele>
        <time>2026-08-25T15:16:04Z</time>
      </trkpt>
      <trkpt lat="47.54417" lon="-2.72289">
        <ele>12.4</ele>
        <time>2026-08-25T15:16:05Z</time>
      </trkpt>
      <trkpt lat="47.54421" lon="-2.72288">
        <ele>12.6</ele>
        <time>2026-08-25T15:16:06Z</time>
      </trkpt>
      <trkpt lat="47.54425" lon="-2.72287">
        <ele>12.7</ele>
        <time>2026-08-25T15:16:07Z</time>
      </trkpt>
      <trkpt lat="47.54429" lon="-2.72284">
        <ele>12.9</ele>
        <time>2026-08-25T15:16:08Z</time>
      </trkpt>
      <trkpt lat="47.54432" lon="-2.72281">
        <ele>13.1</ele>
        <time>2026-08-25T15:16:09Z</time>
      </trkpt>
      <trkpt lat="47.54435" lon="-2.72276">
        <ele>13.3</ele>
        <time>2026-08-25T15:16:10Z</time>
      </trkpt>
      <trkpt lat="47.54438" lon="-2.72271">
        <ele>13.3</ele>
        <time>2026-08-25T15:16:11Z</time>
      </trkpt>
      <trkpt lat="47.54441" lon="-2.72266">
        <ele>13.4</ele>
        <time>2026-08-25T15:16:12Z</time>
      </trkpt>
      <trkpt lat="47.54443" lon="-2.72261">
        <ele>13.3</ele>
        <time>2026-08-25T15:16:13Z</time>
      </trkpt>
      <trkpt lat="47.54446" lon="-2.72256">
        <ele>13.2</ele>
        <time>2026-08-25T15:16:14Z</time>
      </trkpt>
      <trkpt lat="47.54449" lon="-2.72251">
        <ele>13</ele>
        <time>2026-08-25T15:16:15Z</time>
      </trkpt>
      <trkpt lat="47.54452" lon="-2.72246">
        <ele>12.9</ele>
        <time>2026-08-25T15:16:16Z</time>
      </trkpt>
      <trkpt lat="47.54455" lon="-2.72241">
        <ele>12.9</ele>
        <time>2026-08-25T15:16:17Z</time>
      </trkpt>
      <trkpt lat="47.54458" lon="-2.72236">
        <ele>13</ele>
        <time>2026-08-25T15:16:18Z</time>
      </trkpt>
      <trkpt lat="47.5446" lon="-2.72231">
        <ele>13.1</ele>
        <time>2026-08-25T15:16:19Z</time>
      </trkpt>
      <trkpt lat="47.54463" lon="-2.72225">
        <ele>13.3</ele>
        <time>2026-08-25T15:16:20Z</time>
      </trkpt>
      <trkpt lat="47.54466" lon="-2.7222">
        <ele>13.4</ele>
        <time>2026-08-25T15:16:21Z</time>
      </trkpt>
      <trkpt lat="47.54469" lon="-2.72215">
        <ele>13.3</ele>
        <time>2026-08-25T15:16:22Z</time>
      </trkpt>
      <trkpt lat="47.54472" lon="-2.7221">
        <ele>13.1</ele>
        <time>2026-08-25T15:16:23Z</time>
      </trkpt>
      <trkpt lat="47.54475" lon="-2.72205">
        <ele>12.8</ele>
        <time>2026-08-25T15:16:24Z</time>
      </trkpt>
      <trkpt lat="47.54479" lon="-2.722">
        <ele>12.7</ele>
        <time>2026-08-25T15:16:25Z</time>
      </trkpt>
      <trkpt lat="47.54482" lon="-2.72195">
        <ele>12.7</ele>
        <time>2026-08-25T15:16:26Z</time>
      </trkpt>
      <trkpt lat="47.54485" lon="-2.7219">
        <ele>12.9</ele>
        <time>2026-08-25T15:16:27Z</time>
      </trkpt>
      <trkpt lat="47.54488" lon="-2.72185">
        <ele>13.1</ele>
        <time>2026-08-25T15:16:28Z</time>
      </trkpt>
      <trkpt lat="47.54492" lon="-2.7218">
        <ele>13.4</ele>
        <time>2026-08-25T15:16:29Z</time>
      </trkpt>
      <trkpt lat="47.54495" lon="-2.72175">
        <ele>13.6</ele>
        <time>2026-08-25T15:16:30Z</time>
      </trkpt>
      <trkpt lat="47.54498" lon="-2.7217">
        <ele>13.9</ele>
        <time>2026-08-25T15:16:31Z</time>
      </trkpt>
      <trkpt lat="47.54501" lon="-2.72164">
        <ele>13.9</ele>
        <time>2026-08-25T15:16:32Z</time>
      </trkpt>
      <trkpt lat="47.54505" lon="-2.72159">
        <ele>13.6</ele>
        <time>2026-08-25T15:16:33Z</time>
      </trkpt>
      <trkpt lat="47.54508" lon="-2.72154">
        <ele>13.5</ele>
        <time>2026-08-25T15:16:34Z</time>
      </trkpt>
      <trkpt lat="47.54511" lon="-2.72148">
        <ele>13.5</ele>
        <time>2026-08-25T15:16:35Z</time>
      </trkpt>
      <trkpt lat="47.54514" lon="-2.72142">
        <ele>13.5</ele>
        <time>2026-08-25T15:16:36Z</time>
      </trkpt>
      <trkpt lat="47.54516" lon="-2.72136">
        <ele>13.6</ele>
        <time>2026-08-25T15:16:37Z</time>
      </trkpt>
      <trkpt lat="47.5452" lon="-2.7213">
        <ele>13.7</ele>
        <time>2026-08-25T15:16:38Z</time>
      </trkpt>
      <trkpt lat="47.54523" lon="-2.72125">
        <ele>13.8</ele>
        <time>2026-08-25T15:16:39Z</time>
      </trkpt>
      <trkpt lat="47.54527" lon="-2.7212">
        <ele>14</ele>
        <time>2026-08-25T15:16:40Z</time>
      </trkpt>
      <trkpt lat="47.54531" lon="-2.72115">
        <ele>14</ele>
        <time>2026-08-25T15:16:41Z</time>
      </trkpt>
      <trkpt lat="47.54534" lon="-2.7211">
        <ele>14</ele>
        <time>2026-08-25T15:16:42Z</time>
      </trkpt>
      <trkpt lat="47.54538" lon="-2.72105">
        <ele>13.9</ele>
        <time>2026-08-25T15:16:43Z</time>
      </trkpt>
      <trkpt lat="47.54541" lon="-2.721">
        <ele>13.8</ele>
        <time>2026-08-25T15:16:44Z</time>
      </trkpt>
      <trkpt lat="47.54544" lon="-2.72096">
        <ele>13.8</ele>
        <time>2026-08-25T15:16:45Z</time>
      </trkpt>
      <trkpt lat="47.54548" lon="-2.72091">
        <ele>13.8</ele>
        <time>2026-08-25T15:16:46Z</time>
      </trkpt>
      <trkpt lat="47.54551" lon="-2.72086">
        <ele>13.9</ele>
        <time>2026-08-25T15:16:47Z</time>
      </trkpt>
      <trkpt lat="47.54555" lon="-2.72081">
        <ele>14</ele>
        <time>2026-08-25T15:16:48Z</time>
      </trkpt>
      <trkpt lat="47.54558" lon="-2.72077">
        <ele>13.9</ele>
        <time>2026-08-25T15:16:49Z</time>
      </trkpt>
      <trkpt lat="47.54562" lon="-2.72072">
        <ele>13.9</ele>
        <time>2026-08-25T15:16:50Z</time>
      </trkpt>
      <trkpt lat="47.54566" lon="-2.72068">
        <ele>13.8</ele>
        <time>2026-08-25T15:16:51Z</time>
      </trkpt>
      <trkpt lat="47.54569" lon="-2.72063">
        <ele>13.9</ele>
        <time>2026-08-25T15:16:52Z</time>
      </trkpt>
      <trkpt lat="47.54573" lon="-2.72058">
        <ele>13.9</ele>
        <time>2026-08-25T15:16:53Z</time>
      </trkpt>
      <trkpt lat="47.54576" lon="-2.72054">
        <ele>14</ele>
        <time>2026-08-25T15:16:54Z</time>
      </trkpt>
      <trkpt lat="47.5458" lon="-2.72049">
        <ele>14</ele>
        <time>2026-08-25T15:16:55Z</time>
      </trkpt>
      <trkpt lat="47.54584" lon="-2.72045">
        <ele>14</ele>
        <time>2026-08-25T15:16:56Z</time>
      </trkpt>
      <trkpt lat="47.54587" lon="-2.7204">
        <ele>13.9</ele>
        <time>2026-08-25T15:16:57Z</time>
      </trkpt>
      <trkpt lat="47.54595" lon="-2.72031">
        <ele>13.6</ele>
        <time>2026-08-25T15:16:58Z</time>
      </trkpt>
      <trkpt lat="47.54595" lon="-2.72031">
        <ele>13.6</ele>
        <time>2026-08-25T15:16:59Z</time>
      </trkpt>
      <trkpt lat="47.54599" lon="-2.72027">
        <ele>13.5</ele>
        <time>2026-08-25T15:17:00Z</time>
      </trkpt>
      <trkpt lat="47.54603" lon="-2.72023">
        <ele>13.5</ele>
        <time>2026-08-25T15:17:01Z</time>
      </trkpt>
      <trkpt lat="47.54606" lon="-2.72018">
        <ele>13.8</ele>
        <time>2026-08-25T15:17:02Z</time>
      </trkpt>
      <trkpt lat="47.5461" lon="-2.72014">
        <ele>14</ele>
        <time>2026-08-25T15:17:03Z</time>
      </trkpt>
      <trkpt lat="47.54614" lon="-2.72009">
        <ele>14.2</ele>
        <time>2026-08-25T15:17:04Z</time>
      </trkpt>
      <trkpt lat="47.54618" lon="-2.72005">
        <ele>14.2</ele>
        <time>2026-08-25T15:17:05Z</time>
      </trkpt>
      <trkpt lat="47.54622" lon="-2.72001">
        <ele>14.2</ele>
        <time>2026-08-25T15:17:06Z</time>
      </trkpt>
      <trkpt lat="47.54626" lon="-2.71996">
        <ele>14</ele>
        <time>2026-08-25T15:17:07Z</time>
      </trkpt>
      <trkpt lat="47.5463" lon="-2.71992">
        <ele>13.8</ele>
        <time>2026-08-25T15:17:08Z</time>
      </trkpt>
      <trkpt lat="47.54634" lon="-2.71988">
        <ele>13.7</ele>
        <time>2026-08-25T15:17:09Z</time>
      </trkpt>
      <trkpt lat="47.54637" lon="-2.71983">
        <ele>13.7</ele>
        <time>2026-08-25T15:17:10Z</time>
      </trkpt>
      <trkpt lat="47.5464" lon="-2.71978">
        <ele>13.8</ele>
        <time>2026-08-25T15:17:11Z</time>
      </trkpt>
      <trkpt lat="47.54643" lon="-2.71971">
        <ele>13.9</ele>
        <time>2026-08-25T15:17:12Z</time>
      </trkpt>
      <trkpt lat="47.54644" lon="-2.71963">
        <ele>13.9</ele>
        <time>2026-08-25T15:17:13Z</time>
      </trkpt>
      <trkpt lat="47.54642" lon="-2.71956">
        <ele>14</ele>
        <time>2026-08-25T15:17:14Z</time>
      </trkpt>
      <trkpt lat="47.5464" lon="-2.71949">
        <ele>14</ele>
        <time>2026-08-25T15:17:15Z</time>
      </trkpt>
      <trkpt lat="47.54637" lon="-2.71943">
        <ele>14.1</ele>
        <time>2026-08-25T15:17:16Z</time>
      </trkpt>
      <trkpt lat="47.54635" lon="-2.71939">
        <ele>14.1</ele>
        <time>2026-08-25T15:17:17Z</time>
      </trkpt>
      <trkpt lat="47.54633" lon="-2.71934">
        <ele>14.1</ele>
        <time>2026-08-25T15:17:18Z</time>
      </trkpt>
      <trkpt lat="47.54632" lon="-2.71928">
        <ele>14.1</ele>
        <time>2026-08-25T15:17:19Z</time>
      </trkpt>
      <trkpt lat="47.54632" lon="-2.71923">
        <ele>14.1</ele>
        <time>2026-08-25T15:17:20Z</time>
      </trkpt>
      <trkpt lat="47.54634" lon="-2.71918">
        <ele>14</ele>
        <time>2026-08-25T15:17:21Z</time>
      </trkpt>
      <trkpt lat="47.54636" lon="-2.71913">
        <ele>14</ele>
        <time>2026-08-25T15:17:22Z</time>
      </trkpt>
      <trkpt lat="47.54639" lon="-2.7191">
        <ele>14</ele>
        <time>2026-08-25T15:17:23Z</time>
      </trkpt>
      <trkpt lat="47.54643" lon="-2.71907">
        <ele>14.1</ele>
        <time>2026-08-25T15:17:24Z</time>
      </trkpt>
      <trkpt lat="47.54646" lon="-2.71906">
        <ele>14.3</ele>
        <time>2026-08-25T15:17:25Z</time>
      </trkpt>
      <trkpt lat="47.54649" lon="-2.71908">
        <ele>14.4</ele>
        <time>2026-08-25T15:17:26Z</time>
      </trkpt>
      <trkpt lat="47.54651" lon="-2.7191">
        <ele>14.4</ele>
        <time>2026-08-25T15:17:27Z</time>
      </trkpt>
      <trkpt lat="47.54654" lon="-2.71912">
        <ele>14.5</ele>
        <time>2026-08-25T15:17:28Z</time>
      </trkpt>
      <trkpt lat="47.54657" lon="-2.71913">
        <ele>14.7</ele>
        <time>2026-08-25T15:17:29Z</time>
      </trkpt>
      <trkpt lat="47.54661" lon="-2.71913">
        <ele>14.8</ele>
        <time>2026-08-25T15:17:30Z</time>
      </trkpt>
      <trkpt lat="47.54664" lon="-2.71912">
        <ele>14.9</ele>
        <time>2026-08-25T15:17:31Z</time>
      </trkpt>
      <trkpt lat="47.54668" lon="-2.71913">
        <ele>15</ele>
        <time>2026-08-25T15:17:32Z</time>
      </trkpt>
      <trkpt lat="47.5467" lon="-2.71915">
        <ele>15</ele>
        <time>2026-08-25T15:17:33Z</time>
      </trkpt>
      <trkpt lat="47.54672" lon="-2.71919">
        <ele>15</ele>
        <time>2026-08-25T15:17:34Z</time>
      </trkpt>
      <trkpt lat="47.54673" lon="-2.71924">
        <ele>14.9</ele>
        <time>2026-08-25T15:17:35Z</time>
      </trkpt>
      <trkpt lat="47.54675" lon="-2.71928">
        <ele>14.9</ele>
        <time>2026-08-25T15:17:36Z</time>
      </trkpt>
      <trkpt lat="47.54678" lon="-2.71929">
        <ele>14.8</ele>
        <time>2026-08-25T15:17:37Z</time>
      </trkpt>
      <trkpt lat="47.54681" lon="-2.71928">
        <ele>14.8</ele>
        <time>2026-08-25T15:17:38Z</time>
      </trkpt>
      <trkpt lat="47.54684" lon="-2.71926">
        <ele>14.8</ele>
        <time>2026-08-25T15:17:39Z</time>
      </trkpt>
      <trkpt lat="47.54687" lon="-2.71923">
        <ele>14.8</ele>
        <time>2026-08-25T15:17:40Z</time>
      </trkpt>
      <trkpt lat="47.5469" lon="-2.7192">
        <ele>14.9</ele>
        <time>2026-08-25T15:17:41Z</time>
      </trkpt>
      <trkpt lat="47.54693" lon="-2.71917">
        <ele>15</ele>
        <time>2026-08-25T15:17:42Z</time>
      </trkpt>
      <trkpt lat="47.54696" lon="-2.71914">
        <ele>15</ele>
        <time>2026-08-25T15:17:43Z</time>
      </trkpt>
      <trkpt lat="47.547" lon="-2.71912">
        <ele>15</ele>
        <time>2026-08-25T15:17:44Z</time>
      </trkpt>
      <trkpt lat="47.54704" lon="-2.71909">
        <ele>15</ele>
        <time>2026-08-25T15:17:45Z</time>
      </trkpt>
      <trkpt lat="47.54708" lon="-2.71907">
        <ele>15</ele>
        <time>2026-08-25T15:17:46Z</time>
      </trkpt>
      <trkpt lat="47.54712" lon="-2.71905">
        <ele>15</ele>
        <time>2026-08-25T15:17:47Z</time>
      </trkpt>
      <trkpt lat="47.54716" lon="-2.71903">
        <ele>15</ele>
        <time>2026-08-25T15:17:48Z</time>
      </trkpt>
      <trkpt lat="47.54719" lon="-2.719">
        <ele>15</ele>
        <time>2026-08-25T15:17:49Z</time>
      </trkpt>
      <trkpt lat="47.54723" lon="-2.71898">
        <ele>15</ele>
        <time>2026-08-25T15:17:50Z</time>
      </trkpt>
      <trkpt lat="47.54727" lon="-2.71895">
        <ele>14.9</ele>
        <time>2026-08-25T15:17:51Z</time>
      </trkpt>
      <trkpt lat="47.54731" lon="-2.71893">
        <ele>14.9</ele>
        <time>2026-08-25T15:17:52Z</time>
      </trkpt>
      <trkpt lat="47.54735" lon="-2.71891">
        <ele>14.9</ele>
        <time>2026-08-25T15:17:53Z</time>
      </trkpt>
      <trkpt lat="47.54738" lon="-2.71889">
        <ele>15</ele>
        <time>2026-08-25T15:17:54Z</time>
      </trkpt>
      <trkpt lat="47.54742" lon="-2.71889">
        <ele>15</ele>
        <time>2026-08-25T15:17:55Z</time>
      </trkpt>
      <trkpt lat="47.54746" lon="-2.7189">
        <ele>14.9</ele>
        <time>2026-08-25T15:17:56Z</time>
      </trkpt>
      <trkpt lat="47.5475" lon="-2.7189">
        <ele>14.9</ele>
        <time>2026-08-25T15:17:57Z</time>
      </trkpt>
      <trkpt lat="47.54757" lon="-2.71888">
        <ele>14.5</ele>
        <time>2026-08-25T15:17:58Z</time>
      </trkpt>
      <trkpt lat="47.54757" lon="-2.71888">
        <ele>14.5</ele>
        <time>2026-08-25T15:17:59Z</time>
      </trkpt>
      <trkpt lat="47.5476" lon="-2.71886">
        <ele>14.3</ele>
        <time>2026-08-25T15:18:00Z</time>
      </trkpt>
      <trkpt lat="47.54763" lon="-2.71884">
        <ele>14.1</ele>
        <time>2026-08-25T15:18:01Z</time>
      </trkpt>
      <trkpt lat="47.54767" lon="-2.71883">
        <ele>13.8</ele>
        <time>2026-08-25T15:18:02Z</time>
      </trkpt>
      <trkpt lat="47.5477" lon="-2.71881">
        <ele>13.7</ele>
        <time>2026-08-25T15:18:03Z</time>
      </trkpt>
      <trkpt lat="47.54774" lon="-2.7188">
        <ele>13.5</ele>
        <time>2026-08-25T15:18:04Z</time>
      </trkpt>
      <trkpt lat="47.54777" lon="-2.71879">
        <ele>13.4</ele>
        <time>2026-08-25T15:18:05Z</time>
      </trkpt>
      <trkpt lat="47.54781" lon="-2.71878">
        <ele>13.3</ele>
        <time>2026-08-25T15:18:06Z</time>
      </trkpt>
      <trkpt lat="47.54785" lon="-2.71876">
        <ele>13.2</ele>
        <time>2026-08-25T15:18:07Z</time>
      </trkpt>
      <trkpt lat="47.54789" lon="-2.71875">
        <ele>13.1</ele>
        <time>2026-08-25T15:18:08Z</time>
      </trkpt>
      <trkpt lat="47.54793" lon="-2.71874">
        <ele>13</ele>
        <time>2026-08-25T15:18:09Z</time>
      </trkpt>
      <trkpt lat="47.54797" lon="-2.71872">
        <ele>13.1</ele>
        <time>2026-08-25T15:18:10Z</time>
      </trkpt>
      <trkpt lat="47.548" lon="-2.71871">
        <ele>13.1</ele>
        <time>2026-08-25T15:18:11Z</time>
      </trkpt>
      <trkpt lat="47.54804" lon="-2.71869">
        <ele>13.2</ele>
        <time>2026-08-25T15:18:12Z</time>
      </trkpt>
      <trkpt lat="47.54808" lon="-2.71867">
        <ele>13.1</ele>
        <time>2026-08-25T15:18:13Z</time>
      </trkpt>
      <trkpt lat="47.54813" lon="-2.71866">
        <ele>12.8</ele>
        <time>2026-08-25T15:18:14Z</time>
      </trkpt>
      <trkpt lat="47.54818" lon="-2.71864">
        <ele>12.4</ele>
        <time>2026-08-25T15:18:15Z</time>
      </trkpt>
      <trkpt lat="47.54822" lon="-2.71862">
        <ele>12.2</ele>
        <time>2026-08-25T15:18:16Z</time>
      </trkpt>
      <trkpt lat="47.54827" lon="-2.7186">
        <ele>11.7</ele>
        <time>2026-08-25T15:18:17Z</time>
      </trkpt>
      <trkpt lat="47.54832" lon="-2.71858">
        <ele>11.4</ele>
        <time>2026-08-25T15:18:18Z</time>
      </trkpt>
      <trkpt lat="47.54837" lon="-2.71856">
        <ele>11.3</ele>
        <time>2026-08-25T15:18:19Z</time>
      </trkpt>
      <trkpt lat="47.54843" lon="-2.71854">
        <ele>11.3</ele>
        <time>2026-08-25T15:18:20Z</time>
      </trkpt>
      <trkpt lat="47.54848" lon="-2.71852">
        <ele>11.3</ele>
        <time>2026-08-25T15:18:21Z</time>
      </trkpt>
      <trkpt lat="47.54854" lon="-2.7185">
        <ele>11.4</ele>
        <time>2026-08-25T15:18:22Z</time>
      </trkpt>
      <trkpt lat="47.5486" lon="-2.71847">
        <ele>11.5</ele>
        <time>2026-08-25T15:18:23Z</time>
      </trkpt>
      <trkpt lat="47.54866" lon="-2.71844">
        <ele>11.6</ele>
        <time>2026-08-25T15:18:24Z</time>
      </trkpt>
      <trkpt lat="47.54872" lon="-2.71841">
        <ele>11.6</ele>
        <time>2026-08-25T15:18:25Z</time>
      </trkpt>
      <trkpt lat="47.54878" lon="-2.71837">
        <ele>11.5</ele>
        <time>2026-08-25T15:18:26Z</time>
      </trkpt>
      <trkpt lat="47.54885" lon="-2.71833">
        <ele>11.3</ele>
        <time>2026-08-25T15:18:27Z</time>
      </trkpt>
      <trkpt lat="47.54892" lon="-2.71829">
        <ele>10.9</ele>
        <time>2026-08-25T15:18:28Z</time>
      </trkpt>
      <trkpt lat="47.54899" lon="-2.71825">
        <ele>10.6</ele>
        <time>2026-08-25T15:18:29Z</time>
      </trkpt>
      <trkpt lat="47.54906" lon="-2.71821">
        <ele>10.4</ele>
        <time>2026-08-25T15:18:30Z</time>
      </trkpt>
      <trkpt lat="47.54913" lon="-2.71818">
        <ele>10.1</ele>
        <time>2026-08-25T15:18:31Z</time>
      </trkpt>
      <trkpt lat="47.5492" lon="-2.71814">
        <ele>10</ele>
        <time>2026-08-25T15:18:32Z</time>
      </trkpt>
      <trkpt lat="47.54926" lon="-2.7181">
        <ele>9.9</ele>
        <time>2026-08-25T15:18:33Z</time>
      </trkpt>
      <trkpt lat="47.54933" lon="-2.71806">
        <ele>10</ele>
        <time>2026-08-25T15:18:34Z</time>
      </trkpt>
      <trkpt lat="47.54939" lon="-2.71803">
        <ele>10</ele>
        <time>2026-08-25T15:18:35Z</time>
      </trkpt>
      <trkpt lat="47.54945" lon="-2.71799">
        <ele>10</ele>
        <time>2026-08-25T15:18:36Z</time>
      </trkpt>
      <trkpt lat="47.54951" lon="-2.71796">
        <ele>9.8</ele>
        <time>2026-08-25T15:18:37Z</time>
      </trkpt>
      <trkpt lat="47.54956" lon="-2.71792">
        <ele>9.6</ele>
        <time>2026-08-25T15:18:38Z</time>
      </trkpt>
      <trkpt lat="47.54962" lon="-2.71788">
        <ele>9.4</ele>
        <time>2026-08-25T15:18:39Z</time>
      </trkpt>
      <trkpt lat="47.54967" lon="-2.71785">
        <ele>9.2</ele>
        <time>2026-08-25T15:18:40Z</time>
      </trkpt>
      <trkpt lat="47.54973" lon="-2.71781">
        <ele>9</ele>
        <time>2026-08-25T15:18:41Z</time>
      </trkpt>
      <trkpt lat="47.54979" lon="-2.71779">
        <ele>9</ele>
        <time>2026-08-25T15:18:42Z</time>
      </trkpt>
      <trkpt lat="47.54985" lon="-2.71776">
        <ele>9</ele>
        <time>2026-08-25T15:18:43Z</time>
      </trkpt>
      <trkpt lat="47.54991" lon="-2.71774">
        <ele>8.9</ele>
        <time>2026-08-25T15:18:44Z</time>
      </trkpt>
      <trkpt lat="47.54998" lon="-2.71771">
        <ele>8.8</ele>
        <time>2026-08-25T15:18:45Z</time>
      </trkpt>
      <trkpt lat="47.55005" lon="-2.71768">
        <ele>8.6</ele>
        <time>2026-08-25T15:18:46Z</time>
      </trkpt>
      <trkpt lat="47.55011" lon="-2.71764">
        <ele>8.5</ele>
        <time>2026-08-25T15:18:47Z</time>
      </trkpt>
      <trkpt lat="47.55018" lon="-2.7176">
        <ele>8.4</ele>
        <time>2026-08-25T15:18:48Z</time>
      </trkpt>
      <trkpt lat="47.55025" lon="-2.71756">
        <ele>8.2</ele>
        <time>2026-08-25T15:18:49Z</time>
      </trkpt>
      <trkpt lat="47.55031" lon="-2.71752">
        <ele>8.1</ele>
        <time>2026-08-25T15:18:50Z</time>
      </trkpt>
      <trkpt lat="47.55038" lon="-2.71748">
        <ele>8</ele>
        <time>2026-08-25T15:18:51Z</time>
      </trkpt>
      <trkpt lat="47.55043" lon="-2.71743">
        <ele>7.9</ele>
        <time>2026-08-25T15:18:52Z</time>
      </trkpt>
      <trkpt lat="47.55048" lon="-2.71736">
        <ele>7.6</ele>
        <time>2026-08-25T15:18:53Z</time>
      </trkpt>
      <trkpt lat="47.55052" lon="-2.71729">
        <ele>7.3</ele>
        <time>2026-08-25T15:18:54Z</time>
      </trkpt>
      <trkpt lat="47.55055" lon="-2.71722">
        <ele>7</ele>
        <time>2026-08-25T15:18:55Z</time>
      </trkpt>
      <trkpt lat="47.55055" lon="-2.71714">
        <ele>7</ele>
        <time>2026-08-25T15:18:56Z</time>
      </trkpt>
      <trkpt lat="47.55054" lon="-2.71706">
        <ele>7.1</ele>
        <time>2026-08-25T15:18:57Z</time>
      </trkpt>
      <trkpt lat="47.55052" lon="-2.71691">
        <ele>7.2</ele>
        <time>2026-08-25T15:18:58Z</time>
      </trkpt>
      <trkpt lat="47.55052" lon="-2.71691">
        <ele>7.2</ele>
        <time>2026-08-25T15:18:59Z</time>
      </trkpt>
      <trkpt lat="47.55051" lon="-2.71684">
        <ele>7.5</ele>
        <time>2026-08-25T15:19:00Z</time>
      </trkpt>
      <trkpt lat="47.55052" lon="-2.71678">
        <ele>7.6</ele>
        <time>2026-08-25T15:19:01Z</time>
      </trkpt>
      <trkpt lat="47.55054" lon="-2.71675">
        <ele>7.7</ele>
        <time>2026-08-25T15:19:02Z</time>
      </trkpt>
      <trkpt lat="47.55057" lon="-2.71674">
        <ele>7.8</ele>
        <time>2026-08-25T15:19:03Z</time>
      </trkpt>
      <trkpt lat="47.55059" lon="-2.71672">
        <ele>8</ele>
        <time>2026-08-25T15:19:04Z</time>
      </trkpt>
      <trkpt lat="47.5506" lon="-2.7167">
        <ele>8.1</ele>
        <time>2026-08-25T15:19:05Z</time>
      </trkpt>
      <trkpt lat="47.5506" lon="-2.71669">
        <ele>8.1</ele>
        <time>2026-08-25T15:19:06Z</time>
      </trkpt>
      <trkpt lat="47.5506" lon="-2.71669">
        <ele>8.1</ele>
        <time>2026-08-25T15:19:07Z</time>
      </trkpt>
      <trkpt lat="47.5506" lon="-2.71669">
        <ele>8.1</ele>
        <time>2026-08-25T15:19:08Z</time>
      </trkpt>
      <trkpt lat="47.5506" lon="-2.71661">
        <ele>8.3</ele>
        <time>2026-08-25T15:19:13Z</time>
      </trkpt>
      <trkpt lat="47.55059" lon="-2.71658">
        <ele>8.4</ele>
        <time>2026-08-25T15:19:14Z</time>
      </trkpt>
      <trkpt lat="47.55058" lon="-2.71654">
        <ele>8.5</ele>
        <time>2026-08-25T15:19:15Z</time>
      </trkpt>
      <trkpt lat="47.55058" lon="-2.71649">
        <ele>8.7</ele>
        <time>2026-08-25T15:19:16Z</time>
      </trkpt>
      <trkpt lat="47.55059" lon="-2.71645">
        <ele>8.8</ele>
        <time>2026-08-25T15:19:17Z</time>
      </trkpt>
      <trkpt lat="47.5506" lon="-2.71642">
        <ele>8.9</ele>
        <time>2026-08-25T15:19:18Z</time>
      </trkpt>
      <trkpt lat="47.55063" lon="-2.71641">
        <ele>8.9</ele>
        <time>2026-08-25T15:19:19Z</time>
      </trkpt>
      <trkpt lat="47.55066" lon="-2.71641">
        <ele>9</ele>
        <time>2026-08-25T15:19:20Z</time>
      </trkpt>
      <trkpt lat="47.55069" lon="-2.71642">
        <ele>8.9</ele>
        <time>2026-08-25T15:19:21Z</time>
      </trkpt>
      <trkpt lat="47.55072" lon="-2.71643">
        <ele>8.9</ele>
        <time>2026-08-25T15:19:22Z</time>
      </trkpt>
      <trkpt lat="47.55076" lon="-2.71644">
        <ele>9</ele>
        <time>2026-08-25T15:19:23Z</time>
      </trkpt>
      <trkpt lat="47.5508" lon="-2.71645">
        <ele>9</ele>
        <time>2026-08-25T15:19:24Z</time>
      </trkpt>
      <trkpt lat="47.55084" lon="-2.71646">
        <ele>9</ele>
        <time>2026-08-25T15:19:25Z</time>
      </trkpt>
      <trkpt lat="47.55088" lon="-2.71647">
        <ele>9</ele>
        <time>2026-08-25T15:19:26Z</time>
      </trkpt>
      <trkpt lat="47.55092" lon="-2.71649">
        <ele>9</ele>
        <time>2026-08-25T15:19:27Z</time>
      </trkpt>
      <trkpt lat="47.55096" lon="-2.71651">
        <ele>9</ele>
        <time>2026-08-25T15:19:28Z</time>
      </trkpt>
      <trkpt lat="47.55099" lon="-2.71652">
        <ele>9</ele>
        <time>2026-08-25T15:19:29Z</time>
      </trkpt>
      <trkpt lat="47.55103" lon="-2.71654">
        <ele>9</ele>
        <time>2026-08-25T15:19:30Z</time>
      </trkpt>
      <trkpt lat="47.55106" lon="-2.71655">
        <ele>9</ele>
        <time>2026-08-25T15:19:31Z</time>
      </trkpt>
      <trkpt lat="47.5511" lon="-2.71654">
        <ele>9</ele>
        <time>2026-08-25T15:19:32Z</time>
      </trkpt>
      <trkpt lat="47.55113" lon="-2.71652">
        <ele>9</ele>
        <time>2026-08-25T15:19:33Z</time>
      </trkpt>
      <trkpt lat="47.55115" lon="-2.71648">
        <ele>9</ele>
        <time>2026-08-25T15:19:34Z</time>
      </trkpt>
      <trkpt lat="47.55116" lon="-2.71643">
        <ele>9</ele>
        <time>2026-08-25T15:19:35Z</time>
      </trkpt>
      <trkpt lat="47.55116" lon="-2.71639">
        <ele>9</ele>
        <time>2026-08-25T15:19:36Z</time>
      </trkpt>
      <trkpt lat="47.55117" lon="-2.71634">
        <ele>9</ele>
        <time>2026-08-25T15:19:37Z</time>
      </trkpt>
      <trkpt lat="47.55118" lon="-2.7163">
        <ele>9</ele>
        <time>2026-08-25T15:19:38Z</time>
      </trkpt>
      <trkpt lat="47.55121" lon="-2.71626">
        <ele>9</ele>
        <time>2026-08-25T15:19:39Z</time>
      </trkpt>
      <trkpt lat="47.55123" lon="-2.71625">
        <ele>9</ele>
        <time>2026-08-25T15:19:40Z</time>
      </trkpt>
      <trkpt lat="47.55125" lon="-2.71624">
        <ele>9</ele>
        <time>2026-08-25T15:19:41Z</time>
      </trkpt>
      <trkpt lat="47.55126" lon="-2.71625">
        <ele>9</ele>
        <time>2026-08-25T15:19:42Z</time>
      </trkpt>
      <trkpt lat="47.55127" lon="-2.71625">
        <ele>9</ele>
        <time>2026-08-25T15:19:43Z</time>
      </trkpt>
      <trkpt lat="47.55127" lon="-2.71626">
        <ele>9</ele>
        <time>2026-08-25T15:19:44Z</time>
      </trkpt>
      <trkpt lat="47.55128" lon="-2.71626">
        <ele>9</ele>
        <time>2026-08-25T15:19:45Z</time>
      </trkpt>
      <trkpt lat="47.55134" lon="-2.71627">
        <ele>9</ele>
        <time>2026-08-25T15:19:51Z</time>
      </trkpt>
      <trkpt lat="47.55137" lon="-2.71627">
        <ele>9</ele>
        <time>2026-08-25T15:19:52Z</time>
      </trkpt>
      <trkpt lat="47.5514" lon="-2.71627">
        <ele>9</ele>
        <time>2026-08-25T15:19:53Z</time>
      </trkpt>
      <trkpt lat="47.55144" lon="-2.71628">
        <ele>9</ele>
        <time>2026-08-25T15:19:54Z</time>
      </trkpt>
      <trkpt lat="47.55148" lon="-2.71628">
        <ele>9</ele>
        <time>2026-08-25T15:19:55Z</time>
      </trkpt>
      <trkpt lat="47.55152" lon="-2.71629">
        <ele>9</ele>
        <time>2026-08-25T15:19:56Z</time>
      </trkpt>
      <trkpt lat="47.55156" lon="-2.71629">
        <ele>9</ele>
        <time>2026-08-25T15:19:57Z</time>
      </trkpt>
      <trkpt lat="47.55165" lon="-2.71631">
        <ele>9</ele>
        <time>2026-08-25T15:19:58Z</time>
      </trkpt>
      <trkpt lat="47.55165" lon="-2.71631">
        <ele>9</ele>
        <time>2026-08-25T15:19:59Z</time>
      </trkpt>
      <trkpt lat="47.55169" lon="-2.71632">
        <ele>9.1</ele>
        <time>2026-08-25T15:20:00Z</time>
      </trkpt>
      <trkpt lat="47.55173" lon="-2.71633">
        <ele>9.2</ele>
        <time>2026-08-25T15:20:01Z</time>
      </trkpt>
      <trkpt lat="47.55178" lon="-2.71635">
        <ele>9.4</ele>
        <time>2026-08-25T15:20:02Z</time>
      </trkpt>
      <trkpt lat="47.55182" lon="-2.71636">
        <ele>9.6</ele>
        <time>2026-08-25T15:20:03Z</time>
      </trkpt>
      <trkpt lat="47.55187" lon="-2.71638">
        <ele>9.7</ele>
        <time>2026-08-25T15:20:04Z</time>
      </trkpt>
      <trkpt lat="47.55191" lon="-2.71639">
        <ele>9.9</ele>
        <time>2026-08-25T15:20:05Z</time>
      </trkpt>
      <trkpt lat="47.55196" lon="-2.7164">
        <ele>10.1</ele>
        <time>2026-08-25T15:20:06Z</time>
      </trkpt>
      <trkpt lat="47.55201" lon="-2.71642">
        <ele>10.2</ele>
        <time>2026-08-25T15:20:07Z</time>
      </trkpt>
      <trkpt lat="47.55205" lon="-2.71643">
        <ele>10.3</ele>
        <time>2026-08-25T15:20:08Z</time>
      </trkpt>
      <trkpt lat="47.5521" lon="-2.71644">
        <ele>10.5</ele>
        <time>2026-08-25T15:20:09Z</time>
      </trkpt>
      <trkpt lat="47.55215" lon="-2.71645">
        <ele>10.6</ele>
        <time>2026-08-25T15:20:10Z</time>
      </trkpt>
      <trkpt lat="47.55219" lon="-2.71646">
        <ele>10.7</ele>
        <time>2026-08-25T15:20:11Z</time>
      </trkpt>
      <trkpt lat="47.55224" lon="-2.71646">
        <ele>10.7</ele>
        <time>2026-08-25T15:20:12Z</time>
      </trkpt>
      <trkpt lat="47.55229" lon="-2.71646">
        <ele>10.7</ele>
        <time>2026-08-25T15:20:13Z</time>
      </trkpt>
      <trkpt lat="47.55233" lon="-2.71646">
        <ele>10.7</ele>
        <time>2026-08-25T15:20:14Z</time>
      </trkpt>
      <trkpt lat="47.55238" lon="-2.71644">
        <ele>10.8</ele>
        <time>2026-08-25T15:20:15Z</time>
      </trkpt>
      <trkpt lat="47.55242" lon="-2.71642">
        <ele>10.9</ele>
        <time>2026-08-25T15:20:16Z</time>
      </trkpt>
      <trkpt lat="47.55246" lon="-2.7164">
        <ele>11</ele>
        <time>2026-08-25T15:20:17Z</time>
      </trkpt>
      <trkpt lat="47.5525" lon="-2.71638">
        <ele>11</ele>
        <time>2026-08-25T15:20:18Z</time>
      </trkpt>
      <trkpt lat="47.55255" lon="-2.71635">
        <ele>10.9</ele>
        <time>2026-08-25T15:20:19Z</time>
      </trkpt>
      <trkpt lat="47.55259" lon="-2.71632">
        <ele>10.8</ele>
        <time>2026-08-25T15:20:20Z</time>
      </trkpt>
      <trkpt lat="47.55263" lon="-2.71629">
        <ele>10.9</ele>
        <time>2026-08-25T15:20:21Z</time>
      </trkpt>
      <trkpt lat="47.55267" lon="-2.71627">
        <ele>10.9</ele>
        <time>2026-08-25T15:20:22Z</time>
      </trkpt>
      <trkpt lat="47.55271" lon="-2.71624">
        <ele>11.1</ele>
        <time>2026-08-25T15:20:23Z</time>
      </trkpt>
      <trkpt lat="47.55276" lon="-2.71621">
        <ele>11.3</ele>
        <time>2026-08-25T15:20:24Z</time>
      </trkpt>
      <trkpt lat="47.5528" lon="-2.71618">
        <ele>11.4</ele>
        <time>2026-08-25T15:20:25Z</time>
      </trkpt>
      <trkpt lat="47.55284" lon="-2.71616">
        <ele>11.5</ele>
        <time>2026-08-25T15:20:26Z</time>
      </trkpt>
      <trkpt lat="47.55288" lon="-2.71613">
        <ele>11.5</ele>
        <time>2026-08-25T15:20:27Z</time>
      </trkpt>
      <trkpt lat="47.55293" lon="-2.71611">
        <ele>11.5</ele>
        <time>2026-08-25T15:20:28Z</time>
      </trkpt>
      <trkpt lat="47.55297" lon="-2.71608">
        <ele>11.5</ele>
        <time>2026-08-25T15:20:29Z</time>
      </trkpt>
      <trkpt lat="47.55301" lon="-2.71605">
        <ele>11.5</ele>
        <time>2026-08-25T15:20:30Z</time>
      </trkpt>
      <trkpt lat="47.55306" lon="-2.71603">
        <ele>11.6</ele>
        <time>2026-08-25T15:20:31Z</time>
      </trkpt>
      <trkpt lat="47.5531" lon="-2.716">
        <ele>11.7</ele>
        <time>2026-08-25T15:20:32Z</time>
      </trkpt>
      <trkpt lat="47.55314" lon="-2.71598">
        <ele>11.8</ele>
        <time>2026-08-25T15:20:33Z</time>
      </trkpt>
      <trkpt lat="47.55318" lon="-2.71595">
        <ele>12</ele>
        <time>2026-08-25T15:20:34Z</time>
      </trkpt>
      <trkpt lat="47.55322" lon="-2.71593">
        <ele>12.1</ele>
        <time>2026-08-25T15:20:35Z</time>
      </trkpt>
      <trkpt lat="47.55327" lon="-2.7159">
        <ele>12.3</ele>
        <time>2026-08-25T15:20:36Z</time>
      </trkpt>
      <trkpt lat="47.55331" lon="-2.71588">
        <ele>12.5</ele>
        <time>2026-08-25T15:20:37Z</time>
      </trkpt>
      <trkpt lat="47.55335" lon="-2.71586">
        <ele>12.6</ele>
        <time>2026-08-25T15:20:38Z</time>
      </trkpt>
      <trkpt lat="47.5534" lon="-2.71583">
        <ele>12.5</ele>
        <time>2026-08-25T15:20:39Z</time>
      </trkpt>
      <trkpt lat="47.55344" lon="-2.7158">
        <ele>12.3</ele>
        <time>2026-08-25T15:20:40Z</time>
      </trkpt>
      <trkpt lat="47.55349" lon="-2.71577">
        <ele>12.1</ele>
        <time>2026-08-25T15:20:41Z</time>
      </trkpt>
      <trkpt lat="47.55353" lon="-2.71575">
        <ele>12</ele>
        <time>2026-08-25T15:20:42Z</time>
      </trkpt>
      <trkpt lat="47.55357" lon="-2.71572">
        <ele>12</ele>
        <time>2026-08-25T15:20:43Z</time>
      </trkpt>
      <trkpt lat="47.55362" lon="-2.7157">
        <ele>12</ele>
        <time>2026-08-25T15:20:44Z</time>
      </trkpt>
      <trkpt lat="47.55366" lon="-2.71567">
        <ele>12.2</ele>
        <time>2026-08-25T15:20:45Z</time>
      </trkpt>
      <trkpt lat="47.5537" lon="-2.71564">
        <ele>12.4</ele>
        <time>2026-08-25T15:20:46Z</time>
      </trkpt>
      <trkpt lat="47.55375" lon="-2.71561">
        <ele>12.6</ele>
        <time>2026-08-25T15:20:47Z</time>
      </trkpt>
      <trkpt lat="47.55379" lon="-2.71558">
        <ele>12.8</ele>
        <time>2026-08-25T15:20:48Z</time>
      </trkpt>
      <trkpt lat="47.55384" lon="-2.71555">
        <ele>13</ele>
        <time>2026-08-25T15:20:49Z</time>
      </trkpt>
      <trkpt lat="47.55389" lon="-2.71553">
        <ele>13</ele>
        <time>2026-08-25T15:20:50Z</time>
      </trkpt>
      <trkpt lat="47.55394" lon="-2.7155">
        <ele>12.7</ele>
        <time>2026-08-25T15:20:51Z</time>
      </trkpt>
      <trkpt lat="47.55398" lon="-2.71547">
        <ele>12.4</ele>
        <time>2026-08-25T15:20:52Z</time>
      </trkpt>
      <trkpt lat="47.55403" lon="-2.71544">
        <ele>12.2</ele>
        <time>2026-08-25T15:20:53Z</time>
      </trkpt>
      <trkpt lat="47.55409" lon="-2.71541">
        <ele>11.9</ele>
        <time>2026-08-25T15:20:54Z</time>
      </trkpt>
      <trkpt lat="47.55414" lon="-2.71537">
        <ele>11.8</ele>
        <time>2026-08-25T15:20:55Z</time>
      </trkpt>
      <trkpt lat="47.55419" lon="-2.71534">
        <ele>11.7</ele>
        <time>2026-08-25T15:20:56Z</time>
      </trkpt>
      <trkpt lat="47.55424" lon="-2.71531">
        <ele>11.7</ele>
        <time>2026-08-25T15:20:57Z</time>
      </trkpt>
      <trkpt lat="47.55435" lon="-2.71525">
        <ele>11.4</ele>
        <time>2026-08-25T15:20:58Z</time>
      </trkpt>
      <trkpt lat="47.55435" lon="-2.71525">
        <ele>11.4</ele>
        <time>2026-08-25T15:20:59Z</time>
      </trkpt>
      <trkpt lat="47.5544" lon="-2.71522">
        <ele>11.3</ele>
        <time>2026-08-25T15:21:00Z</time>
      </trkpt>
      <trkpt lat="47.55445" lon="-2.71518">
        <ele>11.3</ele>
        <time>2026-08-25T15:21:01Z</time>
      </trkpt>
      <trkpt lat="47.55451" lon="-2.71515">
        <ele>11.4</ele>
        <time>2026-08-25T15:21:02Z</time>
      </trkpt>
      <trkpt lat="47.55456" lon="-2.71511">
        <ele>11.4</ele>
        <time>2026-08-25T15:21:03Z</time>
      </trkpt>
      <trkpt lat="47.55461" lon="-2.71508">
        <ele>11.3</ele>
        <time>2026-08-25T15:21:04Z</time>
      </trkpt>
      <trkpt lat="47.55466" lon="-2.71505">
        <ele>11.2</ele>
        <time>2026-08-25T15:21:05Z</time>
      </trkpt>
      <trkpt lat="47.55471" lon="-2.71502">
        <ele>11</ele>
        <time>2026-08-25T15:21:06Z</time>
      </trkpt>
      <trkpt lat="47.55476" lon="-2.71499">
        <ele>11</ele>
        <time>2026-08-25T15:21:07Z</time>
      </trkpt>
      <trkpt lat="47.55481" lon="-2.71496">
        <ele>11</ele>
        <time>2026-08-25T15:21:08Z</time>
      </trkpt>
      <trkpt lat="47.55486" lon="-2.71494">
        <ele>11</ele>
        <time>2026-08-25T15:21:09Z</time>
      </trkpt>
      <trkpt lat="47.5549" lon="-2.71491">
        <ele>11</ele>
        <time>2026-08-25T15:21:10Z</time>
      </trkpt>
      <trkpt lat="47.55495" lon="-2.71489">
        <ele>11</ele>
        <time>2026-08-25T15:21:11Z</time>
      </trkpt>
      <trkpt lat="47.55499" lon="-2.71487">
        <ele>11</ele>
        <time>2026-08-25T15:21:12Z</time>
      </trkpt>
      <trkpt lat="47.55503" lon="-2.71484">
        <ele>11</ele>
        <time>2026-08-25T15:21:13Z</time>
      </trkpt>
      <trkpt lat="47.55508" lon="-2.71481">
        <ele>11.1</ele>
        <time>2026-08-25T15:21:14Z</time>
      </trkpt>
      <trkpt lat="47.55512" lon="-2.71478">
        <ele>11.1</ele>
        <time>2026-08-25T15:21:15Z</time>
      </trkpt>
      <trkpt lat="47.55517" lon="-2.71476">
        <ele>11.1</ele>
        <time>2026-08-25T15:21:16Z</time>
      </trkpt>
      <trkpt lat="47.55521" lon="-2.71473">
        <ele>11</ele>
        <time>2026-08-25T15:21:17Z</time>
      </trkpt>
      <trkpt lat="47.55526" lon="-2.7147">
        <ele>11.1</ele>
        <time>2026-08-25T15:21:18Z</time>
      </trkpt>
      <trkpt lat="47.55531" lon="-2.71467">
        <ele>11.3</ele>
        <time>2026-08-25T15:21:19Z</time>
      </trkpt>
      <trkpt lat="47.55535" lon="-2.71465">
        <ele>11.5</ele>
        <time>2026-08-25T15:21:20Z</time>
      </trkpt>
      <trkpt lat="47.5554" lon="-2.71462">
        <ele>11.6</ele>
        <time>2026-08-25T15:21:21Z</time>
      </trkpt>
      <trkpt lat="47.55545" lon="-2.71459">
        <ele>11.8</ele>
        <time>2026-08-25T15:21:22Z</time>
      </trkpt>
      <trkpt lat="47.55549" lon="-2.71457">
        <ele>11.9</ele>
        <time>2026-08-25T15:21:23Z</time>
      </trkpt>
      <trkpt lat="47.55553" lon="-2.71454">
        <ele>12</ele>
        <time>2026-08-25T15:21:24Z</time>
      </trkpt>
      <trkpt lat="47.55558" lon="-2.71452">
        <ele>12</ele>
        <time>2026-08-25T15:21:25Z</time>
      </trkpt>
      <trkpt lat="47.55562" lon="-2.71449">
        <ele>12</ele>
        <time>2026-08-25T15:21:26Z</time>
      </trkpt>
      <trkpt lat="47.55567" lon="-2.71446">
        <ele>12</ele>
        <time>2026-08-25T15:21:27Z</time>
      </trkpt>
      <trkpt lat="47.55571" lon="-2.71443">
        <ele>12.1</ele>
        <time>2026-08-25T15:21:28Z</time>
      </trkpt>
      <trkpt lat="47.55576" lon="-2.7144">
        <ele>12.2</ele>
        <time>2026-08-25T15:21:29Z</time>
      </trkpt>
      <trkpt lat="47.5558" lon="-2.71437">
        <ele>12.3</ele>
        <time>2026-08-25T15:21:30Z</time>
      </trkpt>
      <trkpt lat="47.55585" lon="-2.71435">
        <ele>12.3</ele>
        <time>2026-08-25T15:21:31Z</time>
      </trkpt>
      <trkpt lat="47.55589" lon="-2.71432">
        <ele>12.4</ele>
        <time>2026-08-25T15:21:32Z</time>
      </trkpt>
      <trkpt lat="47.55593" lon="-2.71429">
        <ele>12.6</ele>
        <time>2026-08-25T15:21:33Z</time>
      </trkpt>
      <trkpt lat="47.55598" lon="-2.71426">
        <ele>12.7</ele>
        <time>2026-08-25T15:21:34Z</time>
      </trkpt>
      <trkpt lat="47.55602" lon="-2.71423">
        <ele>12.8</ele>
        <time>2026-08-25T15:21:35Z</time>
      </trkpt>
      <trkpt lat="47.55607" lon="-2.71421">
        <ele>12.8</ele>
        <time>2026-08-25T15:21:36Z</time>
      </trkpt>
      <trkpt lat="47.55612" lon="-2.71418">
        <ele>13</ele>
        <time>2026-08-25T15:21:37Z</time>
      </trkpt>
      <trkpt lat="47.55616" lon="-2.71416">
        <ele>13</ele>
        <time>2026-08-25T15:21:38Z</time>
      </trkpt>
      <trkpt lat="47.55621" lon="-2.71413">
        <ele>13</ele>
        <time>2026-08-25T15:21:39Z</time>
      </trkpt>
      <trkpt lat="47.55625" lon="-2.71411">
        <ele>13</ele>
        <time>2026-08-25T15:21:40Z</time>
      </trkpt>
      <trkpt lat="47.5563" lon="-2.71408">
        <ele>13</ele>
        <time>2026-08-25T15:21:41Z</time>
      </trkpt>
      <trkpt lat="47.55634" lon="-2.71406">
        <ele>13</ele>
        <time>2026-08-25T15:21:42Z</time>
      </trkpt>
      <trkpt lat="47.55639" lon="-2.71403">
        <ele>13</ele>
        <time>2026-08-25T15:21:43Z</time>
      </trkpt>
      <trkpt lat="47.55643" lon="-2.714">
        <ele>13.1</ele>
        <time>2026-08-25T15:21:44Z</time>
      </trkpt>
      <trkpt lat="47.55647" lon="-2.71397">
        <ele>13.2</ele>
        <time>2026-08-25T15:21:45Z</time>
      </trkpt>
      <trkpt lat="47.55652" lon="-2.71395">
        <ele>13.4</ele>
        <time>2026-08-25T15:21:46Z</time>
      </trkpt>
      <trkpt lat="47.55656" lon="-2.71392">
        <ele>13.5</ele>
        <time>2026-08-25T15:21:47Z</time>
      </trkpt>
      <trkpt lat="47.55661" lon="-2.71389">
        <ele>13.8</ele>
        <time>2026-08-25T15:21:48Z</time>
      </trkpt>
      <trkpt lat="47.55665" lon="-2.71386">
        <ele>13.9</ele>
        <time>2026-08-25T15:21:49Z</time>
      </trkpt>
      <trkpt lat="47.5567" lon="-2.71383">
        <ele>13.9</ele>
        <time>2026-08-25T15:21:50Z</time>
      </trkpt>
      <trkpt lat="47.55674" lon="-2.7138">
        <ele>13.8</ele>
        <time>2026-08-25T15:21:51Z</time>
      </trkpt>
      <trkpt lat="47.55679" lon="-2.71377">
        <ele>13.7</ele>
        <time>2026-08-25T15:21:52Z</time>
      </trkpt>
      <trkpt lat="47.55683" lon="-2.71375">
        <ele>13.7</ele>
        <time>2026-08-25T15:21:53Z</time>
      </trkpt>
      <trkpt lat="47.55688" lon="-2.71372">
        <ele>13.7</ele>
        <time>2026-08-25T15:21:54Z</time>
      </trkpt>
      <trkpt lat="47.55692" lon="-2.71369">
        <ele>13.7</ele>
        <time>2026-08-25T15:21:55Z</time>
      </trkpt>
      <trkpt lat="47.55697" lon="-2.71367">
        <ele>13.8</ele>
        <time>2026-08-25T15:21:56Z</time>
      </trkpt>
      <trkpt lat="47.55702" lon="-2.71364">
        <ele>13.9</ele>
        <time>2026-08-25T15:21:57Z</time>
      </trkpt>
      <trkpt lat="47.55706" lon="-2.71361">
        <ele>14</ele>
        <time>2026-08-25T15:21:58Z</time>
      </trkpt>
      <trkpt lat="47.55711" lon="-2.71358">
        <ele>14</ele>
        <time>2026-08-25T15:21:59Z</time>
      </trkpt>
      <trkpt lat="47.55715" lon="-2.71355">
        <ele>14</ele>
        <time>2026-08-25T15:22:00Z</time>
      </trkpt>
      <trkpt lat="47.5572" lon="-2.71353">
        <ele>14</ele>
        <time>2026-08-25T15:22:01Z</time>
      </trkpt>
      <trkpt lat="47.55725" lon="-2.7135">
        <ele>14</ele>
        <time>2026-08-25T15:22:02Z</time>
      </trkpt>
      <trkpt lat="47.55729" lon="-2.71348">
        <ele>14</ele>
        <time>2026-08-25T15:22:03Z</time>
      </trkpt>
      <trkpt lat="47.55733" lon="-2.71345">
        <ele>14</ele>
        <time>2026-08-25T15:22:04Z</time>
      </trkpt>
      <trkpt lat="47.55738" lon="-2.71342">
        <ele>14</ele>
        <time>2026-08-25T15:22:05Z</time>
      </trkpt>
      <trkpt lat="47.55742" lon="-2.7134">
        <ele>14</ele>
        <time>2026-08-25T15:22:06Z</time>
      </trkpt>
      <trkpt lat="47.55747" lon="-2.71337">
        <ele>14</ele>
        <time>2026-08-25T15:22:07Z</time>
      </trkpt>
      <trkpt lat="47.55752" lon="-2.71334">
        <ele>14</ele>
        <time>2026-08-25T15:22:08Z</time>
      </trkpt>
      <trkpt lat="47.55756" lon="-2.71331">
        <ele>14</ele>
        <time>2026-08-25T15:22:09Z</time>
      </trkpt>
      <trkpt lat="47.55761" lon="-2.71328">
        <ele>14</ele>
        <time>2026-08-25T15:22:10Z</time>
      </trkpt>
      <trkpt lat="47.55765" lon="-2.71326">
        <ele>14</ele>
        <time>2026-08-25T15:22:11Z</time>
      </trkpt>
      <trkpt lat="47.5577" lon="-2.71323">
        <ele>14</ele>
        <time>2026-08-25T15:22:12Z</time>
      </trkpt>
      <trkpt lat="47.55775" lon="-2.7132">
        <ele>14</ele>
        <time>2026-08-25T15:22:13Z</time>
      </trkpt>
      <trkpt lat="47.5578" lon="-2.71317">
        <ele>14</ele>
        <time>2026-08-25T15:22:14Z</time>
      </trkpt>
      <trkpt lat="47.55784" lon="-2.71314">
        <ele>14</ele>
        <time>2026-08-25T15:22:15Z</time>
      </trkpt>
      <trkpt lat="47.55789" lon="-2.71311">
        <ele>14</ele>
        <time>2026-08-25T15:22:16Z</time>
      </trkpt>
      <trkpt lat="47.55794" lon="-2.71308">
        <ele>14</ele>
        <time>2026-08-25T15:22:17Z</time>
      </trkpt>
      <trkpt lat="47.55799" lon="-2.71305">
        <ele>14</ele>
        <time>2026-08-25T15:22:18Z</time>
      </trkpt>
      <trkpt lat="47.55803" lon="-2.71302">
        <ele>14</ele>
        <time>2026-08-25T15:22:19Z</time>
      </trkpt>
      <trkpt lat="47.55808" lon="-2.71299">
        <ele>14</ele>
        <time>2026-08-25T15:22:20Z</time>
      </trkpt>
      <trkpt lat="47.55813" lon="-2.71296">
        <ele>13.9</ele>
        <time>2026-08-25T15:22:21Z</time>
      </trkpt>
      <trkpt lat="47.55817" lon="-2.71293">
        <ele>13.8</ele>
        <time>2026-08-25T15:22:22Z</time>
      </trkpt>
      <trkpt lat="47.55822" lon="-2.71291">
        <ele>13.7</ele>
        <time>2026-08-25T15:22:23Z</time>
      </trkpt>
      <trkpt lat="47.55827" lon="-2.71288">
        <ele>13.5</ele>
        <time>2026-08-25T15:22:24Z</time>
      </trkpt>
      <trkpt lat="47.55832" lon="-2.71285">
        <ele>13.3</ele>
        <time>2026-08-25T15:22:25Z</time>
      </trkpt>
      <trkpt lat="47.55837" lon="-2.71282">
        <ele>13.2</ele>
        <time>2026-08-25T15:22:26Z</time>
      </trkpt>
      <trkpt lat="47.55842" lon="-2.71279">
        <ele>13</ele>
        <time>2026-08-25T15:22:27Z</time>
      </trkpt>
      <trkpt lat="47.55847" lon="-2.71276">
        <ele>13</ele>
        <time>2026-08-25T15:22:28Z</time>
      </trkpt>
      <trkpt lat="47.55852" lon="-2.71273">
        <ele>13</ele>
        <time>2026-08-25T15:22:29Z</time>
      </trkpt>
      <trkpt lat="47.55857" lon="-2.7127">
        <ele>13</ele>
        <time>2026-08-25T15:22:30Z</time>
      </trkpt>
      <trkpt lat="47.55862" lon="-2.71267">
        <ele>13</ele>
        <time>2026-08-25T15:22:31Z</time>
      </trkpt>
      <trkpt lat="47.55867" lon="-2.71264">
        <ele>13.1</ele>
        <time>2026-08-25T15:22:32Z</time>
      </trkpt>
      <trkpt lat="47.55872" lon="-2.71261">
        <ele>13.2</ele>
        <time>2026-08-25T15:22:33Z</time>
      </trkpt>
      <trkpt lat="47.55877" lon="-2.71258">
        <ele>13.2</ele>
        <time>2026-08-25T15:22:34Z</time>
      </trkpt>
      <trkpt lat="47.55882" lon="-2.71255">
        <ele>13.1</ele>
        <time>2026-08-25T15:22:35Z</time>
      </trkpt>
      <trkpt lat="47.55887" lon="-2.71252">
        <ele>13.1</ele>
        <time>2026-08-25T15:22:36Z</time>
      </trkpt>
      <trkpt lat="47.55892" lon="-2.71249">
        <ele>13.1</ele>
        <time>2026-08-25T15:22:37Z</time>
      </trkpt>
      <trkpt lat="47.55897" lon="-2.71246">
        <ele>13.2</ele>
        <time>2026-08-25T15:22:38Z</time>
      </trkpt>
      <trkpt lat="47.55902" lon="-2.71243">
        <ele>13.4</ele>
        <time>2026-08-25T15:22:39Z</time>
      </trkpt>
      <trkpt lat="47.55907" lon="-2.7124">
        <ele>13.4</ele>
        <time>2026-08-25T15:22:40Z</time>
      </trkpt>
      <trkpt lat="47.55912" lon="-2.71237">
        <ele>13.4</ele>
        <time>2026-08-25T15:22:41Z</time>
      </trkpt>
      <trkpt lat="47.55917" lon="-2.71234">
        <ele>13.4</ele>
        <time>2026-08-25T15:22:42Z</time>
      </trkpt>
      <trkpt lat="47.55922" lon="-2.71231">
        <ele>13.3</ele>
        <time>2026-08-25T15:22:43Z</time>
      </trkpt>
      <trkpt lat="47.55927" lon="-2.71229">
        <ele>13.2</ele>
        <time>2026-08-25T15:22:44Z</time>
      </trkpt>
      <trkpt lat="47.55932" lon="-2.71226">
        <ele>13.1</ele>
        <time>2026-08-25T15:22:45Z</time>
      </trkpt>
      <trkpt lat="47.55937" lon="-2.71223">
        <ele>13</ele>
        <time>2026-08-25T15:22:46Z</time>
      </trkpt>
      <trkpt lat="47.55941" lon="-2.71219">
        <ele>13</ele>
        <time>2026-08-25T15:22:47Z</time>
      </trkpt>
      <trkpt lat="47.55946" lon="-2.71216">
        <ele>13</ele>
        <time>2026-08-25T15:22:48Z</time>
      </trkpt>
      <trkpt lat="47.55951" lon="-2.71213">
        <ele>13</ele>
        <time>2026-08-25T15:22:49Z</time>
      </trkpt>
      <trkpt lat="47.55956" lon="-2.7121">
        <ele>13</ele>
        <time>2026-08-25T15:22:50Z</time>
      </trkpt>
      <trkpt lat="47.55961" lon="-2.71206">
        <ele>13</ele>
        <time>2026-08-25T15:22:51Z</time>
      </trkpt>
      <trkpt lat="47.55966" lon="-2.71203">
        <ele>13</ele>
        <time>2026-08-25T15:22:52Z</time>
      </trkpt>
      <trkpt lat="47.55971" lon="-2.712">
        <ele>13</ele>
        <time>2026-08-25T15:22:53Z</time>
      </trkpt>
      <trkpt lat="47.55977" lon="-2.71196">
        <ele>13</ele>
        <time>2026-08-25T15:22:54Z</time>
      </trkpt>
      <trkpt lat="47.55982" lon="-2.71193">
        <ele>13</ele>
        <time>2026-08-25T15:22:55Z</time>
      </trkpt>
      <trkpt lat="47.55987" lon="-2.7119">
        <ele>13</ele>
        <time>2026-08-25T15:22:56Z</time>
      </trkpt>
      <trkpt lat="47.55993" lon="-2.71186">
        <ele>13</ele>
        <time>2026-08-25T15:22:57Z</time>
      </trkpt>
      <trkpt lat="47.56004" lon="-2.7118">
        <ele>12.9</ele>
        <time>2026-08-25T15:22:58Z</time>
      </trkpt>
      <trkpt lat="47.56004" lon="-2.7118">
        <ele>12.9</ele>
        <time>2026-08-25T15:22:59Z</time>
      </trkpt>
      <trkpt lat="47.5601" lon="-2.71177">
        <ele>12.8</ele>
        <time>2026-08-25T15:23:00Z</time>
      </trkpt>
      <trkpt lat="47.56016" lon="-2.71174">
        <ele>12.6</ele>
        <time>2026-08-25T15:23:01Z</time>
      </trkpt>
      <trkpt lat="47.56022" lon="-2.71171">
        <ele>12.3</ele>
        <time>2026-08-25T15:23:02Z</time>
      </trkpt>
      <trkpt lat="47.56028" lon="-2.71167">
        <ele>12</ele>
        <time>2026-08-25T15:23:03Z</time>
      </trkpt>
      <trkpt lat="47.56034" lon="-2.71164">
        <ele>12.2</ele>
        <time>2026-08-25T15:23:04Z</time>
      </trkpt>
      <trkpt lat="47.5604" lon="-2.71162">
        <ele>12.3</ele>
        <time>2026-08-25T15:23:05Z</time>
      </trkpt>
      <trkpt lat="47.56046" lon="-2.71158">
        <ele>12.6</ele>
        <time>2026-08-25T15:23:06Z</time>
      </trkpt>
      <trkpt lat="47.56052" lon="-2.71155">
        <ele>12.8</ele>
        <time>2026-08-25T15:23:07Z</time>
      </trkpt>
      <trkpt lat="47.56057" lon="-2.71153">
        <ele>12.9</ele>
        <time>2026-08-25T15:23:08Z</time>
      </trkpt>
      <trkpt lat="47.56061" lon="-2.71152">
        <ele>12.8</ele>
        <time>2026-08-25T15:23:09Z</time>
      </trkpt>
      <trkpt lat="47.56064" lon="-2.71154">
        <ele>12.6</ele>
        <time>2026-08-25T15:23:10Z</time>
      </trkpt>
      <trkpt lat="47.56066" lon="-2.71157">
        <ele>12.4</ele>
        <time>2026-08-25T15:23:11Z</time>
      </trkpt>
      <trkpt lat="47.56067" lon="-2.71161">
        <ele>12.2</ele>
        <time>2026-08-25T15:23:12Z</time>
      </trkpt>
      <trkpt lat="47.56067" lon="-2.71164">
        <ele>12.1</ele>
        <time>2026-08-25T15:23:13Z</time>
      </trkpt>
      <trkpt lat="47.56067" lon="-2.71166">
        <ele>12</ele>
        <time>2026-08-25T15:23:14Z</time>
      </trkpt>
      <trkpt lat="47.56067" lon="-2.71168">
        <ele>12</ele>
        <time>2026-08-25T15:23:15Z</time>
      </trkpt>
      <trkpt lat="47.56067" lon="-2.71171">
        <ele>12.1</ele>
        <time>2026-08-25T15:23:16Z</time>
      </trkpt>
      <trkpt lat="47.56066" lon="-2.71175">
        <ele>12.2</ele>
        <time>2026-08-25T15:23:17Z</time>
      </trkpt>
      <trkpt lat="47.56064" lon="-2.71179">
        <ele>12.1</ele>
        <time>2026-08-25T15:23:18Z</time>
      </trkpt>
      <trkpt lat="47.56061" lon="-2.71182">
        <ele>11.9</ele>
        <time>2026-08-25T15:23:19Z</time>
      </trkpt>
      <trkpt lat="47.56058" lon="-2.71185">
        <ele>11.6</ele>
        <time>2026-08-25T15:23:20Z</time>
      </trkpt>
      <trkpt lat="47.56054" lon="-2.71187">
        <ele>11.3</ele>
        <time>2026-08-25T15:23:21Z</time>
      </trkpt>
      <trkpt lat="47.56051" lon="-2.71189">
        <ele>11.5</ele>
        <time>2026-08-25T15:23:22Z</time>
      </trkpt>
      <trkpt lat="47.56047" lon="-2.71191">
        <ele>11.7</ele>
        <time>2026-08-25T15:23:23Z</time>
      </trkpt>
      <trkpt lat="47.56044" lon="-2.71194">
        <ele>11.8</ele>
        <time>2026-08-25T15:23:24Z</time>
      </trkpt>
      <trkpt lat="47.5604" lon="-2.71197">
        <ele>12.2</ele>
        <time>2026-08-25T15:23:25Z</time>
      </trkpt>
      <trkpt lat="47.56037" lon="-2.71199">
        <ele>12.4</ele>
        <time>2026-08-25T15:23:26Z</time>
      </trkpt>
      <trkpt lat="47.56033" lon="-2.71202">
        <ele>12.6</ele>
        <time>2026-08-25T15:23:27Z</time>
      </trkpt>
      <trkpt lat="47.56029" lon="-2.71204">
        <ele>12.6</ele>
        <time>2026-08-25T15:23:28Z</time>
      </trkpt>
      <trkpt lat="47.56026" lon="-2.71207">
        <ele>12.5</ele>
        <time>2026-08-25T15:23:29Z</time>
      </trkpt>
      <trkpt lat="47.56022" lon="-2.71209">
        <ele>12.5</ele>
        <time>2026-08-25T15:23:30Z</time>
      </trkpt>
      <trkpt lat="47.56018" lon="-2.71212">
        <ele>12.4</ele>
        <time>2026-08-25T15:23:31Z</time>
      </trkpt>
      <trkpt lat="47.56014" lon="-2.71214">
        <ele>12.3</ele>
        <time>2026-08-25T15:23:32Z</time>
      </trkpt>
      <trkpt lat="47.56011" lon="-2.71217">
        <ele>12.2</ele>
        <time>2026-08-25T15:23:33Z</time>
      </trkpt>
      <trkpt lat="47.56007" lon="-2.7122">
        <ele>12.1</ele>
        <time>2026-08-25T15:23:34Z</time>
      </trkpt>
      <trkpt lat="47.56004" lon="-2.71222">
        <ele>12</ele>
        <time>2026-08-25T15:23:35Z</time>
      </trkpt>
      <trkpt lat="47.56" lon="-2.71225">
        <ele>12.2</ele>
        <time>2026-08-25T15:23:36Z</time>
      </trkpt>
      <trkpt lat="47.55996" lon="-2.71227">
        <ele>12.4</ele>
        <time>2026-08-25T15:23:37Z</time>
      </trkpt>
      <trkpt lat="47.55993" lon="-2.71229">
        <ele>12.6</ele>
        <time>2026-08-25T15:23:38Z</time>
      </trkpt>
      <trkpt lat="47.55989" lon="-2.71231">
        <ele>12.8</ele>
        <time>2026-08-25T15:23:39Z</time>
      </trkpt>
      <trkpt lat="47.55986" lon="-2.71233">
        <ele>12.9</ele>
        <time>2026-08-25T15:23:40Z</time>
      </trkpt>
      <trkpt lat="47.55982" lon="-2.71236">
        <ele>13</ele>
        <time>2026-08-25T15:23:41Z</time>
      </trkpt>
      <trkpt lat="47.55978" lon="-2.71239">
        <ele>13</ele>
        <time>2026-08-25T15:23:42Z</time>
      </trkpt>
      <trkpt lat="47.55975" lon="-2.71241">
        <ele>13</ele>
        <time>2026-08-25T15:23:43Z</time>
      </trkpt>
      <trkpt lat="47.55972" lon="-2.71242">
        <ele>13</ele>
        <time>2026-08-25T15:23:44Z</time>
      </trkpt>
      <trkpt lat="47.55969" lon="-2.71244">
        <ele>13</ele>
        <time>2026-08-25T15:23:45Z</time>
      </trkpt>
      <trkpt lat="47.55966" lon="-2.71246">
        <ele>13</ele>
        <time>2026-08-25T15:23:46Z</time>
      </trkpt>
      <trkpt lat="47.55963" lon="-2.71248">
        <ele>13</ele>
        <time>2026-08-25T15:23:47Z</time>
      </trkpt>
      <trkpt lat="47.5596" lon="-2.71249">
        <ele>13</ele>
        <time>2026-08-25T15:23:48Z</time>
      </trkpt>
      <trkpt lat="47.55957" lon="-2.71251">
        <ele>13</ele>
        <time>2026-08-25T15:23:49Z</time>
      </trkpt>
      <trkpt lat="47.55954" lon="-2.71253">
        <ele>13</ele>
        <time>2026-08-25T15:23:50Z</time>
      </trkpt>
      <trkpt lat="47.55951" lon="-2.71256">
        <ele>13.1</ele>
        <time>2026-08-25T15:23:51Z</time>
      </trkpt>
      <trkpt lat="47.55947" lon="-2.71257">
        <ele>13</ele>
        <time>2026-08-25T15:23:52Z</time>
      </trkpt>
      <trkpt lat="47.55944" lon="-2.71259">
        <ele>13</ele>
        <time>2026-08-25T15:23:53Z</time>
      </trkpt>
      <trkpt lat="47.55941" lon="-2.71261">
        <ele>13.1</ele>
        <time>2026-08-25T15:23:54Z</time>
      </trkpt>
      <trkpt lat="47.55937" lon="-2.71264">
        <ele>13.1</ele>
        <time>2026-08-25T15:23:55Z</time>
      </trkpt>
      <trkpt lat="47.55934" lon="-2.71266">
        <ele>13.2</ele>
        <time>2026-08-25T15:23:56Z</time>
      </trkpt>
      <trkpt lat="47.5593" lon="-2.71268">
        <ele>13.2</ele>
        <time>2026-08-25T15:23:57Z</time>
      </trkpt>
      <trkpt lat="47.55923" lon="-2.71272">
        <ele>13.2</ele>
        <time>2026-08-25T15:23:58Z</time>
      </trkpt>
      <trkpt lat="47.55923" lon="-2.71272">
        <ele>13.2</ele>
        <time>2026-08-25T15:23:59Z</time>
      </trkpt>
      <trkpt lat="47.5592" lon="-2.71275">
        <ele>13.1</ele>
        <time>2026-08-25T15:24:00Z</time>
      </trkpt>
      <trkpt lat="47.55917" lon="-2.71278">
        <ele>13</ele>
        <time>2026-08-25T15:24:01Z</time>
      </trkpt>
      <trkpt lat="47.55914" lon="-2.71281">
        <ele>13.1</ele>
        <time>2026-08-25T15:24:02Z</time>
      </trkpt>
      <trkpt lat="47.55911" lon="-2.71284">
        <ele>13.2</ele>
        <time>2026-08-25T15:24:03Z</time>
      </trkpt>
      <trkpt lat="47.55909" lon="-2.71288">
        <ele>13.2</ele>
        <time>2026-08-25T15:24:04Z</time>
      </trkpt>
      <trkpt lat="47.55907" lon="-2.71293">
        <ele>13.2</ele>
        <time>2026-08-25T15:24:05Z</time>
      </trkpt>
      <trkpt lat="47.55905" lon="-2.71297">
        <ele>13.1</ele>
        <time>2026-08-25T15:24:06Z</time>
      </trkpt>
      <trkpt lat="47.55903" lon="-2.71302">
        <ele>13.1</ele>
        <time>2026-08-25T15:24:07Z</time>
      </trkpt>
      <trkpt lat="47.55903" lon="-2.71306">
        <ele>13</ele>
        <time>2026-08-25T15:24:08Z</time>
      </trkpt>
      <trkpt lat="47.55903" lon="-2.7131">
        <ele>13</ele>
        <time>2026-08-25T15:24:09Z</time>
      </trkpt>
      <trkpt lat="47.55902" lon="-2.71314">
        <ele>13</ele>
        <time>2026-08-25T15:24:10Z</time>
      </trkpt>
      <trkpt lat="47.55902" lon="-2.71318">
        <ele>13</ele>
        <time>2026-08-25T15:24:11Z</time>
      </trkpt>
      <trkpt lat="47.55903" lon="-2.71322">
        <ele>13</ele>
        <time>2026-08-25T15:24:12Z</time>
      </trkpt>
      <trkpt lat="47.55904" lon="-2.71325">
        <ele>13</ele>
        <time>2026-08-25T15:24:13Z</time>
      </trkpt>
      <trkpt lat="47.55905" lon="-2.71328">
        <ele>13</ele>
        <time>2026-08-25T15:24:14Z</time>
      </trkpt>
      <trkpt lat="47.55907" lon="-2.71331">
        <ele>13</ele>
        <time>2026-08-25T15:24:15Z</time>
      </trkpt>
      <trkpt lat="47.55908" lon="-2.71334">
        <ele>13</ele>
        <time>2026-08-25T15:24:16Z</time>
      </trkpt>
      <trkpt lat="47.5591" lon="-2.71337">
        <ele>13.1</ele>
        <time>2026-08-25T15:24:17Z</time>
      </trkpt>
      <trkpt lat="47.55912" lon="-2.7134">
        <ele>13.2</ele>
        <time>2026-08-25T15:24:18Z</time>
      </trkpt>
      <trkpt lat="47.55914" lon="-2.71344">
        <ele>13.4</ele>
        <time>2026-08-25T15:24:19Z</time>
      </trkpt>
      <trkpt lat="47.55917" lon="-2.71347">
        <ele>13.5</ele>
        <time>2026-08-25T15:24:20Z</time>
      </trkpt>
      <trkpt lat="47.5592" lon="-2.7135">
        <ele>13.6</ele>
        <time>2026-08-25T15:24:21Z</time>
      </trkpt>
      <trkpt lat="47.55922" lon="-2.71354">
        <ele>13.8</ele>
        <time>2026-08-25T15:24:22Z</time>
      </trkpt>
      <trkpt lat="47.55924" lon="-2.71358">
        <ele>13.9</ele>
        <time>2026-08-25T15:24:23Z</time>
      </trkpt>
      <trkpt lat="47.55927" lon="-2.71361">
        <ele>14</ele>
        <time>2026-08-25T15:24:24Z</time>
      </trkpt>
      <trkpt lat="47.5593" lon="-2.71365">
        <ele>13.9</ele>
        <time>2026-08-25T15:24:25Z</time>
      </trkpt>
      <trkpt lat="47.55932" lon="-2.71368">
        <ele>13.9</ele>
        <time>2026-08-25T15:24:26Z</time>
      </trkpt>
      <trkpt lat="47.55935" lon="-2.71372">
        <ele>13.7</ele>
        <time>2026-08-25T15:24:27Z</time>
      </trkpt>
      <trkpt lat="47.55938" lon="-2.71375">
        <ele>13.6</ele>
        <time>2026-08-25T15:24:28Z</time>
      </trkpt>
      <trkpt lat="47.5594" lon="-2.71378">
        <ele>13.5</ele>
        <time>2026-08-25T15:24:29Z</time>
      </trkpt>
      <trkpt lat="47.55943" lon="-2.71382">
        <ele>13.3</ele>
        <time>2026-08-25T15:24:30Z</time>
      </trkpt>
      <trkpt lat="47.55945" lon="-2.71385">
        <ele>13.2</ele>
        <time>2026-08-25T15:24:31Z</time>
      </trkpt>
      <trkpt lat="47.55948" lon="-2.71388">
        <ele>13.2</ele>
        <time>2026-08-25T15:24:32Z</time>
      </trkpt>
      <trkpt lat="47.55951" lon="-2.71391">
        <ele>13.3</ele>
        <time>2026-08-25T15:24:33Z</time>
      </trkpt>
      <trkpt lat="47.55953" lon="-2.71395">
        <ele>13.4</ele>
        <time>2026-08-25T15:24:34Z</time>
      </trkpt>
      <trkpt lat="47.55956" lon="-2.71399">
        <ele>13.5</ele>
        <time>2026-08-25T15:24:35Z</time>
      </trkpt>
      <trkpt lat="47.55959" lon="-2.71402">
        <ele>13.5</ele>
        <time>2026-08-25T15:24:36Z</time>
      </trkpt>
      <trkpt lat="47.55962" lon="-2.71405">
        <ele>13.5</ele>
        <time>2026-08-25T15:24:37Z</time>
      </trkpt>
      <trkpt lat="47.55964" lon="-2.71408">
        <ele>13.4</ele>
        <time>2026-08-25T15:24:38Z</time>
      </trkpt>
      <trkpt lat="47.55967" lon="-2.71412">
        <ele>13.3</ele>
        <time>2026-08-25T15:24:39Z</time>
      </trkpt>
      <trkpt lat="47.5597" lon="-2.71415">
        <ele>13.1</ele>
        <time>2026-08-25T15:24:40Z</time>
      </trkpt>
      <trkpt lat="47.55973" lon="-2.71419">
        <ele>13</ele>
        <time>2026-08-25T15:24:41Z</time>
      </trkpt>
      <trkpt lat="47.55976" lon="-2.71423">
        <ele>13</ele>
        <time>2026-08-25T15:24:42Z</time>
      </trkpt>
      <trkpt lat="47.55979" lon="-2.71427">
        <ele>13</ele>
        <time>2026-08-25T15:24:43Z</time>
      </trkpt>
      <trkpt lat="47.55981" lon="-2.71431">
        <ele>13</ele>
        <time>2026-08-25T15:24:44Z</time>
      </trkpt>
      <trkpt lat="47.55984" lon="-2.71435">
        <ele>13</ele>
        <time>2026-08-25T15:24:45Z</time>
      </trkpt>
      <trkpt lat="47.55986" lon="-2.71439">
        <ele>13</ele>
        <time>2026-08-25T15:24:46Z</time>
      </trkpt>
      <trkpt lat="47.55988" lon="-2.71443">
        <ele>13</ele>
        <time>2026-08-25T15:24:47Z</time>
      </trkpt>
      <trkpt lat="47.5599" lon="-2.71446">
        <ele>13</ele>
        <time>2026-08-25T15:24:48Z</time>
      </trkpt>
      <trkpt lat="47.55992" lon="-2.7145">
        <ele>13</ele>
        <time>2026-08-25T15:24:49Z</time>
      </trkpt>
      <trkpt lat="47.55994" lon="-2.71453">
        <ele>13</ele>
        <time>2026-08-25T15:24:50Z</time>
      </trkpt>
      <trkpt lat="47.55996" lon="-2.71457">
        <ele>13</ele>
        <time>2026-08-25T15:24:51Z</time>
      </trkpt>
      <trkpt lat="47.55998" lon="-2.71461">
        <ele>13</ele>
        <time>2026-08-25T15:24:52Z</time>
      </trkpt>
      <trkpt lat="47.56001" lon="-2.71465">
        <ele>13</ele>
        <time>2026-08-25T15:24:53Z</time>
      </trkpt>
      <trkpt lat="47.56003" lon="-2.71469">
        <ele>13</ele>
        <time>2026-08-25T15:24:54Z</time>
      </trkpt>
      <trkpt lat="47.56006" lon="-2.71473">
        <ele>13</ele>
        <time>2026-08-25T15:24:55Z</time>
      </trkpt>
      <trkpt lat="47.56009" lon="-2.71477">
        <ele>13</ele>
        <time>2026-08-25T15:24:56Z</time>
      </trkpt>
      <trkpt lat="47.56012" lon="-2.71482">
        <ele>13</ele>
        <time>2026-08-25T15:24:57Z</time>
      </trkpt>
      <trkpt lat="47.56017" lon="-2.71491">
        <ele>13</ele>
        <time>2026-08-25T15:24:58Z</time>
      </trkpt>
      <trkpt lat="47.56017" lon="-2.71491">
        <ele>13</ele>
        <time>2026-08-25T15:24:59Z</time>
      </trkpt>
      <trkpt lat="47.5602" lon="-2.71497">
        <ele>13</ele>
        <time>2026-08-25T15:25:00Z</time>
      </trkpt>
      <trkpt lat="47.56023" lon="-2.71501">
        <ele>13</ele>
        <time>2026-08-25T15:25:01Z</time>
      </trkpt>
      <trkpt lat="47.56026" lon="-2.71506">
        <ele>13</ele>
        <time>2026-08-25T15:25:02Z</time>
      </trkpt>
      <trkpt lat="47.56029" lon="-2.7151">
        <ele>13</ele>
        <time>2026-08-25T15:25:03Z</time>
      </trkpt>
      <trkpt lat="47.56033" lon="-2.71513">
        <ele>12.9</ele>
        <time>2026-08-25T15:25:04Z</time>
      </trkpt>
      <trkpt lat="47.56037" lon="-2.71516">
        <ele>12.8</ele>
        <time>2026-08-25T15:25:05Z</time>
      </trkpt>
      <trkpt lat="47.56041" lon="-2.71519">
        <ele>12.7</ele>
        <time>2026-08-25T15:25:06Z</time>
      </trkpt>
      <trkpt lat="47.56045" lon="-2.71521">
        <ele>12.5</ele>
        <time>2026-08-25T15:25:07Z</time>
      </trkpt>
      <trkpt lat="47.5605" lon="-2.71523">
        <ele>12.3</ele>
        <time>2026-08-25T15:25:08Z</time>
      </trkpt>
      <trkpt lat="47.56054" lon="-2.71525">
        <ele>12.2</ele>
        <time>2026-08-25T15:25:09Z</time>
      </trkpt>
      <trkpt lat="47.56058" lon="-2.71527">
        <ele>12.1</ele>
        <time>2026-08-25T15:25:10Z</time>
      </trkpt>
      <trkpt lat="47.56063" lon="-2.71529">
        <ele>12.3</ele>
        <time>2026-08-25T15:25:11Z</time>
      </trkpt>
      <trkpt lat="47.56067" lon="-2.71531">
        <ele>12.4</ele>
        <time>2026-08-25T15:25:12Z</time>
      </trkpt>
      <trkpt lat="47.56072" lon="-2.71533">
        <ele>12.6</ele>
        <time>2026-08-25T15:25:13Z</time>
      </trkpt>
      <trkpt lat="47.56076" lon="-2.71535">
        <ele>12.7</ele>
        <time>2026-08-25T15:25:14Z</time>
      </trkpt>
      <trkpt lat="47.56081" lon="-2.71537">
        <ele>12.9</ele>
        <time>2026-08-25T15:25:15Z</time>
      </trkpt>
      <trkpt lat="47.56086" lon="-2.71539">
        <ele>12.9</ele>
        <time>2026-08-25T15:25:16Z</time>
      </trkpt>
      <trkpt lat="47.5609" lon="-2.71541">
        <ele>12.8</ele>
        <time>2026-08-25T15:25:17Z</time>
      </trkpt>
      <trkpt lat="47.56095" lon="-2.71543">
        <ele>12.6</ele>
        <time>2026-08-25T15:25:18Z</time>
      </trkpt>
      <trkpt lat="47.56099" lon="-2.71545">
        <ele>12.4</ele>
        <time>2026-08-25T15:25:19Z</time>
      </trkpt>
      <trkpt lat="47.56104" lon="-2.71546">
        <ele>12.3</ele>
        <time>2026-08-25T15:25:20Z</time>
      </trkpt>
      <trkpt lat="47.56108" lon="-2.71548">
        <ele>12.1</ele>
        <time>2026-08-25T15:25:21Z</time>
      </trkpt>
      <trkpt lat="47.56113" lon="-2.71549">
        <ele>12</ele>
        <time>2026-08-25T15:25:22Z</time>
      </trkpt>
      <trkpt lat="47.56117" lon="-2.71551">
        <ele>12</ele>
        <time>2026-08-25T15:25:23Z</time>
      </trkpt>
      <trkpt lat="47.56122" lon="-2.71553">
        <ele>12</ele>
        <time>2026-08-25T15:25:24Z</time>
      </trkpt>
      <trkpt lat="47.56127" lon="-2.71555">
        <ele>12</ele>
        <time>2026-08-25T15:25:25Z</time>
      </trkpt>
      <trkpt lat="47.56132" lon="-2.71556">
        <ele>12</ele>
        <time>2026-08-25T15:25:26Z</time>
      </trkpt>
      <trkpt lat="47.56137" lon="-2.71558">
        <ele>12</ele>
        <time>2026-08-25T15:25:27Z</time>
      </trkpt>
      <trkpt lat="47.56142" lon="-2.71559">
        <ele>11.9</ele>
        <time>2026-08-25T15:25:28Z</time>
      </trkpt>
      <trkpt lat="47.56146" lon="-2.7156">
        <ele>11.8</ele>
        <time>2026-08-25T15:25:29Z</time>
      </trkpt>
      <trkpt lat="47.56151" lon="-2.7156">
        <ele>11.6</ele>
        <time>2026-08-25T15:25:30Z</time>
      </trkpt>
      <trkpt lat="47.56156" lon="-2.71561">
        <ele>11.5</ele>
        <time>2026-08-25T15:25:31Z</time>
      </trkpt>
      <trkpt lat="47.5616" lon="-2.71561">
        <ele>11.4</ele>
        <time>2026-08-25T15:25:32Z</time>
      </trkpt>
      <trkpt lat="47.56165" lon="-2.71561">
        <ele>11.2</ele>
        <time>2026-08-25T15:25:33Z</time>
      </trkpt>
      <trkpt lat="47.56169" lon="-2.71561">
        <ele>11.2</ele>
        <time>2026-08-25T15:25:34Z</time>
      </trkpt>
      <trkpt lat="47.56174" lon="-2.71561">
        <ele>11.1</ele>
        <time>2026-08-25T15:25:35Z</time>
      </trkpt>
      <trkpt lat="47.56179" lon="-2.71562">
        <ele>11.1</ele>
        <time>2026-08-25T15:25:36Z</time>
      </trkpt>
      <trkpt lat="47.56183" lon="-2.71562">
        <ele>11.1</ele>
        <time>2026-08-25T15:25:37Z</time>
      </trkpt>
      <trkpt lat="47.56188" lon="-2.71564">
        <ele>11.1</ele>
        <time>2026-08-25T15:25:38Z</time>
      </trkpt>
      <trkpt lat="47.56193" lon="-2.71565">
        <ele>11</ele>
        <time>2026-08-25T15:25:39Z</time>
      </trkpt>
      <trkpt lat="47.56197" lon="-2.71567">
        <ele>11</ele>
        <time>2026-08-25T15:25:40Z</time>
      </trkpt>
      <trkpt lat="47.56202" lon="-2.71568">
        <ele>11</ele>
        <time>2026-08-25T15:25:41Z</time>
      </trkpt>
      <trkpt lat="47.56207" lon="-2.7157">
        <ele>11</ele>
        <time>2026-08-25T15:25:42Z</time>
      </trkpt>
      <trkpt lat="47.56211" lon="-2.71571">
        <ele>11</ele>
        <time>2026-08-25T15:25:43Z</time>
      </trkpt>
      <trkpt lat="47.56215" lon="-2.71573">
        <ele>11</ele>
        <time>2026-08-25T15:25:44Z</time>
      </trkpt>
      <trkpt lat="47.56219" lon="-2.71575">
        <ele>11</ele>
        <time>2026-08-25T15:25:45Z</time>
      </trkpt>
      <trkpt lat="47.56223" lon="-2.71577">
        <ele>11</ele>
        <time>2026-08-25T15:25:46Z</time>
      </trkpt>
      <trkpt lat="47.56227" lon="-2.71578">
        <ele>10.8</ele>
        <time>2026-08-25T15:25:47Z</time>
      </trkpt>
      <trkpt lat="47.56232" lon="-2.71578">
        <ele>10.6</ele>
        <time>2026-08-25T15:25:48Z</time>
      </trkpt>
      <trkpt lat="47.56236" lon="-2.71577">
        <ele>10.5</ele>
        <time>2026-08-25T15:25:49Z</time>
      </trkpt>
      <trkpt lat="47.56241" lon="-2.71575">
        <ele>10.3</ele>
        <time>2026-08-25T15:25:50Z</time>
      </trkpt>
      <trkpt lat="47.56245" lon="-2.71573">
        <ele>10.2</ele>
        <time>2026-08-25T15:25:51Z</time>
      </trkpt>
      <trkpt lat="47.5625" lon="-2.71571">
        <ele>10</ele>
        <time>2026-08-25T15:25:52Z</time>
      </trkpt>
      <trkpt lat="47.56255" lon="-2.71569">
        <ele>10</ele>
        <time>2026-08-25T15:25:53Z</time>
      </trkpt>
      <trkpt lat="47.56259" lon="-2.71567">
        <ele>10</ele>
        <time>2026-08-25T15:25:54Z</time>
      </trkpt>
      <trkpt lat="47.56264" lon="-2.71565">
        <ele>10</ele>
        <time>2026-08-25T15:25:55Z</time>
      </trkpt>
      <trkpt lat="47.56269" lon="-2.71563">
        <ele>10</ele>
        <time>2026-08-25T15:25:56Z</time>
      </trkpt>
      <trkpt lat="47.56274" lon="-2.7156">
        <ele>10</ele>
        <time>2026-08-25T15:25:57Z</time>
      </trkpt>
      <trkpt lat="47.56283" lon="-2.71557">
        <ele>9.8</ele>
        <time>2026-08-25T15:25:58Z</time>
      </trkpt>
      <trkpt lat="47.56283" lon="-2.71557">
        <ele>9.8</ele>
        <time>2026-08-25T15:25:59Z</time>
      </trkpt>
      <trkpt lat="47.56288" lon="-2.71557">
        <ele>9.7</ele>
        <time>2026-08-25T15:26:00Z</time>
      </trkpt>
      <trkpt lat="47.56293" lon="-2.71558">
        <ele>9.5</ele>
        <time>2026-08-25T15:26:01Z</time>
      </trkpt>
      <trkpt lat="47.56297" lon="-2.71561">
        <ele>9.4</ele>
        <time>2026-08-25T15:26:02Z</time>
      </trkpt>
      <trkpt lat="47.56301" lon="-2.71565">
        <ele>9.4</ele>
        <time>2026-08-25T15:26:03Z</time>
      </trkpt>
      <trkpt lat="47.56304" lon="-2.7157">
        <ele>9.5</ele>
        <time>2026-08-25T15:26:04Z</time>
      </trkpt>
      <trkpt lat="47.56308" lon="-2.71575">
        <ele>9.7</ele>
        <time>2026-08-25T15:26:05Z</time>
      </trkpt>
      <trkpt lat="47.56311" lon="-2.7158">
        <ele>9.9</ele>
        <time>2026-08-25T15:26:06Z</time>
      </trkpt>
      <trkpt lat="47.56314" lon="-2.71585">
        <ele>10</ele>
        <time>2026-08-25T15:26:07Z</time>
      </trkpt>
      <trkpt lat="47.56317" lon="-2.7159">
        <ele>10</ele>
        <time>2026-08-25T15:26:08Z</time>
      </trkpt>
      <trkpt lat="47.5632" lon="-2.71595">
        <ele>10</ele>
        <time>2026-08-25T15:26:09Z</time>
      </trkpt>
      <trkpt lat="47.56324" lon="-2.716">
        <ele>10</ele>
        <time>2026-08-25T15:26:10Z</time>
      </trkpt>
      <trkpt lat="47.56327" lon="-2.71606">
        <ele>10</ele>
        <time>2026-08-25T15:26:11Z</time>
      </trkpt>
      <trkpt lat="47.5633" lon="-2.71611">
        <ele>10</ele>
        <time>2026-08-25T15:26:12Z</time>
      </trkpt>
      <trkpt lat="47.56333" lon="-2.71616">
        <ele>10.2</ele>
        <time>2026-08-25T15:26:13Z</time>
      </trkpt>
      <trkpt lat="47.56336" lon="-2.71621">
        <ele>10.4</ele>
        <time>2026-08-25T15:26:14Z</time>
      </trkpt>
      <trkpt lat="47.56339" lon="-2.71625">
        <ele>10.6</ele>
        <time>2026-08-25T15:26:15Z</time>
      </trkpt>
      <trkpt lat="47.56342" lon="-2.71631">
        <ele>10.8</ele>
        <time>2026-08-25T15:26:16Z</time>
      </trkpt>
      <trkpt lat="47.56345" lon="-2.71636">
        <ele>10.9</ele>
        <time>2026-08-25T15:26:17Z</time>
      </trkpt>
      <trkpt lat="47.56348" lon="-2.71641">
        <ele>11</ele>
        <time>2026-08-25T15:26:18Z</time>
      </trkpt>
      <trkpt lat="47.56351" lon="-2.71647">
        <ele>11</ele>
        <time>2026-08-25T15:26:19Z</time>
      </trkpt>
      <trkpt lat="47.56354" lon="-2.71652">
        <ele>11</ele>
        <time>2026-08-25T15:26:20Z</time>
      </trkpt>
      <trkpt lat="47.56357" lon="-2.71657">
        <ele>11</ele>
        <time>2026-08-25T15:26:21Z</time>
      </trkpt>
      <trkpt lat="47.5636" lon="-2.71663">
        <ele>11</ele>
        <time>2026-08-25T15:26:22Z</time>
      </trkpt>
      <trkpt lat="47.56362" lon="-2.71668">
        <ele>11</ele>
        <time>2026-08-25T15:26:23Z</time>
      </trkpt>
      <trkpt lat="47.56365" lon="-2.71674">
        <ele>11</ele>
        <time>2026-08-25T15:26:24Z</time>
      </trkpt>
      <trkpt lat="47.56368" lon="-2.7168">
        <ele>11</ele>
        <time>2026-08-25T15:26:25Z</time>
      </trkpt>
      <trkpt lat="47.5637" lon="-2.71685">
        <ele>11</ele>
        <time>2026-08-25T15:26:26Z</time>
      </trkpt>
      <trkpt lat="47.56373" lon="-2.71691">
        <ele>11</ele>
        <time>2026-08-25T15:26:27Z</time>
      </trkpt>
      <trkpt lat="47.56375" lon="-2.71697">
        <ele>11</ele>
        <time>2026-08-25T15:26:28Z</time>
      </trkpt>
      <trkpt lat="47.56378" lon="-2.71703">
        <ele>11.1</ele>
        <time>2026-08-25T15:26:29Z</time>
      </trkpt>
      <trkpt lat="47.5638" lon="-2.71709">
        <ele>11.2</ele>
        <time>2026-08-25T15:26:30Z</time>
      </trkpt>
      <trkpt lat="47.56383" lon="-2.71715">
        <ele>11.2</ele>
        <time>2026-08-25T15:26:31Z</time>
      </trkpt>
      <trkpt lat="47.56386" lon="-2.7172">
        <ele>11.1</ele>
        <time>2026-08-25T15:26:32Z</time>
      </trkpt>
      <trkpt lat="47.56388" lon="-2.71726">
        <ele>11.2</ele>
        <time>2026-08-25T15:26:33Z</time>
      </trkpt>
      <trkpt lat="47.5639" lon="-2.71732">
        <ele>11.4</ele>
        <time>2026-08-25T15:26:34Z</time>
      </trkpt>
      <trkpt lat="47.56393" lon="-2.71737">
        <ele>11.5</ele>
        <time>2026-08-25T15:26:35Z</time>
      </trkpt>
      <trkpt lat="47.56395" lon="-2.71743">
        <ele>11.6</ele>
        <time>2026-08-25T15:26:36Z</time>
      </trkpt>
      <trkpt lat="47.56398" lon="-2.71748">
        <ele>11.6</ele>
        <time>2026-08-25T15:26:37Z</time>
      </trkpt>
      <trkpt lat="47.56401" lon="-2.71754">
        <ele>11.6</ele>
        <time>2026-08-25T15:26:38Z</time>
      </trkpt>
      <trkpt lat="47.56403" lon="-2.71759">
        <ele>11.7</ele>
        <time>2026-08-25T15:26:39Z</time>
      </trkpt>
      <trkpt lat="47.56406" lon="-2.71765">
        <ele>11.7</ele>
        <time>2026-08-25T15:26:40Z</time>
      </trkpt>
      <trkpt lat="47.56408" lon="-2.71771">
        <ele>11.8</ele>
        <time>2026-08-25T15:26:41Z</time>
      </trkpt>
      <trkpt lat="47.56411" lon="-2.71776">
        <ele>11.9</ele>
        <time>2026-08-25T15:26:42Z</time>
      </trkpt>
      <trkpt lat="47.56414" lon="-2.71782">
        <ele>12</ele>
        <time>2026-08-25T15:26:43Z</time>
      </trkpt>
      <trkpt lat="47.56417" lon="-2.71788">
        <ele>12</ele>
        <time>2026-08-25T15:26:44Z</time>
      </trkpt>
      <trkpt lat="47.56419" lon="-2.71793">
        <ele>12</ele>
        <time>2026-08-25T15:26:45Z</time>
      </trkpt>
      <trkpt lat="47.56422" lon="-2.71798">
        <ele>12</ele>
        <time>2026-08-25T15:26:46Z</time>
      </trkpt>
      <trkpt lat="47.56424" lon="-2.71803">
        <ele>12</ele>
        <time>2026-08-25T15:26:47Z</time>
      </trkpt>
      <trkpt lat="47.56427" lon="-2.71809">
        <ele>12</ele>
        <time>2026-08-25T15:26:48Z</time>
      </trkpt>
      <trkpt lat="47.56429" lon="-2.71813">
        <ele>12</ele>
        <time>2026-08-25T15:26:49Z</time>
      </trkpt>
      <trkpt lat="47.56431" lon="-2.71818">
        <ele>12</ele>
        <time>2026-08-25T15:26:50Z</time>
      </trkpt>
      <trkpt lat="47.56433" lon="-2.71823">
        <ele>12</ele>
        <time>2026-08-25T15:26:51Z</time>
      </trkpt>
      <trkpt lat="47.56435" lon="-2.71827">
        <ele>12</ele>
        <time>2026-08-25T15:26:52Z</time>
      </trkpt>
      <trkpt lat="47.56436" lon="-2.71831">
        <ele>12</ele>
        <time>2026-08-25T15:26:53Z</time>
      </trkpt>
      <trkpt lat="47.56438" lon="-2.71836">
        <ele>11.9</ele>
        <time>2026-08-25T15:26:54Z</time>
      </trkpt>
      <trkpt lat="47.56439" lon="-2.7184">
        <ele>11.8</ele>
        <time>2026-08-25T15:26:55Z</time>
      </trkpt>
      <trkpt lat="47.56439" lon="-2.71845">
        <ele>11.6</ele>
        <time>2026-08-25T15:26:56Z</time>
      </trkpt>
      <trkpt lat="47.56437" lon="-2.7185">
        <ele>11.4</ele>
        <time>2026-08-25T15:26:57Z</time>
      </trkpt>
      <trkpt lat="47.56433" lon="-2.71854">
        <ele>11.3</ele>
        <time>2026-08-25T15:26:58Z</time>
      </trkpt>
      <trkpt lat="47.56433" lon="-2.71854">
        <ele>11.3</ele>
        <time>2026-08-25T15:26:59Z</time>
      </trkpt>
      <trkpt lat="47.5643" lon="-2.71855">
        <ele>11.2</ele>
        <time>2026-08-25T15:27:00Z</time>
      </trkpt>
      <trkpt lat="47.56428" lon="-2.71856">
        <ele>11.2</ele>
        <time>2026-08-25T15:27:01Z</time>
      </trkpt>
      <trkpt lat="47.56426" lon="-2.71856">
        <ele>11.2</ele>
        <time>2026-08-25T15:27:02Z</time>
      </trkpt>
      <trkpt lat="47.56424" lon="-2.71857">
        <ele>11.1</ele>
        <time>2026-08-25T15:27:03Z</time>
      </trkpt>
      <trkpt lat="47.56422" lon="-2.71858">
        <ele>11.1</ele>
        <time>2026-08-25T15:27:04Z</time>
      </trkpt>
      <trkpt lat="47.5642" lon="-2.71859">
        <ele>11.1</ele>
        <time>2026-08-25T15:27:05Z</time>
      </trkpt>
      <trkpt lat="47.56418" lon="-2.71861">
        <ele>11</ele>
        <time>2026-08-25T15:27:06Z</time>
      </trkpt>
      <trkpt lat="47.56417" lon="-2.71865">
        <ele>11</ele>
        <time>2026-08-25T15:27:07Z</time>
      </trkpt>
      <trkpt lat="47.56416" lon="-2.71869">
        <ele>11</ele>
        <time>2026-08-25T15:27:08Z</time>
      </trkpt>
      <trkpt lat="47.56416" lon="-2.71873">
        <ele>11</ele>
        <time>2026-08-25T15:27:09Z</time>
      </trkpt>
      <trkpt lat="47.56415" lon="-2.71879">
        <ele>11.1</ele>
        <time>2026-08-25T15:27:10Z</time>
      </trkpt>
      <trkpt lat="47.56414" lon="-2.71885">
        <ele>11.1</ele>
        <time>2026-08-25T15:27:11Z</time>
      </trkpt>
      <trkpt lat="47.56412" lon="-2.71891">
        <ele>11.1</ele>
        <time>2026-08-25T15:27:12Z</time>
      </trkpt>
      <trkpt lat="47.56411" lon="-2.71897">
        <ele>10.9</ele>
        <time>2026-08-25T15:27:13Z</time>
      </trkpt>
      <trkpt lat="47.5641" lon="-2.71904">
        <ele>10.6</ele>
        <time>2026-08-25T15:27:14Z</time>
      </trkpt>
      <trkpt lat="47.56409" lon="-2.71911">
        <ele>10.3</ele>
        <time>2026-08-25T15:27:15Z</time>
      </trkpt>
      <trkpt lat="47.5641" lon="-2.71918">
        <ele>9.9</ele>
        <time>2026-08-25T15:27:16Z</time>
      </trkpt>
      <trkpt lat="47.56411" lon="-2.71926">
        <ele>9.3</ele>
        <time>2026-08-25T15:27:17Z</time>
      </trkpt>
      <trkpt lat="47.56411" lon="-2.71934">
        <ele>8.8</ele>
        <time>2026-08-25T15:27:18Z</time>
      </trkpt>
      <trkpt lat="47.56411" lon="-2.71943">
        <ele>8.1</ele>
        <time>2026-08-25T15:27:19Z</time>
      </trkpt>
      <trkpt lat="47.5641" lon="-2.71953">
        <ele>7.7</ele>
        <time>2026-08-25T15:27:20Z</time>
      </trkpt>
      <trkpt lat="47.5641" lon="-2.71964">
        <ele>7.3</ele>
        <time>2026-08-25T15:27:21Z</time>
      </trkpt>
      <trkpt lat="47.56409" lon="-2.71974">
        <ele>6.9</ele>
        <time>2026-08-25T15:27:22Z</time>
      </trkpt>
      <trkpt lat="47.56408" lon="-2.71985">
        <ele>6.4</ele>
        <time>2026-08-25T15:27:23Z</time>
      </trkpt>
      <trkpt lat="47.56408" lon="-2.71995">
        <ele>5.9</ele>
        <time>2026-08-25T15:27:24Z</time>
      </trkpt>
      <trkpt lat="47.56408" lon="-2.72005">
        <ele>5.5</ele>
        <time>2026-08-25T15:27:25Z</time>
      </trkpt>
      <trkpt lat="47.56408" lon="-2.72015">
        <ele>5.3</ele>
        <time>2026-08-25T15:27:26Z</time>
      </trkpt>
      <trkpt lat="47.56408" lon="-2.72022">
        <ele>5.1</ele>
        <time>2026-08-25T15:27:27Z</time>
      </trkpt>
      <trkpt lat="47.56407" lon="-2.72027">
        <ele>5</ele>
        <time>2026-08-25T15:27:28Z</time>
      </trkpt>
      <trkpt lat="47.56406" lon="-2.7203">
        <ele>5</ele>
        <time>2026-08-25T15:27:29Z</time>
      </trkpt>
      <trkpt lat="47.56406" lon="-2.72033">
        <ele>4.9</ele>
        <time>2026-08-25T15:27:30Z</time>
      </trkpt>
      <trkpt lat="47.56405" lon="-2.72035">
        <ele>4.9</ele>
        <time>2026-08-25T15:27:31Z</time>
      </trkpt>
      <trkpt lat="47.56405" lon="-2.72038">
        <ele>4.8</ele>
        <time>2026-08-25T15:27:32Z</time>
      </trkpt>
      <trkpt lat="47.56405" lon="-2.72041">
        <ele>4.8</ele>
        <time>2026-08-25T15:27:33Z</time>
      </trkpt>
      <trkpt lat="47.56404" lon="-2.72046">
        <ele>4.7</ele>
        <time>2026-08-25T15:27:34Z</time>
      </trkpt>
      <trkpt lat="47.56403" lon="-2.72051">
        <ele>4.6</ele>
        <time>2026-08-25T15:27:35Z</time>
      </trkpt>
      <trkpt lat="47.56402" lon="-2.72056">
        <ele>4.5</ele>
        <time>2026-08-25T15:27:36Z</time>
      </trkpt>
      <trkpt lat="47.564" lon="-2.72062">
        <ele>4.3</ele>
        <time>2026-08-25T15:27:37Z</time>
      </trkpt>
      <trkpt lat="47.56399" lon="-2.72069">
        <ele>4.2</ele>
        <time>2026-08-25T15:27:38Z</time>
      </trkpt>
      <trkpt lat="47.56397" lon="-2.72075">
        <ele>4.1</ele>
        <time>2026-08-25T15:27:39Z</time>
      </trkpt>
      <trkpt lat="47.56395" lon="-2.72082">
        <ele>4</ele>
        <time>2026-08-25T15:27:40Z</time>
      </trkpt>
      <trkpt lat="47.56393" lon="-2.72089">
        <ele>4</ele>
        <time>2026-08-25T15:27:41Z</time>
      </trkpt>
      <trkpt lat="47.56391" lon="-2.72095">
        <ele>4</ele>
        <time>2026-08-25T15:27:42Z</time>
      </trkpt>
      <trkpt lat="47.56389" lon="-2.72102">
        <ele>4</ele>
        <time>2026-08-25T15:27:43Z</time>
      </trkpt>
      <trkpt lat="47.56387" lon="-2.72108">
        <ele>4</ele>
        <time>2026-08-25T15:27:44Z</time>
      </trkpt>
      <trkpt lat="47.56385" lon="-2.72115">
        <ele>4</ele>
        <time>2026-08-25T15:27:45Z</time>
      </trkpt>
      <trkpt lat="47.56383" lon="-2.7212">
        <ele>4</ele>
        <time>2026-08-25T15:27:46Z</time>
      </trkpt>
      <trkpt lat="47.56381" lon="-2.72126">
        <ele>4</ele>
        <time>2026-08-25T15:27:47Z</time>
      </trkpt>
      <trkpt lat="47.56379" lon="-2.72132">
        <ele>4</ele>
        <time>2026-08-25T15:27:48Z</time>
      </trkpt>
      <trkpt lat="47.56377" lon="-2.72137">
        <ele>4</ele>
        <time>2026-08-25T15:27:49Z</time>
      </trkpt>
      <trkpt lat="47.56376" lon="-2.72141">
        <ele>4</ele>
        <time>2026-08-25T15:27:50Z</time>
      </trkpt>
      <trkpt lat="47.56375" lon="-2.72147">
        <ele>3.9</ele>
        <time>2026-08-25T15:27:51Z</time>
      </trkpt>
      <trkpt lat="47.56374" lon="-2.72154">
        <ele>3.7</ele>
        <time>2026-08-25T15:27:52Z</time>
      </trkpt>
      <trkpt lat="47.56373" lon="-2.7216">
        <ele>3.6</ele>
        <time>2026-08-25T15:27:53Z</time>
      </trkpt>
      <trkpt lat="47.56372" lon="-2.72166">
        <ele>3.4</ele>
        <time>2026-08-25T15:27:54Z</time>
      </trkpt>
      <trkpt lat="47.56371" lon="-2.72173">
        <ele>3.4</ele>
        <time>2026-08-25T15:27:55Z</time>
      </trkpt>
      <trkpt lat="47.56371" lon="-2.7218">
        <ele>3.4</ele>
        <time>2026-08-25T15:27:56Z</time>
      </trkpt>
      <trkpt lat="47.5637" lon="-2.72186">
        <ele>3.3</ele>
        <time>2026-08-25T15:27:57Z</time>
      </trkpt>
      <trkpt lat="47.5637" lon="-2.722">
        <ele>3.3</ele>
        <time>2026-08-25T15:27:58Z</time>
      </trkpt>
      <trkpt lat="47.5637" lon="-2.722">
        <ele>3.3</ele>
        <time>2026-08-25T15:27:59Z</time>
      </trkpt>
      <trkpt lat="47.5637" lon="-2.72206">
        <ele>3.2</ele>
        <time>2026-08-25T15:28:00Z</time>
      </trkpt>
      <trkpt lat="47.5637" lon="-2.72213">
        <ele>3.1</ele>
        <time>2026-08-25T15:28:01Z</time>
      </trkpt>
      <trkpt lat="47.56371" lon="-2.7222">
        <ele>3</ele>
        <time>2026-08-25T15:28:02Z</time>
      </trkpt>
      <trkpt lat="47.56371" lon="-2.72227">
        <ele>2.9</ele>
        <time>2026-08-25T15:28:03Z</time>
      </trkpt>
      <trkpt lat="47.56371" lon="-2.72234">
        <ele>2.7</ele>
        <time>2026-08-25T15:28:04Z</time>
      </trkpt>
      <trkpt lat="47.56372" lon="-2.7224">
        <ele>2.6</ele>
        <time>2026-08-25T15:28:05Z</time>
      </trkpt>
      <trkpt lat="47.56373" lon="-2.72246">
        <ele>2.5</ele>
        <time>2026-08-25T15:28:06Z</time>
      </trkpt>
      <trkpt lat="47.56374" lon="-2.72251">
        <ele>2.5</ele>
        <time>2026-08-25T15:28:07Z</time>
      </trkpt>
      <trkpt lat="47.56375" lon="-2.72257">
        <ele>2.5</ele>
        <time>2026-08-25T15:28:08Z</time>
      </trkpt>
      <trkpt lat="47.56376" lon="-2.72262">
        <ele>2.5</ele>
        <time>2026-08-25T15:28:09Z</time>
      </trkpt>
      <trkpt lat="47.56378" lon="-2.72268">
        <ele>2.6</ele>
        <time>2026-08-25T15:28:10Z</time>
      </trkpt>
      <trkpt lat="47.56379" lon="-2.72274">
        <ele>2.6</ele>
        <time>2026-08-25T15:28:11Z</time>
      </trkpt>
      <trkpt lat="47.5638" lon="-2.7228">
        <ele>2.6</ele>
        <time>2026-08-25T15:28:12Z</time>
      </trkpt>
      <trkpt lat="47.56381" lon="-2.72285">
        <ele>2.5</ele>
        <time>2026-08-25T15:28:13Z</time>
      </trkpt>
      <trkpt lat="47.56382" lon="-2.7229">
        <ele>2.4</ele>
        <time>2026-08-25T15:28:14Z</time>
      </trkpt>
      <trkpt lat="47.56384" lon="-2.72296">
        <ele>2.3</ele>
        <time>2026-08-25T15:28:15Z</time>
      </trkpt>
      <trkpt lat="47.56385" lon="-2.72302">
        <ele>2.1</ele>
        <time>2026-08-25T15:28:16Z</time>
      </trkpt>
      <trkpt lat="47.56386" lon="-2.72308">
        <ele>2</ele>
        <time>2026-08-25T15:28:17Z</time>
      </trkpt>
      <trkpt lat="47.56388" lon="-2.72313">
        <ele>2</ele>
        <time>2026-08-25T15:28:18Z</time>
      </trkpt>
      <trkpt lat="47.56391" lon="-2.72317">
        <ele>2.1</ele>
        <time>2026-08-25T15:28:19Z</time>
      </trkpt>
      <trkpt lat="47.56394" lon="-2.72321">
        <ele>2.2</ele>
        <time>2026-08-25T15:28:20Z</time>
      </trkpt>
      <trkpt lat="47.56397" lon="-2.72324">
        <ele>2.3</ele>
        <time>2026-08-25T15:28:21Z</time>
      </trkpt>
      <trkpt lat="47.564" lon="-2.72327">
        <ele>2.4</ele>
        <time>2026-08-25T15:28:22Z</time>
      </trkpt>
      <trkpt lat="47.56403" lon="-2.7233">
        <ele>2.5</ele>
        <time>2026-08-25T15:28:23Z</time>
      </trkpt>
      <trkpt lat="47.56407" lon="-2.72332">
        <ele>2.7</ele>
        <time>2026-08-25T15:28:24Z</time>
      </trkpt>
      <trkpt lat="47.5641" lon="-2.72333">
        <ele>2.8</ele>
        <time>2026-08-25T15:28:25Z</time>
      </trkpt>
      <trkpt lat="47.56414" lon="-2.72334">
        <ele>2.9</ele>
        <time>2026-08-25T15:28:26Z</time>
      </trkpt>
      <trkpt lat="47.56417" lon="-2.72335">
        <ele>3</ele>
        <time>2026-08-25T15:28:27Z</time>
      </trkpt>
      <trkpt lat="47.56421" lon="-2.72336">
        <ele>3</ele>
        <time>2026-08-25T15:28:28Z</time>
      </trkpt>
      <trkpt lat="47.56424" lon="-2.72337">
        <ele>3</ele>
        <time>2026-08-25T15:28:29Z</time>
      </trkpt>
      <trkpt lat="47.56427" lon="-2.72339">
        <ele>3</ele>
        <time>2026-08-25T15:28:30Z</time>
      </trkpt>
      <trkpt lat="47.56431" lon="-2.7234">
        <ele>3</ele>
        <time>2026-08-25T15:28:31Z</time>
      </trkpt>
      <trkpt lat="47.56434" lon="-2.72341">
        <ele>3</ele>
        <time>2026-08-25T15:28:32Z</time>
      </trkpt>
      <trkpt lat="47.56438" lon="-2.72342">
        <ele>3</ele>
        <time>2026-08-25T15:28:33Z</time>
      </trkpt>
      <trkpt lat="47.56441" lon="-2.72343">
        <ele>3</ele>
        <time>2026-08-25T15:28:34Z</time>
      </trkpt>
      <trkpt lat="47.56443" lon="-2.72345">
        <ele>3</ele>
        <time>2026-08-25T15:28:35Z</time>
      </trkpt>
      <trkpt lat="47.56446" lon="-2.72347">
        <ele>3</ele>
        <time>2026-08-25T15:28:36Z</time>
      </trkpt>
      <trkpt lat="47.56447" lon="-2.7235">
        <ele>3</ele>
        <time>2026-08-25T15:28:37Z</time>
      </trkpt>
      <trkpt lat="47.56448" lon="-2.72354">
        <ele>3</ele>
        <time>2026-08-25T15:28:38Z</time>
      </trkpt>
      <trkpt lat="47.56447" lon="-2.72359">
        <ele>3</ele>
        <time>2026-08-25T15:28:39Z</time>
      </trkpt>
      <trkpt lat="47.56446" lon="-2.72363">
        <ele>3</ele>
        <time>2026-08-25T15:28:40Z</time>
      </trkpt>
      <trkpt lat="47.56445" lon="-2.72368">
        <ele>3</ele>
        <time>2026-08-25T15:28:41Z</time>
      </trkpt>
      <trkpt lat="47.56443" lon="-2.72373">
        <ele>3</ele>
        <time>2026-08-25T15:28:42Z</time>
      </trkpt>
      <trkpt lat="47.56441" lon="-2.72378">
        <ele>3</ele>
        <time>2026-08-25T15:28:43Z</time>
      </trkpt>
      <trkpt lat="47.5644" lon="-2.72384">
        <ele>3</ele>
        <time>2026-08-25T15:28:44Z</time>
      </trkpt>
      <trkpt lat="47.56439" lon="-2.7239">
        <ele>3</ele>
        <time>2026-08-25T15:28:45Z</time>
      </trkpt>
      <trkpt lat="47.56438" lon="-2.72396">
        <ele>2.9</ele>
        <time>2026-08-25T15:28:46Z</time>
      </trkpt>
      <trkpt lat="47.56439" lon="-2.72402">
        <ele>2.9</ele>
        <time>2026-08-25T15:28:47Z</time>
      </trkpt>
      <trkpt lat="47.5644" lon="-2.72408">
        <ele>2.9</ele>
        <time>2026-08-25T15:28:48Z</time>
      </trkpt>
      <trkpt lat="47.56442" lon="-2.72414">
        <ele>2.9</ele>
        <time>2026-08-25T15:28:49Z</time>
      </trkpt>
      <trkpt lat="47.56443" lon="-2.72419">
        <ele>3</ele>
        <time>2026-08-25T15:28:50Z</time>
      </trkpt>
      <trkpt lat="47.56446" lon="-2.72424">
        <ele>3.1</ele>
        <time>2026-08-25T15:28:51Z</time>
      </trkpt>
      <trkpt lat="47.56448" lon="-2.72429">
        <ele>3.1</ele>
        <time>2026-08-25T15:28:52Z</time>
      </trkpt>
      <trkpt lat="47.5645" lon="-2.72435">
        <ele>3.2</ele>
        <time>2026-08-25T15:28:53Z</time>
      </trkpt>
      <trkpt lat="47.56452" lon="-2.7244">
        <ele>3.3</ele>
        <time>2026-08-25T15:28:54Z</time>
      </trkpt>
      <trkpt lat="47.56454" lon="-2.72445">
        <ele>3.4</ele>
        <time>2026-08-25T15:28:55Z</time>
      </trkpt>
      <trkpt lat="47.56456" lon="-2.7245">
        <ele>3.6</ele>
        <time>2026-08-25T15:28:56Z</time>
      </trkpt>
      <trkpt lat="47.56458" lon="-2.72454">
        <ele>3.8</ele>
        <time>2026-08-25T15:28:57Z</time>
      </trkpt>
      <trkpt lat="47.56464" lon="-2.72461">
        <ele>4.3</ele>
        <time>2026-08-25T15:28:58Z</time>
      </trkpt>
      <trkpt lat="47.56464" lon="-2.72461">
        <ele>4.3</ele>
        <time>2026-08-25T15:28:59Z</time>
      </trkpt>
      <trkpt lat="47.56467" lon="-2.72463">
        <ele>4.5</ele>
        <time>2026-08-25T15:29:00Z</time>
      </trkpt>
      <trkpt lat="47.56471" lon="-2.72464">
        <ele>4.7</ele>
        <time>2026-08-25T15:29:01Z</time>
      </trkpt>
      <trkpt lat="47.56475" lon="-2.72463">
        <ele>4.7</ele>
        <time>2026-08-25T15:29:02Z</time>
      </trkpt>
      <trkpt lat="47.56479" lon="-2.72462">
        <ele>4.7</ele>
        <time>2026-08-25T15:29:03Z</time>
      </trkpt>
      <trkpt lat="47.56483" lon="-2.72461">
        <ele>4.8</ele>
        <time>2026-08-25T15:29:04Z</time>
      </trkpt>
      <trkpt lat="47.56487" lon="-2.72459">
        <ele>4.8</ele>
        <time>2026-08-25T15:29:05Z</time>
      </trkpt>
      <trkpt lat="47.5649" lon="-2.72458">
        <ele>4.8</ele>
        <time>2026-08-25T15:29:06Z</time>
      </trkpt>
      <trkpt lat="47.56494" lon="-2.72457">
        <ele>4.9</ele>
        <time>2026-08-25T15:29:07Z</time>
      </trkpt>
      <trkpt lat="47.56498" lon="-2.72456">
        <ele>5</ele>
        <time>2026-08-25T15:29:08Z</time>
      </trkpt>
      <trkpt lat="47.56502" lon="-2.72455">
        <ele>5</ele>
        <time>2026-08-25T15:29:09Z</time>
      </trkpt>
      <trkpt lat="47.56506" lon="-2.72453">
        <ele>5</ele>
        <time>2026-08-25T15:29:10Z</time>
      </trkpt>
      <trkpt lat="47.5651" lon="-2.72452">
        <ele>5</ele>
        <time>2026-08-25T15:29:11Z</time>
      </trkpt>
      <trkpt lat="47.56514" lon="-2.72451">
        <ele>5</ele>
        <time>2026-08-25T15:29:12Z</time>
      </trkpt>
      <trkpt lat="47.56518" lon="-2.7245">
        <ele>5</ele>
        <time>2026-08-25T15:29:13Z</time>
      </trkpt>
      <trkpt lat="47.56521" lon="-2.72449">
        <ele>5</ele>
        <time>2026-08-25T15:29:14Z</time>
      </trkpt>
      <trkpt lat="47.56525" lon="-2.72447">
        <ele>5</ele>
        <time>2026-08-25T15:29:15Z</time>
      </trkpt>
      <trkpt lat="47.56528" lon="-2.72446">
        <ele>5</ele>
        <time>2026-08-25T15:29:16Z</time>
      </trkpt>
      <trkpt lat="47.56532" lon="-2.72445">
        <ele>5</ele>
        <time>2026-08-25T15:29:17Z</time>
      </trkpt>
      <trkpt lat="47.56536" lon="-2.72444">
        <ele>5</ele>
        <time>2026-08-25T15:29:18Z</time>
      </trkpt>
      <trkpt lat="47.56539" lon="-2.72444">
        <ele>5</ele>
        <time>2026-08-25T15:29:19Z</time>
      </trkpt>
      <trkpt lat="47.56542" lon="-2.72444">
        <ele>5</ele>
        <time>2026-08-25T15:29:20Z</time>
      </trkpt>
      <trkpt lat="47.56545" lon="-2.72445">
        <ele>5</ele>
        <time>2026-08-25T15:29:21Z</time>
      </trkpt>
      <trkpt lat="47.56548" lon="-2.72447">
        <ele>5</ele>
        <time>2026-08-25T15:29:22Z</time>
      </trkpt>
      <trkpt lat="47.56551" lon="-2.72449">
        <ele>5</ele>
        <time>2026-08-25T15:29:23Z</time>
      </trkpt>
      <trkpt lat="47.56553" lon="-2.72451">
        <ele>5</ele>
        <time>2026-08-25T15:29:24Z</time>
      </trkpt>
      <trkpt lat="47.56556" lon="-2.72453">
        <ele>5</ele>
        <time>2026-08-25T15:29:25Z</time>
      </trkpt>
      <trkpt lat="47.56559" lon="-2.72454">
        <ele>5</ele>
        <time>2026-08-25T15:29:26Z</time>
      </trkpt>
      <trkpt lat="47.56562" lon="-2.72453">
        <ele>5</ele>
        <time>2026-08-25T15:29:27Z</time>
      </trkpt>
      <trkpt lat="47.56564" lon="-2.72451">
        <ele>5</ele>
        <time>2026-08-25T15:29:28Z</time>
      </trkpt>
      <trkpt lat="47.56566" lon="-2.72448">
        <ele>5</ele>
        <time>2026-08-25T15:29:29Z</time>
      </trkpt>
      <trkpt lat="47.56566" lon="-2.72444">
        <ele>5</ele>
        <time>2026-08-25T15:29:30Z</time>
      </trkpt>
      <trkpt lat="47.56566" lon="-2.72442">
        <ele>5</ele>
        <time>2026-08-25T15:29:31Z</time>
      </trkpt>
      <trkpt lat="47.56566" lon="-2.72439">
        <ele>4.9</ele>
        <time>2026-08-25T15:29:32Z</time>
      </trkpt>
      <trkpt lat="47.56565" lon="-2.72436">
        <ele>4.9</ele>
        <time>2026-08-25T15:29:33Z</time>
      </trkpt>
      <trkpt lat="47.56564" lon="-2.72434">
        <ele>4.9</ele>
        <time>2026-08-25T15:29:34Z</time>
      </trkpt>
      <trkpt lat="47.56562" lon="-2.72434">
        <ele>4.9</ele>
        <time>2026-08-25T15:29:35Z</time>
      </trkpt>
      <trkpt lat="47.56561" lon="-2.72434">
        <ele>4.9</ele>
        <time>2026-08-25T15:29:36Z</time>
      </trkpt>
      <trkpt lat="47.5656" lon="-2.72433">
        <ele>4.9</ele>
        <time>2026-08-25T15:29:37Z</time>
      </trkpt>
      <trkpt lat="47.56559" lon="-2.72432">
        <ele>4.9</ele>
        <time>2026-08-25T15:29:38Z</time>
      </trkpt>
      <trkpt lat="47.56559" lon="-2.72431">
        <ele>4.9</ele>
        <time>2026-08-25T15:29:39Z</time>
      </trkpt>
      <trkpt lat="47.56559" lon="-2.7243">
        <ele>4.9</ele>
        <time>2026-08-25T15:29:40Z</time>
      </trkpt>
    </trkseg>
  </trk>
</gpx>